<?xml version='1.0' encoding='UTF-8'?><gpx version="1.1" creator="JPX - https://github.com/jenetics/jpx" xmlns="http://www.topografix.com/GPX/1/1"><trk><trkseg><trkpt lat="37.67600399627175" lon="14.991447854577485"><ele>1420.0</ele><time>2026-03-28T09:55:26.999Z</time></trkpt><trkpt lat="37.67594965967135" lon="14.991378796628299"><ele>1420.0</ele><time>2026-03-28T09:55:29.999Z</time></trkpt><trkpt lat="37.675901512285684" lon="14.991310850356431"><ele>1420.0</ele><time>2026-03-28T09:55:32.999Z</time></trkpt><trkpt lat="37.67588986763123" lon="14.991225430175183"><ele>1420.0</ele><time>2026-03-28T09:55:38.999Z</time></trkpt><trkpt lat="37.675861259646105" lon="14.991147770552558"><ele>1420.0</ele><time>2026-03-28T09:55:58.999Z</time></trkpt><trkpt lat="37.67582766840811" lon="14.991070251247809"><ele>1420.0</ele><time>2026-03-28T09:56:00.999Z</time></trkpt><trkpt lat="37.67578363988095" lon="14.990971478686507"><ele>1420.0</ele><time>2026-03-28T09:56:03.999Z</time></trkpt><trkpt lat="37.675736314365594" lon="14.990880722829077"><ele>1420.1666666666665</ele><time>2026-03-28T09:56:06.999Z</time></trkpt><trkpt lat="37.675691932509636" lon="14.990812077382916"><ele>1420.3333333333333</ele><time>2026-03-28T09:56:09.999Z</time></trkpt><trkpt lat="37.67564903730162" lon="14.990742356662976"><ele>1420.5</ele><time>2026-03-28T09:56:26.999Z</time></trkpt><trkpt lat="37.67557975097052" lon="14.99073188159941"><ele>1420.6666666666667</ele><time>2026-03-28T09:56:29.999Z</time></trkpt><trkpt lat="37.675478180608074" lon="14.990747850497971"><ele>1420.8333333333335</ele><time>2026-03-28T09:56:32.999Z</time></trkpt><trkpt lat="37.6753912938506" lon="14.990747128735181"><ele>1421.0</ele><time>2026-03-28T09:56:34.998Z</time></trkpt><trkpt lat="37.6752942808343" lon="14.990732641058012"><ele>1418.1999999999998</ele><time>2026-03-28T09:56:36.998Z</time></trkpt><trkpt lat="37.675202850478314" lon="14.990726500575509"><ele>1415.3999999999999</ele><time>2026-03-28T09:56:38.998Z</time></trkpt><trkpt lat="37.675095340543315" lon="14.990729857856945"><ele>1412.6</ele><time>2026-03-28T09:56:40.998Z</time></trkpt><trkpt lat="37.674994593276665" lon="14.990780362221505"><ele>1409.8</ele><time>2026-03-28T09:56:43Z</time></trkpt><trkpt lat="37.67489743563213" lon="14.990867542174563"><ele>1407.0</ele><time>2026-03-28T09:56:45Z</time></trkpt><trkpt lat="37.67479664006578" lon="14.990949292575284"><ele>1406.5</ele><time>2026-03-28T09:56:47Z</time></trkpt><trkpt lat="37.67473100358085" lon="14.990991611528244"><ele>1406.0</ele><time>2026-03-28T09:56:48Z</time></trkpt><trkpt lat="37.674666900261755" lon="14.99102879473893"><ele>1405.5</ele><time>2026-03-28T09:56:49Z</time></trkpt><trkpt lat="37.674602098731505" lon="14.991070232764171"><ele>1405.0</ele><time>2026-03-28T09:56:50Z</time></trkpt><trkpt lat="37.67450555994831" lon="14.99115549262332"><ele>1404.5</ele><time>2026-03-28T09:56:52Z</time></trkpt><trkpt lat="37.674419967828975" lon="14.991219186137027"><ele>1404.0</ele><time>2026-03-28T09:56:54Z</time></trkpt><trkpt lat="37.674314527151104" lon="14.991246088901757"><ele>1400.4</ele><time>2026-03-28T09:56:56Z</time></trkpt><trkpt lat="37.67420031298587" lon="14.991292674042866"><ele>1396.8000000000002</ele><time>2026-03-28T09:56:58Z</time></trkpt><trkpt lat="37.67414314064224" lon="14.991339115802395"><ele>1393.1999999999998</ele><time>2026-03-28T09:56:59Z</time></trkpt><trkpt lat="37.6740303960828" lon="14.99139706568641"><ele>1389.6</ele><time>2026-03-28T09:57:01Z</time></trkpt><trkpt lat="37.67393143251365" lon="14.991443563068419"><ele>1386.0</ele><time>2026-03-28T09:57:03Z</time></trkpt><trkpt lat="37.67382467397517" lon="14.99148966521469"><ele>1386.0</ele><time>2026-03-28T09:57:05Z</time></trkpt><trkpt lat="37.67373195540934" lon="14.99148188922635"><ele>1386.0</ele><time>2026-03-28T09:57:06.999Z</time></trkpt><trkpt lat="37.67361936991473" lon="14.991494878153349"><ele>1386.0</ele><time>2026-03-28T09:57:08.999Z</time></trkpt><trkpt lat="37.6735123248113" lon="14.991485607056"><ele>1386.0</ele><time>2026-03-28T09:57:10.999Z</time></trkpt><trkpt lat="37.67340881197875" lon="14.99147134652753"><ele>1386.0</ele><time>2026-03-28T09:57:12.999Z</time></trkpt><trkpt lat="37.67329817773105" lon="14.991527369316143"><ele>1382.6</ele><time>2026-03-28T09:57:14.999Z</time></trkpt><trkpt lat="37.673207989932095" lon="14.991604009471262"><ele>1379.1999999999998</ele><time>2026-03-28T09:57:16.999Z</time></trkpt><trkpt lat="37.67314882374882" lon="14.991702125455413"><ele>1375.8000000000002</ele><time>2026-03-28T09:57:18.999Z</time></trkpt><trkpt lat="37.67315433030686" lon="14.991821463914064"><ele>1372.4</ele><time>2026-03-28T09:57:20.999Z</time></trkpt><trkpt lat="37.67316343339328" lon="14.9919306527642"><ele>1369.0</ele><time>2026-03-28T09:57:22.999Z</time></trkpt><trkpt lat="37.67312254940275" lon="14.99203479625365"><ele>1368.4</ele><time>2026-03-28T09:57:25.999Z</time></trkpt><trkpt lat="37.67302477631221" lon="14.992038706306785"><ele>1367.8000000000002</ele><time>2026-03-28T09:57:27.999Z</time></trkpt><trkpt lat="37.67291148774906" lon="14.992020470197664"><ele>1367.1999999999998</ele><time>2026-03-28T09:57:29.999Z</time></trkpt><trkpt lat="37.67279957231719" lon="14.992020144743094"><ele>1366.6</ele><time>2026-03-28T09:57:31.999Z</time></trkpt><trkpt lat="37.67268322606573" lon="14.992049774791779"><ele>1366.0</ele><time>2026-03-28T09:57:33.999Z</time></trkpt><trkpt lat="37.67256503334827" lon="14.992052819920229"><ele>1363.3333333333333</ele><time>2026-03-28T09:57:35.999Z</time></trkpt><trkpt lat="37.672450746845236" lon="14.992021652786097"><ele>1360.6666666666665</ele><time>2026-03-28T09:57:37.999Z</time></trkpt><trkpt lat="37.672358049358046" lon="14.991968180995038"><ele>1358.0</ele><time>2026-03-28T09:57:39.999Z</time></trkpt><trkpt lat="37.67229568255401" lon="14.99193788478512"><ele>1355.3333333333333</ele><time>2026-03-28T09:57:41.999Z</time></trkpt><trkpt lat="37.67223281934984" lon="14.991911644906095"><ele>1352.6666666666667</ele><time>2026-03-28T09:57:43.999Z</time></trkpt><trkpt lat="37.672163380598725" lon="14.991895657025827"><ele>1350.0</ele><time>2026-03-28T09:57:45.999Z</time></trkpt><trkpt lat="37.67209783356076" lon="14.991893567983647"><ele>1350.0</ele><time>2026-03-28T09:57:47.999Z</time></trkpt><trkpt lat="37.672021583576175" lon="14.991867450812014"><ele>1350.0</ele><time>2026-03-28T09:57:49.999Z</time></trkpt><trkpt lat="37.671949448884526" lon="14.991862016923704"><ele>1350.0</ele><time>2026-03-28T09:57:51.999Z</time></trkpt><trkpt lat="37.671865328095976" lon="14.991871720080374"><ele>1350.0</ele><time>2026-03-28T09:57:54.999Z</time></trkpt><trkpt lat="37.671773008579464" lon="14.991875048983097"><ele>1350.0</ele><time>2026-03-28T09:57:57.999Z</time></trkpt><trkpt lat="37.67170248577922" lon="14.99187344618742"><ele>1350.0</ele><time>2026-03-28T09:57:59.999Z</time></trkpt><trkpt lat="37.67161751103412" lon="14.991857443957368"><ele>1347.5</ele><time>2026-03-28T09:58:01.999Z</time></trkpt><trkpt lat="37.671518171126145" lon="14.991847203111428"><ele>1345.0</ele><time>2026-03-28T09:58:03.999Z</time></trkpt><trkpt lat="37.67141720681173" lon="14.991855255440699"><ele>1342.5</ele><time>2026-03-28T09:58:05.999Z</time></trkpt><trkpt lat="37.671325461386346" lon="14.991852760263313"><ele>1340.0</ele><time>2026-03-28T09:58:07.999Z</time></trkpt><trkpt lat="37.67126446856461" lon="14.991819408120428"><ele>1337.5</ele><time>2026-03-28T09:58:09.999Z</time></trkpt><trkpt lat="37.671248684573904" lon="14.99172583739324"><ele>1335.0</ele><time>2026-03-28T09:58:11.999Z</time></trkpt><trkpt lat="37.67125355885138" lon="14.991624997334231"><ele>1334.8333333333333</ele><time>2026-03-28T09:58:13.999Z</time></trkpt><trkpt lat="37.671250080458925" lon="14.99152939043326"><ele>1334.6666666666667</ele><time>2026-03-28T09:58:15.999Z</time></trkpt><trkpt lat="37.67125150184945" lon="14.991441945092639"><ele>1334.5</ele><time>2026-03-28T09:58:17.999Z</time></trkpt><trkpt lat="37.67124826317762" lon="14.991348007978472"><ele>1334.3333333333335</ele><time>2026-03-28T09:58:20.999Z</time></trkpt><trkpt lat="37.67124147291223" lon="14.991246097273006"><ele>1334.1666666666667</ele><time>2026-03-28T09:58:23.999Z</time></trkpt><trkpt lat="37.6712522100969" lon="14.991154075728096"><ele>1334.0</ele><time>2026-03-28T09:58:26.998Z</time></trkpt><trkpt lat="37.671384034900825" lon="14.991214423183932"><ele>1334.0</ele><time>2026-03-28T09:58:29.998Z</time></trkpt><trkpt lat="37.67143032611682" lon="14.991060175992446"><ele>1334.0</ele><time>2026-03-28T09:58:30.998Z</time></trkpt><trkpt lat="37.67149349719831" lon="14.990985698972098"><ele>1334.0</ele><time>2026-03-28T09:58:31.998Z</time></trkpt><trkpt lat="37.671550507081484" lon="14.990885263862184"><ele>1334.0</ele><time>2026-03-28T09:58:32.998Z</time></trkpt><trkpt lat="37.67158541227195" lon="14.990765345606901"><ele>1334.0</ele><time>2026-03-28T09:58:33.998Z</time></trkpt><trkpt lat="37.67161216937102" lon="14.990638579678862"><ele>1333.6</ele><time>2026-03-28T09:58:34.998Z</time></trkpt><trkpt lat="37.67158310412948" lon="14.990501487171304"><ele>1333.2</ele><time>2026-03-28T09:58:35.998Z</time></trkpt><trkpt lat="37.67154663867933" lon="14.990370128591028"><ele>1332.8</ele><time>2026-03-28T09:58:36.998Z</time></trkpt><trkpt lat="37.671515529341136" lon="14.99023128760263"><ele>1332.3999999999999</ele><time>2026-03-28T09:58:37.998Z</time></trkpt><trkpt lat="37.67148647024324" lon="14.990095658770054"><ele>1332.0</ele><time>2026-03-28T09:58:38.998Z</time></trkpt><trkpt lat="37.67152539263592" lon="14.989958848338453"><ele>1333.0</ele><time>2026-03-28T09:58:39.998Z</time></trkpt><trkpt lat="37.67156908807393" lon="14.989825444095061"><ele>1334.0</ele><time>2026-03-28T09:58:40.998Z</time></trkpt><trkpt lat="37.671616440716086" lon="14.989680680887814"><ele>1335.0</ele><time>2026-03-28T09:58:41.998Z</time></trkpt><trkpt lat="37.67166870168635" lon="14.98952728287925"><ele>1336.0</ele><time>2026-03-28T09:58:42.998Z</time></trkpt><trkpt lat="37.67172267051601" lon="14.989367791609379"><ele>1336.0</ele><time>2026-03-28T09:58:43.998Z</time></trkpt><trkpt lat="37.671779105348136" lon="14.989199036792614"><ele>1336.0</ele><time>2026-03-28T09:58:44.998Z</time></trkpt><trkpt lat="37.67183007069669" lon="14.989043093204549"><ele>1336.0</ele><time>2026-03-28T09:58:45.998Z</time></trkpt><trkpt lat="37.67187536929732" lon="14.988902994976419"><ele>1336.0</ele><time>2026-03-28T09:58:46.998Z</time></trkpt><trkpt lat="37.67189959454986" lon="14.98876006902189"><ele>1335.75</ele><time>2026-03-28T09:58:47.999Z</time></trkpt><trkpt lat="37.67189603143077" lon="14.988607733446168"><ele>1335.5</ele><time>2026-03-28T09:58:48.999Z</time></trkpt><trkpt lat="37.67188056289941" lon="14.988452074879868"><ele>1335.25</ele><time>2026-03-28T09:58:49.999Z</time></trkpt><trkpt lat="37.67185903499155" lon="14.98828616029859"><ele>1335.0</ele><time>2026-03-28T09:58:50.999Z</time></trkpt><trkpt lat="37.67183545362714" lon="14.988112915416911"><ele>1335.0</ele><time>2026-03-28T09:58:51.999Z</time></trkpt><trkpt lat="37.6718080181939" lon="14.987931438841555"><ele>1335.0</ele><time>2026-03-28T09:58:52.999Z</time></trkpt><trkpt lat="37.671783171779936" lon="14.98776180495746"><ele>1335.0</ele><time>2026-03-28T09:58:53.999Z</time></trkpt><trkpt lat="37.67176180879577" lon="14.98760336257834"><ele>1335.0</ele><time>2026-03-28T09:58:54.999Z</time></trkpt><trkpt lat="37.671746513367715" lon="14.987453581565708"><ele>1336.25</ele><time>2026-03-28T09:58:55.999Z</time></trkpt><trkpt lat="37.671741564599735" lon="14.987310998523109"><ele>1337.5</ele><time>2026-03-28T09:58:56.999Z</time></trkpt><trkpt lat="37.67175284042689" lon="14.98716756597373"><ele>1338.75</ele><time>2026-03-28T09:58:57.999Z</time></trkpt><trkpt lat="37.67178489041034" lon="14.987027284143252"><ele>1340.0</ele><time>2026-03-28T09:58:58.999Z</time></trkpt><trkpt lat="37.67183876182361" lon="14.98690074330098"><ele>1340.0</ele><time>2026-03-28T09:58:59.999Z</time></trkpt><trkpt lat="37.671905019968136" lon="14.98678845814562"><ele>1340.0</ele><time>2026-03-28T09:59:00.999Z</time></trkpt><trkpt lat="37.67197176024717" lon="14.986703574346992"><ele>1340.0</ele><time>2026-03-28T09:59:01.999Z</time></trkpt><trkpt lat="37.67203922962321" lon="14.986635890688774"><ele>1340.0</ele><time>2026-03-28T09:59:02.999Z</time></trkpt><trkpt lat="37.67211769195162" lon="14.98657882116819"><ele>1340.0</ele><time>2026-03-28T09:59:03.999Z</time></trkpt><trkpt lat="37.67219266734795" lon="14.986512637478729"><ele>1343.8</ele><time>2026-03-28T09:59:04.999Z</time></trkpt><trkpt lat="37.67227239070113" lon="14.986466275268164"><ele>1347.6</ele><time>2026-03-28T09:59:05.999Z</time></trkpt><trkpt lat="37.67234868700466" lon="14.986411653775566"><ele>1351.4</ele><time>2026-03-28T09:59:06.999Z</time></trkpt><trkpt lat="37.67242901203501" lon="14.986350639295166"><ele>1355.2</ele><time>2026-03-28T09:59:07.999Z</time></trkpt><trkpt lat="37.672519184587635" lon="14.98629725456261"><ele>1359.0</ele><time>2026-03-28T09:59:08.999Z</time></trkpt><trkpt lat="37.67259243150021" lon="14.986202313986004"><ele>1359.0</ele><time>2026-03-28T09:59:09.999Z</time></trkpt><trkpt lat="37.67265169105985" lon="14.98607945961029"><ele>1359.0</ele><time>2026-03-28T09:59:10.999Z</time></trkpt><trkpt lat="37.67268297976139" lon="14.985938224447146"><ele>1359.0</ele><time>2026-03-28T09:59:11.999Z</time></trkpt><trkpt lat="37.67269640364142" lon="14.98579256618372"><ele>1359.0</ele><time>2026-03-28T09:59:12.999Z</time></trkpt><trkpt lat="37.67270196017393" lon="14.9856474844735"><ele>1358.25</ele><time>2026-03-28T09:59:13.999Z</time></trkpt><trkpt lat="37.67270636881442" lon="14.985500939429585"><ele>1357.5</ele><time>2026-03-28T09:59:14.999Z</time></trkpt><trkpt lat="37.67271072781695" lon="14.985354635597064"><ele>1356.75</ele><time>2026-03-28T09:59:15.999Z</time></trkpt><trkpt lat="37.672723685843245" lon="14.985208835056856"><ele>1356.0</ele><time>2026-03-28T09:59:16.999Z</time></trkpt><trkpt lat="37.67275629082024" lon="14.985073612569632"><ele>1361.5</ele><time>2026-03-28T09:59:17.999Z</time></trkpt><trkpt lat="37.67279490543325" lon="14.984934384278365"><ele>1367.0</ele><time>2026-03-28T09:59:18.999Z</time></trkpt><trkpt lat="37.672837103041886" lon="14.984794982563676"><ele>1372.5</ele><time>2026-03-28T09:59:19.999Z</time></trkpt><trkpt lat="37.67288024056265" lon="14.984652102088784"><ele>1378.0</ele><time>2026-03-28T09:59:20.999Z</time></trkpt><trkpt lat="37.67292465547776" lon="14.984504990232479"><ele>1378.0</ele><time>2026-03-28T09:59:21.999Z</time></trkpt><trkpt lat="37.67295264501704" lon="14.984344577123222"><ele>1378.0</ele><time>2026-03-28T09:59:22.999Z</time></trkpt><trkpt lat="37.673011777744904" lon="14.984206442925114"><ele>1378.0</ele><time>2026-03-28T09:59:23.999Z</time></trkpt><trkpt lat="37.67308458961604" lon="14.98408551198259"><ele>1378.0</ele><time>2026-03-28T09:59:24.999Z</time></trkpt><trkpt lat="37.67317762057703" lon="14.98401305167901"><ele>1377.5</ele><time>2026-03-28T09:59:25.999Z</time></trkpt><trkpt lat="37.67329327177153" lon="14.983975803219025"><ele>1377.0</ele><time>2026-03-28T09:59:26.999Z</time></trkpt><trkpt lat="37.673397720554995" lon="14.983887686919886"><ele>1376.5</ele><time>2026-03-28T09:59:27.999Z</time></trkpt><trkpt lat="37.67352075847865" lon="14.983831214013588"><ele>1376.0</ele><time>2026-03-28T09:59:28.999Z</time></trkpt><trkpt lat="37.673636601986736" lon="14.98373535593607"><ele>1379.75</ele><time>2026-03-28T09:59:29.999Z</time></trkpt><trkpt lat="37.67376676809266" lon="14.98365652886269"><ele>1383.5</ele><time>2026-03-28T09:59:30.999Z</time></trkpt><trkpt lat="37.673898879332235" lon="14.983575140563048"><ele>1387.25</ele><time>2026-03-28T09:59:31.999Z</time></trkpt><trkpt lat="37.67403184291061" lon="14.983488431955573"><ele>1391.0</ele><time>2026-03-28T09:59:32.999Z</time></trkpt><trkpt lat="37.674173840295474" lon="14.98341711243215"><ele>1390.5</ele><time>2026-03-28T09:59:33.999Z</time></trkpt><trkpt lat="37.67430454064755" lon="14.983328910325042"><ele>1390.0</ele><time>2026-03-28T09:59:34.999Z</time></trkpt><trkpt lat="37.67440635494855" lon="14.98323084001081"><ele>1389.5</ele><time>2026-03-28T09:59:35.999Z</time></trkpt><trkpt lat="37.674488192858284" lon="14.983142195900442"><ele>1389.0</ele><time>2026-03-28T09:59:36.999Z</time></trkpt><trkpt lat="37.674563285322854" lon="14.98305822496407"><ele>1391.8000000000002</ele><time>2026-03-28T09:59:37.999Z</time></trkpt><trkpt lat="37.67465955158491" lon="14.983057402729237"><ele>1394.6000000000001</ele><time>2026-03-28T09:59:38.999Z</time></trkpt><trkpt lat="37.674744481166336" lon="14.983107121588791"><ele>1397.4</ele><time>2026-03-28T09:59:39.999Z</time></trkpt><trkpt lat="37.67481390680856" lon="14.98320142518123"><ele>1400.2</ele><time>2026-03-28T09:59:40.999Z</time></trkpt><trkpt lat="37.67487848384748" lon="14.983322157182904"><ele>1403.0</ele><time>2026-03-28T09:59:41.999Z</time></trkpt><trkpt lat="37.67493403657799" lon="14.983468557838743"><ele>1403.5</ele><time>2026-03-28T09:59:42.999Z</time></trkpt><trkpt lat="37.674995329694276" lon="14.983624592926374"><ele>1404.0</ele><time>2026-03-28T09:59:43.999Z</time></trkpt><trkpt lat="37.67505935166438" lon="14.983760600491683"><ele>1404.5</ele><time>2026-03-28T09:59:44.999Z</time></trkpt><trkpt lat="37.67513169875692" lon="14.983858225073359"><ele>1405.0</ele><time>2026-03-28T09:59:45.999Z</time></trkpt><trkpt lat="37.67522643148225" lon="14.983919652467394"><ele>1407.6</ele><time>2026-03-28T09:59:46.999Z</time></trkpt><trkpt lat="37.675333326838825" lon="14.983931891725163"><ele>1410.2</ele><time>2026-03-28T09:59:47.999Z</time></trkpt><trkpt lat="37.675437554670886" lon="14.983895827305092"><ele>1412.8000000000002</ele><time>2026-03-28T09:59:48.999Z</time></trkpt><trkpt lat="37.67552481971197" lon="14.983811307597065"><ele>1415.4</ele><time>2026-03-28T09:59:49.999Z</time></trkpt><trkpt lat="37.67559851711333" lon="14.983703268964371"><ele>1418.0</ele><time>2026-03-28T09:59:50.999Z</time></trkpt><trkpt lat="37.675616305952786" lon="14.983573095374672"><ele>1418.0</ele><time>2026-03-28T09:59:51.999Z</time></trkpt><trkpt lat="37.675595626296875" lon="14.983431228291135"><ele>1418.0</ele><time>2026-03-28T09:59:52.999Z</time></trkpt><trkpt lat="37.67557288389116" lon="14.983277805457794"><ele>1418.0</ele><time>2026-03-28T09:59:53.999Z</time></trkpt><trkpt lat="37.675559031636595" lon="14.983109198543278"><ele>1418.0</ele><time>2026-03-28T09:59:54.999Z</time></trkpt><trkpt lat="37.67556546817723" lon="14.982921700054808"><ele>1418.3333333333335</ele><time>2026-03-28T09:59:55.999Z</time></trkpt><trkpt lat="37.67560217579824" lon="14.98271660993491"><ele>1418.6666666666667</ele><time>2026-03-28T09:59:56.999Z</time></trkpt><trkpt lat="37.675656586883186" lon="14.98249383798399"><ele>1419.0</ele><time>2026-03-28T09:59:57.999Z</time></trkpt><trkpt lat="37.67571654895204" lon="14.982247146348286"><ele>1420.3333333333333</ele><time>2026-03-28T09:59:58.999Z</time></trkpt><trkpt lat="37.67576008189963" lon="14.981970983405837"><ele>1421.6666666666665</ele><time>2026-03-28T09:59:59.999Z</time></trkpt><trkpt lat="37.67578189160203" lon="14.981686620678625"><ele>1423.0</ele><time>2026-03-28T10:00:00.999Z</time></trkpt><trkpt lat="37.67578737145515" lon="14.981388285669174"><ele>1423.5</ele><time>2026-03-28T10:00:01.999Z</time></trkpt><trkpt lat="37.675775933418116" lon="14.981090544272064"><ele>1424.0</ele><time>2026-03-28T10:00:02.999Z</time></trkpt><trkpt lat="37.67574456751561" lon="14.980718960117969"><ele>1423.0</ele><time>2026-03-28T10:00:03.999Z</time></trkpt><trkpt lat="37.675736503217834" lon="14.980415884338804"><ele>1422.0</ele><time>2026-03-28T10:00:04.999Z</time></trkpt><trkpt lat="37.67571880105223" lon="14.98014413893763"><ele>1420.6666666666667</ele><time>2026-03-28T10:00:05.999Z</time></trkpt><trkpt lat="37.675702961459834" lon="14.979904819891884"><ele>1419.3333333333335</ele><time>2026-03-28T10:00:06.999Z</time></trkpt><trkpt lat="37.675686536322246" lon="14.97969276996926"><ele>1418.0</ele><time>2026-03-28T10:00:07.999Z</time></trkpt><trkpt lat="37.67568016441255" lon="14.97950386143241"><ele>1418.0</ele><time>2026-03-28T10:00:08.999Z</time></trkpt><trkpt lat="37.67569548701974" lon="14.97934555290272"><ele>1418.0</ele><time>2026-03-28T10:00:09.999Z</time></trkpt><trkpt lat="37.67573283904674" lon="14.979219570172235"><ele>1418.0</ele><time>2026-03-28T10:00:10.999Z</time></trkpt><trkpt lat="37.67580331839643" lon="14.979121112160174"><ele>1418.0</ele><time>2026-03-28T10:00:11.999Z</time></trkpt><trkpt lat="37.67587985647682" lon="14.979026702338649"><ele>1418.0</ele><time>2026-03-28T10:00:12.999Z</time></trkpt><trkpt lat="37.67597941010249" lon="14.978970052784298"><ele>1418.0</ele><time>2026-03-28T10:00:13.999Z</time></trkpt><trkpt lat="37.67609992444165" lon="14.978941221634662"><ele>1418.0</ele><time>2026-03-28T10:00:14.999Z</time></trkpt><trkpt lat="37.67623115369603" lon="14.978952592319684"><ele>1418.0</ele><time>2026-03-28T10:00:15.999Z</time></trkpt><trkpt lat="37.67636030134683" lon="14.979008571366661"><ele>1418.0</ele><time>2026-03-28T10:00:16.999Z</time></trkpt><trkpt lat="37.67645554578282" lon="14.979105665323226"><ele>1419.25</ele><time>2026-03-28T10:00:17.999Z</time></trkpt><trkpt lat="37.67654505157907" lon="14.979235560843211"><ele>1420.5</ele><time>2026-03-28T10:00:18.999Z</time></trkpt><trkpt lat="37.67658975094798" lon="14.979395225959077"><ele>1421.75</ele><time>2026-03-28T10:00:19.999Z</time></trkpt><trkpt lat="37.67660628892645" lon="14.979571404605693"><ele>1423.0</ele><time>2026-03-28T10:00:20.999Z</time></trkpt><trkpt lat="37.67660753560446" lon="14.979757679432215"><ele>1423.0</ele><time>2026-03-28T10:00:21.999Z</time></trkpt><trkpt lat="37.67661850428023" lon="14.979959617800874"><ele>1423.0</ele><time>2026-03-28T10:00:22.999Z</time></trkpt><trkpt lat="37.67661026831958" lon="14.980166017066173"><ele>1423.0</ele><time>2026-03-28T10:00:23.999Z</time></trkpt><trkpt lat="37.67660476336062" lon="14.980375425951832"><ele>1424.3333333333333</ele><time>2026-03-28T10:00:24.999Z</time></trkpt><trkpt lat="37.67660544110031" lon="14.98059100710434"><ele>1425.6666666666667</ele><time>2026-03-28T10:00:25.999Z</time></trkpt><trkpt lat="37.67660439730226" lon="14.980811950920103"><ele>1427.0</ele><time>2026-03-28T10:00:26.999Z</time></trkpt><trkpt lat="37.6766028798178" lon="14.981041708652542"><ele>1428.3333333333335</ele><time>2026-03-28T10:00:27.999Z</time></trkpt><trkpt lat="37.6766046714798" lon="14.981255882710041"><ele>1429.6666666666667</ele><time>2026-03-28T10:00:28.998Z</time></trkpt><trkpt lat="37.676609385484845" lon="14.981441487386597"><ele>1431.0</ele><time>2026-03-28T10:00:29.998Z</time></trkpt><trkpt lat="37.676608093245754" lon="14.981612709544118"><ele>1432.75</ele><time>2026-03-28T10:00:30.998Z</time></trkpt><trkpt lat="37.67660842576154" lon="14.981769550058326"><ele>1434.5</ele><time>2026-03-28T10:00:31.998Z</time></trkpt><trkpt lat="37.6766112613705" lon="14.981914714319082"><ele>1436.25</ele><time>2026-03-28T10:00:32.998Z</time></trkpt><trkpt lat="37.676635708114226" lon="14.982070528410887"><ele>1438.0</ele><time>2026-03-28T10:00:33.998Z</time></trkpt><trkpt lat="37.67669019095551" lon="14.982217098395479"><ele>1438.0</ele><time>2026-03-28T10:00:34.998Z</time></trkpt><trkpt lat="37.676769969419" lon="14.982348217258487"><ele>1438.0</ele><time>2026-03-28T10:00:35.998Z</time></trkpt><trkpt lat="37.67686953812864" lon="14.982460495585679"><ele>1438.0</ele><time>2026-03-28T10:00:36.998Z</time></trkpt><trkpt lat="37.67698361890557" lon="14.982556368736264"><ele>1438.0</ele><time>2026-03-28T10:00:37.998Z</time></trkpt><trkpt lat="37.67710627542428" lon="14.982633389372408"><ele>1441.25</ele><time>2026-03-28T10:00:38.998Z</time></trkpt><trkpt lat="37.6772293769192" lon="14.982700930298252"><ele>1444.5</ele><time>2026-03-28T10:00:39.998Z</time></trkpt><trkpt lat="37.677344037745264" lon="14.982778304931887"><ele>1447.75</ele><time>2026-03-28T10:00:40.998Z</time></trkpt><trkpt lat="37.67745034393943" lon="14.982862583866314"><ele>1451.0</ele><time>2026-03-28T10:00:41.998Z</time></trkpt><trkpt lat="37.6775575558776" lon="14.9829432316228"><ele>1451.0</ele><time>2026-03-28T10:00:42.998Z</time></trkpt><trkpt lat="37.67766751886184" lon="14.983019455260377"><ele>1451.0</ele><time>2026-03-28T10:00:43.998Z</time></trkpt><trkpt lat="37.677776699721605" lon="14.983096361664167"><ele>1451.0</ele><time>2026-03-28T10:00:44.998Z</time></trkpt><trkpt lat="37.67788344364893" lon="14.983171793023475"><ele>1451.0</ele><time>2026-03-28T10:00:45.998Z</time></trkpt><trkpt lat="37.67799086529032" lon="14.983236423560577"><ele>1454.0</ele><time>2026-03-28T10:00:46.998Z</time></trkpt><trkpt lat="37.67809912225168" lon="14.983270251214748"><ele>1457.0</ele><time>2026-03-28T10:00:47.998Z</time></trkpt><trkpt lat="37.67820877897377" lon="14.983260509084527"><ele>1460.0</ele><time>2026-03-28T10:00:48.998Z</time></trkpt><trkpt lat="37.67830549054226" lon="14.983201306900376"><ele>1463.0</ele><time>2026-03-28T10:00:49.998Z</time></trkpt><trkpt lat="37.67838774677152" lon="14.983098256545823"><ele>1466.0</ele><time>2026-03-28T10:00:50.998Z</time></trkpt><trkpt lat="37.67844765905454" lon="14.982967887906273"><ele>1466.0</ele><time>2026-03-28T10:00:51.998Z</time></trkpt><trkpt lat="37.678498035847774" lon="14.982821787202235"><ele>1466.0</ele><time>2026-03-28T10:00:52.998Z</time></trkpt><trkpt lat="37.678576134545" lon="14.982696109806396"><ele>1466.0</ele><time>2026-03-28T10:00:53.999Z</time></trkpt><trkpt lat="37.678660628317445" lon="14.98257694421302"><ele>1466.0</ele><time>2026-03-28T10:00:54.999Z</time></trkpt><trkpt lat="37.67876625550242" lon="14.982469783031858"><ele>1470.0</ele><time>2026-03-28T10:00:55.999Z</time></trkpt><trkpt lat="37.67887945818507" lon="14.98235549102355"><ele>1474.0</ele><time>2026-03-28T10:00:56.999Z</time></trkpt><trkpt lat="37.67899964450086" lon="14.982241102043105"><ele>1478.0</ele><time>2026-03-28T10:00:57.999Z</time></trkpt><trkpt lat="37.67912478800646" lon="14.982125377225865"><ele>1478.0</ele><time>2026-03-28T10:00:58.999Z</time></trkpt><trkpt lat="37.67924857332904" lon="14.98200696734077"><ele>1478.0</ele><time>2026-03-28T10:00:59.999Z</time></trkpt><trkpt lat="37.67936751399082" lon="14.981890901195502"><ele>1478.0</ele><time>2026-03-28T10:01:00.999Z</time></trkpt><trkpt lat="37.67947575018247" lon="14.98178528081898"><ele>1478.0</ele><time>2026-03-28T10:01:01.999Z</time></trkpt><trkpt lat="37.679578071365434" lon="14.981685432498807"><ele>1477.75</ele><time>2026-03-28T10:01:02.999Z</time></trkpt><trkpt lat="37.67967951775713" lon="14.98158731796904"><ele>1477.5</ele><time>2026-03-28T10:01:03.999Z</time></trkpt><trkpt lat="37.6797811540882" lon="14.98149003609067"><ele>1477.25</ele><time>2026-03-28T10:01:04.999Z</time></trkpt><trkpt lat="37.6798845176814" lon="14.98138994405243"><ele>1477.0</ele><time>2026-03-28T10:01:05.999Z</time></trkpt><trkpt lat="37.679988058063444" lon="14.981287553438284"><ele>1477.0</ele><time>2026-03-28T10:01:06.999Z</time></trkpt><trkpt lat="37.680091621287474" lon="14.981186071908901"><ele>1477.0</ele><time>2026-03-28T10:01:07.999Z</time></trkpt><trkpt lat="37.680197979530966" lon="14.981083681500394"><ele>1477.0</ele><time>2026-03-28T10:01:08.999Z</time></trkpt><trkpt lat="37.68030748290776" lon="14.980978263291345"><ele>1477.0</ele><time>2026-03-28T10:01:09.999Z</time></trkpt><trkpt lat="37.68041883455521" lon="14.980874943811472"><ele>1479.0</ele><time>2026-03-28T10:01:10.999Z</time></trkpt><trkpt lat="37.6805345643383" lon="14.980776240969156"><ele>1481.0</ele><time>2026-03-28T10:01:11.999Z</time></trkpt><trkpt lat="37.68065754787366" lon="14.980703353749615"><ele>1483.0</ele><time>2026-03-28T10:01:12.999Z</time></trkpt><trkpt lat="37.68078657119251" lon="14.980626401568435"><ele>1485.0</ele><time>2026-03-28T10:01:13.999Z</time></trkpt><trkpt lat="37.680919694966015" lon="14.980598619311353"><ele>1485.0</ele><time>2026-03-28T10:01:14.999Z</time></trkpt><trkpt lat="37.68103766823539" lon="14.980607413289782"><ele>1485.0</ele><time>2026-03-28T10:01:15.999Z</time></trkpt><trkpt lat="37.68114373152587" lon="14.980667204929398"><ele>1485.0</ele><time>2026-03-28T10:01:16.999Z</time></trkpt><trkpt lat="37.68124507430774" lon="14.980761272928254"><ele>1485.0</ele><time>2026-03-28T10:01:17.999Z</time></trkpt><trkpt lat="37.68133234162946" lon="14.980881460102177"><ele>1490.5</ele><time>2026-03-28T10:01:18.999Z</time></trkpt><trkpt lat="37.68138752401537" lon="14.981028479637262"><ele>1496.0</ele><time>2026-03-28T10:01:19.999Z</time></trkpt><trkpt lat="37.681405879278856" lon="14.981193188199022"><ele>1501.5</ele><time>2026-03-28T10:01:20.999Z</time></trkpt><trkpt lat="37.681395356588816" lon="14.981369153746204"><ele>1507.0</ele><time>2026-03-28T10:01:21.999Z</time></trkpt><trkpt lat="37.68137702295497" lon="14.981555666143766"><ele>1508.6666666666665</ele><time>2026-03-28T10:01:22.999Z</time></trkpt><trkpt lat="37.681353044881845" lon="14.981751217144947"><ele>1510.3333333333333</ele><time>2026-03-28T10:01:23.999Z</time></trkpt><trkpt lat="37.681314458660204" lon="14.981951839686706"><ele>1512.0</ele><time>2026-03-28T10:01:24.999Z</time></trkpt><trkpt lat="37.68126234219285" lon="14.982160628189765"><ele>1512.0</ele><time>2026-03-28T10:01:25.999Z</time></trkpt><trkpt lat="37.68120680934728" lon="14.982374822888442"><ele>1512.0</ele><time>2026-03-28T10:01:26.999Z</time></trkpt><trkpt lat="37.681151636207005" lon="14.982594130753128"><ele>1512.0</ele><time>2026-03-28T10:01:27.999Z</time></trkpt><trkpt lat="37.68109672633905" lon="14.98282178486012"><ele>1512.0</ele><time>2026-03-28T10:01:28.999Z</time></trkpt><trkpt lat="37.68104280331746" lon="14.983049166841662"><ele>1512.0</ele><time>2026-03-28T10:01:29.999Z</time></trkpt><trkpt lat="37.68098779118147" lon="14.983282070070228"><ele>1512.0</ele><time>2026-03-28T10:01:30.999Z</time></trkpt><trkpt lat="37.68093388574797" lon="14.983501823773603"><ele>1512.0</ele><time>2026-03-28T10:01:31.999Z</time></trkpt><trkpt lat="37.68088406016171" lon="14.983703836588134"><ele>1512.0</ele><time>2026-03-28T10:01:32.999Z</time></trkpt><trkpt lat="37.6808386454208" lon="14.983903487182166"><ele>1512.0</ele><time>2026-03-28T10:01:33.999Z</time></trkpt><trkpt lat="37.68080354233983" lon="14.984102540807488"><ele>1513.6666666666667</ele><time>2026-03-28T10:01:34.999Z</time></trkpt><trkpt lat="37.680781782295625" lon="14.98430633498857"><ele>1515.3333333333335</ele><time>2026-03-28T10:01:35.999Z</time></trkpt><trkpt lat="37.680776247636224" lon="14.984513766005948"><ele>1517.0</ele><time>2026-03-28T10:01:36.999Z</time></trkpt><trkpt lat="37.680786460145114" lon="14.984725375376739"><ele>1517.0</ele><time>2026-03-28T10:01:37.999Z</time></trkpt><trkpt lat="37.680813297416016" lon="14.984937153192845"><ele>1517.0</ele><time>2026-03-28T10:01:38.999Z</time></trkpt><trkpt lat="37.680858054397895" lon="14.98514847689062"><ele>1517.0</ele><time>2026-03-28T10:01:39.999Z</time></trkpt><trkpt lat="37.68092015608266" lon="14.985358779425336"><ele>1516.0</ele><time>2026-03-28T10:01:40.999Z</time></trkpt><trkpt lat="37.680997911332625" lon="14.985559758472924"><ele>1515.0</ele><time>2026-03-28T10:01:41.999Z</time></trkpt><trkpt lat="37.68109389403524" lon="14.985749770392486"><ele>1514.0</ele><time>2026-03-28T10:01:42.999Z</time></trkpt><trkpt lat="37.681208571291215" lon="14.985926000035859"><ele>1517.3333333333335</ele><time>2026-03-28T10:01:43.999Z</time></trkpt><trkpt lat="37.68133537192175" lon="14.986084613103928"><ele>1520.6666666666667</ele><time>2026-03-28T10:01:44.999Z</time></trkpt><trkpt lat="37.68147255436046" lon="14.98623010872952"><ele>1524.0</ele><time>2026-03-28T10:01:45.999Z</time></trkpt><trkpt lat="37.68161042523782" lon="14.986358138904018"><ele>1524.0</ele><time>2026-03-28T10:01:46.999Z</time></trkpt><trkpt lat="37.68174714514464" lon="14.986474878070725"><ele>1524.0</ele><time>2026-03-28T10:01:47.999Z</time></trkpt><trkpt lat="37.681883501031784" lon="14.986598212711753"><ele>1524.0</ele><time>2026-03-28T10:01:48.999Z</time></trkpt><trkpt lat="37.682011595524095" lon="14.986723257210484"><ele>1528.0</ele><time>2026-03-28T10:01:49.999Z</time></trkpt><trkpt lat="37.68213812232705" lon="14.986847206521777"><ele>1532.0</ele><time>2026-03-28T10:01:50.999Z</time></trkpt><trkpt lat="37.68226677801619" lon="14.986965115224018"><ele>1536.0</ele><time>2026-03-28T10:01:51.999Z</time></trkpt><trkpt lat="37.68239496409889" lon="14.987085010894665"><ele>1536.0</ele><time>2026-03-28T10:01:52.999Z</time></trkpt><trkpt lat="37.6825192175299" lon="14.987204430557947"><ele>1536.0</ele><time>2026-03-28T10:01:53.999Z</time></trkpt><trkpt lat="37.68264424677978" lon="14.987328580165867"><ele>1536.0</ele><time>2026-03-28T10:01:54.999Z</time></trkpt><trkpt lat="37.6827646908974" lon="14.987461882724405"><ele>1540.3333333333335</ele><time>2026-03-28T10:01:55.999Z</time></trkpt><trkpt lat="37.68286926153724" lon="14.987613442386294"><ele>1544.6666666666667</ele><time>2026-03-28T10:01:56.999Z</time></trkpt><trkpt lat="37.682951978084134" lon="14.987785159021199"><ele>1549.0</ele><time>2026-03-28T10:01:57.999Z</time></trkpt><trkpt lat="37.68302033737361" lon="14.987973781271016"><ele>1549.0</ele><time>2026-03-28T10:01:58.999Z</time></trkpt><trkpt lat="37.683085154297515" lon="14.988161839421815"><ele>1549.0</ele><time>2026-03-28T10:01:59.999Z</time></trkpt><trkpt lat="37.683152529864564" lon="14.988358045059696"><ele>1549.0</ele><time>2026-03-28T10:02:00.999Z</time></trkpt><trkpt lat="37.68321964894673" lon="14.988549245246853"><ele>1548.3333333333335</ele><time>2026-03-28T10:02:01.999Z</time></trkpt><trkpt lat="37.68329011627606" lon="14.988747843948984"><ele>1547.6666666666665</ele><time>2026-03-28T10:02:02.999Z</time></trkpt><trkpt lat="37.683360792073" lon="14.988942565689138"><ele>1547.0</ele><time>2026-03-28T10:02:03.999Z</time></trkpt><trkpt lat="37.683435671430075" lon="14.989130783169191"><ele>1549.3333333333333</ele><time>2026-03-28T10:02:04.999Z</time></trkpt><trkpt lat="37.683516917462065" lon="14.989300350147108"><ele>1551.6666666666665</ele><time>2026-03-28T10:02:05.999Z</time></trkpt><trkpt lat="37.68361529621189" lon="14.989452466971976"><ele>1554.0</ele><time>2026-03-28T10:02:06.999Z</time></trkpt><trkpt lat="37.6837351896212" lon="14.989581126841767"><ele>1557.6666666666665</ele><time>2026-03-28T10:02:07.999Z</time></trkpt><trkpt lat="37.68387758034335" lon="14.989685344444045"><ele>1561.3333333333333</ele><time>2026-03-28T10:02:08.999Z</time></trkpt><trkpt lat="37.684024721849774" lon="14.989746640455587"><ele>1565.0</ele><time>2026-03-28T10:02:09.999Z</time></trkpt><trkpt lat="37.68416137384306" lon="14.989744599116255"><ele>1565.0</ele><time>2026-03-28T10:02:10.999Z</time></trkpt><trkpt lat="37.684285256209265" lon="14.989681883910688"><ele>1565.0</ele><time>2026-03-28T10:02:11.999Z</time></trkpt><trkpt lat="37.68439361106724" lon="14.989569677619821"><ele>1565.0</ele><time>2026-03-28T10:02:12.999Z</time></trkpt><trkpt lat="37.68447246116683" lon="14.989423003562083"><ele>1565.0</ele><time>2026-03-28T10:02:13.999Z</time></trkpt><trkpt lat="37.68450423392497" lon="14.989255215152982"><ele>1564.0</ele><time>2026-03-28T10:02:14.999Z</time></trkpt><trkpt lat="37.68449941538778" lon="14.989068449414276"><ele>1563.0</ele><time>2026-03-28T10:02:15.999Z</time></trkpt><trkpt lat="37.68447077659743" lon="14.988863986738677"><ele>1562.0</ele><time>2026-03-28T10:02:16.999Z</time></trkpt><trkpt lat="37.68441827624517" lon="14.988655379792291"><ele>1562.0</ele><time>2026-03-28T10:02:17.999Z</time></trkpt><trkpt lat="37.684342423694126" lon="14.98844023803445"><ele>1562.0</ele><time>2026-03-28T10:02:18.999Z</time></trkpt><trkpt lat="37.68428124426549" lon="14.988234541892417"><ele>1562.0</ele><time>2026-03-28T10:02:19.999Z</time></trkpt><trkpt lat="37.68422007913201" lon="14.988064999176741"><ele>1563.75</ele><time>2026-03-28T10:02:20.999Z</time></trkpt><trkpt lat="37.68417347275109" lon="14.987926017669517"><ele>1565.5</ele><time>2026-03-28T10:02:21.999Z</time></trkpt><trkpt lat="37.68413720827109" lon="14.987800788345057"><ele>1567.25</ele><time>2026-03-28T10:02:22.999Z</time></trkpt><trkpt lat="37.684107304442506" lon="14.987663872923253"><ele>1569.0</ele><time>2026-03-28T10:02:23.999Z</time></trkpt><trkpt lat="37.68408761448184" lon="14.987498389632925"><ele>1571.3333333333335</ele><time>2026-03-28T10:02:24.999Z</time></trkpt><trkpt lat="37.684099976064346" lon="14.987319640833274"><ele>1573.6666666666667</ele><time>2026-03-28T10:02:25.999Z</time></trkpt><trkpt lat="37.68413662855132" lon="14.987137258675448"><ele>1576.0</ele><time>2026-03-28T10:02:26.999Z</time></trkpt><trkpt lat="37.684195523592045" lon="14.986948976768906"><ele>1576.0</ele><time>2026-03-28T10:02:27.998Z</time></trkpt><trkpt lat="37.684259709824204" lon="14.986744722150693"><ele>1576.0</ele><time>2026-03-28T10:02:28.998Z</time></trkpt><trkpt lat="37.68432595391898" lon="14.986533918986092"><ele>1576.0</ele><time>2026-03-28T10:02:29.998Z</time></trkpt><trkpt lat="37.684392472953334" lon="14.986322240856078"><ele>1582.0</ele><time>2026-03-28T10:02:30.998Z</time></trkpt><trkpt lat="37.68445249614422" lon="14.98612921868382"><ele>1588.0</ele><time>2026-03-28T10:02:31.998Z</time></trkpt><trkpt lat="37.68450424994059" lon="14.985964837494032"><ele>1594.0</ele><time>2026-03-28T10:02:32.998Z</time></trkpt><trkpt lat="37.684557007417965" lon="14.985830145384869"><ele>1600.0</ele><time>2026-03-28T10:02:33.998Z</time></trkpt><trkpt lat="37.68461102785535" lon="14.985710935928358"><ele>1600.0</ele><time>2026-03-28T10:02:34.998Z</time></trkpt><trkpt lat="37.68469597127379" lon="14.98560400130314"><ele>1600.0</ele><time>2026-03-28T10:02:35.998Z</time></trkpt><trkpt lat="37.68479702972316" lon="14.985493441724937"><ele>1600.0</ele><time>2026-03-28T10:02:36.998Z</time></trkpt><trkpt lat="37.68490693264857" lon="14.985401062485526"><ele>1600.0</ele><time>2026-03-28T10:02:37.998Z</time></trkpt><trkpt lat="37.685018716146914" lon="14.985344669450855"><ele>1600.0</ele><time>2026-03-28T10:02:38.998Z</time></trkpt><trkpt lat="37.68514322031201" lon="14.985319480583694"><ele>1600.0</ele><time>2026-03-28T10:02:39.998Z</time></trkpt><trkpt lat="37.68527560983837" lon="14.985337581902638"><ele>1600.0</ele><time>2026-03-28T10:02:40.998Z</time></trkpt><trkpt lat="37.68539898957804" lon="14.985397551276165"><ele>1600.0</ele><time>2026-03-28T10:02:41.998Z</time></trkpt><trkpt lat="37.6854998867914" lon="14.9855177734865"><ele>1603.0</ele><time>2026-03-28T10:02:42.998Z</time></trkpt><trkpt lat="37.68558552404547" lon="14.985647899787903"><ele>1606.0</ele><time>2026-03-28T10:02:43.998Z</time></trkpt><trkpt lat="37.6856404679123" lon="14.985802921378461"><ele>1609.0</ele><time>2026-03-28T10:02:44.998Z</time></trkpt><trkpt lat="37.68566062492289" lon="14.985974601881797"><ele>1612.0</ele><time>2026-03-28T10:02:45.998Z</time></trkpt><trkpt lat="37.68564915590642" lon="14.986155482987288"><ele>1612.6666666666667</ele><time>2026-03-28T10:02:46.998Z</time></trkpt><trkpt lat="37.685624204465974" lon="14.986342517509915"><ele>1613.3333333333335</ele><time>2026-03-28T10:02:47.998Z</time></trkpt><trkpt lat="37.68559145200192" lon="14.986535246451556"><ele>1614.0</ele><time>2026-03-28T10:02:48.998Z</time></trkpt><trkpt lat="37.685559673100556" lon="14.986738166438279"><ele>1614.6666666666665</ele><time>2026-03-28T10:02:49.998Z</time></trkpt><trkpt lat="37.68554480987486" lon="14.986944802944784"><ele>1615.3333333333333</ele><time>2026-03-28T10:02:50.998Z</time></trkpt><trkpt lat="37.685549427620984" lon="14.987162269511517"><ele>1616.0</ele><time>2026-03-28T10:02:51.998Z</time></trkpt><trkpt lat="37.68557271992062" lon="14.987379904875395"><ele>1615.6666666666665</ele><time>2026-03-28T10:02:52.998Z</time></trkpt><trkpt lat="37.685608648314805" lon="14.98760028369687"><ele>1615.3333333333335</ele><time>2026-03-28T10:02:53.998Z</time></trkpt><trkpt lat="37.685655705697336" lon="14.987829424371643"><ele>1615.0</ele><time>2026-03-28T10:02:54.998Z</time></trkpt><trkpt lat="37.68571077542958" lon="14.988051717146785"><ele>1615.0</ele><time>2026-03-28T10:02:55.998Z</time></trkpt><trkpt lat="37.68575904678958" lon="14.988239535574444"><ele>1615.0</ele><time>2026-03-28T10:02:56.998Z</time></trkpt><trkpt lat="37.68580136205195" lon="14.98841786656579"><ele>1615.0</ele><time>2026-03-28T10:02:57.998Z</time></trkpt><trkpt lat="37.685839859482435" lon="14.988579765970561"><ele>1615.0</ele><time>2026-03-28T10:02:58.998Z</time></trkpt><trkpt lat="37.68588697199778" lon="14.988721011684069"><ele>1614.75</ele><time>2026-03-28T10:02:59.999Z</time></trkpt><trkpt lat="37.685952316505514" lon="14.988862809182416"><ele>1614.5</ele><time>2026-03-28T10:03:00.999Z</time></trkpt><trkpt lat="37.68603812678338" lon="14.98899338177505"><ele>1614.25</ele><time>2026-03-28T10:03:01.999Z</time></trkpt><trkpt lat="37.68614579404505" lon="14.989099762956199"><ele>1614.0</ele><time>2026-03-28T10:03:02.999Z</time></trkpt><trkpt lat="37.686264658896235" lon="14.989164064666843"><ele>1619.75</ele><time>2026-03-28T10:03:03.999Z</time></trkpt><trkpt lat="37.68639380848361" lon="14.989183947198178"><ele>1625.5</ele><time>2026-03-28T10:03:04.999Z</time></trkpt><trkpt lat="37.686522900096435" lon="14.989156971394454"><ele>1631.25</ele><time>2026-03-28T10:03:05.999Z</time></trkpt><trkpt lat="37.68664558477952" lon="14.989096829374972"><ele>1637.0</ele><time>2026-03-28T10:03:06.999Z</time></trkpt><trkpt lat="37.68674941367753" lon="14.989000204261684"><ele>1637.0</ele><time>2026-03-28T10:03:07.999Z</time></trkpt><trkpt lat="37.68683376393116" lon="14.988870496258613"><ele>1637.0</ele><time>2026-03-28T10:03:08.999Z</time></trkpt><trkpt lat="37.686887505612795" lon="14.988725056262039"><ele>1637.0</ele><time>2026-03-28T10:03:09.999Z</time></trkpt><trkpt lat="37.68691020491854" lon="14.98856330342714"><ele>1637.0</ele><time>2026-03-28T10:03:10.999Z</time></trkpt><trkpt lat="37.6869081682738" lon="14.98838256891319"><ele>1636.0</ele><time>2026-03-28T10:03:11.999Z</time></trkpt><trkpt lat="37.68689228998284" lon="14.988192954909119"><ele>1635.0</ele><time>2026-03-28T10:03:12.999Z</time></trkpt><trkpt lat="37.68686777911476" lon="14.987991022807151"><ele>1634.0</ele><time>2026-03-28T10:03:13.999Z</time></trkpt><trkpt lat="37.68685953614814" lon="14.987779013932844"><ele>1634.0</ele><time>2026-03-28T10:03:14.999Z</time></trkpt><trkpt lat="37.686834852538965" lon="14.987565773055504"><ele>1634.0</ele><time>2026-03-28T10:03:15.999Z</time></trkpt><trkpt lat="37.68680967105543" lon="14.987355888927853"><ele>1634.0</ele><time>2026-03-28T10:03:16.999Z</time></trkpt><trkpt lat="37.68677980779529" lon="14.98714848063186"><ele>1634.25</ele><time>2026-03-28T10:03:17.999Z</time></trkpt><trkpt lat="37.686761128362235" lon="14.986952163360305"><ele>1634.5</ele><time>2026-03-28T10:03:18.999Z</time></trkpt><trkpt lat="37.68676026379934" lon="14.986773996134616"><ele>1634.75</ele><time>2026-03-28T10:03:19.999Z</time></trkpt><trkpt lat="37.686776251252155" lon="14.986597467651745"><ele>1635.0</ele><time>2026-03-28T10:03:20.999Z</time></trkpt><trkpt lat="37.686814604225304" lon="14.986418663051756"><ele>1635.0</ele><time>2026-03-28T10:03:21.999Z</time></trkpt><trkpt lat="37.68688667215755" lon="14.986267873127343"><ele>1635.0</ele><time>2026-03-28T10:03:22.999Z</time></trkpt><trkpt lat="37.686977161303496" lon="14.986152666889986"><ele>1635.0</ele><time>2026-03-28T10:03:23.999Z</time></trkpt><trkpt lat="37.687091309035" lon="14.986088370873636"><ele>1635.0</ele><time>2026-03-28T10:03:24.999Z</time></trkpt><trkpt lat="37.68720260366731" lon="14.98603768747922"><ele>1639.5</ele><time>2026-03-28T10:03:25.999Z</time></trkpt><trkpt lat="37.68731468899954" lon="14.986051162558763"><ele>1644.0</ele><time>2026-03-28T10:03:26.999Z</time></trkpt><trkpt lat="37.68742699021816" lon="14.98609367088916"><ele>1648.5</ele><time>2026-03-28T10:03:27.999Z</time></trkpt><trkpt lat="37.68753154376023" lon="14.986174179200196"><ele>1653.0</ele><time>2026-03-28T10:03:28.999Z</time></trkpt><trkpt lat="37.68762758866147" lon="14.986286077921719"><ele>1653.0</ele><time>2026-03-28T10:03:29.999Z</time></trkpt><trkpt lat="37.68771256915168" lon="14.98642598582144"><ele>1653.0</ele><time>2026-03-28T10:03:30.999Z</time></trkpt><trkpt lat="37.687778260406795" lon="14.986591310712543"><ele>1653.0</ele><time>2026-03-28T10:03:31.999Z</time></trkpt><trkpt lat="37.687827953470055" lon="14.986774765367343"><ele>1653.0</ele><time>2026-03-28T10:03:32.999Z</time></trkpt><trkpt lat="37.68787418329127" lon="14.986971657943638"><ele>1658.3333333333335</ele><time>2026-03-28T10:03:33.999Z</time></trkpt><trkpt lat="37.68792580514164" lon="14.987178301292744"><ele>1663.6666666666667</ele><time>2026-03-28T10:03:34.999Z</time></trkpt><trkpt lat="37.687987083412004" lon="14.987384902236208"><ele>1669.0</ele><time>2026-03-28T10:03:35.999Z</time></trkpt><trkpt lat="37.68805143783183" lon="14.987596191140806"><ele>1669.0</ele><time>2026-03-28T10:03:36.999Z</time></trkpt><trkpt lat="37.68810973246942" lon="14.987807587090037"><ele>1669.0</ele><time>2026-03-28T10:03:37.999Z</time></trkpt><trkpt lat="37.688167605644054" lon="14.988018553045986"><ele>1669.0</ele><time>2026-03-28T10:03:38.999Z</time></trkpt><trkpt lat="37.6882258954107" lon="14.988218932737585"><ele>1670.0</ele><time>2026-03-28T10:03:39.999Z</time></trkpt><trkpt lat="37.688282307386785" lon="14.988417853041549"><ele>1671.0</ele><time>2026-03-28T10:03:40.999Z</time></trkpt><trkpt lat="37.68833442813437" lon="14.988614957470428"><ele>1672.0</ele><time>2026-03-28T10:03:41.999Z</time></trkpt><trkpt lat="37.68838796491756" lon="14.98881211044113"><ele>1672.0</ele><time>2026-03-28T10:03:42.999Z</time></trkpt><trkpt lat="37.68844420715912" lon="14.989010162698733"><ele>1672.0</ele><time>2026-03-28T10:03:43.999Z</time></trkpt><trkpt lat="37.68850104745941" lon="14.989207791630484"><ele>1672.0</ele><time>2026-03-28T10:03:44.999Z</time></trkpt><trkpt lat="37.688556978129654" lon="14.98940859060293"><ele>1677.6666666666667</ele><time>2026-03-28T10:03:45.999Z</time></trkpt><trkpt lat="37.68861224188724" lon="14.989609221242782"><ele>1683.3333333333335</ele><time>2026-03-28T10:03:46.999Z</time></trkpt><trkpt lat="37.6886658718" lon="14.989806246252382"><ele>1689.0</ele><time>2026-03-28T10:03:47.999Z</time></trkpt><trkpt lat="37.68871781954694" lon="14.989999067292835"><ele>1689.3333333333335</ele><time>2026-03-28T10:03:48.999Z</time></trkpt><trkpt lat="37.68876822602025" lon="14.990183824326406"><ele>1689.6666666666667</ele><time>2026-03-28T10:03:49.999Z</time></trkpt><trkpt lat="37.68881940026419" lon="14.990367953943608"><ele>1690.0</ele><time>2026-03-28T10:03:50.999Z</time></trkpt><trkpt lat="37.688869638765375" lon="14.990552334748505"><ele>1690.0</ele><time>2026-03-28T10:03:51.999Z</time></trkpt><trkpt lat="37.68891931743863" lon="14.990739797322082"><ele>1690.0</ele><time>2026-03-28T10:03:52.999Z</time></trkpt><trkpt lat="37.68896978752912" lon="14.990926600274998"><ele>1690.0</ele><time>2026-03-28T10:03:53.999Z</time></trkpt><trkpt lat="37.68902126573731" lon="14.99111835964025"><ele>1690.0</ele><time>2026-03-28T10:03:54.999Z</time></trkpt><trkpt lat="37.689073286757186" lon="14.991305372652418"><ele>1690.0</ele><time>2026-03-28T10:03:55.999Z</time></trkpt><trkpt lat="37.689123533876675" lon="14.99147575011474"><ele>1690.0</ele><time>2026-03-28T10:03:56.999Z</time></trkpt><trkpt lat="37.68917298906998" lon="14.9916331033182"><ele>1690.0</ele><time>2026-03-28T10:03:57.999Z</time></trkpt><trkpt lat="37.68922713857686" lon="14.991791814053961"><ele>1690.0</ele><time>2026-03-28T10:03:58.999Z</time></trkpt><trkpt lat="37.68928992720311" lon="14.991950223012264"><ele>1690.0</ele><time>2026-03-28T10:03:59.999Z</time></trkpt><trkpt lat="37.68936053848343" lon="14.992113881296763"><ele>1690.0</ele><time>2026-03-28T10:04:00.999Z</time></trkpt><trkpt lat="37.689437020427015" lon="14.992283355751193"><ele>1690.0</ele><time>2026-03-28T10:04:01.999Z</time></trkpt><trkpt lat="37.689516244005496" lon="14.992456520475672"><ele>1693.0</ele><time>2026-03-28T10:04:02.999Z</time></trkpt><trkpt lat="37.6895953809167" lon="14.992635023707386"><ele>1696.0</ele><time>2026-03-28T10:04:03.999Z</time></trkpt><trkpt lat="37.689674311127774" lon="14.992826202732381"><ele>1699.0</ele><time>2026-03-28T10:04:04.999Z</time></trkpt><trkpt lat="37.68975260782005" lon="14.993017619946453"><ele>1699.0</ele><time>2026-03-28T10:04:05.999Z</time></trkpt><trkpt lat="37.68983601787566" lon="14.993212107185068"><ele>1699.0</ele><time>2026-03-28T10:04:06.999Z</time></trkpt><trkpt lat="37.6899248752038" lon="14.993416666367784"><ele>1699.0</ele><time>2026-03-28T10:04:07.999Z</time></trkpt><trkpt lat="37.69001476871214" lon="14.993624903217672"><ele>1699.0</ele><time>2026-03-28T10:04:08.999Z</time></trkpt><trkpt lat="37.690105378619045" lon="14.993833938653765"><ele>1699.0</ele><time>2026-03-28T10:04:09.999Z</time></trkpt><trkpt lat="37.690196363846894" lon="14.994043476058904"><ele>1699.0</ele><time>2026-03-28T10:04:10.999Z</time></trkpt><trkpt lat="37.69028334854092" lon="14.994244279453136"><ele>1703.3333333333335</ele><time>2026-03-28T10:04:11.999Z</time></trkpt><trkpt lat="37.69036437743315" lon="14.994428480716033"><ele>1707.6666666666665</ele><time>2026-03-28T10:04:12.999Z</time></trkpt><trkpt lat="37.690440692348844" lon="14.994603862112639"><ele>1712.0</ele><time>2026-03-28T10:04:13.999Z</time></trkpt><trkpt lat="37.69050922371896" lon="14.99476098679247"><ele>1712.0</ele><time>2026-03-28T10:04:14.999Z</time></trkpt><trkpt lat="37.69057498545471" lon="14.994903496749078"><ele>1712.0</ele><time>2026-03-28T10:04:15.999Z</time></trkpt><trkpt lat="37.69064797652302" lon="14.995035528662507"><ele>1712.0</ele><time>2026-03-28T10:04:16.999Z</time></trkpt><trkpt lat="37.69073330532982" lon="14.995152741880593"><ele>1712.0</ele><time>2026-03-28T10:04:17.999Z</time></trkpt><trkpt lat="37.6908327436366" lon="14.995249882202085"><ele>1712.25</ele><time>2026-03-28T10:04:18.999Z</time></trkpt><trkpt lat="37.69094008745649" lon="14.995320707839676"><ele>1712.5</ele><time>2026-03-28T10:04:19.999Z</time></trkpt><trkpt lat="37.691053870162875" lon="14.99536095079217"><ele>1712.75</ele><time>2026-03-28T10:04:20.999Z</time></trkpt><trkpt lat="37.69116869060708" lon="14.99536764473313"><ele>1713.0</ele><time>2026-03-28T10:04:21.999Z</time></trkpt><trkpt lat="37.69128007943302" lon="14.99535054544689"><ele>1717.0</ele><time>2026-03-28T10:04:22.999Z</time></trkpt><trkpt lat="37.69138395787175" lon="14.995291963497616"><ele>1721.0</ele><time>2026-03-28T10:04:23.999Z</time></trkpt><trkpt lat="37.69148709985657" lon="14.995225029182944"><ele>1725.0</ele><time>2026-03-28T10:04:24.999Z</time></trkpt><trkpt lat="37.69155254716134" lon="14.995102961689811"><ele>1729.0</ele><time>2026-03-28T10:04:25.999Z</time></trkpt><trkpt lat="37.691609826471364" lon="14.994975056406151"><ele>1729.0</ele><time>2026-03-28T10:04:26.999Z</time></trkpt><trkpt lat="37.69167510148927" lon="14.99484540289217"><ele>1729.0</ele><time>2026-03-28T10:04:27.999Z</time></trkpt><trkpt lat="37.691727976051766" lon="14.99470959137534"><ele>1729.0</ele><time>2026-03-28T10:04:28.999Z</time></trkpt><trkpt lat="37.69170978362761" lon="14.994527375328923"><ele>1729.0</ele><time>2026-03-28T10:04:29.999Z</time></trkpt><trkpt lat="37.69173198938606" lon="14.994365768311589"><ele>1729.0</ele><time>2026-03-28T10:04:30.999Z</time></trkpt><trkpt lat="37.69174188306329" lon="14.99419870343192"><ele>1729.0</ele><time>2026-03-28T10:04:31.999Z</time></trkpt><trkpt lat="37.69175556978546" lon="14.994019977770384"><ele>1729.0</ele><time>2026-03-28T10:04:32.999Z</time></trkpt><trkpt lat="37.691771012352376" lon="14.993823895698336"><ele>1729.0</ele><time>2026-03-28T10:04:33.999Z</time></trkpt><trkpt lat="37.69176368990193" lon="14.993626098312939"><ele>1729.0</ele><time>2026-03-28T10:04:34.999Z</time></trkpt><trkpt lat="37.691773788657834" lon="14.993416680447561"><ele>1729.0</ele><time>2026-03-28T10:04:35.999Z</time></trkpt><trkpt lat="37.691785446671226" lon="14.993207326808081"><ele>1729.0</ele><time>2026-03-28T10:04:36.999Z</time></trkpt><trkpt lat="37.69179946874818" lon="14.992991986667084"><ele>1729.0</ele><time>2026-03-28T10:04:37.999Z</time></trkpt><trkpt lat="37.691811924616054" lon="14.992779071300625"><ele>1729.0</ele><time>2026-03-28T10:04:38.999Z</time></trkpt><trkpt lat="37.69182244383958" lon="14.992569731207881"><ele>1729.0</ele><time>2026-03-28T10:04:39.998Z</time></trkpt><trkpt lat="37.69183001637902" lon="14.992363368024817"><ele>1729.0</ele><time>2026-03-28T10:04:40.998Z</time></trkpt><trkpt lat="37.69183881013527" lon="14.99215311244257"><ele>1729.0</ele><time>2026-03-28T10:04:41.998Z</time></trkpt><trkpt lat="37.6918481339146" lon="14.991938072221753"><ele>1729.0</ele><time>2026-03-28T10:04:42.998Z</time></trkpt><trkpt lat="37.6918586713845" lon="14.991724564966633"><ele>1729.0</ele><time>2026-03-28T10:04:43.998Z</time></trkpt><trkpt lat="37.69187032702968" lon="14.991510283429113"><ele>1729.0</ele><time>2026-03-28T10:04:44.998Z</time></trkpt><trkpt lat="37.69187946666916" lon="14.991290829215304"><ele>1729.0</ele><time>2026-03-28T10:04:45.998Z</time></trkpt><trkpt lat="37.69189066983155" lon="14.99108018397978"><ele>1729.0</ele><time>2026-03-28T10:04:46.998Z</time></trkpt><trkpt lat="37.691901423882214" lon="14.990870344242808"><ele>1729.0</ele><time>2026-03-28T10:04:47.998Z</time></trkpt><trkpt lat="37.6919124758671" lon="14.990680055830948"><ele>1729.0</ele><time>2026-03-28T10:04:48.998Z</time></trkpt><trkpt lat="37.69192126838117" lon="14.990489382175939"><ele>1738.0</ele><time>2026-03-28T10:04:49.998Z</time></trkpt><trkpt lat="37.6919294512141" lon="14.99030058922019"><ele>1747.0</ele><time>2026-03-28T10:04:50.998Z</time></trkpt><trkpt lat="37.691937159349266" lon="14.990107875700199"><ele>1756.0</ele><time>2026-03-28T10:04:51.998Z</time></trkpt><trkpt lat="37.691946089681096" lon="14.989891449199096"><ele>1756.0</ele><time>2026-03-28T10:04:52.998Z</time></trkpt><trkpt lat="37.69195661431495" lon="14.989678555460413"><ele>1756.0</ele><time>2026-03-28T10:04:53.998Z</time></trkpt><trkpt lat="37.6919672911334" lon="14.98946344380817"><ele>1756.0</ele><time>2026-03-28T10:04:54.998Z</time></trkpt><trkpt lat="37.69198080866988" lon="14.98923862360112"><ele>1756.0</ele><time>2026-03-28T10:04:55.998Z</time></trkpt><trkpt lat="37.69199378158959" lon="14.989010109629334"><ele>1756.0</ele><time>2026-03-28T10:04:56.998Z</time></trkpt><trkpt lat="37.692006875767845" lon="14.98878201598171"><ele>1756.0</ele><time>2026-03-28T10:04:57.998Z</time></trkpt><trkpt lat="37.69201103411148" lon="14.988575639850895"><ele>1756.0</ele><time>2026-03-28T10:04:58.998Z</time></trkpt><trkpt lat="37.692021915460245" lon="14.98835281331148"><ele>1756.0</ele><time>2026-03-28T10:04:59.998Z</time></trkpt><trkpt lat="37.6920330830974" lon="14.988133288549179"><ele>1756.0</ele><time>2026-03-28T10:05:00.998Z</time></trkpt><trkpt lat="37.692045479450854" lon="14.987918393865906"><ele>1755.6666666666667</ele><time>2026-03-28T10:05:01.998Z</time></trkpt><trkpt lat="37.69205603747053" lon="14.987717649034149"><ele>1755.3333333333335</ele><time>2026-03-28T10:05:02.998Z</time></trkpt><trkpt lat="37.692066335757254" lon="14.987528071581874"><ele>1755.0</ele><time>2026-03-28T10:05:03.998Z</time></trkpt><trkpt lat="37.69207588648567" lon="14.987347931757029"><ele>1755.0</ele><time>2026-03-28T10:05:04.998Z</time></trkpt><trkpt lat="37.69211201644056" lon="14.987161907818361"><ele>1755.0</ele><time>2026-03-28T10:05:05.999Z</time></trkpt><trkpt lat="37.69213283600386" lon="14.986969685045377"><ele>1755.0</ele><time>2026-03-28T10:05:06.999Z</time></trkpt><trkpt lat="37.69216711273377" lon="14.986778164042926"><ele>1755.0</ele><time>2026-03-28T10:05:07.999Z</time></trkpt><trkpt lat="37.692213890314655" lon="14.986582553954193"><ele>1755.0</ele><time>2026-03-28T10:05:08.999Z</time></trkpt><trkpt lat="37.69227600169525" lon="14.986390081407851"><ele>1755.0</ele><time>2026-03-28T10:05:09.999Z</time></trkpt><trkpt lat="37.69235030719593" lon="14.986204454064804"><ele>1755.0</ele><time>2026-03-28T10:05:10.999Z</time></trkpt><trkpt lat="37.69243530766298" lon="14.98603079401627"><ele>1755.0</ele><time>2026-03-28T10:05:11.999Z</time></trkpt><trkpt lat="37.69252873270998" lon="14.985870834924276"><ele>1755.0</ele><time>2026-03-28T10:05:12.999Z</time></trkpt><trkpt lat="37.69263054730124" lon="14.985720052506915"><ele>1754.0</ele><time>2026-03-28T10:05:13.999Z</time></trkpt><trkpt lat="37.69273156484111" lon="14.985574369096906"><ele>1753.0</ele><time>2026-03-28T10:05:14.999Z</time></trkpt><trkpt lat="37.69283728025182" lon="14.9854263209857"><ele>1752.0</ele><time>2026-03-28T10:05:15.999Z</time></trkpt><trkpt lat="37.69293200360308" lon="14.985261493293324"><ele>1755.3333333333335</ele><time>2026-03-28T10:05:16.999Z</time></trkpt><trkpt lat="37.69304012289853" lon="14.985111782539985"><ele>1758.6666666666667</ele><time>2026-03-28T10:05:17.999Z</time></trkpt><trkpt lat="37.69314890167324" lon="14.984956035802893"><ele>1762.0</ele><time>2026-03-28T10:05:18.999Z</time></trkpt><trkpt lat="37.69325145983808" lon="14.984809392016862"><ele>1762.5</ele><time>2026-03-28T10:05:19.999Z</time></trkpt><trkpt lat="37.69334487532302" lon="14.984676134772643"><ele>1763.0</ele><time>2026-03-28T10:05:20.999Z</time></trkpt><trkpt lat="37.69343054316608" lon="14.984554356157627"><ele>1763.5</ele><time>2026-03-28T10:05:21.999Z</time></trkpt><trkpt lat="37.69351183822585" lon="14.984441286511073"><ele>1764.0</ele><time>2026-03-28T10:05:22.999Z</time></trkpt><trkpt lat="37.69359313889736" lon="14.9843450725702"><ele>1765.5</ele><time>2026-03-28T10:05:23.999Z</time></trkpt><trkpt lat="37.69368745392966" lon="14.98426997082521"><ele>1767.0</ele><time>2026-03-28T10:05:24.999Z</time></trkpt><trkpt lat="37.69379654185798" lon="14.984221910746673"><ele>1768.5</ele><time>2026-03-28T10:05:25.999Z</time></trkpt><trkpt lat="37.693912402514904" lon="14.984206293055617"><ele>1770.0</ele><time>2026-03-28T10:05:26.999Z</time></trkpt><trkpt lat="37.69402076576707" lon="14.984213478589187"><ele>1770.0</ele><time>2026-03-28T10:05:27.999Z</time></trkpt><trkpt lat="37.6941088407946" lon="14.984253256977302"><ele>1770.0</ele><time>2026-03-28T10:05:28.999Z</time></trkpt><trkpt lat="37.69419269499061" lon="14.984310740781856"><ele>1770.0</ele><time>2026-03-28T10:05:29.999Z</time></trkpt><trkpt lat="37.69426567274466" lon="14.98439121285525"><ele>1770.0</ele><time>2026-03-28T10:05:30.999Z</time></trkpt><trkpt lat="37.69432337764076" lon="14.984491162571066"><ele>1770.0</ele><time>2026-03-28T10:05:31.999Z</time></trkpt><trkpt lat="37.694369412590845" lon="14.984605245788508"><ele>1770.0</ele><time>2026-03-28T10:05:32.999Z</time></trkpt><trkpt lat="37.69440352135533" lon="14.984730055960966"><ele>1770.0</ele><time>2026-03-28T10:05:33.999Z</time></trkpt><trkpt lat="37.69442042314864" lon="14.984864508119184"><ele>1770.0</ele><time>2026-03-28T10:05:34.999Z</time></trkpt><trkpt lat="37.69441725342694" lon="14.98500495646702"><ele>1770.0</ele><time>2026-03-28T10:05:35.999Z</time></trkpt><trkpt lat="37.69439217138401" lon="14.98514616271043"><ele>1770.0</ele><time>2026-03-28T10:05:36.999Z</time></trkpt><trkpt lat="37.69435778223093" lon="14.985293420393724"><ele>1771.0</ele><time>2026-03-28T10:05:37.999Z</time></trkpt><trkpt lat="37.69432622806881" lon="14.985448078952114"><ele>1772.0</ele><time>2026-03-28T10:05:38.999Z</time></trkpt><trkpt lat="37.6942937716605" lon="14.98560989841046"><ele>1773.0</ele><time>2026-03-28T10:05:39.999Z</time></trkpt><trkpt lat="37.69425990943056" lon="14.985781473000944"><ele>1774.0</ele><time>2026-03-28T10:05:40.999Z</time></trkpt><trkpt lat="37.694225711695516" lon="14.985954676409827"><ele>1776.5</ele><time>2026-03-28T10:05:41.999Z</time></trkpt><trkpt lat="37.6941949754172" lon="14.98611989885944"><ele>1779.0</ele><time>2026-03-28T10:05:42.999Z</time></trkpt><trkpt lat="37.69416547941759" lon="14.986268124505626"><ele>1781.5</ele><time>2026-03-28T10:05:43.999Z</time></trkpt><trkpt lat="37.694135355000064" lon="14.986412709391915"><ele>1784.0</ele><time>2026-03-28T10:05:44.999Z</time></trkpt><trkpt lat="37.694103343598314" lon="14.98656020129785"><ele>1786.25</ele><time>2026-03-28T10:05:45.999Z</time></trkpt><trkpt lat="37.694070006782106" lon="14.986710938146446"><ele>1788.5</ele><time>2026-03-28T10:05:46.999Z</time></trkpt><trkpt lat="37.69403883108576" lon="14.986865573465082"><ele>1790.75</ele><time>2026-03-28T10:05:47.999Z</time></trkpt><trkpt lat="37.69400805452131" lon="14.987023238122678"><ele>1793.0</ele><time>2026-03-28T10:05:48.999Z</time></trkpt><trkpt lat="37.693976671798914" lon="14.98718443460463"><ele>1793.0</ele><time>2026-03-28T10:05:49.999Z</time></trkpt><trkpt lat="37.69394829957806" lon="14.987342294734832"><ele>1793.0</ele><time>2026-03-28T10:05:50.999Z</time></trkpt><trkpt lat="37.693922388924605" lon="14.98749299190145"><ele>1793.0</ele><time>2026-03-28T10:05:51.999Z</time></trkpt><trkpt lat="37.69389896786923" lon="14.987647165922128"><ele>1793.0</ele><time>2026-03-28T10:05:52.999Z</time></trkpt><trkpt lat="37.69387615619756" lon="14.987804132038828"><ele>1793.75</ele><time>2026-03-28T10:05:53.999Z</time></trkpt><trkpt lat="37.69385296128527" lon="14.987967199384569"><ele>1794.5</ele><time>2026-03-28T10:05:54.999Z</time></trkpt><trkpt lat="37.69383177040649" lon="14.988136374064458"><ele>1795.25</ele><time>2026-03-28T10:05:55.999Z</time></trkpt><trkpt lat="37.69381246937549" lon="14.988315281858585"><ele>1796.0</ele><time>2026-03-28T10:05:56.999Z</time></trkpt><trkpt lat="37.69379294795048" lon="14.988504184766745"><ele>1796.6666666666665</ele><time>2026-03-28T10:05:57.999Z</time></trkpt><trkpt lat="37.693774878167375" lon="14.988694635257813"><ele>1797.3333333333335</ele><time>2026-03-28T10:05:58.999Z</time></trkpt><trkpt lat="37.69375926051958" lon="14.988885666336284"><ele>1798.0</ele><time>2026-03-28T10:05:59.999Z</time></trkpt><trkpt lat="37.69374196656959" lon="14.989073898816269"><ele>1800.6666666666667</ele><time>2026-03-28T10:06:00.999Z</time></trkpt><trkpt lat="37.69372321105262" lon="14.989260371147946"><ele>1803.3333333333335</ele><time>2026-03-28T10:06:01.999Z</time></trkpt><trkpt lat="37.69370488201089" lon="14.98944757321841"><ele>1806.0</ele><time>2026-03-28T10:06:02.999Z</time></trkpt><trkpt lat="37.69368454099002" lon="14.989639223224998"><ele>1806.0</ele><time>2026-03-28T10:06:03.999Z</time></trkpt><trkpt lat="37.6936631358039" lon="14.989839365606299"><ele>1806.0</ele><time>2026-03-28T10:06:04.999Z</time></trkpt><trkpt lat="37.693640839302695" lon="14.990047477253436"><ele>1806.0</ele><time>2026-03-28T10:06:05.999Z</time></trkpt><trkpt lat="37.693619333428444" lon="14.990257485102711"><ele>1808.6666666666665</ele><time>2026-03-28T10:06:06.999Z</time></trkpt><trkpt lat="37.69359755710781" lon="14.990472626658402"><ele>1811.3333333333333</ele><time>2026-03-28T10:06:07.999Z</time></trkpt><trkpt lat="37.69357684816878" lon="14.990687841242188"><ele>1814.0</ele><time>2026-03-28T10:06:08.999Z</time></trkpt><trkpt lat="37.693556653306665" lon="14.990905155661448"><ele>1806.0</ele><time>2026-03-28T10:06:09.999Z</time></trkpt><trkpt lat="37.69353595278023" lon="14.991117356338423"><ele>1798.0</ele><time>2026-03-28T10:06:10.999Z</time></trkpt><trkpt lat="37.6935159058483" lon="14.991313411869733"><ele>1790.0</ele><time>2026-03-28T10:06:11.999Z</time></trkpt><trkpt lat="37.69349564586245" lon="14.99149965939762"><ele>1790.0</ele><time>2026-03-28T10:06:12.999Z</time></trkpt><trkpt lat="37.693478046704584" lon="14.991667515667341"><ele>1790.0</ele><time>2026-03-28T10:06:13.999Z</time></trkpt><trkpt lat="37.693471317612826" lon="14.991824634262052"><ele>1790.0</ele><time>2026-03-28T10:06:14.999Z</time></trkpt><trkpt lat="37.693482602805304" lon="14.991971505799702"><ele>1790.0</ele><time>2026-03-28T10:06:15.999Z</time></trkpt><trkpt lat="37.6935122759007" lon="14.992108015187663"><ele>1789.8</ele><time>2026-03-28T10:06:16.999Z</time></trkpt><trkpt lat="37.693563593842406" lon="14.992234902970953"><ele>1789.6</ele><time>2026-03-28T10:06:17.999Z</time></trkpt><trkpt lat="37.69362790660163" lon="14.992333336921995"><ele>1789.4</ele><time>2026-03-28T10:06:18.999Z</time></trkpt><trkpt lat="37.693698978490765" lon="14.992412871613134"><ele>1789.2</ele><time>2026-03-28T10:06:19.999Z</time></trkpt><trkpt lat="37.693779946507874" lon="14.99247167209486"><ele>1789.0</ele><time>2026-03-28T10:06:20.999Z</time></trkpt><trkpt lat="37.6938708357577" lon="14.992509146892232"><ele>1793.4</ele><time>2026-03-28T10:06:21.999Z</time></trkpt><trkpt lat="37.693963397631606" lon="14.992523762919955"><ele>1797.8000000000002</ele><time>2026-03-28T10:06:22.999Z</time></trkpt><trkpt lat="37.69405355088782" lon="14.992513788670243"><ele>1802.1999999999998</ele><time>2026-03-28T10:06:23.999Z</time></trkpt><trkpt lat="37.6941398872467" lon="14.992475469836924"><ele>1806.6</ele><time>2026-03-28T10:06:24.999Z</time></trkpt><trkpt lat="37.69422390558295" lon="14.992409338208454"><ele>1811.0</ele><time>2026-03-28T10:06:25.999Z</time></trkpt><trkpt lat="37.694299313348566" lon="14.99232352738822"><ele>1811.4</ele><time>2026-03-28T10:06:26.999Z</time></trkpt><trkpt lat="37.69436624447649" lon="14.992229626020528"><ele>1811.8</ele><time>2026-03-28T10:06:27.999Z</time></trkpt><trkpt lat="37.69442675118288" lon="14.992129644935657"><ele>1812.2000000000003</ele><time>2026-03-28T10:06:28.999Z</time></trkpt><trkpt lat="37.69448507421452" lon="14.992020963712333"><ele>1812.6000000000001</ele><time>2026-03-28T10:06:29.999Z</time></trkpt><trkpt lat="37.69455573705178" lon="14.991921152851923"><ele>1813.0</ele><time>2026-03-28T10:06:30.999Z</time></trkpt><trkpt lat="37.69461793238747" lon="14.99180607183082"><ele>1818.0</ele><time>2026-03-28T10:06:31.999Z</time></trkpt><trkpt lat="37.69468091691513" lon="14.991689530581478"><ele>1823.0</ele><time>2026-03-28T10:06:32.999Z</time></trkpt><trkpt lat="37.69475032259238" lon="14.991567982483293"><ele>1828.0</ele><time>2026-03-28T10:06:33.999Z</time></trkpt><trkpt lat="37.69482356210203" lon="14.991441379987593"><ele>1833.0</ele><time>2026-03-28T10:06:34.999Z</time></trkpt><trkpt lat="37.69490056384059" lon="14.991308274058659"><ele>1833.0</ele><time>2026-03-28T10:06:35.999Z</time></trkpt><trkpt lat="37.694979332440234" lon="14.991172113992885"><ele>1833.0</ele><time>2026-03-28T10:06:36.999Z</time></trkpt><trkpt lat="37.69506125147209" lon="14.99103050799395"><ele>1833.0</ele><time>2026-03-28T10:06:37.999Z</time></trkpt><trkpt lat="37.69514439200336" lon="14.990886715828625"><ele>1833.0</ele><time>2026-03-28T10:06:38.999Z</time></trkpt><trkpt lat="37.695228405339904" lon="14.990741511438534"><ele>1837.5</ele><time>2026-03-28T10:06:39.999Z</time></trkpt><trkpt lat="37.69531139458673" lon="14.990598219066202"><ele>1842.0</ele><time>2026-03-28T10:06:40.999Z</time></trkpt><trkpt lat="37.69539555318853" lon="14.990452907594511"><ele>1846.5</ele><time>2026-03-28T10:06:41.999Z</time></trkpt><trkpt lat="37.695481010285675" lon="14.990306148846152"><ele>1851.0</ele><time>2026-03-28T10:06:42.999Z</time></trkpt><trkpt lat="37.695565327404026" lon="14.990161178646572"><ele>1851.0</ele><time>2026-03-28T10:06:43.999Z</time></trkpt><trkpt lat="37.6956512064364" lon="14.990012378282549"><ele>1851.0</ele><time>2026-03-28T10:06:44.999Z</time></trkpt><trkpt lat="37.69573678454883" lon="14.98986272494307"><ele>1851.0</ele><time>2026-03-28T10:06:45.999Z</time></trkpt><trkpt lat="37.69581960128852" lon="14.989717900519588"><ele>1851.0</ele><time>2026-03-28T10:06:46.999Z</time></trkpt><trkpt lat="37.69590194442295" lon="14.989573904295591"><ele>1851.5</ele><time>2026-03-28T10:06:47.999Z</time></trkpt><trkpt lat="37.695984426347316" lon="14.989428976231924"><ele>1852.0</ele><time>2026-03-28T10:06:48.999Z</time></trkpt><trkpt lat="37.69606569997711" lon="14.989286094429248"><ele>1852.5</ele><time>2026-03-28T10:06:49.999Z</time></trkpt><trkpt lat="37.69614601553521" lon="14.989144896889673"><ele>1853.0</ele><time>2026-03-28T10:06:50.999Z</time></trkpt><trkpt lat="37.69622418331454" lon="14.989007475222296"><ele>1853.0</ele><time>2026-03-28T10:06:51.999Z</time></trkpt><trkpt lat="37.69630297265171" lon="14.988868960822165"><ele>1853.0</ele><time>2026-03-28T10:06:52.999Z</time></trkpt><trkpt lat="37.696381489300435" lon="14.988730925827282"><ele>1853.0</ele><time>2026-03-28T10:06:53.999Z</time></trkpt><trkpt lat="37.69646101948161" lon="14.988591109008373"><ele>1853.0</ele><time>2026-03-28T10:06:54.999Z</time></trkpt><trkpt lat="37.69654122240929" lon="14.98844959833281"><ele>1851.75</ele><time>2026-03-28T10:06:55.998Z</time></trkpt><trkpt lat="37.69662282331021" lon="14.988305000058155"><ele>1850.5</ele><time>2026-03-28T10:06:56.998Z</time></trkpt><trkpt lat="37.696692512647715" lon="14.988149087575806"><ele>1849.25</ele><time>2026-03-28T10:06:57.998Z</time></trkpt><trkpt lat="37.69677755313836" lon="14.988004424608876"><ele>1848.0</ele><time>2026-03-28T10:06:58.998Z</time></trkpt><trkpt lat="37.69686038132482" lon="14.987864089177197"><ele>1849.8000000000002</ele><time>2026-03-28T10:06:59.998Z</time></trkpt><trkpt lat="37.69693688901038" lon="14.987741501539938"><ele>1851.6000000000001</ele><time>2026-03-28T10:07:00.998Z</time></trkpt><trkpt lat="37.697002916735016" lon="14.987642768810286"><ele>1853.3999999999999</ele><time>2026-03-28T10:07:01.998Z</time></trkpt><trkpt lat="37.697069352448295" lon="14.987552795656505"><ele>1855.1999999999998</ele><time>2026-03-28T10:07:02.998Z</time></trkpt><trkpt lat="37.69714836961374" lon="14.987470042705342"><ele>1857.0</ele><time>2026-03-28T10:07:03.998Z</time></trkpt><trkpt lat="37.69723683011394" lon="14.987402554526941"><ele>1857.0</ele><time>2026-03-28T10:07:04.998Z</time></trkpt><trkpt lat="37.69732943546943" lon="14.987366413494879"><ele>1857.0</ele><time>2026-03-28T10:07:05.998Z</time></trkpt><trkpt lat="37.697414830685325" lon="14.987356224447879"><ele>1857.0</ele><time>2026-03-28T10:07:06.998Z</time></trkpt><trkpt lat="37.69748927125169" lon="14.987364550829342"><ele>1857.0</ele><time>2026-03-28T10:07:07.998Z</time></trkpt><trkpt lat="37.69755341823016" lon="14.98738593373857"><ele>1857.0</ele><time>2026-03-28T10:07:08.998Z</time></trkpt><trkpt lat="37.6976208999166" lon="14.987415497637636"><ele>1857.0</ele><time>2026-03-28T10:07:09.998Z</time></trkpt><trkpt lat="37.6976828885833" lon="14.987461310762836"><ele>1857.0</ele><time>2026-03-28T10:07:10.998Z</time></trkpt><trkpt lat="37.69773835617764" lon="14.987509849660686"><ele>1857.0</ele><time>2026-03-28T10:07:11.999Z</time></trkpt><trkpt lat="37.69778419373757" lon="14.987571098275708"><ele>1857.0</ele><time>2026-03-28T10:07:12.999Z</time></trkpt><trkpt lat="37.697823669717856" lon="14.9876406692416"><ele>1857.0</ele><time>2026-03-28T10:07:13.999Z</time></trkpt><trkpt lat="37.697857036686536" lon="14.987718596282805"><ele>1857.0</ele><time>2026-03-28T10:07:14.999Z</time></trkpt><trkpt lat="37.69787746775948" lon="14.987809793344574"><ele>1857.0</ele><time>2026-03-28T10:07:15.999Z</time></trkpt><trkpt lat="37.697886999374575" lon="14.987906416216472"><ele>1857.0</ele><time>2026-03-28T10:07:16.999Z</time></trkpt><trkpt lat="37.69789160980221" lon="14.987996926956182"><ele>1860.6666666666667</ele><time>2026-03-28T10:07:17.999Z</time></trkpt><trkpt lat="37.69788809486329" lon="14.988081107320884"><ele>1864.3333333333335</ele><time>2026-03-28T10:07:18.999Z</time></trkpt><trkpt lat="37.697876854357496" lon="14.988167630867206"><ele>1868.0</ele><time>2026-03-28T10:07:19.999Z</time></trkpt><trkpt lat="37.697856643529214" lon="14.988259470309096"><ele>1871.6666666666667</ele><time>2026-03-28T10:07:20.999Z</time></trkpt><trkpt lat="37.69782588534852" lon="14.988352773592528"><ele>1875.3333333333335</ele><time>2026-03-28T10:07:21.999Z</time></trkpt><trkpt lat="37.697788753922794" lon="14.988455039103505"><ele>1879.0</ele><time>2026-03-28T10:07:22.999Z</time></trkpt><trkpt lat="37.69775280030048" lon="14.988557883303162"><ele>1877.0000000000002</ele><time>2026-03-28T10:07:23.999Z</time></trkpt><trkpt lat="37.6977181564795" lon="14.988657924952644"><ele>1875.0</ele><time>2026-03-28T10:07:24.999Z</time></trkpt><trkpt lat="37.697681847186004" lon="14.988752763783879"><ele>1873.0</ele><time>2026-03-28T10:07:25.999Z</time></trkpt><trkpt lat="37.69764252904807" lon="14.98884629657836"><ele>1871.0</ele><time>2026-03-28T10:07:26.999Z</time></trkpt><trkpt lat="37.697602945217675" lon="14.988946147674774"><ele>1869.0000000000002</ele><time>2026-03-28T10:07:27.999Z</time></trkpt><trkpt lat="37.69756347603657" lon="14.989049000182591"><ele>1867.0</ele><time>2026-03-28T10:07:28.999Z</time></trkpt><trkpt lat="37.697524934691586" lon="14.989151666224371"><ele>1869.75</ele><time>2026-03-28T10:07:29.999Z</time></trkpt><trkpt lat="37.69748306288086" lon="14.989269079146764"><ele>1872.5</ele><time>2026-03-28T10:07:30.999Z</time></trkpt><trkpt lat="37.69743770649293" lon="14.989410473838081"><ele>1875.25</ele><time>2026-03-28T10:07:31.999Z</time></trkpt><trkpt lat="37.69738766299155" lon="14.989571122438326"><ele>1878.0</ele><time>2026-03-28T10:07:32.999Z</time></trkpt><trkpt lat="37.697328225150194" lon="14.989735663840627"><ele>1878.0</ele><time>2026-03-28T10:07:33.999Z</time></trkpt><trkpt lat="37.697253920950004" lon="14.9899149434759"><ele>1878.0</ele><time>2026-03-28T10:07:34.999Z</time></trkpt><trkpt lat="37.69718116198377" lon="14.990105263171486"><ele>1878.0</ele><time>2026-03-28T10:07:35.999Z</time></trkpt><trkpt lat="37.69711857604186" lon="14.990282881950128"><ele>1881.25</ele><time>2026-03-28T10:07:36.999Z</time></trkpt><trkpt lat="37.69706319835462" lon="14.99043991904014"><ele>1884.5</ele><time>2026-03-28T10:07:37.999Z</time></trkpt><trkpt lat="37.69701649944876" lon="14.99058646040052"><ele>1887.75</ele><time>2026-03-28T10:07:38.999Z</time></trkpt><trkpt lat="37.6969852992668" lon="14.990728130819251"><ele>1891.0</ele><time>2026-03-28T10:07:39.999Z</time></trkpt><trkpt lat="37.69696840793886" lon="14.990863656959474"><ele>1891.8</ele><time>2026-03-28T10:07:40.999Z</time></trkpt><trkpt lat="37.69696082836883" lon="14.990997249478928"><ele>1892.6</ele><time>2026-03-28T10:07:41.999Z</time></trkpt><trkpt lat="37.69696476124083" lon="14.991114036517601"><ele>1893.4</ele><time>2026-03-28T10:07:42.999Z</time></trkpt><trkpt lat="37.696976589324514" lon="14.99122600438114"><ele>1894.2</ele><time>2026-03-28T10:07:43.999Z</time></trkpt><trkpt lat="37.69699841659171" lon="14.99135290960889"><ele>1895.0</ele><time>2026-03-28T10:07:44.999Z</time></trkpt><trkpt lat="37.69702773460953" lon="14.99149360152996"><ele>1895.0</ele><time>2026-03-28T10:07:45.999Z</time></trkpt><trkpt lat="37.69706347616061" lon="14.991647497552709"><ele>1895.0</ele><time>2026-03-28T10:07:46.999Z</time></trkpt><trkpt lat="37.69710341595961" lon="14.991810943054853"><ele>1895.0</ele><time>2026-03-28T10:07:47.999Z</time></trkpt><trkpt lat="37.69714459584664" lon="14.991986390925598"><ele>1895.0</ele><time>2026-03-28T10:07:48.999Z</time></trkpt><trkpt lat="37.69717762723457" lon="14.992178998341391"><ele>1894.6666666666665</ele><time>2026-03-28T10:07:49.999Z</time></trkpt><trkpt lat="37.69720920867716" lon="14.992383469377193"><ele>1894.3333333333335</ele><time>2026-03-28T10:07:50.999Z</time></trkpt><trkpt lat="37.69724712606685" lon="14.992596820569139"><ele>1894.0</ele><time>2026-03-28T10:07:51.999Z</time></trkpt><trkpt lat="37.697289090871465" lon="14.992805841438297"><ele>1893.6666666666667</ele><time>2026-03-28T10:07:52.999Z</time></trkpt><trkpt lat="37.6973313060769" lon="14.993017153393968"><ele>1893.3333333333335</ele><time>2026-03-28T10:07:53.999Z</time></trkpt><trkpt lat="37.697369465636385" lon="14.993230060749257"><ele>1893.0</ele><time>2026-03-28T10:07:54.999Z</time></trkpt><trkpt lat="37.69740723089459" lon="14.99343269316659"><ele>1893.0</ele><time>2026-03-28T10:07:55.999Z</time></trkpt><trkpt lat="37.6974444005477" lon="14.993622150040824"><ele>1893.0</ele><time>2026-03-28T10:07:56.999Z</time></trkpt><trkpt lat="37.6974793067912" lon="14.993801837858575"><ele>1893.0</ele><time>2026-03-28T10:07:57.999Z</time></trkpt><trkpt lat="37.697513153322326" lon="14.993965968202708"><ele>1893.0</ele><time>2026-03-28T10:07:58.999Z</time></trkpt><trkpt lat="37.69754365809299" lon="14.994117684407163"><ele>1893.25</ele><time>2026-03-28T10:07:59.999Z</time></trkpt><trkpt lat="37.6975743702969" lon="14.994272713889934"><ele>1893.5</ele><time>2026-03-28T10:08:00.999Z</time></trkpt><trkpt lat="37.69760661103064" lon="14.994429497018544"><ele>1893.75</ele><time>2026-03-28T10:08:01.999Z</time></trkpt><trkpt lat="37.69763998046218" lon="14.994584923207148"><ele>1894.0</ele><time>2026-03-28T10:08:02.999Z</time></trkpt><trkpt lat="37.697670788041705" lon="14.994731452446105"><ele>1894.0</ele><time>2026-03-28T10:08:03.999Z</time></trkpt><trkpt lat="37.69769879075452" lon="14.994861370581365"><ele>1894.0</ele><time>2026-03-28T10:08:04.999Z</time></trkpt><trkpt lat="37.69772002564943" lon="14.994978940851981"><ele>1894.0</ele><time>2026-03-28T10:08:05.999Z</time></trkpt><trkpt lat="37.69773855133509" lon="14.995084856636652"><ele>1894.0</ele><time>2026-03-28T10:08:06.999Z</time></trkpt><trkpt lat="37.697758349385516" lon="14.995184389852046"><ele>1894.0</ele><time>2026-03-28T10:08:07.999Z</time></trkpt><trkpt lat="37.69777898022688" lon="14.995285945250624"><ele>1897.8000000000002</ele><time>2026-03-28T10:08:08.999Z</time></trkpt><trkpt lat="37.69780273997054" lon="14.995391321780383"><ele>1901.6000000000001</ele><time>2026-03-28T10:08:09.999Z</time></trkpt><trkpt lat="37.69783050092542" lon="14.995498784419699"><ele>1905.4</ele><time>2026-03-28T10:08:10.999Z</time></trkpt><trkpt lat="37.697859852067985" lon="14.995613191821606"><ele>1909.2</ele><time>2026-03-28T10:08:11.999Z</time></trkpt><trkpt lat="37.69789175422825" lon="14.99572402601138"><ele>1913.0</ele><time>2026-03-28T10:08:12.999Z</time></trkpt><trkpt lat="37.69792664687589" lon="14.995827071152897"><ele>1911.6666666666665</ele><time>2026-03-28T10:08:13.999Z</time></trkpt><trkpt lat="37.69796365201136" lon="14.99591513187643"><ele>1910.3333333333333</ele><time>2026-03-28T10:08:14.999Z</time></trkpt><trkpt lat="37.698002459053214" lon="14.995997373902144"><ele>1909.0</ele><time>2026-03-28T10:08:15.999Z</time></trkpt><trkpt lat="37.69804487381235" lon="14.996082190278182"><ele>1907.6666666666665</ele><time>2026-03-28T10:08:16.999Z</time></trkpt><trkpt lat="37.69809892285325" lon="14.99616844041417"><ele>1906.3333333333333</ele><time>2026-03-28T10:08:17.999Z</time></trkpt><trkpt lat="37.69816061650396" lon="14.996258067492263"><ele>1905.0</ele><time>2026-03-28T10:08:18.999Z</time></trkpt><trkpt lat="37.69822553182477" lon="14.996365132017544"><ele>1905.0</ele><time>2026-03-28T10:08:19.999Z</time></trkpt><trkpt lat="37.69829521718723" lon="14.99647188017689"><ele>1905.0</ele><time>2026-03-28T10:08:20.999Z</time></trkpt><trkpt lat="37.6983727541304" lon="14.996570535193122"><ele>1905.0</ele><time>2026-03-28T10:08:21.999Z</time></trkpt><trkpt lat="37.69845554549025" lon="14.99666432848059"><ele>1905.0</ele><time>2026-03-28T10:08:22.999Z</time></trkpt><trkpt lat="37.69853858328572" lon="14.996751116684791"><ele>1905.0</ele><time>2026-03-28T10:08:23.999Z</time></trkpt><trkpt lat="37.69861247719403" lon="14.996825726369536"><ele>1905.1666666666667</ele><time>2026-03-28T10:08:24.999Z</time></trkpt><trkpt lat="37.69868072959579" lon="14.99689412281394"><ele>1905.3333333333335</ele><time>2026-03-28T10:08:25.999Z</time></trkpt><trkpt lat="37.69874251670959" lon="14.996956057662153"><ele>1905.5</ele><time>2026-03-28T10:08:26.999Z</time></trkpt><trkpt lat="37.69879526923807" lon="14.997009679547721"><ele>1905.6666666666667</ele><time>2026-03-28T10:08:27.999Z</time></trkpt><trkpt lat="37.69888205981658" lon="14.997096051384476"><ele>1905.8333333333335</ele><time>2026-03-28T10:08:29.999Z</time></trkpt><trkpt lat="37.69895159861921" lon="14.997148838827364"><ele>1906.0</ele><time>2026-03-28T10:08:31.999Z</time></trkpt><trkpt lat="37.699015183853554" lon="14.997203481276367"><ele>1906.0</ele><time>2026-03-28T10:08:34.999Z</time></trkpt><trkpt lat="37.69908225861898" lon="14.997271175977229"><ele>1906.0</ele><time>2026-03-28T10:08:37.999Z</time></trkpt><trkpt lat="37.69914294675239" lon="14.997322193115938"><ele>1906.0</ele><time>2026-03-28T10:08:39.999Z</time></trkpt><trkpt lat="37.69922158459451" lon="14.997396796928625"><ele>1906.0</ele><time>2026-03-28T10:08:41.999Z</time></trkpt><trkpt lat="37.6993132740262" lon="14.997482648716923"><ele>1906.0</ele><time>2026-03-28T10:08:43.999Z</time></trkpt><trkpt lat="37.69942102343043" lon="14.997585198662392"><ele>1905.857142857143</ele><time>2026-03-28T10:08:45.999Z</time></trkpt><trkpt lat="37.69947885120001" lon="14.997647464183421"><ele>1905.7142857142858</ele><time>2026-03-28T10:08:46.999Z</time></trkpt><trkpt lat="37.69952244133067" lon="14.99772774822989"><ele>1905.5714285714287</ele><time>2026-03-28T10:08:47.999Z</time></trkpt><trkpt lat="37.69955380229441" lon="14.997812742330492"><ele>1905.4285714285716</ele><time>2026-03-28T10:08:48.999Z</time></trkpt><trkpt lat="37.69957082964147" lon="14.9979026804253"><ele>1905.2857142857142</ele><time>2026-03-28T10:08:49.999Z</time></trkpt><trkpt lat="37.699571401150735" lon="14.997990896216878"><ele>1905.1428571428573</ele><time>2026-03-28T10:08:50.999Z</time></trkpt><trkpt lat="37.699554883641" lon="14.998073498949356"><ele>1905.0000000000002</ele><time>2026-03-28T10:08:51.999Z</time></trkpt><trkpt lat="37.6995268407584" lon="14.998150678296144"><ele>1905.0</ele><time>2026-03-28T10:08:52.999Z</time></trkpt><trkpt lat="37.69949424145047" lon="14.99822582912566"><ele>1905.0</ele><time>2026-03-28T10:08:53.999Z</time></trkpt><trkpt lat="37.69945667197588" lon="14.9982976943277"><ele>1905.0</ele><time>2026-03-28T10:08:54.999Z</time></trkpt><trkpt lat="37.69941310401509" lon="14.998362165574694"><ele>1905.0</ele><time>2026-03-28T10:08:55.999Z</time></trkpt><trkpt lat="37.699367496480704" lon="14.998423107736023"><ele>1905.0</ele><time>2026-03-28T10:08:56.999Z</time></trkpt><trkpt lat="37.699324639428184" lon="14.998484760316755"><ele>1905.0</ele><time>2026-03-28T10:08:57.999Z</time></trkpt><trkpt lat="37.69925789579125" lon="14.998609661222103"><ele>1902.5</ele><time>2026-03-28T10:08:59.999Z</time></trkpt><trkpt lat="37.699219843696426" lon="14.998727137509883"><ele>1900.0</ele><time>2026-03-28T10:09:01.999Z</time></trkpt><trkpt lat="37.69919426059605" lon="14.998866507959686"><ele>1897.5</ele><time>2026-03-28T10:09:03.999Z</time></trkpt><trkpt lat="37.69917935339114" lon="14.998951756350706"><ele>1895.0</ele><time>2026-03-28T10:09:04.999Z</time></trkpt><trkpt lat="37.69917386084933" lon="14.99905001544817"><ele>1892.5</ele><time>2026-03-28T10:09:05.999Z</time></trkpt><trkpt lat="37.69917647559807" lon="14.999149396917034"><ele>1890.0</ele><time>2026-03-28T10:09:06.999Z</time></trkpt><trkpt lat="37.69917812732731" lon="14.999236323715945"><ele>1889.8</ele><time>2026-03-28T10:09:07.999Z</time></trkpt><trkpt lat="37.699181392248846" lon="14.99932065066021"><ele>1889.6</ele><time>2026-03-28T10:09:08.999Z</time></trkpt><trkpt lat="37.699189701907706" lon="14.999401263872388"><ele>1889.4</ele><time>2026-03-28T10:09:09.999Z</time></trkpt><trkpt lat="37.69918723443086" lon="14.999547158893387"><ele>1889.2</ele><time>2026-03-28T10:09:11.999Z</time></trkpt><trkpt lat="37.699310610590345" lon="14.999668065684576"><ele>1889.0</ele><time>2026-03-28T10:09:13.999Z</time></trkpt><trkpt lat="37.699368487857384" lon="14.999702191388142"><ele>1891.1666666666665</ele><time>2026-03-28T10:09:15.999Z</time></trkpt><trkpt lat="37.69944427532902" lon="14.99975090040405"><ele>1893.3333333333333</ele><time>2026-03-28T10:09:17.999Z</time></trkpt><trkpt lat="37.69952138773877" lon="14.999804347231883"><ele>1895.5</ele><time>2026-03-28T10:09:19.999Z</time></trkpt><trkpt lat="37.699606216319594" lon="14.99983995551331"><ele>1897.6666666666665</ele><time>2026-03-28T10:09:21.999Z</time></trkpt><trkpt lat="37.69965842170091" lon="14.999952193607495"><ele>1899.8333333333333</ele><time>2026-03-28T10:09:24.999Z</time></trkpt><trkpt lat="37.69972777266228" lon="14.999954074959966"><ele>1902.0</ele><time>2026-03-28T10:09:25.999Z</time></trkpt><trkpt lat="37.69979632624566" lon="14.999920306299249"><ele>1902.0</ele><time>2026-03-28T10:09:28.999Z</time></trkpt><trkpt lat="37.69978493179121" lon="14.999691073113151"><ele>1901.9999999999998</ele><time>2026-03-28T10:09:29.999Z</time></trkpt><trkpt lat="37.69980476854402" lon="14.999586900844921"><ele>1901.9999999999998</ele><time>2026-03-28T10:09:31.999Z</time></trkpt><trkpt lat="37.69983674910172" lon="14.999501500634116"><ele>1902.0</ele><time>2026-03-28T10:09:33.999Z</time></trkpt><trkpt lat="37.699855725072304" lon="14.99941793230116"><ele>1902.0</ele><time>2026-03-28T10:09:35.999Z</time></trkpt><trkpt lat="37.69987434802179" lon="14.999336295635528"><ele>1902.0</ele><time>2026-03-28T10:09:37.999Z</time></trkpt><trkpt lat="37.69989314554457" lon="14.99925389366921"><ele>1902.0</ele><time>2026-03-28T10:09:42.999Z</time></trkpt><trkpt lat="37.69991350625952" lon="14.999168952909866"><ele>1902.0</ele><time>2026-03-28T10:09:47.999Z</time></trkpt><trkpt lat="37.699703381828925" lon="14.998999374735343"><ele>1902.0</ele><time>2026-03-28T10:09:51.999Z</time></trkpt><trkpt lat="37.69963910848937" lon="14.998977847099367"><ele>1902.0</ele><time>2026-03-28T10:09:53.999Z</time></trkpt><trkpt lat="37.69957187176209" lon="14.998949770459701"><ele>1902.0</ele><time>2026-03-28T10:09:55.999Z</time></trkpt><trkpt lat="37.69950666534056" lon="14.998985701538743"><ele>1902.0</ele><time>2026-03-28T10:09:57.999Z</time></trkpt><trkpt lat="37.69950815361088" lon="14.999112615977106"><ele>1902.0</ele><time>2026-03-28T10:10:00.999Z</time></trkpt><trkpt lat="37.699498220949046" lon="14.99921327559141"><ele>1902.0</ele><time>2026-03-28T10:10:02.999Z</time></trkpt><trkpt lat="37.69951710732347" lon="14.99932082882958"><ele>1902.0</ele><time>2026-03-28T10:10:05.999Z</time></trkpt><trkpt lat="37.69957751996519" lon="14.999379923932743"><ele>1902.0</ele><time>2026-03-28T10:10:07.999Z</time></trkpt><trkpt lat="37.69961830329351" lon="14.999456720793477"><ele>1902.0</ele><time>2026-03-28T10:10:09.999Z</time></trkpt><trkpt lat="37.69966608229171" lon="14.999513108253973"><ele>1902.0</ele><time>2026-03-28T10:10:11.999Z</time></trkpt><trkpt lat="37.69973408652744" lon="14.999583664758797"><ele>1902.0</ele><time>2026-03-28T10:10:14.999Z</time></trkpt><trkpt lat="37.69974910627414" lon="14.999688906621843"><ele>1902.0</ele><time>2026-03-28T10:10:16.999Z</time></trkpt><trkpt lat="37.69973107622302" lon="14.999765856034802"><ele>1902.0</ele><time>2026-03-28T10:10:17.999Z</time></trkpt><trkpt lat="37.699711051808016" lon="14.999846502340334"><ele>1902.0</ele><time>2026-03-28T10:10:18.999Z</time></trkpt><trkpt lat="37.699677092204375" lon="15.000000038840593"><ele>1902.0</ele><time>2026-03-28T10:10:20.999Z</time></trkpt><trkpt lat="37.69966500553018" lon="15.000144293837751"><ele>1901.9999999999998</ele><time>2026-03-28T10:10:22.999Z</time></trkpt><trkpt lat="37.69966229027975" lon="15.000250512796942"><ele>1901.9999999999998</ele><time>2026-03-28T10:10:24.999Z</time></trkpt><trkpt lat="37.699639521222686" lon="15.000335879376832"><ele>1902.0</ele><time>2026-03-28T10:10:26.999Z</time></trkpt><trkpt lat="37.69958400859168" lon="15.000472908205365"><ele>1902.0</ele><time>2026-03-28T10:10:28.999Z</time></trkpt><trkpt lat="37.69956667103921" lon="15.000556362808801"><ele>1902.0</ele><time>2026-03-28T10:10:29.999Z</time></trkpt><trkpt lat="37.69954366192873" lon="15.000700465090539"><ele>1902.0</ele><time>2026-03-28T10:10:31.999Z</time></trkpt><trkpt lat="37.69952154360318" lon="15.000838647246473"><ele>1902.0</ele><time>2026-03-28T10:10:33.999Z</time></trkpt><trkpt lat="37.699493600280064" lon="15.000986371639677"><ele>1902.0</ele><time>2026-03-28T10:10:35.999Z</time></trkpt><trkpt lat="37.69945851026454" lon="15.001111418348133"><ele>1902.3999999999999</ele><time>2026-03-28T10:10:37.999Z</time></trkpt><trkpt lat="37.699421323346684" lon="15.001232655219589"><ele>1902.7999999999997</ele><time>2026-03-28T10:10:39.999Z</time></trkpt><trkpt lat="37.699381829138616" lon="15.001354650703716"><ele>1903.2</ele><time>2026-03-28T10:10:41.999Z</time></trkpt><trkpt lat="37.69935377305549" lon="15.001496308835499"><ele>1903.6</ele><time>2026-03-28T10:10:43.999Z</time></trkpt><trkpt lat="37.6993243739332" lon="15.001649955475548"><ele>1904.0</ele><time>2026-03-28T10:10:45.999Z</time></trkpt><trkpt lat="37.69930992080415" lon="15.00173281910432"><ele>1902.2857142857142</ele><time>2026-03-28T10:10:46.999Z</time></trkpt><trkpt lat="37.69929419766207" lon="15.001817206004064"><ele>1900.5714285714284</ele><time>2026-03-28T10:10:47.999Z</time></trkpt><trkpt lat="37.699276924026194" lon="15.001903213851525"><ele>1898.857142857143</ele><time>2026-03-28T10:10:48.999Z</time></trkpt><trkpt lat="37.69926112789825" lon="15.001994536357866"><ele>1897.142857142857</ele><time>2026-03-28T10:10:49.999Z</time></trkpt><trkpt lat="37.69924739055631" lon="15.002088993426282"><ele>1895.4285714285713</ele><time>2026-03-28T10:10:50.999Z</time></trkpt><trkpt lat="37.69923596799956" lon="15.002184691562494"><ele>1893.7142857142858</ele><time>2026-03-28T10:10:51.999Z</time></trkpt><trkpt lat="37.69922474349257" lon="15.00228467077543"><ele>1892.0</ele><time>2026-03-28T10:10:52.999Z</time></trkpt><trkpt lat="37.69921317111884" lon="15.002381034699985"><ele>1892.0</ele><time>2026-03-28T10:10:53.999Z</time></trkpt><trkpt lat="37.69920438965451" lon="15.00247477356955"><ele>1892.0</ele><time>2026-03-28T10:10:54.999Z</time></trkpt><trkpt lat="37.69919767538985" lon="15.00256693765639"><ele>1892.0</ele><time>2026-03-28T10:10:55.999Z</time></trkpt><trkpt lat="37.69919158683445" lon="15.002655710770213"><ele>1892.0</ele><time>2026-03-28T10:10:56.999Z</time></trkpt><trkpt lat="37.69918408398463" lon="15.002744919211603"><ele>1892.0</ele><time>2026-03-28T10:10:57.999Z</time></trkpt><trkpt lat="37.69917577075422" lon="15.00283458780754"><ele>1892.0</ele><time>2026-03-28T10:10:58.999Z</time></trkpt><trkpt lat="37.69916524428695" lon="15.002918893918084"><ele>1892.0</ele><time>2026-03-28T10:10:59.999Z</time></trkpt><trkpt lat="37.69915317427199" lon="15.00299736482961"><ele>1892.75</ele><time>2026-03-28T10:11:00.999Z</time></trkpt><trkpt lat="37.6991345903525" lon="15.003148652402151"><ele>1893.5</ele><time>2026-03-28T10:11:02.999Z</time></trkpt><trkpt lat="37.69911703873604" lon="15.003291157751615"><ele>1894.25</ele><time>2026-03-28T10:11:04.999Z</time></trkpt><trkpt lat="37.69910216437142" lon="15.003434238938501"><ele>1895.0</ele><time>2026-03-28T10:11:06.999Z</time></trkpt><trkpt lat="37.69908909448973" lon="15.003583965049394"><ele>1895.2</ele><time>2026-03-28T10:11:08.999Z</time></trkpt><trkpt lat="37.69906826136456" lon="15.003719928386596"><ele>1895.4</ele><time>2026-03-28T10:11:10.999Z</time></trkpt><trkpt lat="37.69904853386034" lon="15.003848930926637"><ele>1895.6</ele><time>2026-03-28T10:11:12.999Z</time></trkpt><trkpt lat="37.69901716313625" lon="15.00397325294723"><ele>1895.8</ele><time>2026-03-28T10:11:14.999Z</time></trkpt><trkpt lat="37.69901016715808" lon="15.004120233066628"><ele>1896.0</ele><time>2026-03-28T10:11:16.999Z</time></trkpt><trkpt lat="37.6989954173161" lon="15.004221015720884"><ele>1897.3333333333333</ele><time>2026-03-28T10:11:18.999Z</time></trkpt><trkpt lat="37.6989753170941" lon="15.00434068451819"><ele>1898.6666666666665</ele><time>2026-03-28T10:11:21.999Z</time></trkpt><trkpt lat="37.69896297734291" lon="15.004430126723125"><ele>1900.0</ele><time>2026-03-28T10:11:23.999Z</time></trkpt><trkpt lat="37.69895522243719" lon="15.004518924622914"><ele>1901.3333333333333</ele><time>2026-03-28T10:11:26.999Z</time></trkpt><trkpt lat="37.69895014911191" lon="15.004614186989961"><ele>1902.6666666666665</ele><time>2026-03-28T10:11:42.999Z</time></trkpt><trkpt lat="37.698927805004764" lon="15.004705164174647"><ele>1904.0</ele><time>2026-03-28T10:11:54.999Z</time></trkpt><trkpt lat="37.698884913050065" lon="15.004779992044682"><ele>1904.0</ele><time>2026-03-28T10:11:59.999Z</time></trkpt><trkpt lat="37.69894453457938" lon="15.004726735575478"><ele>1904.0</ele><time>2026-03-28T10:12:35.999Z</time></trkpt><trkpt lat="37.69895393193069" lon="15.004640675444014"><ele>1904.0</ele><time>2026-03-28T10:12:37.999Z</time></trkpt><trkpt lat="37.69896732532939" lon="15.004553636876482"><ele>1904.0</ele><time>2026-03-28T10:12:39.999Z</time></trkpt><trkpt lat="37.698959595956296" lon="15.004460638282225"><ele>1904.0</ele><time>2026-03-28T10:12:41.999Z</time></trkpt><trkpt lat="37.69896806481611" lon="15.004362597207187"><ele>1904.0</ele><time>2026-03-28T10:12:43.999Z</time></trkpt><trkpt lat="37.69897623343985" lon="15.004275625427365"><ele>1904.0</ele><time>2026-03-28T10:12:45.999Z</time></trkpt><trkpt lat="37.69898441257795" lon="15.004196445868295"><ele>1902.857142857143</ele><time>2026-03-28T10:12:47.999Z</time></trkpt><trkpt lat="37.698995472788546" lon="15.00411047093574"><ele>1901.7142857142858</ele><time>2026-03-28T10:12:49.999Z</time></trkpt><trkpt lat="37.699008418486486" lon="15.004027978412777"><ele>1900.5714285714284</ele><time>2026-03-28T10:12:51.999Z</time></trkpt><trkpt lat="37.699033635405286" lon="15.003948095387871"><ele>1899.4285714285713</ele><time>2026-03-28T10:12:53.999Z</time></trkpt><trkpt lat="37.69904246426984" lon="15.003861139959984"><ele>1898.2857142857142</ele><time>2026-03-28T10:12:55.999Z</time></trkpt><trkpt lat="37.69905745019939" lon="15.003776121837024"><ele>1897.1428571428569</ele><time>2026-03-28T10:12:57.999Z</time></trkpt><trkpt lat="37.69907912602199" lon="15.003669007929021"><ele>1895.9999999999998</ele><time>2026-03-28T10:12:59.999Z</time></trkpt><trkpt lat="37.69909220048259" lon="15.003578604521866"><ele>1896.0</ele><time>2026-03-28T10:13:01.999Z</time></trkpt><trkpt lat="37.699105208802905" lon="15.003479579669072"><ele>1896.0</ele><time>2026-03-28T10:13:03.999Z</time></trkpt><trkpt lat="37.69911981677781" lon="15.0033018740179"><ele>1896.0</ele><time>2026-03-28T10:13:05.999Z</time></trkpt><trkpt lat="37.69913912696616" lon="15.003147561503765"><ele>1896.0</ele><time>2026-03-28T10:13:07.999Z</time></trkpt><trkpt lat="37.69916726012916" lon="15.003003228837356"><ele>1895.8</ele><time>2026-03-28T10:13:09.999Z</time></trkpt><trkpt lat="37.69918547266488" lon="15.002855908177462"><ele>1895.6</ele><time>2026-03-28T10:13:11.999Z</time></trkpt><trkpt lat="37.69920143648399" lon="15.002713840895476"><ele>1895.4</ele><time>2026-03-28T10:13:13.999Z</time></trkpt><trkpt lat="37.699213837513305" lon="15.002567488150536"><ele>1895.2</ele><time>2026-03-28T10:13:15.999Z</time></trkpt><trkpt lat="37.69922082592394" lon="15.00248505027466"><ele>1895.0</ele><time>2026-03-28T10:13:16.999Z</time></trkpt><trkpt lat="37.69922979368183" lon="15.00239728419188"><ele>1894.4999999999998</ele><time>2026-03-28T10:13:17.999Z</time></trkpt><trkpt lat="37.69924062142906" lon="15.0023004863359"><ele>1894.0</ele><time>2026-03-28T10:13:18.999Z</time></trkpt><trkpt lat="37.699254329215904" lon="15.002200649370522"><ele>1893.5</ele><time>2026-03-28T10:13:19.999Z</time></trkpt><trkpt lat="37.699267374336436" lon="15.002095480437807"><ele>1893.0</ele><time>2026-03-28T10:13:20.999Z</time></trkpt><trkpt lat="37.69928191887966" lon="15.001985255835576"><ele>1892.4999999999998</ele><time>2026-03-28T10:13:21.999Z</time></trkpt><trkpt lat="37.69929864145893" lon="15.001878280820009"><ele>1892.0</ele><time>2026-03-28T10:13:22.999Z</time></trkpt><trkpt lat="37.69931489928705" lon="15.001779181718877"><ele>1891.9999999999998</ele><time>2026-03-28T10:13:23.999Z</time></trkpt><trkpt lat="37.69933007206804" lon="15.001692913623776"><ele>1892.0</ele><time>2026-03-28T10:13:24.999Z</time></trkpt><trkpt lat="37.699357466358244" lon="15.001538751786965"><ele>1892.0</ele><time>2026-03-28T10:13:26.999Z</time></trkpt><trkpt lat="37.69937440712476" lon="15.00145651918693"><ele>1892.0</ele><time>2026-03-28T10:13:27.999Z</time></trkpt><trkpt lat="37.6994153158415" lon="15.001380823401696"><ele>1891.9999999999998</ele><time>2026-03-28T10:13:28.999Z</time></trkpt><trkpt lat="37.69943348194562" lon="15.001301076150684"><ele>1892.0</ele><time>2026-03-28T10:13:29.999Z</time></trkpt><trkpt lat="37.69945854944299" lon="15.001223173241378"><ele>1894.0</ele><time>2026-03-28T10:13:30.999Z</time></trkpt><trkpt lat="37.69948321172" lon="15.001140212379818"><ele>1895.9999999999998</ele><time>2026-03-28T10:13:31.999Z</time></trkpt><trkpt lat="37.699527252671224" lon="15.000996511266276"><ele>1897.9999999999998</ele><time>2026-03-28T10:13:33.999Z</time></trkpt><trkpt lat="37.69956118459897" lon="15.00086163746185"><ele>1900.0</ele><time>2026-03-28T10:13:35.999Z</time></trkpt><trkpt lat="37.699583036172356" lon="15.00075508024583"><ele>1902.0</ele><time>2026-03-28T10:13:37.999Z</time></trkpt><trkpt lat="37.699598343904015" lon="15.00067635941618"><ele>1902.0</ele><time>2026-03-28T10:13:39.999Z</time></trkpt><trkpt lat="37.69960576205477" lon="15.000583955570503"><ele>1902.0</ele><time>2026-03-28T10:13:42.999Z</time></trkpt><trkpt lat="37.69962186244822" lon="15.000502232927246"><ele>1902.0</ele><time>2026-03-28T10:13:50.999Z</time></trkpt><trkpt lat="37.69964625836779" lon="15.000425934482166"><ele>1902.0</ele><time>2026-03-28T10:13:55.999Z</time></trkpt><trkpt lat="37.6996500804664" lon="15.000334508109894"><ele>1902.0</ele><time>2026-03-28T10:13:58.999Z</time></trkpt><trkpt lat="37.69967841356951" lon="15.000228999533023"><ele>1902.0</ele><time>2026-03-28T10:14:01.999Z</time></trkpt><trkpt lat="37.699694616977744" lon="15.00013207876809"><ele>1902.0</ele><time>2026-03-28T10:14:03.999Z</time></trkpt><trkpt lat="37.69970555042471" lon="15.000038365568079"><ele>1902.0</ele><time>2026-03-28T10:14:05.999Z</time></trkpt><trkpt lat="37.6997392019878" lon="14.999944252462896"><ele>1901.9999999999998</ele><time>2026-03-28T10:14:07.999Z</time></trkpt><trkpt lat="37.699734404250485" lon="14.999815439590014"><ele>1901.9999999999998</ele><time>2026-03-28T10:14:09.999Z</time></trkpt><trkpt lat="37.699760495667896" lon="14.999688218750704"><ele>1902.0</ele><time>2026-03-28T10:14:11.999Z</time></trkpt><trkpt lat="37.69981663553411" lon="14.99959306669663"><ele>1902.0</ele><time>2026-03-28T10:14:13.999Z</time></trkpt><trkpt lat="37.69984233880825" lon="14.999476613109557"><ele>1902.0</ele><time>2026-03-28T10:14:15.999Z</time></trkpt><trkpt lat="37.69986500097963" lon="14.999377269885695"><ele>1902.0</ele><time>2026-03-28T10:14:17.999Z</time></trkpt><trkpt lat="37.699877360297116" lon="14.999295869410055"><ele>1902.0</ele><time>2026-03-28T10:14:20.999Z</time></trkpt><trkpt lat="37.699916046629106" lon="14.999225616036547"><ele>1902.0</ele><time>2026-03-28T10:14:21.999Z</time></trkpt><trkpt lat="37.6999019093831" lon="14.999142565408185"><ele>1902.0</ele><time>2026-03-28T10:18:16Z</time></trkpt><trkpt lat="37.69993008986381" lon="14.999057440701376"><ele>1902.0</ele><time>2026-03-28T10:18:23Z</time></trkpt><trkpt lat="37.69994764683359" lon="14.998975375887985"><ele>1902.0</ele><time>2026-03-28T10:18:30Z</time></trkpt><trkpt lat="37.699980686861196" lon="14.998901658945485"><ele>1902.2857142857142</ele><time>2026-03-28T10:18:38Z</time></trkpt><trkpt lat="37.700005174629915" lon="14.998821577733013"><ele>1902.5714285714287</ele><time>2026-03-28T10:18:51Z</time></trkpt><trkpt lat="37.700031470767755" lon="14.998743708756802"><ele>1902.857142857143</ele><time>2026-03-28T10:19:00Z</time></trkpt><trkpt lat="37.70009217698588" lon="14.998769841308487"><ele>1903.142857142857</ele><time>2026-03-28T10:19:10Z</time></trkpt><trkpt lat="37.70006863418556" lon="14.998848159975626"><ele>1903.4285714285716</ele><time>2026-03-28T10:19:19Z</time></trkpt><trkpt lat="37.70006229492316" lon="14.998928329425572"><ele>1903.7142857142858</ele><time>2026-03-28T10:19:30Z</time></trkpt><trkpt lat="37.7000572341689" lon="14.999010783935294"><ele>1904.0</ele><time>2026-03-28T10:19:44.001Z</time></trkpt><trkpt lat="37.70002452224685" lon="14.999085061869515"><ele>1903.9999999999998</ele><time>2026-03-28T10:19:57.001Z</time></trkpt><trkpt lat="37.70009038389092" lon="14.998937601626482"><ele>1904.0</ele><time>2026-03-28T10:20:55.679Z</time></trkpt><trkpt lat="37.70015084015146" lon="14.998831823143792"><ele>1904.0</ele><time>2026-03-28T10:29:28.405Z</time></trkpt><trkpt lat="37.70011145883089" lon="14.998745093893804"><ele>1904.0</ele><time>2026-03-28T10:29:31.997Z</time></trkpt><trkpt lat="37.700082576598874" lon="14.998820028545818"><ele>1903.9999999999998</ele><time>2026-03-28T10:29:39.004Z</time></trkpt><trkpt lat="37.70003806653527" lon="14.998882153499386"><ele>1904.0</ele><time>2026-03-28T10:29:48.002Z</time></trkpt><trkpt lat="37.69997694861764" lon="14.999013078658335"><ele>1904.0</ele><time>2026-03-28T10:29:51.002Z</time></trkpt><trkpt lat="37.700029840354254" lon="14.998957527126851"><ele>1904.0</ele><time>2026-03-28T10:30:15Z</time></trkpt><trkpt lat="37.700054958369" lon="14.99888112755538"><ele>1904.0</ele><time>2026-03-28T10:30:20Z</time></trkpt><trkpt lat="37.700074128486804" lon="14.998799230633498"><ele>1904.0</ele><time>2026-03-28T10:30:26Z</time></trkpt><trkpt lat="37.70006060296188" lon="14.998719133539842"><ele>1904.0</ele><time>2026-03-28T10:30:36Z</time></trkpt><trkpt lat="37.700012142050845" lon="14.998778707926581"><ele>1904.0</ele><time>2026-03-28T10:30:44.999Z</time></trkpt><trkpt lat="37.69998742387056" lon="14.998859742028074"><ele>1904.0</ele><time>2026-03-28T10:30:51.999Z</time></trkpt><trkpt lat="37.69997237315098" lon="14.99894203236231"><ele>1903.9999999999998</ele><time>2026-03-28T10:30:59.999Z</time></trkpt><trkpt lat="37.69993829511934" lon="14.999026739497252"><ele>1904.0</ele><time>2026-03-28T10:31:05.999Z</time></trkpt><trkpt lat="37.69992105118284" lon="14.999104809664152"><ele>1904.0</ele><time>2026-03-28T10:31:27.999Z</time></trkpt><trkpt lat="37.699849141751756" lon="14.999166348084112"><ele>1904.0</ele><time>2026-03-28T10:34:54.999Z</time></trkpt><trkpt lat="37.69982694795364" lon="14.999267008349603"><ele>1903.9999999999998</ele><time>2026-03-28T10:35:02.999Z</time></trkpt><trkpt lat="37.69980977012113" lon="14.999428800252842"><ele>1904.0</ele><time>2026-03-28T10:35:04.999Z</time></trkpt><trkpt lat="37.69977976949048" lon="14.999572120687052"><ele>1903.6</ele><time>2026-03-28T10:35:05.999Z</time></trkpt><trkpt lat="37.699749212762704" lon="14.99969987469691"><ele>1903.2</ele><time>2026-03-28T10:35:06.999Z</time></trkpt><trkpt lat="37.69972612749441" lon="14.999806103406424"><ele>1902.7999999999997</ele><time>2026-03-28T10:35:07.999Z</time></trkpt><trkpt lat="37.69970701384094" lon="14.99991964481642"><ele>1902.3999999999999</ele><time>2026-03-28T10:35:08.999Z</time></trkpt><trkpt lat="37.69969001893372" lon="15.000033691889984"><ele>1902.0</ele><time>2026-03-28T10:35:09.999Z</time></trkpt><trkpt lat="37.69967279320836" lon="15.000127446702136"><ele>1902.0</ele><time>2026-03-28T10:35:10.999Z</time></trkpt><trkpt lat="37.69964133229549" lon="15.000269283227965"><ele>1901.9999999999998</ele><time>2026-03-28T10:35:12.999Z</time></trkpt><trkpt lat="37.69961551914105" lon="15.000395235749451"><ele>1901.9999999999998</ele><time>2026-03-28T10:35:14.999Z</time></trkpt><trkpt lat="37.699606156958026" lon="15.00048358766779"><ele>1902.0</ele><time>2026-03-28T10:35:17.999Z</time></trkpt><trkpt lat="37.69961862984091" lon="15.000392272839443"><ele>1902.0</ele><time>2026-03-28T10:35:22.999Z</time></trkpt><trkpt lat="37.69964666280827" lon="15.000264230389053"><ele>1902.0</ele><time>2026-03-28T10:35:25.999Z</time></trkpt><trkpt lat="37.699671766854244" lon="15.00017273218982"><ele>1902.0</ele><time>2026-03-28T10:35:26.999Z</time></trkpt><trkpt lat="37.69969432793149" lon="15.000084226492852"><ele>1902.0</ele><time>2026-03-28T10:35:27.999Z</time></trkpt><trkpt lat="37.69971697663927" lon="14.999988826372489"><ele>1902.0</ele><time>2026-03-28T10:35:28.999Z</time></trkpt><trkpt lat="37.699740433985966" lon="14.99987112008483"><ele>1902.0</ele><time>2026-03-28T10:35:29.999Z</time></trkpt><trkpt lat="37.69976667551903" lon="14.999754210329286"><ele>1902.0</ele><time>2026-03-28T10:35:30.999Z</time></trkpt><trkpt lat="37.699782211065376" lon="14.999647958973036"><ele>1902.0</ele><time>2026-03-28T10:35:31.999Z</time></trkpt><trkpt lat="37.69979303327793" lon="14.999555257843959"><ele>1902.0</ele><time>2026-03-28T10:35:32.999Z</time></trkpt><trkpt lat="37.69980788247228" lon="14.999476625300515"><ele>1902.0</ele><time>2026-03-28T10:35:33.999Z</time></trkpt><trkpt lat="37.699827665483326" lon="14.999357186664977"><ele>1902.0</ele><time>2026-03-28T10:35:35.999Z</time></trkpt><trkpt lat="37.699821911130435" lon="14.999260140237068"><ele>1902.0</ele><time>2026-03-28T10:35:38.999Z</time></trkpt><trkpt lat="37.6998169063772" lon="14.99916589824446"><ele>1902.0</ele><time>2026-03-28T10:35:42.999Z</time></trkpt><trkpt lat="37.69986124381" lon="14.999103873776233"><ele>1902.0</ele><time>2026-03-28T10:36:26.999Z</time></trkpt><trkpt lat="37.6998679800723" lon="14.999194035546877"><ele>1902.0</ele><time>2026-03-28T10:36:32.999Z</time></trkpt><trkpt lat="37.69984449545167" lon="14.999271460404044"><ele>1902.0</ele><time>2026-03-28T10:36:35.998Z</time></trkpt><trkpt lat="37.69981442344919" lon="14.999385610062232"><ele>1902.0</ele><time>2026-03-28T10:36:38.998Z</time></trkpt><trkpt lat="37.699796425258384" lon="14.999477677238172"><ele>1902.0</ele><time>2026-03-28T10:36:40.998Z</time></trkpt><trkpt lat="37.69977131924841" lon="14.99959210733923"><ele>1902.0</ele><time>2026-03-28T10:36:42.998Z</time></trkpt><trkpt lat="37.699752849039825" lon="14.999695788378316"><ele>1902.0</ele><time>2026-03-28T10:36:44.998Z</time></trkpt><trkpt lat="37.69972916323646" lon="14.999803635325854"><ele>1902.0</ele><time>2026-03-28T10:36:46.998Z</time></trkpt><trkpt lat="37.69971195754267" lon="14.999906219466252"><ele>1902.0</ele><time>2026-03-28T10:36:48.998Z</time></trkpt><trkpt lat="37.699622709758195" lon="14.999941721058525"><ele>1902.0</ele><time>2026-03-28T10:36:49.998Z</time></trkpt><trkpt lat="37.69969420201937" lon="15.000016554436186"><ele>1902.0</ele><time>2026-03-28T10:36:50.998Z</time></trkpt><trkpt lat="37.69967591805312" lon="15.00012989511852"><ele>1902.0</ele><time>2026-03-28T10:36:52.998Z</time></trkpt><trkpt lat="37.69965750922107" lon="15.000209873027616"><ele>1902.0</ele><time>2026-03-28T10:36:54.998Z</time></trkpt><trkpt lat="37.69963624849685" lon="15.000305683198397"><ele>1901.9999999999998</ele><time>2026-03-28T10:36:59.998Z</time></trkpt><trkpt lat="37.69963127431759" lon="15.000394388518792"><ele>1901.9999999999998</ele><time>2026-03-28T10:37:01.998Z</time></trkpt><trkpt lat="37.69959041928686" lon="15.000519513658721"><ele>1902.0</ele><time>2026-03-28T10:37:03.998Z</time></trkpt><trkpt lat="37.69955527682527" lon="15.00067040594451"><ele>1902.0</ele><time>2026-03-28T10:37:05.998Z</time></trkpt><trkpt lat="37.69953332712338" lon="15.000754484499394"><ele>1902.3999999999999</ele><time>2026-03-28T10:37:06.998Z</time></trkpt><trkpt lat="37.699510075415176" lon="15.000842074606721"><ele>1902.7999999999997</ele><time>2026-03-28T10:37:07.998Z</time></trkpt><trkpt lat="37.69946989074205" lon="15.000997334891977"><ele>1903.2</ele><time>2026-03-28T10:37:09.998Z</time></trkpt><trkpt lat="37.699437185429346" lon="15.001119642818573"><ele>1903.6</ele><time>2026-03-28T10:37:11.998Z</time></trkpt><trkpt lat="37.699405818969815" lon="15.001245885608716"><ele>1904.0</ele><time>2026-03-28T10:37:13.998Z</time></trkpt><trkpt lat="37.69937516876911" lon="15.00137349795841"><ele>1901.0</ele><time>2026-03-28T10:37:15.998Z</time></trkpt><trkpt lat="37.69935004495505" lon="15.00150623932152"><ele>1898.0</ele><time>2026-03-28T10:37:17.998Z</time></trkpt><trkpt lat="37.69931832332588" lon="15.001643764924578"><ele>1895.0</ele><time>2026-03-28T10:37:19.998Z</time></trkpt><trkpt lat="37.699288821281996" lon="15.001788906354985"><ele>1892.0</ele><time>2026-03-28T10:37:21.998Z</time></trkpt><trkpt lat="37.69926119563205" lon="15.001943598261143"><ele>1892.0</ele><time>2026-03-28T10:37:23.998Z</time></trkpt><trkpt lat="37.69924012408434" lon="15.002099271332627"><ele>1891.9999999999998</ele><time>2026-03-28T10:37:25.998Z</time></trkpt><trkpt lat="37.699228447035296" lon="15.002179810096079"><ele>1891.9999999999998</ele><time>2026-03-28T10:37:26.998Z</time></trkpt><trkpt lat="37.699207860184124" lon="15.002344488806166"><ele>1892.0</ele><time>2026-03-28T10:37:28.998Z</time></trkpt><trkpt lat="37.69919211282164" lon="15.002495503916128"><ele>1892.0</ele><time>2026-03-28T10:37:30.998Z</time></trkpt><trkpt lat="37.699181779321464" lon="15.002577395619818"><ele>1892.6</ele><time>2026-03-28T10:37:31.998Z</time></trkpt><trkpt lat="37.69916676882176" lon="15.00273202952439"><ele>1893.1999999999998</ele><time>2026-03-28T10:37:33.998Z</time></trkpt><trkpt lat="37.69915144407178" lon="15.002881073868743"><ele>1893.8</ele><time>2026-03-28T10:37:35.998Z</time></trkpt><trkpt lat="37.69913762319467" lon="15.003014852467818"><ele>1894.4</ele><time>2026-03-28T10:37:37.998Z</time></trkpt><trkpt lat="37.69912816638413" lon="15.003114091846111"><ele>1895.0</ele><time>2026-03-28T10:37:39.998Z</time></trkpt><trkpt lat="37.69911594457407" lon="15.003199805429169"><ele>1894.9999999999998</ele><time>2026-03-28T10:37:41.998Z</time></trkpt><trkpt lat="37.699097417205664" lon="15.00329492737355"><ele>1895.0</ele><time>2026-03-28T10:37:44.997Z</time></trkpt><trkpt lat="37.69909344348895" lon="15.00341124263121"><ele>1895.0</ele><time>2026-03-28T10:37:48.997Z</time></trkpt><trkpt lat="37.6990803480743" lon="15.003496429843768"><ele>1895.0</ele><time>2026-03-28T10:37:50.997Z</time></trkpt><trkpt lat="37.699063566635154" lon="15.003584008436835"><ele>1894.9999999999998</ele><time>2026-03-28T10:37:52.997Z</time></trkpt><trkpt lat="37.69905305468945" lon="15.003678980108656"><ele>1895.0</ele><time>2026-03-28T10:37:54.997Z</time></trkpt><trkpt lat="37.699043645295575" lon="15.003780160548589"><ele>1895.1666666666665</ele><time>2026-03-28T10:37:56.997Z</time></trkpt><trkpt lat="37.699031829901166" lon="15.00386505931682"><ele>1895.3333333333333</ele><time>2026-03-28T10:37:58.997Z</time></trkpt><trkpt lat="37.69901979219812" lon="15.003969877823032"><ele>1895.5</ele><time>2026-03-28T10:38:00.998Z</time></trkpt><trkpt lat="37.69899053053616" lon="15.004052915106813"><ele>1895.6666666666665</ele><time>2026-03-28T10:38:02.999Z</time></trkpt><trkpt lat="37.69898291956088" lon="15.004141905921418"><ele>1895.8333333333333</ele><time>2026-03-28T10:38:06.999Z</time></trkpt><trkpt lat="37.699004253610134" lon="15.004054517868587"><ele>1896.0</ele><time>2026-03-28T10:38:10.999Z</time></trkpt><trkpt lat="37.699035273415554" lon="15.003948767080223"><ele>1896.0</ele><time>2026-03-28T10:38:12.999Z</time></trkpt><trkpt lat="37.69906670780031" lon="15.003744105779276"><ele>1896.0</ele><time>2026-03-28T10:38:14.999Z</time></trkpt><trkpt lat="37.69908190572909" lon="15.003623569379066"><ele>1896.0</ele><time>2026-03-28T10:38:15.999Z</time></trkpt><trkpt lat="37.69909171775301" lon="15.003534906932401"><ele>1896.0</ele><time>2026-03-28T10:38:16.999Z</time></trkpt><trkpt lat="37.699138894787794" lon="15.003403022553606"><ele>1896.0</ele><time>2026-03-28T10:38:18.999Z</time></trkpt><trkpt lat="37.69914840348577" lon="15.003316194330113"><ele>1896.0</ele><time>2026-03-28T10:38:20.999Z</time></trkpt><trkpt lat="37.6991335258442" lon="15.003230725502519"><ele>1896.0</ele><time>2026-03-28T10:38:30.999Z</time></trkpt><trkpt lat="37.699100069589285" lon="15.003336115659087"><ele>1896.0</ele><time>2026-03-28T10:38:35.999Z</time></trkpt><trkpt lat="37.69913367967543" lon="15.003441344537816"><ele>1896.0</ele><time>2026-03-28T10:38:37.999Z</time></trkpt><trkpt lat="37.6991204187711" lon="15.003535921961682"><ele>1896.0</ele><time>2026-03-28T10:38:39.999Z</time></trkpt><trkpt lat="37.69910534530564" lon="15.003641586168625"><ele>1896.0</ele><time>2026-03-28T10:38:42.999Z</time></trkpt><trkpt lat="37.699087314282664" lon="15.003752542498129"><ele>1896.0</ele><time>2026-03-28T10:38:45.999Z</time></trkpt><trkpt lat="37.6990710515171" lon="15.003851901304696"><ele>1896.0</ele><time>2026-03-28T10:38:48.999Z</time></trkpt><trkpt lat="37.69905258286445" lon="15.003964737213062"><ele>1896.0</ele><time>2026-03-28T10:38:51.999Z</time></trkpt><trkpt lat="37.69903976786518" lon="15.004044677235818"><ele>1896.0</ele><time>2026-03-28T10:38:53.999Z</time></trkpt><trkpt lat="37.69900835672665" lon="15.0041504895402"><ele>1896.0</ele><time>2026-03-28T10:38:55.999Z</time></trkpt><trkpt lat="37.69900005278723" lon="15.004277946587514"><ele>1896.0</ele><time>2026-03-28T10:38:57.999Z</time></trkpt><trkpt lat="37.69899059185116" lon="15.00437102927892"><ele>1897.3333333333333</ele><time>2026-03-28T10:38:58.999Z</time></trkpt><trkpt lat="37.69899178974313" lon="15.004467291229705"><ele>1898.6666666666665</ele><time>2026-03-28T10:38:59.999Z</time></trkpt><trkpt lat="37.69898463171865" lon="15.004568905660145"><ele>1900.0</ele><time>2026-03-28T10:39:00.999Z</time></trkpt><trkpt lat="37.69897643148805" lon="15.004673963677016"><ele>1901.3333333333333</ele><time>2026-03-28T10:39:01.999Z</time></trkpt><trkpt lat="37.698968637327056" lon="15.004773819288342"><ele>1902.6666666666665</ele><time>2026-03-28T10:39:02.999Z</time></trkpt><trkpt lat="37.698961596428376" lon="15.00486402456446"><ele>1904.0</ele><time>2026-03-28T10:39:03.999Z</time></trkpt><trkpt lat="37.69890152557451" lon="15.00501738242061"><ele>1905.8000000000002</ele><time>2026-03-28T10:39:04.999Z</time></trkpt><trkpt lat="37.69889740265337" lon="15.005126232089191"><ele>1907.6000000000001</ele><time>2026-03-28T10:39:05.999Z</time></trkpt><trkpt lat="37.69888750482546" lon="15.005245795284146"><ele>1909.4</ele><time>2026-03-28T10:39:06.999Z</time></trkpt><trkpt lat="37.698876291166464" lon="15.005378113575198"><ele>1911.2</ele><time>2026-03-28T10:39:07.999Z</time></trkpt><trkpt lat="37.6988941269539" lon="15.00556621258353"><ele>1913.0</ele><time>2026-03-28T10:39:09.999Z</time></trkpt><trkpt lat="37.69889482919956" lon="15.005675328737668"><ele>1912.9999999999998</ele><time>2026-03-28T10:39:10.999Z</time></trkpt><trkpt lat="37.698896453583764" lon="15.005784259517498"><ele>1913.0</ele><time>2026-03-28T10:39:11.999Z</time></trkpt><trkpt lat="37.69889966517322" lon="15.005895698591493"><ele>1913.0</ele><time>2026-03-28T10:39:12.999Z</time></trkpt><trkpt lat="37.69890567538869" lon="15.006005196171515"><ele>1913.0</ele><time>2026-03-28T10:39:13.999Z</time></trkpt><trkpt lat="37.698915061209725" lon="15.006116773699242"><ele>1912.9999999999998</ele><time>2026-03-28T10:39:14.999Z</time></trkpt><trkpt lat="37.69892758194735" lon="15.00623069557873"><ele>1913.0</ele><time>2026-03-28T10:39:15.999Z</time></trkpt><trkpt lat="37.698943201199455" lon="15.006342544943013"><ele>1912.3333333333333</ele><time>2026-03-28T10:39:16.999Z</time></trkpt><trkpt lat="37.698958377642946" lon="15.006447265162082"><ele>1911.6666666666665</ele><time>2026-03-28T10:39:17.999Z</time></trkpt><trkpt lat="37.698973510905596" lon="15.006560536164791"><ele>1911.0</ele><time>2026-03-28T10:39:18.999Z</time></trkpt><trkpt lat="37.69898678568557" lon="15.006670704671404"><ele>1910.3333333333335</ele><time>2026-03-28T10:39:19.999Z</time></trkpt><trkpt lat="37.69899955460133" lon="15.006787491759994"><ele>1909.6666666666667</ele><time>2026-03-28T10:39:20.999Z</time></trkpt><trkpt lat="37.699013474819985" lon="15.006900257768324"><ele>1909.0</ele><time>2026-03-28T10:39:21.999Z</time></trkpt><trkpt lat="37.699026309744866" lon="15.007028776967525"><ele>1906.6</ele><time>2026-03-28T10:39:22.999Z</time></trkpt><trkpt lat="37.699042211488276" lon="15.007159947149349"><ele>1904.2</ele><time>2026-03-28T10:39:23.999Z</time></trkpt><trkpt lat="37.69905886167029" lon="15.007289394435075"><ele>1901.7999999999997</ele><time>2026-03-28T10:39:24.999Z</time></trkpt><trkpt lat="37.69907475960273" lon="15.007419907800584"><ele>1899.3999999999999</ele><time>2026-03-28T10:39:25.999Z</time></trkpt><trkpt lat="37.699094477666236" lon="15.007547054273926"><ele>1897.0</ele><time>2026-03-28T10:39:26.999Z</time></trkpt><trkpt lat="37.699126633053304" lon="15.007663388316208"><ele>1898.1666666666667</ele><time>2026-03-28T10:39:27.999Z</time></trkpt><trkpt lat="37.69916218951954" lon="15.007775068510714"><ele>1899.3333333333335</ele><time>2026-03-28T10:39:28.999Z</time></trkpt><trkpt lat="37.69920615221295" lon="15.007857207696741"><ele>1900.5</ele><time>2026-03-28T10:39:29.999Z</time></trkpt><trkpt lat="37.69925302760092" lon="15.00792474499705"><ele>1901.6666666666665</ele><time>2026-03-28T10:39:30.999Z</time></trkpt><trkpt lat="37.699317637833495" lon="15.007985615073503"><ele>1902.8333333333333</ele><time>2026-03-28T10:39:31.999Z</time></trkpt><trkpt lat="37.69938947058534" lon="15.008049840239229"><ele>1904.0</ele><time>2026-03-28T10:39:32.999Z</time></trkpt><trkpt lat="37.699463269285545" lon="15.008117104511829"><ele>1904.0</ele><time>2026-03-28T10:39:33.999Z</time></trkpt><trkpt lat="37.699548550067064" lon="15.008192653013968"><ele>1904.0</ele><time>2026-03-28T10:39:34.999Z</time></trkpt><trkpt lat="37.69963549732887" lon="15.008282298296182"><ele>1904.0</ele><time>2026-03-28T10:39:35.999Z</time></trkpt><trkpt lat="37.69971064689533" lon="15.008365041113418"><ele>1904.0</ele><time>2026-03-28T10:39:36.999Z</time></trkpt><trkpt lat="37.69977658222649" lon="15.008441040769963"><ele>1904.0</ele><time>2026-03-28T10:39:37.999Z</time></trkpt><trkpt lat="37.699834315697714" lon="15.008510387553953"><ele>1900.8333333333333</ele><time>2026-03-28T10:39:38.999Z</time></trkpt><trkpt lat="37.69988110308341" lon="15.008582124061176"><ele>1897.6666666666665</ele><time>2026-03-28T10:39:39.999Z</time></trkpt><trkpt lat="37.69992291921997" lon="15.008658298640723"><ele>1894.5</ele><time>2026-03-28T10:39:40.999Z</time></trkpt><trkpt lat="37.69995880154265" lon="15.00872502452385"><ele>1891.3333333333335</ele><time>2026-03-28T10:39:41.999Z</time></trkpt><trkpt lat="37.70002014376688" lon="15.008841154034775"><ele>1888.1666666666667</ele><time>2026-03-28T10:39:43.999Z</time></trkpt><trkpt lat="37.70009245823473" lon="15.008959113150947"><ele>1885.0</ele><time>2026-03-28T10:39:45.999Z</time></trkpt><trkpt lat="37.700137564264985" lon="15.009027086804535"><ele>1885.0000000000002</ele><time>2026-03-28T10:39:46.999Z</time></trkpt><trkpt lat="37.700186625014865" lon="15.009104444394614"><ele>1885.0</ele><time>2026-03-28T10:39:47.999Z</time></trkpt><trkpt lat="37.70023603052331" lon="15.009187247172745"><ele>1885.0</ele><time>2026-03-28T10:39:48.999Z</time></trkpt><trkpt lat="37.70028413504387" lon="15.009267398775497"><ele>1885.0</ele><time>2026-03-28T10:39:49.999Z</time></trkpt><trkpt lat="37.700339007923" lon="15.009355903850045"><ele>1885.0000000000002</ele><time>2026-03-28T10:39:50.999Z</time></trkpt><trkpt lat="37.70039374618279" lon="15.009441493273725"><ele>1885.0</ele><time>2026-03-28T10:39:51.999Z</time></trkpt><trkpt lat="37.70044521994464" lon="15.009527235886853"><ele>1886.0000000000002</ele><time>2026-03-28T10:39:52.999Z</time></trkpt><trkpt lat="37.700494695930395" lon="15.009608992526179"><ele>1887.0</ele><time>2026-03-28T10:39:53.999Z</time></trkpt><trkpt lat="37.70054260505322" lon="15.009689316208647"><ele>1888.0</ele><time>2026-03-28T10:39:54.999Z</time></trkpt><trkpt lat="37.700592106827905" lon="15.00977213679474"><ele>1889.0</ele><time>2026-03-28T10:39:55.999Z</time></trkpt><trkpt lat="37.70064204153522" lon="15.009859069266938"><ele>1890.0000000000002</ele><time>2026-03-28T10:39:56.999Z</time></trkpt><trkpt lat="37.700696170341295" lon="15.009953186653433"><ele>1891.0</ele><time>2026-03-28T10:39:57.999Z</time></trkpt><trkpt lat="37.70075379830968" lon="15.010051783974532"><ele>1887.4</ele><time>2026-03-28T10:39:58.999Z</time></trkpt><trkpt lat="37.700816259146215" lon="15.010160090313317"><ele>1883.8</ele><time>2026-03-28T10:39:59.999Z</time></trkpt><trkpt lat="37.70087832360225" lon="15.01026725475337"><ele>1880.2000000000003</ele><time>2026-03-28T10:40:00.999Z</time></trkpt><trkpt lat="37.700937641873026" lon="15.010370602138424"><ele>1876.6000000000001</ele><time>2026-03-28T10:40:01.999Z</time></trkpt><trkpt lat="37.70099668016271" lon="15.010473469509254"><ele>1873.0</ele><time>2026-03-28T10:40:02.999Z</time></trkpt><trkpt lat="37.70105741816039" lon="15.010578751702875"><ele>1873.6000000000001</ele><time>2026-03-28T10:40:03.999Z</time></trkpt><trkpt lat="37.701114674734825" lon="15.010674582589358"><ele>1874.2000000000003</ele><time>2026-03-28T10:40:04.998Z</time></trkpt><trkpt lat="37.70117114419574" lon="15.0107693702525"><ele>1874.8</ele><time>2026-03-28T10:40:06Z</time></trkpt><trkpt lat="37.701229913701674" lon="15.010867148736812"><ele>1875.4</ele><time>2026-03-28T10:40:07Z</time></trkpt><trkpt lat="37.7012869166615" lon="15.010957770386545"><ele>1876.0</ele><time>2026-03-28T10:40:08Z</time></trkpt><trkpt lat="37.70134323740832" lon="15.011048766629271"><ele>1876.0</ele><time>2026-03-28T10:40:09Z</time></trkpt><trkpt lat="37.70139649100526" lon="15.011136044276192"><ele>1876.0</ele><time>2026-03-28T10:40:10Z</time></trkpt><trkpt lat="37.701450481017204" lon="15.011222692014167"><ele>1876.0</ele><time>2026-03-28T10:40:11Z</time></trkpt><trkpt lat="37.70150681697355" lon="15.011313427319434"><ele>1876.0</ele><time>2026-03-28T10:40:12Z</time></trkpt><trkpt lat="37.70157042201177" lon="15.01141215758815"><ele>1876.0</ele><time>2026-03-28T10:40:13Z</time></trkpt><trkpt lat="37.70163352881317" lon="15.011512762643255"><ele>1876.0000000000002</ele><time>2026-03-28T10:40:14Z</time></trkpt><trkpt lat="37.701690915691934" lon="15.01160641532155"><ele>1876.0</ele><time>2026-03-28T10:40:15Z</time></trkpt><trkpt lat="37.701739956687305" lon="15.011693392372013"><ele>1876.0</ele><time>2026-03-28T10:40:16Z</time></trkpt><trkpt lat="37.701783277005916" lon="15.011784814310257"><ele>1876.0</ele><time>2026-03-28T10:40:17Z</time></trkpt><trkpt lat="37.70181583636155" lon="15.011876429916004"><ele>1876.0000000000002</ele><time>2026-03-28T10:40:18Z</time></trkpt><trkpt lat="37.701841684505716" lon="15.011973725916237"><ele>1876.0</ele><time>2026-03-28T10:40:19Z</time></trkpt><trkpt lat="37.70185619189962" lon="15.012070097142349"><ele>1873.5000000000002</ele><time>2026-03-28T10:40:20Z</time></trkpt><trkpt lat="37.701857747806166" lon="15.012153286853387"><ele>1871.0</ele><time>2026-03-28T10:40:21Z</time></trkpt><trkpt lat="37.70184796975022" lon="15.012285107025102"><ele>1868.5</ele><time>2026-03-28T10:40:23Z</time></trkpt><trkpt lat="37.70183869924471" lon="15.012395172917566"><ele>1866.0</ele><time>2026-03-28T10:40:25Z</time></trkpt><trkpt lat="37.70182482459909" lon="15.012488588525638"><ele>1863.5000000000002</ele><time>2026-03-28T10:40:27Z</time></trkpt><trkpt lat="37.70181039410814" lon="15.0125728611104"><ele>1861.0</ele><time>2026-03-28T10:40:29Z</time></trkpt><trkpt lat="37.70180952117534" lon="15.012672595302503"><ele>1859.6666666666667</ele><time>2026-03-28T10:40:33Z</time></trkpt><trkpt lat="37.70181623093004" lon="15.012783295594547"><ele>1858.3333333333335</ele><time>2026-03-28T10:40:37Z</time></trkpt><trkpt lat="37.70180168917008" lon="15.01289964026709"><ele>1857.0</ele><time>2026-03-28T10:40:40Z</time></trkpt><trkpt lat="37.70179289110608" lon="15.012982828101697"><ele>1855.6666666666665</ele><time>2026-03-28T10:40:41.999Z</time></trkpt><trkpt lat="37.70177129392745" lon="15.013062741598256"><ele>1854.3333333333333</ele><time>2026-03-28T10:40:43.999Z</time></trkpt><trkpt lat="37.701752836748966" lon="15.013146486244645"><ele>1853.0</ele><time>2026-03-28T10:41:26.999Z</time></trkpt><trkpt lat="37.70175027278406" lon="15.013260277762278"><ele>1852.5714285714284</ele><time>2026-03-28T10:41:28.999Z</time></trkpt><trkpt lat="37.70174470522698" lon="15.013347288250724"><ele>1852.1428571428573</ele><time>2026-03-28T10:41:29.999Z</time></trkpt><trkpt lat="37.70173877561004" lon="15.013436608424207"><ele>1851.7142857142858</ele><time>2026-03-28T10:41:30.999Z</time></trkpt><trkpt lat="37.70173688803551" lon="15.01352385409448"><ele>1851.2857142857142</ele><time>2026-03-28T10:41:31.999Z</time></trkpt><trkpt lat="37.70173269908482" lon="15.01361414779439"><ele>1850.8571428571427</ele><time>2026-03-28T10:41:32.999Z</time></trkpt><trkpt lat="37.701729996178635" lon="15.013711251139714"><ele>1850.4285714285716</ele><time>2026-03-28T10:41:33.999Z</time></trkpt><trkpt lat="37.70172597986592" lon="15.013807885988449"><ele>1850.0</ele><time>2026-03-28T10:41:34.999Z</time></trkpt><trkpt lat="37.701709744378164" lon="15.013896494435393"><ele>1849.9999999999998</ele><time>2026-03-28T10:41:35.999Z</time></trkpt><trkpt lat="37.70168625421155" lon="15.013989525221179"><ele>1850.0</ele><time>2026-03-28T10:41:36.999Z</time></trkpt><trkpt lat="37.70165413445004" lon="15.014083504594817"><ele>1850.0</ele><time>2026-03-28T10:41:37.999Z</time></trkpt><trkpt lat="37.70162254114736" lon="15.01415599608654"><ele>1850.0</ele><time>2026-03-28T10:41:38.999Z</time></trkpt><trkpt lat="37.70158347418921" lon="15.01423182087177"><ele>1849.9999999999998</ele><time>2026-03-28T10:41:39.999Z</time></trkpt><trkpt lat="37.70153165406559" lon="15.014315183302566"><ele>1850.0</ele><time>2026-03-28T10:41:40.999Z</time></trkpt><trkpt lat="37.7014737821688" lon="15.014403598363392"><ele>1849.8</ele><time>2026-03-28T10:41:41.999Z</time></trkpt><trkpt lat="37.70141278534116" lon="15.014501415058286"><ele>1849.6</ele><time>2026-03-28T10:41:42.999Z</time></trkpt><trkpt lat="37.7013600952662" lon="15.014600758225061"><ele>1849.4</ele><time>2026-03-28T10:41:43.999Z</time></trkpt><trkpt lat="37.70131145377338" lon="15.01470539954794"><ele>1849.2</ele><time>2026-03-28T10:41:44.999Z</time></trkpt><trkpt lat="37.701273115884824" lon="15.014807243361275"><ele>1849.0</ele><time>2026-03-28T10:41:45.999Z</time></trkpt><trkpt lat="37.70122530079306" lon="15.01492128925257"><ele>1849.8000000000002</ele><time>2026-03-28T10:41:46.999Z</time></trkpt><trkpt lat="37.701181365408075" lon="15.015036607557438"><ele>1850.6000000000001</ele><time>2026-03-28T10:41:47.999Z</time></trkpt><trkpt lat="37.70114087408465" lon="15.01515478082264"><ele>1851.4</ele><time>2026-03-28T10:41:48.999Z</time></trkpt><trkpt lat="37.701099598329684" lon="15.01526760555351"><ele>1852.2</ele><time>2026-03-28T10:41:49.999Z</time></trkpt><trkpt lat="37.70105916977691" lon="15.015381502314666"><ele>1853.0</ele><time>2026-03-28T10:41:50.999Z</time></trkpt><trkpt lat="37.70101750723273" lon="15.015500204634812"><ele>1848.0</ele><time>2026-03-28T10:41:51.999Z</time></trkpt><trkpt lat="37.700975407778806" lon="15.015621115262816"><ele>1843.0000000000002</ele><time>2026-03-28T10:41:52.999Z</time></trkpt><trkpt lat="37.7009337552308" lon="15.01574920577791"><ele>1838.0000000000002</ele><time>2026-03-28T10:41:53.999Z</time></trkpt><trkpt lat="37.70089550891804" lon="15.015885193745223"><ele>1833.0</ele><time>2026-03-28T10:41:54.999Z</time></trkpt><trkpt lat="37.70085994083467" lon="15.016023562505822"><ele>1828.0</ele><time>2026-03-28T10:41:55.999Z</time></trkpt><trkpt lat="37.70082840509741" lon="15.01616743243489"><ele>1828.0</ele><time>2026-03-28T10:41:56.999Z</time></trkpt><trkpt lat="37.70079752368573" lon="15.01631696782552"><ele>1828.0</ele><time>2026-03-28T10:41:57.999Z</time></trkpt><trkpt lat="37.70076810831327" lon="15.01646075330228"><ele>1828.0</ele><time>2026-03-28T10:41:58.999Z</time></trkpt><trkpt lat="37.700742057895795" lon="15.016599721246234"><ele>1828.0</ele><time>2026-03-28T10:41:59.999Z</time></trkpt><trkpt lat="37.70071892234563" lon="15.0167256822213"><ele>1829.1666666666667</ele><time>2026-03-28T10:42:00.999Z</time></trkpt><trkpt lat="37.70069777219076" lon="15.016846989463756"><ele>1830.3333333333335</ele><time>2026-03-28T10:42:01.999Z</time></trkpt><trkpt lat="37.7006791688124" lon="15.016961166071344"><ele>1831.5</ele><time>2026-03-28T10:42:02.999Z</time></trkpt><trkpt lat="37.70066501108625" lon="15.01706475952295"><ele>1832.6666666666665</ele><time>2026-03-28T10:42:03.999Z</time></trkpt><trkpt lat="37.70065227902517" lon="15.017161540443315"><ele>1833.8333333333333</ele><time>2026-03-28T10:42:04.999Z</time></trkpt><trkpt lat="37.70064094413106" lon="15.017242217947034"><ele>1835.0</ele><time>2026-03-28T10:42:05.999Z</time></trkpt><trkpt lat="37.70060568742934" lon="15.017371560227689"><ele>1835.0</ele><time>2026-03-28T10:42:07.999Z</time></trkpt><trkpt lat="37.70054122278236" lon="15.017449644115361"><ele>1835.0</ele><time>2026-03-28T10:42:09.999Z</time></trkpt><trkpt lat="37.700437793969556" lon="15.01747108437985"><ele>1835.0</ele><time>2026-03-28T10:42:12Z</time></trkpt><trkpt lat="37.700339462849584" lon="15.017403759585214"><ele>1835.0</ele><time>2026-03-28T10:42:14Z</time></trkpt><trkpt lat="37.70030015451556" lon="15.017334385015259"><ele>1835.0</ele><time>2026-03-28T10:42:15Z</time></trkpt><trkpt lat="37.700306188839896" lon="15.017233173809705"><ele>1834.9999999999998</ele><time>2026-03-28T10:42:16Z</time></trkpt><trkpt lat="37.70030022099378" lon="15.017131770436912"><ele>1835.0</ele><time>2026-03-28T10:42:17Z</time></trkpt><trkpt lat="37.700293852336166" lon="15.017023161480273"><ele>1835.0</ele><time>2026-03-28T10:42:18Z</time></trkpt><trkpt lat="37.70028968837212" lon="15.016902945457783"><ele>1835.0</ele><time>2026-03-28T10:42:19Z</time></trkpt><trkpt lat="37.70028572156677" lon="15.016788421418337"><ele>1834.9999999999998</ele><time>2026-03-28T10:42:20Z</time></trkpt><trkpt lat="37.700280243910484" lon="15.01666990601432"><ele>1835.0</ele><time>2026-03-28T10:42:21Z</time></trkpt><trkpt lat="37.70027410579476" lon="15.016545609116251"><ele>1833.25</ele><time>2026-03-28T10:42:22Z</time></trkpt><trkpt lat="37.700267190286674" lon="15.016405570006516"><ele>1831.5</ele><time>2026-03-28T10:42:23Z</time></trkpt><trkpt lat="37.70026030696583" lon="15.016266182621957"><ele>1829.75</ele><time>2026-03-28T10:42:24Z</time></trkpt><trkpt lat="37.70023640752124" lon="15.01612137382352"><ele>1828.0</ele><time>2026-03-28T10:42:25Z</time></trkpt><trkpt lat="37.70022984961003" lon="15.015976851943224"><ele>1823.3333333333335</ele><time>2026-03-28T10:42:26Z</time></trkpt><trkpt lat="37.700222697672174" lon="15.015831853543567"><ele>1818.6666666666667</ele><time>2026-03-28T10:42:27Z</time></trkpt><trkpt lat="37.70021597056324" lon="15.015702508817425"><ele>1814.0</ele><time>2026-03-28T10:42:28Z</time></trkpt><trkpt lat="37.700228092495074" lon="15.01559548781907"><ele>1809.3333333333335</ele><time>2026-03-28T10:42:29Z</time></trkpt><trkpt lat="37.700222575416426" lon="15.015504726681966"><ele>1804.6666666666667</ele><time>2026-03-28T10:42:30Z</time></trkpt><trkpt lat="37.70021075217796" lon="15.015423926212161"><ele>1800.0</ele><time>2026-03-28T10:42:31Z</time></trkpt><trkpt lat="37.700171041460266" lon="15.015304815307926"><ele>1800.0</ele><time>2026-03-28T10:42:33Z</time></trkpt><trkpt lat="37.70008374825965" lon="15.015233012824744"><ele>1800.0</ele><time>2026-03-28T10:42:35Z</time></trkpt><trkpt lat="37.69997794945621" lon="15.015177392580668"><ele>1800.0</ele><time>2026-03-28T10:42:37Z</time></trkpt><trkpt lat="37.699914575135026" lon="15.015173672185831"><ele>1800.0</ele><time>2026-03-28T10:42:38Z</time></trkpt><trkpt lat="37.699851373918186" lon="15.015189687146297"><ele>1800.0</ele><time>2026-03-28T10:42:39Z</time></trkpt><trkpt lat="37.699788762618425" lon="15.0152266646947"><ele>1800.0</ele><time>2026-03-28T10:42:40Z</time></trkpt><trkpt lat="37.69974176422068" lon="15.01528396514164"><ele>1800.0000000000002</ele><time>2026-03-28T10:42:41Z</time></trkpt><trkpt lat="37.699706960437275" lon="15.01535478505163"><ele>1800.0</ele><time>2026-03-28T10:42:42Z</time></trkpt><trkpt lat="37.699691410461256" lon="15.01543285756475"><ele>1800.0000000000002</ele><time>2026-03-28T10:42:43Z</time></trkpt><trkpt lat="37.699691663091166" lon="15.015520538535378"><ele>1800.0000000000002</ele><time>2026-03-28T10:42:44Z</time></trkpt><trkpt lat="37.69970231575472" lon="15.0156085086741"><ele>1800.0</ele><time>2026-03-28T10:42:45Z</time></trkpt><trkpt lat="37.69971959746837" lon="15.015703166822874"><ele>1800.0000000000002</ele><time>2026-03-28T10:42:46Z</time></trkpt><trkpt lat="37.69973666942398" lon="15.015795807063139"><ele>1800.0000000000002</ele><time>2026-03-28T10:42:47Z</time></trkpt><trkpt lat="37.699756921275984" lon="15.015887874609241"><ele>1799.6666666666667</ele><time>2026-03-28T10:42:48Z</time></trkpt><trkpt lat="37.69977280156415" lon="15.01598319113991"><ele>1799.3333333333335</ele><time>2026-03-28T10:42:48.999Z</time></trkpt><trkpt lat="37.69977057890816" lon="15.016079749434656"><ele>1799.0</ele><time>2026-03-28T10:42:49.999Z</time></trkpt><trkpt lat="37.69975586926338" lon="15.016188591402637"><ele>1798.6666666666667</ele><time>2026-03-28T10:42:50.999Z</time></trkpt><trkpt lat="37.6997243812123" lon="15.016301897968955"><ele>1798.3333333333335</ele><time>2026-03-28T10:42:51.999Z</time></trkpt><trkpt lat="37.699683095882456" lon="15.016425259749367"><ele>1798.0</ele><time>2026-03-28T10:42:52.999Z</time></trkpt><trkpt lat="37.69963586050613" lon="15.016556618123786"><ele>1798.5</ele><time>2026-03-28T10:42:53.999Z</time></trkpt><trkpt lat="37.69958426847327" lon="15.016697825098472"><ele>1799.0</ele><time>2026-03-28T10:42:54.999Z</time></trkpt><trkpt lat="37.69952771332141" lon="15.016849546104712"><ele>1799.5</ele><time>2026-03-28T10:42:55.999Z</time></trkpt><trkpt lat="37.69947239770653" lon="15.017003127528323"><ele>1800.0</ele><time>2026-03-28T10:42:56.999Z</time></trkpt><trkpt lat="37.69941808752322" lon="15.017158369367984"><ele>1794.75</ele><time>2026-03-28T10:42:57.999Z</time></trkpt><trkpt lat="37.69936710957023" lon="15.01730967972814"><ele>1789.5</ele><time>2026-03-28T10:42:58.999Z</time></trkpt><trkpt lat="37.6993158062325" lon="15.017460943206371"><ele>1784.25</ele><time>2026-03-28T10:42:59.999Z</time></trkpt><trkpt lat="37.699262432673926" lon="15.017612543088884"><ele>1779.0</ele><time>2026-03-28T10:43:00.999Z</time></trkpt><trkpt lat="37.69920800973253" lon="15.01776290727931"><ele>1779.0</ele><time>2026-03-28T10:43:01.999Z</time></trkpt><trkpt lat="37.69915381065037" lon="15.017915759706261"><ele>1779.0</ele><time>2026-03-28T10:43:02.999Z</time></trkpt><trkpt lat="37.699099885023095" lon="15.018066225328948"><ele>1779.0</ele><time>2026-03-28T10:43:03.999Z</time></trkpt><trkpt lat="37.69904594369087" lon="15.018217466060728"><ele>1779.0</ele><time>2026-03-28T10:43:04.999Z</time></trkpt><trkpt lat="37.69899839195949" lon="15.018356565735713"><ele>1779.4</ele><time>2026-03-28T10:43:05.999Z</time></trkpt><trkpt lat="37.698953985040276" lon="15.0184863975305"><ele>1779.8000000000002</ele><time>2026-03-28T10:43:06.999Z</time></trkpt><trkpt lat="37.69890923897832" lon="15.01861380176895"><ele>1780.1999999999998</ele><time>2026-03-28T10:43:07.999Z</time></trkpt><trkpt lat="37.698865607684425" lon="15.018740786016515"><ele>1780.6</ele><time>2026-03-28T10:43:08.999Z</time></trkpt><trkpt lat="37.698825863747615" lon="15.018865553081756"><ele>1781.0</ele><time>2026-03-28T10:43:09.999Z</time></trkpt><trkpt lat="37.69879293211945" lon="15.019000470045366"><ele>1780.25</ele><time>2026-03-28T10:43:10.999Z</time></trkpt><trkpt lat="37.69876274172587" lon="15.019151101532655"><ele>1779.5</ele><time>2026-03-28T10:43:11.999Z</time></trkpt><trkpt lat="37.69873925868561" lon="15.019303606115065"><ele>1778.75</ele><time>2026-03-28T10:43:12.999Z</time></trkpt><trkpt lat="37.69872187037997" lon="15.019454134264608"><ele>1778.0</ele><time>2026-03-28T10:43:13.999Z</time></trkpt><trkpt lat="37.69870651219018" lon="15.019604850549957"><ele>1778.0</ele><time>2026-03-28T10:43:14.999Z</time></trkpt><trkpt lat="37.69869104481464" lon="15.01975753604192"><ele>1778.0</ele><time>2026-03-28T10:43:15.999Z</time></trkpt><trkpt lat="37.69867736576839" lon="15.019907984072185"><ele>1778.0</ele><time>2026-03-28T10:43:16.999Z</time></trkpt><trkpt lat="37.69866354659295" lon="15.02005382245626"><ele>1778.0</ele><time>2026-03-28T10:43:17.999Z</time></trkpt><trkpt lat="37.69864900457634" lon="15.02019378141412"><ele>1777.4</ele><time>2026-03-28T10:43:18.999Z</time></trkpt><trkpt lat="37.69863621728147" lon="15.020328927319746"><ele>1776.8000000000002</ele><time>2026-03-28T10:43:19.999Z</time></trkpt><trkpt lat="37.69862225554533" lon="15.020455708307797"><ele>1776.2</ele><time>2026-03-28T10:43:20.999Z</time></trkpt><trkpt lat="37.69861037445263" lon="15.020571997161928"><ele>1775.6</ele><time>2026-03-28T10:43:21.999Z</time></trkpt><trkpt lat="37.69860061451914" lon="15.020672701979663"><ele>1775.0</ele><time>2026-03-28T10:43:22.999Z</time></trkpt><trkpt lat="37.69858974619169" lon="15.02076410976642"><ele>1771.5714285714287</ele><time>2026-03-28T10:43:23.999Z</time></trkpt><trkpt lat="37.69856997858708" lon="15.020846968038086"><ele>1768.142857142857</ele><time>2026-03-28T10:43:24.999Z</time></trkpt><trkpt lat="37.698534033133605" lon="15.020912851024171"><ele>1764.7142857142858</ele><time>2026-03-28T10:43:25.999Z</time></trkpt><trkpt lat="37.69842690382076" lon="15.020980020640492"><ele>1761.2857142857142</ele><time>2026-03-28T10:43:27.999Z</time></trkpt><trkpt lat="37.69836314233433" lon="15.020973406719756"><ele>1757.857142857143</ele><time>2026-03-28T10:43:28.999Z</time></trkpt><trkpt lat="37.69830967380079" lon="15.020928604978318"><ele>1754.4285714285716</ele><time>2026-03-28T10:43:29.999Z</time></trkpt><trkpt lat="37.69827070027204" lon="15.020859952211739"><ele>1751.0</ele><time>2026-03-28T10:43:30.999Z</time></trkpt><trkpt lat="37.69824900385959" lon="15.020765634690743"><ele>1750.9999999999998</ele><time>2026-03-28T10:43:31.999Z</time></trkpt><trkpt lat="37.69823557061331" lon="15.02066652742609"><ele>1751.0</ele><time>2026-03-28T10:43:32.999Z</time></trkpt><trkpt lat="37.69822613820744" lon="15.020567964898598"><ele>1751.0</ele><time>2026-03-28T10:43:33.999Z</time></trkpt><trkpt lat="37.69821798942832" lon="15.02046145327827"><ele>1751.0</ele><time>2026-03-28T10:43:34.999Z</time></trkpt><trkpt lat="37.69820715116047" lon="15.020348621903258"><ele>1750.9999999999998</ele><time>2026-03-28T10:43:35.999Z</time></trkpt><trkpt lat="37.698195829414665" lon="15.020233507512078"><ele>1751.0</ele><time>2026-03-28T10:43:36.999Z</time></trkpt><trkpt lat="37.69818181529413" lon="15.020113948553707"><ele>1751.0</ele><time>2026-03-28T10:43:37.999Z</time></trkpt><trkpt lat="37.69816930744248" lon="15.019984535508247"><ele>1751.0</ele><time>2026-03-28T10:43:38.999Z</time></trkpt><trkpt lat="37.698156313218625" lon="15.019854750746129"><ele>1751.0</ele><time>2026-03-28T10:43:39.999Z</time></trkpt><trkpt lat="37.69814085890093" lon="15.019734728186481"><ele>1751.0</ele><time>2026-03-28T10:43:40.999Z</time></trkpt><trkpt lat="37.69812775380314" lon="15.019625206082337"><ele>1751.0</ele><time>2026-03-28T10:43:41.999Z</time></trkpt><trkpt lat="37.69811631326888" lon="15.019527562099483"><ele>1751.3333333333333</ele><time>2026-03-28T10:43:42.999Z</time></trkpt><trkpt lat="37.69810356844075" lon="15.019427873678415"><ele>1751.6666666666665</ele><time>2026-03-28T10:43:43.999Z</time></trkpt><trkpt lat="37.698091585436515" lon="15.019335668058938"><ele>1752.0</ele><time>2026-03-28T10:43:44.999Z</time></trkpt><trkpt lat="37.69807839563126" lon="15.019248281807842"><ele>1752.3333333333335</ele><time>2026-03-28T10:43:45.999Z</time></trkpt><trkpt lat="37.698057796869264" lon="15.019168255422251"><ele>1752.6666666666667</ele><time>2026-03-28T10:43:46.999Z</time></trkpt><trkpt lat="37.697976324855176" lon="15.019060205120583"><ele>1753.0</ele><time>2026-03-28T10:43:48.999Z</time></trkpt><trkpt lat="37.69791195938635" lon="15.019043080756996"><ele>1753.4285714285713</ele><time>2026-03-28T10:43:49.999Z</time></trkpt><trkpt lat="37.697843820844696" lon="15.019059011846544"><ele>1753.857142857143</ele><time>2026-03-28T10:43:50.999Z</time></trkpt><trkpt lat="37.697782812858684" lon="15.019101408749913"><ele>1754.2857142857142</ele><time>2026-03-28T10:43:51.999Z</time></trkpt><trkpt lat="37.69773516867988" lon="15.01916571707887"><ele>1754.7142857142858</ele><time>2026-03-28T10:43:52.999Z</time></trkpt><trkpt lat="37.69770407474377" lon="15.019244992848824"><ele>1755.142857142857</ele><time>2026-03-28T10:43:53.999Z</time></trkpt><trkpt lat="37.697687263345394" lon="15.019331288384413"><ele>1755.5714285714284</ele><time>2026-03-28T10:43:54.999Z</time></trkpt><trkpt lat="37.69767871421811" lon="15.019421317508916"><ele>1756.0</ele><time>2026-03-28T10:43:55.999Z</time></trkpt><trkpt lat="37.69766953144001" lon="15.019520095262134"><ele>1751.6</ele><time>2026-03-28T10:43:56.999Z</time></trkpt><trkpt lat="37.6976585492822" lon="15.019624726377078"><ele>1747.1999999999998</ele><time>2026-03-28T10:43:57.999Z</time></trkpt><trkpt lat="37.69764721212846" lon="15.019742395554376"><ele>1742.8000000000002</ele><time>2026-03-28T10:43:58.999Z</time></trkpt><trkpt lat="37.697638966213866" lon="15.019863799204247"><ele>1738.4</ele><time>2026-03-28T10:43:59.999Z</time></trkpt><trkpt lat="37.69763803909995" lon="15.0199958596918"><ele>1734.0</ele><time>2026-03-28T10:44:00.999Z</time></trkpt><trkpt lat="37.697645422952775" lon="15.020136302236205"><ele>1732.0</ele><time>2026-03-28T10:44:01.999Z</time></trkpt><trkpt lat="37.697657531013725" lon="15.020286669855539"><ele>1730.0</ele><time>2026-03-28T10:44:02.999Z</time></trkpt><trkpt lat="37.69767469920121" lon="15.020445965127285"><ele>1728.0</ele><time>2026-03-28T10:44:03.999Z</time></trkpt><trkpt lat="37.69769433319841" lon="15.02061282619074"><ele>1726.0</ele><time>2026-03-28T10:44:04.999Z</time></trkpt><trkpt lat="37.697716558215866" lon="15.020782669915148"><ele>1724.75</ele><time>2026-03-28T10:44:05.999Z</time></trkpt><trkpt lat="37.69773769691306" lon="15.020960304190911"><ele>1723.5</ele><time>2026-03-28T10:44:06.999Z</time></trkpt><trkpt lat="37.69776002500943" lon="15.02114447897952"><ele>1722.25</ele><time>2026-03-28T10:44:07.999Z</time></trkpt><trkpt lat="37.697783536332125" lon="15.02132379370147"><ele>1721.0</ele><time>2026-03-28T10:44:08.999Z</time></trkpt><trkpt lat="37.69780783418353" lon="15.021508940560341"><ele>1724.75</ele><time>2026-03-28T10:44:09.999Z</time></trkpt><trkpt lat="37.69783006247001" lon="15.021691855805466"><ele>1728.5</ele><time>2026-03-28T10:44:10.999Z</time></trkpt><trkpt lat="37.69785185066376" lon="15.021874744761233"><ele>1732.25</ele><time>2026-03-28T10:44:11.999Z</time></trkpt><trkpt lat="37.69787202602344" lon="15.022059951095308"><ele>1736.0</ele><time>2026-03-28T10:44:12.999Z</time></trkpt><trkpt lat="37.69789435485518" lon="15.02223999263829"><ele>1736.0</ele><time>2026-03-28T10:44:13.999Z</time></trkpt><trkpt lat="37.69791869009092" lon="15.022417482601503"><ele>1736.0</ele><time>2026-03-28T10:44:14.999Z</time></trkpt><trkpt lat="37.69794312584165" lon="15.022599176643823"><ele>1736.0</ele><time>2026-03-28T10:44:15.999Z</time></trkpt><trkpt lat="37.6979655246247" lon="15.022783508737682"><ele>1736.0</ele><time>2026-03-28T10:44:16.999Z</time></trkpt><trkpt lat="37.69798784137004" lon="15.022971334088457"><ele>1734.5</ele><time>2026-03-28T10:44:18Z</time></trkpt><trkpt lat="37.698009226619675" lon="15.02315890817472"><ele>1733.0</ele><time>2026-03-28T10:44:19Z</time></trkpt><trkpt lat="37.69803115759564" lon="15.023343976647784"><ele>1731.5</ele><time>2026-03-28T10:44:20Z</time></trkpt><trkpt lat="37.69805147866082" lon="15.023530869825358"><ele>1730.0</ele><time>2026-03-28T10:44:21Z</time></trkpt><trkpt lat="37.69806183356896" lon="15.023717674648058"><ele>1728.25</ele><time>2026-03-28T10:44:22Z</time></trkpt><trkpt lat="37.6980517386095" lon="15.023901656593338"><ele>1726.5</ele><time>2026-03-28T10:44:23Z</time></trkpt><trkpt lat="37.69801651650438" lon="15.02408550234573"><ele>1724.75</ele><time>2026-03-28T10:44:24Z</time></trkpt><trkpt lat="37.697974268303284" lon="15.024263810903493"><ele>1723.0</ele><time>2026-03-28T10:44:25Z</time></trkpt><trkpt lat="37.69793156381363" lon="15.024438475958442"><ele>1721.0</ele><time>2026-03-28T10:44:26Z</time></trkpt><trkpt lat="37.69789051081724" lon="15.024613981086786"><ele>1719.0</ele><time>2026-03-28T10:44:27Z</time></trkpt><trkpt lat="37.69785708004776" lon="15.024785632247815"><ele>1717.0</ele><time>2026-03-28T10:44:28Z</time></trkpt><trkpt lat="37.6978294303914" lon="15.024952184650118"><ele>1715.0</ele><time>2026-03-28T10:44:29Z</time></trkpt><trkpt lat="37.697813193205825" lon="15.02511926437269"><ele>1712.75</ele><time>2026-03-28T10:44:30Z</time></trkpt><trkpt lat="37.697811648258174" lon="15.025287383123036"><ele>1710.5</ele><time>2026-03-28T10:44:30.999Z</time></trkpt><trkpt lat="37.69782439601493" lon="15.025456189908583"><ele>1708.25</ele><time>2026-03-28T10:44:31.999Z</time></trkpt><trkpt lat="37.6978518815689" lon="15.025633486723102"><ele>1706.0</ele><time>2026-03-28T10:44:32.999Z</time></trkpt><trkpt lat="37.69789736406948" lon="15.025809223660225"><ele>1704.75</ele><time>2026-03-28T10:44:33.999Z</time></trkpt><trkpt lat="37.69795893668006" lon="15.025966300764628"><ele>1703.5</ele><time>2026-03-28T10:44:34.999Z</time></trkpt><trkpt lat="37.698029511754214" lon="15.02611010741543"><ele>1702.25</ele><time>2026-03-28T10:44:35.999Z</time></trkpt><trkpt lat="37.69811393691995" lon="15.026241442836913"><ele>1701.0</ele><time>2026-03-28T10:44:36.999Z</time></trkpt><trkpt lat="37.6981962777894" lon="15.026368670563308"><ele>1701.0</ele><time>2026-03-28T10:44:37.999Z</time></trkpt><trkpt lat="37.69827597941405" lon="15.026501508586016"><ele>1701.0</ele><time>2026-03-28T10:44:38.999Z</time></trkpt><trkpt lat="37.698349777146035" lon="15.026641280598248"><ele>1701.0</ele><time>2026-03-28T10:44:39.999Z</time></trkpt><trkpt lat="37.698419093025116" lon="15.026788495785032"><ele>1701.0</ele><time>2026-03-28T10:44:40.999Z</time></trkpt><trkpt lat="37.6984800425091" lon="15.026945062739033"><ele>1701.0</ele><time>2026-03-28T10:44:41.999Z</time></trkpt><trkpt lat="37.698537504702976" lon="15.02710738258679"><ele>1701.0</ele><time>2026-03-28T10:44:42.999Z</time></trkpt><trkpt lat="37.69859154724377" lon="15.027284592269746"><ele>1701.0</ele><time>2026-03-28T10:44:43.999Z</time></trkpt><trkpt lat="37.69863909971381" lon="15.02746973107249"><ele>1701.0</ele><time>2026-03-28T10:44:44.999Z</time></trkpt><trkpt lat="37.698676590064785" lon="15.02766619085953"><ele>1697.6666666666665</ele><time>2026-03-28T10:44:45.999Z</time></trkpt><trkpt lat="37.69868699424969" lon="15.027867722098845"><ele>1694.3333333333333</ele><time>2026-03-28T10:44:46.999Z</time></trkpt><trkpt lat="37.69867133428463" lon="15.02807073116552"><ele>1691.0</ele><time>2026-03-28T10:44:47.999Z</time></trkpt><trkpt lat="37.69863658731292" lon="15.02826163109213"><ele>1690.0</ele><time>2026-03-28T10:44:48.999Z</time></trkpt><trkpt lat="37.69859735659944" lon="15.028433687159618"><ele>1689.0</ele><time>2026-03-28T10:44:49.999Z</time></trkpt><trkpt lat="37.69856978243016" lon="15.028596575810194"><ele>1688.0</ele><time>2026-03-28T10:44:50.999Z</time></trkpt><trkpt lat="37.698569204864725" lon="15.028760948654295"><ele>1687.0</ele><time>2026-03-28T10:44:51.999Z</time></trkpt><trkpt lat="37.69859832170007" lon="15.028929175889237"><ele>1687.0</ele><time>2026-03-28T10:44:52.999Z</time></trkpt><trkpt lat="37.698631471707806" lon="15.029107765659187"><ele>1687.0</ele><time>2026-03-28T10:44:53.999Z</time></trkpt><trkpt lat="37.69866563850002" lon="15.029289071264516"><ele>1687.0</ele><time>2026-03-28T10:44:54.999Z</time></trkpt><trkpt lat="37.69869776518862" lon="15.029457883436708"><ele>1687.0</ele><time>2026-03-28T10:44:55.999Z</time></trkpt><trkpt lat="37.69872917594746" lon="15.029623520110526"><ele>1684.25</ele><time>2026-03-28T10:44:56.999Z</time></trkpt><trkpt lat="37.698760544670506" lon="15.029786542248758"><ele>1681.5</ele><time>2026-03-28T10:44:57.999Z</time></trkpt><trkpt lat="37.698789907703755" lon="15.029947551548958"><ele>1678.75</ele><time>2026-03-28T10:44:58.999Z</time></trkpt><trkpt lat="37.69881925242456" lon="15.030109206969964"><ele>1676.0</ele><time>2026-03-28T10:44:59.999Z</time></trkpt><trkpt lat="37.6988512482104" lon="15.030269744772221"><ele>1673.0</ele><time>2026-03-28T10:45:00.999Z</time></trkpt><trkpt lat="37.69888301760729" lon="15.03042696517387"><ele>1670.0</ele><time>2026-03-28T10:45:01.999Z</time></trkpt><trkpt lat="37.69891973957409" lon="15.030578015355113"><ele>1667.0</ele><time>2026-03-28T10:45:02.999Z</time></trkpt><trkpt lat="37.69896811587992" lon="15.0307350458073"><ele>1664.0</ele><time>2026-03-28T10:45:03.999Z</time></trkpt><trkpt lat="37.69902467812564" lon="15.030878098415009"><ele>1660.75</ele><time>2026-03-28T10:45:04.999Z</time></trkpt><trkpt lat="37.69909128211759" lon="15.03101914231058"><ele>1657.5</ele><time>2026-03-28T10:45:05.999Z</time></trkpt><trkpt lat="37.69916859669512" lon="15.031146682847055"><ele>1654.25</ele><time>2026-03-28T10:45:06.999Z</time></trkpt><trkpt lat="37.699241774976294" lon="15.031274372864463"><ele>1651.0</ele><time>2026-03-28T10:45:07.999Z</time></trkpt><trkpt lat="37.69931042869657" lon="15.031396504683896"><ele>1651.0</ele><time>2026-03-28T10:45:08.999Z</time></trkpt><trkpt lat="37.69936885690304" lon="15.031517955429731"><ele>1651.0</ele><time>2026-03-28T10:45:09.999Z</time></trkpt><trkpt lat="37.699413372010284" lon="15.03164769920196"><ele>1651.0</ele><time>2026-03-28T10:45:10.999Z</time></trkpt><trkpt lat="37.69944136054581" lon="15.031783905435931"><ele>1651.0</ele><time>2026-03-28T10:45:11.999Z</time></trkpt><trkpt lat="37.69945242478074" lon="15.031921674035152"><ele>1651.0</ele><time>2026-03-28T10:45:12.999Z</time></trkpt><trkpt lat="37.69944857781191" lon="15.032062226422537"><ele>1653.25</ele><time>2026-03-28T10:45:13.999Z</time></trkpt><trkpt lat="37.6994288813912" lon="15.032203820798648"><ele>1655.5</ele><time>2026-03-28T10:45:14.999Z</time></trkpt><trkpt lat="37.69939492018838" lon="15.032342873503287"><ele>1657.75</ele><time>2026-03-28T10:45:15.999Z</time></trkpt><trkpt lat="37.69935354708323" lon="15.032476014407761"><ele>1660.0</ele><time>2026-03-28T10:45:16.999Z</time></trkpt><trkpt lat="37.6993229760711" lon="15.032612011770524"><ele>1653.8</ele><time>2026-03-28T10:45:17.999Z</time></trkpt><trkpt lat="37.69930810018633" lon="15.03275338408069"><ele>1647.6</ele><time>2026-03-28T10:45:18.999Z</time></trkpt><trkpt lat="37.69930965691631" lon="15.032893413455877"><ele>1641.4</ele><time>2026-03-28T10:45:19.999Z</time></trkpt><trkpt lat="37.69931701009406" lon="15.033031596735492"><ele>1635.2</ele><time>2026-03-28T10:45:20.999Z</time></trkpt><trkpt lat="37.69933496606893" lon="15.033155152911293"><ele>1629.0</ele><time>2026-03-28T10:45:21.999Z</time></trkpt><trkpt lat="37.699372786517266" lon="15.03327499473548"><ele>1632.2</ele><time>2026-03-28T10:45:22.999Z</time></trkpt><trkpt lat="37.69941905601413" lon="15.033389378114297"><ele>1635.4</ele><time>2026-03-28T10:45:23.999Z</time></trkpt><trkpt lat="37.69947624733062" lon="15.033505393036387"><ele>1638.6</ele><time>2026-03-28T10:45:24.999Z</time></trkpt><trkpt lat="37.69954124117965" lon="15.033621588019562"><ele>1641.8</ele><time>2026-03-28T10:45:25.999Z</time></trkpt><trkpt lat="37.699611764473694" lon="15.033725189927258"><ele>1645.0</ele><time>2026-03-28T10:45:26.999Z</time></trkpt><trkpt lat="37.699685048961065" lon="15.03383476276093"><ele>1645.0</ele><time>2026-03-28T10:45:27.999Z</time></trkpt><trkpt lat="37.69975207564422" lon="15.033951747990264"><ele>1645.0</ele><time>2026-03-28T10:45:28.999Z</time></trkpt><trkpt lat="37.699804976412686" lon="15.034076593294708"><ele>1645.0</ele><time>2026-03-28T10:45:29.999Z</time></trkpt><trkpt lat="37.69983547529913" lon="15.034216629727043"><ele>1645.0</ele><time>2026-03-28T10:45:30.999Z</time></trkpt><trkpt lat="37.69984242867724" lon="15.034359576254962"><ele>1640.75</ele><time>2026-03-28T10:45:31.999Z</time></trkpt><trkpt lat="37.69982566754479" lon="15.034512695875119"><ele>1636.5</ele><time>2026-03-28T10:45:32.999Z</time></trkpt><trkpt lat="37.699787509032845" lon="15.034672345766122"><ele>1632.25</ele><time>2026-03-28T10:45:33.999Z</time></trkpt><trkpt lat="37.699732790047676" lon="15.034836488106976"><ele>1628.0</ele><time>2026-03-28T10:45:34.999Z</time></trkpt><trkpt lat="37.69967203395845" lon="15.03500473991696"><ele>1627.75</ele><time>2026-03-28T10:45:35.999Z</time></trkpt><trkpt lat="37.699613851946346" lon="15.035168108225793"><ele>1627.5</ele><time>2026-03-28T10:45:36.999Z</time></trkpt><trkpt lat="37.69955935655141" lon="15.035325359011154"><ele>1627.25</ele><time>2026-03-28T10:45:37.999Z</time></trkpt><trkpt lat="37.69950815932362" lon="15.035479251078973"><ele>1627.0</ele><time>2026-03-28T10:45:38.999Z</time></trkpt><trkpt lat="37.69945771773769" lon="15.03563448146941"><ele>1620.75</ele><time>2026-03-28T10:45:39.999Z</time></trkpt><trkpt lat="37.699408104885634" lon="15.035787212717002"><ele>1614.5</ele><time>2026-03-28T10:45:40.999Z</time></trkpt><trkpt lat="37.699358672711924" lon="15.035938356047161"><ele>1608.25</ele><time>2026-03-28T10:45:41.999Z</time></trkpt><trkpt lat="37.69930718713093" lon="15.036092902910712"><ele>1602.0</ele><time>2026-03-28T10:45:42.999Z</time></trkpt><trkpt lat="37.6992558610118" lon="15.036254058886911"><ele>1602.0</ele><time>2026-03-28T10:45:43.999Z</time></trkpt><trkpt lat="37.69920455537473" lon="15.0364211830067"><ele>1602.0</ele><time>2026-03-28T10:45:44.999Z</time></trkpt><trkpt lat="37.69915392567133" lon="15.03659148464374"><ele>1602.0</ele><time>2026-03-28T10:45:45.999Z</time></trkpt><trkpt lat="37.69910527395035" lon="15.036764093279826"><ele>1602.0</ele><time>2026-03-28T10:45:46.999Z</time></trkpt><trkpt lat="37.6990567924779" lon="15.036940440853051"><ele>1603.0</ele><time>2026-03-28T10:45:47.999Z</time></trkpt><trkpt lat="37.699006931916486" lon="15.037119648351608"><ele>1604.0</ele><time>2026-03-28T10:45:48.999Z</time></trkpt><trkpt lat="37.69895890202123" lon="15.037294866626894"><ele>1605.0</ele><time>2026-03-28T10:45:49.999Z</time></trkpt><trkpt lat="37.69891050170699" lon="15.037468135185314"><ele>1606.0</ele><time>2026-03-28T10:45:50.999Z</time></trkpt><trkpt lat="37.69886382763135" lon="15.03763491916526"><ele>1606.0</ele><time>2026-03-28T10:45:51.999Z</time></trkpt><trkpt lat="37.69881883125858" lon="15.037795405547861"><ele>1606.0</ele><time>2026-03-28T10:45:52.999Z</time></trkpt><trkpt lat="37.69878126855785" lon="15.037955727658224"><ele>1606.0</ele><time>2026-03-28T10:45:53.999Z</time></trkpt><trkpt lat="37.69875973931747" lon="15.038121341134426"><ele>1606.0</ele><time>2026-03-28T10:45:54.999Z</time></trkpt><trkpt lat="37.69874937972195" lon="15.03828517000073"><ele>1604.75</ele><time>2026-03-28T10:45:55.999Z</time></trkpt><trkpt lat="37.69874526640503" lon="15.03845012010126"><ele>1603.5</ele><time>2026-03-28T10:45:56.999Z</time></trkpt><trkpt lat="37.69874789910855" lon="15.038612374906357"><ele>1602.25</ele><time>2026-03-28T10:45:57.999Z</time></trkpt><trkpt lat="37.69876949620082" lon="15.038765197471756"><ele>1601.0</ele><time>2026-03-28T10:45:58.999Z</time></trkpt><trkpt lat="37.698812756393295" lon="15.038910450057434"><ele>1601.0</ele><time>2026-03-28T10:45:59.999Z</time></trkpt><trkpt lat="37.69887766852669" lon="15.03904222548745"><ele>1601.0</ele><time>2026-03-28T10:46:00.999Z</time></trkpt><trkpt lat="37.69895782901715" lon="15.039161594582605"><ele>1601.0</ele><time>2026-03-28T10:46:01.999Z</time></trkpt><trkpt lat="37.69904924953945" lon="15.039270501250499"><ele>1601.0</ele><time>2026-03-28T10:46:02.999Z</time></trkpt><trkpt lat="37.69915623488515" lon="15.039360964656677"><ele>1600.25</ele><time>2026-03-28T10:46:03.999Z</time></trkpt><trkpt lat="37.699270457800836" lon="15.039432533812526"><ele>1599.5</ele><time>2026-03-28T10:46:04.999Z</time></trkpt><trkpt lat="37.699380701161076" lon="15.03950910363341"><ele>1598.75</ele><time>2026-03-28T10:46:05.999Z</time></trkpt><trkpt lat="37.69947833460608" lon="15.039606275517018"><ele>1598.0</ele><time>2026-03-28T10:46:06.999Z</time></trkpt><trkpt lat="37.69956421493682" lon="15.039730456476901"><ele>1598.0</ele><time>2026-03-28T10:46:07.999Z</time></trkpt><trkpt lat="37.69965165342422" lon="15.03986697097223"><ele>1598.0</ele><time>2026-03-28T10:46:08.999Z</time></trkpt><trkpt lat="37.69974146360792" lon="15.040006512474877"><ele>1598.0</ele><time>2026-03-28T10:46:09.999Z</time></trkpt><trkpt lat="37.69982863685068" lon="15.040139208389133"><ele>1598.0</ele><time>2026-03-28T10:46:10.999Z</time></trkpt><trkpt lat="37.69991315870999" lon="15.040267420078266"><ele>1594.25</ele><time>2026-03-28T10:46:11.999Z</time></trkpt><trkpt lat="37.70000470598108" lon="15.040405226926433"><ele>1590.5</ele><time>2026-03-28T10:46:12.999Z</time></trkpt><trkpt lat="37.70009617123815" lon="15.040545966531438"><ele>1586.75</ele><time>2026-03-28T10:46:13.999Z</time></trkpt><trkpt lat="37.70018494170312" lon="15.040685045347743"><ele>1583.0</ele><time>2026-03-28T10:46:14.999Z</time></trkpt><trkpt lat="37.70027087225109" lon="15.040819263213246"><ele>1583.0</ele><time>2026-03-28T10:46:15.999Z</time></trkpt><trkpt lat="37.7003535171908" lon="15.040945907885249"><ele>1583.0</ele><time>2026-03-28T10:46:16.999Z</time></trkpt><trkpt lat="37.700437593227036" lon="15.041065130155575"><ele>1583.0</ele><time>2026-03-28T10:46:17.999Z</time></trkpt><trkpt lat="37.700529821926544" lon="15.04117152072039"><ele>1583.0</ele><time>2026-03-28T10:46:18.999Z</time></trkpt><trkpt lat="37.70062465219481" lon="15.041263280074407"><ele>1583.0</ele><time>2026-03-28T10:46:19.999Z</time></trkpt><trkpt lat="37.700744954923444" lon="15.041374148391343"><ele>1583.0</ele><time>2026-03-28T10:46:20.999Z</time></trkpt><trkpt lat="37.70085197664365" lon="15.041432543275354"><ele>1583.0</ele><time>2026-03-28T10:46:21.999Z</time></trkpt><trkpt lat="37.70093464235626" lon="15.041497979528433"><ele>1583.0</ele><time>2026-03-28T10:46:23Z</time></trkpt><trkpt lat="37.7009935622244" lon="15.041574360873305"><ele>1583.0</ele><time>2026-03-28T10:46:24Z</time></trkpt><trkpt lat="37.70102512627083" lon="15.041654603966544"><ele>1578.8333333333333</ele><time>2026-03-28T10:46:25Z</time></trkpt><trkpt lat="37.70102618744878" lon="15.041755567327245"><ele>1574.6666666666665</ele><time>2026-03-28T10:46:26Z</time></trkpt><trkpt lat="37.70100174960803" lon="15.041858510529517"><ele>1570.5</ele><time>2026-03-28T10:46:27Z</time></trkpt><trkpt lat="37.70095757336401" lon="15.041954135483621"><ele>1566.3333333333335</ele><time>2026-03-28T10:46:28Z</time></trkpt><trkpt lat="37.70090054722241" lon="15.042049439545195"><ele>1562.1666666666667</ele><time>2026-03-28T10:46:29Z</time></trkpt><trkpt lat="37.70080589707742" lon="15.042085620419591"><ele>1558.0</ele><time>2026-03-28T10:46:30Z</time></trkpt><trkpt lat="37.70072001653005" lon="15.042087831998389"><ele>1558.0</ele><time>2026-03-28T10:46:31Z</time></trkpt><trkpt lat="37.700647182894016" lon="15.042027020317972"><ele>1558.0</ele><time>2026-03-28T10:46:32Z</time></trkpt><trkpt lat="37.70057712847204" lon="15.041948692067487"><ele>1558.0</ele><time>2026-03-28T10:46:33Z</time></trkpt><trkpt lat="37.70051849521097" lon="15.041831730620148"><ele>1558.0</ele><time>2026-03-28T10:46:34Z</time></trkpt><trkpt lat="37.70045824984104" lon="15.04169559066996"><ele>1558.0</ele><time>2026-03-28T10:46:35Z</time></trkpt><trkpt lat="37.70037743541675" lon="15.04155921843209"><ele>1559.0</ele><time>2026-03-28T10:46:36Z</time></trkpt><trkpt lat="37.70030727326215" lon="15.041424348316347"><ele>1560.0</ele><time>2026-03-28T10:46:37Z</time></trkpt><trkpt lat="37.700221976335676" lon="15.041316435840635"><ele>1561.0</ele><time>2026-03-28T10:46:38Z</time></trkpt><trkpt lat="37.70013756857253" lon="15.041229313764234"><ele>1562.0</ele><time>2026-03-28T10:46:39Z</time></trkpt><trkpt lat="37.70003885820546" lon="15.041161945387428"><ele>1562.0</ele><time>2026-03-28T10:46:40Z</time></trkpt><trkpt lat="37.69992802419741" lon="15.041111817651842"><ele>1562.0</ele><time>2026-03-28T10:46:41Z</time></trkpt><trkpt lat="37.69980648623019" lon="15.041089532821589"><ele>1562.0</ele><time>2026-03-28T10:46:42Z</time></trkpt><trkpt lat="37.69968172945561" lon="15.04104852955834"><ele>1562.0</ele><time>2026-03-28T10:46:43Z</time></trkpt><trkpt lat="37.69957000727622" lon="15.041005719274862"><ele>1562.0</ele><time>2026-03-28T10:46:44Z</time></trkpt><trkpt lat="37.69946473956964" lon="15.040943198388213"><ele>1562.0</ele><time>2026-03-28T10:46:45Z</time></trkpt><trkpt lat="37.69936289624018" lon="15.04086027634376"><ele>1562.0</ele><time>2026-03-28T10:46:46Z</time></trkpt><trkpt lat="37.69924649973363" lon="15.040794569709663"><ele>1562.0</ele><time>2026-03-28T10:46:47Z</time></trkpt><trkpt lat="37.69915101754732" lon="15.040720277199068"><ele>1562.1999999999998</ele><time>2026-03-28T10:46:48Z</time></trkpt><trkpt lat="37.699060959609405" lon="15.040644421225265"><ele>1562.4</ele><time>2026-03-28T10:46:49Z</time></trkpt><trkpt lat="37.69897595159814" lon="15.040571530227908"><ele>1562.6</ele><time>2026-03-28T10:46:50Z</time></trkpt><trkpt lat="37.69889604167905" lon="15.040503425447705"><ele>1562.8000000000002</ele><time>2026-03-28T10:46:51Z</time></trkpt><trkpt lat="37.6988196970528" lon="15.04043158475857"><ele>1563.0</ele><time>2026-03-28T10:46:52Z</time></trkpt><trkpt lat="37.698760873248034" lon="15.040375131200161"><ele>1563.0</ele><time>2026-03-28T10:46:53Z</time></trkpt><trkpt lat="37.69867647929933" lon="15.04028860662951"><ele>1563.0</ele><time>2026-03-28T10:46:55Z</time></trkpt><trkpt lat="37.69859981784038" lon="15.04020946070874"><ele>1563.0</ele><time>2026-03-28T10:46:57Z</time></trkpt><trkpt lat="37.69852675425588" lon="15.04012343430555"><ele>1563.0</ele><time>2026-03-28T10:46:59Z</time></trkpt><trkpt lat="37.6984589154141" lon="15.040046427239696"><ele>1563.0</ele><time>2026-03-28T10:47:01Z</time></trkpt><trkpt lat="37.69840106345516" lon="15.039978626511118"><ele>1561.0</ele><time>2026-03-28T10:47:03Z</time></trkpt><trkpt lat="37.69834771535341" lon="15.039917712055075"><ele>1559.0</ele><time>2026-03-28T10:47:05Z</time></trkpt><trkpt lat="37.69830201619221" lon="15.039856382632662"><ele>1557.0</ele><time>2026-03-28T10:47:07Z</time></trkpt><trkpt lat="37.69825421324892" lon="15.039792387650529"><ele>1555.0</ele><time>2026-03-28T10:47:09Z</time></trkpt><trkpt lat="37.69818987853018" lon="15.039711103965903"><ele>1553.0</ele><time>2026-03-28T10:47:12Z</time></trkpt><trkpt lat="37.69813291993088" lon="15.039636070116048"><ele>1551.0</ele><time>2026-03-28T10:47:13.999Z</time></trkpt><trkpt lat="37.69807668246239" lon="15.039563586116877"><ele>1551.0</ele><time>2026-03-28T10:47:15.999Z</time></trkpt><trkpt lat="37.698022642259694" lon="15.039495174760644"><ele>1551.0</ele><time>2026-03-28T10:47:17.999Z</time></trkpt><trkpt lat="37.69798062336353" lon="15.039407176978468"><ele>1551.0</ele><time>2026-03-28T10:47:19.999Z</time></trkpt><trkpt lat="37.69791486090363" lon="15.03931367234043"><ele>1551.0</ele><time>2026-03-28T10:47:21.999Z</time></trkpt><trkpt lat="37.6978729140571" lon="15.039251333052773"><ele>1551.0</ele><time>2026-03-28T10:47:22.999Z</time></trkpt><trkpt lat="37.69782609659168" lon="15.039177720249821"><ele>1551.0</ele><time>2026-03-28T10:47:23.999Z</time></trkpt><trkpt lat="37.697780195615785" lon="15.039105165504985"><ele>1547.857142857143</ele><time>2026-03-28T10:47:24.999Z</time></trkpt><trkpt lat="37.69773098367532" lon="15.039039435316312"><ele>1544.7142857142858</ele><time>2026-03-28T10:47:25.999Z</time></trkpt><trkpt lat="37.69767729249783" lon="15.038977409116034"><ele>1541.5714285714284</ele><time>2026-03-28T10:47:26.999Z</time></trkpt><trkpt lat="37.69762272333534" lon="15.03892298998515"><ele>1538.4285714285716</ele><time>2026-03-28T10:47:27.999Z</time></trkpt><trkpt lat="37.69755703259407" lon="15.03887594611439"><ele>1535.2857142857142</ele><time>2026-03-28T10:47:28.999Z</time></trkpt><trkpt lat="37.69748936910777" lon="15.038840722273092"><ele>1532.142857142857</ele><time>2026-03-28T10:47:29.999Z</time></trkpt><trkpt lat="37.697410917684216" lon="15.038833437926337"><ele>1529.0</ele><time>2026-03-28T10:47:30.999Z</time></trkpt><trkpt lat="37.69733538898446" lon="15.038818111153498"><ele>1529.0</ele><time>2026-03-28T10:47:31.999Z</time></trkpt><trkpt lat="37.69725430436764" lon="15.038809538813203"><ele>1529.0</ele><time>2026-03-28T10:47:32.999Z</time></trkpt><trkpt lat="37.697168378982354" lon="15.03881617001956"><ele>1529.0</ele><time>2026-03-28T10:47:33.999Z</time></trkpt><trkpt lat="37.697084811082505" lon="15.038833600614067"><ele>1529.0</ele><time>2026-03-28T10:47:34.999Z</time></trkpt><trkpt lat="37.697007197742494" lon="15.038859685184613"><ele>1529.0</ele><time>2026-03-28T10:47:35.999Z</time></trkpt><trkpt lat="37.696917110865776" lon="15.038894283980039"><ele>1529.0</ele><time>2026-03-28T10:47:36.999Z</time></trkpt><trkpt lat="37.696829394661265" lon="15.038932474996546"><ele>1526.6</ele><time>2026-03-28T10:47:37.999Z</time></trkpt><trkpt lat="37.69674096501784" lon="15.038974672441457"><ele>1524.2</ele><time>2026-03-28T10:47:38.999Z</time></trkpt><trkpt lat="37.696653517950075" lon="15.039026305910097"><ele>1521.8</ele><time>2026-03-28T10:47:39.999Z</time></trkpt><trkpt lat="37.696568271310575" lon="15.039081784958878"><ele>1519.3999999999999</ele><time>2026-03-28T10:47:40.999Z</time></trkpt><trkpt lat="37.69648902901891" lon="15.039143261701776"><ele>1517.0</ele><time>2026-03-28T10:47:41.999Z</time></trkpt><trkpt lat="37.69641592766945" lon="15.039209419783289"><ele>1513.8</ele><time>2026-03-28T10:47:42.999Z</time></trkpt><trkpt lat="37.69635174959977" lon="15.039277661592074"><ele>1510.6</ele><time>2026-03-28T10:47:43.999Z</time></trkpt><trkpt lat="37.696283063299" lon="15.039352971144375"><ele>1507.3999999999999</ele><time>2026-03-28T10:47:44.999Z</time></trkpt><trkpt lat="37.696224570909436" lon="15.039432248488703"><ele>1504.1999999999998</ele><time>2026-03-28T10:47:45.999Z</time></trkpt><trkpt lat="37.696167348546176" lon="15.039526469765152"><ele>1501.0</ele><time>2026-03-28T10:47:46.999Z</time></trkpt><trkpt lat="37.6961090072727" lon="15.039630220442262"><ele>1502.1999999999998</ele><time>2026-03-28T10:47:47.999Z</time></trkpt><trkpt lat="37.696055792014434" lon="15.039742757600317"><ele>1503.3999999999999</ele><time>2026-03-28T10:47:48.999Z</time></trkpt><trkpt lat="37.69600615922059" lon="15.039865515005229"><ele>1504.6</ele><time>2026-03-28T10:47:49.999Z</time></trkpt><trkpt lat="37.69596569192163" lon="15.040000115877705"><ele>1505.8</ele><time>2026-03-28T10:47:50.999Z</time></trkpt><trkpt lat="37.69593542197317" lon="15.040147998063144"><ele>1507.0</ele><time>2026-03-28T10:47:51.999Z</time></trkpt><trkpt lat="37.69591450182533" lon="15.040297778293773"><ele>1504.1999999999998</ele><time>2026-03-28T10:47:52.999Z</time></trkpt><trkpt lat="37.69590766766312" lon="15.040448849402212"><ele>1501.4</ele><time>2026-03-28T10:47:53.999Z</time></trkpt><trkpt lat="37.69591438181321" lon="15.040587834244155"><ele>1498.6</ele><time>2026-03-28T10:47:54.999Z</time></trkpt><trkpt lat="37.695925065278686" lon="15.040724595170639"><ele>1495.8000000000002</ele><time>2026-03-28T10:47:55.999Z</time></trkpt><trkpt lat="37.695943015886826" lon="15.04085845953192"><ele>1493.0</ele><time>2026-03-28T10:47:56.999Z</time></trkpt><trkpt lat="37.695969506003024" lon="15.040989112987104"><ele>1491.5</ele><time>2026-03-28T10:47:57.999Z</time></trkpt><trkpt lat="37.696007313876386" lon="15.041119673310337"><ele>1490.0</ele><time>2026-03-28T10:47:58.999Z</time></trkpt><trkpt lat="37.6960475032139" lon="15.041254662104668"><ele>1488.5</ele><time>2026-03-28T10:47:59.999Z</time></trkpt><trkpt lat="37.696087734308826" lon="15.041384113127481"><ele>1487.0</ele><time>2026-03-28T10:48:00.999Z</time></trkpt><trkpt lat="37.69612894901175" lon="15.041524020904683"><ele>1486.1999999999998</ele><time>2026-03-28T10:48:01.999Z</time></trkpt><trkpt lat="37.696168727251944" lon="15.041653862008792"><ele>1485.4</ele><time>2026-03-28T10:48:02.999Z</time></trkpt><trkpt lat="37.69620619973204" lon="15.041782573494968"><ele>1484.6</ele><time>2026-03-28T10:48:03.999Z</time></trkpt><trkpt lat="37.69624286878124" lon="15.041909486305727"><ele>1483.8000000000002</ele><time>2026-03-28T10:48:04.999Z</time></trkpt><trkpt lat="37.69628492952265" lon="15.042047045619913"><ele>1483.0</ele><time>2026-03-28T10:48:05.999Z</time></trkpt><trkpt lat="37.69632772580062" lon="15.042188631509198"><ele>1483.0</ele><time>2026-03-28T10:48:06.999Z</time></trkpt><trkpt lat="37.696367726183425" lon="15.042334880121668"><ele>1483.0</ele><time>2026-03-28T10:48:07.999Z</time></trkpt><trkpt lat="37.69640127773547" lon="15.042480810681283"><ele>1483.0</ele><time>2026-03-28T10:48:08.999Z</time></trkpt><trkpt lat="37.69642574976663" lon="15.042621721948526"><ele>1483.0</ele><time>2026-03-28T10:48:09.999Z</time></trkpt><trkpt lat="37.6964413601586" lon="15.042764744946874"><ele>1482.0</ele><time>2026-03-28T10:48:10.999Z</time></trkpt><trkpt lat="37.696449933972346" lon="15.042908948270021"><ele>1481.0</ele><time>2026-03-28T10:48:11.999Z</time></trkpt><trkpt lat="37.69645432736359" lon="15.04304435395033"><ele>1480.0</ele><time>2026-03-28T10:48:12.999Z</time></trkpt><trkpt lat="37.69645624018895" lon="15.043174904994727"><ele>1479.0</ele><time>2026-03-28T10:48:13.999Z</time></trkpt><trkpt lat="37.69645792205663" lon="15.043302312192258"><ele>1478.0</ele><time>2026-03-28T10:48:14.999Z</time></trkpt><trkpt lat="37.69646349728791" lon="15.043427271256968"><ele>1476.6000000000001</ele><time>2026-03-28T10:48:15.999Z</time></trkpt><trkpt lat="37.69646948991027" lon="15.043553447319141"><ele>1475.2</ele><time>2026-03-28T10:48:16.999Z</time></trkpt><trkpt lat="37.69647417272479" lon="15.043678716813425"><ele>1473.8</ele><time>2026-03-28T10:48:17.999Z</time></trkpt><trkpt lat="37.69647979361277" lon="15.043796066020015"><ele>1472.4</ele><time>2026-03-28T10:48:18.999Z</time></trkpt><trkpt lat="37.69648376048673" lon="15.043914659224459"><ele>1471.0</ele><time>2026-03-28T10:48:19.999Z</time></trkpt><trkpt lat="37.69648087698679" lon="15.044036594321845"><ele>1470.1999999999998</ele><time>2026-03-28T10:48:20.999Z</time></trkpt><trkpt lat="37.69648248887141" lon="15.044170775037205"><ele>1469.3999999999999</ele><time>2026-03-28T10:48:21.999Z</time></trkpt><trkpt lat="37.696488099346354" lon="15.044316772288111"><ele>1468.6</ele><time>2026-03-28T10:48:22.999Z</time></trkpt><trkpt lat="37.696483052055726" lon="15.044443225713655"><ele>1467.8</ele><time>2026-03-28T10:48:23.999Z</time></trkpt><trkpt lat="37.69647826456925" lon="15.044567371405302"><ele>1467.0</ele><time>2026-03-28T10:48:24.999Z</time></trkpt><trkpt lat="37.69649371900193" lon="15.04469651290992"><ele>1467.0</ele><time>2026-03-28T10:48:25.999Z</time></trkpt><trkpt lat="37.696497012928646" lon="15.044828031345162"><ele>1467.0</ele><time>2026-03-28T10:48:26.999Z</time></trkpt><trkpt lat="37.69650554694275" lon="15.044944812466426"><ele>1467.0</ele><time>2026-03-28T10:48:28Z</time></trkpt><trkpt lat="37.69652575624147" lon="15.04506577828795"><ele>1467.0</ele><time>2026-03-28T10:48:29Z</time></trkpt><trkpt lat="37.69656167908663" lon="15.045186936325086"><ele>1467.0</ele><time>2026-03-28T10:48:30Z</time></trkpt><trkpt lat="37.69662916802377" lon="15.04529902397421"><ele>1467.1999999999998</ele><time>2026-03-28T10:48:31Z</time></trkpt><trkpt lat="37.696700507595374" lon="15.045380712905581"><ele>1467.4</ele><time>2026-03-28T10:48:32Z</time></trkpt><trkpt lat="37.6968033689882" lon="15.045466847979844"><ele>1467.6</ele><time>2026-03-28T10:48:33Z</time></trkpt><trkpt lat="37.6969053118616" lon="15.045533088040681"><ele>1467.8000000000002</ele><time>2026-03-28T10:48:34Z</time></trkpt><trkpt lat="37.6970097678941" lon="15.04552675217935"><ele>1468.0</ele><time>2026-03-28T10:48:35Z</time></trkpt><trkpt lat="37.697118117399846" lon="15.045494552081816"><ele>1468.0</ele><time>2026-03-28T10:48:36Z</time></trkpt><trkpt lat="37.697216102709255" lon="15.04544422762723"><ele>1468.0</ele><time>2026-03-28T10:48:37Z</time></trkpt><trkpt lat="37.69730309692796" lon="15.045404665222769"><ele>1468.0</ele><time>2026-03-28T10:48:38Z</time></trkpt><trkpt lat="37.697383479103294" lon="15.045388446048507"><ele>1468.0</ele><time>2026-03-28T10:48:39Z</time></trkpt><trkpt lat="37.69745980179324" lon="15.045405471485758"><ele>1468.0</ele><time>2026-03-28T10:48:40Z</time></trkpt><trkpt lat="37.69753538178888" lon="15.045458491423092"><ele>1468.0</ele><time>2026-03-28T10:48:41Z</time></trkpt><trkpt lat="37.69759247342388" lon="15.045538394835829"><ele>1468.0</ele><time>2026-03-28T10:48:42Z</time></trkpt><trkpt lat="37.69762876937819" lon="15.045650824562363"><ele>1468.0</ele><time>2026-03-28T10:48:43Z</time></trkpt><trkpt lat="37.6976312971049" lon="15.045772250085912"><ele>1468.0</ele><time>2026-03-28T10:48:44Z</time></trkpt><trkpt lat="37.69759646069733" lon="15.045895056064202"><ele>1468.0</ele><time>2026-03-28T10:48:45Z</time></trkpt><trkpt lat="37.697526981662236" lon="15.045977848673592"><ele>1468.0</ele><time>2026-03-28T10:48:46Z</time></trkpt><trkpt lat="37.6974302563355" lon="15.046040609662436"><ele>1463.5</ele><time>2026-03-28T10:48:47Z</time></trkpt><trkpt lat="37.697319304100205" lon="15.046109095143379"><ele>1459.0</ele><time>2026-03-28T10:48:48Z</time></trkpt><trkpt lat="37.69720985117547" lon="15.046188296060194"><ele>1454.5</ele><time>2026-03-28T10:48:49Z</time></trkpt><trkpt lat="37.69711023151795" lon="15.04625778968183"><ele>1450.0</ele><time>2026-03-28T10:48:50Z</time></trkpt><trkpt lat="37.697012768074664" lon="15.04630619001942"><ele>1449.6</ele><time>2026-03-28T10:48:51Z</time></trkpt><trkpt lat="37.69690790535818" lon="15.046353324798352"><ele>1449.2</ele><time>2026-03-28T10:48:52Z</time></trkpt><trkpt lat="37.696797269597965" lon="15.046400719660946"><ele>1448.8000000000002</ele><time>2026-03-28T10:48:53Z</time></trkpt><trkpt lat="37.69668899726728" lon="15.046448304183864"><ele>1448.4</ele><time>2026-03-28T10:48:54Z</time></trkpt><trkpt lat="37.69659647951045" lon="15.046494420814849"><ele>1448.0</ele><time>2026-03-28T10:48:55Z</time></trkpt><trkpt lat="37.69651446275202" lon="15.04656030909736"><ele>1445.6000000000001</ele><time>2026-03-28T10:48:56Z</time></trkpt><trkpt lat="37.69646019182702" lon="15.04666364980859"><ele>1443.2</ele><time>2026-03-28T10:48:57Z</time></trkpt><trkpt lat="37.69644125255672" lon="15.046795959414323"><ele>1440.8</ele><time>2026-03-28T10:48:58Z</time></trkpt><trkpt lat="37.69645502309921" lon="15.046932910536094"><ele>1438.4</ele><time>2026-03-28T10:48:59Z</time></trkpt><trkpt lat="37.69651034603567" lon="15.047052727693288"><ele>1436.0</ele><time>2026-03-28T10:49:00Z</time></trkpt><trkpt lat="37.69657779996829" lon="15.047147355154138"><ele>1436.0</ele><time>2026-03-28T10:49:01Z</time></trkpt><trkpt lat="37.69663947880427" lon="15.04717514608503"><ele>1436.0</ele><time>2026-03-28T10:49:02Z</time></trkpt><trkpt lat="37.69672797070566" lon="15.047162305017212"><ele>1436.0</ele><time>2026-03-28T10:49:03Z</time></trkpt><trkpt lat="37.696825050371494" lon="15.04712604648517"><ele>1436.0</ele><time>2026-03-28T10:49:04Z</time></trkpt><trkpt lat="37.69691852757542" lon="15.047080996154193"><ele>1436.0</ele><time>2026-03-28T10:49:05Z</time></trkpt><trkpt lat="37.69701205333033" lon="15.047035722045742"><ele>1436.4</ele><time>2026-03-28T10:49:06Z</time></trkpt><trkpt lat="37.69710712966021" lon="15.047005334702263"><ele>1436.8</ele><time>2026-03-28T10:49:07Z</time></trkpt><trkpt lat="37.69719429476953" lon="15.04700163050153"><ele>1437.2</ele><time>2026-03-28T10:49:08Z</time></trkpt><trkpt lat="37.69727913407331" lon="15.047032058942026"><ele>1437.6000000000001</ele><time>2026-03-28T10:49:09Z</time></trkpt><trkpt lat="37.69735270735296" lon="15.04711361650029"><ele>1438.0</ele><time>2026-03-28T10:49:10Z</time></trkpt><trkpt lat="37.69745093615425" lon="15.047169819276638"><ele>1438.0</ele><time>2026-03-28T10:49:11Z</time></trkpt><trkpt lat="37.69754222913427" lon="15.047272781452135"><ele>1438.0</ele><time>2026-03-28T10:49:12Z</time></trkpt><trkpt lat="37.69764016196841" lon="15.047412546443898"><ele>1438.0</ele><time>2026-03-28T10:49:13Z</time></trkpt><trkpt lat="37.697738657499144" lon="15.047534173115391"><ele>1438.0</ele><time>2026-03-28T10:49:14Z</time></trkpt><trkpt lat="37.69782781351984" lon="15.047642718267161"><ele>1436.75</ele><time>2026-03-28T10:49:15Z</time></trkpt><trkpt lat="37.69791534032979" lon="15.047751469694818"><ele>1435.5</ele><time>2026-03-28T10:49:16Z</time></trkpt><trkpt lat="37.69799861281156" lon="15.047856944177784"><ele>1434.25</ele><time>2026-03-28T10:49:17Z</time></trkpt><trkpt lat="37.698082878060994" lon="15.047953906410255"><ele>1433.0</ele><time>2026-03-28T10:49:18Z</time></trkpt><trkpt lat="37.698167265723406" lon="15.048050975378851"><ele>1433.0</ele><time>2026-03-28T10:49:19Z</time></trkpt><trkpt lat="37.69823993394838" lon="15.048144670186957"><ele>1433.0</ele><time>2026-03-28T10:49:20Z</time></trkpt><trkpt lat="37.69829724129131" lon="15.04826168154009"><ele>1433.0</ele><time>2026-03-28T10:49:21Z</time></trkpt><trkpt lat="37.69833974575689" lon="15.04838874888559"><ele>1433.0</ele><time>2026-03-28T10:49:22Z</time></trkpt><trkpt lat="37.69836062709822" lon="15.048532307742231"><ele>1433.0</ele><time>2026-03-28T10:49:23Z</time></trkpt><trkpt lat="37.69833670483677" lon="15.04868401394398"><ele>1430.25</ele><time>2026-03-28T10:49:23.999Z</time></trkpt><trkpt lat="37.69831613290069" lon="15.04883555683186"><ele>1427.5</ele><time>2026-03-28T10:49:24.999Z</time></trkpt><trkpt lat="37.69830197327451" lon="15.048990943880199"><ele>1424.75</ele><time>2026-03-28T10:49:25.999Z</time></trkpt><trkpt lat="37.69827712839296" lon="15.049137111558942"><ele>1422.0</ele><time>2026-03-28T10:49:26.999Z</time></trkpt><trkpt lat="37.698252499481924" lon="15.049280940905064"><ele>1419.8</ele><time>2026-03-28T10:49:27.999Z</time></trkpt><trkpt lat="37.698230020621544" lon="15.049420058959244"><ele>1417.6</ele><time>2026-03-28T10:49:28.999Z</time></trkpt><trkpt lat="37.69820745827593" lon="15.04955426398129"><ele>1415.3999999999999</ele><time>2026-03-28T10:49:29.999Z</time></trkpt><trkpt lat="37.69819088041677" lon="15.049662535393168"><ele>1413.1999999999998</ele><time>2026-03-28T10:49:30.999Z</time></trkpt><trkpt lat="37.69818083542104" lon="15.04974730053138"><ele>1411.0</ele><time>2026-03-28T10:49:31.999Z</time></trkpt><trkpt lat="37.6981625635916" lon="15.049870446341119"><ele>1410.6666666666665</ele><time>2026-03-28T10:49:33.999Z</time></trkpt><trkpt lat="37.69817953876422" lon="15.050019371095624"><ele>1410.3333333333333</ele><time>2026-03-28T10:49:35.999Z</time></trkpt><trkpt lat="37.69824409034763" lon="15.050152205626153"><ele>1410.0</ele><time>2026-03-28T10:49:37.999Z</time></trkpt><trkpt lat="37.69829823181331" lon="15.050197808410319"><ele>1409.6666666666667</ele><time>2026-03-28T10:49:38.999Z</time></trkpt><trkpt lat="37.69836060429054" lon="15.050232573517004"><ele>1409.3333333333335</ele><time>2026-03-28T10:49:39.999Z</time></trkpt><trkpt lat="37.69843172295785" lon="15.050250367621361"><ele>1409.0</ele><time>2026-03-28T10:49:40.999Z</time></trkpt><trkpt lat="37.69850211374016" lon="15.05023434868634"><ele>1409.0</ele><time>2026-03-28T10:49:41.999Z</time></trkpt><trkpt lat="37.69857343460845" lon="15.050205282628792"><ele>1409.0</ele><time>2026-03-28T10:49:42.999Z</time></trkpt><trkpt lat="37.69864153757633" lon="15.050144612707403"><ele>1409.0</ele><time>2026-03-28T10:49:43.999Z</time></trkpt><trkpt lat="37.69869967553287" lon="15.050083669903959"><ele>1409.0</ele><time>2026-03-28T10:49:44.999Z</time></trkpt><trkpt lat="37.69874262705525" lon="15.050000470148557"><ele>1409.0</ele><time>2026-03-28T10:49:45.999Z</time></trkpt><trkpt lat="37.69878255962815" lon="15.04990667391915"><ele>1409.0</ele><time>2026-03-28T10:49:46.999Z</time></trkpt><trkpt lat="37.698813881347625" lon="15.04983056720236"><ele>1407.75</ele><time>2026-03-28T10:49:47.999Z</time></trkpt><trkpt lat="37.698875248682924" lon="15.049678213501162"><ele>1406.5</ele><time>2026-03-28T10:49:49.999Z</time></trkpt><trkpt lat="37.69893136038344" lon="15.049538408110289"><ele>1405.25</ele><time>2026-03-28T10:49:51.999Z</time></trkpt><trkpt lat="37.698980448184784" lon="15.049401206379667"><ele>1404.0</ele><time>2026-03-28T10:49:53.999Z</time></trkpt><trkpt lat="37.69902780206692" lon="15.049324792747944"><ele>1404.0</ele><time>2026-03-28T10:49:54.999Z</time></trkpt><trkpt lat="37.69907674271592" lon="15.049266585120613"><ele>1404.0</ele><time>2026-03-28T10:49:55.999Z</time></trkpt><trkpt lat="37.6991397737302" lon="15.04921713991347"><ele>1404.0</ele><time>2026-03-28T10:49:56.999Z</time></trkpt><trkpt lat="37.699217447078624" lon="15.049194693161574"><ele>1404.0</ele><time>2026-03-28T10:49:57.999Z</time></trkpt><trkpt lat="37.69929683815334" lon="15.049208845583317"><ele>1404.0</ele><time>2026-03-28T10:49:58.999Z</time></trkpt><trkpt lat="37.69937155025465" lon="15.049243257900052"><ele>1404.0</ele><time>2026-03-28T10:49:59.999Z</time></trkpt><trkpt lat="37.69942475038016" lon="15.049318657527204"><ele>1404.0</ele><time>2026-03-28T10:50:00.999Z</time></trkpt><trkpt lat="37.69946430214478" lon="15.049422251599292"><ele>1404.0</ele><time>2026-03-28T10:50:01.999Z</time></trkpt><trkpt lat="37.6994773902201" lon="15.0495541034886"><ele>1404.0</ele><time>2026-03-28T10:50:02.999Z</time></trkpt><trkpt lat="37.69944955541067" lon="15.049683454415499"><ele>1404.0</ele><time>2026-03-28T10:50:03.999Z</time></trkpt><trkpt lat="37.699394058983295" lon="15.049806574388287"><ele>1404.0</ele><time>2026-03-28T10:50:04.999Z</time></trkpt><trkpt lat="37.69932836274959" lon="15.049924822279495"><ele>1402.8000000000002</ele><time>2026-03-28T10:50:05.999Z</time></trkpt><trkpt lat="37.699270938885164" lon="15.050045293733517"><ele>1401.6000000000001</ele><time>2026-03-28T10:50:06.999Z</time></trkpt><trkpt lat="37.699226598060996" lon="15.050165239264782"><ele>1400.4</ele><time>2026-03-28T10:50:07.999Z</time></trkpt><trkpt lat="37.69918311890064" lon="15.05028773603775"><ele>1399.2</ele><time>2026-03-28T10:50:08.999Z</time></trkpt><trkpt lat="37.69913823100165" lon="15.050408042326413"><ele>1398.0</ele><time>2026-03-28T10:50:09.999Z</time></trkpt><trkpt lat="37.699094564641314" lon="15.050524648765231"><ele>1398.0</ele><time>2026-03-28T10:50:10.999Z</time></trkpt><trkpt lat="37.699049443416925" lon="15.050640530183204"><ele>1398.0</ele><time>2026-03-28T10:50:11.999Z</time></trkpt><trkpt lat="37.699005621872395" lon="15.050754562263783"><ele>1398.0</ele><time>2026-03-28T10:50:12.999Z</time></trkpt><trkpt lat="37.698968525818145" lon="15.050875966705526"><ele>1398.0</ele><time>2026-03-28T10:50:13.999Z</time></trkpt><trkpt lat="37.69894507587388" lon="15.051006382098889"><ele>1398.0</ele><time>2026-03-28T10:50:14.999Z</time></trkpt><trkpt lat="37.69893826931574" lon="15.051142922712947"><ele>1396.2</ele><time>2026-03-28T10:50:15.999Z</time></trkpt><trkpt lat="37.69894053095316" lon="15.051273381650997"><ele>1394.4</ele><time>2026-03-28T10:50:16.999Z</time></trkpt><trkpt lat="37.698940666707756" lon="15.051404177976986"><ele>1392.6000000000001</ele><time>2026-03-28T10:50:17.999Z</time></trkpt><trkpt lat="37.698940483551766" lon="15.051543511118982"><ele>1390.8000000000002</ele><time>2026-03-28T10:50:18.999Z</time></trkpt><trkpt lat="37.698938810099506" lon="15.051686778300521"><ele>1389.0</ele><time>2026-03-28T10:50:19.999Z</time></trkpt><trkpt lat="37.698936737051945" lon="15.051833863714942"><ele>1387.75</ele><time>2026-03-28T10:50:20.999Z</time></trkpt><trkpt lat="37.698934871119384" lon="15.051981331656597"><ele>1386.5</ele><time>2026-03-28T10:50:21.999Z</time></trkpt><trkpt lat="37.6989324923612" lon="15.052133119307253"><ele>1385.25</ele><time>2026-03-28T10:50:22.999Z</time></trkpt><trkpt lat="37.69893097987975" lon="15.052281035909981"><ele>1384.0</ele><time>2026-03-28T10:50:23.999Z</time></trkpt><trkpt lat="37.69892894486885" lon="15.05243750453951"><ele>1383.0</ele><time>2026-03-28T10:50:24.999Z</time></trkpt><trkpt lat="37.698927324703114" lon="15.052601224105942"><ele>1382.0</ele><time>2026-03-28T10:50:25.999Z</time></trkpt><trkpt lat="37.69892843481565" lon="15.05276350418757"><ele>1381.0</ele><time>2026-03-28T10:50:26.999Z</time></trkpt><trkpt lat="37.69892894002089" lon="15.05292168023082"><ele>1380.0</ele><time>2026-03-28T10:50:27.999Z</time></trkpt><trkpt lat="37.69892655435123" lon="15.053083130131935"><ele>1380.0</ele><time>2026-03-28T10:50:28.999Z</time></trkpt><trkpt lat="37.69892378820819" lon="15.053241507407904"><ele>1380.0</ele><time>2026-03-28T10:50:29.999Z</time></trkpt><trkpt lat="37.69892360235374" lon="15.053395223176237"><ele>1380.0</ele><time>2026-03-28T10:50:30.999Z</time></trkpt><trkpt lat="37.69892179778518" lon="15.05355342608816"><ele>1380.0</ele><time>2026-03-28T10:50:31.999Z</time></trkpt><trkpt lat="37.69891862692099" lon="15.0537083315155"><ele>1379.5</ele><time>2026-03-28T10:50:32.999Z</time></trkpt><trkpt lat="37.69891565134155" lon="15.053859460220067"><ele>1379.0</ele><time>2026-03-28T10:50:34Z</time></trkpt><trkpt lat="37.698908872470454" lon="15.054006509221606"><ele>1378.5</ele><time>2026-03-28T10:50:35Z</time></trkpt><trkpt lat="37.69888538608845" lon="15.054150307142224"><ele>1378.0</ele><time>2026-03-28T10:50:36Z</time></trkpt><trkpt lat="37.69884326960441" lon="15.05429131455363"><ele>1378.0</ele><time>2026-03-28T10:50:37Z</time></trkpt><trkpt lat="37.69879492799324" lon="15.054425286208778"><ele>1378.0</ele><time>2026-03-28T10:50:38Z</time></trkpt><trkpt lat="37.69874037299019" lon="15.054556031230376"><ele>1378.0</ele><time>2026-03-28T10:50:39Z</time></trkpt><trkpt lat="37.698681642210694" lon="15.054696870613657"><ele>1378.0</ele><time>2026-03-28T10:50:40Z</time></trkpt><trkpt lat="37.69862389475907" lon="15.054834188926115"><ele>1375.0</ele><time>2026-03-28T10:50:41Z</time></trkpt><trkpt lat="37.69856613518868" lon="15.054976278156586"><ele>1372.0</ele><time>2026-03-28T10:50:42Z</time></trkpt><trkpt lat="37.69850969102637" lon="15.055110707878143"><ele>1369.0</ele><time>2026-03-28T10:50:43Z</time></trkpt><trkpt lat="37.69845375554788" lon="15.05524526716628"><ele>1366.0</ele><time>2026-03-28T10:50:44Z</time></trkpt><trkpt lat="37.6983985074858" lon="15.055389174866324"><ele>1366.0</ele><time>2026-03-28T10:50:45Z</time></trkpt><trkpt lat="37.69835054934688" lon="15.05552354928399"><ele>1366.0</ele><time>2026-03-28T10:50:46Z</time></trkpt><trkpt lat="37.69831094996942" lon="15.05565189998438"><ele>1366.0</ele><time>2026-03-28T10:50:47Z</time></trkpt><trkpt lat="37.69827557610932" lon="15.055790568870723"><ele>1366.0</ele><time>2026-03-28T10:50:48Z</time></trkpt><trkpt lat="37.698262225771124" lon="15.055928711889404"><ele>1365.4</ele><time>2026-03-28T10:50:49Z</time></trkpt><trkpt lat="37.698275829508184" lon="15.056058041725942"><ele>1364.8</ele><time>2026-03-28T10:50:50Z</time></trkpt><trkpt lat="37.69832234637996" lon="15.05618048541654"><ele>1364.2</ele><time>2026-03-28T10:50:51Z</time></trkpt><trkpt lat="37.698372173696626" lon="15.056301777593427"><ele>1363.6000000000001</ele><time>2026-03-28T10:50:52Z</time></trkpt><trkpt lat="37.698398831827504" lon="15.056435713993126"><ele>1363.0</ele><time>2026-03-28T10:50:53Z</time></trkpt><trkpt lat="37.69840820753532" lon="15.056568658285382"><ele>1361.2</ele><time>2026-03-28T10:50:54Z</time></trkpt><trkpt lat="37.698396038167495" lon="15.056707550823868"><ele>1359.4</ele><time>2026-03-28T10:50:55Z</time></trkpt><trkpt lat="37.69836366873459" lon="15.056835636967131"><ele>1357.6000000000001</ele><time>2026-03-28T10:50:56Z</time></trkpt><trkpt lat="37.698290335639165" lon="15.056926562948643"><ele>1355.8000000000002</ele><time>2026-03-28T10:50:57Z</time></trkpt><trkpt lat="37.698185897309656" lon="15.056977317938365"><ele>1354.0</ele><time>2026-03-28T10:50:58Z</time></trkpt><trkpt lat="37.69807577322984" lon="15.056973352821489"><ele>1354.0</ele><time>2026-03-28T10:50:59Z</time></trkpt><trkpt lat="37.69796925936043" lon="15.056928441464366"><ele>1354.0</ele><time>2026-03-28T10:51:00Z</time></trkpt><trkpt lat="37.697857266426375" lon="15.056864665654977"><ele>1354.0</ele><time>2026-03-28T10:51:01Z</time></trkpt><trkpt lat="37.69774139294038" lon="15.05680490610374"><ele>1354.0</ele><time>2026-03-28T10:51:02Z</time></trkpt><trkpt lat="37.697634726467896" lon="15.056750122352183"><ele>1354.4</ele><time>2026-03-28T10:51:03Z</time></trkpt><trkpt lat="37.697531445042785" lon="15.056698397120016"><ele>1354.8000000000002</ele><time>2026-03-28T10:51:04Z</time></trkpt><trkpt lat="37.69742696544045" lon="15.056645982061207"><ele>1355.1999999999998</ele><time>2026-03-28T10:51:05Z</time></trkpt><trkpt lat="37.69732967247887" lon="15.056597107039932"><ele>1355.6</ele><time>2026-03-28T10:51:06Z</time></trkpt><trkpt lat="37.697230077317855" lon="15.056554533503213"><ele>1356.0</ele><time>2026-03-28T10:51:07Z</time></trkpt><trkpt lat="37.69713337716107" lon="15.056527353770644"><ele>1356.0</ele><time>2026-03-28T10:51:08Z</time></trkpt><trkpt lat="37.69703591174748" lon="15.056508256451583"><ele>1356.0</ele><time>2026-03-28T10:51:09Z</time></trkpt><trkpt lat="37.69693897183268" lon="15.056488815003103"><ele>1356.0</ele><time>2026-03-28T10:51:10Z</time></trkpt><trkpt lat="37.69684421322883" lon="15.056472495986844"><ele>1356.0</ele><time>2026-03-28T10:51:11Z</time></trkpt><trkpt lat="37.69675395604198" lon="15.0564643651511"><ele>1356.0</ele><time>2026-03-28T10:51:12Z</time></trkpt><trkpt lat="37.69666589589163" lon="15.056477610905139"><ele>1353.6</ele><time>2026-03-28T10:51:13Z</time></trkpt><trkpt lat="37.69658407041394" lon="15.05652572600686"><ele>1351.1999999999998</ele><time>2026-03-28T10:51:14Z</time></trkpt><trkpt lat="37.69652476213635" lon="15.056619732262487"><ele>1348.8000000000002</ele><time>2026-03-28T10:51:15Z</time></trkpt><trkpt lat="37.696486037965194" lon="15.05674005182931"><ele>1346.4</ele><time>2026-03-28T10:51:16Z</time></trkpt><trkpt lat="37.69646726028471" lon="15.056873134899128"><ele>1344.0</ele><time>2026-03-28T10:51:17Z</time></trkpt><trkpt lat="37.69649517799829" lon="15.057000234504192"><ele>1344.0</ele><time>2026-03-28T10:51:18Z</time></trkpt><trkpt lat="37.69655348987934" lon="15.057117457860729"><ele>1344.0</ele><time>2026-03-28T10:51:19Z</time></trkpt><trkpt lat="37.69663522393056" lon="15.05721756190244"><ele>1344.0</ele><time>2026-03-28T10:51:20Z</time></trkpt><trkpt lat="37.69673465919379" lon="15.05729593246051"><ele>1344.0</ele><time>2026-03-28T10:51:21Z</time></trkpt><trkpt lat="37.696832660380494" lon="15.057346464417277"><ele>1344.0</ele><time>2026-03-28T10:51:22Z</time></trkpt><trkpt lat="37.696923848694645" lon="15.057381958614863"><ele>1344.0</ele><time>2026-03-28T10:51:23Z</time></trkpt><trkpt lat="37.697001139009274" lon="15.057416260891799"><ele>1344.0</ele><time>2026-03-28T10:51:24Z</time></trkpt><trkpt lat="37.69707197171734" lon="15.057453453413254"><ele>1344.0</ele><time>2026-03-28T10:51:25Z</time></trkpt><trkpt lat="37.697142347431" lon="15.057496281357473"><ele>1344.0</ele><time>2026-03-28T10:51:26Z</time></trkpt><trkpt lat="37.69721359717748" lon="15.057545263372253"><ele>1344.0</ele><time>2026-03-28T10:51:26.999Z</time></trkpt><trkpt lat="37.69728662181181" lon="15.0575960613531"><ele>1344.0</ele><time>2026-03-28T10:51:27.999Z</time></trkpt><trkpt lat="37.69736266582513" lon="15.057652811207829"><ele>1342.4</ele><time>2026-03-28T10:51:28.999Z</time></trkpt><trkpt lat="37.697436606609514" lon="15.057719465428072"><ele>1340.8000000000002</ele><time>2026-03-28T10:51:29.999Z</time></trkpt><trkpt lat="37.6975092810958" lon="15.057796153590123"><ele>1339.1999999999998</ele><time>2026-03-28T10:51:30.999Z</time></trkpt><trkpt lat="37.697576769092784" lon="15.057885431916667"><ele>1337.6</ele><time>2026-03-28T10:51:31.999Z</time></trkpt><trkpt lat="37.69763979962542" lon="15.057991742818505"><ele>1336.0</ele><time>2026-03-28T10:51:32.999Z</time></trkpt><trkpt lat="37.697690427310846" lon="15.058099993778931"><ele>1336.0</ele><time>2026-03-28T10:51:33.999Z</time></trkpt><trkpt lat="37.6977411931537" lon="15.05821966746353"><ele>1336.0</ele><time>2026-03-28T10:51:34.999Z</time></trkpt><trkpt lat="37.69779117524421" lon="15.058342768808936"><ele>1336.0</ele><time>2026-03-28T10:51:35.999Z</time></trkpt><trkpt lat="37.6978414422869" lon="15.058464350508958"><ele>1336.0</ele><time>2026-03-28T10:51:36.999Z</time></trkpt><trkpt lat="37.697894083215644" lon="15.058585471807248"><ele>1336.0</ele><time>2026-03-28T10:51:37.999Z</time></trkpt><trkpt lat="37.697946956837264" lon="15.058707428705098"><ele>1333.25</ele><time>2026-03-28T10:51:38.999Z</time></trkpt><trkpt lat="37.698002547353276" lon="15.058830030734374"><ele>1330.5</ele><time>2026-03-28T10:51:39.999Z</time></trkpt><trkpt lat="37.69806154387185" lon="15.058951639254493"><ele>1327.75</ele><time>2026-03-28T10:51:40.999Z</time></trkpt><trkpt lat="37.69812942635822" lon="15.059070220207547"><ele>1325.0</ele><time>2026-03-28T10:51:41.999Z</time></trkpt><trkpt lat="37.69820415273107" lon="15.059186382923118"><ele>1324.2</ele><time>2026-03-28T10:51:42.999Z</time></trkpt><trkpt lat="37.69827986059159" lon="15.059294313504926"><ele>1323.4</ele><time>2026-03-28T10:51:43.999Z</time></trkpt><trkpt lat="37.69835357435627" lon="15.059399235386882"><ele>1322.6</ele><time>2026-03-28T10:51:44.999Z</time></trkpt><trkpt lat="37.69842693748025" lon="15.059503442780219"><ele>1321.8</ele><time>2026-03-28T10:51:45.999Z</time></trkpt><trkpt lat="37.69849802166086" lon="15.059602478410786"><ele>1321.0</ele><time>2026-03-28T10:51:46.999Z</time></trkpt><trkpt lat="37.698561214190256" lon="15.059703313141334"><ele>1320.4</ele><time>2026-03-28T10:51:47.999Z</time></trkpt><trkpt lat="37.69860934098377" lon="15.059805003458298"><ele>1319.8</ele><time>2026-03-28T10:51:48.999Z</time></trkpt><trkpt lat="37.698650806785" lon="15.059922327558862"><ele>1319.2</ele><time>2026-03-28T10:51:49.999Z</time></trkpt><trkpt lat="37.69867985607897" lon="15.060036947201187"><ele>1318.6000000000001</ele><time>2026-03-28T10:51:50.999Z</time></trkpt><trkpt lat="37.69868570760263" lon="15.060153734389143"><ele>1318.0</ele><time>2026-03-28T10:51:51.999Z</time></trkpt><trkpt lat="37.6986736365646" lon="15.060268225012198"><ele>1318.0</ele><time>2026-03-28T10:51:52.999Z</time></trkpt><trkpt lat="37.69863963792433" lon="15.060379582015008"><ele>1318.0</ele><time>2026-03-28T10:51:53.999Z</time></trkpt><trkpt lat="37.69858098544827" lon="15.060479441724492"><ele>1318.0</ele><time>2026-03-28T10:51:54.999Z</time></trkpt><trkpt lat="37.69850346911251" lon="15.06056486740973"><ele>1318.0</ele><time>2026-03-28T10:51:55.999Z</time></trkpt><trkpt lat="37.69841066436551" lon="15.060643275134868"><ele>1318.0</ele><time>2026-03-28T10:51:56.999Z</time></trkpt><trkpt lat="37.69831615806657" lon="15.060708312221662"><ele>1317.8000000000002</ele><time>2026-03-28T10:51:57.999Z</time></trkpt><trkpt lat="37.698221626678446" lon="15.060762241387083"><ele>1317.6</ele><time>2026-03-28T10:51:58.999Z</time></trkpt><trkpt lat="37.69812549613364" lon="15.060795331863197"><ele>1317.4</ele><time>2026-03-28T10:51:59.999Z</time></trkpt><trkpt lat="37.69802276819246" lon="15.06080858656784"><ele>1317.1999999999998</ele><time>2026-03-28T10:52:00.999Z</time></trkpt><trkpt lat="37.69791153156155" lon="15.060810618492175"><ele>1317.0</ele><time>2026-03-28T10:52:01.999Z</time></trkpt><trkpt lat="37.69779600615231" lon="15.060807745760128"><ele>1317.0</ele><time>2026-03-28T10:52:02.999Z</time></trkpt><trkpt lat="37.69767853108276" lon="15.060802308300794"><ele>1317.0</ele><time>2026-03-28T10:52:03.999Z</time></trkpt><trkpt lat="37.69756257739358" lon="15.060792792404726"><ele>1317.0</ele><time>2026-03-28T10:52:04.999Z</time></trkpt><trkpt lat="37.697456103551815" lon="15.060785650236951"><ele>1317.0</ele><time>2026-03-28T10:52:05.999Z</time></trkpt><trkpt lat="37.69735633781871" lon="15.06078148042506"><ele>1317.0</ele><time>2026-03-28T10:52:06.999Z</time></trkpt><trkpt lat="37.69726138604703" lon="15.060789905864006"><ele>1315.1999999999998</ele><time>2026-03-28T10:52:07.999Z</time></trkpt><trkpt lat="37.697169421592086" lon="15.060827585874694"><ele>1313.4</ele><time>2026-03-28T10:52:08.999Z</time></trkpt><trkpt lat="37.69707206567969" lon="15.06088431848582"><ele>1311.6</ele><time>2026-03-28T10:52:09.999Z</time></trkpt><trkpt lat="37.69697890063461" lon="15.060960631592867"><ele>1309.8000000000002</ele><time>2026-03-28T10:52:10.999Z</time></trkpt><trkpt lat="37.696892795977675" lon="15.061051759214136"><ele>1308.0</ele><time>2026-03-28T10:52:11.999Z</time></trkpt><trkpt lat="37.696812554533984" lon="15.061152335854484"><ele>1307.75</ele><time>2026-03-28T10:52:12.999Z</time></trkpt><trkpt lat="37.6967355384942" lon="15.061263206916434"><ele>1307.5</ele><time>2026-03-28T10:52:13.999Z</time></trkpt><trkpt lat="37.696661337170404" lon="15.061376373942338"><ele>1307.25</ele><time>2026-03-28T10:52:14.999Z</time></trkpt><trkpt lat="37.696590039500556" lon="15.061488286184257"><ele>1307.0</ele><time>2026-03-28T10:52:15.999Z</time></trkpt><trkpt lat="37.69652144120983" lon="15.061597639369513"><ele>1305.3999999999999</ele><time>2026-03-28T10:52:16.999Z</time></trkpt><trkpt lat="37.696453429813644" lon="15.06170671414994"><ele>1303.8</ele><time>2026-03-28T10:52:17.999Z</time></trkpt><trkpt lat="37.69638387609636" lon="15.0618142675574"><ele>1302.2</ele><time>2026-03-28T10:52:18.999Z</time></trkpt><trkpt lat="37.696312050140655" lon="15.061916130694705"><ele>1300.6</ele><time>2026-03-28T10:52:19.999Z</time></trkpt><trkpt lat="37.69623288212529" lon="15.062005775495841"><ele>1299.0</ele><time>2026-03-28T10:52:20.999Z</time></trkpt><trkpt lat="37.696140293584406" lon="15.062072894644148"><ele>1298.0</ele><time>2026-03-28T10:52:21.999Z</time></trkpt><trkpt lat="37.69604248839406" lon="15.062123745267613"><ele>1297.0</ele><time>2026-03-28T10:52:22.999Z</time></trkpt><trkpt lat="37.6959393111511" lon="15.062171473593823"><ele>1296.0</ele><time>2026-03-28T10:52:23.999Z</time></trkpt><trkpt lat="37.69583705960158" lon="15.062216182119755"><ele>1295.0</ele><time>2026-03-28T10:52:24.999Z</time></trkpt><trkpt lat="37.69573498004925" lon="15.062261492004442"><ele>1294.0</ele><time>2026-03-28T10:52:25.999Z</time></trkpt><trkpt lat="37.695636555988834" lon="15.062309231923"><ele>1294.0</ele><time>2026-03-28T10:52:26.999Z</time></trkpt><trkpt lat="37.695546051551425" lon="15.062361509326523"><ele>1294.0</ele><time>2026-03-28T10:52:27.999Z</time></trkpt><trkpt lat="37.695464842894665" lon="15.062424253139193"><ele>1294.0</ele><time>2026-03-28T10:52:28.999Z</time></trkpt><trkpt lat="37.695402130184014" lon="15.062499320832364"><ele>1294.0</ele><time>2026-03-28T10:52:29.999Z</time></trkpt><trkpt lat="37.69535215963561" lon="15.062589952964927"><ele>1294.0</ele><time>2026-03-28T10:52:30.999Z</time></trkpt><trkpt lat="37.69531992138962" lon="15.062686031178643"><ele>1292.6</ele><time>2026-03-28T10:52:31.999Z</time></trkpt><trkpt lat="37.69531621259771" lon="15.062781227596654"><ele>1291.2</ele><time>2026-03-28T10:52:32.999Z</time></trkpt><trkpt lat="37.69533447271184" lon="15.062869679504097"><ele>1289.8</ele><time>2026-03-28T10:52:33.999Z</time></trkpt><trkpt lat="37.69537741531579" lon="15.062967402103734"><ele>1288.3999999999999</ele><time>2026-03-28T10:52:34.999Z</time></trkpt><trkpt lat="37.69544919558392" lon="15.063068678215801"><ele>1287.0</ele><time>2026-03-28T10:52:35.999Z</time></trkpt><trkpt lat="37.69553196362773" lon="15.063162341756366"><ele>1287.0</ele><time>2026-03-28T10:52:36.999Z</time></trkpt><trkpt lat="37.69562687516923" lon="15.06323269945892"><ele>1287.0</ele><time>2026-03-28T10:52:37.999Z</time></trkpt><trkpt lat="37.69573938835099" lon="15.063284571285145"><ele>1287.0</ele><time>2026-03-28T10:52:39Z</time></trkpt><trkpt lat="37.695847425073374" lon="15.063336550153128"><ele>1287.0</ele><time>2026-03-28T10:52:40Z</time></trkpt><trkpt lat="37.69594536533469" lon="15.063389003849437"><ele>1285.8</ele><time>2026-03-28T10:52:41Z</time></trkpt><trkpt lat="37.69602911304957" lon="15.063432416690544"><ele>1284.6</ele><time>2026-03-28T10:52:42Z</time></trkpt><trkpt lat="37.69609903501959" lon="15.063472285154328"><ele>1283.3999999999999</ele><time>2026-03-28T10:52:43Z</time></trkpt><trkpt lat="37.69616026785302" lon="15.063514612322846"><ele>1282.1999999999998</ele><time>2026-03-28T10:52:44Z</time></trkpt><trkpt lat="37.69625821460678" lon="15.06359160524245"><ele>1281.0</ele><time>2026-03-28T10:52:46Z</time></trkpt><trkpt lat="37.696341390648065" lon="15.063662819251117"><ele>1281.0</ele><time>2026-03-28T10:52:48Z</time></trkpt><trkpt lat="37.69643118966966" lon="15.063738974169576"><ele>1281.0</ele><time>2026-03-28T10:52:50Z</time></trkpt><trkpt lat="37.696530781938115" lon="15.063824577097863"><ele>1281.0</ele><time>2026-03-28T10:52:52Z</time></trkpt><trkpt lat="37.69658403354743" lon="15.063878050378209"><ele>1281.0</ele><time>2026-03-28T10:52:53Z</time></trkpt><trkpt lat="37.69663708608046" lon="15.063932508831101"><ele>1281.0</ele><time>2026-03-28T10:52:54Z</time></trkpt><trkpt lat="37.696689578654144" lon="15.063989870616517"><ele>1281.0</ele><time>2026-03-28T10:52:55Z</time></trkpt><trkpt lat="37.69673942414712" lon="15.064051215323156"><ele>1278.8333333333333</ele><time>2026-03-28T10:52:56Z</time></trkpt><trkpt lat="37.696785979765494" lon="15.06412158646143"><ele>1276.6666666666667</ele><time>2026-03-28T10:52:57Z</time></trkpt><trkpt lat="37.69682735238616" lon="15.064195968594683"><ele>1274.5</ele><time>2026-03-28T10:52:58Z</time></trkpt><trkpt lat="37.69685914087937" lon="15.064271363144309"><ele>1272.3333333333335</ele><time>2026-03-28T10:52:59Z</time></trkpt><trkpt lat="37.6968705167983" lon="15.06441951064371"><ele>1270.1666666666667</ele><time>2026-03-28T10:53:01Z</time></trkpt><trkpt lat="37.69686105204894" lon="15.06454014340315"><ele>1268.0</ele><time>2026-03-28T10:53:02Z</time></trkpt><trkpt lat="37.6968010984874" lon="15.064606753336976"><ele>1268.0</ele><time>2026-03-28T10:53:03Z</time></trkpt><trkpt lat="37.69672254479256" lon="15.064645976782403"><ele>1268.0</ele><time>2026-03-28T10:53:04Z</time></trkpt><trkpt lat="37.69663821622957" lon="15.064667385420275"><ele>1268.0</ele><time>2026-03-28T10:53:05Z</time></trkpt><trkpt lat="37.69655885151385" lon="15.064673707538315"><ele>1268.0</ele><time>2026-03-28T10:53:06Z</time></trkpt><trkpt lat="37.69647350595508" lon="15.064669277649484"><ele>1268.0</ele><time>2026-03-28T10:53:07Z</time></trkpt><trkpt lat="37.696393810904425" lon="15.064655214826818"><ele>1268.0</ele><time>2026-03-28T10:53:08Z</time></trkpt><trkpt lat="37.69631872758051" lon="15.064617090987497"><ele>1268.0</ele><time>2026-03-28T10:53:09Z</time></trkpt><trkpt lat="37.69624269945229" lon="15.064570446142607"><ele>1268.0</ele><time>2026-03-28T10:53:10Z</time></trkpt><trkpt lat="37.69617221170364" lon="15.064515948416489"><ele>1268.0</ele><time>2026-03-28T10:53:11Z</time></trkpt><trkpt lat="37.69610540632668" lon="15.064469326848803"><ele>1268.0</ele><time>2026-03-28T10:53:12Z</time></trkpt><trkpt lat="37.696037278553995" lon="15.064433131304352"><ele>1268.0</ele><time>2026-03-28T10:53:13Z</time></trkpt><trkpt lat="37.695971740644175" lon="15.064390916027644"><ele>1268.0</ele><time>2026-03-28T10:53:14Z</time></trkpt><trkpt lat="37.69590861263876" lon="15.064351986720165"><ele>1267.1666666666667</ele><time>2026-03-28T10:53:15Z</time></trkpt><trkpt lat="37.695841940461726" lon="15.064322985494126"><ele>1266.3333333333335</ele><time>2026-03-28T10:53:16Z</time></trkpt><trkpt lat="37.6957691159774" lon="15.064308814056902"><ele>1265.5</ele><time>2026-03-28T10:53:17Z</time></trkpt><trkpt lat="37.69569410048097" lon="15.064305996325409"><ele>1264.6666666666667</ele><time>2026-03-28T10:53:18Z</time></trkpt><trkpt lat="37.695616218591184" lon="15.06431967089441"><ele>1263.8333333333333</ele><time>2026-03-28T10:53:19Z</time></trkpt><trkpt lat="37.695545561510414" lon="15.064362760792347"><ele>1263.0</ele><time>2026-03-28T10:53:20Z</time></trkpt><trkpt lat="37.69548307088638" lon="15.064430215350093"><ele>1263.0</ele><time>2026-03-28T10:53:21Z</time></trkpt><trkpt lat="37.69543590197701" lon="15.064513843782967"><ele>1263.0</ele><time>2026-03-28T10:53:22Z</time></trkpt><trkpt lat="37.695414853705266" lon="15.064624766495326"><ele>1263.0</ele><time>2026-03-28T10:53:23Z</time></trkpt><trkpt lat="37.69541943223207" lon="15.06473504909344"><ele>1263.0</ele><time>2026-03-28T10:53:24Z</time></trkpt><trkpt lat="37.69546700556293" lon="15.064846752870928"><ele>1263.0</ele><time>2026-03-28T10:53:25Z</time></trkpt><trkpt lat="37.69551923693633" lon="15.064937030641241"><ele>1263.0</ele><time>2026-03-28T10:53:26Z</time></trkpt><trkpt lat="37.695582893405394" lon="15.065014597430403"><ele>1260.8</ele><time>2026-03-28T10:53:27Z</time></trkpt><trkpt lat="37.6956557460185" lon="15.065080505003914"><ele>1258.6</ele><time>2026-03-28T10:53:28Z</time></trkpt><trkpt lat="37.69573379722415" lon="15.06513915089534"><ele>1256.4</ele><time>2026-03-28T10:53:29Z</time></trkpt><trkpt lat="37.69580459155999" lon="15.065206289131245"><ele>1254.2</ele><time>2026-03-28T10:53:30Z</time></trkpt><trkpt lat="37.6958819987756" lon="15.065271411637056"><ele>1252.0</ele><time>2026-03-28T10:53:31Z</time></trkpt><trkpt lat="37.69595798295985" lon="15.065329254821144"><ele>1252.0</ele><time>2026-03-28T10:53:32Z</time></trkpt><trkpt lat="37.69603581223018" lon="15.065391180659493"><ele>1252.0</ele><time>2026-03-28T10:53:33Z</time></trkpt><trkpt lat="37.696106657671706" lon="15.065448181736361"><ele>1252.0</ele><time>2026-03-28T10:53:34Z</time></trkpt><trkpt lat="37.696170605814245" lon="15.065503218924315"><ele>1252.0</ele><time>2026-03-28T10:53:35Z</time></trkpt><trkpt lat="37.69623855719394" lon="15.065560260328912"><ele>1252.0</ele><time>2026-03-28T10:53:36Z</time></trkpt><trkpt lat="37.69629155754694" lon="15.065644553496973"><ele>1252.0</ele><time>2026-03-28T10:53:37Z</time></trkpt><trkpt lat="37.696329632477386" lon="15.065734504712527"><ele>1251.3333333333333</ele><time>2026-03-28T10:53:38Z</time></trkpt><trkpt lat="37.696344340302424" lon="15.065836071754925"><ele>1250.6666666666665</ele><time>2026-03-28T10:53:39Z</time></trkpt><trkpt lat="37.69633173733121" lon="15.065943251340714"><ele>1250.0</ele><time>2026-03-28T10:53:40Z</time></trkpt><trkpt lat="37.696305762220874" lon="15.066042648924194"><ele>1249.3333333333333</ele><time>2026-03-28T10:53:40.999Z</time></trkpt><trkpt lat="37.69625912072607" lon="15.06613518159372"><ele>1248.6666666666667</ele><time>2026-03-28T10:53:41.999Z</time></trkpt><trkpt lat="37.696196942427655" lon="15.06621029453482"><ele>1248.0</ele><time>2026-03-28T10:53:42.999Z</time></trkpt><trkpt lat="37.69612486621218" lon="15.066268678209125"><ele>1246.0</ele><time>2026-03-28T10:53:43.999Z</time></trkpt><trkpt lat="37.696041758341366" lon="15.06630045074124"><ele>1244.0</ele><time>2026-03-28T10:53:44.999Z</time></trkpt><trkpt lat="37.69596073260791" lon="15.066317792716438"><ele>1242.0</ele><time>2026-03-28T10:53:45.999Z</time></trkpt><trkpt lat="37.695881606335135" lon="15.06631109830711"><ele>1240.0</ele><time>2026-03-28T10:53:46.999Z</time></trkpt><trkpt lat="37.695802559525326" lon="15.06628863558011"><ele>1238.0</ele><time>2026-03-28T10:53:47.999Z</time></trkpt><trkpt lat="37.69572236780496" lon="15.066254395560934"><ele>1236.0</ele><time>2026-03-28T10:53:48.999Z</time></trkpt><trkpt lat="37.69563469121978" lon="15.066225243651468"><ele>1236.0</ele><time>2026-03-28T10:53:49.999Z</time></trkpt><trkpt lat="37.69553647235237" lon="15.066202809916211"><ele>1236.0</ele><time>2026-03-28T10:53:50.999Z</time></trkpt><trkpt lat="37.69544400028103" lon="15.066181523912983"><ele>1236.0</ele><time>2026-03-28T10:53:51.999Z</time></trkpt><trkpt lat="37.69534838460728" lon="15.06615153462234"><ele>1236.0</ele><time>2026-03-28T10:53:52.999Z</time></trkpt><trkpt lat="37.69524505396648" lon="15.066121429617189"><ele>1236.0</ele><time>2026-03-28T10:53:53.999Z</time></trkpt><trkpt lat="37.695146939541246" lon="15.066085882487462"><ele>1234.6</ele><time>2026-03-28T10:53:54.999Z</time></trkpt><trkpt lat="37.69505352354077" lon="15.066055149482949"><ele>1233.1999999999998</ele><time>2026-03-28T10:53:55.999Z</time></trkpt><trkpt lat="37.69495683258299" lon="15.0660221441484"><ele>1231.8000000000002</ele><time>2026-03-28T10:53:56.999Z</time></trkpt><trkpt lat="37.69486345822941" lon="15.065992174149216"><ele>1230.4</ele><time>2026-03-28T10:53:57.999Z</time></trkpt><trkpt lat="37.69477159402587" lon="15.065968318765943"><ele>1229.0</ele><time>2026-03-28T10:53:58.999Z</time></trkpt><trkpt lat="37.69468016569457" lon="15.065950696768857"><ele>1229.0</ele><time>2026-03-28T10:53:59.999Z</time></trkpt><trkpt lat="37.69459289337967" lon="15.065949597302371"><ele>1229.0</ele><time>2026-03-28T10:54:00.999Z</time></trkpt><trkpt lat="37.694505995584635" lon="15.065966551271162"><ele>1229.0</ele><time>2026-03-28T10:54:01.999Z</time></trkpt><trkpt lat="37.694426402689615" lon="15.066009041128343"><ele>1229.0</ele><time>2026-03-28T10:54:02.999Z</time></trkpt><trkpt lat="37.6943623415285" lon="15.066078937472396"><ele>1229.0</ele><time>2026-03-28T10:54:03.999Z</time></trkpt><trkpt lat="37.69432489483902" lon="15.06617519136291"><ele>1229.0</ele><time>2026-03-28T10:54:04.999Z</time></trkpt><trkpt lat="37.694312891812956" lon="15.06628817998241"><ele>1228.0</ele><time>2026-03-28T10:54:05.999Z</time></trkpt><trkpt lat="37.69431276872492" lon="15.066410888387608"><ele>1227.0</ele><time>2026-03-28T10:54:06.999Z</time></trkpt><trkpt lat="37.69431834473582" lon="15.066543681474569"><ele>1226.0</ele><time>2026-03-28T10:54:07.999Z</time></trkpt><trkpt lat="37.69433706582151" lon="15.066667063679752"><ele>1225.0</ele><time>2026-03-28T10:54:08.999Z</time></trkpt><trkpt lat="37.69437065526091" lon="15.066782863842636"><ele>1224.0</ele><time>2026-03-28T10:54:09.999Z</time></trkpt><trkpt lat="37.69441838043598" lon="15.066885803792978"><ele>1223.0</ele><time>2026-03-28T10:54:10.999Z</time></trkpt><trkpt lat="37.69446786707111" lon="15.066984197689656"><ele>1222.0</ele><time>2026-03-28T10:54:11.999Z</time></trkpt><trkpt lat="37.69451680733356" lon="15.067085246519206"><ele>1221.0</ele><time>2026-03-28T10:54:12.999Z</time></trkpt><trkpt lat="37.694565653460614" lon="15.067194805022561"><ele>1220.0</ele><time>2026-03-28T10:54:13.999Z</time></trkpt><trkpt lat="37.694617471424664" lon="15.067309407147947"><ele>1219.0</ele><time>2026-03-28T10:54:14.999Z</time></trkpt><trkpt lat="37.694676778230324" lon="15.067426966573997"><ele>1217.0</ele><time>2026-03-28T10:54:15.999Z</time></trkpt><trkpt lat="37.69473362107586" lon="15.067545262031842"><ele>1215.0</ele><time>2026-03-28T10:54:16.999Z</time></trkpt><trkpt lat="37.694785705030306" lon="15.067659186159474"><ele>1213.0</ele><time>2026-03-28T10:54:17.999Z</time></trkpt><trkpt lat="37.69484153471889" lon="15.067773414407448"><ele>1211.0</ele><time>2026-03-28T10:54:18.999Z</time></trkpt><trkpt lat="37.69490412490785" lon="15.067884858699816"><ele>1209.0</ele><time>2026-03-28T10:54:19.999Z</time></trkpt><trkpt lat="37.69496614644037" lon="15.067991934646258"><ele>1209.0</ele><time>2026-03-28T10:54:20.999Z</time></trkpt><trkpt lat="37.6950279911802" lon="15.068099198981411"><ele>1209.0</ele><time>2026-03-28T10:54:21.999Z</time></trkpt><trkpt lat="37.695084066943814" lon="15.068207396309743"><ele>1209.0</ele><time>2026-03-28T10:54:22.999Z</time></trkpt><trkpt lat="37.6951516297634" lon="15.068302717332339"><ele>1209.0</ele><time>2026-03-28T10:54:23.999Z</time></trkpt><trkpt lat="37.695207328779624" lon="15.068388275823759"><ele>1209.0</ele><time>2026-03-28T10:54:24.999Z</time></trkpt><trkpt lat="37.695254385307486" lon="15.068503146111041"><ele>1208.6000000000001</ele><time>2026-03-28T10:54:25.999Z</time></trkpt><trkpt lat="37.69530295954655" lon="15.068613241736612"><ele>1208.2</ele><time>2026-03-28T10:54:26.999Z</time></trkpt><trkpt lat="37.69531145099727" lon="15.068727764690472"><ele>1207.8000000000002</ele><time>2026-03-28T10:54:27.999Z</time></trkpt><trkpt lat="37.69526995998833" lon="15.068912884210249"><ele>1207.4</ele><time>2026-03-28T10:54:29.999Z</time></trkpt><trkpt lat="37.69520213581257" lon="15.068989003385447"><ele>1207.0</ele><time>2026-03-28T10:54:30.999Z</time></trkpt><trkpt lat="37.695102554084144" lon="15.068989404661808"><ele>1205.0</ele><time>2026-03-28T10:54:31.999Z</time></trkpt><trkpt lat="37.695015346335744" lon="15.068977426629813"><ele>1203.0</ele><time>2026-03-28T10:54:32.999Z</time></trkpt><trkpt lat="37.69494541035098" lon="15.068902296013349"><ele>1201.0</ele><time>2026-03-28T10:54:33.999Z</time></trkpt><trkpt lat="37.69487720352107" lon="15.068825148234975"><ele>1199.0</ele><time>2026-03-28T10:54:34.999Z</time></trkpt><trkpt lat="37.694798682799515" lon="15.068737159184101"><ele>1197.0</ele><time>2026-03-28T10:54:35.999Z</time></trkpt><trkpt lat="37.694716223421274" lon="15.068661679770623"><ele>1197.0</ele><time>2026-03-28T10:54:36.999Z</time></trkpt><trkpt lat="37.69464647310397" lon="15.06857175902334"><ele>1197.0</ele><time>2026-03-28T10:54:37.999Z</time></trkpt><trkpt lat="37.69458058477003" lon="15.068487936099023"><ele>1197.0</ele><time>2026-03-28T10:54:38.999Z</time></trkpt><trkpt lat="37.69451054389702" lon="15.06840661758257"><ele>1197.0</ele><time>2026-03-28T10:54:39.999Z</time></trkpt><trkpt lat="37.694440875455804" lon="15.068320103497026"><ele>1197.0</ele><time>2026-03-28T10:54:40.999Z</time></trkpt><trkpt lat="37.694368607661474" lon="15.068228042285167"><ele>1197.0</ele><time>2026-03-28T10:54:41.999Z</time></trkpt><trkpt lat="37.694292591852985" lon="15.068138858103861"><ele>1197.0</ele><time>2026-03-28T10:54:42.999Z</time></trkpt><trkpt lat="37.69421509696659" lon="15.068049257416774"><ele>1197.0</ele><time>2026-03-28T10:54:43.999Z</time></trkpt><trkpt lat="37.69414188373712" lon="15.067961820912675"><ele>1197.0</ele><time>2026-03-28T10:54:45Z</time></trkpt><trkpt lat="37.69406786813614" lon="15.067875417281368"><ele>1197.0</ele><time>2026-03-28T10:54:46Z</time></trkpt><trkpt lat="37.69398077458181" lon="15.06780071564773"><ele>1197.0</ele><time>2026-03-28T10:54:47Z</time></trkpt><trkpt lat="37.69387490487761" lon="15.067762833756785"><ele>1197.0</ele><time>2026-03-28T10:54:48Z</time></trkpt><trkpt lat="37.693758478632326" lon="15.067784940049147"><ele>1197.0</ele><time>2026-03-28T10:54:49Z</time></trkpt><trkpt lat="37.69363962408076" lon="15.06786690312074"><ele>1197.0</ele><time>2026-03-28T10:54:50Z</time></trkpt><trkpt lat="37.693532840050224" lon="15.067995280282004"><ele>1195.25</ele><time>2026-03-28T10:54:51Z</time></trkpt><trkpt lat="37.6934695484888" lon="15.068170222736688"><ele>1193.5</ele><time>2026-03-28T10:54:52Z</time></trkpt><trkpt lat="37.69348201925583" lon="15.068365005706964"><ele>1191.75</ele><time>2026-03-28T10:54:53Z</time></trkpt><trkpt lat="37.69353605187047" lon="15.068511039458734"><ele>1190.0</ele><time>2026-03-28T10:54:54Z</time></trkpt><trkpt lat="37.693626201635176" lon="15.068636197960572"><ele>1189.3333333333335</ele><time>2026-03-28T10:54:55Z</time></trkpt><trkpt lat="37.693754374503506" lon="15.068756644872343"><ele>1188.6666666666667</ele><time>2026-03-28T10:54:56Z</time></trkpt><trkpt lat="37.69390406028697" lon="15.06890115023114"><ele>1188.0</ele><time>2026-03-28T10:54:57Z</time></trkpt><trkpt lat="37.69405301047729" lon="15.06906718405265"><ele>1186.3333333333333</ele><time>2026-03-28T10:54:58Z</time></trkpt><trkpt lat="37.69421381879988" lon="15.069240790802366"><ele>1184.6666666666665</ele><time>2026-03-28T10:54:59Z</time></trkpt><trkpt lat="37.69437852993124" lon="15.069406561857367"><ele>1183.0</ele><time>2026-03-28T10:55:00Z</time></trkpt><trkpt lat="37.694521834368565" lon="15.069565601517189"><ele>1183.0</ele><time>2026-03-28T10:55:01Z</time></trkpt><trkpt lat="37.69464459716591" lon="15.069705954597495"><ele>1183.0</ele><time>2026-03-28T10:55:02Z</time></trkpt><trkpt lat="37.694757365652116" lon="15.069825162669792"><ele>1183.0</ele><time>2026-03-28T10:55:03Z</time></trkpt><trkpt lat="37.69488112807104" lon="15.069926686058666"><ele>1177.6666666666665</ele><time>2026-03-28T10:55:04Z</time></trkpt><trkpt lat="37.69503684603751" lon="15.07001031709793"><ele>1172.3333333333333</ele><time>2026-03-28T10:55:05Z</time></trkpt><trkpt lat="37.695217854029806" lon="15.070068865525535"><ele>1167.0</ele><time>2026-03-28T10:55:06Z</time></trkpt><trkpt lat="37.69541575918948" lon="15.07012692310205"><ele>1166.3333333333333</ele><time>2026-03-28T10:55:07Z</time></trkpt><trkpt lat="37.69559231766877" lon="15.070179663014482"><ele>1165.6666666666665</ele><time>2026-03-28T10:55:08Z</time></trkpt><trkpt lat="37.69575109118924" lon="15.070227938039077"><ele>1165.0</ele><time>2026-03-28T10:55:09Z</time></trkpt><trkpt lat="37.695888332158944" lon="15.070272827887882"><ele>1165.0</ele><time>2026-03-28T10:55:10Z</time></trkpt><trkpt lat="37.69600687485001" lon="15.070319643779966"><ele>1165.0</ele><time>2026-03-28T10:55:11Z</time></trkpt><trkpt lat="37.69611038236787" lon="15.070390888804813"><ele>1165.0</ele><time>2026-03-28T10:55:12Z</time></trkpt><trkpt lat="37.696189236565274" lon="15.070505698320538"><ele>1165.0</ele><time>2026-03-28T10:55:13Z</time></trkpt><trkpt lat="37.69624870332478" lon="15.07064998844602"><ele>1162.25</ele><time>2026-03-28T10:55:14Z</time></trkpt><trkpt lat="37.69627697623394" lon="15.07081042030903"><ele>1159.5</ele><time>2026-03-28T10:55:15Z</time></trkpt><trkpt lat="37.69627244360934" lon="15.070961467521014"><ele>1156.75</ele><time>2026-03-28T10:55:16Z</time></trkpt><trkpt lat="37.69622237305161" lon="15.0710948887603"><ele>1154.0</ele><time>2026-03-28T10:55:17Z</time></trkpt><trkpt lat="37.69612411740892" lon="15.07121528731324"><ele>1152.0</ele><time>2026-03-28T10:55:18Z</time></trkpt><trkpt lat="37.69599782801054" lon="15.071307090656635"><ele>1150.0</ele><time>2026-03-28T10:55:19Z</time></trkpt><trkpt lat="37.69583667389928" lon="15.07133211755006"><ele>1148.0</ele><time>2026-03-28T10:55:20Z</time></trkpt><trkpt lat="37.69565970272012" lon="15.071384701652404"><ele>1148.0</ele><time>2026-03-28T10:55:21Z</time></trkpt><trkpt lat="37.69546956416085" lon="15.071405504352263"><ele>1148.0</ele><time>2026-03-28T10:55:22Z</time></trkpt><trkpt lat="37.69530499922241" lon="15.07144862492187"><ele>1148.0</ele><time>2026-03-28T10:55:23Z</time></trkpt><trkpt lat="37.695140021963496" lon="15.071548400067782"><ele>1144.0</ele><time>2026-03-28T10:55:24Z</time></trkpt><trkpt lat="37.69498269219611" lon="15.071704281693474"><ele>1140.0</ele><time>2026-03-28T10:55:25Z</time></trkpt><trkpt lat="37.69481981890564" lon="15.071909819145665"><ele>1136.0</ele><time>2026-03-28T10:55:26Z</time></trkpt><trkpt lat="37.69463974826937" lon="15.072127130282137"><ele>1136.0</ele><time>2026-03-28T10:55:27Z</time></trkpt><trkpt lat="37.69444663568385" lon="15.07234154516783"><ele>1136.0</ele><time>2026-03-28T10:55:28Z</time></trkpt><trkpt lat="37.69426920494377" lon="15.072545643415829"><ele>1132.0</ele><time>2026-03-28T10:55:29Z</time></trkpt><trkpt lat="37.694114789740276" lon="15.072721185265243"><ele>1128.0</ele><time>2026-03-28T10:55:30Z</time></trkpt><trkpt lat="37.693976574371355" lon="15.07287782059132"><ele>1124.0</ele><time>2026-03-28T10:55:31Z</time></trkpt><trkpt lat="37.693866228104746" lon="15.073001619469014"><ele>1124.0</ele><time>2026-03-28T10:55:32Z</time></trkpt><trkpt lat="37.69377961648162" lon="15.073102704487445"><ele>1124.0</ele><time>2026-03-28T10:55:33Z</time></trkpt><trkpt lat="37.693708805188635" lon="15.073220475412576"><ele>1124.0</ele><time>2026-03-28T10:55:34Z</time></trkpt><trkpt lat="37.69367123928461" lon="15.073363494385152"><ele>1124.0</ele><time>2026-03-28T10:55:35Z</time></trkpt><trkpt lat="37.693678450111946" lon="15.073529452769119"><ele>1122.0</ele><time>2026-03-28T10:55:36Z</time></trkpt><trkpt lat="37.69373126982354" lon="15.0736863520237"><ele>1120.0</ele><time>2026-03-28T10:55:37Z</time></trkpt><trkpt lat="37.693811528376045" lon="15.073809425318997"><ele>1118.0</ele><time>2026-03-28T10:55:38Z</time></trkpt><trkpt lat="37.69391428286581" lon="15.07388012946358"><ele>1116.0</ele><time>2026-03-28T10:55:39Z</time></trkpt><trkpt lat="37.69404696111171" lon="15.0739007276833"><ele>1116.0</ele><time>2026-03-28T10:55:40Z</time></trkpt><trkpt lat="37.69418771788344" lon="15.073877366417634"><ele>1116.0</ele><time>2026-03-28T10:55:41Z</time></trkpt><trkpt lat="37.69431907763823" lon="15.073797925095558"><ele>1116.0</ele><time>2026-03-28T10:55:42Z</time></trkpt><trkpt lat="37.694430928355374" lon="15.073686771542869"><ele>1116.0</ele><time>2026-03-28T10:55:43Z</time></trkpt><trkpt lat="37.69454565911464" lon="15.073575794584944"><ele>1115.75</ele><time>2026-03-28T10:55:44Z</time></trkpt><trkpt lat="37.6946690240618" lon="15.073469797899941"><ele>1115.5</ele><time>2026-03-28T10:55:45Z</time></trkpt><trkpt lat="37.69478119648258" lon="15.073387360662588"><ele>1115.25</ele><time>2026-03-28T10:55:46Z</time></trkpt><trkpt lat="37.69490993100563" lon="15.073405372297188"><ele>1115.0</ele><time>2026-03-28T10:55:47Z</time></trkpt><trkpt lat="37.69504055262696" lon="15.073440071010802"><ele>1115.0</ele><time>2026-03-28T10:55:48Z</time></trkpt><trkpt lat="37.69519268207819" lon="15.073483729144076"><ele>1115.0</ele><time>2026-03-28T10:55:49Z</time></trkpt><trkpt lat="37.69534434707901" lon="15.073562162935572"><ele>1115.0</ele><time>2026-03-28T10:55:49.999Z</time></trkpt><trkpt lat="37.695507301912585" lon="15.073638419597968"><ele>1115.6666666666667</ele><time>2026-03-28T10:55:50.999Z</time></trkpt><trkpt lat="37.695680531725955" lon="15.073708260527475"><ele>1116.3333333333333</ele><time>2026-03-28T10:55:51.999Z</time></trkpt><trkpt lat="37.69584739356102" lon="15.073772519720983"><ele>1117.0</ele><time>2026-03-28T10:55:52.999Z</time></trkpt><trkpt lat="37.69599530203545" lon="15.073828184950079"><ele>1117.5</ele><time>2026-03-28T10:55:53.999Z</time></trkpt><trkpt lat="37.69612767388013" lon="15.073886243630056"><ele>1118.0</ele><time>2026-03-28T10:55:54.999Z</time></trkpt><trkpt lat="37.69624360204781" lon="15.073955286127207"><ele>1118.5</ele><time>2026-03-28T10:55:55.999Z</time></trkpt><trkpt lat="37.69634567066385" lon="15.074042376677726"><ele>1119.0</ele><time>2026-03-28T10:55:56.999Z</time></trkpt><trkpt lat="37.69642269022846" lon="15.074146759141419"><ele>1116.75</ele><time>2026-03-28T10:55:57.999Z</time></trkpt><trkpt lat="37.696453456127955" lon="15.074266312077757"><ele>1114.5</ele><time>2026-03-28T10:55:58.999Z</time></trkpt><trkpt lat="37.69644756807647" lon="15.074415608472739"><ele>1112.25</ele><time>2026-03-28T10:55:59.999Z</time></trkpt><trkpt lat="37.69641350532161" lon="15.0745792120683"><ele>1110.0</ele><time>2026-03-28T10:56:00.999Z</time></trkpt><trkpt lat="37.69632693823649" lon="15.074707284874853"><ele>1110.0</ele><time>2026-03-28T10:56:01.999Z</time></trkpt><trkpt lat="37.69624550412866" lon="15.074862772127124"><ele>1110.0</ele><time>2026-03-28T10:56:02.999Z</time></trkpt><trkpt lat="37.696119879316306" lon="15.075013634680372"><ele>1110.0</ele><time>2026-03-28T10:56:03.999Z</time></trkpt><trkpt lat="37.696005361908405" lon="15.075174829607164"><ele>1108.25</ele><time>2026-03-28T10:56:04.999Z</time></trkpt><trkpt lat="37.695904477206994" lon="15.075321627356466"><ele>1106.5</ele><time>2026-03-28T10:56:05.999Z</time></trkpt><trkpt lat="37.695826455249694" lon="15.075429352956371"><ele>1104.75</ele><time>2026-03-28T10:56:06.999Z</time></trkpt><trkpt lat="37.69577179574707" lon="15.075523271209782"><ele>1103.0</ele><time>2026-03-28T10:56:07.999Z</time></trkpt><trkpt lat="37.69576742136997" lon="15.075635016994205"><ele>1103.0</ele><time>2026-03-28T10:56:08.999Z</time></trkpt><trkpt lat="37.695811841001984" lon="15.075766767614667"><ele>1103.0</ele><time>2026-03-28T10:56:09.999Z</time></trkpt><trkpt lat="37.695904742759765" lon="15.075895791495446"><ele>1103.0</ele><time>2026-03-28T10:56:10.999Z</time></trkpt><trkpt lat="37.696033034170256" lon="15.076005273829137"><ele>1103.0</ele><time>2026-03-28T10:56:11.999Z</time></trkpt><trkpt lat="37.696176648167715" lon="15.0760538913203"><ele>1102.25</ele><time>2026-03-28T10:56:12.999Z</time></trkpt><trkpt lat="37.69631175937407" lon="15.076064767259753"><ele>1101.5</ele><time>2026-03-28T10:56:13.999Z</time></trkpt><trkpt lat="37.69641846362018" lon="15.076103788727048"><ele>1100.75</ele><time>2026-03-28T10:56:14.999Z</time></trkpt><trkpt lat="37.696508924725386" lon="15.076204724608003"><ele>1100.0</ele><time>2026-03-28T10:56:15.999Z</time></trkpt><trkpt lat="37.69660052264216" lon="15.076347104541126"><ele>1100.0</ele><time>2026-03-28T10:56:16.999Z</time></trkpt><trkpt lat="37.69669144578907" lon="15.076523346139469"><ele>1100.0</ele><time>2026-03-28T10:56:17.999Z</time></trkpt><trkpt lat="37.69678793778861" lon="15.076685564453994"><ele>1100.0</ele><time>2026-03-28T10:56:18.999Z</time></trkpt><trkpt lat="37.696873978720205" lon="15.076821018806497"><ele>1098.4</ele><time>2026-03-28T10:56:19.999Z</time></trkpt><trkpt lat="37.69694847402131" lon="15.076936881068582"><ele>1096.8</ele><time>2026-03-28T10:56:20.999Z</time></trkpt><trkpt lat="37.69701184368555" lon="15.07704914312245"><ele>1095.2</ele><time>2026-03-28T10:56:21.999Z</time></trkpt><trkpt lat="37.69706620629159" lon="15.077169096883235"><ele>1093.6</ele><time>2026-03-28T10:56:22.999Z</time></trkpt><trkpt lat="37.69710045774572" lon="15.077288167061623"><ele>1092.0</ele><time>2026-03-28T10:56:23.999Z</time></trkpt><trkpt lat="37.69708824905761" lon="15.07741242517475"><ele>1089.5</ele><time>2026-03-28T10:56:24.999Z</time></trkpt><trkpt lat="37.69705263118665" lon="15.077538525823337"><ele>1087.0</ele><time>2026-03-28T10:56:25.999Z</time></trkpt><trkpt lat="37.69699818989026" lon="15.07769231811145"><ele>1084.5</ele><time>2026-03-28T10:56:26.999Z</time></trkpt><trkpt lat="37.696941403618936" lon="15.077862087362771"><ele>1082.0</ele><time>2026-03-28T10:56:27.999Z</time></trkpt><trkpt lat="37.69688481674187" lon="15.078053683977856"><ele>1081.3333333333335</ele><time>2026-03-28T10:56:28.999Z</time></trkpt><trkpt lat="37.69682916171543" lon="15.078247803010047"><ele>1080.6666666666667</ele><time>2026-03-28T10:56:29.999Z</time></trkpt><trkpt lat="37.696775843439454" lon="15.078433231445727"><ele>1080.0</ele><time>2026-03-28T10:56:30.999Z</time></trkpt><trkpt lat="37.696729877146744" lon="15.078603412623679"><ele>1077.0</ele><time>2026-03-28T10:56:31.999Z</time></trkpt><trkpt lat="37.69669697576389" lon="15.078779378317186"><ele>1074.0</ele><time>2026-03-28T10:56:32.999Z</time></trkpt><trkpt lat="37.69668532641519" lon="15.078969456745249"><ele>1071.0</ele><time>2026-03-28T10:56:33.999Z</time></trkpt><trkpt lat="37.696682633505816" lon="15.07916338268615"><ele>1068.0</ele><time>2026-03-28T10:56:34.999Z</time></trkpt><trkpt lat="37.69667927526788" lon="15.079343042687285"><ele>1066.3333333333333</ele><time>2026-03-28T10:56:35.999Z</time></trkpt><trkpt lat="37.69668875675192" lon="15.079529364696924"><ele>1064.6666666666665</ele><time>2026-03-28T10:56:36.999Z</time></trkpt><trkpt lat="37.69673070282692" lon="15.079721211333274"><ele>1063.0</ele><time>2026-03-28T10:56:37.999Z</time></trkpt><trkpt lat="37.69681314136975" lon="15.079902181790503"><ele>1063.5</ele><time>2026-03-28T10:56:38.999Z</time></trkpt><trkpt lat="37.696884801127204" lon="15.080053763344418"><ele>1064.0</ele><time>2026-03-28T10:56:39.999Z</time></trkpt><trkpt lat="37.696923069565514" lon="15.080215939895355"><ele>1064.5</ele><time>2026-03-28T10:56:40.999Z</time></trkpt><trkpt lat="37.6969256285013" lon="15.080398727969756"><ele>1065.0</ele><time>2026-03-28T10:56:41.999Z</time></trkpt><trkpt lat="37.69691585628589" lon="15.080613403102477"><ele>1059.3333333333333</ele><time>2026-03-28T10:56:42.999Z</time></trkpt><trkpt lat="37.696911996486506" lon="15.080845252562474"><ele>1053.6666666666665</ele><time>2026-03-28T10:56:43.999Z</time></trkpt><trkpt lat="37.69691073026723" lon="15.081083001841119"><ele>1048.0</ele><time>2026-03-28T10:56:44.999Z</time></trkpt><trkpt lat="37.69690653025498" lon="15.081302803926011"><ele>1048.0</ele><time>2026-03-28T10:56:45.999Z</time></trkpt><trkpt lat="37.69689741974357" lon="15.081499721117414"><ele>1048.0</ele><time>2026-03-28T10:56:46.999Z</time></trkpt><trkpt lat="37.696871027634565" lon="15.081675560446133"><ele>1048.0</ele><time>2026-03-28T10:56:47.999Z</time></trkpt><trkpt lat="37.69680690864708" lon="15.081850192384653"><ele>1044.6666666666665</ele><time>2026-03-28T10:56:48.999Z</time></trkpt><trkpt lat="37.69669700656455" lon="15.082050315011825"><ele>1041.3333333333333</ele><time>2026-03-28T10:56:49.999Z</time></trkpt><trkpt lat="37.696574660111715" lon="15.082301062233263"><ele>1038.0</ele><time>2026-03-28T10:56:51Z</time></trkpt><trkpt lat="37.696454625279415" lon="15.082553630328045"><ele>1035.0</ele><time>2026-03-28T10:56:52Z</time></trkpt><trkpt lat="37.696363245960804" lon="15.082762406130618"><ele>1032.0</ele><time>2026-03-28T10:56:53Z</time></trkpt><trkpt lat="37.69642399665389" lon="15.083024538988408"><ele>1029.0</ele><time>2026-03-28T10:56:54Z</time></trkpt><trkpt lat="37.696361147338976" lon="15.08316621966273"><ele>1029.2</ele><time>2026-03-28T10:56:55Z</time></trkpt><trkpt lat="37.6962778036303" lon="15.083268141394809"><ele>1029.4</ele><time>2026-03-28T10:56:56Z</time></trkpt><trkpt lat="37.69618537349675" lon="15.083306397001584"><ele>1029.6</ele><time>2026-03-28T10:56:57Z</time></trkpt><trkpt lat="37.696095423630986" lon="15.083295694265129"><ele>1029.8</ele><time>2026-03-28T10:56:58Z</time></trkpt><trkpt lat="37.69602158117724" lon="15.083239473390714"><ele>1030.0</ele><time>2026-03-28T10:56:59Z</time></trkpt><trkpt lat="37.69594152789713" lon="15.083143623677694"><ele>1030.0</ele><time>2026-03-28T10:57:00Z</time></trkpt><trkpt lat="37.69583342682258" lon="15.083067425777637"><ele>1030.0</ele><time>2026-03-28T10:57:01Z</time></trkpt><trkpt lat="37.695700226506055" lon="15.08303680980329"><ele>1030.0</ele><time>2026-03-28T10:57:02Z</time></trkpt><trkpt lat="37.695564243293035" lon="15.083046559037887"><ele>1030.0</ele><time>2026-03-28T10:57:03Z</time></trkpt><trkpt lat="37.69544625314273" lon="15.083062616353317"><ele>1030.0</ele><time>2026-03-28T10:57:04Z</time></trkpt><trkpt lat="37.695328176697274" lon="15.083058448775393"><ele>1030.0</ele><time>2026-03-28T10:57:05Z</time></trkpt><trkpt lat="37.69521299270373" lon="15.083020844812237"><ele>1030.0</ele><time>2026-03-28T10:57:06Z</time></trkpt><trkpt lat="37.69508744552816" lon="15.082986664480318"><ele>1030.0</ele><time>2026-03-28T10:57:07Z</time></trkpt><trkpt lat="37.6949574150391" lon="15.082943417675045"><ele>1029.75</ele><time>2026-03-28T10:57:08Z</time></trkpt><trkpt lat="37.69483504750993" lon="15.08292356903187"><ele>1029.5</ele><time>2026-03-28T10:57:09Z</time></trkpt><trkpt lat="37.69470348850579" lon="15.08292589250031"><ele>1029.25</ele><time>2026-03-28T10:57:10Z</time></trkpt><trkpt lat="37.69456319817437" lon="15.082942820517681"><ele>1029.0</ele><time>2026-03-28T10:57:11Z</time></trkpt><trkpt lat="37.69441442113443" lon="15.082962362155367"><ele>1029.5</ele><time>2026-03-28T10:57:12Z</time></trkpt><trkpt lat="37.694280135022936" lon="15.082977937331703"><ele>1030.0</ele><time>2026-03-28T10:57:13Z</time></trkpt><trkpt lat="37.6941490578883" lon="15.0829819899496"><ele>1030.5</ele><time>2026-03-28T10:57:14Z</time></trkpt><trkpt lat="37.69402710783272" lon="15.082981390811248"><ele>1031.0</ele><time>2026-03-28T10:57:15Z</time></trkpt><trkpt lat="37.69390786088462" lon="15.082983937009308"><ele>1031.0</ele><time>2026-03-28T10:57:16Z</time></trkpt><trkpt lat="37.69379375173219" lon="15.083009783512027"><ele>1031.0</ele><time>2026-03-28T10:57:17Z</time></trkpt><trkpt lat="37.6936752248351" lon="15.083064981119675"><ele>1031.0</ele><time>2026-03-28T10:57:18Z</time></trkpt><trkpt lat="37.693554247722396" lon="15.083145593842328"><ele>1031.0</ele><time>2026-03-28T10:57:19Z</time></trkpt><trkpt lat="37.6934391658305" lon="15.083223109512502"><ele>1030.75</ele><time>2026-03-28T10:57:20Z</time></trkpt><trkpt lat="37.69332191271471" lon="15.083275515819516"><ele>1030.5</ele><time>2026-03-28T10:57:21Z</time></trkpt><trkpt lat="37.69318648279811" lon="15.083283661852247"><ele>1030.25</ele><time>2026-03-28T10:57:22Z</time></trkpt><trkpt lat="37.69304328436159" lon="15.083253323714167"><ele>1030.0</ele><time>2026-03-28T10:57:23Z</time></trkpt><trkpt lat="37.69289146607849" lon="15.083210404460756"><ele>1028.5</ele><time>2026-03-28T10:57:24Z</time></trkpt><trkpt lat="37.692751351793326" lon="15.08322873446994"><ele>1027.0</ele><time>2026-03-28T10:57:25Z</time></trkpt><trkpt lat="37.69261104795447" lon="15.083284679809683"><ele>1025.5</ele><time>2026-03-28T10:57:26Z</time></trkpt><trkpt lat="37.692491391834636" lon="15.083380786020507"><ele>1024.0</ele><time>2026-03-28T10:57:27Z</time></trkpt><trkpt lat="37.692382283387936" lon="15.083475459204404"><ele>1021.25</ele><time>2026-03-28T10:57:28Z</time></trkpt><trkpt lat="37.69226306761341" lon="15.083535718007862"><ele>1018.5</ele><time>2026-03-28T10:57:29Z</time></trkpt><trkpt lat="37.69212070403816" lon="15.083562213392018"><ele>1015.75</ele><time>2026-03-28T10:57:30Z</time></trkpt><trkpt lat="37.69196759307979" lon="15.083561350757217"><ele>1013.0</ele><time>2026-03-28T10:57:31Z</time></trkpt><trkpt lat="37.69180767008411" lon="15.083581770635519"><ele>1011.5</ele><time>2026-03-28T10:57:32Z</time></trkpt><trkpt lat="37.69164819444712" lon="15.083629098722412"><ele>1010.0</ele><time>2026-03-28T10:57:33Z</time></trkpt><trkpt lat="37.69150800138134" lon="15.083690134790821"><ele>1008.5</ele><time>2026-03-28T10:57:34Z</time></trkpt><trkpt lat="37.69138076642621" lon="15.083748964773418"><ele>1007.0</ele><time>2026-03-28T10:57:35Z</time></trkpt><trkpt lat="37.691272401118674" lon="15.083811993922739"><ele>1007.0</ele><time>2026-03-28T10:57:36Z</time></trkpt><trkpt lat="37.691177746688005" lon="15.08390313113018"><ele>1007.0</ele><time>2026-03-28T10:57:37Z</time></trkpt><trkpt lat="37.69109527122484" lon="15.084020612186876"><ele>1007.0</ele><time>2026-03-28T10:57:38Z</time></trkpt><trkpt lat="37.691028890008376" lon="15.084141475711254"><ele>1007.0</ele><time>2026-03-28T10:57:39Z</time></trkpt><trkpt lat="37.690973760611854" lon="15.084246328318233"><ele>1005.0</ele><time>2026-03-28T10:57:40Z</time></trkpt><trkpt lat="37.69091846664252" lon="15.084319929041067"><ele>1003.0</ele><time>2026-03-28T10:57:41Z</time></trkpt><trkpt lat="37.69084767362135" lon="15.084367078962174"><ele>1001.0</ele><time>2026-03-28T10:57:42Z</time></trkpt><trkpt lat="37.69074446531154" lon="15.084398959375077"><ele>999.0</ele><time>2026-03-28T10:57:43Z</time></trkpt><trkpt lat="37.690622814118804" lon="15.084425769126902"><ele>997.0</ele><time>2026-03-28T10:57:44Z</time></trkpt><trkpt lat="37.690487675948035" lon="15.084456937339366"><ele>997.0</ele><time>2026-03-28T10:57:45Z</time></trkpt><trkpt lat="37.69034298721648" lon="15.084496775842643"><ele>997.0</ele><time>2026-03-28T10:57:46Z</time></trkpt><trkpt lat="37.69020197751856" lon="15.084528001827245"><ele>997.0</ele><time>2026-03-28T10:57:47Z</time></trkpt><trkpt lat="37.69004701443924" lon="15.084558658500367"><ele>997.0</ele><time>2026-03-28T10:57:48Z</time></trkpt><trkpt lat="37.68988842680697" lon="15.084609837825184"><ele>996.0</ele><time>2026-03-28T10:57:49Z</time></trkpt><trkpt lat="37.68972424529208" lon="15.084696994331257"><ele>995.0</ele><time>2026-03-28T10:57:50Z</time></trkpt><trkpt lat="37.68959477206516" lon="15.084783976914158"><ele>994.0</ele><time>2026-03-28T10:57:51Z</time></trkpt><trkpt lat="37.68944653310286" lon="15.084829504923247"><ele>994.6666666666666</ele><time>2026-03-28T10:57:52Z</time></trkpt><trkpt lat="37.68928964689174" lon="15.084849299494318"><ele>995.3333333333333</ele><time>2026-03-28T10:57:53Z</time></trkpt><trkpt lat="37.689112704475995" lon="15.08488048851984"><ele>996.0</ele><time>2026-03-28T10:57:54Z</time></trkpt><trkpt lat="37.68892892808394" lon="15.08489179217291"><ele>996.0</ele><time>2026-03-28T10:57:55Z</time></trkpt><trkpt lat="37.688736412591396" lon="15.084916561473857"><ele>996.0</ele><time>2026-03-28T10:57:56Z</time></trkpt><trkpt lat="37.68855049878474" lon="15.08495555621686"><ele>996.0</ele><time>2026-03-28T10:57:57Z</time></trkpt><trkpt lat="37.68838103716469" lon="15.085016210336988"><ele>986.6666666666667</ele><time>2026-03-28T10:57:58Z</time></trkpt><trkpt lat="37.68821219842988" lon="15.085094838252749"><ele>977.3333333333334</ele><time>2026-03-28T10:57:59Z</time></trkpt><trkpt lat="37.68805997288529" lon="15.085133294503906"><ele>968.0</ele><time>2026-03-28T10:58:00Z</time></trkpt><trkpt lat="37.687892679660465" lon="15.08510175272499"><ele>966.5</ele><time>2026-03-28T10:58:00.999Z</time></trkpt><trkpt lat="37.687732759196116" lon="15.085087180929953"><ele>965.0</ele><time>2026-03-28T10:58:01.999Z</time></trkpt><trkpt lat="37.68758914010331" lon="15.08505779494194"><ele>963.5</ele><time>2026-03-28T10:58:02.999Z</time></trkpt><trkpt lat="37.68746582210808" lon="15.08506259098681"><ele>962.0</ele><time>2026-03-28T10:58:03.999Z</time></trkpt><trkpt lat="37.6873583851514" lon="15.085116368301096"><ele>962.0</ele><time>2026-03-28T10:58:04.999Z</time></trkpt><trkpt lat="37.687250596089626" lon="15.085213773615505"><ele>962.0</ele><time>2026-03-28T10:58:05.999Z</time></trkpt><trkpt lat="37.687151424749054" lon="15.085372022488905"><ele>962.0</ele><time>2026-03-28T10:58:06.999Z</time></trkpt><trkpt lat="37.68705218919577" lon="15.085523645237643"><ele>962.0</ele><time>2026-03-28T10:58:07.999Z</time></trkpt><trkpt lat="37.68694828573102" lon="15.085616381170544"><ele>962.75</ele><time>2026-03-28T10:58:08.999Z</time></trkpt><trkpt lat="37.686849191963766" lon="15.085668628753615"><ele>963.5</ele><time>2026-03-28T10:58:09.999Z</time></trkpt><trkpt lat="37.68672099410975" lon="15.085671190391944"><ele>964.25</ele><time>2026-03-28T10:58:10.999Z</time></trkpt><trkpt lat="37.686574698456845" lon="15.085640559006599"><ele>965.0</ele><time>2026-03-28T10:58:11.999Z</time></trkpt><trkpt lat="37.686436749808394" lon="15.085631929992749"><ele>965.0</ele><time>2026-03-28T10:58:12.999Z</time></trkpt><trkpt lat="37.68630792802174" lon="15.085683534414997"><ele>965.0</ele><time>2026-03-28T10:58:13.999Z</time></trkpt><trkpt lat="37.68618610969503" lon="15.085795197124346"><ele>965.0</ele><time>2026-03-28T10:58:14.999Z</time></trkpt><trkpt lat="37.68608280589816" lon="15.085964186926018"><ele>963.6666666666667</ele><time>2026-03-28T10:58:15.999Z</time></trkpt><trkpt lat="37.68598379824483" lon="15.086179502577679"><ele>962.3333333333333</ele><time>2026-03-28T10:58:16.999Z</time></trkpt><trkpt lat="37.68587546065941" lon="15.086415201563678"><ele>961.0</ele><time>2026-03-28T10:58:17.999Z</time></trkpt><trkpt lat="37.685744993575234" lon="15.086645412351508"><ele>957.0</ele><time>2026-03-28T10:58:18.999Z</time></trkpt><trkpt lat="37.685648151435586" lon="15.086868734535988"><ele>953.0</ele><time>2026-03-28T10:58:19.999Z</time></trkpt><trkpt lat="37.685536738963265" lon="15.08705607399659"><ele>949.0</ele><time>2026-03-28T10:58:20.999Z</time></trkpt><trkpt lat="37.68545239857875" lon="15.087203524095477"><ele>949.0</ele><time>2026-03-28T10:58:21.999Z</time></trkpt><trkpt lat="37.68538102488404" lon="15.087344110045185"><ele>949.0000000000001</ele><time>2026-03-28T10:58:22.999Z</time></trkpt><trkpt lat="37.685331686101094" lon="15.087460793311513"><ele>949.0000000000001</ele><time>2026-03-28T10:58:23.999Z</time></trkpt><trkpt lat="37.685314481469696" lon="15.087586031773496"><ele>949.0</ele><time>2026-03-28T10:58:24.999Z</time></trkpt><trkpt lat="37.685349007150286" lon="15.087708822964565"><ele>949.0</ele><time>2026-03-28T10:58:25.999Z</time></trkpt><trkpt lat="37.685418921255604" lon="15.087810320837455"><ele>945.2</ele><time>2026-03-28T10:58:26.999Z</time></trkpt><trkpt lat="37.68551026262933" lon="15.087849224651928"><ele>941.4000000000001</ele><time>2026-03-28T10:58:27.999Z</time></trkpt><trkpt lat="37.68560294301329" lon="15.087839531152076"><ele>937.6</ele><time>2026-03-28T10:58:28.999Z</time></trkpt><trkpt lat="37.68569458907684" lon="15.087785051180303"><ele>933.8</ele><time>2026-03-28T10:58:29.999Z</time></trkpt><trkpt lat="37.68576934000558" lon="15.087690589852555"><ele>930.0</ele><time>2026-03-28T10:58:30.999Z</time></trkpt><trkpt lat="37.685837756949006" lon="15.087547313539467"><ele>931.75</ele><time>2026-03-28T10:58:31.999Z</time></trkpt><trkpt lat="37.68591737810248" lon="15.08738542512818"><ele>933.5</ele><time>2026-03-28T10:58:32.999Z</time></trkpt><trkpt lat="37.68599616412674" lon="15.087238519133683"><ele>935.25</ele><time>2026-03-28T10:58:33.999Z</time></trkpt><trkpt lat="37.68608454732924" lon="15.087126360470547"><ele>937.0</ele><time>2026-03-28T10:58:34.999Z</time></trkpt><trkpt lat="37.68618826191816" lon="15.087054609231691"><ele>937.0</ele><time>2026-03-28T10:58:35.999Z</time></trkpt><trkpt lat="37.68630651905946" lon="15.087042222297967"><ele>937.0</ele><time>2026-03-28T10:58:36.999Z</time></trkpt><trkpt lat="37.686446555685436" lon="15.087087247782069"><ele>937.0</ele><time>2026-03-28T10:58:37.999Z</time></trkpt><trkpt lat="37.68659904400319" lon="15.087163936708347"><ele>937.0</ele><time>2026-03-28T10:58:38.999Z</time></trkpt><trkpt lat="37.686771406053886" lon="15.08725361601705"><ele>937.0</ele><time>2026-03-28T10:58:39.999Z</time></trkpt><trkpt lat="37.68695432891421" lon="15.087345765959299"><ele>937.0</ele><time>2026-03-28T10:58:40.999Z</time></trkpt><trkpt lat="37.68712490524297" lon="15.087416597485356"><ele>937.0</ele><time>2026-03-28T10:58:41.999Z</time></trkpt><trkpt lat="37.687307562494425" lon="15.087447303148943"><ele>937.0</ele><time>2026-03-28T10:58:42.999Z</time></trkpt><trkpt lat="37.68751205753302" lon="15.087436515281528"><ele>937.0</ele><time>2026-03-28T10:58:43.999Z</time></trkpt><trkpt lat="37.687723402770885" lon="15.087371664592407"><ele>937.0</ele><time>2026-03-28T10:58:44.999Z</time></trkpt><trkpt lat="37.68791098933084" lon="15.087287642609207"><ele>934.0</ele><time>2026-03-28T10:58:45.999Z</time></trkpt><trkpt lat="37.688086780207854" lon="15.087197344480787"><ele>931.0</ele><time>2026-03-28T10:58:46.999Z</time></trkpt><trkpt lat="37.68824892778543" lon="15.087117267662276"><ele>928.0</ele><time>2026-03-28T10:58:47.999Z</time></trkpt><trkpt lat="37.68838337064176" lon="15.087079168857132"><ele>928.0</ele><time>2026-03-28T10:58:48.999Z</time></trkpt><trkpt lat="37.6885180130327" lon="15.087084221614084"><ele>928.0</ele><time>2026-03-28T10:58:49.999Z</time></trkpt><trkpt lat="37.6886590178321" lon="15.087135084895102"><ele>928.0</ele><time>2026-03-28T10:58:50.999Z</time></trkpt><trkpt lat="37.688813560289134" lon="15.087225764822017"><ele>925.6666666666666</ele><time>2026-03-28T10:58:51.999Z</time></trkpt><trkpt lat="37.68898176790698" lon="15.087333694659831"><ele>923.3333333333333</ele><time>2026-03-28T10:58:52.999Z</time></trkpt><trkpt lat="37.68917041633389" lon="15.087440516929822"><ele>921.0</ele><time>2026-03-28T10:58:53.999Z</time></trkpt><trkpt lat="37.68937292194454" lon="15.087550094767675"><ele>916.6666666666667</ele><time>2026-03-28T10:58:54.999Z</time></trkpt><trkpt lat="37.68955262479231" lon="15.087648463874254"><ele>912.3333333333334</ele><time>2026-03-28T10:58:55.999Z</time></trkpt><trkpt lat="37.68969138184374" lon="15.087730652115907"><ele>908.0</ele><time>2026-03-28T10:58:57Z</time></trkpt><trkpt lat="37.68980928331445" lon="15.08782159711747"><ele>908.0</ele><time>2026-03-28T10:58:58Z</time></trkpt><trkpt lat="37.68990540884906" lon="15.08794592814343"><ele>908.0</ele><time>2026-03-28T10:58:59Z</time></trkpt><trkpt lat="37.68997584147313" lon="15.088114592505361"><ele>908.0</ele><time>2026-03-28T10:59:00Z</time></trkpt><trkpt lat="37.69001512354318" lon="15.088304892014365"><ele>908.0</ele><time>2026-03-28T10:59:01Z</time></trkpt><trkpt lat="37.69005026861251" lon="15.088487706620894"><ele>906.6666666666667</ele><time>2026-03-28T10:59:02Z</time></trkpt><trkpt lat="37.69011971280616" lon="15.08866294347078"><ele>905.3333333333333</ele><time>2026-03-28T10:59:03Z</time></trkpt><trkpt lat="37.690239941927345" lon="15.08882075334663"><ele>904.0</ele><time>2026-03-28T10:59:04Z</time></trkpt><trkpt lat="37.69039638104834" lon="15.08898495518327"><ele>894.0</ele><time>2026-03-28T10:59:05Z</time></trkpt><trkpt lat="37.690565690875246" lon="15.089170989196303"><ele>884.0</ele><time>2026-03-28T10:59:06Z</time></trkpt><trkpt lat="37.69073671455386" lon="15.089365033607095"><ele>884.0</ele><time>2026-03-28T10:59:07Z</time></trkpt><trkpt lat="37.69090638338877" lon="15.089549968720826"><ele>884.0</ele><time>2026-03-28T10:59:08Z</time></trkpt><trkpt lat="37.69107777313696" lon="15.089706379337649"><ele>884.0</ele><time>2026-03-28T10:59:09Z</time></trkpt><trkpt lat="37.6912681542663" lon="15.0898304526052"><ele>879.5</ele><time>2026-03-28T10:59:10Z</time></trkpt><trkpt lat="37.691486349691694" lon="15.08994926555995"><ele>875.0</ele><time>2026-03-28T10:59:11Z</time></trkpt><trkpt lat="37.69170915999836" lon="15.09006957540831"><ele>875.0</ele><time>2026-03-28T10:59:12Z</time></trkpt><trkpt lat="37.69191740871922" lon="15.090186612763814"><ele>875.0</ele><time>2026-03-28T10:59:13Z</time></trkpt><trkpt lat="37.69211460887395" lon="15.09029768074953"><ele>875.0</ele><time>2026-03-28T10:59:14Z</time></trkpt><trkpt lat="37.69230875923753" lon="15.090401090733586"><ele>877.0</ele><time>2026-03-28T10:59:15Z</time></trkpt><trkpt lat="37.69250426831057" lon="15.090486689173705"><ele>879.0</ele><time>2026-03-28T10:59:16Z</time></trkpt><trkpt lat="37.692713662166376" lon="15.090540723473653"><ele>881.0</ele><time>2026-03-28T10:59:17Z</time></trkpt><trkpt lat="37.692912492900234" lon="15.090573424365912"><ele>883.0</ele><time>2026-03-28T10:59:18Z</time></trkpt><trkpt lat="37.69308210746152" lon="15.090607556803493"><ele>885.0</ele><time>2026-03-28T10:59:19Z</time></trkpt><trkpt lat="37.693221296642015" lon="15.09063739537619"><ele>887.0</ele><time>2026-03-28T10:59:20Z</time></trkpt><trkpt lat="37.69333762582301" lon="15.090656112967874"><ele>889.0</ele><time>2026-03-28T10:59:21Z</time></trkpt><trkpt lat="37.693437194353464" lon="15.090668122552255"><ele>889.0</ele><time>2026-03-28T10:59:22Z</time></trkpt><trkpt lat="37.69352228509626" lon="15.09068459956204"><ele>889.0000000000001</ele><time>2026-03-28T10:59:23Z</time></trkpt><trkpt lat="37.69358631230151" lon="15.090791246928308"><ele>889.0000000000001</ele><time>2026-03-28T10:59:25Z</time></trkpt><trkpt lat="37.69350590026045" lon="15.090867726793299"><ele>889.0</ele><time>2026-03-28T10:59:27Z</time></trkpt><trkpt lat="37.69343404610009" lon="15.090817940157882"><ele>889.0</ele><time>2026-03-28T10:59:28Z</time></trkpt><trkpt lat="37.693333358518416" lon="15.090809419698688"><ele>881.0</ele><time>2026-03-28T10:59:29Z</time></trkpt><trkpt lat="37.69320380736135" lon="15.0907903205391"><ele>873.0</ele><time>2026-03-28T10:59:30Z</time></trkpt><trkpt lat="37.693053164253186" lon="15.090782342029494"><ele>865.0</ele><time>2026-03-28T10:59:31Z</time></trkpt><trkpt lat="37.69289917390059" lon="15.090794532898304"><ele>857.0</ele><time>2026-03-28T10:59:32Z</time></trkpt><trkpt lat="37.69275979610455" lon="15.090843930945235"><ele>856.5</ele><time>2026-03-28T10:59:33Z</time></trkpt><trkpt lat="37.692630238642536" lon="15.09092004770808"><ele>856.0</ele><time>2026-03-28T10:59:34Z</time></trkpt><trkpt lat="37.69249833691761" lon="15.090971182385642"><ele>855.5</ele><time>2026-03-28T10:59:35Z</time></trkpt><trkpt lat="37.692364027842835" lon="15.090966091683537"><ele>855.0</ele><time>2026-03-28T10:59:36Z</time></trkpt><trkpt lat="37.69221872570204" lon="15.090936101774275"><ele>855.0</ele><time>2026-03-28T10:59:37Z</time></trkpt><trkpt lat="37.69207881022773" lon="15.090903389254558"><ele>855.0</ele><time>2026-03-28T10:59:38Z</time></trkpt><trkpt lat="37.69194457038914" lon="15.090892726073479"><ele>855.0</ele><time>2026-03-28T10:59:39Z</time></trkpt><trkpt lat="37.691816171571645" lon="15.090912467868286"><ele>855.0</ele><time>2026-03-28T10:59:40Z</time></trkpt><trkpt lat="37.69169254010068" lon="15.090973238428317"><ele>854.25</ele><time>2026-03-28T10:59:41Z</time></trkpt><trkpt lat="37.69158249937659" lon="15.091061088758499"><ele>853.5</ele><time>2026-03-28T10:59:42Z</time></trkpt><trkpt lat="37.69148881448816" lon="15.091165077679648"><ele>852.75</ele><time>2026-03-28T10:59:43Z</time></trkpt><trkpt lat="37.69141088228597" lon="15.091267800389932"><ele>852.0</ele><time>2026-03-28T10:59:44Z</time></trkpt><trkpt lat="37.69133867006417" lon="15.091350656941538"><ele>852.0</ele><time>2026-03-28T10:59:45Z</time></trkpt><trkpt lat="37.69126925615616" lon="15.091423978121021"><ele>852.0</ele><time>2026-03-28T10:59:46Z</time></trkpt><trkpt lat="37.691199751861994" lon="15.09148421742992"><ele>852.0</ele><time>2026-03-28T10:59:47Z</time></trkpt><trkpt lat="37.691111922824646" lon="15.09152155527698"><ele>852.0</ele><time>2026-03-28T10:59:48Z</time></trkpt><trkpt lat="37.69100495798901" lon="15.09149746260373"><ele>852.0</ele><time>2026-03-28T10:59:49Z</time></trkpt><trkpt lat="37.69089401173422" lon="15.09150918385608"><ele>851.6</ele><time>2026-03-28T10:59:50Z</time></trkpt><trkpt lat="37.6907739414206" lon="15.091497953143092"><ele>851.2</ele><time>2026-03-28T10:59:51Z</time></trkpt><trkpt lat="37.69065885492671" lon="15.09147606708208"><ele>850.8</ele><time>2026-03-28T10:59:52Z</time></trkpt><trkpt lat="37.69055616416603" lon="15.091431260983757"><ele>850.4</ele><time>2026-03-28T10:59:53Z</time></trkpt><trkpt lat="37.690473221457914" lon="15.091367934159765"><ele>850.0</ele><time>2026-03-28T10:59:54Z</time></trkpt><trkpt lat="37.69039512343964" lon="15.091310195789989"><ele>850.0</ele><time>2026-03-28T10:59:55Z</time></trkpt><trkpt lat="37.690311753658726" lon="15.09127201919267"><ele>850.0</ele><time>2026-03-28T10:59:56Z</time></trkpt><trkpt lat="37.690216802648216" lon="15.091255476535384"><ele>850.0</ele><time>2026-03-28T10:59:57Z</time></trkpt><trkpt lat="37.69010635290264" lon="15.091255363646809"><ele>850.0</ele><time>2026-03-28T10:59:58Z</time></trkpt><trkpt lat="37.68998710917373" lon="15.091276877668237"><ele>850.0</ele><time>2026-03-28T10:59:59Z</time></trkpt><trkpt lat="37.68987133241121" lon="15.091311956062908"><ele>847.25</ele><time>2026-03-28T11:00:00Z</time></trkpt><trkpt lat="37.68976020175475" lon="15.091333874315529"><ele>844.5</ele><time>2026-03-28T11:00:01Z</time></trkpt><trkpt lat="37.68963594623565" lon="15.091318537834145"><ele>841.75</ele><time>2026-03-28T11:00:02Z</time></trkpt><trkpt lat="37.6895002141211" lon="15.091271580273583"><ele>839.0</ele><time>2026-03-28T11:00:03Z</time></trkpt><trkpt lat="37.6893838735275" lon="15.091215819140734"><ele>836.6</ele><time>2026-03-28T11:00:04Z</time></trkpt><trkpt lat="37.68927829067528" lon="15.091162969642358"><ele>834.2</ele><time>2026-03-28T11:00:05Z</time></trkpt><trkpt lat="37.68917763178281" lon="15.09111589430938"><ele>831.8000000000001</ele><time>2026-03-28T11:00:05.999Z</time></trkpt><trkpt lat="37.68908196335064" lon="15.09107108808345"><ele>829.4000000000001</ele><time>2026-03-28T11:00:06.999Z</time></trkpt><trkpt lat="37.68898687369357" lon="15.091026658671085"><ele>827.0</ele><time>2026-03-28T11:00:07.999Z</time></trkpt><trkpt lat="37.68889363840194" lon="15.090980951216647"><ele>827.0</ele><time>2026-03-28T11:00:08.999Z</time></trkpt><trkpt lat="37.68880053077068" lon="15.090930681960531"><ele>827.0</ele><time>2026-03-28T11:00:09.999Z</time></trkpt><trkpt lat="37.688708790006075" lon="15.090878491858254"><ele>827.0</ele><time>2026-03-28T11:00:10.999Z</time></trkpt><trkpt lat="37.688615710031414" lon="15.090825314085368"><ele>827.0</ele><time>2026-03-28T11:00:11.999Z</time></trkpt><trkpt lat="37.68852252725228" lon="15.090789239718266"><ele>827.0</ele><time>2026-03-28T11:00:12.999Z</time></trkpt><trkpt lat="37.68843595226921" lon="15.090802856020924"><ele>827.4000000000001</ele><time>2026-03-28T11:00:13.999Z</time></trkpt><trkpt lat="37.688358240615585" lon="15.09086426296162"><ele>827.8000000000001</ele><time>2026-03-28T11:00:14.999Z</time></trkpt><trkpt lat="37.68829530108603" lon="15.09096801631741"><ele>828.2</ele><time>2026-03-28T11:00:15.999Z</time></trkpt><trkpt lat="37.688257295733216" lon="15.091104395565958"><ele>828.6</ele><time>2026-03-28T11:00:16.999Z</time></trkpt><trkpt lat="37.68823262952113" lon="15.0912514006524"><ele>829.0</ele><time>2026-03-28T11:00:17.999Z</time></trkpt><trkpt lat="37.68820179720285" lon="15.091398154706651"><ele>829.0</ele><time>2026-03-28T11:00:18.999Z</time></trkpt><trkpt lat="37.68816282220891" lon="15.09153221743588"><ele>829.0</ele><time>2026-03-28T11:00:19.999Z</time></trkpt><trkpt lat="37.68810000263274" lon="15.0916473279305"><ele>829.0</ele><time>2026-03-28T11:00:20.999Z</time></trkpt><trkpt lat="37.688010482952166" lon="15.091746939023938"><ele>829.0</ele><time>2026-03-28T11:00:21.999Z</time></trkpt><trkpt lat="37.68791819236194" lon="15.091844875162527"><ele>825.0</ele><time>2026-03-28T11:00:22.999Z</time></trkpt><trkpt lat="37.68785897972289" lon="15.091959177134642"><ele>821.0</ele><time>2026-03-28T11:00:23.999Z</time></trkpt><trkpt lat="37.68783883240843" lon="15.09209091423199"><ele>817.0</ele><time>2026-03-28T11:00:24.999Z</time></trkpt><trkpt lat="37.68783485764118" lon="15.092227925201318"><ele>813.0</ele><time>2026-03-28T11:00:25.999Z</time></trkpt><trkpt lat="37.687837994415325" lon="15.092378192994383"><ele>809.0</ele><time>2026-03-28T11:00:26.999Z</time></trkpt><trkpt lat="37.68783575985949" lon="15.092514483195663"><ele>807.75</ele><time>2026-03-28T11:00:27.999Z</time></trkpt><trkpt lat="37.68780607435488" lon="15.092636903538008"><ele>806.5</ele><time>2026-03-28T11:00:28.999Z</time></trkpt><trkpt lat="37.68774191457274" lon="15.092747533914613"><ele>805.25</ele><time>2026-03-28T11:00:29.999Z</time></trkpt><trkpt lat="37.68764679501007" lon="15.092837453015393"><ele>804.0</ele><time>2026-03-28T11:00:30.999Z</time></trkpt><trkpt lat="37.6875250476531" lon="15.092917295006014"><ele>804.0</ele><time>2026-03-28T11:00:31.999Z</time></trkpt><trkpt lat="37.6874018239584" lon="15.093002224128844"><ele>804.0</ele><time>2026-03-28T11:00:32.999Z</time></trkpt><trkpt lat="37.68729416365304" lon="15.09307679967432"><ele>804.0</ele><time>2026-03-28T11:00:33.999Z</time></trkpt><trkpt lat="37.687203064768646" lon="15.093156348889996"><ele>804.0</ele><time>2026-03-28T11:00:34.999Z</time></trkpt><trkpt lat="37.68713254023627" lon="15.093258409369566"><ele>804.8000000000001</ele><time>2026-03-28T11:00:35.999Z</time></trkpt><trkpt lat="37.68707793060655" lon="15.09338055756586"><ele>805.6</ele><time>2026-03-28T11:00:36.999Z</time></trkpt><trkpt lat="37.68703587352826" lon="15.093505280782209"><ele>806.4</ele><time>2026-03-28T11:00:37.999Z</time></trkpt><trkpt lat="37.68699979741581" lon="15.0936260076176"><ele>807.2</ele><time>2026-03-28T11:00:38.999Z</time></trkpt><trkpt lat="37.68695995879211" lon="15.093745439836109"><ele>808.0</ele><time>2026-03-28T11:00:39.999Z</time></trkpt><trkpt lat="37.6869100343022" lon="15.09385110992638"><ele>808.0</ele><time>2026-03-28T11:00:40.999Z</time></trkpt><trkpt lat="37.68684090865737" lon="15.093934567096518"><ele>808.0</ele><time>2026-03-28T11:00:41.999Z</time></trkpt><trkpt lat="37.686746750194466" lon="15.093998264086318"><ele>808.0</ele><time>2026-03-28T11:00:42.999Z</time></trkpt><trkpt lat="37.686636322518176" lon="15.094046817519175"><ele>808.0</ele><time>2026-03-28T11:00:43.999Z</time></trkpt><trkpt lat="37.68653651027735" lon="15.094085003213662"><ele>808.0</ele><time>2026-03-28T11:00:44.999Z</time></trkpt><trkpt lat="37.686448980609974" lon="15.094146584248936"><ele>804.2</ele><time>2026-03-28T11:00:45.999Z</time></trkpt><trkpt lat="37.686381923641285" lon="15.094234440071315"><ele>800.4</ele><time>2026-03-28T11:00:46.999Z</time></trkpt><trkpt lat="37.68632667780964" lon="15.09433479553506"><ele>796.6</ele><time>2026-03-28T11:00:47.999Z</time></trkpt><trkpt lat="37.68627947815274" lon="15.094439629522368"><ele>792.8000000000001</ele><time>2026-03-28T11:00:48.999Z</time></trkpt><trkpt lat="37.68623411794536" lon="15.094540666477158"><ele>789.0</ele><time>2026-03-28T11:00:49.999Z</time></trkpt><trkpt lat="37.68617613631446" lon="15.094625798775223"><ele>789.0</ele><time>2026-03-28T11:00:50.999Z</time></trkpt><trkpt lat="37.68610359870925" lon="15.094695438802923"><ele>789.0</ele><time>2026-03-28T11:00:51.999Z</time></trkpt><trkpt lat="37.68602277867008" lon="15.094742195726768"><ele>789.0</ele><time>2026-03-28T11:00:52.999Z</time></trkpt><trkpt lat="37.685946014940825" lon="15.094782608641585"><ele>789.0</ele><time>2026-03-28T11:00:53.999Z</time></trkpt><trkpt lat="37.68588048345998" lon="15.094821856173388"><ele>789.0</ele><time>2026-03-28T11:00:54.999Z</time></trkpt><trkpt lat="37.685821299969696" lon="15.09485438465652"><ele>789.0</ele><time>2026-03-28T11:00:55.999Z</time></trkpt><trkpt lat="37.685731002446865" lon="15.0949064118251"><ele>786.2</ele><time>2026-03-28T11:00:57.999Z</time></trkpt><trkpt lat="37.685634355165156" lon="15.094945037018462"><ele>783.4000000000001</ele><time>2026-03-28T11:00:59.999Z</time></trkpt><trkpt lat="37.68554098308259" lon="15.094997731137378"><ele>780.6</ele><time>2026-03-28T11:01:01.999Z</time></trkpt><trkpt lat="37.68551696324466" lon="15.095100934392127"><ele>777.8</ele><time>2026-03-28T11:01:04Z</time></trkpt><trkpt lat="37.68555563160388" lon="15.095200439813071"><ele>775.0</ele><time>2026-03-28T11:01:06Z</time></trkpt><trkpt lat="37.685660407139636" lon="15.095156163227564"><ele>775.0</ele><time>2026-03-28T11:01:07Z</time></trkpt><trkpt lat="37.68574068444357" lon="15.0951089702708"><ele>775.0</ele><time>2026-03-28T11:01:08Z</time></trkpt><trkpt lat="37.68583424448701" lon="15.095059317283555"><ele>775.0</ele><time>2026-03-28T11:01:09Z</time></trkpt><trkpt lat="37.68593783430357" lon="15.095010467415927"><ele>775.0</ele><time>2026-03-28T11:01:10Z</time></trkpt><trkpt lat="37.68600588301528" lon="15.094972857090688"><ele>775.0</ele><time>2026-03-28T11:01:11Z</time></trkpt><trkpt lat="37.686109146978254" lon="15.094940338132142"><ele>777.3333333333333</ele><time>2026-03-28T11:01:12Z</time></trkpt><trkpt lat="37.686203074937275" lon="15.09491058828805"><ele>779.6666666666666</ele><time>2026-03-28T11:01:13Z</time></trkpt><trkpt lat="37.68629021169884" lon="15.094878873377924"><ele>782.0</ele><time>2026-03-28T11:01:14Z</time></trkpt><trkpt lat="37.68636681481024" lon="15.0948497209758"><ele>784.3333333333333</ele><time>2026-03-28T11:01:15Z</time></trkpt><trkpt lat="37.68644291403466" lon="15.094824560203369"><ele>786.6666666666666</ele><time>2026-03-28T11:01:16Z</time></trkpt><trkpt lat="37.686520484537986" lon="15.094815382938535"><ele>789.0</ele><time>2026-03-28T11:01:17Z</time></trkpt><trkpt lat="37.68659866576423" lon="15.094846847257514"><ele>784.0</ele><time>2026-03-28T11:01:18Z</time></trkpt><trkpt lat="37.68668217667209" lon="15.094928560444224"><ele>779.0</ele><time>2026-03-28T11:01:19Z</time></trkpt><trkpt lat="37.68677322775521" lon="15.095027155419583"><ele>774.0</ele><time>2026-03-28T11:01:20Z</time></trkpt><trkpt lat="37.68686797359583" lon="15.095108469677086"><ele>769.0</ele><time>2026-03-28T11:01:21Z</time></trkpt><trkpt lat="37.68696672982668" lon="15.095152745094763"><ele>764.0</ele><time>2026-03-28T11:01:22Z</time></trkpt><trkpt lat="37.687068375177425" lon="15.095147838726062"><ele>762.6</ele><time>2026-03-28T11:01:23Z</time></trkpt><trkpt lat="37.68716421996789" lon="15.095103532508046"><ele>761.2</ele><time>2026-03-28T11:01:24Z</time></trkpt><trkpt lat="37.68725528394198" lon="15.095034893357987"><ele>759.8000000000001</ele><time>2026-03-28T11:01:25Z</time></trkpt><trkpt lat="37.68734812434288" lon="15.094976471990087"><ele>758.4000000000001</ele><time>2026-03-28T11:01:26Z</time></trkpt><trkpt lat="37.687445317070704" lon="15.094939960834552"><ele>757.0</ele><time>2026-03-28T11:01:27Z</time></trkpt><trkpt lat="37.68754663152347" lon="15.094946965072042"><ele>757.0</ele><time>2026-03-28T11:01:28Z</time></trkpt><trkpt lat="37.68764730949103" lon="15.094989309652659"><ele>757.0</ele><time>2026-03-28T11:01:29Z</time></trkpt><trkpt lat="37.68775417563871" lon="15.095030763377915"><ele>757.0</ele><time>2026-03-28T11:01:30Z</time></trkpt><trkpt lat="37.68788603680914" lon="15.09504609697764"><ele>757.0</ele><time>2026-03-28T11:01:31Z</time></trkpt><trkpt lat="37.68802402917227" lon="15.095039831152782"><ele>755.2</ele><time>2026-03-28T11:01:32Z</time></trkpt><trkpt lat="37.68814332619405" lon="15.095021346768506"><ele>753.4000000000001</ele><time>2026-03-28T11:01:33Z</time></trkpt><trkpt lat="37.68825424199673" lon="15.095010741772192"><ele>751.5999999999999</ele><time>2026-03-28T11:01:34Z</time></trkpt><trkpt lat="37.6883600506119" lon="15.095005128061443"><ele>749.8</ele><time>2026-03-28T11:01:35Z</time></trkpt><trkpt lat="37.68845678091938" lon="15.095004623822163"><ele>748.0</ele><time>2026-03-28T11:01:36Z</time></trkpt><trkpt lat="37.68854509521147" lon="15.095004098146328"><ele>748.0</ele><time>2026-03-28T11:01:37Z</time></trkpt><trkpt lat="37.688630330159626" lon="15.095008672625283"><ele>748.0</ele><time>2026-03-28T11:01:38Z</time></trkpt><trkpt lat="37.68871563600002" lon="15.095044912017771"><ele>748.0</ele><time>2026-03-28T11:01:39Z</time></trkpt><trkpt lat="37.68879477595169" lon="15.095106998053373"><ele>748.0</ele><time>2026-03-28T11:01:40Z</time></trkpt><trkpt lat="37.688864384056764" lon="15.095198470028246"><ele>748.0</ele><time>2026-03-28T11:01:41Z</time></trkpt><trkpt lat="37.68893972572285" lon="15.095274822423631"><ele>748.0</ele><time>2026-03-28T11:01:42Z</time></trkpt><trkpt lat="37.689027790299335" lon="15.095339572788848"><ele>748.0</ele><time>2026-03-28T11:01:43Z</time></trkpt><trkpt lat="37.689101596525916" lon="15.095408163169443"><ele>748.0</ele><time>2026-03-28T11:01:44Z</time></trkpt><trkpt lat="37.68918370622316" lon="15.095462586816213"><ele>748.0</ele><time>2026-03-28T11:01:45Z</time></trkpt><trkpt lat="37.68926942055958" lon="15.095509740298779"><ele>748.0</ele><time>2026-03-28T11:01:46Z</time></trkpt><trkpt lat="37.6893636811181" lon="15.095542227084984"><ele>746.5</ele><time>2026-03-28T11:01:47Z</time></trkpt><trkpt lat="37.68946391783743" lon="15.095550785347958"><ele>745.0</ele><time>2026-03-28T11:01:48Z</time></trkpt><trkpt lat="37.68958326096122" lon="15.095521280703881"><ele>743.5</ele><time>2026-03-28T11:01:49Z</time></trkpt><trkpt lat="37.68970027115272" lon="15.095480252905118"><ele>742.0</ele><time>2026-03-28T11:01:50Z</time></trkpt><trkpt lat="37.68983571149253" lon="15.095444842640433"><ele>742.0</ele><time>2026-03-28T11:01:51Z</time></trkpt><trkpt lat="37.689982748216885" lon="15.095413634270894"><ele>742.0</ele><time>2026-03-28T11:01:52Z</time></trkpt><trkpt lat="37.6901106329522" lon="15.09535978481398"><ele>742.0</ele><time>2026-03-28T11:01:53Z</time></trkpt><trkpt lat="37.69023846280921" lon="15.095304810781295"><ele>742.0</ele><time>2026-03-28T11:01:54Z</time></trkpt><trkpt lat="37.69035076136015" lon="15.095233234897606"><ele>740.4000000000001</ele><time>2026-03-28T11:01:55Z</time></trkpt><trkpt lat="37.690442836613556" lon="15.09517659908519"><ele>738.8000000000001</ele><time>2026-03-28T11:01:56Z</time></trkpt><trkpt lat="37.690527054121766" lon="15.095134943083092"><ele>737.2</ele><time>2026-03-28T11:01:57Z</time></trkpt><trkpt lat="37.69062609383435" lon="15.095157973929028"><ele>735.6</ele><time>2026-03-28T11:01:58Z</time></trkpt><trkpt lat="37.69071819752923" lon="15.09522406444181"><ele>734.0</ele><time>2026-03-28T11:01:59Z</time></trkpt><trkpt lat="37.69081034706818" lon="15.095323514107903"><ele>734.0</ele><time>2026-03-28T11:02:00Z</time></trkpt><trkpt lat="37.69090852554914" lon="15.095431555531764"><ele>734.0</ele><time>2026-03-28T11:02:01Z</time></trkpt><trkpt lat="37.69101309057107" lon="15.095521601892582"><ele>734.0</ele><time>2026-03-28T11:02:02Z</time></trkpt><trkpt lat="37.69112011186019" lon="15.095571193518238"><ele>734.0</ele><time>2026-03-28T11:02:03Z</time></trkpt><trkpt lat="37.691235543085476" lon="15.095595622846139"><ele>732.75</ele><time>2026-03-28T11:02:04Z</time></trkpt><trkpt lat="37.691361798181525" lon="15.095597590499734"><ele>731.5</ele><time>2026-03-28T11:02:05Z</time></trkpt><trkpt lat="37.691495090281116" lon="15.095607472790418"><ele>730.25</ele><time>2026-03-28T11:02:06Z</time></trkpt><trkpt lat="37.691622850169246" lon="15.095649809688625"><ele>729.0</ele><time>2026-03-28T11:02:07Z</time></trkpt><trkpt lat="37.69176096334359" lon="15.095711930734014"><ele>722.0</ele><time>2026-03-28T11:02:07.999Z</time></trkpt><trkpt lat="37.69191530390659" lon="15.095777395492487"><ele>715.0</ele><time>2026-03-28T11:02:08.999Z</time></trkpt><trkpt lat="37.69208551965795" lon="15.09584635776785"><ele>708.0</ele><time>2026-03-28T11:02:09.999Z</time></trkpt><trkpt lat="37.692254620682206" lon="15.095912009485476"><ele>708.0</ele><time>2026-03-28T11:02:10.999Z</time></trkpt><trkpt lat="37.69241947794822" lon="15.095981766417305"><ele>708.0</ele><time>2026-03-28T11:02:11.999Z</time></trkpt><trkpt lat="37.692570327772174" lon="15.09604276475353"><ele>708.0</ele><time>2026-03-28T11:02:12.999Z</time></trkpt><trkpt lat="37.69271919803511" lon="15.096103691618488"><ele>708.75</ele><time>2026-03-28T11:02:13.999Z</time></trkpt><trkpt lat="37.692856667139075" lon="15.096163208307358"><ele>709.5</ele><time>2026-03-28T11:02:14.999Z</time></trkpt><trkpt lat="37.69298485896747" lon="15.09621863982603"><ele>710.25</ele><time>2026-03-28T11:02:15.999Z</time></trkpt><trkpt lat="37.69310857235448" lon="15.096275925043283"><ele>711.0</ele><time>2026-03-28T11:02:16.999Z</time></trkpt><trkpt lat="37.6932239095331" lon="15.096349410030735"><ele>711.0</ele><time>2026-03-28T11:02:17.999Z</time></trkpt><trkpt lat="37.69331911676105" lon="15.096449272415152"><ele>711.0</ele><time>2026-03-28T11:02:18.999Z</time></trkpt><trkpt lat="37.693397439505084" lon="15.096567362049216"><ele>711.0</ele><time>2026-03-28T11:02:19.999Z</time></trkpt><trkpt lat="37.69346354213919" lon="15.096696014228485"><ele>711.0</ele><time>2026-03-28T11:02:20.999Z</time></trkpt><trkpt lat="37.69353309897872" lon="15.096824273186112"><ele>705.5</ele><time>2026-03-28T11:02:21.999Z</time></trkpt><trkpt lat="37.69360514310069" lon="15.096943761658896"><ele>700.0</ele><time>2026-03-28T11:02:22.999Z</time></trkpt><trkpt lat="37.69368075478956" lon="15.097062701188683"><ele>694.5</ele><time>2026-03-28T11:02:23.999Z</time></trkpt><trkpt lat="37.69375508116994" lon="15.097178446968611"><ele>689.0</ele><time>2026-03-28T11:02:24.999Z</time></trkpt><trkpt lat="37.69382428584781" lon="15.097287012133476"><ele>689.0</ele><time>2026-03-28T11:02:25.999Z</time></trkpt><trkpt lat="37.69389415527476" lon="15.0973917394833"><ele>689.0</ele><time>2026-03-28T11:02:26.999Z</time></trkpt><trkpt lat="37.69396947280553" lon="15.097492480335465"><ele>689.0</ele><time>2026-03-28T11:02:27.999Z</time></trkpt><trkpt lat="37.69406142142183" lon="15.097571245040053"><ele>689.0</ele><time>2026-03-28T11:02:28.999Z</time></trkpt><trkpt lat="37.69416868527954" lon="15.097624542864299"><ele>689.0</ele><time>2026-03-28T11:02:29.999Z</time></trkpt><trkpt lat="37.69428722561774" lon="15.097650801188767"><ele>686.5</ele><time>2026-03-28T11:02:30.999Z</time></trkpt><trkpt lat="37.6944125456372" lon="15.097646574014258"><ele>684.0</ele><time>2026-03-28T11:02:31.999Z</time></trkpt><trkpt lat="37.694541843176644" lon="15.097617075193128"><ele>681.5</ele><time>2026-03-28T11:02:32.999Z</time></trkpt><trkpt lat="37.69466479983573" lon="15.097570065085407"><ele>679.0</ele><time>2026-03-28T11:02:33.999Z</time></trkpt><trkpt lat="37.69478379701557" lon="15.097516603617523"><ele>679.8000000000001</ele><time>2026-03-28T11:02:34.999Z</time></trkpt><trkpt lat="37.69489952619785" lon="15.097466382749209"><ele>680.6</ele><time>2026-03-28T11:02:35.999Z</time></trkpt><trkpt lat="37.69500508080297" lon="15.097427208830116"><ele>681.4</ele><time>2026-03-28T11:02:36.999Z</time></trkpt><trkpt lat="37.69510108636829" lon="15.097390302311712"><ele>682.2</ele><time>2026-03-28T11:02:37.999Z</time></trkpt><trkpt lat="37.69518425898438" lon="15.097355258024301"><ele>683.0</ele><time>2026-03-28T11:02:38.999Z</time></trkpt><trkpt lat="37.695251672139165" lon="15.097328821237017"><ele>681.2</ele><time>2026-03-28T11:02:39.999Z</time></trkpt><trkpt lat="37.69535741649602" lon="15.097325600728736"><ele>679.4</ele><time>2026-03-28T11:02:41.999Z</time></trkpt><trkpt lat="37.6953967931313" lon="15.09744253013066"><ele>677.6</ele><time>2026-03-28T11:02:43.999Z</time></trkpt><trkpt lat="37.69532443006591" lon="15.09758909119413"><ele>675.8000000000001</ele><time>2026-03-28T11:02:45.999Z</time></trkpt><trkpt lat="37.69525158419169" lon="15.097674339507728"><ele>674.0</ele><time>2026-03-28T11:02:46.999Z</time></trkpt><trkpt lat="37.69517127869261" lon="15.097774421389788"><ele>673.0</ele><time>2026-03-28T11:02:47.999Z</time></trkpt><trkpt lat="37.69510320515229" lon="15.09788659630379"><ele>672.0</ele><time>2026-03-28T11:02:48.999Z</time></trkpt><trkpt lat="37.69504168854352" lon="15.098011115334874"><ele>671.0</ele><time>2026-03-28T11:02:49.999Z</time></trkpt><trkpt lat="37.694989309999656" lon="15.098132139875352"><ele>670.0</ele><time>2026-03-28T11:02:50.999Z</time></trkpt><trkpt lat="37.69495728363504" lon="15.098223812742619"><ele>669.0</ele><time>2026-03-28T11:02:51.999Z</time></trkpt><trkpt lat="37.694930121726465" lon="15.098317940026563"><ele>665.75</ele><time>2026-03-28T11:02:52.999Z</time></trkpt><trkpt lat="37.694899574951215" lon="15.09845661124224"><ele>662.5</ele><time>2026-03-28T11:02:53.999Z</time></trkpt><trkpt lat="37.69486479354437" lon="15.098616124896617"><ele>659.25</ele><time>2026-03-28T11:02:54.999Z</time></trkpt><trkpt lat="37.69483200529793" lon="15.098769249297542"><ele>656.0</ele><time>2026-03-28T11:02:55.999Z</time></trkpt><trkpt lat="37.6948047175519" lon="15.09890463656256"><ele>656.0</ele><time>2026-03-28T11:02:56.999Z</time></trkpt><trkpt lat="37.694773621811095" lon="15.099041087871539"><ele>656.0</ele><time>2026-03-28T11:02:57.999Z</time></trkpt><trkpt lat="37.69473546753677" lon="15.099161978877758"><ele>656.0</ele><time>2026-03-28T11:02:58.999Z</time></trkpt><trkpt lat="37.69467720226564" lon="15.099269867613451"><ele>656.0</ele><time>2026-03-28T11:02:59.999Z</time></trkpt><trkpt lat="37.694605725864875" lon="15.099347038671013"><ele>656.0</ele><time>2026-03-28T11:03:00.999Z</time></trkpt><trkpt lat="37.69452956465916" lon="15.09940584201837"><ele>655.5</ele><time>2026-03-28T11:03:01.999Z</time></trkpt><trkpt lat="37.69446211888433" lon="15.099467097830281"><ele>655.0</ele><time>2026-03-28T11:03:02.999Z</time></trkpt><trkpt lat="37.69440020689534" lon="15.09953722153779"><ele>654.5</ele><time>2026-03-28T11:03:03.999Z</time></trkpt><trkpt lat="37.69437147238638" lon="15.099648057882572"><ele>654.0</ele><time>2026-03-28T11:03:04.999Z</time></trkpt><trkpt lat="37.69434605636085" lon="15.099752648306596"><ele>653.5</ele><time>2026-03-28T11:03:05.999Z</time></trkpt><trkpt lat="37.69432313164953" lon="15.099856052822282"><ele>653.0</ele><time>2026-03-28T11:03:06.999Z</time></trkpt><trkpt lat="37.694300923468205" lon="15.099953162000489"><ele>650.4</ele><time>2026-03-28T11:03:07.999Z</time></trkpt><trkpt lat="37.6942741882271" lon="15.100053346625193"><ele>647.8</ele><time>2026-03-28T11:03:09Z</time></trkpt><trkpt lat="37.69425225100322" lon="15.100155580293317"><ele>645.2</ele><time>2026-03-28T11:03:10Z</time></trkpt><trkpt lat="37.69423784534906" lon="15.100275012833677"><ele>642.6</ele><time>2026-03-28T11:03:11Z</time></trkpt><trkpt lat="37.694233548352926" lon="15.10040164524871"><ele>640.0</ele><time>2026-03-28T11:03:12Z</time></trkpt><trkpt lat="37.69423260707448" lon="15.10052261821382"><ele>640.0</ele><time>2026-03-28T11:03:13Z</time></trkpt><trkpt lat="37.69423776432602" lon="15.100639847497716"><ele>640.0</ele><time>2026-03-28T11:03:14Z</time></trkpt><trkpt lat="37.69424241291622" lon="15.100744319533623"><ele>640.0</ele><time>2026-03-28T11:03:15Z</time></trkpt><trkpt lat="37.69424589986381" lon="15.100851989576874"><ele>640.0</ele><time>2026-03-28T11:03:16Z</time></trkpt><trkpt lat="37.694247303317304" lon="15.100950936102077"><ele>640.0</ele><time>2026-03-28T11:03:17Z</time></trkpt><trkpt lat="37.69424445068227" lon="15.101062632792612"><ele>640.0</ele><time>2026-03-28T11:03:18Z</time></trkpt><trkpt lat="37.69423506193708" lon="15.101169581502981"><ele>638.8</ele><time>2026-03-28T11:03:19Z</time></trkpt><trkpt lat="37.694225469259734" lon="15.101274888183134"><ele>637.6</ele><time>2026-03-28T11:03:20Z</time></trkpt><trkpt lat="37.69420685493652" lon="15.101386121444069"><ele>636.4</ele><time>2026-03-28T11:03:21Z</time></trkpt><trkpt lat="37.69416957661594" lon="15.10149238583032"><ele>635.2</ele><time>2026-03-28T11:03:22Z</time></trkpt><trkpt lat="37.69411600360615" lon="15.101594489073694"><ele>634.0</ele><time>2026-03-28T11:03:23Z</time></trkpt><trkpt lat="37.69406067278667" lon="15.101696847591558"><ele>631.8</ele><time>2026-03-28T11:03:24Z</time></trkpt><trkpt lat="37.69400919433596" lon="15.101806300434117"><ele>629.5999999999999</ele><time>2026-03-28T11:03:25Z</time></trkpt><trkpt lat="37.693975882489006" lon="15.10192850955992"><ele>627.4</ele><time>2026-03-28T11:03:26Z</time></trkpt><trkpt lat="37.693966115212845" lon="15.102054597642834"><ele>625.1999999999999</ele><time>2026-03-28T11:03:27Z</time></trkpt><trkpt lat="37.69395743491103" lon="15.102176993743706"><ele>623.0</ele><time>2026-03-28T11:03:28Z</time></trkpt><trkpt lat="37.6939572114707" lon="15.10229184568973"><ele>623.0</ele><time>2026-03-28T11:03:29Z</time></trkpt><trkpt lat="37.69395566240962" lon="15.102405247726928"><ele>623.0</ele><time>2026-03-28T11:03:30Z</time></trkpt><trkpt lat="37.693959891219606" lon="15.102507229424527"><ele>623.0</ele><time>2026-03-28T11:03:31Z</time></trkpt><trkpt lat="37.69396147107812" lon="15.102601065816764"><ele>623.0</ele><time>2026-03-28T11:03:32Z</time></trkpt><trkpt lat="37.69395505995242" lon="15.102690221964343"><ele>623.0</ele><time>2026-03-28T11:03:33Z</time></trkpt><trkpt lat="37.69393907633326" lon="15.102813692736463"><ele>623.0</ele><time>2026-03-28T11:03:35Z</time></trkpt><trkpt lat="37.69392997667961" lon="15.10289746315772"><ele>621.8333333333333</ele><time>2026-03-28T11:03:38Z</time></trkpt><trkpt lat="37.693928805938555" lon="15.10298412424486"><ele>620.6666666666666</ele><time>2026-03-28T11:03:41Z</time></trkpt><trkpt lat="37.69393131591072" lon="15.103068818704411"><ele>619.5</ele><time>2026-03-28T11:03:45Z</time></trkpt><trkpt lat="37.69393943810199" lon="15.103169434035292"><ele>618.3333333333334</ele><time>2026-03-28T11:03:50Z</time></trkpt><trkpt lat="37.69396565275799" lon="15.103248643627229"><ele>617.1666666666667</ele><time>2026-03-28T11:03:53Z</time></trkpt><trkpt lat="37.69408476125088" lon="15.10328431947165"><ele>616.0</ele><time>2026-03-28T11:03:57Z</time></trkpt><trkpt lat="37.69410917645097" lon="15.103373099948424"><ele>614.8</ele><time>2026-03-28T11:03:59Z</time></trkpt><trkpt lat="37.6941187013932" lon="15.10349577820427"><ele>613.6</ele><time>2026-03-28T11:04:01Z</time></trkpt><trkpt lat="37.69410719627709" lon="15.10365807912418"><ele>612.4</ele><time>2026-03-28T11:04:03Z</time></trkpt><trkpt lat="37.69407174159312" lon="15.103798537555042"><ele>611.2</ele><time>2026-03-28T11:04:05Z</time></trkpt><trkpt lat="37.69404340573201" lon="15.10392106873853"><ele>610.0</ele><time>2026-03-28T11:04:07Z</time></trkpt><trkpt lat="37.69401310628797" lon="15.104057200159222"><ele>609.1666666666667</ele><time>2026-03-28T11:04:09Z</time></trkpt><trkpt lat="37.69399498862901" lon="15.104140878396088"><ele>608.3333333333334</ele><time>2026-03-28T11:04:10Z</time></trkpt><trkpt lat="37.69397523540793" lon="15.10422327310848"><ele>607.5</ele><time>2026-03-28T11:04:10.999Z</time></trkpt><trkpt lat="37.69395799893934" lon="15.104299872520128"><ele>606.6666666666666</ele><time>2026-03-28T11:04:11.999Z</time></trkpt><trkpt lat="37.69392305945113" lon="15.10444005160316"><ele>605.8333333333333</ele><time>2026-03-28T11:04:13.999Z</time></trkpt><trkpt lat="37.693901899813966" lon="15.10453342446089"><ele>605.0</ele><time>2026-03-28T11:04:15.999Z</time></trkpt><trkpt lat="37.693884590559975" lon="15.104618411112018"><ele>605.0</ele><time>2026-03-28T11:04:17.999Z</time></trkpt><trkpt lat="37.69386936808285" lon="15.104703522977513"><ele>605.0</ele><time>2026-03-28T11:04:19.999Z</time></trkpt><trkpt lat="37.69384382130378" lon="15.104804544908756"><ele>605.0</ele><time>2026-03-28T11:04:21.999Z</time></trkpt><trkpt lat="37.69381267783606" lon="15.10493388122809"><ele>605.0</ele><time>2026-03-28T11:04:23.999Z</time></trkpt><trkpt lat="37.69379264598909" lon="15.10504368334776"><ele>605.0</ele><time>2026-03-28T11:04:25.999Z</time></trkpt><trkpt lat="37.693777655613125" lon="15.10513002040102"><ele>605.0</ele><time>2026-03-28T11:04:27.999Z</time></trkpt><trkpt lat="37.6937507275336" lon="15.105226962476744"><ele>603.8333333333333</ele><time>2026-03-28T11:04:30.999Z</time></trkpt><trkpt lat="37.69374526697569" lon="15.105317145381381"><ele>602.6666666666666</ele><time>2026-03-28T11:04:33.999Z</time></trkpt><trkpt lat="37.693709897363334" lon="15.105418783324163"><ele>601.5</ele><time>2026-03-28T11:04:35.999Z</time></trkpt><trkpt lat="37.6936957066951" lon="15.105529088905842"><ele>600.3333333333334</ele><time>2026-03-28T11:04:37.999Z</time></trkpt><trkpt lat="37.69367293911775" lon="15.105622336490118"><ele>599.1666666666667</ele><time>2026-03-28T11:04:39.999Z</time></trkpt><trkpt lat="37.693650104467295" lon="15.105711035765772"><ele>598.0</ele><time>2026-03-28T11:04:41.999Z</time></trkpt><trkpt lat="37.69363244030058" lon="15.10579065855513"><ele>596.6666666666667</ele><time>2026-03-28T11:04:43.999Z</time></trkpt><trkpt lat="37.693605538125524" lon="15.105909812534485"><ele>595.3333333333334</ele><time>2026-03-28T11:04:46.999Z</time></trkpt><trkpt lat="37.693588564287936" lon="15.105992424034515"><ele>594.0</ele><time>2026-03-28T11:04:49.999Z</time></trkpt><trkpt lat="37.69357139281814" lon="15.106078165807121"><ele>592.6666666666666</ele><time>2026-03-28T11:04:52.999Z</time></trkpt><trkpt lat="37.693557462952484" lon="15.106201339796803"><ele>591.3333333333333</ele><time>2026-03-28T11:04:54.999Z</time></trkpt><trkpt lat="37.693518482470566" lon="15.10630732321494"><ele>590.0</ele><time>2026-03-28T11:04:56.999Z</time></trkpt><trkpt lat="37.69351454357155" lon="15.10640906217071"><ele>589.8571428571429</ele><time>2026-03-28T11:04:58.999Z</time></trkpt><trkpt lat="37.69349376144736" lon="15.106504816793217"><ele>589.7142857142858</ele><time>2026-03-28T11:05:00.999Z</time></trkpt><trkpt lat="37.693463550668696" lon="15.106578223641877"><ele>589.5714285714286</ele><time>2026-03-28T11:05:02.999Z</time></trkpt><trkpt lat="37.69346872978159" lon="15.106662312241605"><ele>589.4285714285714</ele><time>2026-03-28T11:05:05.999Z</time></trkpt><trkpt lat="37.69356017441917" lon="15.106724639444058"><ele>589.2857142857142</ele><time>2026-03-28T11:05:07.999Z</time></trkpt><trkpt lat="37.69362347549866" lon="15.106744171603701"><ele>589.1428571428571</ele><time>2026-03-28T11:05:08.999Z</time></trkpt><trkpt lat="37.69368459168466" lon="15.106773292365864"><ele>589.0</ele><time>2026-03-28T11:05:09.999Z</time></trkpt><trkpt lat="37.69374787163119" lon="15.10680134058156"><ele>588.4285714285714</ele><time>2026-03-28T11:05:10.999Z</time></trkpt><trkpt lat="37.69380685662406" lon="15.106830862873556"><ele>587.8571428571428</ele><time>2026-03-28T11:05:11.999Z</time></trkpt><trkpt lat="37.6938650588774" lon="15.106864051735064"><ele>587.2857142857142</ele><time>2026-03-28T11:05:12.999Z</time></trkpt><trkpt lat="37.693929673065455" lon="15.106902468120708"><ele>586.7142857142857</ele><time>2026-03-28T11:05:13.999Z</time></trkpt><trkpt lat="37.69399324223761" lon="15.106939780920074"><ele>586.1428571428571</ele><time>2026-03-28T11:05:15Z</time></trkpt><trkpt lat="37.694056691372815" lon="15.10697342250901"><ele>585.5714285714286</ele><time>2026-03-28T11:05:16Z</time></trkpt><trkpt lat="37.694117094064794" lon="15.107003903523367"><ele>585.0</ele><time>2026-03-28T11:05:17Z</time></trkpt><trkpt lat="37.69424067952823" lon="15.107070890790345"><ele>585.0</ele><time>2026-03-28T11:05:19Z</time></trkpt><trkpt lat="37.69431661637153" lon="15.107110769821803"><ele>585.0</ele><time>2026-03-28T11:05:20Z</time></trkpt><trkpt lat="37.69438620132258" lon="15.107146367899988"><ele>585.0</ele><time>2026-03-28T11:05:21Z</time></trkpt><trkpt lat="37.694451972969425" lon="15.107183535565818"><ele>585.0</ele><time>2026-03-28T11:05:22Z</time></trkpt><trkpt lat="37.694514458852105" lon="15.107220863727019"><ele>585.0</ele><time>2026-03-28T11:05:23Z</time></trkpt><trkpt lat="37.69457388706276" lon="15.107252765787853"><ele>585.0</ele><time>2026-03-28T11:05:24Z</time></trkpt><trkpt lat="37.69463702868768" lon="15.1072935576048"><ele>585.0</ele><time>2026-03-28T11:05:25Z</time></trkpt><trkpt lat="37.694693995800236" lon="15.107329531526833"><ele>585.1666666666666</ele><time>2026-03-28T11:05:26Z</time></trkpt><trkpt lat="37.69475293509804" lon="15.107368891261768"><ele>585.3333333333334</ele><time>2026-03-28T11:05:27Z</time></trkpt><trkpt lat="37.69482170318585" lon="15.107408042430151"><ele>585.5</ele><time>2026-03-28T11:05:28Z</time></trkpt><trkpt lat="37.69489689578345" lon="15.107454404331907"><ele>585.6666666666667</ele><time>2026-03-28T11:05:29Z</time></trkpt><trkpt lat="37.69498198404183" lon="15.107502325058169"><ele>585.8333333333334</ele><time>2026-03-28T11:05:30Z</time></trkpt><trkpt lat="37.69507137736824" lon="15.107547863156228"><ele>586.0</ele><time>2026-03-28T11:05:31Z</time></trkpt><trkpt lat="37.69515678236207" lon="15.107591191469044"><ele>586.4</ele><time>2026-03-28T11:05:32Z</time></trkpt><trkpt lat="37.69524859070481" lon="15.107644489807385"><ele>586.8</ele><time>2026-03-28T11:05:33Z</time></trkpt><trkpt lat="37.69533695551243" lon="15.107697117125614"><ele>587.1999999999999</ele><time>2026-03-28T11:05:34Z</time></trkpt><trkpt lat="37.69542610264297" lon="15.107747073787412"><ele>587.6</ele><time>2026-03-28T11:05:35Z</time></trkpt><trkpt lat="37.69551260733388" lon="15.10778856553394"><ele>588.0</ele><time>2026-03-28T11:05:36Z</time></trkpt><trkpt lat="37.69559933920012" lon="15.10781688997841"><ele>588.0</ele><time>2026-03-28T11:05:37Z</time></trkpt><trkpt lat="37.69568592466419" lon="15.107829048692452"><ele>588.0</ele><time>2026-03-28T11:05:38Z</time></trkpt><trkpt lat="37.69577640486614" lon="15.107826025664522"><ele>588.0</ele><time>2026-03-28T11:05:39Z</time></trkpt><trkpt lat="37.69586059529427" lon="15.107814300014923"><ele>588.0</ele><time>2026-03-28T11:05:40Z</time></trkpt><trkpt lat="37.6959508162205" lon="15.107807262329292"><ele>588.0</ele><time>2026-03-28T11:05:41Z</time></trkpt><trkpt lat="37.69603616296512" lon="15.107800844740895"><ele>588.0</ele><time>2026-03-28T11:05:42Z</time></trkpt><trkpt lat="37.696135026155694" lon="15.107795155192994"><ele>587.4</ele><time>2026-03-28T11:05:43Z</time></trkpt><trkpt lat="37.69622887081376" lon="15.10780669571604"><ele>586.8</ele><time>2026-03-28T11:05:44Z</time></trkpt><trkpt lat="37.69632039110363" lon="15.107799147091152"><ele>586.2</ele><time>2026-03-28T11:05:45Z</time></trkpt><trkpt lat="37.69640669205369" lon="15.107791900738809"><ele>585.6</ele><time>2026-03-28T11:05:46Z</time></trkpt><trkpt lat="37.69650432741016" lon="15.107764387575573"><ele>585.0</ele><time>2026-03-28T11:05:47Z</time></trkpt><trkpt lat="37.69660313118593" lon="15.107756722575717"><ele>585.0</ele><time>2026-03-28T11:05:48Z</time></trkpt><trkpt lat="37.69670218342311" lon="15.10774923955575"><ele>585.0</ele><time>2026-03-28T11:05:49Z</time></trkpt><trkpt lat="37.69678538760488" lon="15.10774210645721"><ele>585.0</ele><time>2026-03-28T11:05:50Z</time></trkpt><trkpt lat="37.69686020263301" lon="15.107739935897456"><ele>585.0</ele><time>2026-03-28T11:05:51Z</time></trkpt><trkpt lat="37.696932835744725" lon="15.107738263662904"><ele>585.0</ele><time>2026-03-28T11:05:52Z</time></trkpt><trkpt lat="37.69700663516039" lon="15.107732690541868"><ele>585.0</ele><time>2026-03-28T11:05:53Z</time></trkpt><trkpt lat="37.69707681912657" lon="15.107726364876685"><ele>586.0</ele><time>2026-03-28T11:05:54Z</time></trkpt><trkpt lat="37.69714380000148" lon="15.107719198956904"><ele>587.0</ele><time>2026-03-28T11:05:55Z</time></trkpt><trkpt lat="37.6972078751549" lon="15.107736089543906"><ele>588.0</ele><time>2026-03-28T11:05:56Z</time></trkpt><trkpt lat="37.69733280119375" lon="15.107728539031667"><ele>589.0</ele><time>2026-03-28T11:05:58Z</time></trkpt><trkpt lat="37.69740635825668" lon="15.10772429798177"><ele>590.0</ele><time>2026-03-28T11:05:59Z</time></trkpt><trkpt lat="37.6974801754159" lon="15.107723074313547"><ele>591.0</ele><time>2026-03-28T11:06:00Z</time></trkpt><trkpt lat="37.69756386955999" lon="15.10772307431165"><ele>591.0</ele><time>2026-03-28T11:06:01Z</time></trkpt><trkpt lat="37.69764650004992" lon="15.107727799260791"><ele>591.0</ele><time>2026-03-28T11:06:02Z</time></trkpt><trkpt lat="37.69773486654742" lon="15.107735201689799"><ele>591.0</ele><time>2026-03-28T11:06:03Z</time></trkpt><trkpt lat="37.697826681962766" lon="15.107735097859017"><ele>591.0</ele><time>2026-03-28T11:06:04Z</time></trkpt><trkpt lat="37.69791754977227" lon="15.107771402859598"><ele>591.0</ele><time>2026-03-28T11:06:05Z</time></trkpt><trkpt lat="37.6980025837117" lon="15.107812333753785"><ele>591.0</ele><time>2026-03-28T11:06:06Z</time></trkpt><trkpt lat="37.69808123106596" lon="15.107853051839534"><ele>592.1666666666666</ele><time>2026-03-28T11:06:07Z</time></trkpt><trkpt lat="37.69815902520501" lon="15.107893052755474"><ele>593.3333333333334</ele><time>2026-03-28T11:06:08Z</time></trkpt><trkpt lat="37.69823490473623" lon="15.107936208425045"><ele>594.5</ele><time>2026-03-28T11:06:09Z</time></trkpt><trkpt lat="37.69831492434612" lon="15.10798406527371"><ele>595.6666666666667</ele><time>2026-03-28T11:06:10Z</time></trkpt><trkpt lat="37.698397986406704" lon="15.108025118850646"><ele>596.8333333333334</ele><time>2026-03-28T11:06:11Z</time></trkpt><trkpt lat="37.69848714575918" lon="15.108052269236412"><ele>598.0</ele><time>2026-03-28T11:06:12Z</time></trkpt><trkpt lat="37.698578720631446" lon="15.10805824788539"><ele>599.1999999999999</ele><time>2026-03-28T11:06:13Z</time></trkpt><trkpt lat="37.69867293698192" lon="15.108078077927585"><ele>600.4</ele><time>2026-03-28T11:06:13.999Z</time></trkpt><trkpt lat="37.69876903584072" lon="15.108073050926073"><ele>601.5999999999999</ele><time>2026-03-28T11:06:14.999Z</time></trkpt><trkpt lat="37.69886993020942" lon="15.10804897798"><ele>602.8</ele><time>2026-03-28T11:06:15.999Z</time></trkpt><trkpt lat="37.69897339401464" lon="15.108052002783882"><ele>604.0</ele><time>2026-03-28T11:06:16.999Z</time></trkpt><trkpt lat="37.69907571040652" lon="15.10805985367389"><ele>604.0</ele><time>2026-03-28T11:06:17.999Z</time></trkpt><trkpt lat="37.69916796288495" lon="15.108081779464413"><ele>604.0</ele><time>2026-03-28T11:06:18.999Z</time></trkpt><trkpt lat="37.699255924165655" lon="15.108118914089857"><ele>604.0</ele><time>2026-03-28T11:06:19.999Z</time></trkpt><trkpt lat="37.6993427620459" lon="15.108168207651271"><ele>604.0</ele><time>2026-03-28T11:06:20.999Z</time></trkpt><trkpt lat="37.699427607972076" lon="15.108224673675599"><ele>604.0</ele><time>2026-03-28T11:06:21.999Z</time></trkpt><trkpt lat="37.699509220600035" lon="15.108273051728677"><ele>604.0</ele><time>2026-03-28T11:06:22.999Z</time></trkpt><trkpt lat="37.69958848300028" lon="15.108319757535998"><ele>604.0</ele><time>2026-03-28T11:06:23.999Z</time></trkpt><trkpt lat="37.69967701482617" lon="15.108332703886544"><ele>604.0</ele><time>2026-03-28T11:06:24.999Z</time></trkpt><trkpt lat="37.699767150089954" lon="15.108308073805555"><ele>604.0</ele><time>2026-03-28T11:06:25.999Z</time></trkpt><trkpt lat="37.699855540919096" lon="15.108305740315517"><ele>604.0</ele><time>2026-03-28T11:06:26.999Z</time></trkpt><trkpt lat="37.69994499553493" lon="15.10831883709714"><ele>604.0</ele><time>2026-03-28T11:06:27.999Z</time></trkpt><trkpt lat="37.700033811526126" lon="15.108349044834005"><ele>604.0</ele><time>2026-03-28T11:06:28.999Z</time></trkpt><trkpt lat="37.70011846302282" lon="15.108413802603266"><ele>604.0</ele><time>2026-03-28T11:06:29.999Z</time></trkpt><trkpt lat="37.70020447058115" lon="15.10848971655941"><ele>604.0</ele><time>2026-03-28T11:06:30.999Z</time></trkpt><trkpt lat="37.70029261384433" lon="15.10857443516458"><ele>604.0</ele><time>2026-03-28T11:06:31.999Z</time></trkpt><trkpt lat="37.7003843173257" lon="15.108666064179888"><ele>604.0</ele><time>2026-03-28T11:06:32.999Z</time></trkpt><trkpt lat="37.700475510108994" lon="15.108756446806868"><ele>604.75</ele><time>2026-03-28T11:06:33.999Z</time></trkpt><trkpt lat="37.70056754457023" lon="15.108847104601558"><ele>605.5</ele><time>2026-03-28T11:06:34.999Z</time></trkpt><trkpt lat="37.70066074956252" lon="15.108950492748026"><ele>606.25</ele><time>2026-03-28T11:06:35.999Z</time></trkpt><trkpt lat="37.70074431921185" lon="15.109053506086697"><ele>607.0</ele><time>2026-03-28T11:06:36.999Z</time></trkpt><trkpt lat="37.70082986004224" lon="15.109160999174476"><ele>605.8000000000001</ele><time>2026-03-28T11:06:37.999Z</time></trkpt><trkpt lat="37.70091524885342" lon="15.109255899635478"><ele>604.6</ele><time>2026-03-28T11:06:38.999Z</time></trkpt><trkpt lat="37.7010030280859" lon="15.10934191191869"><ele>603.4000000000001</ele><time>2026-03-28T11:06:39.999Z</time></trkpt><trkpt lat="37.70109481313793" lon="15.109413834967535"><ele>602.2</ele><time>2026-03-28T11:06:40.999Z</time></trkpt><trkpt lat="37.701185540004666" lon="15.10947800790352"><ele>601.0</ele><time>2026-03-28T11:06:41.999Z</time></trkpt><trkpt lat="37.70127302374896" lon="15.109543090777917"><ele>601.0</ele><time>2026-03-28T11:06:42.999Z</time></trkpt><trkpt lat="37.701370972807055" lon="15.109609700828775"><ele>601.0</ele><time>2026-03-28T11:06:43.999Z</time></trkpt><trkpt lat="37.70147568906231" lon="15.109670645552153"><ele>601.0</ele><time>2026-03-28T11:06:44.999Z</time></trkpt><trkpt lat="37.7015811183778" lon="15.109732074493175"><ele>601.0</ele><time>2026-03-28T11:06:45.999Z</time></trkpt><trkpt lat="37.70168746477119" lon="15.109794999620352"><ele>601.0</ele><time>2026-03-28T11:06:46.999Z</time></trkpt><trkpt lat="37.7017927721723" lon="15.109855176188395"><ele>601.0</ele><time>2026-03-28T11:06:47.999Z</time></trkpt><trkpt lat="37.70188959492973" lon="15.109917088067665"><ele>601.0</ele><time>2026-03-28T11:06:48.999Z</time></trkpt><trkpt lat="37.701983288817885" lon="15.109979461002622"><ele>601.0</ele><time>2026-03-28T11:06:49.999Z</time></trkpt><trkpt lat="37.70207313281069" lon="15.110040427624483"><ele>601.0</ele><time>2026-03-28T11:06:50.999Z</time></trkpt><trkpt lat="37.702162575082866" lon="15.110105660583816"><ele>599.4</ele><time>2026-03-28T11:06:51.999Z</time></trkpt><trkpt lat="37.70224965337119" lon="15.110175965653013"><ele>597.8</ele><time>2026-03-28T11:06:52.999Z</time></trkpt><trkpt lat="37.702332543291114" lon="15.110247802471479"><ele>596.1999999999999</ele><time>2026-03-28T11:06:53.999Z</time></trkpt><trkpt lat="37.702412729762955" lon="15.110325790581355"><ele>594.6</ele><time>2026-03-28T11:06:54.999Z</time></trkpt><trkpt lat="37.70247893118717" lon="15.110410632409787"><ele>593.0</ele><time>2026-03-28T11:06:55.999Z</time></trkpt><trkpt lat="37.702531134936706" lon="15.110509700575797"><ele>593.0</ele><time>2026-03-28T11:06:56.999Z</time></trkpt><trkpt lat="37.70257293266749" lon="15.110611059584448"><ele>593.0</ele><time>2026-03-28T11:06:57.999Z</time></trkpt><trkpt lat="37.70260548091847" lon="15.11071551378373"><ele>593.0</ele><time>2026-03-28T11:06:58.999Z</time></trkpt><trkpt lat="37.702643661653106" lon="15.110825069506388"><ele>593.0</ele><time>2026-03-28T11:06:59.999Z</time></trkpt><trkpt lat="37.702686753186256" lon="15.110946088284576"><ele>593.0</ele><time>2026-03-28T11:07:00.999Z</time></trkpt><trkpt lat="37.702730526812886" lon="15.111078629937934"><ele>592.75</ele><time>2026-03-28T11:07:01.999Z</time></trkpt><trkpt lat="37.70277397683776" lon="15.111219757331463"><ele>592.5</ele><time>2026-03-28T11:07:02.999Z</time></trkpt><trkpt lat="37.70284074470605" lon="15.111354835985626"><ele>592.25</ele><time>2026-03-28T11:07:03.999Z</time></trkpt><trkpt lat="37.70286815436754" lon="15.11152410789548"><ele>592.0</ele><time>2026-03-28T11:07:04.999Z</time></trkpt><trkpt lat="37.702916901020295" lon="15.111660919824974"><ele>590.0</ele><time>2026-03-28T11:07:05.999Z</time></trkpt><trkpt lat="37.702976273712586" lon="15.111779753573442"><ele>588.0</ele><time>2026-03-28T11:07:06.999Z</time></trkpt><trkpt lat="37.703049414390335" lon="15.111897263760667"><ele>586.0</ele><time>2026-03-28T11:07:07.999Z</time></trkpt><trkpt lat="37.70313601766233" lon="15.112016965473714"><ele>584.0</ele><time>2026-03-28T11:07:08.999Z</time></trkpt><trkpt lat="37.70322971557024" lon="15.112127880497413"><ele>584.0</ele><time>2026-03-28T11:07:09.999Z</time></trkpt><trkpt lat="37.70332587526126" lon="15.112238047179826"><ele>584.0</ele><time>2026-03-28T11:07:10.999Z</time></trkpt><trkpt lat="37.7034207546129" lon="15.112355172014201"><ele>584.0</ele><time>2026-03-28T11:07:11.999Z</time></trkpt><trkpt lat="37.70351579498531" lon="15.112483884360742"><ele>584.0</ele><time>2026-03-28T11:07:12.999Z</time></trkpt><trkpt lat="37.70361185326698" lon="15.112623163288696"><ele>581.75</ele><time>2026-03-28T11:07:13.999Z</time></trkpt><trkpt lat="37.70370278483234" lon="15.112763694693351"><ele>579.5</ele><time>2026-03-28T11:07:14.999Z</time></trkpt><trkpt lat="37.703788802920556" lon="15.112903445551751"><ele>577.25</ele><time>2026-03-28T11:07:15.999Z</time></trkpt><trkpt lat="37.703871414520215" lon="15.113042516169013"><ele>575.0</ele><time>2026-03-28T11:07:16.999Z</time></trkpt><trkpt lat="37.70394899288018" lon="15.113183417475678"><ele>574.5</ele><time>2026-03-28T11:07:17.999Z</time></trkpt><trkpt lat="37.70401512076142" lon="15.11332193682946"><ele>574.0</ele><time>2026-03-28T11:07:18.999Z</time></trkpt><trkpt lat="37.70407385316707" lon="15.11345495555657"><ele>573.5</ele><time>2026-03-28T11:07:19.999Z</time></trkpt><trkpt lat="37.70412826337782" lon="15.11358640766389"><ele>573.0</ele><time>2026-03-28T11:07:21Z</time></trkpt><trkpt lat="37.70418380817036" lon="15.113718403750115"><ele>573.0</ele><time>2026-03-28T11:07:22Z</time></trkpt><trkpt lat="37.70424058074838" lon="15.11385499053716"><ele>573.0</ele><time>2026-03-28T11:07:23Z</time></trkpt><trkpt lat="37.70429770271939" lon="15.113997680615533"><ele>573.0</ele><time>2026-03-28T11:07:24Z</time></trkpt><trkpt lat="37.70435180776821" lon="15.114147415197996"><ele>573.0</ele><time>2026-03-28T11:07:25Z</time></trkpt><trkpt lat="37.70441119709125" lon="15.11429615706823"><ele>574.75</ele><time>2026-03-28T11:07:26Z</time></trkpt><trkpt lat="37.704477184412234" lon="15.114444658069331"><ele>576.5</ele><time>2026-03-28T11:07:27Z</time></trkpt><trkpt lat="37.70455172236599" lon="15.114593567481997"><ele>578.25</ele><time>2026-03-28T11:07:28Z</time></trkpt><trkpt lat="37.704637424384835" lon="15.114745714073292"><ele>580.0</ele><time>2026-03-28T11:07:29Z</time></trkpt><trkpt lat="37.70472627555593" lon="15.114893397198534"><ele>580.25</ele><time>2026-03-28T11:07:30Z</time></trkpt><trkpt lat="37.7048058859513" lon="15.115037848169997"><ele>580.5</ele><time>2026-03-28T11:07:31Z</time></trkpt><trkpt lat="37.704857398806176" lon="15.11518919199211"><ele>580.75</ele><time>2026-03-28T11:07:32Z</time></trkpt><trkpt lat="37.70487406671099" lon="15.115354712252987"><ele>581.0</ele><time>2026-03-28T11:07:33Z</time></trkpt><trkpt lat="37.70487500078651" lon="15.11552619893406"><ele>581.0</ele><time>2026-03-28T11:07:34Z</time></trkpt><trkpt lat="37.704874833810536" lon="15.115704721687585"><ele>581.0</ele><time>2026-03-28T11:07:35Z</time></trkpt><trkpt lat="37.70487952107859" lon="15.115882738117865"><ele>581.0</ele><time>2026-03-28T11:07:36Z</time></trkpt><trkpt lat="37.70489499449857" lon="15.116047094294766"><ele>581.0</ele><time>2026-03-28T11:07:37Z</time></trkpt><trkpt lat="37.70491777692775" lon="15.116200891175033"><ele>581.2</ele><time>2026-03-28T11:07:38Z</time></trkpt><trkpt lat="37.70493772754394" lon="15.116344717598949"><ele>581.4000000000001</ele><time>2026-03-28T11:07:39Z</time></trkpt><trkpt lat="37.704953486418376" lon="15.116475577136404"><ele>581.6</ele><time>2026-03-28T11:07:40Z</time></trkpt><trkpt lat="37.704971076488896" lon="15.116596251283775"><ele>581.8000000000001</ele><time>2026-03-28T11:07:41Z</time></trkpt><trkpt lat="37.704995762690366" lon="15.116711750398455"><ele>582.0</ele><time>2026-03-28T11:07:42Z</time></trkpt><trkpt lat="37.70503561780279" lon="15.116818325458627"><ele>581.2</ele><time>2026-03-28T11:07:43Z</time></trkpt><trkpt lat="37.705092098146075" lon="15.116913544477415"><ele>580.4000000000001</ele><time>2026-03-28T11:07:44Z</time></trkpt><trkpt lat="37.70516213538955" lon="15.116995172705861"><ele>579.5999999999999</ele><time>2026-03-28T11:07:45Z</time></trkpt><trkpt lat="37.705238771136536" lon="15.117071799441684"><ele>578.8</ele><time>2026-03-28T11:07:46Z</time></trkpt><trkpt lat="37.70531029647061" lon="15.117141302546276"><ele>578.0</ele><time>2026-03-28T11:07:47Z</time></trkpt><trkpt lat="37.705375262969824" lon="15.117206862322506"><ele>578.3333333333333</ele><time>2026-03-28T11:07:48Z</time></trkpt><trkpt lat="37.705440705901964" lon="15.117267405412607"><ele>578.6666666666666</ele><time>2026-03-28T11:07:49Z</time></trkpt><trkpt lat="37.70550700848891" lon="15.117325231421521"><ele>579.0</ele><time>2026-03-28T11:07:50Z</time></trkpt><trkpt lat="37.7055736511454" lon="15.117374483154787"><ele>579.3333333333334</ele><time>2026-03-28T11:07:51Z</time></trkpt><trkpt lat="37.70564503966087" lon="15.117416496695807"><ele>579.6666666666667</ele><time>2026-03-28T11:07:52Z</time></trkpt><trkpt lat="37.70571834481387" lon="15.117443849665214"><ele>580.0</ele><time>2026-03-28T11:07:53Z</time></trkpt><trkpt lat="37.70579519990235" lon="15.11745449857534"><ele>580.0</ele><time>2026-03-28T11:07:54Z</time></trkpt><trkpt lat="37.70586755915929" lon="15.117449947759484"><ele>580.0</ele><time>2026-03-28T11:07:55Z</time></trkpt><trkpt lat="37.705934439602174" lon="15.117366345655805"><ele>580.0</ele><time>2026-03-28T11:07:56Z</time></trkpt><trkpt lat="37.70600524807802" lon="15.117298495489502"><ele>580.0</ele><time>2026-03-28T11:07:57Z</time></trkpt><trkpt lat="37.70606655279345" lon="15.117214228582032"><ele>580.0</ele><time>2026-03-28T11:07:58Z</time></trkpt><trkpt lat="37.706125585484415" lon="15.117128315271929"><ele>580.0</ele><time>2026-03-28T11:07:59Z</time></trkpt><trkpt lat="37.70618611005206" lon="15.117039313115843"><ele>582.0</ele><time>2026-03-28T11:08:00Z</time></trkpt><trkpt lat="37.706247207484964" lon="15.116950230217753"><ele>584.0</ele><time>2026-03-28T11:08:01Z</time></trkpt><trkpt lat="37.70631105867404" lon="15.116859527698102"><ele>586.0</ele><time>2026-03-28T11:08:02Z</time></trkpt><trkpt lat="37.70637696172433" lon="15.116767753518154"><ele>588.0</ele><time>2026-03-28T11:08:03Z</time></trkpt><trkpt lat="37.7064481951884" lon="15.116668113753835"><ele>590.0</ele><time>2026-03-28T11:08:04Z</time></trkpt><trkpt lat="37.70652189654076" lon="15.11656502196294"><ele>591.5</ele><time>2026-03-28T11:08:05Z</time></trkpt><trkpt lat="37.70658689198883" lon="15.116473401885246"><ele>593.0</ele><time>2026-03-28T11:08:06Z</time></trkpt><trkpt lat="37.70664144528718" lon="15.116394847003274"><ele>594.5</ele><time>2026-03-28T11:08:07Z</time></trkpt><trkpt lat="37.70669830005061" lon="15.116319191321466"><ele>596.0</ele><time>2026-03-28T11:08:08Z</time></trkpt><trkpt lat="37.70675824399824" lon="15.116266756250806"><ele>597.5</ele><time>2026-03-28T11:08:09Z</time></trkpt><trkpt lat="37.70682157307863" lon="15.116219006052166"><ele>599.0</ele><time>2026-03-28T11:08:10Z</time></trkpt><trkpt lat="37.70689979625284" lon="15.116220125052406"><ele>600.8</ele><time>2026-03-28T11:08:11Z</time></trkpt><trkpt lat="37.706989088455906" lon="15.116254724733315"><ele>602.5999999999999</ele><time>2026-03-28T11:08:12Z</time></trkpt><trkpt lat="37.70708153728385" lon="15.116300299453599"><ele>604.4</ele><time>2026-03-28T11:08:13Z</time></trkpt><trkpt lat="37.707172502393334" lon="15.116357477050386"><ele>606.1999999999999</ele><time>2026-03-28T11:08:14Z</time></trkpt><trkpt lat="37.70725516513064" lon="15.116410257538785"><ele>608.0</ele><time>2026-03-28T11:08:15Z</time></trkpt><trkpt lat="37.70732429689109" lon="15.116431469870163"><ele>608.0</ele><time>2026-03-28T11:08:16Z</time></trkpt><trkpt lat="37.707452212400746" lon="15.116447106206483"><ele>608.0</ele><time>2026-03-28T11:08:18Z</time></trkpt><trkpt lat="37.70756031159061" lon="15.116364149076507"><ele>608.0</ele><time>2026-03-28T11:08:19Z</time></trkpt><trkpt lat="37.70762764677301" lon="15.116287077877024"><ele>608.0</ele><time>2026-03-28T11:08:20Z</time></trkpt><trkpt lat="37.707703264714446" lon="15.116203555798533"><ele>608.0</ele><time>2026-03-28T11:08:21Z</time></trkpt><trkpt lat="37.70777764452381" lon="15.116115336042085"><ele>609.6666666666666</ele><time>2026-03-28T11:08:22Z</time></trkpt><trkpt lat="37.707865393428065" lon="15.11607688610495"><ele>611.3333333333333</ele><time>2026-03-28T11:08:23Z</time></trkpt><trkpt lat="37.707946971610895" lon="15.116034705152709"><ele>613.0</ele><time>2026-03-28T11:08:24Z</time></trkpt><trkpt lat="37.708026715986975" lon="15.116053839445142"><ele>614.6666666666666</ele><time>2026-03-28T11:08:24.999Z</time></trkpt><trkpt lat="37.708095835132404" lon="15.116093317830803"><ele>616.3333333333334</ele><time>2026-03-28T11:08:25.999Z</time></trkpt><trkpt lat="37.708154689117855" lon="15.116149452306798"><ele>618.0</ele><time>2026-03-28T11:08:26.999Z</time></trkpt><trkpt lat="37.708172145332725" lon="15.116256083868373"><ele>618.0</ele><time>2026-03-28T11:08:27.999Z</time></trkpt><trkpt lat="37.70815971322646" lon="15.116368953516965"><ele>618.0</ele><time>2026-03-28T11:08:28.999Z</time></trkpt><trkpt lat="37.70810649367506" lon="15.116494135922206"><ele>618.0</ele><time>2026-03-28T11:08:29.999Z</time></trkpt><trkpt lat="37.7080418981849" lon="15.116601029668045"><ele>618.0</ele><time>2026-03-28T11:08:30.999Z</time></trkpt><trkpt lat="37.707953118285786" lon="15.116716432720185"><ele>618.0</ele><time>2026-03-28T11:08:31.999Z</time></trkpt><trkpt lat="37.70785752214711" lon="15.116845828745562"><ele>617.0</ele><time>2026-03-28T11:08:32.999Z</time></trkpt><trkpt lat="37.70776369331558" lon="15.116975343523384"><ele>616.0</ele><time>2026-03-28T11:08:33.999Z</time></trkpt><trkpt lat="37.70768109378035" lon="15.11708569809562"><ele>615.0</ele><time>2026-03-28T11:08:34.999Z</time></trkpt><trkpt lat="37.70761170031165" lon="15.117191273409112"><ele>614.0</ele><time>2026-03-28T11:08:35.999Z</time></trkpt><trkpt lat="37.707556767067736" lon="15.117292778403561"><ele>613.6666666666666</ele><time>2026-03-28T11:08:36.999Z</time></trkpt><trkpt lat="37.707526103366504" lon="15.117389170458702"><ele>613.3333333333333</ele><time>2026-03-28T11:08:37.999Z</time></trkpt><trkpt lat="37.707535178064425" lon="15.117494292249843"><ele>613.0</ele><time>2026-03-28T11:08:38.999Z</time></trkpt><trkpt lat="37.70758564207121" lon="15.117565875857714"><ele>612.6666666666666</ele><time>2026-03-28T11:08:39.999Z</time></trkpt><trkpt lat="37.70767996593159" lon="15.117565969849132"><ele>612.3333333333334</ele><time>2026-03-28T11:08:40.999Z</time></trkpt><trkpt lat="37.70775506554364" lon="15.117533698452627"><ele>612.0</ele><time>2026-03-28T11:08:41.999Z</time></trkpt><trkpt lat="37.707817920945274" lon="15.11745604018509"><ele>612.5</ele><time>2026-03-28T11:08:42.999Z</time></trkpt><trkpt lat="37.70789593556924" lon="15.117370695066441"><ele>613.0</ele><time>2026-03-28T11:08:43.999Z</time></trkpt><trkpt lat="37.70797271344557" lon="15.117269477146701"><ele>613.5</ele><time>2026-03-28T11:08:44.999Z</time></trkpt><trkpt lat="37.7080565256379" lon="15.117164038065429"><ele>614.0</ele><time>2026-03-28T11:08:45.999Z</time></trkpt><trkpt lat="37.70814663201254" lon="15.117059260734619"><ele>614.0</ele><time>2026-03-28T11:08:46.999Z</time></trkpt><trkpt lat="37.708245726623204" lon="15.116956529661609"><ele>614.0</ele><time>2026-03-28T11:08:47.999Z</time></trkpt><trkpt lat="37.708351840320326" lon="15.116853138296745"><ele>614.0</ele><time>2026-03-28T11:08:48.999Z</time></trkpt><trkpt lat="37.70846128855992" lon="15.116750399140747"><ele>614.0</ele><time>2026-03-28T11:08:49.999Z</time></trkpt><trkpt lat="37.70857148110847" lon="15.116647280477489"><ele>617.75</ele><time>2026-03-28T11:08:50.999Z</time></trkpt><trkpt lat="37.708675116473" lon="15.116553027558416"><ele>621.5</ele><time>2026-03-28T11:08:51.999Z</time></trkpt><trkpt lat="37.70878419630179" lon="15.116453823078835"><ele>625.25</ele><time>2026-03-28T11:08:52.999Z</time></trkpt><trkpt lat="37.70889224474298" lon="15.116377079038443"><ele>629.0</ele><time>2026-03-28T11:08:53.999Z</time></trkpt><trkpt lat="37.70900450327638" lon="15.116319025943485"><ele>629.0</ele><time>2026-03-28T11:08:54.999Z</time></trkpt><trkpt lat="37.709124329711415" lon="15.11626069712288"><ele>629.0</ele><time>2026-03-28T11:08:55.999Z</time></trkpt><trkpt lat="37.70923741606647" lon="15.116205915004214"><ele>629.0</ele><time>2026-03-28T11:08:56.999Z</time></trkpt><trkpt lat="37.70933972052122" lon="15.116151768624148"><ele>629.0</ele><time>2026-03-28T11:08:57.999Z</time></trkpt><trkpt lat="37.709433534715636" lon="15.116105526313376"><ele>631.8</ele><time>2026-03-28T11:08:58.999Z</time></trkpt><trkpt lat="37.7095220220302" lon="15.116083534011164"><ele>634.5999999999999</ele><time>2026-03-28T11:08:59.999Z</time></trkpt><trkpt lat="37.709626074676805" lon="15.116093690344165"><ele>637.4</ele><time>2026-03-28T11:09:00.999Z</time></trkpt><trkpt lat="37.70972364360774" lon="15.11616182749235"><ele>640.1999999999999</ele><time>2026-03-28T11:09:01.999Z</time></trkpt><trkpt lat="37.70982273906393" lon="15.116208473366"><ele>643.0</ele><time>2026-03-28T11:09:02.999Z</time></trkpt><trkpt lat="37.709933623267446" lon="15.116214363440669"><ele>643.0</ele><time>2026-03-28T11:09:03.999Z</time></trkpt><trkpt lat="37.71004028874034" lon="15.116192260437055"><ele>643.0</ele><time>2026-03-28T11:09:04.999Z</time></trkpt><trkpt lat="37.71013753261788" lon="15.116181662518782"><ele>643.0</ele><time>2026-03-28T11:09:05.999Z</time></trkpt><trkpt lat="37.71022409751818" lon="15.116156660025876"><ele>643.0</ele><time>2026-03-28T11:09:06.999Z</time></trkpt><trkpt lat="37.71037704113768" lon="15.116101820974775"><ele>644.2</ele><time>2026-03-28T11:09:08.999Z</time></trkpt><trkpt lat="37.710454324307676" lon="15.11611583814491"><ele>645.4</ele><time>2026-03-28T11:09:09.999Z</time></trkpt><trkpt lat="37.71052977667168" lon="15.116161203516782"><ele>646.6</ele><time>2026-03-28T11:09:10.999Z</time></trkpt><trkpt lat="37.710613296536735" lon="15.11623601645454"><ele>647.8000000000001</ele><time>2026-03-28T11:09:11.999Z</time></trkpt><trkpt lat="37.71071667136439" lon="15.1163290181611"><ele>649.0</ele><time>2026-03-28T11:09:12.999Z</time></trkpt><trkpt lat="37.710822606910966" lon="15.116433480933875"><ele>649.0</ele><time>2026-03-28T11:09:13.999Z</time></trkpt><trkpt lat="37.7109391679747" lon="15.116533934907533"><ele>649.0</ele><time>2026-03-28T11:09:14.999Z</time></trkpt><trkpt lat="37.71105698862577" lon="15.116614192110273"><ele>649.0</ele><time>2026-03-28T11:09:15.999Z</time></trkpt><trkpt lat="37.711159103299366" lon="15.116698179437352"><ele>649.0</ele><time>2026-03-28T11:09:16.999Z</time></trkpt><trkpt lat="37.71125132911385" lon="15.116772386030245"><ele>648.2</ele><time>2026-03-28T11:09:17.999Z</time></trkpt><trkpt lat="37.71132674450267" lon="15.116804468722812"><ele>647.4000000000001</ele><time>2026-03-28T11:09:18.999Z</time></trkpt><trkpt lat="37.71141272881252" lon="15.116784463209045"><ele>646.6</ele><time>2026-03-28T11:09:19.999Z</time></trkpt><trkpt lat="37.711507430714285" lon="15.116731945490768"><ele>645.8</ele><time>2026-03-28T11:09:20.999Z</time></trkpt><trkpt lat="37.71161297923001" lon="15.116669598554697"><ele>645.0</ele><time>2026-03-28T11:09:21.999Z</time></trkpt><trkpt lat="37.71171623745025" lon="15.116583922622425"><ele>648.25</ele><time>2026-03-28T11:09:22.999Z</time></trkpt><trkpt lat="37.71182412967521" lon="15.116490466848685"><ele>651.5</ele><time>2026-03-28T11:09:23.999Z</time></trkpt><trkpt lat="37.71193900290789" lon="15.116390838575716"><ele>654.75</ele><time>2026-03-28T11:09:24.999Z</time></trkpt><trkpt lat="37.71205928790629" lon="15.116286516738711"><ele>658.0</ele><time>2026-03-28T11:09:25.999Z</time></trkpt><trkpt lat="37.71217886558685" lon="15.11618351476619"><ele>658.0</ele><time>2026-03-28T11:09:27Z</time></trkpt><trkpt lat="37.7122892481791" lon="15.11609198421484"><ele>658.0</ele><time>2026-03-28T11:09:28Z</time></trkpt><trkpt lat="37.71239556650316" lon="15.116021336657903"><ele>658.0</ele><time>2026-03-28T11:09:29Z</time></trkpt><trkpt lat="37.71250048242595" lon="15.115983441255391"><ele>658.0</ele><time>2026-03-28T11:09:30Z</time></trkpt><trkpt lat="37.71259986961417" lon="15.1159761718868"><ele>658.0</ele><time>2026-03-28T11:09:31Z</time></trkpt><trkpt lat="37.71271036398494" lon="15.11599071685793"><ele>658.0</ele><time>2026-03-28T11:09:32Z</time></trkpt><trkpt lat="37.71281465920439" lon="15.11606821333869"><ele>658.0</ele><time>2026-03-28T11:09:33Z</time></trkpt><trkpt lat="37.71290405312251" lon="15.116173824501315"><ele>658.0</ele><time>2026-03-28T11:09:34Z</time></trkpt><trkpt lat="37.7129766863926" lon="15.116310428472218"><ele>657.25</ele><time>2026-03-28T11:09:35Z</time></trkpt><trkpt lat="37.713037595137216" lon="15.116449630037755"><ele>656.5</ele><time>2026-03-28T11:09:36Z</time></trkpt><trkpt lat="37.713102103059654" lon="15.11659126458428"><ele>655.75</ele><time>2026-03-28T11:09:37Z</time></trkpt><trkpt lat="37.71317177522257" lon="15.116738229334462"><ele>655.0</ele><time>2026-03-28T11:09:38Z</time></trkpt><trkpt lat="37.713243796115655" lon="15.11688224101063"><ele>655.0</ele><time>2026-03-28T11:09:39Z</time></trkpt><trkpt lat="37.713314204066215" lon="15.117028333913051"><ele>655.0</ele><time>2026-03-28T11:09:40Z</time></trkpt><trkpt lat="37.71338421362461" lon="15.117150300606815"><ele>655.0</ele><time>2026-03-28T11:09:41Z</time></trkpt><trkpt lat="37.71346155390099" lon="15.117235270889394"><ele>655.0</ele><time>2026-03-28T11:09:42Z</time></trkpt><trkpt lat="37.713551747300095" lon="15.117285543182044"><ele>657.25</ele><time>2026-03-28T11:09:43Z</time></trkpt><trkpt lat="37.71365787555299" lon="15.117313687309842"><ele>659.5</ele><time>2026-03-28T11:09:44Z</time></trkpt><trkpt lat="37.71377612472598" lon="15.117313482401865"><ele>661.75</ele><time>2026-03-28T11:09:45Z</time></trkpt><trkpt lat="37.71390456696602" lon="15.117299485099172"><ele>664.0</ele><time>2026-03-28T11:09:46Z</time></trkpt><trkpt lat="37.71404992457566" lon="15.117291628384766"><ele>664.0</ele><time>2026-03-28T11:09:47Z</time></trkpt><trkpt lat="37.71419115427726" lon="15.117259569205487"><ele>664.0</ele><time>2026-03-28T11:09:48Z</time></trkpt><trkpt lat="37.71432347228247" lon="15.117197828997977"><ele>664.0</ele><time>2026-03-28T11:09:49Z</time></trkpt><trkpt lat="37.71444740645808" lon="15.117119119248873"><ele>664.0</ele><time>2026-03-28T11:09:50Z</time></trkpt><trkpt lat="37.71456945445756" lon="15.117044102229316"><ele>665.0</ele><time>2026-03-28T11:09:51Z</time></trkpt><trkpt lat="37.71469404954107" lon="15.11697035662782"><ele>666.0</ele><time>2026-03-28T11:09:52Z</time></trkpt><trkpt lat="37.71482319428332" lon="15.116893566481746"><ele>667.0</ele><time>2026-03-28T11:09:53Z</time></trkpt><trkpt lat="37.71495319413999" lon="15.116817762706958"><ele>668.0</ele><time>2026-03-28T11:09:54Z</time></trkpt><trkpt lat="37.71507896923676" lon="15.11674059290017"><ele>668.0</ele><time>2026-03-28T11:09:55Z</time></trkpt><trkpt lat="37.71518118581878" lon="15.116678591929881"><ele>668.0</ele><time>2026-03-28T11:09:56Z</time></trkpt><trkpt lat="37.71527240981771" lon="15.116622873788517"><ele>668.0</ele><time>2026-03-28T11:09:57Z</time></trkpt><trkpt lat="37.715353630006774" lon="15.116573776546007"><ele>668.0</ele><time>2026-03-28T11:09:58Z</time></trkpt><trkpt lat="37.71543474634043" lon="15.116526422304558"><ele>668.0</ele><time>2026-03-28T11:09:59Z</time></trkpt><trkpt lat="37.71551231766832" lon="15.116486641365691"><ele>671.4</ele><time>2026-03-28T11:10:00Z</time></trkpt><trkpt lat="37.7155897845279" lon="15.116436787268771"><ele>674.8</ele><time>2026-03-28T11:10:01Z</time></trkpt><trkpt lat="37.715673905239555" lon="15.116387428563506"><ele>678.2</ele><time>2026-03-28T11:10:02Z</time></trkpt><trkpt lat="37.715757755645406" lon="15.116334031207096"><ele>681.6</ele><time>2026-03-28T11:10:03Z</time></trkpt><trkpt lat="37.71584697251888" lon="15.116277524574647"><ele>685.0</ele><time>2026-03-28T11:10:04Z</time></trkpt><trkpt lat="37.71593925925527" lon="15.116214593375842"><ele>685.0</ele><time>2026-03-28T11:10:05Z</time></trkpt><trkpt lat="37.716034199171695" lon="15.116143779954658"><ele>685.0</ele><time>2026-03-28T11:10:06Z</time></trkpt><trkpt lat="37.71613448556274" lon="15.116068698654095"><ele>685.0</ele><time>2026-03-28T11:10:07Z</time></trkpt><trkpt lat="37.71624132729262" lon="15.115994668539024"><ele>685.0</ele><time>2026-03-28T11:10:08Z</time></trkpt><trkpt lat="37.71635110412983" lon="15.115916048220784"><ele>686.0</ele><time>2026-03-28T11:10:09Z</time></trkpt><trkpt lat="37.71645927311898" lon="15.115836252446714"><ele>687.0</ele><time>2026-03-28T11:10:10Z</time></trkpt><trkpt lat="37.71656107749164" lon="15.115757620939803"><ele>688.0</ele><time>2026-03-28T11:10:11Z</time></trkpt><trkpt lat="37.71665686290253" lon="15.115711471042191"><ele>689.0</ele><time>2026-03-28T11:10:12Z</time></trkpt><trkpt lat="37.71674335130505" lon="15.115674737915695"><ele>690.0</ele><time>2026-03-28T11:10:13Z</time></trkpt><trkpt lat="37.7168404177101" lon="15.115648123449633"><ele>691.75</ele><time>2026-03-28T11:10:14Z</time></trkpt><trkpt lat="37.71694817476583" lon="15.115685913077535"><ele>693.5</ele><time>2026-03-28T11:10:15Z</time></trkpt><trkpt lat="37.7170551979319" lon="15.115756879253185"><ele>695.25</ele><time>2026-03-28T11:10:16Z</time></trkpt><trkpt lat="37.717145205305975" lon="15.115860494924945"><ele>697.0</ele><time>2026-03-28T11:10:17Z</time></trkpt><trkpt lat="37.71721004256454" lon="15.115993853807366"><ele>697.0</ele><time>2026-03-28T11:10:18Z</time></trkpt><trkpt lat="37.71727309844886" lon="15.116137021214776"><ele>697.0</ele><time>2026-03-28T11:10:19Z</time></trkpt><trkpt lat="37.71734664525922" lon="15.116288622882003"><ele>697.0</ele><time>2026-03-28T11:10:20Z</time></trkpt><trkpt lat="37.717426048880704" lon="15.116441689448367"><ele>697.0</ele><time>2026-03-28T11:10:21Z</time></trkpt><trkpt lat="37.71750157701468" lon="15.116602048841246"><ele>696.5</ele><time>2026-03-28T11:10:22Z</time></trkpt><trkpt lat="37.71757469255634" lon="15.116767315311977"><ele>696.0</ele><time>2026-03-28T11:10:23Z</time></trkpt><trkpt lat="37.71764132342349" lon="15.116917092347846"><ele>695.5</ele><time>2026-03-28T11:10:24Z</time></trkpt><trkpt lat="37.717702897827785" lon="15.11705539864993"><ele>695.0</ele><time>2026-03-28T11:10:25Z</time></trkpt><trkpt lat="37.71776290507878" lon="15.117180593945571"><ele>696.0</ele><time>2026-03-28T11:10:26Z</time></trkpt><trkpt lat="37.71782818929954" lon="15.117304193695821"><ele>697.0</ele><time>2026-03-28T11:10:27Z</time></trkpt><trkpt lat="37.71790692326794" lon="15.117414574434887"><ele>698.0</ele><time>2026-03-28T11:10:28Z</time></trkpt><trkpt lat="37.71800343179296" lon="15.11749750424697"><ele>699.0</ele><time>2026-03-28T11:10:29Z</time></trkpt><trkpt lat="37.718120572398796" lon="15.117552418259525"><ele>699.0</ele><time>2026-03-28T11:10:30Z</time></trkpt><trkpt lat="37.718241908654065" lon="15.11757481585864"><ele>699.0</ele><time>2026-03-28T11:10:31Z</time></trkpt><trkpt lat="37.71834808072885" lon="15.117573658323135"><ele>699.0</ele><time>2026-03-28T11:10:32Z</time></trkpt><trkpt lat="37.71842982328442" lon="15.11754025360204"><ele>699.0</ele><time>2026-03-28T11:10:33Z</time></trkpt><trkpt lat="37.71848088543509" lon="15.117487271513028"><ele>699.0</ele><time>2026-03-28T11:10:34Z</time></trkpt><trkpt lat="37.718518308930186" lon="15.117402746292035"><ele>701.0</ele><time>2026-03-28T11:10:35Z</time></trkpt><trkpt lat="37.71857202261008" lon="15.117300967364562"><ele>703.0</ele><time>2026-03-28T11:10:36Z</time></trkpt><trkpt lat="37.7186230928928" lon="15.117182188974748"><ele>705.0</ele><time>2026-03-28T11:10:37Z</time></trkpt><trkpt lat="37.71867525057728" lon="15.117052838661246"><ele>707.0</ele><time>2026-03-28T11:10:38Z</time></trkpt><trkpt lat="37.71872525131081" lon="15.116922507004368"><ele>709.0</ele><time>2026-03-28T11:10:39Z</time></trkpt><trkpt lat="37.71877736919693" lon="15.11680002345161"><ele>709.0</ele><time>2026-03-28T11:10:40Z</time></trkpt><trkpt lat="37.71883360021652" lon="15.11668331356184"><ele>709.0</ele><time>2026-03-28T11:10:40.999Z</time></trkpt><trkpt lat="37.71890210716611" lon="15.116592406941919"><ele>709.0</ele><time>2026-03-28T11:10:41.999Z</time></trkpt><trkpt lat="37.71898152689038" lon="15.116520412739638"><ele>709.0</ele><time>2026-03-28T11:10:42.999Z</time></trkpt><trkpt lat="37.71905719506865" lon="15.116463211791094"><ele>709.0</ele><time>2026-03-28T11:10:43.999Z</time></trkpt><trkpt lat="37.71914162470399" lon="15.116489580721465"><ele>709.8000000000001</ele><time>2026-03-28T11:10:44.999Z</time></trkpt><trkpt lat="37.71923202117446" lon="15.116512748619567"><ele>710.6</ele><time>2026-03-28T11:10:45.999Z</time></trkpt><trkpt lat="37.71933922075008" lon="15.11653050278977"><ele>711.4</ele><time>2026-03-28T11:10:46.999Z</time></trkpt><trkpt lat="37.71943653683094" lon="15.116569172167464"><ele>712.2</ele><time>2026-03-28T11:10:47.999Z</time></trkpt><trkpt lat="37.7195269411725" lon="15.116587291341482"><ele>713.0</ele><time>2026-03-28T11:10:48.999Z</time></trkpt><trkpt lat="37.71962289340632" lon="15.116610095994934"><ele>713.0</ele><time>2026-03-28T11:10:49.999Z</time></trkpt><trkpt lat="37.719733150653" lon="15.116646771904374"><ele>713.0</ele><time>2026-03-28T11:10:50.999Z</time></trkpt><trkpt lat="37.71983844775331" lon="15.116664736916862"><ele>713.0</ele><time>2026-03-28T11:10:51.999Z</time></trkpt><trkpt lat="37.719943381268905" lon="15.116693132195385"><ele>713.0</ele><time>2026-03-28T11:10:52.999Z</time></trkpt><trkpt lat="37.72005126725095" lon="15.116720531593764"><ele>713.0</ele><time>2026-03-28T11:10:53.999Z</time></trkpt><trkpt lat="37.720162092532235" lon="15.116746694226862"><ele>713.75</ele><time>2026-03-28T11:10:54.999Z</time></trkpt><trkpt lat="37.72027223833981" lon="15.116764397324644"><ele>714.5</ele><time>2026-03-28T11:10:55.999Z</time></trkpt><trkpt lat="37.72038588407619" lon="15.116776764650368"><ele>715.25</ele><time>2026-03-28T11:10:56.999Z</time></trkpt><trkpt lat="37.72050246674545" lon="15.116783611450591"><ele>716.0</ele><time>2026-03-28T11:10:57.999Z</time></trkpt><trkpt lat="37.72062152218167" lon="15.116781241045768"><ele>716.0</ele><time>2026-03-28T11:10:58.999Z</time></trkpt><trkpt lat="37.7207403219049" lon="15.116775523459586"><ele>716.0</ele><time>2026-03-28T11:10:59.999Z</time></trkpt><trkpt lat="37.720857958008686" lon="15.116773070989531"><ele>716.0</ele><time>2026-03-28T11:11:00.999Z</time></trkpt><trkpt lat="37.72096738751671" lon="15.11676708799286"><ele>716.0</ele><time>2026-03-28T11:11:01.999Z</time></trkpt><trkpt lat="37.72106863887686" lon="15.116767076699343"><ele>716.0</ele><time>2026-03-28T11:11:02.999Z</time></trkpt><trkpt lat="37.72115867177227" lon="15.116766803503882"><ele>717.1999999999999</ele><time>2026-03-28T11:11:03.999Z</time></trkpt><trkpt lat="37.72123838182967" lon="15.116769763952016"><ele>718.4</ele><time>2026-03-28T11:11:04.999Z</time></trkpt><trkpt lat="37.72131487675757" lon="15.116773291683764"><ele>719.6</ele><time>2026-03-28T11:11:05.999Z</time></trkpt><trkpt lat="37.721384784018355" lon="15.116776373140377"><ele>720.8</ele><time>2026-03-28T11:11:06.999Z</time></trkpt><trkpt lat="37.721497738827416" lon="15.116784056123521"><ele>722.0</ele><time>2026-03-28T11:11:08.999Z</time></trkpt><trkpt lat="37.721607953082824" lon="15.116805719994044"><ele>722.0</ele><time>2026-03-28T11:11:10.999Z</time></trkpt><trkpt lat="37.721715947897124" lon="15.116853835101926"><ele>722.0</ele><time>2026-03-28T11:11:12.999Z</time></trkpt><trkpt lat="37.72181767198377" lon="15.116891331314473"><ele>722.0</ele><time>2026-03-28T11:11:14.999Z</time></trkpt><trkpt lat="37.7219078204816" lon="15.116930423855637"><ele>722.0</ele><time>2026-03-28T11:11:16.999Z</time></trkpt><trkpt lat="37.72199515702237" lon="15.116968941968993"><ele>722.0</ele><time>2026-03-28T11:11:18.999Z</time></trkpt><trkpt lat="37.72206516912853" lon="15.116981080911339"><ele>722.2857142857143</ele><time>2026-03-28T11:11:20.999Z</time></trkpt><trkpt lat="37.72214447240121" lon="15.116962678740364"><ele>722.5714285714286</ele><time>2026-03-28T11:11:23.999Z</time></trkpt><trkpt lat="37.7222165047684" lon="15.116920470543906"><ele>722.8571428571429</ele><time>2026-03-28T11:11:26.999Z</time></trkpt><trkpt lat="37.722267877627196" lon="15.116848116203176"><ele>723.1428571428571</ele><time>2026-03-28T11:11:28.999Z</time></trkpt><trkpt lat="37.722312847995525" lon="15.116782688125475"><ele>723.4285714285713</ele><time>2026-03-28T11:11:31.999Z</time></trkpt><trkpt lat="37.72227642601962" lon="15.116867743694007"><ele>723.7142857142857</ele><time>2026-03-28T11:13:00.999Z</time></trkpt><trkpt lat="37.72223441302254" lon="15.116928868754226"><ele>724.0</ele><time>2026-03-28T11:13:06.999Z</time></trkpt><trkpt lat="37.72230795976068" lon="15.11704433924665"><ele>724.0</ele><time>2026-03-28T11:13:08.999Z</time></trkpt><trkpt lat="37.7223194467199" lon="15.117128451030624"><ele>724.0</ele><time>2026-03-28T11:13:14.999Z</time></trkpt><trkpt lat="37.72228673195598" lon="15.117212282628673"><ele>724.0</ele><time>2026-03-28T11:13:24.999Z</time></trkpt><trkpt lat="37.7222426409509" lon="15.117269108978771"><ele>724.0</ele><time>2026-03-28T11:13:29.999Z</time></trkpt><trkpt lat="37.72220289667993" lon="15.117340825485298"><ele>724.0</ele><time>2026-03-28T11:13:34.999Z</time></trkpt><trkpt lat="37.72222967572231" lon="15.117265799604562"><ele>724.0</ele><time>2026-03-28T11:15:22.999Z</time></trkpt><trkpt lat="37.72228059532106" lon="15.11720198481778"><ele>724.0</ele><time>2026-03-28T11:15:28.999Z</time></trkpt><trkpt lat="37.72232416068995" lon="15.117142932753463"><ele>724.0</ele><time>2026-03-28T11:15:57Z</time></trkpt><trkpt lat="37.72233927634202" lon="15.117055931349736"><ele>724.0</ele><time>2026-03-28T11:16:23Z</time></trkpt><trkpt lat="37.7223466511267" lon="15.116965560362221"><ele>724.0</ele><time>2026-03-28T11:16:28Z</time></trkpt><trkpt lat="37.72234975103527" lon="15.116884849482416"><ele>724.0</ele><time>2026-03-28T11:16:33Z</time></trkpt><trkpt lat="37.722359964258686" lon="15.116794324544966"><ele>724.0</ele><time>2026-03-28T11:16:39Z</time></trkpt><trkpt lat="37.72231013606652" lon="15.11672857006283"><ele>724.0</ele><time>2026-03-28T11:16:50Z</time></trkpt><trkpt lat="37.7222516495643" lon="15.116683685079032"><ele>724.0</ele><time>2026-03-28T11:16:55Z</time></trkpt><trkpt lat="37.722241229852024" lon="15.116791285201659"><ele>724.0</ele><time>2026-03-28T11:18:02.001Z</time></trkpt><trkpt lat="37.72217867270343" lon="15.116880157113481"><ele>724.0</ele><time>2026-03-28T11:18:04.001Z</time></trkpt><trkpt lat="37.72210627263886" lon="15.116939570356498"><ele>724.0</ele><time>2026-03-28T11:18:06.001Z</time></trkpt><trkpt lat="37.72200989257206" lon="15.116929970688046"><ele>724.0</ele><time>2026-03-28T11:18:08.001Z</time></trkpt><trkpt lat="37.72194966350366" lon="15.116888684144794"><ele>724.0</ele><time>2026-03-28T11:18:09.001Z</time></trkpt><trkpt lat="37.72189044187836" lon="15.116843988976985"><ele>724.0</ele><time>2026-03-28T11:18:10Z</time></trkpt><trkpt lat="37.72180225077004" lon="15.11675353106845"><ele>723.6</ele><time>2026-03-28T11:18:12Z</time></trkpt><trkpt lat="37.721731829895674" lon="15.11667742224351"><ele>723.2</ele><time>2026-03-28T11:18:14Z</time></trkpt><trkpt lat="37.7216180777538" lon="15.116675588913981"><ele>722.8000000000001</ele><time>2026-03-28T11:18:16Z</time></trkpt><trkpt lat="37.721523955344786" lon="15.1167114181869"><ele>722.4000000000001</ele><time>2026-03-28T11:18:17Z</time></trkpt><trkpt lat="37.72139808260493" lon="15.116735301075249"><ele>722.0</ele><time>2026-03-28T11:18:18Z</time></trkpt><trkpt lat="37.721219379734244" lon="15.116739219180001"><ele>720.5</ele><time>2026-03-28T11:18:19Z</time></trkpt><trkpt lat="37.72104397155124" lon="15.116736837353246"><ele>719.0</ele><time>2026-03-28T11:18:20Z</time></trkpt><trkpt lat="37.7209214685604" lon="15.116736171624167"><ele>717.5</ele><time>2026-03-28T11:18:21Z</time></trkpt><trkpt lat="37.72083528880645" lon="15.116739326993082"><ele>716.0</ele><time>2026-03-28T11:18:22Z</time></trkpt><trkpt lat="37.72076307511938" lon="15.11674423840023"><ele>716.0</ele><time>2026-03-28T11:18:23Z</time></trkpt><trkpt lat="37.72066164095654" lon="15.116740541321779"><ele>716.0</ele><time>2026-03-28T11:18:25Z</time></trkpt><trkpt lat="37.72061403570654" lon="15.11684582935497"><ele>716.0</ele><time>2026-03-28T11:18:27Z</time></trkpt><trkpt lat="37.72064998775208" lon="15.11695890920771"><ele>716.0</ele><time>2026-03-28T11:18:30Z</time></trkpt><trkpt lat="37.72069928199087" lon="15.116900910563682"><ele>716.0</ele><time>2026-03-28T11:18:31Z</time></trkpt><trkpt lat="37.72074662660621" lon="15.11702968508872"><ele>716.0</ele><time>2026-03-28T11:18:35Z</time></trkpt><trkpt lat="37.7208318320665" lon="15.117000145504909"><ele>716.0</ele><time>2026-03-28T11:22:27Z</time></trkpt><trkpt lat="37.720890168326925" lon="15.116961512888304"><ele>716.0</ele><time>2026-03-28T11:22:29Z</time></trkpt><trkpt lat="37.72097446152787" lon="15.116973312128938"><ele>716.0</ele><time>2026-03-28T11:22:31Z</time></trkpt><trkpt lat="37.72106291684568" lon="15.116890410976108"><ele>716.0</ele><time>2026-03-28T11:22:33Z</time></trkpt><trkpt lat="37.721107736201404" lon="15.11677744222104"><ele>716.0</ele><time>2026-03-28T11:22:35Z</time></trkpt><trkpt lat="37.721241126678734" lon="15.116756023920823"><ele>717.1999999999999</ele><time>2026-03-28T11:22:38Z</time></trkpt><trkpt lat="37.721329269433966" lon="15.116771858444409"><ele>718.4</ele><time>2026-03-28T11:22:39Z</time></trkpt><trkpt lat="37.72143894715209" lon="15.116782179448856"><ele>719.6</ele><time>2026-03-28T11:22:40Z</time></trkpt><trkpt lat="37.72154827129096" lon="15.116784454060523"><ele>720.8</ele><time>2026-03-28T11:22:41Z</time></trkpt><trkpt lat="37.72163922946793" lon="15.116812113272552"><ele>722.0</ele><time>2026-03-28T11:22:42Z</time></trkpt><trkpt lat="37.721718209224015" lon="15.116845182245902"><ele>722.0</ele><time>2026-03-28T11:22:43Z</time></trkpt><trkpt lat="37.72179177851463" lon="15.11686712911307"><ele>722.0</ele><time>2026-03-28T11:22:44Z</time></trkpt><trkpt lat="37.72189180396464" lon="15.116905524403373"><ele>722.0</ele><time>2026-03-28T11:22:46Z</time></trkpt><trkpt lat="37.721976937325266" lon="15.11695023949831"><ele>722.0</ele><time>2026-03-28T11:22:48Z</time></trkpt><trkpt lat="37.722050238440524" lon="15.116971030765228"><ele>722.0</ele><time>2026-03-28T11:22:50Z</time></trkpt><trkpt lat="37.722139587750625" lon="15.116966290651245"><ele>722.0</ele><time>2026-03-28T11:22:52Z</time></trkpt><trkpt lat="37.72221599720506" lon="15.116906938802273"><ele>722.3333333333333</ele><time>2026-03-28T11:22:54Z</time></trkpt><trkpt lat="37.72228011163523" lon="15.11683031674498"><ele>722.6666666666666</ele><time>2026-03-28T11:22:57Z</time></trkpt><trkpt lat="37.72233009260247" lon="15.116757598667295"><ele>723.0</ele><time>2026-03-28T11:23:00Z</time></trkpt><trkpt lat="37.7222641739244" lon="15.116681431112823"><ele>723.3333333333334</ele><time>2026-03-28T11:36:10.999Z</time></trkpt><trkpt lat="37.72234424236722" lon="15.116655530472842"><ele>723.6666666666667</ele><time>2026-03-28T11:37:43Z</time></trkpt><trkpt lat="37.72240107311332" lon="15.116614509997211"><ele>724.0</ele><time>2026-03-28T11:37:46Z</time></trkpt><trkpt lat="37.72243130746937" lon="15.116538504628855"><ele>724.6666666666667</ele><time>2026-03-28T11:37:50Z</time></trkpt><trkpt lat="37.722483561931426" lon="15.11645786101276"><ele>725.3333333333334</ele><time>2026-03-28T11:37:54Z</time></trkpt><trkpt lat="37.72254121509181" lon="15.116407150399317"><ele>726.0</ele><time>2026-03-28T11:37:57Z</time></trkpt><trkpt lat="37.72262890502378" lon="15.116331254451916"><ele>726.6666666666666</ele><time>2026-03-28T11:38:00Z</time></trkpt><trkpt lat="37.72268711532859" lon="15.116283991005384"><ele>727.3333333333333</ele><time>2026-03-28T11:38:01.999Z</time></trkpt><trkpt lat="37.722747865681775" lon="15.116230596015232"><ele>728.0</ele><time>2026-03-28T11:38:03.999Z</time></trkpt><trkpt lat="37.72281708103408" lon="15.116165772190868"><ele>728.0</ele><time>2026-03-28T11:38:05.999Z</time></trkpt><trkpt lat="37.722891152539205" lon="15.116095999471534"><ele>728.0</ele><time>2026-03-28T11:38:07.999Z</time></trkpt><trkpt lat="37.722966028140874" lon="15.1160219435027"><ele>728.0</ele><time>2026-03-28T11:38:09.999Z</time></trkpt><trkpt lat="37.72304491516688" lon="15.116003545525665"><ele>728.0</ele><time>2026-03-28T11:38:11.999Z</time></trkpt><trkpt lat="37.72313429745899" lon="15.116035930600676"><ele>728.0</ele><time>2026-03-28T11:38:13.999Z</time></trkpt><trkpt lat="37.723196555628" lon="15.116051388530618"><ele>728.0</ele><time>2026-03-28T11:38:14.999Z</time></trkpt><trkpt lat="37.72329967893086" lon="15.116090067241679"><ele>728.0</ele><time>2026-03-28T11:38:16.999Z</time></trkpt><trkpt lat="37.72336195289393" lon="15.116116954154716"><ele>728.0</ele><time>2026-03-28T11:38:18.999Z</time></trkpt><trkpt lat="37.723450426792496" lon="15.116159222290479"><ele>728.0</ele><time>2026-03-28T11:38:20.999Z</time></trkpt><trkpt lat="37.723511003239935" lon="15.116194039961595"><ele>728.0</ele><time>2026-03-28T11:38:21.999Z</time></trkpt><trkpt lat="37.72358119705189" lon="15.116224836898756"><ele>728.0</ele><time>2026-03-28T11:38:22.999Z</time></trkpt><trkpt lat="37.723647105282474" lon="15.116255760046378"><ele>728.0</ele><time>2026-03-28T11:38:23.999Z</time></trkpt><trkpt lat="37.72372017310722" lon="15.116276567842947"><ele>728.0</ele><time>2026-03-28T11:38:24.999Z</time></trkpt><trkpt lat="37.723797047094294" lon="15.116271047946428"><ele>729.3333333333333</ele><time>2026-03-28T11:38:25.999Z</time></trkpt><trkpt lat="37.72387338586773" lon="15.116230114032057"><ele>730.6666666666666</ele><time>2026-03-28T11:38:26.999Z</time></trkpt><trkpt lat="37.72392960042238" lon="15.116181757264124"><ele>732.0</ele><time>2026-03-28T11:38:27.999Z</time></trkpt><trkpt lat="37.72399808405298" lon="15.116128805413279"><ele>733.3333333333334</ele><time>2026-03-28T11:38:28.999Z</time></trkpt><trkpt lat="37.72407098515495" lon="15.11607569370995"><ele>734.6666666666667</ele><time>2026-03-28T11:38:29.999Z</time></trkpt><trkpt lat="37.72415050466232" lon="15.116030347551707"><ele>736.0</ele><time>2026-03-28T11:38:30.999Z</time></trkpt><trkpt lat="37.724232776639646" lon="15.115980829434877"><ele>736.0</ele><time>2026-03-28T11:38:31.999Z</time></trkpt><trkpt lat="37.724309802695764" lon="15.11592394207495"><ele>736.0</ele><time>2026-03-28T11:38:32.999Z</time></trkpt><trkpt lat="37.72437807138549" lon="15.115844990387556"><ele>736.0</ele><time>2026-03-28T11:38:33.999Z</time></trkpt><trkpt lat="37.72445029161238" lon="15.115766410665003"><ele>736.0</ele><time>2026-03-28T11:38:34.999Z</time></trkpt><trkpt lat="37.724518182864294" lon="15.115673755122549"><ele>736.0</ele><time>2026-03-28T11:38:35.999Z</time></trkpt><trkpt lat="37.72458697766345" lon="15.115581114686599"><ele>739.0</ele><time>2026-03-28T11:38:36.999Z</time></trkpt><trkpt lat="37.7246588854424" lon="15.115487474505636"><ele>742.0</ele><time>2026-03-28T11:38:37.999Z</time></trkpt><trkpt lat="37.72473363973065" lon="15.11539012748426"><ele>745.0</ele><time>2026-03-28T11:38:38.999Z</time></trkpt><trkpt lat="37.72481247590994" lon="15.115285461893542"><ele>748.0</ele><time>2026-03-28T11:38:39.999Z</time></trkpt><trkpt lat="37.72488833200512" lon="15.11517725266116"><ele>751.0</ele><time>2026-03-28T11:38:40.999Z</time></trkpt><trkpt lat="37.72496484603141" lon="15.115058402052648"><ele>751.0</ele><time>2026-03-28T11:38:41.999Z</time></trkpt><trkpt lat="37.725028302023425" lon="15.114931488960995"><ele>751.0</ele><time>2026-03-28T11:38:42.999Z</time></trkpt><trkpt lat="37.725097391252696" lon="15.114796764586997"><ele>751.0</ele><time>2026-03-28T11:38:43.999Z</time></trkpt><trkpt lat="37.725150842229105" lon="15.114668294610684"><ele>751.0</ele><time>2026-03-28T11:38:44.999Z</time></trkpt><trkpt lat="37.725197344034676" lon="15.114554822587044"><ele>751.6666666666667</ele><time>2026-03-28T11:38:45.999Z</time></trkpt><trkpt lat="37.725239427740064" lon="15.114452131512012"><ele>752.3333333333334</ele><time>2026-03-28T11:38:46.999Z</time></trkpt><trkpt lat="37.72528136947549" lon="15.114355625515618"><ele>753.0</ele><time>2026-03-28T11:38:47.999Z</time></trkpt><trkpt lat="37.72532637490632" lon="15.114252174728733"><ele>753.6666666666666</ele><time>2026-03-28T11:38:49Z</time></trkpt><trkpt lat="37.72536136831611" lon="15.114171737805814"><ele>754.3333333333333</ele><time>2026-03-28T11:38:50Z</time></trkpt><trkpt lat="37.7254117477019" lon="15.1140559342869"><ele>755.0</ele><time>2026-03-28T11:38:52Z</time></trkpt><trkpt lat="37.72546645644096" lon="15.113930179175574"><ele>755.6666666666666</ele><time>2026-03-28T11:38:54Z</time></trkpt><trkpt lat="37.72551117297163" lon="15.113827394376683"><ele>756.3333333333333</ele><time>2026-03-28T11:38:56Z</time></trkpt><trkpt lat="37.72554230078443" lon="15.113755048392822"><ele>757.0</ele><time>2026-03-28T11:38:57Z</time></trkpt><trkpt lat="37.725576416028254" lon="15.113677200772141"><ele>757.6666666666666</ele><time>2026-03-28T11:38:58Z</time></trkpt><trkpt lat="37.72561580900673" lon="15.113587309830327"><ele>758.3333333333334</ele><time>2026-03-28T11:38:59Z</time></trkpt><trkpt lat="37.72565405961013" lon="15.113498811271924"><ele>759.0</ele><time>2026-03-28T11:39:00Z</time></trkpt><trkpt lat="37.725698039180024" lon="15.113406527776293"><ele>759.0</ele><time>2026-03-28T11:39:01Z</time></trkpt><trkpt lat="37.72575102194934" lon="15.113340190295418"><ele>759.0</ele><time>2026-03-28T11:39:02Z</time></trkpt><trkpt lat="37.7258277935489" lon="15.113309972910034"><ele>759.0</ele><time>2026-03-28T11:39:03Z</time></trkpt><trkpt lat="37.72590989006499" lon="15.113267186605736"><ele>759.0</ele><time>2026-03-28T11:39:04Z</time></trkpt><trkpt lat="37.725994749523025" lon="15.11321431943693"><ele>759.0</ele><time>2026-03-28T11:39:05Z</time></trkpt><trkpt lat="37.72608775701754" lon="15.113222374895976"><ele>759.0</ele><time>2026-03-28T11:39:06Z</time></trkpt><trkpt lat="37.726175657804774" lon="15.11324985726514"><ele>760.0</ele><time>2026-03-28T11:39:07Z</time></trkpt><trkpt lat="37.72625035397772" lon="15.11331610675284"><ele>761.0</ele><time>2026-03-28T11:39:08Z</time></trkpt><trkpt lat="37.72632360606643" lon="15.11340344349042"><ele>762.0</ele><time>2026-03-28T11:39:09Z</time></trkpt><trkpt lat="37.72638745314979" lon="15.11349204001257"><ele>763.0</ele><time>2026-03-28T11:39:10Z</time></trkpt><trkpt lat="37.72642413830577" lon="15.113612378928392"><ele>764.0</ele><time>2026-03-28T11:39:11Z</time></trkpt><trkpt lat="37.726446078867816" lon="15.113744409107783"><ele>764.0</ele><time>2026-03-28T11:39:12Z</time></trkpt><trkpt lat="37.72646028126897" lon="15.113871962011434"><ele>764.0</ele><time>2026-03-28T11:39:13Z</time></trkpt><trkpt lat="37.72647877607389" lon="15.113974992670679"><ele>764.0</ele><time>2026-03-28T11:39:14Z</time></trkpt><trkpt lat="37.72652402710128" lon="15.114055178364856"><ele>764.0</ele><time>2026-03-28T11:39:15Z</time></trkpt><trkpt lat="37.72659600348859" lon="15.114093949456118"><ele>764.0</ele><time>2026-03-28T11:39:16Z</time></trkpt><trkpt lat="37.72667120731322" lon="15.114088928590187"><ele>764.0</ele><time>2026-03-28T11:39:17Z</time></trkpt><trkpt lat="37.726734741711425" lon="15.114059396551594"><ele>764.0</ele><time>2026-03-28T11:39:18Z</time></trkpt><trkpt lat="37.726790012020786" lon="15.113969909768153"><ele>764.0</ele><time>2026-03-28T11:39:19Z</time></trkpt><trkpt lat="37.726822185534445" lon="15.113836202170182"><ele>764.0</ele><time>2026-03-28T11:39:20Z</time></trkpt><trkpt lat="37.72686183765713" lon="15.113709278832541"><ele>764.0</ele><time>2026-03-28T11:39:21Z</time></trkpt><trkpt lat="37.726951762385916" lon="15.113589645557182"><ele>764.0</ele><time>2026-03-28T11:39:22Z</time></trkpt><trkpt lat="37.727025248776435" lon="15.113456104364857"><ele>765.1666666666666</ele><time>2026-03-28T11:39:23Z</time></trkpt><trkpt lat="37.727075950983476" lon="15.113354615030296"><ele>766.3333333333333</ele><time>2026-03-28T11:39:24Z</time></trkpt><trkpt lat="37.72711540938606" lon="15.113250636884164"><ele>767.5</ele><time>2026-03-28T11:39:25Z</time></trkpt><trkpt lat="37.7271451647824" lon="15.11314928423175"><ele>768.6666666666666</ele><time>2026-03-28T11:39:26Z</time></trkpt><trkpt lat="37.72717380405783" lon="15.113050419118823"><ele>769.8333333333334</ele><time>2026-03-28T11:39:27Z</time></trkpt><trkpt lat="37.727205821383095" lon="15.112951096897259"><ele>771.0</ele><time>2026-03-28T11:39:28Z</time></trkpt><trkpt lat="37.72724709056087" lon="15.11286571755512"><ele>772.8</ele><time>2026-03-28T11:39:29Z</time></trkpt><trkpt lat="37.72731592643003" lon="15.112818808122876"><ele>774.5999999999999</ele><time>2026-03-28T11:39:30Z</time></trkpt><trkpt lat="37.72738688588378" lon="15.112813835025214"><ele>776.4</ele><time>2026-03-28T11:39:31Z</time></trkpt><trkpt lat="37.72747191491973" lon="15.112771720474901"><ele>778.2</ele><time>2026-03-28T11:39:32Z</time></trkpt><trkpt lat="37.72758312606047" lon="15.112745287209412"><ele>780.0</ele><time>2026-03-28T11:39:33Z</time></trkpt><trkpt lat="37.727690778147185" lon="15.112719633204321"><ele>782.0</ele><time>2026-03-28T11:39:34Z</time></trkpt><trkpt lat="37.72780361903679" lon="15.11269525931076"><ele>784.0</ele><time>2026-03-28T11:39:35Z</time></trkpt><trkpt lat="37.7279224832911" lon="15.112677769143696"><ele>786.0</ele><time>2026-03-28T11:39:36Z</time></trkpt><trkpt lat="37.72804137996544" lon="15.112669061977511"><ele>788.0</ele><time>2026-03-28T11:39:37Z</time></trkpt><trkpt lat="37.72815952438304" lon="15.112670499322135"><ele>788.0</ele><time>2026-03-28T11:39:38Z</time></trkpt><trkpt lat="37.72826702782917" lon="15.112667588382847"><ele>788.0</ele><time>2026-03-28T11:39:39Z</time></trkpt><trkpt lat="37.72836486507797" lon="15.112663459863148"><ele>788.0</ele><time>2026-03-28T11:39:40Z</time></trkpt><trkpt lat="37.72847304567736" lon="15.11266770220743"><ele>788.0</ele><time>2026-03-28T11:39:41Z</time></trkpt><trkpt lat="37.7285883407956" lon="15.11267882150154"><ele>788.0</ele><time>2026-03-28T11:39:42Z</time></trkpt><trkpt lat="37.72870970151245" lon="15.112699133945828"><ele>788.4</ele><time>2026-03-28T11:39:43Z</time></trkpt><trkpt lat="37.72883427333951" lon="15.112712678381955"><ele>788.8</ele><time>2026-03-28T11:39:44Z</time></trkpt><trkpt lat="37.72895094265785" lon="15.112725934459538"><ele>789.2</ele><time>2026-03-28T11:39:45Z</time></trkpt><trkpt lat="37.72905886140124" lon="15.112739073828704"><ele>789.6</ele><time>2026-03-28T11:39:46Z</time></trkpt><trkpt lat="37.72915724288203" lon="15.112747123326715"><ele>790.0</ele><time>2026-03-28T11:39:47Z</time></trkpt><trkpt lat="37.72925394784776" lon="15.11275948890446"><ele>790.0</ele><time>2026-03-28T11:39:48Z</time></trkpt><trkpt lat="37.72935121961043" lon="15.11277224030141"><ele>790.0</ele><time>2026-03-28T11:39:49Z</time></trkpt><trkpt lat="37.72944421004133" lon="15.112778056766059"><ele>790.0</ele><time>2026-03-28T11:39:50Z</time></trkpt><trkpt lat="37.72954805230805" lon="15.112790866492555"><ele>790.0</ele><time>2026-03-28T11:39:51Z</time></trkpt><trkpt lat="37.72964983548921" lon="15.1128133366002"><ele>790.0</ele><time>2026-03-28T11:39:52Z</time></trkpt><trkpt lat="37.72975484849145" lon="15.112826133270504"><ele>789.75</ele><time>2026-03-28T11:39:53Z</time></trkpt><trkpt lat="37.729867303587454" lon="15.112833324922603"><ele>789.5</ele><time>2026-03-28T11:39:54Z</time></trkpt><trkpt lat="37.72998842919422" lon="15.112841697782024"><ele>789.25</ele><time>2026-03-28T11:39:55Z</time></trkpt><trkpt lat="37.73010918478102" lon="15.112858202339247"><ele>789.0</ele><time>2026-03-28T11:39:56Z</time></trkpt><trkpt lat="37.730226587787" lon="15.112871375691538"><ele>791.4000000000001</ele><time>2026-03-28T11:39:57Z</time></trkpt><trkpt lat="37.730332228782274" lon="15.11288570310884"><ele>793.8</ele><time>2026-03-28T11:39:58Z</time></trkpt><trkpt lat="37.73041504190448" lon="15.112906554300777"><ele>796.2</ele><time>2026-03-28T11:39:59Z</time></trkpt><trkpt lat="37.73050103072696" lon="15.11296641152814"><ele>798.5999999999999</ele><time>2026-03-28T11:40:00Z</time></trkpt><trkpt lat="37.73056395218507" lon="15.11305529812289"><ele>801.0</ele><time>2026-03-28T11:40:01Z</time></trkpt><trkpt lat="37.73060470467016" lon="15.113157052760894"><ele>799.4</ele><time>2026-03-28T11:40:02Z</time></trkpt><trkpt lat="37.730635260910795" lon="15.113266991498575"><ele>797.8</ele><time>2026-03-28T11:40:03Z</time></trkpt><trkpt lat="37.730688346333785" lon="15.113363414656192"><ele>796.1999999999999</ele><time>2026-03-28T11:40:04Z</time></trkpt><trkpt lat="37.730761122698475" lon="15.113440387128382"><ele>794.5999999999999</ele><time>2026-03-28T11:40:05Z</time></trkpt><trkpt lat="37.73083881783645" lon="15.113497265699559"><ele>793.0</ele><time>2026-03-28T11:40:06Z</time></trkpt><trkpt lat="37.73091596350689" lon="15.11352348014089"><ele>793.0</ele><time>2026-03-28T11:40:07Z</time></trkpt><trkpt lat="37.730997974803785" lon="15.113515801099307"><ele>793.0</ele><time>2026-03-28T11:40:08Z</time></trkpt><trkpt lat="37.731087961583334" lon="15.113490116426211"><ele>793.0</ele><time>2026-03-28T11:40:09Z</time></trkpt><trkpt lat="37.731182479405405" lon="15.113456082317665"><ele>793.0</ele><time>2026-03-28T11:40:10Z</time></trkpt><trkpt lat="37.731280311677615" lon="15.11342595773634"><ele>793.0</ele><time>2026-03-28T11:40:10.999Z</time></trkpt><trkpt lat="37.73137671230654" lon="15.113392979355062"><ele>792.5999999999999</ele><time>2026-03-28T11:40:11.999Z</time></trkpt><trkpt lat="37.73146736561955" lon="15.113339613329599"><ele>792.1999999999999</ele><time>2026-03-28T11:40:12.999Z</time></trkpt><trkpt lat="37.731562163627245" lon="15.113276509699666"><ele>791.8</ele><time>2026-03-28T11:40:13.999Z</time></trkpt><trkpt lat="37.73164357814031" lon="15.113164601468288"><ele>791.4</ele><time>2026-03-28T11:40:14.999Z</time></trkpt><trkpt lat="37.73172558616981" lon="15.113054494531028"><ele>791.0</ele><time>2026-03-28T11:40:15.999Z</time></trkpt><trkpt lat="37.73180923006693" lon="15.112939691110146"><ele>793.0000000000001</ele><time>2026-03-28T11:40:16.999Z</time></trkpt><trkpt lat="37.731885209055534" lon="15.112842009985846"><ele>795.0</ele><time>2026-03-28T11:40:17.999Z</time></trkpt><trkpt lat="37.73195342918816" lon="15.112780200434585"><ele>797.0</ele><time>2026-03-28T11:40:18.999Z</time></trkpt><trkpt lat="37.73201269580613" lon="15.11274664834664"><ele>799.0</ele><time>2026-03-28T11:40:19.999Z</time></trkpt><trkpt lat="37.732079855161594" lon="15.112729563349752"><ele>801.0000000000001</ele><time>2026-03-28T11:40:20.999Z</time></trkpt><trkpt lat="37.73215956346976" lon="15.112765781450351"><ele>803.0</ele><time>2026-03-28T11:40:21.999Z</time></trkpt><trkpt lat="37.73221959698426" lon="15.112844567185823"><ele>802.5999999999999</ele><time>2026-03-28T11:40:22.999Z</time></trkpt><trkpt lat="37.73224972771577" lon="15.112963027078084"><ele>802.1999999999999</ele><time>2026-03-28T11:40:23.999Z</time></trkpt><trkpt lat="37.73225374128437" lon="15.113095390714605"><ele>801.8</ele><time>2026-03-28T11:40:24.999Z</time></trkpt><trkpt lat="37.73223812964958" lon="15.113230806549339"><ele>801.4</ele><time>2026-03-28T11:40:25.999Z</time></trkpt><trkpt lat="37.7322148097533" lon="15.113367965257467"><ele>801.0</ele><time>2026-03-28T11:40:26.999Z</time></trkpt><trkpt lat="37.73220491836034" lon="15.113496494263439"><ele>801.0</ele><time>2026-03-28T11:40:27.999Z</time></trkpt><trkpt lat="37.73221912518688" lon="15.113612103330308"><ele>801.0</ele><time>2026-03-28T11:40:28.999Z</time></trkpt><trkpt lat="37.73226417104129" lon="15.113696100957066"><ele>801.0</ele><time>2026-03-28T11:40:29.999Z</time></trkpt><trkpt lat="37.73232915674445" lon="15.113756901487662"><ele>801.0</ele><time>2026-03-28T11:40:30.999Z</time></trkpt><trkpt lat="37.73240607789708" lon="15.113804388447171"><ele>801.0</ele><time>2026-03-28T11:40:31.999Z</time></trkpt><trkpt lat="37.73249806855447" lon="15.113798801856213"><ele>801.0</ele><time>2026-03-28T11:40:32.999Z</time></trkpt><trkpt lat="37.73258486093659" lon="15.113773368444917"><ele>801.0</ele><time>2026-03-28T11:40:33.999Z</time></trkpt><trkpt lat="37.732654912383076" lon="15.113701553934842"><ele>801.0</ele><time>2026-03-28T11:40:34.999Z</time></trkpt><trkpt lat="37.73271197261444" lon="15.113598052340583"><ele>801.0</ele><time>2026-03-28T11:40:35.999Z</time></trkpt><trkpt lat="37.73278218029568" lon="15.113484563733994"><ele>801.0</ele><time>2026-03-28T11:40:36.999Z</time></trkpt><trkpt lat="37.732838574573016" lon="15.11334587106205"><ele>801.0</ele><time>2026-03-28T11:40:37.999Z</time></trkpt><trkpt lat="37.732890479695634" lon="15.113200517461111"><ele>805.0</ele><time>2026-03-28T11:40:38.999Z</time></trkpt><trkpt lat="37.732938293267196" lon="15.113044007171286"><ele>809.0</ele><time>2026-03-28T11:40:39.999Z</time></trkpt><trkpt lat="37.73298507704768" lon="15.11287772307882"><ele>813.0</ele><time>2026-03-28T11:40:40.999Z</time></trkpt><trkpt lat="37.733031477146014" lon="15.112712738157649"><ele>817.0</ele><time>2026-03-28T11:40:41.999Z</time></trkpt><trkpt lat="37.733076994028224" lon="15.112563949481999"><ele>817.0</ele><time>2026-03-28T11:40:42.999Z</time></trkpt><trkpt lat="37.73311878209285" lon="15.112441418205135"><ele>817.0</ele><time>2026-03-28T11:40:43.999Z</time></trkpt><trkpt lat="37.733163590471555" lon="15.112331419000906"><ele>817.0</ele><time>2026-03-28T11:40:44.999Z</time></trkpt><trkpt lat="37.73321474435855" lon="15.112219965066437"><ele>817.0</ele><time>2026-03-28T11:40:45.999Z</time></trkpt><trkpt lat="37.73327369522071" lon="15.112110915794378"><ele>817.0</ele><time>2026-03-28T11:40:46.999Z</time></trkpt><trkpt lat="37.73334127696937" lon="15.112008465708291"><ele>817.8333333333333</ele><time>2026-03-28T11:40:47.999Z</time></trkpt><trkpt lat="37.73341478692948" lon="15.111917969116135"><ele>818.6666666666666</ele><time>2026-03-28T11:40:48.999Z</time></trkpt><trkpt lat="37.733475459409114" lon="15.111829288472427"><ele>819.5</ele><time>2026-03-28T11:40:49.999Z</time></trkpt><trkpt lat="37.73354176089878" lon="15.111798744376035"><ele>820.3333333333333</ele><time>2026-03-28T11:40:50.999Z</time></trkpt><trkpt lat="37.7336091530737" lon="15.111800758479824"><ele>821.1666666666666</ele><time>2026-03-28T11:40:51.999Z</time></trkpt><trkpt lat="37.733675648554325" lon="15.111831792465296"><ele>822.0</ele><time>2026-03-28T11:40:52.999Z</time></trkpt><trkpt lat="37.73372861643064" lon="15.111897888341678"><ele>822.0</ele><time>2026-03-28T11:40:54Z</time></trkpt><trkpt lat="37.73377240009832" lon="15.111987833644662"><ele>822.0</ele><time>2026-03-28T11:40:55Z</time></trkpt><trkpt lat="37.73381444827149" lon="15.11209289134254"><ele>822.0</ele><time>2026-03-28T11:40:56Z</time></trkpt><trkpt lat="37.73386508023477" lon="15.112203928474187"><ele>822.0</ele><time>2026-03-28T11:40:57Z</time></trkpt><trkpt lat="37.73392458944202" lon="15.11232039173459"><ele>822.0</ele><time>2026-03-28T11:40:58Z</time></trkpt><trkpt lat="37.73398226193639" lon="15.112428900661774"><ele>822.4000000000001</ele><time>2026-03-28T11:40:59Z</time></trkpt><trkpt lat="37.734042243525906" lon="15.1125147158046"><ele>822.8000000000001</ele><time>2026-03-28T11:41:00Z</time></trkpt><trkpt lat="37.73411753708753" lon="15.112588182909072"><ele>823.2</ele><time>2026-03-28T11:41:01Z</time></trkpt><trkpt lat="37.73420592449778" lon="15.112653963559781"><ele>823.6</ele><time>2026-03-28T11:41:02Z</time></trkpt><trkpt lat="37.73430429812933" lon="15.112728374976697"><ele>824.0</ele><time>2026-03-28T11:41:03Z</time></trkpt><trkpt lat="37.7344048020455" lon="15.112811489528319"><ele>825.0</ele><time>2026-03-28T11:41:04Z</time></trkpt><trkpt lat="37.73450650395813" lon="15.112894392363055"><ele>826.0</ele><time>2026-03-28T11:41:05Z</time></trkpt><trkpt lat="37.73459190481504" lon="15.11296676678848"><ele>827.0</ele><time>2026-03-28T11:41:06Z</time></trkpt><trkpt lat="37.73467183180934" lon="15.113031844241284"><ele>828.0</ele><time>2026-03-28T11:41:07Z</time></trkpt><trkpt lat="37.73474676775313" lon="15.113093097429669"><ele>829.0</ele><time>2026-03-28T11:41:08Z</time></trkpt><trkpt lat="37.734814377080376" lon="15.11314131917692"><ele>828.9999999999999</ele><time>2026-03-28T11:41:09Z</time></trkpt><trkpt lat="37.73488559114829" lon="15.113166418227427"><ele>829.0</ele><time>2026-03-28T11:41:10Z</time></trkpt><trkpt lat="37.734964605939375" lon="15.113155108340251"><ele>829.0</ele><time>2026-03-28T11:41:11Z</time></trkpt><trkpt lat="37.73503968344837" lon="15.113132958894283"><ele>829.0</ele><time>2026-03-28T11:41:12Z</time></trkpt><trkpt lat="37.735119416859746" lon="15.113111829524108"><ele>828.9999999999999</ele><time>2026-03-28T11:41:13Z</time></trkpt><trkpt lat="37.7351939177947" lon="15.113093414893847"><ele>829.0</ele><time>2026-03-28T11:41:14Z</time></trkpt><trkpt lat="37.735269262726675" lon="15.113070668884635"><ele>828.8333333333333</ele><time>2026-03-28T11:41:16Z</time></trkpt><trkpt lat="37.73535233921465" lon="15.113024804187681"><ele>828.6666666666666</ele><time>2026-03-28T11:41:19Z</time></trkpt><trkpt lat="37.73542411203273" lon="15.112988167457344"><ele>828.5</ele><time>2026-03-28T11:41:22Z</time></trkpt><trkpt lat="37.73552983308555" lon="15.112903851169845"><ele>828.3333333333333</ele><time>2026-03-28T11:41:24Z</time></trkpt><trkpt lat="37.735591667451715" lon="15.11284771893449"><ele>828.1666666666666</ele><time>2026-03-28T11:41:25Z</time></trkpt><trkpt lat="37.73564526799656" lon="15.112795186648677"><ele>828.0</ele><time>2026-03-28T11:41:26Z</time></trkpt><trkpt lat="37.73569947225824" lon="15.112739148498246"><ele>828.0</ele><time>2026-03-28T11:41:27Z</time></trkpt><trkpt lat="37.7357603445134" lon="15.112676418551846"><ele>828.0</ele><time>2026-03-28T11:41:28Z</time></trkpt><trkpt lat="37.73582604400281" lon="15.112608714170014"><ele>828.0</ele><time>2026-03-28T11:41:29Z</time></trkpt><trkpt lat="37.735890099045335" lon="15.112551102168444"><ele>828.0</ele><time>2026-03-28T11:41:30Z</time></trkpt><trkpt lat="37.7359588714402" lon="15.112513261173126"><ele>828.0</ele><time>2026-03-28T11:41:31Z</time></trkpt><trkpt lat="37.73603489429958" lon="15.112486714987726"><ele>828.0</ele><time>2026-03-28T11:41:32Z</time></trkpt><trkpt lat="37.73611254058293" lon="15.112504076441805"><ele>828.3333333333334</ele><time>2026-03-28T11:41:33Z</time></trkpt><trkpt lat="37.73619114538103" lon="15.112522472545479"><ele>828.6666666666667</ele><time>2026-03-28T11:41:34Z</time></trkpt><trkpt lat="37.73627608245495" lon="15.112539562375924"><ele>829.0</ele><time>2026-03-28T11:41:35Z</time></trkpt><trkpt lat="37.73636986439443" lon="15.112517265175143"><ele>829.3333333333334</ele><time>2026-03-28T11:41:36Z</time></trkpt><trkpt lat="37.73645878771293" lon="15.112484933472134"><ele>829.6666666666667</ele><time>2026-03-28T11:41:37Z</time></trkpt><trkpt lat="37.736541722807566" lon="15.112454779044908"><ele>830.0</ele><time>2026-03-28T11:41:38Z</time></trkpt><trkpt lat="37.736632755813446" lon="15.11241760371847"><ele>830.0</ele><time>2026-03-28T11:41:39Z</time></trkpt><trkpt lat="37.736745032426796" lon="15.112433581770928"><ele>830.0</ele><time>2026-03-28T11:41:40Z</time></trkpt><trkpt lat="37.73687835592536" lon="15.112499101293213"><ele>830.0</ele><time>2026-03-28T11:41:41Z</time></trkpt><trkpt lat="37.737034291019995" lon="15.112536344209918"><ele>830.0</ele><time>2026-03-28T11:41:42Z</time></trkpt><trkpt lat="37.73717440573938" lon="15.112601810855553"><ele>830.2</ele><time>2026-03-28T11:41:43Z</time></trkpt><trkpt lat="37.73729198090691" lon="15.112636542529332"><ele>830.4</ele><time>2026-03-28T11:41:44Z</time></trkpt><trkpt lat="37.737387111481155" lon="15.1126223317798"><ele>830.5999999999999</ele><time>2026-03-28T11:41:45Z</time></trkpt><trkpt lat="37.73748213358359" lon="15.112582137927204"><ele>830.8</ele><time>2026-03-28T11:41:46Z</time></trkpt><trkpt lat="37.73759029947117" lon="15.112526966979221"><ele>831.0</ele><time>2026-03-28T11:41:47Z</time></trkpt><trkpt lat="37.73771966985188" lon="15.11247157248786"><ele>832.3333333333333</ele><time>2026-03-28T11:41:48Z</time></trkpt><trkpt lat="37.73786424288894" lon="15.11242554765952"><ele>833.6666666666666</ele><time>2026-03-28T11:41:49Z</time></trkpt><trkpt lat="37.73803028101297" lon="15.112365817915649"><ele>835.0</ele><time>2026-03-28T11:41:50Z</time></trkpt><trkpt lat="37.73821095982638" lon="15.11234158650186"><ele>837.0</ele><time>2026-03-28T11:41:51Z</time></trkpt><trkpt lat="37.73839606608849" lon="15.112324706191481"><ele>839.0</ele><time>2026-03-28T11:41:52Z</time></trkpt><trkpt lat="37.73857942461608" lon="15.112301481375745"><ele>841.0</ele><time>2026-03-28T11:41:53Z</time></trkpt><trkpt lat="37.738761321081554" lon="15.112277066355652"><ele>841.0</ele><time>2026-03-28T11:41:54Z</time></trkpt><trkpt lat="37.73894253493006" lon="15.112263483073537"><ele>841.0</ele><time>2026-03-28T11:41:55Z</time></trkpt><trkpt lat="37.73912378127588" lon="15.112268706251674"><ele>841.0</ele><time>2026-03-28T11:41:56Z</time></trkpt><trkpt lat="37.73930554203351" lon="15.112295517579648"><ele>842.3333333333333</ele><time>2026-03-28T11:41:57Z</time></trkpt><trkpt lat="37.73949438804418" lon="15.112334148260672"><ele>843.6666666666667</ele><time>2026-03-28T11:41:58Z</time></trkpt><trkpt lat="37.7396849373854" lon="15.112366144217217"><ele>845.0</ele><time>2026-03-28T11:41:59Z</time></trkpt><trkpt lat="37.73988639378088" lon="15.112402595332325"><ele>844.0</ele><time>2026-03-28T11:42:00Z</time></trkpt><trkpt lat="37.74008570342215" lon="15.112439982325755"><ele>843.0</ele><time>2026-03-28T11:42:01Z</time></trkpt><trkpt lat="37.74028678014661" lon="15.112476406359741"><ele>842.0</ele><time>2026-03-28T11:42:02Z</time></trkpt><trkpt lat="37.740476602593866" lon="15.112510713917061"><ele>842.0</ele><time>2026-03-28T11:42:03Z</time></trkpt><trkpt lat="37.74065723519866" lon="15.11254157199035"><ele>842.0</ele><time>2026-03-28T11:42:04Z</time></trkpt><trkpt lat="37.740819497086676" lon="15.112570848515936"><ele>842.0</ele><time>2026-03-28T11:42:05Z</time></trkpt><trkpt lat="37.74096732885227" lon="15.112593435925431"><ele>843.0</ele><time>2026-03-28T11:42:06Z</time></trkpt><trkpt lat="37.74110074873192" lon="15.11261562748886"><ele>844.0</ele><time>2026-03-28T11:42:07Z</time></trkpt><trkpt lat="37.74122431871987" lon="15.11263231352263"><ele>845.0</ele><time>2026-03-28T11:42:08Z</time></trkpt><trkpt lat="37.74133944528877" lon="15.112652588385478"><ele>846.0</ele><time>2026-03-28T11:42:09Z</time></trkpt><trkpt lat="37.74144229144792" lon="15.112676491976195"><ele>846.0</ele><time>2026-03-28T11:42:10Z</time></trkpt><trkpt lat="37.74154191922888" lon="15.112707540483777"><ele>846.0</ele><time>2026-03-28T11:42:11Z</time></trkpt><trkpt lat="37.741656188769944" lon="15.11274939096115"><ele>846.0</ele><time>2026-03-28T11:42:12Z</time></trkpt><trkpt lat="37.74177233327302" lon="15.11280087999778"><ele>846.0</ele><time>2026-03-28T11:42:13Z</time></trkpt><trkpt lat="37.74187693495119" lon="15.112855559264396"><ele>847.0</ele><time>2026-03-28T11:42:14Z</time></trkpt><trkpt lat="37.74197335304242" lon="15.112909446547308"><ele>848.0</ele><time>2026-03-28T11:42:14.999Z</time></trkpt><trkpt lat="37.74205953380431" lon="15.112951796527527"><ele>849.0</ele><time>2026-03-28T11:42:15.999Z</time></trkpt><trkpt lat="37.742140337463916" lon="15.113001297403036"><ele>850.0</ele><time>2026-03-28T11:42:16.999Z</time></trkpt><trkpt lat="37.742234089602086" lon="15.113051851583851"><ele>851.0</ele><time>2026-03-28T11:42:17.999Z</time></trkpt><trkpt lat="37.74233090907343" lon="15.113107253149844"><ele>851.0</ele><time>2026-03-28T11:42:18.999Z</time></trkpt><trkpt lat="37.74242055950284" lon="15.113175225759619"><ele>851.0</ele><time>2026-03-28T11:42:19.999Z</time></trkpt><trkpt lat="37.74250490309236" lon="15.113260606569003"><ele>851.0</ele><time>2026-03-28T11:42:20.999Z</time></trkpt><trkpt lat="37.7425888546825" lon="15.11336549718842"><ele>851.0</ele><time>2026-03-28T11:42:21.999Z</time></trkpt><trkpt lat="37.742690740664884" lon="15.113433276044528"><ele>851.0</ele><time>2026-03-28T11:42:22.999Z</time></trkpt><trkpt lat="37.742814944101475" lon="15.113461643206774"><ele>851.75</ele><time>2026-03-28T11:42:23.999Z</time></trkpt><trkpt lat="37.74294033457383" lon="15.113469682338145"><ele>852.5</ele><time>2026-03-28T11:42:24.999Z</time></trkpt><trkpt lat="37.743071697875884" lon="15.113479288366722"><ele>853.25</ele><time>2026-03-28T11:42:25.999Z</time></trkpt><trkpt lat="37.743202534382135" lon="15.113496383841344"><ele>854.0</ele><time>2026-03-28T11:42:26.999Z</time></trkpt><trkpt lat="37.743337514356014" lon="15.113520529143939"><ele>854.0</ele><time>2026-03-28T11:42:27.999Z</time></trkpt><trkpt lat="37.74347691603867" lon="15.113545610563826"><ele>854.0</ele><time>2026-03-28T11:42:28.999Z</time></trkpt><trkpt lat="37.743625050846546" lon="15.11356508539983"><ele>854.0</ele><time>2026-03-28T11:42:29.999Z</time></trkpt><trkpt lat="37.743771465890774" lon="15.113571951660814"><ele>854.0</ele><time>2026-03-28T11:42:30.999Z</time></trkpt><trkpt lat="37.7439106279593" lon="15.113563905137527"><ele>854.75</ele><time>2026-03-28T11:42:31.999Z</time></trkpt><trkpt lat="37.74404818602824" lon="15.11355029798667"><ele>855.5</ele><time>2026-03-28T11:42:32.999Z</time></trkpt><trkpt lat="37.74418035254699" lon="15.11352760194046"><ele>856.25</ele><time>2026-03-28T11:42:33.999Z</time></trkpt><trkpt lat="37.74430124649979" lon="15.113508689320543"><ele>857.0</ele><time>2026-03-28T11:42:34.999Z</time></trkpt><trkpt lat="37.74442820208851" lon="15.113507996455004"><ele>858.25</ele><time>2026-03-28T11:42:35.999Z</time></trkpt><trkpt lat="37.74455083606331" lon="15.113550737846719"><ele>859.5</ele><time>2026-03-28T11:42:36.999Z</time></trkpt><trkpt lat="37.74467671522317" lon="15.11362586985035"><ele>860.75</ele><time>2026-03-28T11:42:37.999Z</time></trkpt><trkpt lat="37.74479480049249" lon="15.1137191991608"><ele>862.0</ele><time>2026-03-28T11:42:38.999Z</time></trkpt><trkpt lat="37.74491754383683" lon="15.113819795629443"><ele>862.0</ele><time>2026-03-28T11:42:39.999Z</time></trkpt><trkpt lat="37.74504292446573" lon="15.113920593473269"><ele>862.0</ele><time>2026-03-28T11:42:40.999Z</time></trkpt><trkpt lat="37.74517314775313" lon="15.114022657488846"><ele>862.0</ele><time>2026-03-28T11:42:41.999Z</time></trkpt><trkpt lat="37.74531089020251" lon="15.11412759914065"><ele>861.6666666666666</ele><time>2026-03-28T11:42:42.999Z</time></trkpt><trkpt lat="37.74544867528475" lon="15.114236052302891"><ele>861.3333333333333</ele><time>2026-03-28T11:42:43.999Z</time></trkpt><trkpt lat="37.7455886540554" lon="15.114346137944857"><ele>861.0</ele><time>2026-03-28T11:42:44.999Z</time></trkpt><trkpt lat="37.745732423644554" lon="15.11445787703509"><ele>861.0</ele><time>2026-03-28T11:42:45.999Z</time></trkpt><trkpt lat="37.74587765834762" lon="15.114568129948497"><ele>861.0</ele><time>2026-03-28T11:42:46.999Z</time></trkpt><trkpt lat="37.74601002479846" lon="15.114669916728934"><ele>861.0</ele><time>2026-03-28T11:42:47.999Z</time></trkpt><trkpt lat="37.7461350559804" lon="15.114765796374135"><ele>861.25</ele><time>2026-03-28T11:42:48.999Z</time></trkpt><trkpt lat="37.74624592778657" lon="15.114858580807425"><ele>861.5</ele><time>2026-03-28T11:42:49.999Z</time></trkpt><trkpt lat="37.74633662048556" lon="15.114964806924094"><ele>861.75</ele><time>2026-03-28T11:42:50.999Z</time></trkpt><trkpt lat="37.746401818766294" lon="15.115088824284895"><ele>862.0</ele><time>2026-03-28T11:42:51.999Z</time></trkpt><trkpt lat="37.74644303483041" lon="15.11521834050162"><ele>862.0</ele><time>2026-03-28T11:42:52.999Z</time></trkpt><trkpt lat="37.74648331659993" lon="15.115335642475152"><ele>862.0</ele><time>2026-03-28T11:42:53.999Z</time></trkpt><trkpt lat="37.74655578920182" lon="15.115402572291774"><ele>862.0</ele><time>2026-03-28T11:42:54.999Z</time></trkpt><trkpt lat="37.74666258336353" lon="15.115436705181489"><ele>862.0</ele><time>2026-03-28T11:42:55.999Z</time></trkpt><trkpt lat="37.74678110727589" lon="15.115437305139118"><ele>862.0</ele><time>2026-03-28T11:42:56.999Z</time></trkpt><trkpt lat="37.746904084926506" lon="15.115418830684323"><ele>863.0</ele><time>2026-03-28T11:42:57.999Z</time></trkpt><trkpt lat="37.747029821477014" lon="15.11539328323146"><ele>864.0</ele><time>2026-03-28T11:42:58.999Z</time></trkpt><trkpt lat="37.747146715291315" lon="15.115338136192097"><ele>865.0</ele><time>2026-03-28T11:43:00Z</time></trkpt><trkpt lat="37.74723787627108" lon="15.11525990290584"><ele>866.0</ele><time>2026-03-28T11:43:00.999Z</time></trkpt><trkpt lat="37.74730779192554" lon="15.115158414139032"><ele>866.0</ele><time>2026-03-28T11:43:01.999Z</time></trkpt><trkpt lat="37.74739619012489" lon="15.115060011247497"><ele>866.0</ele><time>2026-03-28T11:43:02.999Z</time></trkpt><trkpt lat="37.74748004379927" lon="15.11495888317893"><ele>866.0</ele><time>2026-03-28T11:43:04Z</time></trkpt><trkpt lat="37.74757292037021" lon="15.114891880390413"><ele>866.0</ele><time>2026-03-28T11:43:05Z</time></trkpt><trkpt lat="37.74768244429324" lon="15.11487630919472"><ele>866.5</ele><time>2026-03-28T11:43:06Z</time></trkpt><trkpt lat="37.74778796929577" lon="15.11491851920648"><ele>867.0</ele><time>2026-03-28T11:43:07Z</time></trkpt><trkpt lat="37.7479060074874" lon="15.114965018955973"><ele>867.5</ele><time>2026-03-28T11:43:08Z</time></trkpt><trkpt lat="37.74802316882084" lon="15.115048253503671"><ele>868.0</ele><time>2026-03-28T11:43:09Z</time></trkpt><trkpt lat="37.74815091434393" lon="15.115126179429224"><ele>868.0</ele><time>2026-03-28T11:43:10Z</time></trkpt><trkpt lat="37.74829019568578" lon="15.115179275050863"><ele>868.0</ele><time>2026-03-28T11:43:11Z</time></trkpt><trkpt lat="37.7484319141671" lon="15.115184562004298"><ele>868.0</ele><time>2026-03-28T11:43:12Z</time></trkpt><trkpt lat="37.74855362385485" lon="15.115130967137823"><ele>868.0</ele><time>2026-03-28T11:43:13Z</time></trkpt><trkpt lat="37.748654085700466" lon="15.115026460892931"><ele>871.5</ele><time>2026-03-28T11:43:14Z</time></trkpt><trkpt lat="37.748738166174306" lon="15.114896501038896"><ele>875.0</ele><time>2026-03-28T11:43:15Z</time></trkpt><trkpt lat="37.74882414586162" lon="15.114784088818404"><ele>878.5</ele><time>2026-03-28T11:43:16Z</time></trkpt><trkpt lat="37.748912096283036" lon="15.114717323419852"><ele>882.0</ele><time>2026-03-28T11:43:17Z</time></trkpt><trkpt lat="37.749013839260364" lon="15.114723542170996"><ele>882.0</ele><time>2026-03-28T11:43:18Z</time></trkpt><trkpt lat="37.749122977804355" lon="15.114754823983594"><ele>882.0</ele><time>2026-03-28T11:43:19Z</time></trkpt><trkpt lat="37.749239584148086" lon="15.114800748474046"><ele>882.0</ele><time>2026-03-28T11:43:20Z</time></trkpt><trkpt lat="37.74931566328998" lon="15.114915075433421"><ele>882.0</ele><time>2026-03-28T11:43:21Z</time></trkpt><trkpt lat="37.74935973873401" lon="15.115038096387726"><ele>882.5</ele><time>2026-03-28T11:43:22Z</time></trkpt><trkpt lat="37.74940314388128" lon="15.115165750484286"><ele>883.0</ele><time>2026-03-28T11:43:23Z</time></trkpt><trkpt lat="37.74945943631198" lon="15.115286120332186"><ele>883.5</ele><time>2026-03-28T11:43:24Z</time></trkpt><trkpt lat="37.749544757880486" lon="15.115393014900324"><ele>884.0</ele><time>2026-03-28T11:43:25Z</time></trkpt><trkpt lat="37.749658444050354" lon="15.115478004526555"><ele>884.0</ele><time>2026-03-28T11:43:26Z</time></trkpt><trkpt lat="37.74979012670652" lon="15.115544575912214"><ele>884.0</ele><time>2026-03-28T11:43:27Z</time></trkpt><trkpt lat="37.749937903009055" lon="15.115592727882124"><ele>884.0</ele><time>2026-03-28T11:43:28Z</time></trkpt><trkpt lat="37.75007774429372" lon="15.115633848867043"><ele>884.0</ele><time>2026-03-28T11:43:29Z</time></trkpt><trkpt lat="37.750228889416896" lon="15.115653504512252"><ele>886.0</ele><time>2026-03-28T11:43:30Z</time></trkpt><trkpt lat="37.750385782681974" lon="15.115648902578215"><ele>888.0</ele><time>2026-03-28T11:43:31Z</time></trkpt><trkpt lat="37.75054319345368" lon="15.11562788769159"><ele>890.0</ele><time>2026-03-28T11:43:32Z</time></trkpt><trkpt lat="37.750704300486674" lon="15.115609695828635"><ele>890.0</ele><time>2026-03-28T11:43:33Z</time></trkpt><trkpt lat="37.75086895559408" lon="15.115604708629718"><ele>890.0</ele><time>2026-03-28T11:43:34Z</time></trkpt><trkpt lat="37.75103747756167" lon="15.115610641784276"><ele>890.0</ele><time>2026-03-28T11:43:35Z</time></trkpt><trkpt lat="37.751204437800766" lon="15.115627374017807"><ele>890.6666666666667</ele><time>2026-03-28T11:43:36Z</time></trkpt><trkpt lat="37.75137364917289" lon="15.115660577502336"><ele>891.3333333333333</ele><time>2026-03-28T11:43:37Z</time></trkpt><trkpt lat="37.75152677379432" lon="15.115714808135133"><ele>892.0</ele><time>2026-03-28T11:43:38Z</time></trkpt><trkpt lat="37.75168399899125" lon="15.11578483066103"><ele>891.6666666666666</ele><time>2026-03-28T11:43:39Z</time></trkpt><trkpt lat="37.751839837241064" lon="15.115863651970951"><ele>891.3333333333333</ele><time>2026-03-28T11:43:40Z</time></trkpt><trkpt lat="37.75199320710798" lon="15.11594166618852"><ele>891.0</ele><time>2026-03-28T11:43:41Z</time></trkpt><trkpt lat="37.75213807886843" lon="15.116021638317955"><ele>891.0</ele><time>2026-03-28T11:43:42Z</time></trkpt><trkpt lat="37.75227342151068" lon="15.116093430984055"><ele>891.0</ele><time>2026-03-28T11:43:43Z</time></trkpt><trkpt lat="37.752398143455736" lon="15.116158205232457"><ele>891.0</ele><time>2026-03-28T11:43:44Z</time></trkpt><trkpt lat="37.752524220986906" lon="15.116221102617198"><ele>891.0</ele><time>2026-03-28T11:43:45Z</time></trkpt><trkpt lat="37.752651927903436" lon="15.116281453769123"><ele>891.6666666666667</ele><time>2026-03-28T11:43:46Z</time></trkpt><trkpt lat="37.75279034660914" lon="15.116341578883985"><ele>892.3333333333334</ele><time>2026-03-28T11:43:47Z</time></trkpt><trkpt lat="37.75294010074903" lon="15.116402967481159"><ele>893.0</ele><time>2026-03-28T11:43:48Z</time></trkpt><trkpt lat="37.753096589645" lon="15.11646273126425"><ele>893.0</ele><time>2026-03-28T11:43:49Z</time></trkpt><trkpt lat="37.753256120809375" lon="15.11651450951386"><ele>893.0</ele><time>2026-03-28T11:43:50Z</time></trkpt><trkpt lat="37.75343031941205" lon="15.116548978206232"><ele>893.0</ele><time>2026-03-28T11:43:51Z</time></trkpt><trkpt lat="37.7536082940371" lon="15.116566544816337"><ele>890.3333333333334</ele><time>2026-03-28T11:43:52Z</time></trkpt><trkpt lat="37.753775013943645" lon="15.116590434418853"><ele>887.6666666666667</ele><time>2026-03-28T11:43:53Z</time></trkpt><trkpt lat="37.75392468824777" lon="15.116609308587305"><ele>885.0</ele><time>2026-03-28T11:43:54Z</time></trkpt><trkpt lat="37.7540602384812" lon="15.116627658105099"><ele>885.0</ele><time>2026-03-28T11:43:55Z</time></trkpt><trkpt lat="37.75418255209922" lon="15.116643661080094"><ele>885.0</ele><time>2026-03-28T11:43:56Z</time></trkpt><trkpt lat="37.75429908865124" lon="15.116667210316137"><ele>885.0</ele><time>2026-03-28T11:43:57Z</time></trkpt><trkpt lat="37.754415346746015" lon="15.116714388800379"><ele>885.0</ele><time>2026-03-28T11:43:58Z</time></trkpt><trkpt lat="37.75452975269228" lon="15.11680828914631"><ele>887.0</ele><time>2026-03-28T11:43:59Z</time></trkpt><trkpt lat="37.754633628092435" lon="15.116905835838077"><ele>889.0</ele><time>2026-03-28T11:44:00Z</time></trkpt><trkpt lat="37.75473095478467" lon="15.11698929407739"><ele>891.0</ele><time>2026-03-28T11:44:01Z</time></trkpt><trkpt lat="37.75483195527913" lon="15.117069988584174"><ele>893.0</ele><time>2026-03-28T11:44:02Z</time></trkpt><trkpt lat="37.75492993869048" lon="15.117167510602904"><ele>893.0</ele><time>2026-03-28T11:44:03Z</time></trkpt><trkpt lat="37.75500675032088" lon="15.117300188442089"><ele>893.0</ele><time>2026-03-28T11:44:04Z</time></trkpt><trkpt lat="37.755063645074735" lon="15.117432103711739"><ele>893.0</ele><time>2026-03-28T11:44:05Z</time></trkpt><trkpt lat="37.75512610648265" lon="15.117552732350036"><ele>893.0</ele><time>2026-03-28T11:44:06Z</time></trkpt><trkpt lat="37.755185787532035" lon="15.117666986843531"><ele>892.5000000000001</ele><time>2026-03-28T11:44:07Z</time></trkpt><trkpt lat="37.755242423330515" lon="15.117763109270244"><ele>892.0</ele><time>2026-03-28T11:44:08Z</time></trkpt><trkpt lat="37.75530680164621" lon="15.117832572049766"><ele>891.5</ele><time>2026-03-28T11:44:09Z</time></trkpt><trkpt lat="37.75537938204672" lon="15.11787524232633"><ele>891.0</ele><time>2026-03-28T11:44:10Z</time></trkpt><trkpt lat="37.75546620506006" lon="15.117900144288114"><ele>890.5000000000001</ele><time>2026-03-28T11:44:11Z</time></trkpt><trkpt lat="37.755565394322275" lon="15.117886458074064"><ele>890.0</ele><time>2026-03-28T11:44:12Z</time></trkpt><trkpt lat="37.75567226587145" lon="15.117865697767321"><ele>890.0</ele><time>2026-03-28T11:44:12.999Z</time></trkpt><trkpt lat="37.75578537911502" lon="15.117831063667689"><ele>890.0</ele><time>2026-03-28T11:44:13.999Z</time></trkpt><trkpt lat="37.7558934383527" lon="15.117799047523059"><ele>890.0</ele><time>2026-03-28T11:44:14.999Z</time></trkpt><trkpt lat="37.75599459830811" lon="15.117775876467874"><ele>890.0</ele><time>2026-03-28T11:44:15.999Z</time></trkpt><trkpt lat="37.75608415229317" lon="15.117773121794269"><ele>890.0</ele><time>2026-03-28T11:44:16.999Z</time></trkpt><trkpt lat="37.75617071794606" lon="15.11779921321036"><ele>891.0</ele><time>2026-03-28T11:44:17.999Z</time></trkpt><trkpt lat="37.75625555679868" lon="15.117847843493"><ele>892.0</ele><time>2026-03-28T11:44:18.999Z</time></trkpt><trkpt lat="37.75632580764422" lon="15.11791505141639"><ele>893.0</ele><time>2026-03-28T11:44:19.999Z</time></trkpt><trkpt lat="37.75638389783271" lon="15.11799574596792"><ele>894.0</ele><time>2026-03-28T11:44:20.999Z</time></trkpt><trkpt lat="37.75643467734186" lon="15.118083298850618"><ele>895.0</ele><time>2026-03-28T11:44:21.999Z</time></trkpt><trkpt lat="37.75649518821679" lon="15.118193591513977"><ele>891.75</ele><time>2026-03-28T11:44:22.999Z</time></trkpt><trkpt lat="37.756564583156305" lon="15.11830887870531"><ele>888.5</ele><time>2026-03-28T11:44:23.999Z</time></trkpt><trkpt lat="37.75665488541694" lon="15.118422736007561"><ele>885.25</ele><time>2026-03-28T11:44:24.999Z</time></trkpt><trkpt lat="37.756759541255256" lon="15.118526150217843"><ele>882.0</ele><time>2026-03-28T11:44:25.999Z</time></trkpt><trkpt lat="37.756859406413405" lon="15.118601676404442"><ele>883.75</ele><time>2026-03-28T11:44:26.999Z</time></trkpt><trkpt lat="37.756968815031314" lon="15.118672991556545"><ele>885.5</ele><time>2026-03-28T11:44:27.999Z</time></trkpt><trkpt lat="37.7570955036208" lon="15.118744266688442"><ele>887.25</ele><time>2026-03-28T11:44:28.999Z</time></trkpt><trkpt lat="37.757234046570225" lon="15.118817638005474"><ele>889.0</ele><time>2026-03-28T11:44:29.999Z</time></trkpt><trkpt lat="37.75738122749651" lon="15.118886653301281"><ele>889.0</ele><time>2026-03-28T11:44:30.999Z</time></trkpt><trkpt lat="37.75754265966301" lon="15.118952487678015"><ele>889.0</ele><time>2026-03-28T11:44:31.999Z</time></trkpt><trkpt lat="37.75771254533427" lon="15.119042407494728"><ele>889.0</ele><time>2026-03-28T11:44:32.999Z</time></trkpt><trkpt lat="37.75787174179849" lon="15.11914807613039"><ele>886.6666666666666</ele><time>2026-03-28T11:44:33.999Z</time></trkpt><trkpt lat="37.75803371248977" lon="15.119232321054419"><ele>884.3333333333333</ele><time>2026-03-28T11:44:34.999Z</time></trkpt><trkpt lat="37.75818649625901" lon="15.119311614000916"><ele>882.0</ele><time>2026-03-28T11:44:35.999Z</time></trkpt><trkpt lat="37.758318507581734" lon="15.119368663549048"><ele>882.0</ele><time>2026-03-28T11:44:36.999Z</time></trkpt><trkpt lat="37.758453137860094" lon="15.119388189153122"><ele>882.0</ele><time>2026-03-28T11:44:37.999Z</time></trkpt><trkpt lat="37.75859050141633" lon="15.119358433589543"><ele>882.0</ele><time>2026-03-28T11:44:38.999Z</time></trkpt><trkpt lat="37.75873019744884" lon="15.11929056245439"><ele>882.0</ele><time>2026-03-28T11:44:39.999Z</time></trkpt><trkpt lat="37.758865994712586" lon="15.119221874223184"><ele>882.25</ele><time>2026-03-28T11:44:40.999Z</time></trkpt><trkpt lat="37.75899607662939" lon="15.119165360451404"><ele>882.5</ele><time>2026-03-28T11:44:41.999Z</time></trkpt><trkpt lat="37.759132338471936" lon="15.119148282682067"><ele>882.75</ele><time>2026-03-28T11:44:42.999Z</time></trkpt><trkpt lat="37.75927714876321" lon="15.119183918101509"><ele>883.0</ele><time>2026-03-28T11:44:43.999Z</time></trkpt><trkpt lat="37.75941014795866" lon="15.119261933738795"><ele>883.0</ele><time>2026-03-28T11:44:44.999Z</time></trkpt><trkpt lat="37.759534111667264" lon="15.119336439473228"><ele>883.0</ele><time>2026-03-28T11:44:45.999Z</time></trkpt><trkpt lat="37.759655031359394" lon="15.119406758950625"><ele>883.0</ele><time>2026-03-28T11:44:46.999Z</time></trkpt><trkpt lat="37.759758133896" lon="15.119512746094058"><ele>883.0</ele><time>2026-03-28T11:44:47.999Z</time></trkpt><trkpt lat="37.7598429659448" lon="15.119661960382391"><ele>883.0</ele><time>2026-03-28T11:44:48.999Z</time></trkpt><trkpt lat="37.75990982426747" lon="15.119840667434167"><ele>883.0</ele><time>2026-03-28T11:44:49.999Z</time></trkpt><trkpt lat="37.75996559558575" lon="15.120036998500442"><ele>883.0</ele><time>2026-03-28T11:44:50.999Z</time></trkpt><trkpt lat="37.76003171039279" lon="15.12023470016164"><ele>883.3333333333333</ele><time>2026-03-28T11:44:51.999Z</time></trkpt><trkpt lat="37.76011394038055" lon="15.120452260160897"><ele>883.6666666666667</ele><time>2026-03-28T11:44:52.999Z</time></trkpt><trkpt lat="37.76021269135538" lon="15.120673361994983"><ele>884.0</ele><time>2026-03-28T11:44:53.999Z</time></trkpt><trkpt lat="37.76033457087081" lon="15.120905550298659"><ele>881.0</ele><time>2026-03-28T11:44:54.999Z</time></trkpt><trkpt lat="37.760419771175854" lon="15.121133939221524"><ele>878.0</ele><time>2026-03-28T11:44:55.999Z</time></trkpt><trkpt lat="37.760482222678355" lon="15.121332561965426"><ele>875.0</ele><time>2026-03-28T11:44:56.999Z</time></trkpt><trkpt lat="37.760544401962" lon="15.121496508905308"><ele>873.0</ele><time>2026-03-28T11:44:57.999Z</time></trkpt><trkpt lat="37.76059871936339" lon="15.121641931565412"><ele>871.0</ele><time>2026-03-28T11:44:58.999Z</time></trkpt><trkpt lat="37.76065394499233" lon="15.121778712619168"><ele>869.0</ele><time>2026-03-28T11:44:59.999Z</time></trkpt><trkpt lat="37.76073697469781" lon="15.12190178045212"><ele>867.0</ele><time>2026-03-28T11:45:00.999Z</time></trkpt><trkpt lat="37.76083953461904" lon="15.122003638227609"><ele>867.0</ele><time>2026-03-28T11:45:01.999Z</time></trkpt><trkpt lat="37.760962017552096" lon="15.12206470788195"><ele>867.0</ele><time>2026-03-28T11:45:02.999Z</time></trkpt><trkpt lat="37.76111296537469" lon="15.122089562485181"><ele>867.0</ele><time>2026-03-28T11:45:03.999Z</time></trkpt><trkpt lat="37.761283357379405" lon="15.122119148408"><ele>867.6666666666667</ele><time>2026-03-28T11:45:04.999Z</time></trkpt><trkpt lat="37.761455414694524" lon="15.12216011056903"><ele>868.3333333333334</ele><time>2026-03-28T11:45:06Z</time></trkpt><trkpt lat="37.76162072628184" lon="15.12219520804587"><ele>869.0</ele><time>2026-03-28T11:45:07Z</time></trkpt><trkpt lat="37.76177074240626" lon="15.122226285284324"><ele>869.25</ele><time>2026-03-28T11:45:08Z</time></trkpt><trkpt lat="37.76191201816854" lon="15.122255890122785"><ele>869.5</ele><time>2026-03-28T11:45:09Z</time></trkpt><trkpt lat="37.76204140998314" lon="15.122273734818322"><ele>869.75</ele><time>2026-03-28T11:45:10Z</time></trkpt><trkpt lat="37.76217451493896" lon="15.122274643898583"><ele>870.0</ele><time>2026-03-28T11:45:11Z</time></trkpt><trkpt lat="37.7623111299674" lon="15.122230923971797"><ele>870.0</ele><time>2026-03-28T11:45:12Z</time></trkpt><trkpt lat="37.76245160929672" lon="15.122170625170341"><ele>870.0</ele><time>2026-03-28T11:45:13Z</time></trkpt><trkpt lat="37.76259902602944" lon="15.122110347804492"><ele>870.0</ele><time>2026-03-28T11:45:14Z</time></trkpt><trkpt lat="37.76275413966495" lon="15.12205214411415"><ele>871.6666666666667</ele><time>2026-03-28T11:45:15Z</time></trkpt><trkpt lat="37.76291507914537" lon="15.12198969258249"><ele>873.3333333333334</ele><time>2026-03-28T11:45:16Z</time></trkpt><trkpt lat="37.763071769683684" lon="15.121926350794"><ele>875.0</ele><time>2026-03-28T11:45:17Z</time></trkpt><trkpt lat="37.76321769740221" lon="15.121893479396622"><ele>875.0</ele><time>2026-03-28T11:45:18Z</time></trkpt><trkpt lat="37.76333516444358" lon="15.121839017687334"><ele>875.0</ele><time>2026-03-28T11:45:19Z</time></trkpt><trkpt lat="37.763460058931074" lon="15.12184482349216"><ele>875.0</ele><time>2026-03-28T11:45:20Z</time></trkpt><trkpt lat="37.76359173360823" lon="15.121887738859456"><ele>875.0</ele><time>2026-03-28T11:45:21Z</time></trkpt><trkpt lat="37.76372771266526" lon="15.121950602117368"><ele>874.3333333333334</ele><time>2026-03-28T11:45:22Z</time></trkpt><trkpt lat="37.76387811296627" lon="15.122018368136581"><ele>873.6666666666667</ele><time>2026-03-28T11:45:23Z</time></trkpt><trkpt lat="37.76403460707906" lon="15.122068082278501"><ele>873.0</ele><time>2026-03-28T11:45:24Z</time></trkpt><trkpt lat="37.764204764587014" lon="15.122081667476534"><ele>873.6666666666667</ele><time>2026-03-28T11:45:25Z</time></trkpt><trkpt lat="37.764381510315964" lon="15.122073615518621"><ele>874.3333333333334</ele><time>2026-03-28T11:45:26Z</time></trkpt><trkpt lat="37.764556828550376" lon="15.122069067306924"><ele>875.0</ele><time>2026-03-28T11:45:27Z</time></trkpt><trkpt lat="37.76472322128856" lon="15.122070470393432"><ele>875.0</ele><time>2026-03-28T11:45:28Z</time></trkpt><trkpt lat="37.76488595417724" lon="15.122071722804696"><ele>875.0</ele><time>2026-03-28T11:45:29Z</time></trkpt><trkpt lat="37.764985284713774" lon="15.122059307868362"><ele>875.0</ele><time>2026-03-28T11:45:30Z</time></trkpt><trkpt lat="37.765128858855505" lon="15.12204474891676"><ele>875.0</ele><time>2026-03-28T11:45:31Z</time></trkpt><trkpt lat="37.7652798362136" lon="15.122009789681659"><ele>876.25</ele><time>2026-03-28T11:45:32Z</time></trkpt><trkpt lat="37.76542277371812" lon="15.121945762436319"><ele>877.5</ele><time>2026-03-28T11:45:33Z</time></trkpt><trkpt lat="37.765556361060256" lon="15.1218648606775"><ele>878.75</ele><time>2026-03-28T11:45:34Z</time></trkpt><trkpt lat="37.76567423196661" lon="15.121783308379491"><ele>880.0</ele><time>2026-03-28T11:45:35Z</time></trkpt><trkpt lat="37.76578128261803" lon="15.121725412579906"><ele>880.0</ele><time>2026-03-28T11:45:36Z</time></trkpt><trkpt lat="37.76589147239453" lon="15.121721937996236"><ele>880.0</ele><time>2026-03-28T11:45:37Z</time></trkpt><trkpt lat="37.76600949147456" lon="15.121730001546869"><ele>880.0</ele><time>2026-03-28T11:45:38Z</time></trkpt><trkpt lat="37.76613088874366" lon="15.121779934641978"><ele>880.0</ele><time>2026-03-28T11:45:39Z</time></trkpt><trkpt lat="37.76627976649583" lon="15.121814412139248"><ele>883.3333333333333</ele><time>2026-03-28T11:45:40Z</time></trkpt><trkpt lat="37.76643635518529" lon="15.121872509173519"><ele>886.6666666666667</ele><time>2026-03-28T11:45:41Z</time></trkpt><trkpt lat="37.766597877613755" lon="15.121928303669444"><ele>890.0</ele><time>2026-03-28T11:45:42Z</time></trkpt><trkpt lat="37.76676628216917" lon="15.12199022745935"><ele>892.0</ele><time>2026-03-28T11:45:43Z</time></trkpt><trkpt lat="37.76690789707853" lon="15.122039071376282"><ele>894.0</ele><time>2026-03-28T11:45:44Z</time></trkpt><trkpt lat="37.76701915963432" lon="15.122075238418109"><ele>896.0</ele><time>2026-03-28T11:45:45Z</time></trkpt><trkpt lat="37.76711186900318" lon="15.122113532577034"><ele>898.0</ele><time>2026-03-28T11:45:46Z</time></trkpt><trkpt lat="37.76720254985548" lon="15.122190182421944"><ele>898.0</ele><time>2026-03-28T11:45:47Z</time></trkpt><trkpt lat="37.767277153677504" lon="15.122324181513058"><ele>898.0</ele><time>2026-03-28T11:45:48Z</time></trkpt><trkpt lat="37.76733036651254" lon="15.122457699989637"><ele>898.0</ele><time>2026-03-28T11:45:49Z</time></trkpt><trkpt lat="37.76736947264014" lon="15.12256900240067"><ele>898.0</ele><time>2026-03-28T11:45:50Z</time></trkpt><trkpt lat="37.76734428709758" lon="15.122684639118521"><ele>898.0</ele><time>2026-03-28T11:45:51Z</time></trkpt><trkpt lat="37.76731168345729" lon="15.12281081406458"><ele>896.25</ele><time>2026-03-28T11:45:52Z</time></trkpt><trkpt lat="37.76727568405573" lon="15.122955379051255"><ele>894.5</ele><time>2026-03-28T11:45:53Z</time></trkpt><trkpt lat="37.7672042357802" lon="15.123087800444443"><ele>892.75</ele><time>2026-03-28T11:45:54Z</time></trkpt><trkpt lat="37.7671388606359" lon="15.123230236306421"><ele>891.0</ele><time>2026-03-28T11:45:55Z</time></trkpt><trkpt lat="37.76709714719841" lon="15.12336970938353"><ele>890.25</ele><time>2026-03-28T11:45:56Z</time></trkpt><trkpt lat="37.767083498853204" lon="15.123499855855428"><ele>889.5</ele><time>2026-03-28T11:45:57Z</time></trkpt><trkpt lat="37.76709981249362" lon="15.123629093851024"><ele>888.75</ele><time>2026-03-28T11:45:58Z</time></trkpt><trkpt lat="37.76714978035523" lon="15.12376453129726"><ele>888.0</ele><time>2026-03-28T11:45:59Z</time></trkpt><trkpt lat="37.76723849139706" lon="15.1238972680025"><ele>888.0</ele><time>2026-03-28T11:46:00Z</time></trkpt><trkpt lat="37.767350983022766" lon="15.124018418414279"><ele>888.0</ele><time>2026-03-28T11:46:01Z</time></trkpt><trkpt lat="37.76746353524783" lon="15.124157896582123"><ele>888.0</ele><time>2026-03-28T11:46:02Z</time></trkpt><trkpt lat="37.76757761417455" lon="15.124316730119277"><ele>886.3333333333333</ele><time>2026-03-28T11:46:03Z</time></trkpt><trkpt lat="37.76769405989511" lon="15.124483027129612"><ele>884.6666666666666</ele><time>2026-03-28T11:46:04Z</time></trkpt><trkpt lat="37.76780458436164" lon="15.124644289954045"><ele>883.0</ele><time>2026-03-28T11:46:05Z</time></trkpt><trkpt lat="37.7679181462725" lon="15.12478352175746"><ele>883.0</ele><time>2026-03-28T11:46:06Z</time></trkpt><trkpt lat="37.7680495801858" lon="15.124890555005203"><ele>883.0</ele><time>2026-03-28T11:46:07Z</time></trkpt><trkpt lat="37.76819402479308" lon="15.124967981515251"><ele>883.0</ele><time>2026-03-28T11:46:08Z</time></trkpt><trkpt lat="37.768354908072766" lon="15.1250289328919"><ele>880.0</ele><time>2026-03-28T11:46:09Z</time></trkpt><trkpt lat="37.76852348033312" lon="15.125080829660854"><ele>877.0</ele><time>2026-03-28T11:46:10Z</time></trkpt><trkpt lat="37.768698501403414" lon="15.125137026483927"><ele>874.0</ele><time>2026-03-28T11:46:11Z</time></trkpt><trkpt lat="37.76887273587874" lon="15.12519585097495"><ele>874.0</ele><time>2026-03-28T11:46:12Z</time></trkpt><trkpt lat="37.769043121000585" lon="15.125258383786601"><ele>874.0</ele><time>2026-03-28T11:46:13Z</time></trkpt><trkpt lat="37.76920550054953" lon="15.125316295751848"><ele>874.0</ele><time>2026-03-28T11:46:14Z</time></trkpt><trkpt lat="37.769359422070984" lon="15.125374625116697"><ele>875.75</ele><time>2026-03-28T11:46:15Z</time></trkpt><trkpt lat="37.769495122198535" lon="15.125427268185469"><ele>877.5</ele><time>2026-03-28T11:46:16Z</time></trkpt><trkpt lat="37.76962157509109" lon="15.125474558575048"><ele>879.25</ele><time>2026-03-28T11:46:17Z</time></trkpt><trkpt lat="37.76974625044678" lon="15.125527001758602"><ele>881.0</ele><time>2026-03-28T11:46:18Z</time></trkpt><trkpt lat="37.76987760410112" lon="15.1255790427004"><ele>881.0</ele><time>2026-03-28T11:46:19Z</time></trkpt><trkpt lat="37.770005973016254" lon="15.12562754448929"><ele>881.0</ele><time>2026-03-28T11:46:20Z</time></trkpt><trkpt lat="37.77012532912407" lon="15.12567027487079"><ele>881.0</ele><time>2026-03-28T11:46:21Z</time></trkpt><trkpt lat="37.77023382286033" lon="15.12570885504301"><ele>881.0</ele><time>2026-03-28T11:46:22Z</time></trkpt><trkpt lat="37.770337203186884" lon="15.125747597520096"><ele>879.1999999999999</ele><time>2026-03-28T11:46:23Z</time></trkpt><trkpt lat="37.77043965226354" lon="15.125786972720995"><ele>877.3999999999999</ele><time>2026-03-28T11:46:24Z</time></trkpt><trkpt lat="37.7705462470514" lon="15.12582816213022"><ele>875.6</ele><time>2026-03-28T11:46:25Z</time></trkpt><trkpt lat="37.77064524953682" lon="15.125860509307438"><ele>873.8</ele><time>2026-03-28T11:46:26Z</time></trkpt><trkpt lat="37.77075039689099" lon="15.125884656764686"><ele>872.0</ele><time>2026-03-28T11:46:27Z</time></trkpt><trkpt lat="37.770860844997635" lon="15.125905855944907"><ele>872.0</ele><time>2026-03-28T11:46:28Z</time></trkpt><trkpt lat="37.770978805177144" lon="15.125925793988626"><ele>872.0</ele><time>2026-03-28T11:46:29Z</time></trkpt><trkpt lat="37.77109390617916" lon="15.12596798880427"><ele>872.0</ele><time>2026-03-28T11:46:30Z</time></trkpt><trkpt lat="37.77120451305287" lon="15.125985852525197"><ele>872.0</ele><time>2026-03-28T11:46:31Z</time></trkpt><trkpt lat="37.77130914592612" lon="15.125983672562196"><ele>873.0</ele><time>2026-03-28T11:46:32Z</time></trkpt><trkpt lat="37.77142177099672" lon="15.126006760986199"><ele>874.0</ele><time>2026-03-28T11:46:33Z</time></trkpt><trkpt lat="37.7715423612613" lon="15.126033595973674"><ele>875.0</ele><time>2026-03-28T11:46:34Z</time></trkpt><trkpt lat="37.771669665178045" lon="15.126059476452488"><ele>876.0</ele><time>2026-03-28T11:46:35Z</time></trkpt><trkpt lat="37.771805782289796" lon="15.126084731803912"><ele>876.0</ele><time>2026-03-28T11:46:36Z</time></trkpt><trkpt lat="37.771946053954224" lon="15.126110045211357"><ele>876.0</ele><time>2026-03-28T11:46:37Z</time></trkpt><trkpt lat="37.77208717631891" lon="15.12613630484495"><ele>876.0</ele><time>2026-03-28T11:46:38Z</time></trkpt><trkpt lat="37.772226709544626" lon="15.126167592208033"><ele>876.0</ele><time>2026-03-28T11:46:39Z</time></trkpt><trkpt lat="37.772356879329074" lon="15.126211943300776"><ele>876.0</ele><time>2026-03-28T11:46:40Z</time></trkpt><trkpt lat="37.77249555440074" lon="15.126278783876222"><ele>876.0</ele><time>2026-03-28T11:46:41Z</time></trkpt><trkpt lat="37.77263461999313" lon="15.126356479940235"><ele>876.0</ele><time>2026-03-28T11:46:42Z</time></trkpt><trkpt lat="37.772783523865456" lon="15.126437716459058"><ele>877.0</ele><time>2026-03-28T11:46:43Z</time></trkpt><trkpt lat="37.77293284373263" lon="15.126517778279936"><ele>878.0</ele><time>2026-03-28T11:46:44Z</time></trkpt><trkpt lat="37.77308629003082" lon="15.1266023232398"><ele>879.0</ele><time>2026-03-28T11:46:45Z</time></trkpt><trkpt lat="37.77324929819546" lon="15.126691261129702"><ele>877.3333333333333</ele><time>2026-03-28T11:46:46Z</time></trkpt><trkpt lat="37.77340242136886" lon="15.126775317055733"><ele>875.6666666666666</ele><time>2026-03-28T11:46:47Z</time></trkpt><trkpt lat="37.773547319184374" lon="15.126855161906509"><ele>874.0</ele><time>2026-03-28T11:46:48Z</time></trkpt><trkpt lat="37.773705424455905" lon="15.12693669330294"><ele>874.0</ele><time>2026-03-28T11:46:49Z</time></trkpt><trkpt lat="37.77386162432963" lon="15.126999922754665"><ele>874.0</ele><time>2026-03-28T11:46:50Z</time></trkpt><trkpt lat="37.77402923793929" lon="15.127050913348864"><ele>874.0</ele><time>2026-03-28T11:46:51Z</time></trkpt><trkpt lat="37.774201949596055" lon="15.127094315101672"><ele>873.6666666666666</ele><time>2026-03-28T11:46:52Z</time></trkpt><trkpt lat="37.7743602883295" lon="15.127128045075427"><ele>873.3333333333333</ele><time>2026-03-28T11:46:53Z</time></trkpt><trkpt lat="37.77451686313989" lon="15.127154948836056"><ele>873.0</ele><time>2026-03-28T11:46:54Z</time></trkpt><trkpt lat="37.77468392717713" lon="15.127170480318469"><ele>873.0</ele><time>2026-03-28T11:46:55Z</time></trkpt><trkpt lat="37.77485154541381" lon="15.127173219613006"><ele>873.0</ele><time>2026-03-28T11:46:56Z</time></trkpt><trkpt lat="37.77502076465555" lon="15.127152958856897"><ele>873.0</ele><time>2026-03-28T11:46:57Z</time></trkpt><trkpt lat="37.775189253636476" lon="15.127120508243433"><ele>872.6666666666667</ele><time>2026-03-28T11:46:58Z</time></trkpt><trkpt lat="37.775349115271815" lon="15.127073311057089"><ele>872.3333333333334</ele><time>2026-03-28T11:46:59Z</time></trkpt><trkpt lat="37.775513861068106" lon="15.127030891756005"><ele>872.0</ele><time>2026-03-28T11:47:00Z</time></trkpt><trkpt lat="37.77567296086357" lon="15.126949647758247"><ele>872.0</ele><time>2026-03-28T11:47:01Z</time></trkpt><trkpt lat="37.77581331455739" lon="15.126840011831927"><ele>872.0</ele><time>2026-03-28T11:47:02Z</time></trkpt><trkpt lat="37.77597017552784" lon="15.126741171948842"><ele>872.0</ele><time>2026-03-28T11:47:03Z</time></trkpt><trkpt lat="37.77612476100618" lon="15.126667535645044"><ele>871.3333333333334</ele><time>2026-03-28T11:47:04Z</time></trkpt><trkpt lat="37.77626943006538" lon="15.126578225802394"><ele>870.6666666666667</ele><time>2026-03-28T11:47:05Z</time></trkpt><trkpt lat="37.7764146238312" lon="15.126465638646167"><ele>870.0</ele><time>2026-03-28T11:47:06Z</time></trkpt><trkpt lat="37.77656788902092" lon="15.126373199345508"><ele>871.6666666666667</ele><time>2026-03-28T11:47:07Z</time></trkpt><trkpt lat="37.77672567398599" lon="15.126278890739503"><ele>873.3333333333334</ele><time>2026-03-28T11:47:08Z</time></trkpt><trkpt lat="37.77688811529652" lon="15.12618389674348"><ele>875.0</ele><time>2026-03-28T11:47:09Z</time></trkpt><trkpt lat="37.77704008473351" lon="15.126089196850417"><ele>875.0</ele><time>2026-03-28T11:47:10Z</time></trkpt><trkpt lat="37.777192568228685" lon="15.125995137774959"><ele>875.0</ele><time>2026-03-28T11:47:11Z</time></trkpt><trkpt lat="37.77733878492693" lon="15.125904782688764"><ele>875.0</ele><time>2026-03-28T11:47:12Z</time></trkpt><trkpt lat="37.777486711131104" lon="15.125827042865767"><ele>875.0</ele><time>2026-03-28T11:47:13Z</time></trkpt><trkpt lat="37.77764146886067" lon="15.125790878833541"><ele>875.0</ele><time>2026-03-28T11:47:14Z</time></trkpt><trkpt lat="37.777799439382456" lon="15.125749251241174"><ele>875.0</ele><time>2026-03-28T11:47:15Z</time></trkpt><trkpt lat="37.77793894623853" lon="15.125692199896244"><ele>875.0</ele><time>2026-03-28T11:47:16Z</time></trkpt><trkpt lat="37.778074674690544" lon="15.125660625378465"><ele>875.0</ele><time>2026-03-28T11:47:17Z</time></trkpt><trkpt lat="37.778202177870455" lon="15.125646825387944"><ele>875.0</ele><time>2026-03-28T11:47:18Z</time></trkpt><trkpt lat="37.77831736285752" lon="15.125620292729245"><ele>875.0</ele><time>2026-03-28T11:47:19Z</time></trkpt><trkpt lat="37.77842920398715" lon="15.12573476404625"><ele>875.0</ele><time>2026-03-28T11:47:20Z</time></trkpt><trkpt lat="37.778517375578076" lon="15.125830325420084"><ele>875.0</ele><time>2026-03-28T11:47:21Z</time></trkpt><trkpt lat="37.77859400576594" lon="15.125954655385973"><ele>875.0</ele><time>2026-03-28T11:47:22Z</time></trkpt><trkpt lat="37.77866066801043" lon="15.126094606228166"><ele>875.0</ele><time>2026-03-28T11:47:23Z</time></trkpt><trkpt lat="37.77873153525885" lon="15.12622441577405"><ele>874.75</ele><time>2026-03-28T11:47:24Z</time></trkpt><trkpt lat="37.77880667101862" lon="15.126338166957202"><ele>874.5</ele><time>2026-03-28T11:47:25Z</time></trkpt><trkpt lat="37.77888235357665" lon="15.126437649087919"><ele>874.25</ele><time>2026-03-28T11:47:26Z</time></trkpt><trkpt lat="37.778973438705705" lon="15.126516985511932"><ele>874.0</ele><time>2026-03-28T11:47:27Z</time></trkpt><trkpt lat="37.77908006401978" lon="15.126572021597777"><ele>874.0</ele><time>2026-03-28T11:47:28Z</time></trkpt><trkpt lat="37.779200679171026" lon="15.126610830806255"><ele>874.0</ele><time>2026-03-28T11:47:29Z</time></trkpt><trkpt lat="37.77932511474286" lon="15.126645029062942"><ele>874.0</ele><time>2026-03-28T11:47:30Z</time></trkpt><trkpt lat="37.77944384580567" lon="15.12668050744463"><ele>874.0</ele><time>2026-03-28T11:47:31Z</time></trkpt><trkpt lat="37.77955447627756" lon="15.126718605228698"><ele>874.4000000000001</ele><time>2026-03-28T11:47:32Z</time></trkpt><trkpt lat="37.779653799692476" lon="15.126769823243299"><ele>874.8000000000001</ele><time>2026-03-28T11:47:33Z</time></trkpt><trkpt lat="37.779736670664775" lon="15.126852552019626"><ele>875.1999999999999</ele><time>2026-03-28T11:47:34Z</time></trkpt><trkpt lat="37.77980348370862" lon="15.12697281869838"><ele>875.5999999999999</ele><time>2026-03-28T11:47:35Z</time></trkpt><trkpt lat="37.779843900982016" lon="15.127110945942604"><ele>876.0</ele><time>2026-03-28T11:47:36Z</time></trkpt><trkpt lat="37.779859264422456" lon="15.12725338147438"><ele>875.75</ele><time>2026-03-28T11:47:37Z</time></trkpt><trkpt lat="37.77987025269576" lon="15.127405152248826"><ele>875.5</ele><time>2026-03-28T11:47:38Z</time></trkpt><trkpt lat="37.77989146090593" lon="15.12756485184539"><ele>875.25</ele><time>2026-03-28T11:47:39Z</time></trkpt><trkpt lat="37.77991491039399" lon="15.12773742624286"><ele>875.0</ele><time>2026-03-28T11:47:40Z</time></trkpt><trkpt lat="37.77994548543292" lon="15.127913989326482"><ele>875.0</ele><time>2026-03-28T11:47:41Z</time></trkpt><trkpt lat="37.780000439904484" lon="15.128078513072618"><ele>875.0</ele><time>2026-03-28T11:47:42Z</time></trkpt><trkpt lat="37.78008011990073" lon="15.128236016124948"><ele>875.0</ele><time>2026-03-28T11:47:43Z</time></trkpt><trkpt lat="37.7801749597447" lon="15.128387443889174"><ele>875.0</ele><time>2026-03-28T11:47:44Z</time></trkpt><trkpt lat="37.780280444829735" lon="15.128537798573474"><ele>874.6666666666667</ele><time>2026-03-28T11:47:45Z</time></trkpt><trkpt lat="37.780383703027724" lon="15.12869299963515"><ele>874.3333333333333</ele><time>2026-03-28T11:47:46Z</time></trkpt><trkpt lat="37.78048178013566" lon="15.128849079440895"><ele>874.0</ele><time>2026-03-28T11:47:47Z</time></trkpt><trkpt lat="37.78056811936676" lon="15.128993880857415"><ele>871.75</ele><time>2026-03-28T11:47:48Z</time></trkpt><trkpt lat="37.7806442558704" lon="15.129123330934831"><ele>869.5</ele><time>2026-03-28T11:47:49Z</time></trkpt><trkpt lat="37.78072150907165" lon="15.129232288324578"><ele>867.25</ele><time>2026-03-28T11:47:50Z</time></trkpt><trkpt lat="37.78081763386296" lon="15.129323608399709"><ele>865.0</ele><time>2026-03-28T11:47:51Z</time></trkpt><trkpt lat="37.780939868892204" lon="15.12938208500559"><ele>865.75</ele><time>2026-03-28T11:47:52Z</time></trkpt><trkpt lat="37.78106815478326" lon="15.129410987468722"><ele>866.5</ele><time>2026-03-28T11:47:53Z</time></trkpt><trkpt lat="37.78119386034581" lon="15.129420180749511"><ele>867.25</ele><time>2026-03-28T11:47:54Z</time></trkpt><trkpt lat="37.78132749312689" lon="15.129435212483097"><ele>868.0</ele><time>2026-03-28T11:47:55Z</time></trkpt><trkpt lat="37.78145746574442" lon="15.129462309831343"><ele>868.0</ele><time>2026-03-28T11:47:56Z</time></trkpt><trkpt lat="37.78157598164236" lon="15.129502636865228"><ele>868.0</ele><time>2026-03-28T11:47:57Z</time></trkpt><trkpt lat="37.781680498568456" lon="15.12957676389095"><ele>868.0</ele><time>2026-03-28T11:47:58Z</time></trkpt><trkpt lat="37.78174470118502" lon="15.129702530376912"><ele>868.0</ele><time>2026-03-28T11:47:59Z</time></trkpt><trkpt lat="37.78180843006308" lon="15.129812458767775"><ele>865.25</ele><time>2026-03-28T11:48:00Z</time></trkpt><trkpt lat="37.78182759778906" lon="15.129948138229105"><ele>862.5</ele><time>2026-03-28T11:48:01Z</time></trkpt><trkpt lat="37.781826977352004" lon="15.130095738723178"><ele>859.75</ele><time>2026-03-28T11:48:02Z</time></trkpt><trkpt lat="37.78180014508289" lon="15.130240259777626"><ele>857.0</ele><time>2026-03-28T11:48:03Z</time></trkpt><trkpt lat="37.7817463984369" lon="15.130362739458892"><ele>857.0</ele><time>2026-03-28T11:48:04Z</time></trkpt><trkpt lat="37.781670138996255" lon="15.13048226948332"><ele>857.0</ele><time>2026-03-28T11:48:05Z</time></trkpt><trkpt lat="37.78158351442698" lon="15.13060461601166"><ele>857.0</ele><time>2026-03-28T11:48:06Z</time></trkpt><trkpt lat="37.78153103244605" lon="15.130745551881459"><ele>857.0</ele><time>2026-03-28T11:48:07Z</time></trkpt><trkpt lat="37.78151800260596" lon="15.130895069330133"><ele>855.25</ele><time>2026-03-28T11:48:08Z</time></trkpt><trkpt lat="37.781539527330445" lon="15.13103144569768"><ele>853.5</ele><time>2026-03-28T11:48:09Z</time></trkpt><trkpt lat="37.78159272564698" lon="15.131169865055695"><ele>851.75</ele><time>2026-03-28T11:48:10Z</time></trkpt><trkpt lat="37.78167228239597" lon="15.131301275980997"><ele>850.0</ele><time>2026-03-28T11:48:11Z</time></trkpt><trkpt lat="37.7817651268316" lon="15.131429765115804"><ele>849.0</ele><time>2026-03-28T11:48:12Z</time></trkpt><trkpt lat="37.7818743866988" lon="15.131548977213294"><ele>848.0</ele><time>2026-03-28T11:48:13Z</time></trkpt><trkpt lat="37.78199979936496" lon="15.131654566252722"><ele>847.0</ele><time>2026-03-28T11:48:14Z</time></trkpt><trkpt lat="37.78213510557191" lon="15.131755772271427"><ele>847.0</ele><time>2026-03-28T11:48:15Z</time></trkpt><trkpt lat="37.782267923017365" lon="15.13185796446553"><ele>847.0</ele><time>2026-03-28T11:48:16Z</time></trkpt><trkpt lat="37.78239262674965" lon="15.131951972528197"><ele>847.0</ele><time>2026-03-28T11:48:17Z</time></trkpt><trkpt lat="37.782514294556194" lon="15.132046557041399"><ele>847.0</ele><time>2026-03-28T11:48:18Z</time></trkpt><trkpt lat="37.782631244071204" lon="15.132142071333632"><ele>847.25</ele><time>2026-03-28T11:48:19Z</time></trkpt><trkpt lat="37.782743455737354" lon="15.132234397060193"><ele>847.5</ele><time>2026-03-28T11:48:20Z</time></trkpt><trkpt lat="37.78285268520449" lon="15.13232157985287"><ele>847.75</ele><time>2026-03-28T11:48:21Z</time></trkpt><trkpt lat="37.78296663674981" lon="15.132390482328612"><ele>848.0</ele><time>2026-03-28T11:48:22Z</time></trkpt><trkpt lat="37.783085525450446" lon="15.13241408979372"><ele>848.0</ele><time>2026-03-28T11:48:23Z</time></trkpt><trkpt lat="37.783204423739555" lon="15.132394339962163"><ele>848.0</ele><time>2026-03-28T11:48:24Z</time></trkpt><trkpt lat="37.78331928053381" lon="15.13233537109076"><ele>848.0</ele><time>2026-03-28T11:48:25Z</time></trkpt><trkpt lat="37.783426329049895" lon="15.132251467199955"><ele>848.0</ele><time>2026-03-28T11:48:26Z</time></trkpt><trkpt lat="37.783527357598196" lon="15.13215603946668"><ele>847.5</ele><time>2026-03-28T11:48:27Z</time></trkpt><trkpt lat="37.78363095546679" lon="15.132091572277139"><ele>847.0</ele><time>2026-03-28T11:48:28Z</time></trkpt><trkpt lat="37.78374486281475" lon="15.13204884349417"><ele>846.5</ele><time>2026-03-28T11:48:29Z</time></trkpt><trkpt lat="37.78387272853549" lon="15.132054665583716"><ele>846.0</ele><time>2026-03-28T11:48:30Z</time></trkpt><trkpt lat="37.78400762561429" lon="15.13203283452608"><ele>846.0</ele><time>2026-03-28T11:48:31Z</time></trkpt><trkpt lat="37.78414483643132" lon="15.132033361141277"><ele>846.0</ele><time>2026-03-28T11:48:32Z</time></trkpt><trkpt lat="37.784286001982004" lon="15.13203144024348"><ele>846.0</ele><time>2026-03-28T11:48:33Z</time></trkpt><trkpt lat="37.78442707732383" lon="15.132031895730181"><ele>846.0</ele><time>2026-03-28T11:48:34Z</time></trkpt><trkpt lat="37.784559279162345" lon="15.132028194470122"><ele>843.75</ele><time>2026-03-28T11:48:35Z</time></trkpt><trkpt lat="37.784691704188944" lon="15.132029208519151"><ele>841.5</ele><time>2026-03-28T11:48:36Z</time></trkpt><trkpt lat="37.78482947410678" lon="15.132049988408864"><ele>839.25</ele><time>2026-03-28T11:48:37Z</time></trkpt><trkpt lat="37.78496999805205" lon="15.13209911610939"><ele>837.0</ele><time>2026-03-28T11:48:38Z</time></trkpt><trkpt lat="37.785107466073576" lon="15.132168839935963"><ele>837.25</ele><time>2026-03-28T11:48:39Z</time></trkpt><trkpt lat="37.785236000710675" lon="15.132233222178744"><ele>837.5</ele><time>2026-03-28T11:48:40Z</time></trkpt><trkpt lat="37.78536105619103" lon="15.132284376725805"><ele>837.75</ele><time>2026-03-28T11:48:41Z</time></trkpt><trkpt lat="37.78548188478632" lon="15.13231748579148"><ele>838.0</ele><time>2026-03-28T11:48:42Z</time></trkpt><trkpt lat="37.78560799170906" lon="15.132323682742486"><ele>838.0</ele><time>2026-03-28T11:48:43Z</time></trkpt><trkpt lat="37.785743102213715" lon="15.132313285146312"><ele>838.0</ele><time>2026-03-28T11:48:44Z</time></trkpt><trkpt lat="37.78588226246741" lon="15.132304099998079"><ele>838.0</ele><time>2026-03-28T11:48:45Z</time></trkpt><trkpt lat="37.78602691573271" lon="15.132297124551297"><ele>838.0</ele><time>2026-03-28T11:48:46Z</time></trkpt><trkpt lat="37.78617449329345" lon="15.13228984368485"><ele>837.0</ele><time>2026-03-28T11:48:47Z</time></trkpt><trkpt lat="37.78632705637696" lon="15.132283621081916"><ele>836.0</ele><time>2026-03-28T11:48:48Z</time></trkpt><trkpt lat="37.78648260620145" lon="15.132277303230568"><ele>835.0</ele><time>2026-03-28T11:48:49Z</time></trkpt><trkpt lat="37.78664097395472" lon="15.13227359328269"><ele>835.0</ele><time>2026-03-28T11:48:50Z</time></trkpt><trkpt lat="37.78678596867706" lon="15.132275722635221"><ele>835.0</ele><time>2026-03-28T11:48:51Z</time></trkpt><trkpt lat="37.78692112071444" lon="15.13229374562041"><ele>835.0</ele><time>2026-03-28T11:48:52Z</time></trkpt><trkpt lat="37.78705058134734" lon="15.132340669005426"><ele>835.0</ele><time>2026-03-28T11:48:53Z</time></trkpt><trkpt lat="37.787182676068525" lon="15.132404134622297"><ele>833.0</ele><time>2026-03-28T11:48:54Z</time></trkpt><trkpt lat="37.78731895134375" lon="15.132472337596084"><ele>831.0</ele><time>2026-03-28T11:48:55Z</time></trkpt><trkpt lat="37.78746234040056" lon="15.132545648833988"><ele>829.0</ele><time>2026-03-28T11:48:56Z</time></trkpt><trkpt lat="37.7876112065382" lon="15.132622507063886"><ele>828.75</ele><time>2026-03-28T11:48:57Z</time></trkpt><trkpt lat="37.78775960705182" lon="15.132700019196472"><ele>828.5</ele><time>2026-03-28T11:48:58Z</time></trkpt><trkpt lat="37.787894966291645" lon="15.132761050046007"><ele>828.25</ele><time>2026-03-28T11:48:59Z</time></trkpt><trkpt lat="37.78802280700716" lon="15.132786689174623"><ele>828.0</ele><time>2026-03-28T11:49:00Z</time></trkpt><trkpt lat="37.788146491157555" lon="15.132760747178063"><ele>828.0</ele><time>2026-03-28T11:49:01Z</time></trkpt><trkpt lat="37.78826798524731" lon="15.132714727044807"><ele>828.0</ele><time>2026-03-28T11:49:02Z</time></trkpt><trkpt lat="37.78837989287573" lon="15.132615126222639"><ele>828.0</ele><time>2026-03-28T11:49:03Z</time></trkpt><trkpt lat="37.78848962694509" lon="15.132500234307328"><ele>828.0</ele><time>2026-03-28T11:49:04Z</time></trkpt><trkpt lat="37.78860769295894" lon="15.132385563684764"><ele>828.75</ele><time>2026-03-28T11:49:05Z</time></trkpt><trkpt lat="37.78872967472522" lon="15.132267089980648"><ele>829.5</ele><time>2026-03-28T11:49:06Z</time></trkpt><trkpt lat="37.78884721859049" lon="15.132151175813648"><ele>830.25</ele><time>2026-03-28T11:49:07Z</time></trkpt><trkpt lat="37.78895679586625" lon="15.13204061724354"><ele>831.0</ele><time>2026-03-28T11:49:08Z</time></trkpt><trkpt lat="37.78905963702871" lon="15.13194625828866"><ele>831.0</ele><time>2026-03-28T11:49:09Z</time></trkpt><trkpt lat="37.789165039439595" lon="15.131871589948677"><ele>831.0</ele><time>2026-03-28T11:49:10Z</time></trkpt><trkpt lat="37.78927474850955" lon="15.131815947929423"><ele>831.0</ele><time>2026-03-28T11:49:11Z</time></trkpt><trkpt lat="37.7893931227223" lon="15.131835864387805"><ele>831.0</ele><time>2026-03-28T11:49:12Z</time></trkpt><trkpt lat="37.78951455949809" lon="15.1318859496134"><ele>833.0</ele><time>2026-03-28T11:49:13Z</time></trkpt><trkpt lat="37.789634938366554" lon="15.131965769924197"><ele>835.0</ele><time>2026-03-28T11:49:14Z</time></trkpt><trkpt lat="37.789759362250784" lon="15.132045467197075"><ele>837.0</ele><time>2026-03-28T11:49:15Z</time></trkpt><trkpt lat="37.78988945246128" lon="15.132128280809734"><ele>839.0</ele><time>2026-03-28T11:49:16Z</time></trkpt><trkpt lat="37.79002571665573" lon="15.132216277451047"><ele>839.0</ele><time>2026-03-28T11:49:17Z</time></trkpt><trkpt lat="37.79015609088938" lon="15.132302116974293"><ele>839.0</ele><time>2026-03-28T11:49:18Z</time></trkpt><trkpt lat="37.79026920857796" lon="15.132369961269585"><ele>839.0</ele><time>2026-03-28T11:49:19Z</time></trkpt><trkpt lat="37.79038192770979" lon="15.132406573937587"><ele>839.0</ele><time>2026-03-28T11:49:20Z</time></trkpt><trkpt lat="37.79049898692289" lon="15.132408421335438"><ele>837.75</ele><time>2026-03-28T11:49:21Z</time></trkpt><trkpt lat="37.79062462049624" lon="15.132380326862684"><ele>836.5</ele><time>2026-03-28T11:49:22Z</time></trkpt><trkpt lat="37.790753165654095" lon="15.132326358016376"><ele>835.25</ele><time>2026-03-28T11:49:23Z</time></trkpt><trkpt lat="37.790888190882015" lon="15.132266367923354"><ele>834.0</ele><time>2026-03-28T11:49:24Z</time></trkpt><trkpt lat="37.79103056657794" lon="15.132204823076695"><ele>834.0</ele><time>2026-03-28T11:49:25Z</time></trkpt><trkpt lat="37.7911782533133" lon="15.132141790303791"><ele>834.0</ele><time>2026-03-28T11:49:26Z</time></trkpt><trkpt lat="37.7913305411743" lon="15.132074725375963"><ele>834.0</ele><time>2026-03-28T11:49:27Z</time></trkpt><trkpt lat="37.79148706670438" lon="15.132003391478344"><ele>834.0</ele><time>2026-03-28T11:49:28Z</time></trkpt><trkpt lat="37.791637655561736" lon="15.131935292537966"><ele>834.0</ele><time>2026-03-28T11:49:29Z</time></trkpt><trkpt lat="37.7917848302715" lon="15.131868571391214"><ele>834.0</ele><time>2026-03-28T11:49:30Z</time></trkpt><trkpt lat="37.7919280938377" lon="15.131800860146821"><ele>832.5</ele><time>2026-03-28T11:49:31Z</time></trkpt><trkpt lat="37.79206284546155" lon="15.13173914793498"><ele>831.0</ele><time>2026-03-28T11:49:32Z</time></trkpt><trkpt lat="37.79219410669131" lon="15.13168812515953"><ele>829.5</ele><time>2026-03-28T11:49:33Z</time></trkpt><trkpt lat="37.79232904514948" lon="15.131659304950615"><ele>828.0</ele><time>2026-03-28T11:49:34Z</time></trkpt><trkpt lat="37.79246385988702" lon="15.131650849581295"><ele>828.0</ele><time>2026-03-28T11:49:35Z</time></trkpt><trkpt lat="37.792577500703715" lon="15.13164457346433"><ele>828.0</ele><time>2026-03-28T11:49:36Z</time></trkpt><trkpt lat="37.792680523340586" lon="15.13166953886706"><ele>828.0</ele><time>2026-03-28T11:49:37Z</time></trkpt><trkpt lat="37.79277427092976" lon="15.131730446797835"><ele>828.0</ele><time>2026-03-28T11:49:38Z</time></trkpt><trkpt lat="37.79286455016182" lon="15.13181208509354"><ele>828.0</ele><time>2026-03-28T11:49:39Z</time></trkpt><trkpt lat="37.792954585556366" lon="15.131897771632405"><ele>828.75</ele><time>2026-03-28T11:49:40Z</time></trkpt><trkpt lat="37.79304780294104" lon="15.131988896734624"><ele>829.5</ele><time>2026-03-28T11:49:41Z</time></trkpt><trkpt lat="37.79314888678517" lon="15.132077971267462"><ele>830.25</ele><time>2026-03-28T11:49:42Z</time></trkpt><trkpt lat="37.793260389395975" lon="15.132140798582032"><ele>831.0</ele><time>2026-03-28T11:49:43Z</time></trkpt><trkpt lat="37.793383822220704" lon="15.132163769749305"><ele>832.25</ele><time>2026-03-28T11:49:44Z</time></trkpt><trkpt lat="37.79351405227536" lon="15.13214691643757"><ele>833.5</ele><time>2026-03-28T11:49:45Z</time></trkpt><trkpt lat="37.793645974796824" lon="15.13210739382487"><ele>834.75</ele><time>2026-03-28T11:49:46Z</time></trkpt><trkpt lat="37.79378222317003" lon="15.132059642001371"><ele>836.0</ele><time>2026-03-28T11:49:47Z</time></trkpt><trkpt lat="37.793923958633364" lon="15.132010402683294"><ele>836.0</ele><time>2026-03-28T11:49:48Z</time></trkpt><trkpt lat="37.79407821277685" lon="15.131964280709719"><ele>836.0</ele><time>2026-03-28T11:49:49Z</time></trkpt><trkpt lat="37.794233029218155" lon="15.131916505318552"><ele>836.0</ele><time>2026-03-28T11:49:50Z</time></trkpt><trkpt lat="37.79439086826474" lon="15.131864996300095"><ele>834.6666666666667</ele><time>2026-03-28T11:49:51Z</time></trkpt><trkpt lat="37.79455128635228" lon="15.1318100979018"><ele>833.3333333333333</ele><time>2026-03-28T11:49:52Z</time></trkpt><trkpt lat="37.79470854294624" lon="15.131751186917556"><ele>832.0</ele><time>2026-03-28T11:49:53Z</time></trkpt><trkpt lat="37.79485667885806" lon="15.131686177867575"><ele>832.0</ele><time>2026-03-28T11:49:54Z</time></trkpt><trkpt lat="37.79500847341451" lon="15.13161546250686"><ele>832.0</ele><time>2026-03-28T11:49:55Z</time></trkpt><trkpt lat="37.79516335799731" lon="15.131565784399728"><ele>832.0</ele><time>2026-03-28T11:49:56Z</time></trkpt><trkpt lat="37.79530140758675" lon="15.131481514321656"><ele>831.0</ele><time>2026-03-28T11:49:57Z</time></trkpt><trkpt lat="37.79544435885726" lon="15.131420710376677"><ele>830.0</ele><time>2026-03-28T11:49:58Z</time></trkpt><trkpt lat="37.795585847443164" lon="15.131357836870038"><ele>829.0</ele><time>2026-03-28T11:49:59Z</time></trkpt><trkpt lat="37.79573081282028" lon="15.131293355025976"><ele>829.0</ele><time>2026-03-28T11:50:00Z</time></trkpt><trkpt lat="37.79586849316248" lon="15.131229512678527"><ele>829.0</ele><time>2026-03-28T11:50:01Z</time></trkpt><trkpt lat="37.79599504429328" lon="15.131166510033754"><ele>829.0</ele><time>2026-03-28T11:50:02Z</time></trkpt><trkpt lat="37.79612042688542" lon="15.13111575418881"><ele>829.0</ele><time>2026-03-28T11:50:03Z</time></trkpt><trkpt lat="37.79625264556653" lon="15.131090620486207"><ele>827.5</ele><time>2026-03-28T11:50:04Z</time></trkpt><trkpt lat="37.79639024318175" lon="15.131091582933275"><ele>826.0</ele><time>2026-03-28T11:50:05Z</time></trkpt><trkpt lat="37.796530645866575" lon="15.131112395638276"><ele>824.5</ele><time>2026-03-28T11:50:06Z</time></trkpt><trkpt lat="37.79667418302508" lon="15.131149056830743"><ele>823.0</ele><time>2026-03-28T11:50:07Z</time></trkpt><trkpt lat="37.79682312407229" lon="15.131189971644686"><ele>823.0</ele><time>2026-03-28T11:50:08Z</time></trkpt><trkpt lat="37.79697045041539" lon="15.131228698640408"><ele>823.0</ele><time>2026-03-28T11:50:09Z</time></trkpt><trkpt lat="37.7971052799499" lon="15.131263277954147"><ele>823.0</ele><time>2026-03-28T11:50:10Z</time></trkpt><trkpt lat="37.79723765590797" lon="15.131293760007136"><ele>823.0</ele><time>2026-03-28T11:50:11Z</time></trkpt><trkpt lat="37.79736826200376" lon="15.13132769165273"><ele>823.0</ele><time>2026-03-28T11:50:12Z</time></trkpt><trkpt lat="37.79748956595569" lon="15.131381245346372"><ele>823.0</ele><time>2026-03-28T11:50:13Z</time></trkpt><trkpt lat="37.79759525649063" lon="15.13146277465981"><ele>823.0</ele><time>2026-03-28T11:50:14Z</time></trkpt><trkpt lat="37.7976830709903" lon="15.131569237476114"><ele>823.0</ele><time>2026-03-28T11:50:15Z</time></trkpt><trkpt lat="37.7977512261802" lon="15.131698586323452"><ele>821.5</ele><time>2026-03-28T11:50:16Z</time></trkpt><trkpt lat="37.797825249876794" lon="15.13183876595509"><ele>820.0</ele><time>2026-03-28T11:50:17Z</time></trkpt><trkpt lat="37.797909751438645" lon="15.131986940092883"><ele>818.5</ele><time>2026-03-28T11:50:18Z</time></trkpt><trkpt lat="37.79799245602783" lon="15.132127064048376"><ele>817.0</ele><time>2026-03-28T11:50:19Z</time></trkpt><trkpt lat="37.79806549858019" lon="15.132254766500658"><ele>817.0</ele><time>2026-03-28T11:50:20Z</time></trkpt><trkpt lat="37.79814320374567" lon="15.13235821882554"><ele>817.0</ele><time>2026-03-28T11:50:21Z</time></trkpt><trkpt lat="37.79823485296965" lon="15.13242444323244"><ele>817.0</ele><time>2026-03-28T11:50:22Z</time></trkpt><trkpt lat="37.798335974033435" lon="15.13246136522868"><ele>817.0</ele><time>2026-03-28T11:50:23Z</time></trkpt><trkpt lat="37.79844278252966" lon="15.132467884066696"><ele>817.0</ele><time>2026-03-28T11:50:24Z</time></trkpt><trkpt lat="37.798561090128196" lon="15.132451382034425"><ele>817.0</ele><time>2026-03-28T11:50:25Z</time></trkpt><trkpt lat="37.79869167013692" lon="15.132426746967717"><ele>817.0</ele><time>2026-03-28T11:50:26Z</time></trkpt><trkpt lat="37.79883848106435" lon="15.132417579118437"><ele>817.0</ele><time>2026-03-28T11:50:27Z</time></trkpt><trkpt lat="37.79899057662558" lon="15.132405945074455"><ele>817.0</ele><time>2026-03-28T11:50:28Z</time></trkpt><trkpt lat="37.799138467077725" lon="15.132388287656815"><ele>815.5</ele><time>2026-03-28T11:50:29Z</time></trkpt><trkpt lat="37.79928413037009" lon="15.132394346298502"><ele>814.0</ele><time>2026-03-28T11:50:30Z</time></trkpt><trkpt lat="37.79942874747898" lon="15.132385216011262"><ele>812.5</ele><time>2026-03-28T11:50:31Z</time></trkpt><trkpt lat="37.79956801399321" lon="15.132372532502481"><ele>811.0</ele><time>2026-03-28T11:50:32Z</time></trkpt><trkpt lat="37.79969863873579" lon="15.13240491296567"><ele>808.5</ele><time>2026-03-28T11:50:33Z</time></trkpt><trkpt lat="37.79982573687896" lon="15.132459530208752"><ele>806.0</ele><time>2026-03-28T11:50:34Z</time></trkpt><trkpt lat="37.799951264950856" lon="15.13252950312784"><ele>803.5</ele><time>2026-03-28T11:50:35Z</time></trkpt><trkpt lat="37.800070300031706" lon="15.132595594662652"><ele>801.0</ele><time>2026-03-28T11:50:36Z</time></trkpt><trkpt lat="37.80018436561417" lon="15.132657038019145"><ele>800.5</ele><time>2026-03-28T11:50:37Z</time></trkpt><trkpt lat="37.80030327960593" lon="15.132720595774071"><ele>800.0</ele><time>2026-03-28T11:50:38Z</time></trkpt><trkpt lat="37.800420390123364" lon="15.1327861738315"><ele>799.5</ele><time>2026-03-28T11:50:39Z</time></trkpt><trkpt lat="37.80053717067702" lon="15.13283778752549"><ele>799.0</ele><time>2026-03-28T11:50:40Z</time></trkpt><trkpt lat="37.80065295239693" lon="15.132860847730425"><ele>799.0</ele><time>2026-03-28T11:50:41Z</time></trkpt><trkpt lat="37.80076385303329" lon="15.13284758736238"><ele>799.0</ele><time>2026-03-28T11:50:42Z</time></trkpt><trkpt lat="37.80086684644549" lon="15.13279790355089"><ele>799.0</ele><time>2026-03-28T11:50:43Z</time></trkpt><trkpt lat="37.80096093130975" lon="15.132718897761498"><ele>799.0</ele><time>2026-03-28T11:50:44Z</time></trkpt><trkpt lat="37.80106918457523" lon="15.132625521665647"><ele>799.3333333333333</ele><time>2026-03-28T11:50:45Z</time></trkpt><trkpt lat="37.80119329720235" lon="15.132529156779214"><ele>799.6666666666667</ele><time>2026-03-28T11:50:46Z</time></trkpt><trkpt lat="37.80132865261707" lon="15.132426314013957"><ele>800.0</ele><time>2026-03-28T11:50:47Z</time></trkpt><trkpt lat="37.80147131849945" lon="15.132315418797292"><ele>800.0</ele><time>2026-03-28T11:50:48Z</time></trkpt><trkpt lat="37.80161967113509" lon="15.132196804869132"><ele>800.0</ele><time>2026-03-28T11:50:49Z</time></trkpt><trkpt lat="37.80176760639186" lon="15.13207877625267"><ele>800.0</ele><time>2026-03-28T11:50:50Z</time></trkpt><trkpt lat="37.80190732282329" lon="15.131965778106167"><ele>795.5</ele><time>2026-03-28T11:50:51Z</time></trkpt><trkpt lat="37.802037148056094" lon="15.131862327890204"><ele>791.0</ele><time>2026-03-28T11:50:52Z</time></trkpt><trkpt lat="37.80215531460837" lon="15.131769920208832"><ele>786.5</ele><time>2026-03-28T11:50:53Z</time></trkpt><trkpt lat="37.802257484798304" lon="15.131688961257284"><ele>782.0</ele><time>2026-03-28T11:50:54Z</time></trkpt><trkpt lat="37.802353207458694" lon="15.131613979182543"><ele>782.5</ele><time>2026-03-28T11:50:55Z</time></trkpt><trkpt lat="37.80244570309323" lon="15.13155345908173"><ele>783.0</ele><time>2026-03-28T11:50:56Z</time></trkpt><trkpt lat="37.80254914024491" lon="15.131516722106074"><ele>783.5</ele><time>2026-03-28T11:50:57Z</time></trkpt><trkpt lat="37.80266721360865" lon="15.131513747649768"><ele>784.0</ele><time>2026-03-28T11:50:58Z</time></trkpt><trkpt lat="37.802795594373464" lon="15.131529798801445"><ele>784.0</ele><time>2026-03-28T11:50:59Z</time></trkpt><trkpt lat="37.8029343782882" lon="15.131553230283059"><ele>784.0</ele><time>2026-03-28T11:51:00Z</time></trkpt><trkpt lat="37.803076368186886" lon="15.131574160093017"><ele>784.0</ele><time>2026-03-28T11:51:01Z</time></trkpt><trkpt lat="37.80321421245104" lon="15.131593833925578"><ele>784.0</ele><time>2026-03-28T11:51:02Z</time></trkpt><trkpt lat="37.80334612012775" lon="15.131623322407075"><ele>782.0</ele><time>2026-03-28T11:51:03Z</time></trkpt><trkpt lat="37.80347465735061" lon="15.131682264866525"><ele>780.0</ele><time>2026-03-28T11:51:04Z</time></trkpt><trkpt lat="37.80359717741093" lon="15.131779121682335"><ele>778.0</ele><time>2026-03-28T11:51:05Z</time></trkpt><trkpt lat="37.80371328195697" lon="15.131887746594337"><ele>776.0</ele><time>2026-03-28T11:51:06Z</time></trkpt><trkpt lat="37.80381830385518" lon="15.131991504235875"><ele>773.75</ele><time>2026-03-28T11:51:07Z</time></trkpt><trkpt lat="37.80392521157107" lon="15.132095547942845"><ele>771.5</ele><time>2026-03-28T11:51:08Z</time></trkpt><trkpt lat="37.804028437076326" lon="15.13219108601195"><ele>769.25</ele><time>2026-03-28T11:51:09Z</time></trkpt><trkpt lat="37.80413616547567" lon="15.13226703476803"><ele>767.0</ele><time>2026-03-28T11:51:10Z</time></trkpt><trkpt lat="37.80425439786699" lon="15.132318791148546"><ele>764.8</ele><time>2026-03-28T11:51:11Z</time></trkpt><trkpt lat="37.80437025583073" lon="15.13234812317906"><ele>762.6</ele><time>2026-03-28T11:51:12Z</time></trkpt><trkpt lat="37.80448089847368" lon="15.132355175576611"><ele>760.4</ele><time>2026-03-28T11:51:13Z</time></trkpt><trkpt lat="37.804583532092934" lon="15.132326163013932"><ele>758.1999999999999</ele><time>2026-03-28T11:51:14Z</time></trkpt><trkpt lat="37.80468163588785" lon="15.132268463393693"><ele>756.0</ele><time>2026-03-28T11:51:15Z</time></trkpt><trkpt lat="37.80478198299142" lon="15.132190005935325"><ele>756.0</ele><time>2026-03-28T11:51:16Z</time></trkpt><trkpt lat="37.804882162792396" lon="15.132082342348534"><ele>756.0</ele><time>2026-03-28T11:51:17Z</time></trkpt><trkpt lat="37.80498180950468" lon="15.13196491225978"><ele>756.0</ele><time>2026-03-28T11:51:18Z</time></trkpt><trkpt lat="37.80508797242804" lon="15.13188011817798"><ele>756.0</ele><time>2026-03-28T11:51:19Z</time></trkpt><trkpt lat="37.805161290132304" lon="15.131766318020675"><ele>755.5999999999999</ele><time>2026-03-28T11:51:20Z</time></trkpt><trkpt lat="37.8052337005354" lon="15.131662137533334"><ele>755.2</ele><time>2026-03-28T11:51:21Z</time></trkpt><trkpt lat="37.80526614394502" lon="15.131526455078632"><ele>754.8</ele><time>2026-03-28T11:51:22Z</time></trkpt><trkpt lat="37.80528325535987" lon="15.131388507936368"><ele>754.4000000000001</ele><time>2026-03-28T11:51:23Z</time></trkpt><trkpt lat="37.8052841204909" lon="15.13124804051625"><ele>754.0</ele><time>2026-03-28T11:51:24Z</time></trkpt><trkpt lat="37.805292422278136" lon="15.13113154459332"><ele>754.0</ele><time>2026-03-28T11:51:25Z</time></trkpt><trkpt lat="37.80531342122341" lon="15.131026284412965"><ele>754.0</ele><time>2026-03-28T11:51:26Z</time></trkpt><trkpt lat="37.8053604640711" lon="15.130947884110046"><ele>754.0</ele><time>2026-03-28T11:51:27Z</time></trkpt><trkpt lat="37.8054181778225" lon="15.130879606584546"><ele>754.0</ele><time>2026-03-28T11:51:28Z</time></trkpt><trkpt lat="37.805494115996076" lon="15.130824831605354"><ele>754.0</ele><time>2026-03-28T11:51:29Z</time></trkpt><trkpt lat="37.805587356862006" lon="15.130773084857339"><ele>754.0</ele><time>2026-03-28T11:51:30Z</time></trkpt><trkpt lat="37.80570625344397" lon="15.130771812530995"><ele>754.0</ele><time>2026-03-28T11:51:31Z</time></trkpt><trkpt lat="37.805836483921965" lon="15.1307765047242"><ele>754.0</ele><time>2026-03-28T11:51:32Z</time></trkpt><trkpt lat="37.805975677096434" lon="15.130768746289606"><ele>754.0</ele><time>2026-03-28T11:51:33Z</time></trkpt><trkpt lat="37.8061255626203" lon="15.130782787058482"><ele>754.0</ele><time>2026-03-28T11:51:34Z</time></trkpt><trkpt lat="37.80628305611083" lon="15.130759097553709"><ele>753.75</ele><time>2026-03-28T11:51:35Z</time></trkpt><trkpt lat="37.80643877390992" lon="15.13075220896027"><ele>753.5</ele><time>2026-03-28T11:51:36Z</time></trkpt><trkpt lat="37.80658271071776" lon="15.13073814731859"><ele>753.25</ele><time>2026-03-28T11:51:37Z</time></trkpt><trkpt lat="37.80672297096548" lon="15.130718437079851"><ele>753.0</ele><time>2026-03-28T11:51:38Z</time></trkpt><trkpt lat="37.80685989284732" lon="15.130697834553912"><ele>753.0</ele><time>2026-03-28T11:51:39Z</time></trkpt><trkpt lat="37.807003669623114" lon="15.130675821951597"><ele>753.0</ele><time>2026-03-28T11:51:40Z</time></trkpt><trkpt lat="37.80715585693942" lon="15.13067398908035"><ele>753.0</ele><time>2026-03-28T11:51:41Z</time></trkpt><trkpt lat="37.80730902647664" lon="15.130654420906955"><ele>753.0</ele><time>2026-03-28T11:51:42Z</time></trkpt><trkpt lat="37.80746487121939" lon="15.130634531779199"><ele>753.0</ele><time>2026-03-28T11:51:43Z</time></trkpt><trkpt lat="37.807621140665624" lon="15.130599781982815"><ele>753.0</ele><time>2026-03-28T11:51:44Z</time></trkpt><trkpt lat="37.807781639691164" lon="15.13058033828324"><ele>752.3333333333334</ele><time>2026-03-28T11:51:45Z</time></trkpt><trkpt lat="37.807946106018406" lon="15.130559227634812"><ele>751.6666666666667</ele><time>2026-03-28T11:51:46Z</time></trkpt><trkpt lat="37.8081082665726" lon="15.130539805847624"><ele>751.0</ele><time>2026-03-28T11:51:47Z</time></trkpt><trkpt lat="37.808263796562855" lon="15.130520680390896"><ele>751.0</ele><time>2026-03-28T11:51:48Z</time></trkpt><trkpt lat="37.8084104062882" lon="15.130501217009751"><ele>751.0</ele><time>2026-03-28T11:51:49Z</time></trkpt><trkpt lat="37.808559349102794" lon="15.13048400650216"><ele>751.0</ele><time>2026-03-28T11:51:50Z</time></trkpt><trkpt lat="37.808712724341596" lon="15.130463464901375"><ele>747.6666666666667</ele><time>2026-03-28T11:51:51Z</time></trkpt><trkpt lat="37.80887233782824" lon="15.130454465898186"><ele>744.3333333333334</ele><time>2026-03-28T11:51:52Z</time></trkpt><trkpt lat="37.80902993969195" lon="15.130389772944898"><ele>741.0</ele><time>2026-03-28T11:51:53Z</time></trkpt><trkpt lat="37.809196034910244" lon="15.130337139583185"><ele>738.3333333333334</ele><time>2026-03-28T11:51:54Z</time></trkpt><trkpt lat="37.80936748705878" lon="15.130278119652695"><ele>735.6666666666667</ele><time>2026-03-28T11:51:55Z</time></trkpt><trkpt lat="37.809545643996735" lon="15.13021396158893"><ele>733.0</ele><time>2026-03-28T11:51:56Z</time></trkpt><trkpt lat="37.809725478773615" lon="15.13014936588281"><ele>733.0</ele><time>2026-03-28T11:51:57Z</time></trkpt><trkpt lat="37.809905015066334" lon="15.130078786868147"><ele>733.0</ele><time>2026-03-28T11:51:58Z</time></trkpt><trkpt lat="37.81007638667467" lon="15.130011482907456"><ele>733.0</ele><time>2026-03-28T11:51:59Z</time></trkpt><trkpt lat="37.81024552499456" lon="15.129947197096348"><ele>735.3333333333334</ele><time>2026-03-28T11:52:00Z</time></trkpt><trkpt lat="37.810410787210856" lon="15.129886348872757"><ele>737.6666666666666</ele><time>2026-03-28T11:52:01Z</time></trkpt><trkpt lat="37.810567835507996" lon="15.129829024718722"><ele>740.0</ele><time>2026-03-28T11:52:02Z</time></trkpt><trkpt lat="37.810715248427776" lon="15.129775777137235"><ele>740.0</ele><time>2026-03-28T11:52:03Z</time></trkpt><trkpt lat="37.81085183551381" lon="15.129726249293643"><ele>740.0</ele><time>2026-03-28T11:52:04Z</time></trkpt><trkpt lat="37.81098209275413" lon="15.129675537673261"><ele>740.0</ele><time>2026-03-28T11:52:05Z</time></trkpt><trkpt lat="37.81110597633147" lon="15.129618850431024"><ele>740.0</ele><time>2026-03-28T11:52:06Z</time></trkpt><trkpt lat="37.81122423140737" lon="15.129554264829135"><ele>736.5</ele><time>2026-03-28T11:52:07Z</time></trkpt><trkpt lat="37.81133659143563" lon="15.129483618551365"><ele>733.0</ele><time>2026-03-28T11:52:08Z</time></trkpt><trkpt lat="37.81145314069362" lon="15.129430570003223"><ele>729.5</ele><time>2026-03-28T11:52:09Z</time></trkpt><trkpt lat="37.81156279073831" lon="15.129361959242878"><ele>726.0</ele><time>2026-03-28T11:52:10Z</time></trkpt><trkpt lat="37.811674968099" lon="15.129291767102226"><ele>726.0</ele><time>2026-03-28T11:52:11Z</time></trkpt><trkpt lat="37.81179279228703" lon="15.12921822812456"><ele>726.0</ele><time>2026-03-28T11:52:12Z</time></trkpt><trkpt lat="37.811915353105306" lon="15.129141734526195"><ele>726.0</ele><time>2026-03-28T11:52:13Z</time></trkpt><trkpt lat="37.81203916693648" lon="15.12906795681404"><ele>726.0</ele><time>2026-03-28T11:52:14Z</time></trkpt><trkpt lat="37.81216503805497" lon="15.128996434549844"><ele>725.0</ele><time>2026-03-28T11:52:15Z</time></trkpt><trkpt lat="37.8122948183632" lon="15.128922678157524"><ele>724.0</ele><time>2026-03-28T11:52:16Z</time></trkpt><trkpt lat="37.81241966952262" lon="15.128851505184523"><ele>723.0</ele><time>2026-03-28T11:52:17Z</time></trkpt><trkpt lat="37.81253734119111" lon="15.128784424894848"><ele>722.0</ele><time>2026-03-28T11:52:18Z</time></trkpt><trkpt lat="37.81265060510754" lon="15.128719857296135"><ele>720.0</ele><time>2026-03-28T11:52:19Z</time></trkpt><trkpt lat="37.81275957993992" lon="15.128657734769812"><ele>718.0</ele><time>2026-03-28T11:52:20Z</time></trkpt><trkpt lat="37.812865147457664" lon="15.128593721476992"><ele>716.0</ele><time>2026-03-28T11:52:21Z</time></trkpt><trkpt lat="37.812961855248055" lon="15.128533309787905"><ele>714.0</ele><time>2026-03-28T11:52:22Z</time></trkpt><trkpt lat="37.81304919800168" lon="15.128456786142495"><ele>714.0</ele><time>2026-03-28T11:52:23Z</time></trkpt><trkpt lat="37.81314964107734" lon="15.128422120045563"><ele>714.0</ele><time>2026-03-28T11:52:24Z</time></trkpt><trkpt lat="37.81324856133191" lon="15.128418331807021"><ele>714.0</ele><time>2026-03-28T11:52:25Z</time></trkpt><trkpt lat="37.813342871609315" lon="15.128449180754128"><ele>714.0</ele><time>2026-03-28T11:52:26Z</time></trkpt><trkpt lat="37.813435265824616" lon="15.128496493967203"><ele>714.0</ele><time>2026-03-28T11:52:27Z</time></trkpt><trkpt lat="37.81352040600264" lon="15.12854688082993"><ele>711.3333333333334</ele><time>2026-03-28T11:52:28Z</time></trkpt><trkpt lat="37.813594881248896" lon="15.128592085592224"><ele>708.6666666666666</ele><time>2026-03-28T11:52:29Z</time></trkpt><trkpt lat="37.81365995777904" lon="15.128620265093739"><ele>706.0</ele><time>2026-03-28T11:52:30Z</time></trkpt><trkpt lat="37.813769235419336" lon="15.12862900259357"><ele>703.3333333333333</ele><time>2026-03-28T11:52:32Z</time></trkpt><trkpt lat="37.81382219685625" lon="15.128537669727654"><ele>700.6666666666666</ele><time>2026-03-28T11:52:33Z</time></trkpt><trkpt lat="37.81386879863395" lon="15.128467489270157"><ele>698.0</ele><time>2026-03-28T11:52:34Z</time></trkpt><trkpt lat="37.81390121137123" lon="15.12837457371152"><ele>698.0</ele><time>2026-03-28T11:52:35Z</time></trkpt><trkpt lat="37.81393401628977" lon="15.128261818486294"><ele>698.0</ele><time>2026-03-28T11:52:36Z</time></trkpt><trkpt lat="37.81396985808739" lon="15.128135524499111"><ele>698.0</ele><time>2026-03-28T11:52:37Z</time></trkpt><trkpt lat="37.81400571986219" lon="15.12800812502149"><ele>698.0</ele><time>2026-03-28T11:52:38Z</time></trkpt><trkpt lat="37.81404169605147" lon="15.127884108559757"><ele>698.0</ele><time>2026-03-28T11:52:39Z</time></trkpt><trkpt lat="37.81408886577968" lon="15.127764249423471"><ele>698.4</ele><time>2026-03-28T11:52:40Z</time></trkpt><trkpt lat="37.81415736110959" lon="15.127651572950226"><ele>698.8</ele><time>2026-03-28T11:52:41Z</time></trkpt><trkpt lat="37.81423305483341" lon="15.127551777074316"><ele>699.2</ele><time>2026-03-28T11:52:42Z</time></trkpt><trkpt lat="37.814310885795145" lon="15.12745696607254"><ele>699.6</ele><time>2026-03-28T11:52:43Z</time></trkpt><trkpt lat="37.81438406075891" lon="15.127367826840908"><ele>700.0</ele><time>2026-03-28T11:52:44Z</time></trkpt><trkpt lat="37.81445287635304" lon="15.127283998456798"><ele>701.6</ele><time>2026-03-28T11:52:45Z</time></trkpt><trkpt lat="37.81452702884675" lon="15.127190935373582"><ele>703.2</ele><time>2026-03-28T11:52:46Z</time></trkpt><trkpt lat="37.81460014123849" lon="15.12710565346225"><ele>704.8</ele><time>2026-03-28T11:52:47Z</time></trkpt><trkpt lat="37.81470023181154" lon="15.127065477794591"><ele>706.4</ele><time>2026-03-28T11:52:48Z</time></trkpt><trkpt lat="37.81480402409774" lon="15.127035347979762"><ele>708.0</ele><time>2026-03-28T11:52:49Z</time></trkpt><trkpt lat="37.81491420337192" lon="15.127022983939183"><ele>708.0</ele><time>2026-03-28T11:52:50Z</time></trkpt><trkpt lat="37.81501510816157" lon="15.127034966351372"><ele>708.0</ele><time>2026-03-28T11:52:51Z</time></trkpt><trkpt lat="37.815109724537606" lon="15.127060817062219"><ele>708.0</ele><time>2026-03-28T11:52:52Z</time></trkpt><trkpt lat="37.81522098881974" lon="15.127098380521065"><ele>708.0</ele><time>2026-03-28T11:52:53Z</time></trkpt><trkpt lat="37.81530381653646" lon="15.127169142548496"><ele>708.0</ele><time>2026-03-28T11:52:54Z</time></trkpt><trkpt lat="37.8153755278002" lon="15.127258988081726"><ele>707.0</ele><time>2026-03-28T11:52:55Z</time></trkpt><trkpt lat="37.815433817069746" lon="15.12736941055006"><ele>706.0</ele><time>2026-03-28T11:52:56Z</time></trkpt><trkpt lat="37.81549279750513" lon="15.12748392969971"><ele>705.0</ele><time>2026-03-28T11:52:57Z</time></trkpt><trkpt lat="37.81553521219666" lon="15.127613856619103"><ele>704.0</ele><time>2026-03-28T11:52:58Z</time></trkpt><trkpt lat="37.815588809422756" lon="15.127744652815736"><ele>703.0</ele><time>2026-03-28T11:52:59Z</time></trkpt><trkpt lat="37.81566421299281" lon="15.127853486990974"><ele>701.0</ele><time>2026-03-28T11:53:00Z</time></trkpt><trkpt lat="37.81575316175526" lon="15.127924813339224"><ele>699.0</ele><time>2026-03-28T11:53:01Z</time></trkpt><trkpt lat="37.81585218573827" lon="15.12795256938446"><ele>697.0</ele><time>2026-03-28T11:53:02Z</time></trkpt><trkpt lat="37.81595930774545" lon="15.12796790421327"><ele>695.0</ele><time>2026-03-28T11:53:03Z</time></trkpt><trkpt lat="37.816064160262044" lon="15.12796551569688"><ele>693.0</ele><time>2026-03-28T11:53:04Z</time></trkpt><trkpt lat="37.816168981746614" lon="15.127951574883268"><ele>691.75</ele><time>2026-03-28T11:53:05Z</time></trkpt><trkpt lat="37.81627678068221" lon="15.127917069352888"><ele>690.5</ele><time>2026-03-28T11:53:06Z</time></trkpt><trkpt lat="37.816389669172125" lon="15.12785731452801"><ele>689.25</ele><time>2026-03-28T11:53:07Z</time></trkpt><trkpt lat="37.816508580192114" lon="15.127806680471926"><ele>688.0</ele><time>2026-03-28T11:53:08Z</time></trkpt><trkpt lat="37.816629143784816" lon="15.127767091146834"><ele>688.0</ele><time>2026-03-28T11:53:09Z</time></trkpt><trkpt lat="37.81674072596785" lon="15.127727844626389"><ele>688.0</ele><time>2026-03-28T11:53:10Z</time></trkpt><trkpt lat="37.81684655869448" lon="15.127692340432803"><ele>688.0</ele><time>2026-03-28T11:53:11Z</time></trkpt><trkpt lat="37.81694777972722" lon="15.127658269588721"><ele>688.0</ele><time>2026-03-28T11:53:12Z</time></trkpt><trkpt lat="37.8170379252243" lon="15.127622861519292"><ele>688.0</ele><time>2026-03-28T11:53:13Z</time></trkpt><trkpt lat="37.81713122179946" lon="15.127589581563818"><ele>686.2</ele><time>2026-03-28T11:53:14Z</time></trkpt><trkpt lat="37.81722366539319" lon="15.127559374575139"><ele>684.4</ele><time>2026-03-28T11:53:15Z</time></trkpt><trkpt lat="37.817321811498594" lon="15.127523310117505"><ele>682.6</ele><time>2026-03-28T11:53:16Z</time></trkpt><trkpt lat="37.81742951755491" lon="15.127480964067342"><ele>680.8000000000001</ele><time>2026-03-28T11:53:17Z</time></trkpt><trkpt lat="37.81753561724406" lon="15.127437746172866"><ele>679.0</ele><time>2026-03-28T11:53:18Z</time></trkpt><trkpt lat="37.817637243294115" lon="15.12742279873076"><ele>677.3333333333334</ele><time>2026-03-28T11:53:19Z</time></trkpt><trkpt lat="37.81771728964326" lon="15.127382581984232"><ele>675.6666666666667</ele><time>2026-03-28T11:53:20Z</time></trkpt><trkpt lat="37.817791767037" lon="15.127378828242772"><ele>674.0</ele><time>2026-03-28T11:53:21Z</time></trkpt><trkpt lat="37.81786575228519" lon="15.127411495234076"><ele>672.3333333333334</ele><time>2026-03-28T11:53:22Z</time></trkpt><trkpt lat="37.81793376432948" lon="15.127476910718364"><ele>670.6666666666666</ele><time>2026-03-28T11:53:23Z</time></trkpt><trkpt lat="37.817996943402534" lon="15.127566713808017"><ele>669.0</ele><time>2026-03-28T11:53:24Z</time></trkpt><trkpt lat="37.81804598122578" lon="15.127663208791057"><ele>669.0</ele><time>2026-03-28T11:53:25Z</time></trkpt><trkpt lat="37.818092485976344" lon="15.127741621443194"><ele>669.0</ele><time>2026-03-28T11:53:26Z</time></trkpt><trkpt lat="37.818160862130426" lon="15.127794513265451"><ele>669.0</ele><time>2026-03-28T11:53:27Z</time></trkpt><trkpt lat="37.818241148685395" lon="15.127808924689717"><ele>669.0</ele><time>2026-03-28T11:53:28Z</time></trkpt><trkpt lat="37.81832419889346" lon="15.127784969138139"><ele>669.0</ele><time>2026-03-28T11:53:29Z</time></trkpt><trkpt lat="37.8184110579443" lon="15.127733528154236"><ele>669.0</ele><time>2026-03-28T11:53:30Z</time></trkpt><trkpt lat="37.81851478519065" lon="15.127687880427011"><ele>668.4000000000001</ele><time>2026-03-28T11:53:31Z</time></trkpt><trkpt lat="37.818624541277" lon="15.127628095459809"><ele>667.8</ele><time>2026-03-28T11:53:32Z</time></trkpt><trkpt lat="37.81872277654361" lon="15.127574586009263"><ele>667.2</ele><time>2026-03-28T11:53:33Z</time></trkpt><trkpt lat="37.818813744653504" lon="15.127525035018468"><ele>666.5999999999999</ele><time>2026-03-28T11:53:34Z</time></trkpt><trkpt lat="37.81890539540176" lon="15.127475112220926"><ele>666.0</ele><time>2026-03-28T11:53:35Z</time></trkpt><trkpt lat="37.81899839918599" lon="15.127434778196116"><ele>666.0</ele><time>2026-03-28T11:53:36Z</time></trkpt><trkpt lat="37.81908645134084" lon="15.127392143653884"><ele>666.0</ele><time>2026-03-28T11:53:37Z</time></trkpt><trkpt lat="37.81918139016528" lon="15.127404069581138"><ele>666.0</ele><time>2026-03-28T11:53:38Z</time></trkpt><trkpt lat="37.81927232281006" lon="15.1274542956854"><ele>666.0</ele><time>2026-03-28T11:53:39Z</time></trkpt><trkpt lat="37.819349688169204" lon="15.127531490634476"><ele>666.0</ele><time>2026-03-28T11:53:40Z</time></trkpt><trkpt lat="37.81942115375959" lon="15.127632247115617"><ele>666.0</ele><time>2026-03-28T11:53:41Z</time></trkpt><trkpt lat="37.81949644088677" lon="15.127743236263889"><ele>666.0</ele><time>2026-03-28T11:53:42Z</time></trkpt><trkpt lat="37.81958582005532" lon="15.127860052464568"><ele>666.0</ele><time>2026-03-28T11:53:43Z</time></trkpt><trkpt lat="37.819678574766264" lon="15.127975718766214"><ele>666.0</ele><time>2026-03-28T11:53:44Z</time></trkpt><trkpt lat="37.81976383891366" lon="15.128075618763326"><ele>666.0</ele><time>2026-03-28T11:53:45Z</time></trkpt><trkpt lat="37.81983470402806" lon="15.128152234491088"><ele>666.0</ele><time>2026-03-28T11:53:46Z</time></trkpt><trkpt lat="37.8199007603984" lon="15.128200979290115"><ele>666.0</ele><time>2026-03-28T11:53:47Z</time></trkpt><trkpt lat="37.82002367014081" lon="15.128214648380014"><ele>666.0</ele><time>2026-03-28T11:53:49Z</time></trkpt><trkpt lat="37.8200961754021" lon="15.128174784859633"><ele>666.0</ele><time>2026-03-28T11:53:50Z</time></trkpt><trkpt lat="37.82017172321528" lon="15.12810914376801"><ele>666.5999999999999</ele><time>2026-03-28T11:53:51Z</time></trkpt><trkpt lat="37.820266136486666" lon="15.128061686493044"><ele>667.2</ele><time>2026-03-28T11:53:52Z</time></trkpt><trkpt lat="37.82034625454842" lon="15.128000632703538"><ele>667.8</ele><time>2026-03-28T11:53:53Z</time></trkpt><trkpt lat="37.820429830565125" lon="15.127955917714054"><ele>668.4000000000001</ele><time>2026-03-28T11:53:54Z</time></trkpt><trkpt lat="37.82052492886225" lon="15.127970238084865"><ele>669.0</ele><time>2026-03-28T11:53:55Z</time></trkpt><trkpt lat="37.82060362155145" lon="15.12802614427605"><ele>669.0</ele><time>2026-03-28T11:53:56Z</time></trkpt><trkpt lat="37.820673131004234" lon="15.128112315517205"><ele>669.0</ele><time>2026-03-28T11:53:57Z</time></trkpt><trkpt lat="37.8207475065468" lon="15.128216682538524"><ele>669.0</ele><time>2026-03-28T11:53:58Z</time></trkpt><trkpt lat="37.820823577723644" lon="15.128321002372225"><ele>669.0</ele><time>2026-03-28T11:53:59Z</time></trkpt><trkpt lat="37.820900615508315" lon="15.128423196950488"><ele>669.0</ele><time>2026-03-28T11:54:00Z</time></trkpt><trkpt lat="37.82097584549889" lon="15.12851614386091"><ele>665.8333333333334</ele><time>2026-03-28T11:54:01Z</time></trkpt><trkpt lat="37.82103984175439" lon="15.12860070429116"><ele>662.6666666666666</ele><time>2026-03-28T11:54:02Z</time></trkpt><trkpt lat="37.82110509486553" lon="15.12867162737802"><ele>659.5</ele><time>2026-03-28T11:54:03Z</time></trkpt><trkpt lat="37.821178267931515" lon="15.128716442389221"><ele>656.3333333333333</ele><time>2026-03-28T11:54:04Z</time></trkpt><trkpt lat="37.82125835440674" lon="15.128717111681896"><ele>653.1666666666666</ele><time>2026-03-28T11:54:05Z</time></trkpt><trkpt lat="37.82132951827278" lon="15.128673904445586"><ele>650.0</ele><time>2026-03-28T11:54:06Z</time></trkpt><trkpt lat="37.8213791521206" lon="15.128601019921767"><ele>650.0</ele><time>2026-03-28T11:54:07Z</time></trkpt><trkpt lat="37.821434059470356" lon="15.128528975006063"><ele>650.0</ele><time>2026-03-28T11:54:08Z</time></trkpt><trkpt lat="37.82148242343117" lon="15.128458636320625"><ele>650.0</ele><time>2026-03-28T11:54:09Z</time></trkpt><trkpt lat="37.82154128979343" lon="15.12841152402059"><ele>650.0</ele><time>2026-03-28T11:54:10Z</time></trkpt><trkpt lat="37.82165920433794" lon="15.12841006773588"><ele>650.0</ele><time>2026-03-28T11:54:12Z</time></trkpt><trkpt lat="37.821723180750666" lon="15.128455269443648"><ele>650.0</ele><time>2026-03-28T11:54:13Z</time></trkpt><trkpt lat="37.8217823210149" lon="15.128504498899327"><ele>648.0</ele><time>2026-03-28T11:54:14Z</time></trkpt><trkpt lat="37.82184463319634" lon="15.128538663116917"><ele>646.0</ele><time>2026-03-28T11:54:15Z</time></trkpt><trkpt lat="37.82196598889769" lon="15.128491031625918"><ele>644.0</ele><time>2026-03-28T11:54:17Z</time></trkpt><trkpt lat="37.82202333391786" lon="15.128418433430754"><ele>642.0</ele><time>2026-03-28T11:54:18Z</time></trkpt><trkpt lat="37.82210116817415" lon="15.128355665414636"><ele>640.0</ele><time>2026-03-28T11:54:19Z</time></trkpt><trkpt lat="37.822174595810935" lon="15.12828210331964"><ele>640.0</ele><time>2026-03-28T11:54:20Z</time></trkpt><trkpt lat="37.822255911044984" lon="15.128239516910034"><ele>640.0</ele><time>2026-03-28T11:54:21Z</time></trkpt><trkpt lat="37.82234558552929" lon="15.128202364524132"><ele>640.0</ele><time>2026-03-28T11:54:22Z</time></trkpt><trkpt lat="37.82245144465579" lon="15.128161587274125"><ele>640.0</ele><time>2026-03-28T11:54:23Z</time></trkpt><trkpt lat="37.82255872856203" lon="15.12811881661004"><ele>640.0</ele><time>2026-03-28T11:54:24Z</time></trkpt><trkpt lat="37.82264631833374" lon="15.128079777491061"><ele>637.4</ele><time>2026-03-28T11:54:25Z</time></trkpt><trkpt lat="37.82272180139536" lon="15.128046134258621"><ele>634.8</ele><time>2026-03-28T11:54:26Z</time></trkpt><trkpt lat="37.82282908344419" lon="15.12799979416327"><ele>632.2</ele><time>2026-03-28T11:54:28Z</time></trkpt><trkpt lat="37.8229054388885" lon="15.12807077005971"><ele>629.6</ele><time>2026-03-28T11:54:30Z</time></trkpt><trkpt lat="37.82292688928452" lon="15.128239680109901"><ele>627.0</ele><time>2026-03-28T11:54:32Z</time></trkpt><trkpt lat="37.822902508101" lon="15.128349647133557"><ele>626.0</ele><time>2026-03-28T11:54:33Z</time></trkpt><trkpt lat="37.82286503658679" lon="15.12845541502867"><ele>625.0</ele><time>2026-03-28T11:54:34Z</time></trkpt><trkpt lat="37.82280325106597" lon="15.12855110382908"><ele>624.0</ele><time>2026-03-28T11:54:35Z</time></trkpt><trkpt lat="37.8227257873464" lon="15.128628303298603"><ele>623.0</ele><time>2026-03-28T11:54:36Z</time></trkpt><trkpt lat="37.8226380138803" lon="15.128682818554454"><ele>622.0</ele><time>2026-03-28T11:54:37Z</time></trkpt><trkpt lat="37.82255910688645" lon="15.128733314296406"><ele>623.1428571428571</ele><time>2026-03-28T11:54:38Z</time></trkpt><trkpt lat="37.822497086841324" lon="15.128792005370396"><ele>624.2857142857143</ele><time>2026-03-28T11:54:39Z</time></trkpt><trkpt lat="37.82245748856923" lon="15.128863384181884"><ele>625.4285714285714</ele><time>2026-03-28T11:54:40Z</time></trkpt><trkpt lat="37.82244435693535" lon="15.128950190120575"><ele>626.5714285714286</ele><time>2026-03-28T11:54:41Z</time></trkpt><trkpt lat="37.82246685194567" lon="15.129039986190254"><ele>627.7142857142858</ele><time>2026-03-28T11:54:42Z</time></trkpt><trkpt lat="37.82251318699642" lon="15.129115025066966"><ele>628.8571428571429</ele><time>2026-03-28T11:54:43Z</time></trkpt><trkpt lat="37.82256738730313" lon="15.12918355324564"><ele>630.0</ele><time>2026-03-28T11:54:44Z</time></trkpt><trkpt lat="37.822620088159624" lon="15.12926489777837"><ele>627.6666666666666</ele><time>2026-03-28T11:54:45Z</time></trkpt><trkpt lat="37.82267391874063" lon="15.129358528659958"><ele>625.3333333333334</ele><time>2026-03-28T11:54:46Z</time></trkpt><trkpt lat="37.822727677188865" lon="15.129457083218107"><ele>623.0</ele><time>2026-03-28T11:54:47Z</time></trkpt><trkpt lat="37.82276438883332" lon="15.129557168319373"><ele>620.6666666666667</ele><time>2026-03-28T11:54:48Z</time></trkpt><trkpt lat="37.822772299684736" lon="15.129663078170521"><ele>618.3333333333334</ele><time>2026-03-28T11:54:49Z</time></trkpt><trkpt lat="37.82276157572849" lon="15.129774763330671"><ele>616.0</ele><time>2026-03-28T11:54:50Z</time></trkpt><trkpt lat="37.8227510468095" lon="15.129886360220034"><ele>615.3333333333334</ele><time>2026-03-28T11:54:51Z</time></trkpt><trkpt lat="37.82274497093147" lon="15.129995981214222"><ele>614.6666666666667</ele><time>2026-03-28T11:54:52Z</time></trkpt><trkpt lat="37.822737781417146" lon="15.130101753677343"><ele>614.0</ele><time>2026-03-28T11:54:53Z</time></trkpt><trkpt lat="37.822732289579584" lon="15.130203726027318"><ele>613.3333333333334</ele><time>2026-03-28T11:54:54Z</time></trkpt><trkpt lat="37.82272818841156" lon="15.130306038230644"><ele>612.6666666666666</ele><time>2026-03-28T11:54:55Z</time></trkpt><trkpt lat="37.82272552958287" lon="15.130402041635785"><ele>612.0</ele><time>2026-03-28T11:54:56Z</time></trkpt><trkpt lat="37.82272287481359" lon="15.130492029097256"><ele>612.0</ele><time>2026-03-28T11:54:57Z</time></trkpt><trkpt lat="37.82268310740891" lon="15.130554887194702"><ele>612.0</ele><time>2026-03-28T11:54:58Z</time></trkpt><trkpt lat="37.822624555412254" lon="15.130635567007888"><ele>612.0</ele><time>2026-03-28T11:54:59Z</time></trkpt><trkpt lat="37.82255114060579" lon="15.13070451084672"><ele>612.0</ele><time>2026-03-28T11:55:00Z</time></trkpt><trkpt lat="37.82247705112427" lon="15.130754259138453"><ele>612.0</ele><time>2026-03-28T11:55:01Z</time></trkpt><trkpt lat="37.82240292304916" lon="15.130787138945227"><ele>612.0</ele><time>2026-03-28T11:55:02Z</time></trkpt><trkpt lat="37.822320066323954" lon="15.13075992282068"><ele>611.6666666666666</ele><time>2026-03-28T11:55:03Z</time></trkpt><trkpt lat="37.822228632422295" lon="15.13077198156432"><ele>611.3333333333334</ele><time>2026-03-28T11:55:04Z</time></trkpt><trkpt lat="37.82213903184031" lon="15.130761046575067"><ele>611.0</ele><time>2026-03-28T11:55:05Z</time></trkpt><trkpt lat="37.822062386657656" lon="15.130758018408766"><ele>610.6666666666667</ele><time>2026-03-28T11:55:06Z</time></trkpt><trkpt lat="37.82198731232243" lon="15.130765231702881"><ele>610.3333333333334</ele><time>2026-03-28T11:55:07Z</time></trkpt><trkpt lat="37.82192643297926" lon="15.13080166577018"><ele>610.0</ele><time>2026-03-28T11:55:08Z</time></trkpt><trkpt lat="37.82188447170233" lon="15.130869394023511"><ele>610.0</ele><time>2026-03-28T11:55:09Z</time></trkpt><trkpt lat="37.82186512317317" lon="15.13096757539552"><ele>610.0</ele><time>2026-03-28T11:55:10Z</time></trkpt><trkpt lat="37.821865074058294" lon="15.131078150247"><ele>610.0</ele><time>2026-03-28T11:55:11Z</time></trkpt><trkpt lat="37.82187139404227" lon="15.131190191418801"><ele>610.0</ele><time>2026-03-28T11:55:12Z</time></trkpt><trkpt lat="37.821854868407755" lon="15.13129886798904"><ele>610.0</ele><time>2026-03-28T11:55:13Z</time></trkpt><trkpt lat="37.82180826469463" lon="15.131380265067515"><ele>610.0</ele><time>2026-03-28T11:55:14Z</time></trkpt><trkpt lat="37.82174054194662" lon="15.131438613132167"><ele>609.3333333333334</ele><time>2026-03-28T11:55:15Z</time></trkpt><trkpt lat="37.821665671310896" lon="15.131492444760251"><ele>608.6666666666667</ele><time>2026-03-28T11:55:16Z</time></trkpt><trkpt lat="37.82160624262053" lon="15.131566578598353"><ele>608.0</ele><time>2026-03-28T11:55:17Z</time></trkpt><trkpt lat="37.821575549529854" lon="15.131664273126452"><ele>607.3333333333334</ele><time>2026-03-28T11:55:18Z</time></trkpt><trkpt lat="37.82156449466504" lon="15.131763796959284"><ele>606.6666666666666</ele><time>2026-03-28T11:55:19Z</time></trkpt><trkpt lat="37.82155360621758" lon="15.131859256211463"><ele>606.0</ele><time>2026-03-28T11:55:20Z</time></trkpt><trkpt lat="37.821532510766644" lon="15.13195434419258"><ele>606.0</ele><time>2026-03-28T11:55:21Z</time></trkpt><trkpt lat="37.821514443165114" lon="15.13204847389464"><ele>606.0</ele><time>2026-03-28T11:55:22Z</time></trkpt><trkpt lat="37.82152324907192" lon="15.132131707610611"><ele>606.0</ele><time>2026-03-28T11:55:23Z</time></trkpt><trkpt lat="37.82160297715088" lon="15.132240180388365"><ele>606.0</ele><time>2026-03-28T11:55:25Z</time></trkpt><trkpt lat="37.82173387722701" lon="15.132248099853882"><ele>606.0</ele><time>2026-03-28T11:55:27Z</time></trkpt><trkpt lat="37.8218276177553" lon="15.132176750175987"><ele>605.0</ele><time>2026-03-28T11:55:29Z</time></trkpt><trkpt lat="37.821857732074996" lon="15.132092315278145"><ele>604.0</ele><time>2026-03-28T11:55:30Z</time></trkpt><trkpt lat="37.82189025468003" lon="15.131995916774722"><ele>603.0</ele><time>2026-03-28T11:55:31Z</time></trkpt><trkpt lat="37.82190599227469" lon="15.131881424871276"><ele>602.0</ele><time>2026-03-28T11:55:32Z</time></trkpt><trkpt lat="37.82191896592798" lon="15.131791545710133"><ele>601.0</ele><time>2026-03-28T11:55:33Z</time></trkpt><trkpt lat="37.821974627038806" lon="15.13165757941101"><ele>600.0</ele><time>2026-03-28T11:55:35Z</time></trkpt><trkpt lat="37.82203775124609" lon="15.131633807343668"><ele>600.0</ele><time>2026-03-28T11:55:36.001Z</time></trkpt><trkpt lat="37.82210183877078" lon="15.131645751308165"><ele>600.0</ele><time>2026-03-28T11:55:37.001Z</time></trkpt><trkpt lat="37.822173740073104" lon="15.131681301353733"><ele>600.0</ele><time>2026-03-28T11:55:38.001Z</time></trkpt><trkpt lat="37.82225528760331" lon="15.131728092213832"><ele>600.0</ele><time>2026-03-28T11:55:39.001Z</time></trkpt><trkpt lat="37.82234484119905" lon="15.131767560615614"><ele>600.0</ele><time>2026-03-28T11:55:40.001Z</time></trkpt><trkpt lat="37.822451722130296" lon="15.13180973210305"><ele>600.0</ele><time>2026-03-28T11:55:41.001Z</time></trkpt><trkpt lat="37.82256524704838" lon="15.131857231931841"><ele>599.25</ele><time>2026-03-28T11:55:42.001Z</time></trkpt><trkpt lat="37.82268602289461" lon="15.131907438642807"><ele>598.5</ele><time>2026-03-28T11:55:43.001Z</time></trkpt><trkpt lat="37.82280248647994" lon="15.131954648051073"><ele>597.75</ele><time>2026-03-28T11:55:44.001Z</time></trkpt><trkpt lat="37.822913160710804" lon="15.132000066603249"><ele>597.0</ele><time>2026-03-28T11:55:45.001Z</time></trkpt><trkpt lat="37.82301623421488" lon="15.132042385327395"><ele>597.0</ele><time>2026-03-28T11:55:46.001Z</time></trkpt><trkpt lat="37.82311668703902" lon="15.132077854221192"><ele>597.0</ele><time>2026-03-28T11:55:47.001Z</time></trkpt><trkpt lat="37.823213928302266" lon="15.132103899817356"><ele>597.0</ele><time>2026-03-28T11:55:48.001Z</time></trkpt><trkpt lat="37.82330626948006" lon="15.132123300734973"><ele>597.0</ele><time>2026-03-28T11:55:49.001Z</time></trkpt><trkpt lat="37.82339252282584" lon="15.132140164968877"><ele>597.0</ele><time>2026-03-28T11:55:50.001Z</time></trkpt><trkpt lat="37.82348044878919" lon="15.132156352372789"><ele>597.0</ele><time>2026-03-28T11:55:51.001Z</time></trkpt><trkpt lat="37.8235750956865" lon="15.132174367000719"><ele>597.0</ele><time>2026-03-28T11:55:52.001Z</time></trkpt><trkpt lat="37.823672137722134" lon="15.1321899889039"><ele>597.0</ele><time>2026-03-28T11:55:53.001Z</time></trkpt><trkpt lat="37.82375891744706" lon="15.132201050273817"><ele>597.0</ele><time>2026-03-28T11:55:54.001Z</time></trkpt><trkpt lat="37.82384429664246" lon="15.132207684420614"><ele>597.0</ele><time>2026-03-28T11:55:55.001Z</time></trkpt><trkpt lat="37.82393065354724" lon="15.132226466728918"><ele>597.0</ele><time>2026-03-28T11:55:56.001Z</time></trkpt><trkpt lat="37.82401745249005" lon="15.132262379991499"><ele>597.0</ele><time>2026-03-28T11:55:57Z</time></trkpt><trkpt lat="37.8241084477518" lon="15.132317162803403"><ele>597.0</ele><time>2026-03-28T11:55:58Z</time></trkpt><trkpt lat="37.82420155772654" lon="15.132380025887233"><ele>597.0</ele><time>2026-03-28T11:55:59Z</time></trkpt><trkpt lat="37.824299646611955" lon="15.132445404267658"><ele>597.0</ele><time>2026-03-28T11:56:00Z</time></trkpt><trkpt lat="37.82440210894649" lon="15.13251454804545"><ele>596.25</ele><time>2026-03-28T11:56:01Z</time></trkpt><trkpt lat="37.82451106265947" lon="15.132584984186714"><ele>595.5</ele><time>2026-03-28T11:56:02Z</time></trkpt><trkpt lat="37.82461892177941" lon="15.132650630204155"><ele>594.75</ele><time>2026-03-28T11:56:03Z</time></trkpt><trkpt lat="37.82472742516683" lon="15.132712501196421"><ele>594.0</ele><time>2026-03-28T11:56:04Z</time></trkpt><trkpt lat="37.82483898719056" lon="15.132775953407966"><ele>594.0</ele><time>2026-03-28T11:56:05Z</time></trkpt><trkpt lat="37.824953611266125" lon="15.1328395813867"><ele>594.0</ele><time>2026-03-28T11:56:06Z</time></trkpt><trkpt lat="37.82507113142318" lon="15.132905150648114"><ele>594.0</ele><time>2026-03-28T11:56:07Z</time></trkpt><trkpt lat="37.825183747125365" lon="15.13296420920488"><ele>594.0</ele><time>2026-03-28T11:56:08Z</time></trkpt><trkpt lat="37.825289278768444" lon="15.133017821879701"><ele>594.25</ele><time>2026-03-28T11:56:09Z</time></trkpt><trkpt lat="37.825393385803636" lon="15.13307200967944"><ele>594.5</ele><time>2026-03-28T11:56:10Z</time></trkpt><trkpt lat="37.82549997409085" lon="15.133129769997986"><ele>594.75</ele><time>2026-03-28T11:56:11Z</time></trkpt><trkpt lat="37.825603926465995" lon="15.133185327611237"><ele>595.0</ele><time>2026-03-28T11:56:12Z</time></trkpt><trkpt lat="37.82570566484801" lon="15.133238861582688"><ele>594.6666666666667</ele><time>2026-03-28T11:56:13Z</time></trkpt><trkpt lat="37.825806373902076" lon="15.133289865271552"><ele>594.3333333333334</ele><time>2026-03-28T11:56:14Z</time></trkpt><trkpt lat="37.825891934542646" lon="15.13332961468842"><ele>594.0</ele><time>2026-03-28T11:56:15Z</time></trkpt><trkpt lat="37.82596885033475" lon="15.133364328051526"><ele>593.6666666666666</ele><time>2026-03-28T11:56:16Z</time></trkpt><trkpt lat="37.82604127273231" lon="15.133393293270306"><ele>593.3333333333333</ele><time>2026-03-28T11:56:17Z</time></trkpt><trkpt lat="37.82610572030579" lon="15.133418165109395"><ele>593.0</ele><time>2026-03-28T11:56:18Z</time></trkpt><trkpt lat="37.826214357385766" lon="15.13345014417338"><ele>592.8333333333333</ele><time>2026-03-28T11:56:20Z</time></trkpt><trkpt lat="37.82628706076523" lon="15.133482402394515"><ele>592.6666666666666</ele><time>2026-03-28T11:56:22Z</time></trkpt><trkpt lat="37.82637193680615" lon="15.133504717543317"><ele>592.5</ele><time>2026-03-28T11:56:25Z</time></trkpt><trkpt lat="37.82644166472819" lon="15.13352305002722"><ele>592.3333333333334</ele><time>2026-03-28T11:57:45.001Z</time></trkpt><trkpt lat="37.8265522402758" lon="15.133551827984148"><ele>592.1666666666667</ele><time>2026-03-28T11:57:48.001Z</time></trkpt><trkpt lat="37.826620005933705" lon="15.133555094267301"><ele>592.0</ele><time>2026-03-28T11:57:49.001Z</time></trkpt><trkpt lat="37.82669732356474" lon="15.133577385642866"><ele>592.0</ele><time>2026-03-28T11:57:50.001Z</time></trkpt><trkpt lat="37.82678544095591" lon="15.133599762263383"><ele>592.0</ele><time>2026-03-28T11:57:51.001Z</time></trkpt><trkpt lat="37.82688015732045" lon="15.133625120771127"><ele>592.0</ele><time>2026-03-28T11:57:52.001Z</time></trkpt><trkpt lat="37.82698308026435" lon="15.13365572809786"><ele>592.0</ele><time>2026-03-28T11:57:53.001Z</time></trkpt><trkpt lat="37.82708827925682" lon="15.133708068196366"><ele>592.0</ele><time>2026-03-28T11:57:54.001Z</time></trkpt><trkpt lat="37.82720294179704" lon="15.133739964379162"><ele>591.75</ele><time>2026-03-28T11:57:55.001Z</time></trkpt><trkpt lat="37.827328142455166" lon="15.13375315603911"><ele>591.5</ele><time>2026-03-28T11:57:56.001Z</time></trkpt><trkpt lat="37.82744976764576" lon="15.133787011186408"><ele>591.25</ele><time>2026-03-28T11:57:57.001Z</time></trkpt><trkpt lat="37.82756477652061" lon="15.133818567554425"><ele>591.0</ele><time>2026-03-28T11:57:58.001Z</time></trkpt><trkpt lat="37.8276781487479" lon="15.13385047571683"><ele>590.75</ele><time>2026-03-28T11:57:59Z</time></trkpt><trkpt lat="37.82779095517298" lon="15.13388233903865"><ele>590.5</ele><time>2026-03-28T11:58:00Z</time></trkpt><trkpt lat="37.82790718209132" lon="15.133915282266086"><ele>590.25</ele><time>2026-03-28T11:58:01Z</time></trkpt><trkpt lat="37.82802338733775" lon="15.133945604265536"><ele>590.0</ele><time>2026-03-28T11:58:02Z</time></trkpt><trkpt lat="37.82813369752883" lon="15.133970540466295"><ele>590.0</ele><time>2026-03-28T11:58:03Z</time></trkpt><trkpt lat="37.82824158382339" lon="15.134011445805108"><ele>590.0</ele><time>2026-03-28T11:58:04Z</time></trkpt><trkpt lat="37.82835391686053" lon="15.134026242794237"><ele>590.0</ele><time>2026-03-28T11:58:05Z</time></trkpt><trkpt lat="37.8284694158875" lon="15.134032822064318"><ele>590.0</ele><time>2026-03-28T11:58:06Z</time></trkpt><trkpt lat="37.82858791441582" lon="15.134034725526016"><ele>590.0</ele><time>2026-03-28T11:58:07Z</time></trkpt><trkpt lat="37.828703710334025" lon="15.134035945971837"><ele>590.0</ele><time>2026-03-28T11:58:08Z</time></trkpt><trkpt lat="37.82881420270985" lon="15.134034384916047"><ele>590.0</ele><time>2026-03-28T11:58:09Z</time></trkpt><trkpt lat="37.82892033659374" lon="15.134032885440067"><ele>590.0</ele><time>2026-03-28T11:58:10Z</time></trkpt><trkpt lat="37.829016470109806" lon="15.13403519060652"><ele>590.0</ele><time>2026-03-28T11:58:11Z</time></trkpt><trkpt lat="37.82910742733374" lon="15.134046600328892"><ele>588.8</ele><time>2026-03-28T11:58:12Z</time></trkpt><trkpt lat="37.82918970519481" lon="15.13410583480716"><ele>587.6</ele><time>2026-03-28T11:58:13Z</time></trkpt><trkpt lat="37.829271802548135" lon="15.134179796145562"><ele>586.4</ele><time>2026-03-28T11:58:14Z</time></trkpt><trkpt lat="37.829348891300484" lon="15.13425349920593"><ele>585.2</ele><time>2026-03-28T11:58:15Z</time></trkpt><trkpt lat="37.82941457996642" lon="15.134312329494389"><ele>584.0</ele><time>2026-03-28T11:58:16Z</time></trkpt><trkpt lat="37.829532819997794" lon="15.134345373378691"><ele>583.6</ele><time>2026-03-28T11:58:18Z</time></trkpt><trkpt lat="37.82960498765335" lon="15.134370429576318"><ele>583.2</ele><time>2026-03-28T11:58:19Z</time></trkpt><trkpt lat="37.82968766815763" lon="15.134385675616528"><ele>582.8000000000001</ele><time>2026-03-28T11:58:20Z</time></trkpt><trkpt lat="37.8297746837154" lon="15.134443578460026"><ele>582.4</ele><time>2026-03-28T11:58:21Z</time></trkpt><trkpt lat="37.829869546382604" lon="15.134508150786337"><ele>582.0</ele><time>2026-03-28T11:58:22Z</time></trkpt><trkpt lat="37.829961667985344" lon="15.134564115109121"><ele>582.0</ele><time>2026-03-28T11:58:23Z</time></trkpt><trkpt lat="37.83004894369821" lon="15.134615289840385"><ele>582.0</ele><time>2026-03-28T11:58:24Z</time></trkpt><trkpt lat="37.83014017700994" lon="15.13467521659159"><ele>582.0</ele><time>2026-03-28T11:58:25Z</time></trkpt><trkpt lat="37.83024948292162" lon="15.134692167456167"><ele>582.0</ele><time>2026-03-28T11:58:26Z</time></trkpt><trkpt lat="37.83036321943876" lon="15.134691415042434"><ele>582.0</ele><time>2026-03-28T11:58:27Z</time></trkpt><trkpt lat="37.830478414341414" lon="15.134686547012736"><ele>581.4</ele><time>2026-03-28T11:58:28Z</time></trkpt><trkpt lat="37.83058214558904" lon="15.13468276883878"><ele>580.8000000000001</ele><time>2026-03-28T11:58:29Z</time></trkpt><trkpt lat="37.83065805123084" lon="15.13468838612019"><ele>580.2</ele><time>2026-03-28T11:58:30Z</time></trkpt><trkpt lat="37.83073636040654" lon="15.134738044394311"><ele>579.6</ele><time>2026-03-28T11:58:32Z</time></trkpt><trkpt lat="37.83071709708522" lon="15.134884610465628"><ele>579.0</ele><time>2026-03-28T11:58:34Z</time></trkpt><trkpt lat="37.83067437630985" lon="15.134972501881364"><ele>577.2</ele><time>2026-03-28T11:58:35Z</time></trkpt><trkpt lat="37.83061710335193" lon="15.135050200586395"><ele>575.4</ele><time>2026-03-28T11:58:36Z</time></trkpt><trkpt lat="37.830551391688864" lon="15.135108541099758"><ele>573.6</ele><time>2026-03-28T11:58:37Z</time></trkpt><trkpt lat="37.8304672205284" lon="15.135147742536914"><ele>571.8</ele><time>2026-03-28T11:58:38Z</time></trkpt><trkpt lat="37.83036860913837" lon="15.135168263347783"><ele>570.0</ele><time>2026-03-28T11:58:39Z</time></trkpt><trkpt lat="37.83026537304889" lon="15.135180536338856"><ele>570.0</ele><time>2026-03-28T11:58:40Z</time></trkpt><trkpt lat="37.830171702671876" lon="15.13520200682828"><ele>570.0</ele><time>2026-03-28T11:58:41Z</time></trkpt><trkpt lat="37.83008945832386" lon="15.135224763347717"><ele>570.0</ele><time>2026-03-28T11:58:42Z</time></trkpt><trkpt lat="37.830024549156974" lon="15.135274270936828"><ele>570.0</ele><time>2026-03-28T11:58:43Z</time></trkpt><trkpt lat="37.82999145602291" lon="15.135348304181646"><ele>570.0</ele><time>2026-03-28T11:58:44Z</time></trkpt><trkpt lat="37.82997327898434" lon="15.135455901384837"><ele>570.0</ele><time>2026-03-28T11:58:45Z</time></trkpt><trkpt lat="37.82999404246947" lon="15.135569109656743"><ele>569.6</ele><time>2026-03-28T11:58:46Z</time></trkpt><trkpt lat="37.83004545617394" lon="15.135669448140968"><ele>569.2</ele><time>2026-03-28T11:58:47Z</time></trkpt><trkpt lat="37.83010533695664" lon="15.135749365363097"><ele>568.8</ele><time>2026-03-28T11:58:48Z</time></trkpt><trkpt lat="37.83018385120244" lon="15.135803889080348"><ele>568.4</ele><time>2026-03-28T11:58:49Z</time></trkpt><trkpt lat="37.83028606057004" lon="15.135824855003971"><ele>568.0</ele><time>2026-03-28T11:58:50Z</time></trkpt><trkpt lat="37.83039423001731" lon="15.13586065710548"><ele>566.25</ele><time>2026-03-28T11:58:51Z</time></trkpt><trkpt lat="37.83051660344097" lon="15.135859745263831"><ele>564.5</ele><time>2026-03-28T11:58:52Z</time></trkpt><trkpt lat="37.830643662894985" lon="15.135825849402124"><ele>562.75</ele><time>2026-03-28T11:58:53Z</time></trkpt><trkpt lat="37.83076226918662" lon="15.135792903792392"><ele>561.0</ele><time>2026-03-28T11:58:54Z</time></trkpt><trkpt lat="37.830863055212475" lon="15.135773884824514"><ele>561.0</ele><time>2026-03-28T11:58:55Z</time></trkpt><trkpt lat="37.83093835384799" lon="15.135751727556459"><ele>561.0</ele><time>2026-03-28T11:58:56Z</time></trkpt><trkpt lat="37.831034226360764" lon="15.135832990509863"><ele>561.0</ele><time>2026-03-28T11:58:58Z</time></trkpt><trkpt lat="37.83105976461888" lon="15.135919592547179"><ele>561.0</ele><time>2026-03-28T11:58:59Z</time></trkpt><trkpt lat="37.83106701726936" lon="15.13603097440682"><ele>561.0</ele><time>2026-03-28T11:59:00Z</time></trkpt><trkpt lat="37.83106459549159" lon="15.13614475326038"><ele>561.0</ele><time>2026-03-28T11:59:01Z</time></trkpt><trkpt lat="37.83105386578511" lon="15.136240796331034"><ele>561.0</ele><time>2026-03-28T11:59:02Z</time></trkpt><trkpt lat="37.83103173002968" lon="15.136322583938963"><ele>561.0</ele><time>2026-03-28T11:59:03Z</time></trkpt><trkpt lat="37.830924110756634" lon="15.136414410790783"><ele>561.0</ele><time>2026-03-28T11:59:05Z</time></trkpt><trkpt lat="37.83084260788917" lon="15.136427876160836"><ele>561.0</ele><time>2026-03-28T11:59:06Z</time></trkpt><trkpt lat="37.83076989492707" lon="15.136435422118446"><ele>561.0</ele><time>2026-03-28T11:59:07Z</time></trkpt><trkpt lat="37.83070950936051" lon="15.13646952488047"><ele>561.0</ele><time>2026-03-28T11:59:08Z</time></trkpt><trkpt lat="37.83066125911191" lon="15.136616517990202"><ele>560.0</ele><time>2026-03-28T11:59:10Z</time></trkpt><trkpt lat="37.83067346819531" lon="15.136723637376386"><ele>559.0</ele><time>2026-03-28T11:59:11Z</time></trkpt><trkpt lat="37.830701987452514" lon="15.136844806009398"><ele>558.0</ele><time>2026-03-28T11:59:12Z</time></trkpt><trkpt lat="37.83073012663414" lon="15.136982318203376"><ele>557.0</ele><time>2026-03-28T11:59:13Z</time></trkpt><trkpt lat="37.83075722744238" lon="15.137137791903292"><ele>556.0</ele><time>2026-03-28T11:59:14Z</time></trkpt><trkpt lat="37.83077624546858" lon="15.13729998962166"><ele>553.75</ele><time>2026-03-28T11:59:15Z</time></trkpt><trkpt lat="37.830784648472765" lon="15.137456835601409"><ele>551.5</ele><time>2026-03-28T11:59:16Z</time></trkpt><trkpt lat="37.83078097285325" lon="15.13761311642037"><ele>549.25</ele><time>2026-03-28T11:59:17Z</time></trkpt><trkpt lat="37.83077459248543" lon="15.137768604552717"><ele>547.0</ele><time>2026-03-28T11:59:18Z</time></trkpt><trkpt lat="37.830778224839875" lon="15.13792364121737"><ele>547.0</ele><time>2026-03-28T11:59:19Z</time></trkpt><trkpt lat="37.8308026193893" lon="15.138080070436208"><ele>547.0</ele><time>2026-03-28T11:59:20Z</time></trkpt><trkpt lat="37.830838032950616" lon="15.138237336993653"><ele>547.0</ele><time>2026-03-28T11:59:21Z</time></trkpt><trkpt lat="37.830882572516536" lon="15.138388838391071"><ele>547.0</ele><time>2026-03-28T11:59:22Z</time></trkpt><trkpt lat="37.83094332344432" lon="15.138523244382526"><ele>545.6</ele><time>2026-03-28T11:59:23Z</time></trkpt><trkpt lat="37.831017161022714" lon="15.138648206237503"><ele>544.2</ele><time>2026-03-28T11:59:24Z</time></trkpt><trkpt lat="37.831095106026645" lon="15.138735715368254"><ele>542.8</ele><time>2026-03-28T11:59:25Z</time></trkpt><trkpt lat="37.831168984788" lon="15.138785881604992"><ele>541.4</ele><time>2026-03-28T11:59:26Z</time></trkpt><trkpt lat="37.83124408194562" lon="15.13880575886477"><ele>540.0</ele><time>2026-03-28T11:59:27Z</time></trkpt><trkpt lat="37.831320236908844" lon="15.138823385100784"><ele>540.0</ele><time>2026-03-28T11:59:28Z</time></trkpt><trkpt lat="37.83141018416124" lon="15.138808293288712"><ele>540.0</ele><time>2026-03-28T11:59:29Z</time></trkpt><trkpt lat="37.83150476234193" lon="15.13877019245517"><ele>540.0</ele><time>2026-03-28T11:59:30Z</time></trkpt><trkpt lat="37.831612141543225" lon="15.138752962419119"><ele>540.0</ele><time>2026-03-28T11:59:31Z</time></trkpt><trkpt lat="37.83172493020182" lon="15.138730883399646"><ele>540.0</ele><time>2026-03-28T11:59:32Z</time></trkpt><trkpt lat="37.83184534564862" lon="15.138704925506534"><ele>539.5</ele><time>2026-03-28T11:59:33Z</time></trkpt><trkpt lat="37.83197040588596" lon="15.138672975901965"><ele>539.0</ele><time>2026-03-28T11:59:34Z</time></trkpt><trkpt lat="37.83209431165184" lon="15.138633901319396"><ele>538.5</ele><time>2026-03-28T11:59:35Z</time></trkpt><trkpt lat="37.83221000068126" lon="15.138596847273329"><ele>538.0</ele><time>2026-03-28T11:59:36Z</time></trkpt><trkpt lat="37.83232674006935" lon="15.13858299373039"><ele>538.0</ele><time>2026-03-28T11:59:37Z</time></trkpt><trkpt lat="37.83243953413855" lon="15.138532699077748"><ele>538.0</ele><time>2026-03-28T11:59:38Z</time></trkpt><trkpt lat="37.83255767172509" lon="15.138516165432852"><ele>538.0</ele><time>2026-03-28T11:59:39Z</time></trkpt><trkpt lat="37.83266890985751" lon="15.138515227345753"><ele>538.0</ele><time>2026-03-28T11:59:40Z</time></trkpt><trkpt lat="37.83278491447205" lon="15.13852749830168"><ele>537.75</ele><time>2026-03-28T11:59:41Z</time></trkpt><trkpt lat="37.83290418645089" lon="15.138551440497512"><ele>537.5</ele><time>2026-03-28T11:59:42Z</time></trkpt><trkpt lat="37.83303036290881" lon="15.13857851790076"><ele>537.25</ele><time>2026-03-28T11:59:43Z</time></trkpt><trkpt lat="37.833158771636406" lon="15.138610134430975"><ele>537.0</ele><time>2026-03-28T11:59:44Z</time></trkpt><trkpt lat="37.83327445562589" lon="15.138658593516833"><ele>537.0</ele><time>2026-03-28T11:59:45Z</time></trkpt><trkpt lat="37.83340101384289" lon="15.138669221128442"><ele>537.0</ele><time>2026-03-28T11:59:46Z</time></trkpt><trkpt lat="37.833531762774705" lon="15.13864484030176"><ele>537.0</ele><time>2026-03-28T11:59:47Z</time></trkpt><trkpt lat="37.83366254805059" lon="15.138609304659424"><ele>537.0</ele><time>2026-03-28T11:59:48Z</time></trkpt><trkpt lat="37.83379720592751" lon="15.138570154443212"><ele>536.5</ele><time>2026-03-28T11:59:49Z</time></trkpt><trkpt lat="37.8339286653839" lon="15.138525634748616"><ele>536.0</ele><time>2026-03-28T11:59:50Z</time></trkpt><trkpt lat="37.83405081577267" lon="15.13848990890841"><ele>535.5</ele><time>2026-03-28T11:59:51Z</time></trkpt><trkpt lat="37.83415889397152" lon="15.138453361791013"><ele>535.0</ele><time>2026-03-28T11:59:52Z</time></trkpt><trkpt lat="37.834262460006705" lon="15.13846450329462"><ele>535.75</ele><time>2026-03-28T11:59:53Z</time></trkpt><trkpt lat="37.834362908441534" lon="15.138501339812528"><ele>536.5</ele><time>2026-03-28T11:59:54Z</time></trkpt><trkpt lat="37.83446846811517" lon="15.1385562559035"><ele>537.25</ele><time>2026-03-28T11:59:55Z</time></trkpt><trkpt lat="37.83457940508824" lon="15.13862059140009"><ele>538.0</ele><time>2026-03-28T11:59:56Z</time></trkpt><trkpt lat="37.834694104513744" lon="15.138685046418937"><ele>538.0</ele><time>2026-03-28T11:59:57Z</time></trkpt><trkpt lat="37.8348077388237" lon="15.138748295009975"><ele>538.0</ele><time>2026-03-28T11:59:58Z</time></trkpt><trkpt lat="37.83490884616645" lon="15.138807700394942"><ele>538.0</ele><time>2026-03-28T11:59:59Z</time></trkpt><trkpt lat="37.83499924263539" lon="15.138856474081193"><ele>538.0</ele><time>2026-03-28T12:00:00Z</time></trkpt><trkpt lat="37.83508377105659" lon="15.138899771784994"><ele>538.0</ele><time>2026-03-28T12:00:01Z</time></trkpt><trkpt lat="37.83516087771373" lon="15.138947172866878"><ele>538.1999999999999</ele><time>2026-03-28T12:00:02Z</time></trkpt><trkpt lat="37.83523465838382" lon="15.13900989103204"><ele>538.4</ele><time>2026-03-28T12:00:03Z</time></trkpt><trkpt lat="37.83531202711708" lon="15.139074672297626"><ele>538.5999999999999</ele><time>2026-03-28T12:00:04Z</time></trkpt><trkpt lat="37.83539901080348" lon="15.139131997194207"><ele>538.8</ele><time>2026-03-28T12:00:05Z</time></trkpt><trkpt lat="37.8354965942937" lon="15.139178880874077"><ele>539.0</ele><time>2026-03-28T12:00:06Z</time></trkpt><trkpt lat="37.835600048566846" lon="15.139221578174626"><ele>539.5</ele><time>2026-03-28T12:00:07Z</time></trkpt><trkpt lat="37.835707596545134" lon="15.139268145068295"><ele>540.0</ele><time>2026-03-28T12:00:08Z</time></trkpt><trkpt lat="37.83581675935484" lon="15.139318345366393"><ele>540.5</ele><time>2026-03-28T12:00:09Z</time></trkpt><trkpt lat="37.83592990174664" lon="15.13936823456535"><ele>541.0</ele><time>2026-03-28T12:00:10Z</time></trkpt><trkpt lat="37.83602889861106" lon="15.139413647107014"><ele>541.2</ele><time>2026-03-28T12:00:11Z</time></trkpt><trkpt lat="37.83611651925251" lon="15.139457017167828"><ele>541.4000000000001</ele><time>2026-03-28T12:00:12Z</time></trkpt><trkpt lat="37.83620082935144" lon="15.139505269779894"><ele>541.6</ele><time>2026-03-28T12:00:13Z</time></trkpt><trkpt lat="37.836290448578595" lon="15.139560593326438"><ele>541.8000000000001</ele><time>2026-03-28T12:00:14Z</time></trkpt><trkpt lat="37.83638385523312" lon="15.139624880391668"><ele>542.0</ele><time>2026-03-28T12:00:15Z</time></trkpt><trkpt lat="37.83647431872749" lon="15.139695244750133"><ele>542.0</ele><time>2026-03-28T12:00:16Z</time></trkpt><trkpt lat="37.83656808877022" lon="15.139772098276975"><ele>542.0</ele><time>2026-03-28T12:00:17Z</time></trkpt><trkpt lat="37.83665358695882" lon="15.139849978439836"><ele>542.0</ele><time>2026-03-28T12:00:18Z</time></trkpt><trkpt lat="37.83673518907228" lon="15.139939016505906"><ele>542.0</ele><time>2026-03-28T12:00:19Z</time></trkpt><trkpt lat="37.8368078508048" lon="15.140042823690564"><ele>542.0</ele><time>2026-03-28T12:00:20Z</time></trkpt><trkpt lat="37.83687596605837" lon="15.140147438136285"><ele>541.3333333333333</ele><time>2026-03-28T12:00:21Z</time></trkpt><trkpt lat="37.83694487676483" lon="15.140237611656982"><ele>540.6666666666666</ele><time>2026-03-28T12:00:22Z</time></trkpt><trkpt lat="37.83700915236198" lon="15.140304226673335"><ele>540.0</ele><time>2026-03-28T12:00:23Z</time></trkpt><trkpt lat="37.837072538394246" lon="15.140346325465515"><ele>539.3333333333334</ele><time>2026-03-28T12:00:24Z</time></trkpt><trkpt lat="37.83713504248914" lon="15.140361006213684"><ele>538.6666666666667</ele><time>2026-03-28T12:00:25Z</time></trkpt><trkpt lat="37.837201931639264" lon="15.140372345453287"><ele>538.0</ele><time>2026-03-28T12:00:26Z</time></trkpt><trkpt lat="37.83726933105928" lon="15.140312825782214"><ele>538.0</ele><time>2026-03-28T12:00:27Z</time></trkpt><trkpt lat="37.83732414604808" lon="15.1402344819653"><ele>538.0</ele><time>2026-03-28T12:00:28Z</time></trkpt><trkpt lat="37.83737180023324" lon="15.140155774707077"><ele>538.0</ele><time>2026-03-28T12:00:29Z</time></trkpt><trkpt lat="37.83741464445029" lon="15.140080195578538"><ele>538.0</ele><time>2026-03-28T12:00:30Z</time></trkpt><trkpt lat="37.83745451669546" lon="15.140009858595237"><ele>538.0</ele><time>2026-03-28T12:00:31Z</time></trkpt><trkpt lat="37.837516860252165" lon="15.139915257910998"><ele>538.0</ele><time>2026-03-28T12:00:33Z</time></trkpt><trkpt lat="37.83758355033821" lon="15.139926321969"><ele>538.0</ele><time>2026-03-28T12:00:37Z</time></trkpt><trkpt lat="37.83753938567254" lon="15.139992604737852"><ele>538.0</ele><time>2026-03-28T12:03:15Z</time></trkpt><trkpt lat="37.83750638450653" lon="15.140064628237807"><ele>538.0</ele><time>2026-03-28T12:03:17Z</time></trkpt><trkpt lat="37.83753793719649" lon="15.140194944464685"><ele>538.0</ele><time>2026-03-28T12:03:19Z</time></trkpt><trkpt lat="37.83749267785533" lon="15.140313590862636"><ele>538.0</ele><time>2026-03-28T12:03:22Z</time></trkpt><trkpt lat="37.83745608640129" lon="15.140412546943695"><ele>538.0</ele><time>2026-03-28T12:03:24Z</time></trkpt><trkpt lat="37.837417632940515" lon="15.14050279806134"><ele>538.0</ele><time>2026-03-28T12:03:26Z</time></trkpt><trkpt lat="37.83738747192997" lon="15.140573999010888"><ele>538.0</ele><time>2026-03-28T12:03:28Z</time></trkpt><trkpt lat="37.83734863362" lon="15.140653912905115"><ele>538.0</ele><time>2026-03-28T12:03:32Z</time></trkpt><trkpt lat="37.83731970633962" lon="15.140726723704413"><ele>538.0</ele><time>2026-03-28T12:05:03Z</time></trkpt><trkpt lat="37.837273730356095" lon="15.140832118484832"><ele>538.0</ele><time>2026-03-28T12:07:15Z</time></trkpt><trkpt lat="37.837200553547916" lon="15.140956491463985"><ele>538.0</ele><time>2026-03-28T12:07:17Z</time></trkpt><trkpt lat="37.83715730881358" lon="15.141034109268682"><ele>537.5</ele><time>2026-03-28T12:07:18Z</time></trkpt><trkpt lat="37.83711115863663" lon="15.141118529020776"><ele>537.0</ele><time>2026-03-28T12:07:19Z</time></trkpt><trkpt lat="37.83706222391046" lon="15.141209193775598"><ele>536.5</ele><time>2026-03-28T12:07:20Z</time></trkpt><trkpt lat="37.837015210143946" lon="15.14129821924174"><ele>536.0</ele><time>2026-03-28T12:07:21Z</time></trkpt><trkpt lat="37.83696744378767" lon="15.141387201409843"><ele>535.5</ele><time>2026-03-28T12:07:22Z</time></trkpt><trkpt lat="37.83692002566284" lon="15.141474879159093"><ele>535.0</ele><time>2026-03-28T12:07:23Z</time></trkpt><trkpt lat="37.8368679785713" lon="15.141567354493745"><ele>535.0</ele><time>2026-03-28T12:07:24Z</time></trkpt><trkpt lat="37.83681121723901" lon="15.141669367341231"><ele>535.0</ele><time>2026-03-28T12:07:25Z</time></trkpt><trkpt lat="37.83675346451253" lon="15.14177476192127"><ele>535.0</ele><time>2026-03-28T12:07:26Z</time></trkpt><trkpt lat="37.83669518970849" lon="15.141879622667538"><ele>535.0</ele><time>2026-03-28T12:07:27Z</time></trkpt><trkpt lat="37.83663893480132" lon="15.141980525614944"><ele>535.0</ele><time>2026-03-28T12:07:28Z</time></trkpt><trkpt lat="37.83658355299655" lon="15.14208107689156"><ele>534.6</ele><time>2026-03-28T12:07:29Z</time></trkpt><trkpt lat="37.83652341208225" lon="15.142189985791713"><ele>534.2</ele><time>2026-03-28T12:07:30Z</time></trkpt><trkpt lat="37.83646424983442" lon="15.14230106499782"><ele>533.8</ele><time>2026-03-28T12:07:31Z</time></trkpt><trkpt lat="37.83641458845275" lon="15.14240993961057"><ele>533.4</ele><time>2026-03-28T12:07:32Z</time></trkpt><trkpt lat="37.83637531349553" lon="15.142522761722892"><ele>533.0</ele><time>2026-03-28T12:07:33Z</time></trkpt><trkpt lat="37.83633993996948" lon="15.142646407419972"><ele>532.6</ele><time>2026-03-28T12:07:34Z</time></trkpt><trkpt lat="37.8363122228263" lon="15.142773825568646"><ele>532.1999999999999</ele><time>2026-03-28T12:07:35Z</time></trkpt><trkpt lat="37.8362914941061" lon="15.142897196603165"><ele>531.8</ele><time>2026-03-28T12:07:36Z</time></trkpt><trkpt lat="37.836275164788425" lon="15.143012039711211"><ele>531.4</ele><time>2026-03-28T12:07:37Z</time></trkpt><trkpt lat="37.83626175308115" lon="15.143116076887893"><ele>531.0</ele><time>2026-03-28T12:07:38Z</time></trkpt><trkpt lat="37.83625747219765" lon="15.143220506642091"><ele>530.6666666666666</ele><time>2026-03-28T12:07:39Z</time></trkpt><trkpt lat="37.83626043938425" lon="15.143319362662359"><ele>530.3333333333334</ele><time>2026-03-28T12:07:40Z</time></trkpt><trkpt lat="37.836265089133725" lon="15.143415333002721"><ele>530.0</ele><time>2026-03-28T12:07:41Z</time></trkpt><trkpt lat="37.83627592478994" lon="15.143545142944143"><ele>529.6666666666667</ele><time>2026-03-28T12:07:43Z</time></trkpt><trkpt lat="37.836283698891904" lon="15.143643739959256"><ele>529.3333333333334</ele><time>2026-03-28T12:07:45Z</time></trkpt><trkpt lat="37.836278615185535" lon="15.14372581598177"><ele>529.0</ele><time>2026-03-28T12:07:50Z</time></trkpt><trkpt lat="37.83627755092269" lon="15.143825584357339"><ele>529.0</ele><time>2026-03-28T12:07:53Z</time></trkpt><trkpt lat="37.83626423195171" lon="15.143920950268852"><ele>529.0</ele><time>2026-03-28T12:07:57Z</time></trkpt><trkpt lat="37.83632978115818" lon="15.144034406012823"><ele>529.0</ele><time>2026-03-28T12:08:00Z</time></trkpt><trkpt lat="37.83638894775929" lon="15.144077487197972"><ele>529.0</ele><time>2026-03-28T12:08:01Z</time></trkpt><trkpt lat="37.83645457633667" lon="15.144128297120442"><ele>529.0</ele><time>2026-03-28T12:08:02Z</time></trkpt><trkpt lat="37.8365253009047" lon="15.14418325302734"><ele>529.0</ele><time>2026-03-28T12:08:03Z</time></trkpt><trkpt lat="37.83658831187984" lon="15.144236880003728"><ele>528.8333333333334</ele><time>2026-03-28T12:08:04Z</time></trkpt><trkpt lat="37.83664434326456" lon="15.144289222261067"><ele>528.6666666666667</ele><time>2026-03-28T12:08:05Z</time></trkpt><trkpt lat="37.83670249895283" lon="15.144344811673342"><ele>528.5</ele><time>2026-03-28T12:08:06Z</time></trkpt><trkpt lat="37.83676542158403" lon="15.144400051825261"><ele>528.3333333333334</ele><time>2026-03-28T12:08:07Z</time></trkpt><trkpt lat="37.836829066315566" lon="15.144453007651919"><ele>528.1666666666666</ele><time>2026-03-28T12:08:08Z</time></trkpt><trkpt lat="37.8368941887162" lon="15.144507267928342"><ele>528.0</ele><time>2026-03-28T12:08:09Z</time></trkpt><trkpt lat="37.83696333309062" lon="15.144559989456168"><ele>529.0</ele><time>2026-03-28T12:08:10.001Z</time></trkpt><trkpt lat="37.837037749941125" lon="15.144605985169484"><ele>530.0</ele><time>2026-03-28T12:08:11.001Z</time></trkpt><trkpt lat="37.83711274505613" lon="15.144673743978808"><ele>531.0</ele><time>2026-03-28T12:08:12.001Z</time></trkpt><trkpt lat="37.837199438832485" lon="15.144718812278876"><ele>532.0</ele><time>2026-03-28T12:08:13.001Z</time></trkpt><trkpt lat="37.83729375013473" lon="15.144750383681952"><ele>533.0</ele><time>2026-03-28T12:08:14.001Z</time></trkpt><trkpt lat="37.83739449348874" lon="15.144766759687538"><ele>533.0</ele><time>2026-03-28T12:08:15.001Z</time></trkpt><trkpt lat="37.83750068514296" lon="15.144772339142282"><ele>533.0</ele><time>2026-03-28T12:08:16.001Z</time></trkpt><trkpt lat="37.83760924404623" lon="15.144755566076233"><ele>533.0</ele><time>2026-03-28T12:08:17.001Z</time></trkpt><trkpt lat="37.83771770989004" lon="15.144759766893694"><ele>533.0</ele><time>2026-03-28T12:08:18.001Z</time></trkpt><trkpt lat="37.83782893874812" lon="15.144785906108886"><ele>533.0</ele><time>2026-03-28T12:08:19.001Z</time></trkpt><trkpt lat="37.837943714191994" lon="15.144791409036976"><ele>533.4</ele><time>2026-03-28T12:08:20.001Z</time></trkpt><trkpt lat="37.838058146203714" lon="15.14479641429799"><ele>533.8</ele><time>2026-03-28T12:08:21.001Z</time></trkpt><trkpt lat="37.83816846256803" lon="15.144801213499457"><ele>534.2</ele><time>2026-03-28T12:08:22.001Z</time></trkpt><trkpt lat="37.83827549910383" lon="15.144805870015361"><ele>534.6</ele><time>2026-03-28T12:08:23.001Z</time></trkpt><trkpt lat="37.83837166046248" lon="15.144809202695068"><ele>535.0</ele><time>2026-03-28T12:08:24.001Z</time></trkpt><trkpt lat="37.83846551976861" lon="15.144809061270466"><ele>535.0</ele><time>2026-03-28T12:08:25.001Z</time></trkpt><trkpt lat="37.83856799441184" lon="15.144802278406182"><ele>535.0</ele><time>2026-03-28T12:08:26.001Z</time></trkpt><trkpt lat="37.838674587613895" lon="15.144791653263757"><ele>535.0</ele><time>2026-03-28T12:08:27.001Z</time></trkpt><trkpt lat="37.838784669769495" lon="15.144773585845037"><ele>535.0</ele><time>2026-03-28T12:08:28.001Z</time></trkpt><trkpt lat="37.838894745817164" lon="15.144757575455971"><ele>535.0</ele><time>2026-03-28T12:08:29.001Z</time></trkpt><trkpt lat="37.83900781173336" lon="15.144741130237987"><ele>535.0</ele><time>2026-03-28T12:08:30.001Z</time></trkpt><trkpt lat="37.839127932272575" lon="15.144723658945102"><ele>535.0</ele><time>2026-03-28T12:08:31.001Z</time></trkpt><trkpt lat="37.83925041875806" lon="15.144705843518228"><ele>535.0</ele><time>2026-03-28T12:08:32.001Z</time></trkpt><trkpt lat="37.83936856302632" lon="15.144689078045547"><ele>535.0</ele><time>2026-03-28T12:08:33.001Z</time></trkpt><trkpt lat="37.83948064242853" lon="15.144673358205797"><ele>535.4</ele><time>2026-03-28T12:08:34.001Z</time></trkpt><trkpt lat="37.83958253250105" lon="15.14465907342457"><ele>535.8</ele><time>2026-03-28T12:08:35.001Z</time></trkpt><trkpt lat="37.83968254670622" lon="15.144644752701378"><ele>536.2</ele><time>2026-03-28T12:08:36.001Z</time></trkpt><trkpt lat="37.83978208232155" lon="15.144630500486212"><ele>536.6</ele><time>2026-03-28T12:08:37.001Z</time></trkpt><trkpt lat="37.839881534327475" lon="15.14461626024878"><ele>537.0</ele><time>2026-03-28T12:08:38.001Z</time></trkpt><trkpt lat="37.83997477846171" lon="15.144602814794094"><ele>537.0</ele><time>2026-03-28T12:08:39.001Z</time></trkpt><trkpt lat="37.840064300526855" lon="15.144589385775411"><ele>537.0</ele><time>2026-03-28T12:08:40.001Z</time></trkpt><trkpt lat="37.84015387559835" lon="15.14457638458745"><ele>537.0</ele><time>2026-03-28T12:08:41.001Z</time></trkpt><trkpt lat="37.84024628228316" lon="15.144560854723762"><ele>537.0</ele><time>2026-03-28T12:08:42.001Z</time></trkpt><trkpt lat="37.84034270699294" lon="15.144544642088194"><ele>537.0</ele><time>2026-03-28T12:08:43.001Z</time></trkpt><trkpt lat="37.84043510144269" lon="15.144517317838813"><ele>537.2</ele><time>2026-03-28T12:08:44.001Z</time></trkpt><trkpt lat="37.84052340341769" lon="15.144473297354587"><ele>537.4000000000001</ele><time>2026-03-28T12:08:45.001Z</time></trkpt><trkpt lat="37.840596114748024" lon="15.1444252222123"><ele>537.5999999999999</ele><time>2026-03-28T12:08:46.001Z</time></trkpt><trkpt lat="37.84068216422854" lon="15.144337824230215"><ele>537.8</ele><time>2026-03-28T12:08:47.001Z</time></trkpt><trkpt lat="37.840747793518794" lon="15.144259018823522"><ele>538.0</ele><time>2026-03-28T12:08:48.001Z</time></trkpt><trkpt lat="37.84080702808841" lon="15.14418793717546"><ele>538.0</ele><time>2026-03-28T12:08:49.001Z</time></trkpt><trkpt lat="37.84085749745234" lon="15.144127372301607"><ele>538.0</ele><time>2026-03-28T12:08:50.001Z</time></trkpt><trkpt lat="37.84090387804194" lon="15.144061694428867"><ele>538.0</ele><time>2026-03-28T12:08:51.001Z</time></trkpt><trkpt lat="37.84095680205162" lon="15.143992924279809"><ele>538.0</ele><time>2026-03-28T12:08:52Z</time></trkpt><trkpt lat="37.841005910126015" lon="15.143914989792583"><ele>538.0</ele><time>2026-03-28T12:08:53Z</time></trkpt><trkpt lat="37.84105373637418" lon="15.143845684352394"><ele>538.0</ele><time>2026-03-28T12:08:54Z</time></trkpt><trkpt lat="37.84109537261056" lon="15.143785348914678"><ele>538.0</ele><time>2026-03-28T12:08:55Z</time></trkpt><trkpt lat="37.841145046264494" lon="15.143710764439827"><ele>538.4</ele><time>2026-03-28T12:08:56Z</time></trkpt><trkpt lat="37.841200797728575" lon="15.143626931678286"><ele>538.8</ele><time>2026-03-28T12:08:57Z</time></trkpt><trkpt lat="37.8412537674885" lon="15.143525676088435"><ele>539.2</ele><time>2026-03-28T12:08:58Z</time></trkpt><trkpt lat="37.8413216955276" lon="15.143432063921747"><ele>539.6</ele><time>2026-03-28T12:08:59Z</time></trkpt><trkpt lat="37.84138378648209" lon="15.143335984950983"><ele>540.0</ele><time>2026-03-28T12:09:00Z</time></trkpt><trkpt lat="37.84146031603058" lon="15.143253582657971"><ele>540.5</ele><time>2026-03-28T12:09:01Z</time></trkpt><trkpt lat="37.84151494022402" lon="15.143171603045245"><ele>541.0</ele><time>2026-03-28T12:09:02Z</time></trkpt><trkpt lat="37.841566311137896" lon="15.143089337065385"><ele>541.5</ele><time>2026-03-28T12:09:03Z</time></trkpt><trkpt lat="37.84162229594644" lon="15.142999031342725"><ele>542.0</ele><time>2026-03-28T12:09:04Z</time></trkpt><trkpt lat="37.841687864305605" lon="15.14292325208816"><ele>542.5</ele><time>2026-03-28T12:09:05Z</time></trkpt><trkpt lat="37.841764938695434" lon="15.142845049319279"><ele>543.0</ele><time>2026-03-28T12:09:06Z</time></trkpt><trkpt lat="37.84184891152519" lon="15.14276489693697"><ele>543.0</ele><time>2026-03-28T12:09:07Z</time></trkpt><trkpt lat="37.841911354635066" lon="15.142643088452456"><ele>543.0</ele><time>2026-03-28T12:09:08Z</time></trkpt><trkpt lat="37.841999813334596" lon="15.142555669164228"><ele>543.0</ele><time>2026-03-28T12:09:09Z</time></trkpt><trkpt lat="37.84208653024454" lon="15.142485888210876"><ele>543.0</ele><time>2026-03-28T12:09:10Z</time></trkpt><trkpt lat="37.84214732743841" lon="15.142423474563802"><ele>543.0</ele><time>2026-03-28T12:09:11Z</time></trkpt><trkpt lat="37.842198757078094" lon="15.142372405908285"><ele>543.1666666666666</ele><time>2026-03-28T12:09:12Z</time></trkpt><trkpt lat="37.84226460066009" lon="15.142359253663464"><ele>543.3333333333334</ele><time>2026-03-28T12:09:13Z</time></trkpt><trkpt lat="37.84235758210239" lon="15.142268142726591"><ele>543.5</ele><time>2026-03-28T12:09:15Z</time></trkpt><trkpt lat="37.84241102610682" lon="15.142215773862839"><ele>543.6666666666667</ele><time>2026-03-28T12:09:16Z</time></trkpt><trkpt lat="37.842473307119995" lon="15.142154745242534"><ele>543.8333333333334</ele><time>2026-03-28T12:09:17Z</time></trkpt><trkpt lat="37.842537834131306" lon="15.142091089877491"><ele>544.0</ele><time>2026-03-28T12:09:18Z</time></trkpt><trkpt lat="37.84259210120394" lon="15.14203764357098"><ele>543.8333333333334</ele><time>2026-03-28T12:09:19Z</time></trkpt><trkpt lat="37.84265144310436" lon="15.141980683995566"><ele>543.6666666666667</ele><time>2026-03-28T12:09:20Z</time></trkpt><trkpt lat="37.842718586231136" lon="15.141930077974612"><ele>543.5</ele><time>2026-03-28T12:09:21Z</time></trkpt><trkpt lat="37.84278155941453" lon="15.14189592627008"><ele>543.3333333333334</ele><time>2026-03-28T12:09:22Z</time></trkpt><trkpt lat="37.84288637574202" lon="15.141848150247563"><ele>543.1666666666666</ele><time>2026-03-28T12:09:24Z</time></trkpt><trkpt lat="37.84296717156182" lon="15.141816069423575"><ele>543.0</ele><time>2026-03-28T12:09:27Z</time></trkpt><trkpt lat="37.84303426831062" lon="15.141789575064989"><ele>543.0</ele><time>2026-03-28T12:09:29Z</time></trkpt><trkpt lat="37.84311935338804" lon="15.141754657733914"><ele>543.0</ele><time>2026-03-28T12:09:31Z</time></trkpt><trkpt lat="37.84320804144727" lon="15.141716402471628"><ele>543.0</ele><time>2026-03-28T12:09:33Z</time></trkpt><trkpt lat="37.84331129292161" lon="15.14166956967929"><ele>543.0</ele><time>2026-03-28T12:09:35Z</time></trkpt><trkpt lat="37.843412020980296" lon="15.14161867934998"><ele>543.0</ele><time>2026-03-28T12:09:37Z</time></trkpt><trkpt lat="37.84351283512228" lon="15.141568305453738"><ele>542.6666666666666</ele><time>2026-03-28T12:09:39Z</time></trkpt><trkpt lat="37.84362858761223" lon="15.141518315764905"><ele>542.3333333333334</ele><time>2026-03-28T12:09:41Z</time></trkpt><trkpt lat="37.84368818016437" lon="15.14149257971441"><ele>542.0</ele><time>2026-03-28T12:09:42Z</time></trkpt><trkpt lat="37.84375495610461" lon="15.141458427572585"><ele>541.6666666666667</ele><time>2026-03-28T12:09:43Z</time></trkpt><trkpt lat="37.84381481921265" lon="15.14142227703448"><ele>541.3333333333334</ele><time>2026-03-28T12:09:44Z</time></trkpt><trkpt lat="37.84387948793738" lon="15.141380958912395"><ele>541.0</ele><time>2026-03-28T12:09:45Z</time></trkpt><trkpt lat="37.843946855707614" lon="15.141333558316719"><ele>541.0</ele><time>2026-03-28T12:09:46Z</time></trkpt><trkpt lat="37.84398973024838" lon="15.141241440376543"><ele>541.0</ele><time>2026-03-28T12:09:47Z</time></trkpt><trkpt lat="37.8440545243398" lon="15.141175255958702"><ele>541.0</ele><time>2026-03-28T12:09:48Z</time></trkpt><trkpt lat="37.84412216921574" lon="15.141096320289432"><ele>541.0</ele><time>2026-03-28T12:09:49Z</time></trkpt><trkpt lat="37.84418509694099" lon="15.141009907910902"><ele>541.0</ele><time>2026-03-28T12:09:50Z</time></trkpt><trkpt lat="37.84427755231942" lon="15.140930966940617"><ele>540.4</ele><time>2026-03-28T12:09:51Z</time></trkpt><trkpt lat="37.844321640785175" lon="15.140800284844612"><ele>539.8</ele><time>2026-03-28T12:09:52Z</time></trkpt><trkpt lat="37.84435909395921" lon="15.140673303725865"><ele>539.1999999999999</ele><time>2026-03-28T12:09:53Z</time></trkpt><trkpt lat="37.84439733024027" lon="15.140542016757042"><ele>538.6</ele><time>2026-03-28T12:09:54Z</time></trkpt><trkpt lat="37.844431005450346" lon="15.14040108052491"><ele>538.0</ele><time>2026-03-28T12:09:55Z</time></trkpt><trkpt lat="37.84445914479695" lon="15.140259385718274"><ele>538.0</ele><time>2026-03-28T12:09:56Z</time></trkpt><trkpt lat="37.84448676055993" lon="15.140113804443594"><ele>538.0</ele><time>2026-03-28T12:09:57Z</time></trkpt><trkpt lat="37.84451869754695" lon="15.139967784061557"><ele>538.0</ele><time>2026-03-28T12:09:58Z</time></trkpt><trkpt lat="37.84455905949919" lon="15.139821406404483"><ele>538.0</ele><time>2026-03-28T12:09:59Z</time></trkpt><trkpt lat="37.84460355589417" lon="15.139671471386832"><ele>539.0</ele><time>2026-03-28T12:10:00Z</time></trkpt><trkpt lat="37.84465139461046" lon="15.1395149599108"><ele>540.0</ele><time>2026-03-28T12:10:01Z</time></trkpt><trkpt lat="37.84469920500283" lon="15.13935962936458"><ele>541.0</ele><time>2026-03-28T12:10:02Z</time></trkpt><trkpt lat="37.84474561401257" lon="15.13920729935347"><ele>542.0</ele><time>2026-03-28T12:10:03Z</time></trkpt><trkpt lat="37.844791052794655" lon="15.139057829754352"><ele>542.75</ele><time>2026-03-28T12:10:04Z</time></trkpt><trkpt lat="37.84480196917595" lon="15.138890984944588"><ele>543.5</ele><time>2026-03-28T12:10:05Z</time></trkpt><trkpt lat="37.84484576367497" lon="15.138747260588573"><ele>544.25</ele><time>2026-03-28T12:10:06Z</time></trkpt><trkpt lat="37.84488908987617" lon="15.138612116030494"><ele>545.0</ele><time>2026-03-28T12:10:07Z</time></trkpt><trkpt lat="37.84492778649527" lon="15.138481593441247"><ele>545.0</ele><time>2026-03-28T12:10:08Z</time></trkpt><trkpt lat="37.84499984484513" lon="15.138365148968969"><ele>545.0</ele><time>2026-03-28T12:10:09Z</time></trkpt><trkpt lat="37.84503937700669" lon="15.138235987975047"><ele>545.0</ele><time>2026-03-28T12:10:10Z</time></trkpt><trkpt lat="37.845078734564204" lon="15.138110486125852"><ele>545.0</ele><time>2026-03-28T12:10:11Z</time></trkpt><trkpt lat="37.845120434119394" lon="15.137977516371192"><ele>545.0</ele><time>2026-03-28T12:10:12Z</time></trkpt><trkpt lat="37.84516234988216" lon="15.137843856993094"><ele>546.0</ele><time>2026-03-28T12:10:13Z</time></trkpt><trkpt lat="37.8452029018449" lon="15.137714551363638"><ele>547.0</ele><time>2026-03-28T12:10:14Z</time></trkpt><trkpt lat="37.84524256949211" lon="15.137586115901808"><ele>548.0</ele><time>2026-03-28T12:10:15.001Z</time></trkpt><trkpt lat="37.84528442505602" lon="15.137453247669152"><ele>549.0</ele><time>2026-03-28T12:10:16.001Z</time></trkpt><trkpt lat="37.84532481698163" lon="15.13732502571164"><ele>550.0</ele><time>2026-03-28T12:10:17.001Z</time></trkpt><trkpt lat="37.84536633409618" lon="15.137193231943067"><ele>551.25</ele><time>2026-03-28T12:10:18.001Z</time></trkpt><trkpt lat="37.84540781248697" lon="15.137061726960036"><ele>552.5</ele><time>2026-03-28T12:10:19.001Z</time></trkpt><trkpt lat="37.84544899962075" lon="15.136931361240956"><ele>553.75</ele><time>2026-03-28T12:10:20.001Z</time></trkpt><trkpt lat="37.84549154272672" lon="15.136796703249201"><ele>555.0</ele><time>2026-03-28T12:10:21.001Z</time></trkpt><trkpt lat="37.845533456179794" lon="15.136663578884624"><ele>555.2</ele><time>2026-03-28T12:10:22.001Z</time></trkpt><trkpt lat="37.84557431713871" lon="15.136534841513338"><ele>555.4</ele><time>2026-03-28T12:10:23.001Z</time></trkpt><trkpt lat="37.84561372958708" lon="15.136403854991954"><ele>555.6</ele><time>2026-03-28T12:10:24.001Z</time></trkpt><trkpt lat="37.84565150741601" lon="15.136279901480075"><ele>555.8</ele><time>2026-03-28T12:10:25Z</time></trkpt><trkpt lat="37.84568512441466" lon="15.136169600185983"><ele>556.0</ele><time>2026-03-28T12:10:26Z</time></trkpt><trkpt lat="37.845715175242916" lon="15.136070999879406"><ele>556.0</ele><time>2026-03-28T12:10:27Z</time></trkpt><trkpt lat="37.84574157217464" lon="15.135984388504772"><ele>556.0</ele><time>2026-03-28T12:10:28Z</time></trkpt><trkpt lat="37.84576522496911" lon="15.135906779605309"><ele>556.0</ele><time>2026-03-28T12:10:29Z</time></trkpt><trkpt lat="37.84579039373893" lon="15.13582179050088"><ele>556.0</ele><time>2026-03-28T12:10:30Z</time></trkpt><trkpt lat="37.84581700985831" lon="15.135732948609318"><ele>556.0</ele><time>2026-03-28T12:10:31Z</time></trkpt><trkpt lat="37.84584528406181" lon="15.135638572123431"><ele>556.0</ele><time>2026-03-28T12:10:32Z</time></trkpt><trkpt lat="37.84587595946501" lon="15.135536180697553"><ele>556.6666666666667</ele><time>2026-03-28T12:10:33Z</time></trkpt><trkpt lat="37.84588312247512" lon="15.135427434661777"><ele>557.3333333333334</ele><time>2026-03-28T12:10:34Z</time></trkpt><trkpt lat="37.84591293517001" lon="15.135328463913673"><ele>558.0</ele><time>2026-03-28T12:10:35Z</time></trkpt><trkpt lat="37.84594190347082" lon="15.13522892504144"><ele>558.6666666666666</ele><time>2026-03-28T12:10:36Z</time></trkpt><trkpt lat="37.84596773985277" lon="15.135122027637298"><ele>559.3333333333333</ele><time>2026-03-28T12:10:37Z</time></trkpt><trkpt lat="37.846017648914184" lon="15.13501961375117"><ele>560.0</ele><time>2026-03-28T12:10:38Z</time></trkpt><trkpt lat="37.84604450477378" lon="15.134909544489634"><ele>560.4</ele><time>2026-03-28T12:10:39Z</time></trkpt><trkpt lat="37.84607249878715" lon="15.134796199283938"><ele>560.8</ele><time>2026-03-28T12:10:40Z</time></trkpt><trkpt lat="37.846098080262436" lon="15.1346786219396"><ele>561.2</ele><time>2026-03-28T12:10:41Z</time></trkpt><trkpt lat="37.846108840613226" lon="15.134559747085158"><ele>561.6</ele><time>2026-03-28T12:10:42Z</time></trkpt><trkpt lat="37.84614864625538" lon="15.134446210846797"><ele>562.0</ele><time>2026-03-28T12:10:43Z</time></trkpt><trkpt lat="37.84615287527552" lon="15.134326077529895"><ele>562.0</ele><time>2026-03-28T12:10:44Z</time></trkpt><trkpt lat="37.846174492453635" lon="15.134208428419779"><ele>562.0</ele><time>2026-03-28T12:10:45Z</time></trkpt><trkpt lat="37.84621182318075" lon="15.134092169922164"><ele>562.0</ele><time>2026-03-28T12:10:46Z</time></trkpt><trkpt lat="37.84623440618513" lon="15.133968225975318"><ele>562.0</ele><time>2026-03-28T12:10:47Z</time></trkpt><trkpt lat="37.846241384594265" lon="15.133840965545748"><ele>562.0</ele><time>2026-03-28T12:10:48Z</time></trkpt><trkpt lat="37.8462808737609" lon="15.133713221433945"><ele>562.6</ele><time>2026-03-28T12:10:49Z</time></trkpt><trkpt lat="37.84630419475186" lon="15.133583888876247"><ele>563.2</ele><time>2026-03-28T12:10:50Z</time></trkpt><trkpt lat="37.846328422398415" lon="15.133449981078941"><ele>563.8</ele><time>2026-03-28T12:10:51Z</time></trkpt><trkpt lat="37.846353539199896" lon="15.13331115884738"><ele>564.4</ele><time>2026-03-28T12:10:52Z</time></trkpt><trkpt lat="37.84637938896407" lon="15.133168285460394"><ele>565.0</ele><time>2026-03-28T12:10:53Z</time></trkpt><trkpt lat="37.8464062422075" lon="15.13301986582397"><ele>565.2</ele><time>2026-03-28T12:10:54Z</time></trkpt><trkpt lat="37.84641914120596" lon="15.132872112739495"><ele>565.4</ele><time>2026-03-28T12:10:55Z</time></trkpt><trkpt lat="37.84644771030725" lon="15.132729130899952"><ele>565.6</ele><time>2026-03-28T12:10:56Z</time></trkpt><trkpt lat="37.846471649128866" lon="15.132595937387226"><ele>565.8</ele><time>2026-03-28T12:10:57Z</time></trkpt><trkpt lat="37.84649459726043" lon="15.132474636713551"><ele>566.0</ele><time>2026-03-28T12:10:58Z</time></trkpt><trkpt lat="37.8465160471443" lon="15.132351627094293"><ele>566.5</ele><time>2026-03-28T12:10:59Z</time></trkpt><trkpt lat="37.846536828000666" lon="15.132222036990603"><ele>567.0</ele><time>2026-03-28T12:11:00Z</time></trkpt><trkpt lat="37.84655993187871" lon="15.13208375169324"><ele>567.5</ele><time>2026-03-28T12:11:01Z</time></trkpt><trkpt lat="37.84658653564759" lon="15.131937025867238"><ele>568.0</ele><time>2026-03-28T12:11:02Z</time></trkpt><trkpt lat="37.84661369156273" lon="15.131782535531736"><ele>568.0</ele><time>2026-03-28T12:11:03Z</time></trkpt><trkpt lat="37.84664489137551" lon="15.131623975462018"><ele>568.0</ele><time>2026-03-28T12:11:04Z</time></trkpt><trkpt lat="37.84667803565377" lon="15.13146062264549"><ele>568.0</ele><time>2026-03-28T12:11:05Z</time></trkpt><trkpt lat="37.846708629081405" lon="15.131297956991151"><ele>568.0</ele><time>2026-03-28T12:11:06Z</time></trkpt><trkpt lat="37.84673831034999" lon="15.131132041436198"><ele>568.25</ele><time>2026-03-28T12:11:07Z</time></trkpt><trkpt lat="37.84676899725724" lon="15.130966198038854"><ele>568.5</ele><time>2026-03-28T12:11:08Z</time></trkpt><trkpt lat="37.846801539161994" lon="15.130793234755462"><ele>568.75</ele><time>2026-03-28T12:11:09Z</time></trkpt><trkpt lat="37.84683239962919" lon="15.130619898851997"><ele>569.0</ele><time>2026-03-28T12:11:10Z</time></trkpt><trkpt lat="37.84686333737641" lon="15.130442144681625"><ele>569.75</ele><time>2026-03-28T12:11:11Z</time></trkpt><trkpt lat="37.84689517607541" lon="15.130259382630483"><ele>570.5</ele><time>2026-03-28T12:11:12Z</time></trkpt><trkpt lat="37.846927354167285" lon="15.13007699302272"><ele>571.25</ele><time>2026-03-28T12:11:13Z</time></trkpt><trkpt lat="37.846958315716606" lon="15.12989564106878"><ele>572.0</ele><time>2026-03-28T12:11:14Z</time></trkpt><trkpt lat="37.84699324528131" lon="15.12970933679198"><ele>573.0</ele><time>2026-03-28T12:11:15Z</time></trkpt><trkpt lat="37.8470246709509" lon="15.129530005788224"><ele>574.0</ele><time>2026-03-28T12:11:16Z</time></trkpt><trkpt lat="37.8470599696142" lon="15.129352271207349"><ele>575.0</ele><time>2026-03-28T12:11:17Z</time></trkpt><trkpt lat="37.84708881195113" lon="15.129181987677583"><ele>576.0</ele><time>2026-03-28T12:11:18Z</time></trkpt><trkpt lat="37.84711746387293" lon="15.129018629661456"><ele>576.5</ele><time>2026-03-28T12:11:19Z</time></trkpt><trkpt lat="37.84714754429539" lon="15.128859519633734"><ele>577.0</ele><time>2026-03-28T12:11:20Z</time></trkpt><trkpt lat="37.84717276082164" lon="15.128691357299282"><ele>577.5</ele><time>2026-03-28T12:11:21Z</time></trkpt><trkpt lat="37.847198170684926" lon="15.128528829503779"><ele>578.0</ele><time>2026-03-28T12:11:22Z</time></trkpt><trkpt lat="37.84721622196026" lon="15.12835639406025"><ele>578.75</ele><time>2026-03-28T12:11:23Z</time></trkpt><trkpt lat="37.847228911503805" lon="15.128177683826491"><ele>579.5</ele><time>2026-03-28T12:11:24Z</time></trkpt><trkpt lat="37.84724163706205" lon="15.127998222560912"><ele>580.25</ele><time>2026-03-28T12:11:25Z</time></trkpt><trkpt lat="37.847253773371094" lon="15.127807974341327"><ele>581.0</ele><time>2026-03-28T12:11:26Z</time></trkpt><trkpt lat="37.84726435146974" lon="15.1276187100532"><ele>581.0</ele><time>2026-03-28T12:11:27Z</time></trkpt><trkpt lat="37.84727666274094" lon="15.127421393830682"><ele>581.0</ele><time>2026-03-28T12:11:28Z</time></trkpt><trkpt lat="37.84729193417122" lon="15.12722710593073"><ele>581.0</ele><time>2026-03-28T12:11:29Z</time></trkpt><trkpt lat="37.847314092264575" lon="15.127038950024572"><ele>582.0</ele><time>2026-03-28T12:11:30Z</time></trkpt><trkpt lat="37.847335158264336" lon="15.126862092974678"><ele>583.0</ele><time>2026-03-28T12:11:31Z</time></trkpt><trkpt lat="37.847342736143624" lon="15.126688332525815"><ele>584.0</ele><time>2026-03-28T12:11:32Z</time></trkpt><trkpt lat="37.84734990424036" lon="15.126515813851247"><ele>585.0</ele><time>2026-03-28T12:11:33Z</time></trkpt><trkpt lat="37.84731906986902" lon="15.126336986512387"><ele>585.5</ele><time>2026-03-28T12:11:34Z</time></trkpt><trkpt lat="37.84726709747077" lon="15.1261639809544"><ele>586.0</ele><time>2026-03-28T12:11:35Z</time></trkpt><trkpt lat="37.84724645842469" lon="15.125977203326745"><ele>586.5</ele><time>2026-03-28T12:11:36Z</time></trkpt><trkpt lat="37.84721013318932" lon="15.125797616541064"><ele>587.0</ele><time>2026-03-28T12:11:37Z</time></trkpt><trkpt lat="37.84718119503818" lon="15.125636034953407"><ele>588.4</ele><time>2026-03-28T12:11:38Z</time></trkpt><trkpt lat="37.84716118858635" lon="15.125485902791603"><ele>589.8000000000001</ele><time>2026-03-28T12:11:39Z</time></trkpt><trkpt lat="37.8471484302654" lon="15.125363014519726"><ele>591.2</ele><time>2026-03-28T12:11:40Z</time></trkpt><trkpt lat="37.84717977567844" lon="15.125263665570284"><ele>592.6</ele><time>2026-03-28T12:11:41Z</time></trkpt><trkpt lat="37.84723185954763" lon="15.125183224321235"><ele>594.0</ele><time>2026-03-28T12:11:42Z</time></trkpt><trkpt lat="37.84730787131915" lon="15.125135301245795"><ele>594.0</ele><time>2026-03-28T12:11:43Z</time></trkpt><trkpt lat="37.84737813250452" lon="15.1250666722237"><ele>594.0</ele><time>2026-03-28T12:11:44Z</time></trkpt><trkpt lat="37.84746777982546" lon="15.125037770542875"><ele>594.0</ele><time>2026-03-28T12:11:45Z</time></trkpt><trkpt lat="37.84755505862681" lon="15.12504444107656"><ele>594.0</ele><time>2026-03-28T12:11:46Z</time></trkpt><trkpt lat="37.84763159193947" lon="15.125086627679092"><ele>594.0</ele><time>2026-03-28T12:11:47Z</time></trkpt><trkpt lat="37.84770330866424" lon="15.12515073995072"><ele>594.0</ele><time>2026-03-28T12:11:48Z</time></trkpt><trkpt lat="37.84777271058019" lon="15.12523066654571"><ele>594.5</ele><time>2026-03-28T12:11:49Z</time></trkpt><trkpt lat="37.84783927901594" lon="15.125320395798873"><ele>595.0</ele><time>2026-03-28T12:11:50Z</time></trkpt><trkpt lat="37.84790270931151" lon="15.125399881669475"><ele>595.5</ele><time>2026-03-28T12:11:51Z</time></trkpt><trkpt lat="37.847965884855356" lon="15.125449170065627"><ele>596.0</ele><time>2026-03-28T12:11:52Z</time></trkpt><trkpt lat="37.848030931013234" lon="15.125469775849641"><ele>596.5</ele><time>2026-03-28T12:11:53Z</time></trkpt><trkpt lat="37.848101402404005" lon="15.125461927628702"><ele>597.0</ele><time>2026-03-28T12:11:54Z</time></trkpt><trkpt lat="37.848166233316576" lon="15.1254229970814"><ele>597.0</ele><time>2026-03-28T12:11:55Z</time></trkpt><trkpt lat="37.84821473620675" lon="15.125356104593946"><ele>597.0</ele><time>2026-03-28T12:11:56Z</time></trkpt><trkpt lat="37.848270915908046" lon="15.125278910012126"><ele>597.0</ele><time>2026-03-28T12:11:57Z</time></trkpt><trkpt lat="37.8483116634632" lon="15.125178829808423"><ele>597.0</ele><time>2026-03-28T12:11:58Z</time></trkpt><trkpt lat="37.84835697181922" lon="15.125076485070103"><ele>597.0</ele><time>2026-03-28T12:11:59Z</time></trkpt><trkpt lat="37.84840458667143" lon="15.124970897282429"><ele>597.0</ele><time>2026-03-28T12:12:00Z</time></trkpt><trkpt lat="37.84845761856554" lon="15.124860241799427"><ele>599.5</ele><time>2026-03-28T12:12:01Z</time></trkpt><trkpt lat="37.848512620511826" lon="15.124745475446149"><ele>602.0</ele><time>2026-03-28T12:12:02Z</time></trkpt><trkpt lat="37.84856966669691" lon="15.124626443937066"><ele>604.5</ele><time>2026-03-28T12:12:03Z</time></trkpt><trkpt lat="37.84862973399497" lon="15.124501108422363"><ele>607.0</ele><time>2026-03-28T12:12:04Z</time></trkpt><trkpt lat="37.84869217723262" lon="15.12437081509398"><ele>607.0</ele><time>2026-03-28T12:12:05Z</time></trkpt><trkpt lat="37.84875275063736" lon="15.124244423820823"><ele>607.0</ele><time>2026-03-28T12:12:06Z</time></trkpt><trkpt lat="37.84879905229047" lon="15.124109290478495"><ele>607.0</ele><time>2026-03-28T12:12:07Z</time></trkpt><trkpt lat="37.84886230064168" lon="15.123986172970245"><ele>607.0</ele><time>2026-03-28T12:12:08Z</time></trkpt><trkpt lat="37.848921898730744" lon="15.123864749248359"><ele>607.75</ele><time>2026-03-28T12:12:09Z</time></trkpt><trkpt lat="37.848978780986734" lon="15.123740692751916"><ele>608.5</ele><time>2026-03-28T12:12:10Z</time></trkpt><trkpt lat="37.849035311516424" lon="15.123614697443536"><ele>609.25</ele><time>2026-03-28T12:12:11Z</time></trkpt><trkpt lat="37.84909385536014" lon="15.123488715609188"><ele>610.0</ele><time>2026-03-28T12:12:12Z</time></trkpt><trkpt lat="37.84914930521588" lon="15.123361505097138"><ele>610.0</ele><time>2026-03-28T12:12:13Z</time></trkpt><trkpt lat="37.8492022585804" lon="15.123236406201558"><ele>610.0</ele><time>2026-03-28T12:12:14Z</time></trkpt><trkpt lat="37.84925505775285" lon="15.123112289142217"><ele>610.0</ele><time>2026-03-28T12:12:15Z</time></trkpt><trkpt lat="37.849307186556786" lon="15.1229876481769"><ele>610.0</ele><time>2026-03-28T12:12:16Z</time></trkpt><trkpt lat="37.84936000698063" lon="15.122863612678259"><ele>610.0</ele><time>2026-03-28T12:12:17Z</time></trkpt><trkpt lat="37.849408374572086" lon="15.122747213889278"><ele>611.0</ele><time>2026-03-28T12:12:18Z</time></trkpt><trkpt lat="37.8494553360721" lon="15.12263298204608"><ele>612.0</ele><time>2026-03-28T12:12:19Z</time></trkpt><trkpt lat="37.849501054062394" lon="15.122517744284796"><ele>613.0</ele><time>2026-03-28T12:12:20Z</time></trkpt><trkpt lat="37.84955074450061" lon="15.122397601675345"><ele>614.0</ele><time>2026-03-28T12:12:21.001Z</time></trkpt><trkpt lat="37.84960079042377" lon="15.122276412193381"><ele>615.0</ele><time>2026-03-28T12:12:22.001Z</time></trkpt><trkpt lat="37.84964653295288" lon="15.12215872856865"><ele>616.2</ele><time>2026-03-28T12:12:23.001Z</time></trkpt><trkpt lat="37.84969084963619" lon="15.122042334002797"><ele>617.4</ele><time>2026-03-28T12:12:24.001Z</time></trkpt><trkpt lat="37.849748109527354" lon="15.121936277956978"><ele>618.6</ele><time>2026-03-28T12:12:25.001Z</time></trkpt><trkpt lat="37.84977417719065" lon="15.121809240719127"><ele>619.8</ele><time>2026-03-28T12:12:26.001Z</time></trkpt><trkpt lat="37.84981477526701" lon="15.121687918775057"><ele>621.0</ele><time>2026-03-28T12:12:27.001Z</time></trkpt><trkpt lat="37.84985388149189" lon="15.121562439195493"><ele>621.4</ele><time>2026-03-28T12:12:28.001Z</time></trkpt><trkpt lat="37.849894913985494" lon="15.121433227661623"><ele>621.8</ele><time>2026-03-28T12:12:29.001Z</time></trkpt><trkpt lat="37.849933952779395" lon="15.121300649193714"><ele>622.1999999999999</ele><time>2026-03-28T12:12:30.001Z</time></trkpt><trkpt lat="37.849968095771395" lon="15.121170033290529"><ele>622.6</ele><time>2026-03-28T12:12:31.001Z</time></trkpt><trkpt lat="37.85000300572088" lon="15.12104313654629"><ele>623.0</ele><time>2026-03-28T12:12:32Z</time></trkpt><trkpt lat="37.85003872948855" lon="15.120918688953283"><ele>623.0</ele><time>2026-03-28T12:12:33.001Z</time></trkpt><trkpt lat="37.85009202674234" lon="15.120804663948313"><ele>623.0</ele><time>2026-03-28T12:12:34.001Z</time></trkpt><trkpt lat="37.85011573643172" lon="15.120681981865566"><ele>623.0</ele><time>2026-03-28T12:12:35Z</time></trkpt><trkpt lat="37.850154604301025" lon="15.120570800761332"><ele>623.0</ele><time>2026-03-28T12:12:36Z</time></trkpt><trkpt lat="37.850187965729894" lon="15.1204690370944"><ele>623.0</ele><time>2026-03-28T12:12:37Z</time></trkpt><trkpt lat="37.85022105705878" lon="15.120376537567395"><ele>623.3333333333333</ele><time>2026-03-28T12:12:38Z</time></trkpt><trkpt lat="37.8502155264794" lon="15.120271933328132"><ele>623.6666666666666</ele><time>2026-03-28T12:12:39Z</time></trkpt><trkpt lat="37.850163370176766" lon="15.120174536033229"><ele>624.0</ele><time>2026-03-28T12:12:40Z</time></trkpt><trkpt lat="37.85009219222893" lon="15.120116814439273"><ele>624.3333333333334</ele><time>2026-03-28T12:12:41Z</time></trkpt><trkpt lat="37.850015744645376" lon="15.120079774573027"><ele>624.6666666666667</ele><time>2026-03-28T12:12:42Z</time></trkpt><trkpt lat="37.84992960890944" lon="15.120072310807773"><ele>625.0</ele><time>2026-03-28T12:12:43Z</time></trkpt><trkpt lat="37.84983536239491" lon="15.120088973480293"><ele>625.0</ele><time>2026-03-28T12:12:44Z</time></trkpt><trkpt lat="37.849734059468574" lon="15.120120472433955"><ele>625.0</ele><time>2026-03-28T12:12:45Z</time></trkpt><trkpt lat="37.84962456273551" lon="15.120157311114395"><ele>625.0</ele><time>2026-03-28T12:12:46Z</time></trkpt><trkpt lat="37.84950793602908" lon="15.120192213368487"><ele>625.0</ele><time>2026-03-28T12:12:47Z</time></trkpt><trkpt lat="37.84939343060415" lon="15.120229631314654"><ele>625.2</ele><time>2026-03-28T12:12:48Z</time></trkpt><trkpt lat="37.849282142540964" lon="15.120266411540516"><ele>625.4</ele><time>2026-03-28T12:12:49Z</time></trkpt><trkpt lat="37.84917225602695" lon="15.120302421457657"><ele>625.6</ele><time>2026-03-28T12:12:50Z</time></trkpt><trkpt lat="37.849062638923435" lon="15.120337546251385"><ele>625.8</ele><time>2026-03-28T12:12:51Z</time></trkpt><trkpt lat="37.84895970921378" lon="15.120369684086045"><ele>626.0</ele><time>2026-03-28T12:12:52Z</time></trkpt><trkpt lat="37.8488620420928" lon="15.12040133119549"><ele>626.0</ele><time>2026-03-28T12:12:53Z</time></trkpt><trkpt lat="37.848765675279644" lon="15.120433265346188"><ele>626.0</ele><time>2026-03-28T12:12:54Z</time></trkpt><trkpt lat="37.848667390556" lon="15.120466786303616"><ele>626.0</ele><time>2026-03-28T12:12:55Z</time></trkpt><trkpt lat="37.84857508682361" lon="15.12049639034052"><ele>626.0</ele><time>2026-03-28T12:12:56Z</time></trkpt><trkpt lat="37.84848925100762" lon="15.120519314607883"><ele>626.0</ele><time>2026-03-28T12:12:57Z</time></trkpt><trkpt lat="37.84841380073907" lon="15.1205253637647"><ele>625.8333333333333</ele><time>2026-03-28T12:12:58Z</time></trkpt><trkpt lat="37.84834276902626" lon="15.12051134089666"><ele>625.6666666666666</ele><time>2026-03-28T12:12:59Z</time></trkpt><trkpt lat="37.84828016389406" lon="15.120475692735699"><ele>625.5</ele><time>2026-03-28T12:13:00Z</time></trkpt><trkpt lat="37.848218921513705" lon="15.120412731160702"><ele>625.3333333333334</ele><time>2026-03-28T12:13:01Z</time></trkpt><trkpt lat="37.848188384789005" lon="15.120316132970693"><ele>625.1666666666667</ele><time>2026-03-28T12:13:02Z</time></trkpt><trkpt lat="37.84816458787402" lon="15.120216625736463"><ele>625.0</ele><time>2026-03-28T12:13:03Z</time></trkpt><trkpt lat="37.84814242878806" lon="15.120103171865235"><ele>625.0</ele><time>2026-03-28T12:13:04Z</time></trkpt><trkpt lat="37.84813167786629" lon="15.11999759740765"><ele>625.0</ele><time>2026-03-28T12:13:05Z</time></trkpt><trkpt lat="37.84813634084254" lon="15.119894560662617"><ele>625.0</ele><time>2026-03-28T12:13:06Z</time></trkpt><trkpt lat="37.848167324317735" lon="15.119810157123322"><ele>625.0</ele><time>2026-03-28T12:13:07Z</time></trkpt><trkpt lat="37.84821897880028" lon="15.119737527496092"><ele>625.0</ele><time>2026-03-28T12:13:08Z</time></trkpt><trkpt lat="37.84829254774755" lon="15.119685197945298"><ele>625.0</ele><time>2026-03-28T12:13:09Z</time></trkpt><trkpt lat="37.84837470582113" lon="15.1196262840014"><ele>626.0</ele><time>2026-03-28T12:13:10Z</time></trkpt><trkpt lat="37.84847492948257" lon="15.119593068150182"><ele>627.0</ele><time>2026-03-28T12:13:11Z</time></trkpt><trkpt lat="37.84858007720957" lon="15.119554689510426"><ele>628.0</ele><time>2026-03-28T12:13:12Z</time></trkpt><trkpt lat="37.84869104925061" lon="15.119509822223419"><ele>629.0</ele><time>2026-03-28T12:13:13Z</time></trkpt><trkpt lat="37.84880569791898" lon="15.119465346550191"><ele>630.0</ele><time>2026-03-28T12:13:14Z</time></trkpt><trkpt lat="37.84891214242777" lon="15.11942548182458"><ele>630.0</ele><time>2026-03-28T12:13:15Z</time></trkpt><trkpt lat="37.8490151560375" lon="15.119385142511552"><ele>630.0</ele><time>2026-03-28T12:13:16Z</time></trkpt><trkpt lat="37.84911652205299" lon="15.11934627334175"><ele>630.0</ele><time>2026-03-28T12:13:17Z</time></trkpt><trkpt lat="37.849218234832016" lon="15.119308878570552"><ele>630.0</ele><time>2026-03-28T12:13:18Z</time></trkpt><trkpt lat="37.849321145971814" lon="15.119270592237289"><ele>630.0</ele><time>2026-03-28T12:13:19Z</time></trkpt><trkpt lat="37.84941915157477" lon="15.119231492261536"><ele>630.6</ele><time>2026-03-28T12:13:20Z</time></trkpt><trkpt lat="37.84951390499341" lon="15.119217079488134"><ele>631.2</ele><time>2026-03-28T12:13:21Z</time></trkpt><trkpt lat="37.849596898517404" lon="15.119164077720976"><ele>631.8</ele><time>2026-03-28T12:13:22Z</time></trkpt><trkpt lat="37.84968946676495" lon="15.119129175102307"><ele>632.4</ele><time>2026-03-28T12:13:23Z</time></trkpt><trkpt lat="37.849786321231704" lon="15.11909199261325"><ele>633.0</ele><time>2026-03-28T12:13:24Z</time></trkpt><trkpt lat="37.84989529904025" lon="15.119066716509856"><ele>634.0</ele><time>2026-03-28T12:13:25Z</time></trkpt><trkpt lat="37.85000777726524" lon="15.119012726097065"><ele>635.0</ele><time>2026-03-28T12:13:26Z</time></trkpt><trkpt lat="37.850125131559" lon="15.118950435787529"><ele>636.0</ele><time>2026-03-28T12:13:27Z</time></trkpt><trkpt lat="37.85024348685652" lon="15.118880427916958"><ele>637.0</ele><time>2026-03-28T12:13:28Z</time></trkpt><trkpt lat="37.85036141604477" lon="15.118802602352392"><ele>638.25</ele><time>2026-03-28T12:13:29Z</time></trkpt><trkpt lat="37.850477860390264" lon="15.118712354272205"><ele>639.5</ele><time>2026-03-28T12:13:30Z</time></trkpt><trkpt lat="37.85058880215309" lon="15.118617344512606"><ele>640.75</ele><time>2026-03-28T12:13:31Z</time></trkpt><trkpt lat="37.85069562008002" lon="15.118511203937404"><ele>642.0</ele><time>2026-03-28T12:13:32Z</time></trkpt><trkpt lat="37.85080227110737" lon="15.118396270950841"><ele>642.0</ele><time>2026-03-28T12:13:33Z</time></trkpt><trkpt lat="37.850904737231616" lon="15.118269077635818"><ele>642.0</ele><time>2026-03-28T12:13:34Z</time></trkpt><trkpt lat="37.851002180535225" lon="15.118134154696682"><ele>642.0</ele><time>2026-03-28T12:13:35Z</time></trkpt><trkpt lat="37.85109982813576" lon="15.117994765719988"><ele>642.0</ele><time>2026-03-28T12:13:36Z</time></trkpt><trkpt lat="37.851201935226776" lon="15.117849374768543"><ele>642.6666666666666</ele><time>2026-03-28T12:13:37Z</time></trkpt><trkpt lat="37.851305726663085" lon="15.117700360279928"><ele>643.3333333333333</ele><time>2026-03-28T12:13:38Z</time></trkpt><trkpt lat="37.85140856848013" lon="15.117552709250747"><ele>644.0</ele><time>2026-03-28T12:13:39Z</time></trkpt><trkpt lat="37.851516128502816" lon="15.11739828424306"><ele>644.0</ele><time>2026-03-28T12:13:40Z</time></trkpt><trkpt lat="37.85162701529811" lon="15.117239082926474"><ele>644.0</ele><time>2026-03-28T12:13:41Z</time></trkpt><trkpt lat="37.85173262175735" lon="15.117086789146576"><ele>644.0</ele><time>2026-03-28T12:13:42Z</time></trkpt><trkpt lat="37.85182730979558" lon="15.11695100129201"><ele>644.25</ele><time>2026-03-28T12:13:43Z</time></trkpt><trkpt lat="37.8519142116878" lon="15.11682637909206"><ele>644.5</ele><time>2026-03-28T12:13:44Z</time></trkpt><trkpt lat="37.8519963818787" lon="15.116708542485991"><ele>644.75</ele><time>2026-03-28T12:13:45Z</time></trkpt><trkpt lat="37.852078204385876" lon="15.116591211750139"><ele>645.0</ele><time>2026-03-28T12:13:46Z</time></trkpt><trkpt lat="37.852159991658105" lon="15.116474581270053"><ele>645.0</ele><time>2026-03-28T12:13:47Z</time></trkpt><trkpt lat="37.85224167883018" lon="15.116358093539134"><ele>645.0</ele><time>2026-03-28T12:13:48Z</time></trkpt><trkpt lat="37.85232328995535" lon="15.11624171425215"><ele>645.0</ele><time>2026-03-28T12:13:49Z</time></trkpt><trkpt lat="37.85240710995847" lon="15.116122185043173"><ele>645.0</ele><time>2026-03-28T12:13:50Z</time></trkpt><trkpt lat="37.85249423900946" lon="15.115997936702971"><ele>645.0</ele><time>2026-03-28T12:13:51Z</time></trkpt><trkpt lat="37.85258472949109" lon="15.11587021694281"><ele>645.0</ele><time>2026-03-28T12:13:52Z</time></trkpt><trkpt lat="37.8526776688603" lon="15.115737226792259"><ele>645.0</ele><time>2026-03-28T12:13:53Z</time></trkpt><trkpt lat="37.85277153971104" lon="15.115602003242417"><ele>645.0</ele><time>2026-03-28T12:13:54Z</time></trkpt><trkpt lat="37.852865096180956" lon="15.115467232654384"><ele>645.0</ele><time>2026-03-28T12:13:55Z</time></trkpt><trkpt lat="37.85295914429972" lon="15.115331753816028"><ele>645.0</ele><time>2026-03-28T12:13:56Z</time></trkpt><trkpt lat="37.85305665431614" lon="15.115191288016442"><ele>645.0</ele><time>2026-03-28T12:13:57Z</time></trkpt><trkpt lat="37.853156690489925" lon="15.115047181765787"><ele>645.0</ele><time>2026-03-28T12:13:58Z</time></trkpt><trkpt lat="37.853259746171815" lon="15.114898219011303"><ele>644.3333333333334</ele><time>2026-03-28T12:13:59Z</time></trkpt><trkpt lat="37.85336285427516" lon="15.114749732245555"><ele>643.6666666666667</ele><time>2026-03-28T12:14:00Z</time></trkpt><trkpt lat="37.853466988735846" lon="15.114599810908075"><ele>643.0</ele><time>2026-03-28T12:14:01Z</time></trkpt><trkpt lat="37.853571465991564" lon="15.114448573805667"><ele>642.0</ele><time>2026-03-28T12:14:02Z</time></trkpt><trkpt lat="37.853676872831535" lon="15.114293698290895"><ele>641.0</ele><time>2026-03-28T12:14:03Z</time></trkpt><trkpt lat="37.85377508008761" lon="15.114129199265989"><ele>640.0</ele><time>2026-03-28T12:14:04Z</time></trkpt><trkpt lat="37.8538653655989" lon="15.11396059087548"><ele>639.3333333333334</ele><time>2026-03-28T12:14:05Z</time></trkpt><trkpt lat="37.85394765781293" lon="15.113793623172745"><ele>638.6666666666666</ele><time>2026-03-28T12:14:06Z</time></trkpt><trkpt lat="37.85401833586016" lon="15.11362303846777"><ele>638.0</ele><time>2026-03-28T12:14:07Z</time></trkpt><trkpt lat="37.85408112232207" lon="15.11345646471073"><ele>638.0</ele><time>2026-03-28T12:14:08Z</time></trkpt><trkpt lat="37.854139621694394" lon="15.113294216887812"><ele>638.0</ele><time>2026-03-28T12:14:09Z</time></trkpt><trkpt lat="37.85419187405406" lon="15.113134725260375"><ele>638.0</ele><time>2026-03-28T12:14:10Z</time></trkpt><trkpt lat="37.85423700976945" lon="15.112965784058867"><ele>638.0</ele><time>2026-03-28T12:14:11Z</time></trkpt><trkpt lat="37.8542725554382" lon="15.112785609802467"><ele>634.3333333333333</ele><time>2026-03-28T12:14:12Z</time></trkpt><trkpt lat="37.854299680815394" lon="15.11259746132027"><ele>630.6666666666666</ele><time>2026-03-28T12:14:13Z</time></trkpt><trkpt lat="37.85432076674558" lon="15.112403739412757"><ele>627.0</ele><time>2026-03-28T12:14:14Z</time></trkpt><trkpt lat="37.854321823953846" lon="15.112215807971442"><ele>627.0</ele><time>2026-03-28T12:14:15Z</time></trkpt><trkpt lat="37.85433901892959" lon="15.112034904716047"><ele>627.0</ele><time>2026-03-28T12:14:16Z</time></trkpt><trkpt lat="37.85435787918368" lon="15.111861976573335"><ele>627.0</ele><time>2026-03-28T12:14:17Z</time></trkpt><trkpt lat="37.854383816910584" lon="15.111692908587179"><ele>627.0</ele><time>2026-03-28T12:14:18Z</time></trkpt><trkpt lat="37.85442225562391" lon="15.111531388273429"><ele>627.5</ele><time>2026-03-28T12:14:19Z</time></trkpt><trkpt lat="37.8544793841602" lon="15.111373142104656"><ele>628.0</ele><time>2026-03-28T12:14:20Z</time></trkpt><trkpt lat="37.85456591194299" lon="15.111232325513596"><ele>628.5</ele><time>2026-03-28T12:14:21Z</time></trkpt><trkpt lat="37.85464142128535" lon="15.111076591289509"><ele>629.0</ele><time>2026-03-28T12:14:22Z</time></trkpt><trkpt lat="37.854720019778924" lon="15.110915703396346"><ele>629.0</ele><time>2026-03-28T12:14:23Z</time></trkpt><trkpt lat="37.85479988171612" lon="15.110751995310926"><ele>629.0</ele><time>2026-03-28T12:14:24Z</time></trkpt><trkpt lat="37.854874231652055" lon="15.11058696003205"><ele>629.0</ele><time>2026-03-28T12:14:25Z</time></trkpt><trkpt lat="37.854981003253634" lon="15.110462423937722"><ele>629.0</ele><time>2026-03-28T12:14:26Z</time></trkpt><trkpt lat="37.85507340406761" lon="15.11031697590853"><ele>630.0</ele><time>2026-03-28T12:14:27.001Z</time></trkpt><trkpt lat="37.85514326906216" lon="15.110148390092325"><ele>631.0</ele><time>2026-03-28T12:14:28.001Z</time></trkpt><trkpt lat="37.855204451509685" lon="15.109980451350097"><ele>632.0</ele><time>2026-03-28T12:14:29.001Z</time></trkpt><trkpt lat="37.855284611575264" lon="15.109836072961906"><ele>633.0</ele><time>2026-03-28T12:14:30.001Z</time></trkpt><trkpt lat="37.85536452087283" lon="15.109684626063029"><ele>635.0</ele><time>2026-03-28T12:14:31.001Z</time></trkpt><trkpt lat="37.85547716280617" lon="15.109561572325292"><ele>637.0</ele><time>2026-03-28T12:14:32.001Z</time></trkpt><trkpt lat="37.85560750565987" lon="15.109456101325698"><ele>639.0</ele><time>2026-03-28T12:14:33.001Z</time></trkpt><trkpt lat="37.85574548050119" lon="15.109355692734496"><ele>639.0</ele><time>2026-03-28T12:14:34.001Z</time></trkpt><trkpt lat="37.85588580146994" lon="15.109256243157796"><ele>639.0</ele><time>2026-03-28T12:14:35.001Z</time></trkpt><trkpt lat="37.85603143916598" lon="15.109172378176286"><ele>639.0</ele><time>2026-03-28T12:14:36.001Z</time></trkpt><trkpt lat="37.85614476267847" lon="15.109067197449995"><ele>639.75</ele><time>2026-03-28T12:14:37.001Z</time></trkpt><trkpt lat="37.856243812734505" lon="15.1089385545297"><ele>640.5</ele><time>2026-03-28T12:14:38.001Z</time></trkpt><trkpt lat="37.856317366601274" lon="15.108780150281655"><ele>641.25</ele><time>2026-03-28T12:14:39.001Z</time></trkpt><trkpt lat="37.85637172679029" lon="15.108610146025624"><ele>642.0</ele><time>2026-03-28T12:14:40.001Z</time></trkpt><trkpt lat="37.85639273811919" lon="15.108425935374598"><ele>642.0</ele><time>2026-03-28T12:14:41.001Z</time></trkpt><trkpt lat="37.85638851375651" lon="15.108243734877194"><ele>642.0</ele><time>2026-03-28T12:14:42.001Z</time></trkpt><trkpt lat="37.856345139033166" lon="15.108072988981728"><ele>642.0</ele><time>2026-03-28T12:14:43.001Z</time></trkpt><trkpt lat="37.85630510305346" lon="15.107898998130132"><ele>642.0</ele><time>2026-03-28T12:14:44Z</time></trkpt><trkpt lat="37.85626182672847" lon="15.10772059948109"><ele>645.0</ele><time>2026-03-28T12:14:45Z</time></trkpt><trkpt lat="37.856219603773255" lon="15.107538110745788"><ele>648.0</ele><time>2026-03-28T12:14:46Z</time></trkpt><trkpt lat="37.85617741020084" lon="15.107355657408284"><ele>651.0</ele><time>2026-03-28T12:14:47Z</time></trkpt><trkpt lat="37.856151138809096" lon="15.107161857376099"><ele>653.6666666666666</ele><time>2026-03-28T12:14:48Z</time></trkpt><trkpt lat="37.85610959918071" lon="15.106974281876719"><ele>656.3333333333333</ele><time>2026-03-28T12:14:49Z</time></trkpt><trkpt lat="37.85606744672376" lon="15.10678393899668"><ele>659.0</ele><time>2026-03-28T12:14:50Z</time></trkpt><trkpt lat="37.856009957704806" lon="15.106600288437942"><ele>659.5</ele><time>2026-03-28T12:14:51Z</time></trkpt><trkpt lat="37.85596945625376" lon="15.10641611421979"><ele>660.0</ele><time>2026-03-28T12:14:52Z</time></trkpt><trkpt lat="37.855932061798434" lon="15.106234530586546"><ele>660.5</ele><time>2026-03-28T12:14:53Z</time></trkpt><trkpt lat="37.85589455279466" lon="15.10605648345292"><ele>661.0</ele><time>2026-03-28T12:14:54Z</time></trkpt><trkpt lat="37.85585585667306" lon="15.10588277340523"><ele>661.25</ele><time>2026-03-28T12:14:55Z</time></trkpt><trkpt lat="37.855815709906636" lon="15.105710200484822"><ele>661.5</ele><time>2026-03-28T12:14:56Z</time></trkpt><trkpt lat="37.85579160628832" lon="15.10552884720744"><ele>661.75</ele><time>2026-03-28T12:14:57Z</time></trkpt><trkpt lat="37.85575207800114" lon="15.105350713889704"><ele>662.0</ele><time>2026-03-28T12:14:58Z</time></trkpt><trkpt lat="37.85571270481576" lon="15.105173279552426"><ele>662.0</ele><time>2026-03-28T12:14:59Z</time></trkpt><trkpt lat="37.855673086982605" lon="15.104994742693197"><ele>662.0</ele><time>2026-03-28T12:15:00Z</time></trkpt><trkpt lat="37.855617984966386" lon="15.104822576114184"><ele>662.0</ele><time>2026-03-28T12:15:01Z</time></trkpt><trkpt lat="37.85559551335653" lon="15.10464515891155"><ele>662.0</ele><time>2026-03-28T12:15:02Z</time></trkpt><trkpt lat="37.85555805406137" lon="15.10447634796354"><ele>662.0</ele><time>2026-03-28T12:15:03Z</time></trkpt><trkpt lat="37.85552734898648" lon="15.104308235081504"><ele>662.0</ele><time>2026-03-28T12:15:04Z</time></trkpt><trkpt lat="37.85550433037064" lon="15.104149118341514"><ele>662.0</ele><time>2026-03-28T12:15:05Z</time></trkpt><trkpt lat="37.855474120124406" lon="15.103983540117135"><ele>662.0</ele><time>2026-03-28T12:15:06Z</time></trkpt><trkpt lat="37.85548818662413" lon="15.103810583790331"><ele>663.5</ele><time>2026-03-28T12:15:07Z</time></trkpt><trkpt lat="37.855487671870385" lon="15.103634210687643"><ele>665.0</ele><time>2026-03-28T12:15:08Z</time></trkpt><trkpt lat="37.85548802402826" lon="15.103471751874887"><ele>666.5</ele><time>2026-03-28T12:15:09Z</time></trkpt><trkpt lat="37.855494845624065" lon="15.103321589221935"><ele>668.0</ele><time>2026-03-28T12:15:10Z</time></trkpt><trkpt lat="37.855517607173006" lon="15.103174177530917"><ele>668.25</ele><time>2026-03-28T12:15:11Z</time></trkpt><trkpt lat="37.85556447143599" lon="15.10302793779808"><ele>668.5</ele><time>2026-03-28T12:15:12Z</time></trkpt><trkpt lat="37.85562368051082" lon="15.102875865266943"><ele>668.75</ele><time>2026-03-28T12:15:13Z</time></trkpt><trkpt lat="37.85568795648966" lon="15.102714448965699"><ele>669.0</ele><time>2026-03-28T12:15:14Z</time></trkpt><trkpt lat="37.85575432353551" lon="15.102547781452946"><ele>669.0</ele><time>2026-03-28T12:15:15Z</time></trkpt><trkpt lat="37.85582316815431" lon="15.102374892035389"><ele>669.0</ele><time>2026-03-28T12:15:16Z</time></trkpt><trkpt lat="37.85589277395614" lon="15.102199441711166"><ele>669.0</ele><time>2026-03-28T12:15:17Z</time></trkpt><trkpt lat="37.85595928676027" lon="15.10203164600646"><ele>669.0</ele><time>2026-03-28T12:15:18Z</time></trkpt><trkpt lat="37.8560222467977" lon="15.101870328611207"><ele>669.0</ele><time>2026-03-28T12:15:19Z</time></trkpt><trkpt lat="37.85608229689405" lon="15.101714771792023"><ele>669.0</ele><time>2026-03-28T12:15:20Z</time></trkpt><trkpt lat="37.85614396533778" lon="15.101555022724606"><ele>669.0</ele><time>2026-03-28T12:15:21Z</time></trkpt><trkpt lat="37.85620524321971" lon="15.101391901584016"><ele>669.0</ele><time>2026-03-28T12:15:22Z</time></trkpt><trkpt lat="37.85626545945326" lon="15.101224522444488"><ele>669.0</ele><time>2026-03-28T12:15:23Z</time></trkpt><trkpt lat="37.856324806024865" lon="15.101051776757807"><ele>669.0</ele><time>2026-03-28T12:15:24Z</time></trkpt><trkpt lat="37.85638249421217" lon="15.100872822653718"><ele>669.0</ele><time>2026-03-28T12:15:25Z</time></trkpt><trkpt lat="37.85643756797756" lon="15.100686491934862"><ele>670.0</ele><time>2026-03-28T12:15:26Z</time></trkpt><trkpt lat="37.85648583416556" lon="15.100497882719063"><ele>671.0</ele><time>2026-03-28T12:15:27Z</time></trkpt><trkpt lat="37.856530146341264" lon="15.100304422414137"><ele>672.0</ele><time>2026-03-28T12:15:28Z</time></trkpt><trkpt lat="37.85657199065301" lon="15.10011293647058"><ele>672.0</ele><time>2026-03-28T12:15:29Z</time></trkpt><trkpt lat="37.85661393439596" lon="15.099922728284424"><ele>672.0</ele><time>2026-03-28T12:15:30Z</time></trkpt><trkpt lat="37.856656428606705" lon="15.099734969504068"><ele>672.0</ele><time>2026-03-28T12:15:31Z</time></trkpt><trkpt lat="37.8566979134476" lon="15.099551175444546"><ele>671.5</ele><time>2026-03-28T12:15:32Z</time></trkpt><trkpt lat="37.856735689826785" lon="15.099372145000194"><ele>671.0</ele><time>2026-03-28T12:15:33Z</time></trkpt><trkpt lat="37.856770334887834" lon="15.099197788119618"><ele>670.5</ele><time>2026-03-28T12:15:34Z</time></trkpt><trkpt lat="37.85679399674801" lon="15.09902294539197"><ele>670.0</ele><time>2026-03-28T12:15:35Z</time></trkpt><trkpt lat="37.856800658856464" lon="15.098849125916265"><ele>670.25</ele><time>2026-03-28T12:15:36Z</time></trkpt><trkpt lat="37.85680156585095" lon="15.098690992486377"><ele>670.5</ele><time>2026-03-28T12:15:37Z</time></trkpt><trkpt lat="37.85679697525314" lon="15.098537405481412"><ele>670.75</ele><time>2026-03-28T12:15:38Z</time></trkpt><trkpt lat="37.85676300455312" lon="15.098380169915464"><ele>671.0</ele><time>2026-03-28T12:15:39Z</time></trkpt><trkpt lat="37.85668746908616" lon="15.098240358915605"><ele>670.5</ele><time>2026-03-28T12:15:40Z</time></trkpt><trkpt lat="37.85661981504403" lon="15.098093788745896"><ele>670.0</ele><time>2026-03-28T12:15:41Z</time></trkpt><trkpt lat="37.85656246598532" lon="15.097931980378712"><ele>669.5</ele><time>2026-03-28T12:15:42Z</time></trkpt><trkpt lat="37.856489387700435" lon="15.097770975195166"><ele>669.0</ele><time>2026-03-28T12:15:43Z</time></trkpt><trkpt lat="37.85641201432596" lon="15.097604807797486"><ele>669.0</ele><time>2026-03-28T12:15:44Z</time></trkpt><trkpt lat="37.85633348534425" lon="15.097433843677894"><ele>669.0</ele><time>2026-03-28T12:15:45Z</time></trkpt><trkpt lat="37.85625673273092" lon="15.097266746865957"><ele>669.0</ele><time>2026-03-28T12:15:46Z</time></trkpt><trkpt lat="37.8561845991777" lon="15.09710970607583"><ele>669.5</ele><time>2026-03-28T12:15:47Z</time></trkpt><trkpt lat="37.85611328916737" lon="15.096954458137516"><ele>670.0</ele><time>2026-03-28T12:15:48Z</time></trkpt><trkpt lat="37.85602547120119" lon="15.096806105654089"><ele>670.5</ele><time>2026-03-28T12:15:49Z</time></trkpt><trkpt lat="37.85594705451905" lon="15.096641210288755"><ele>671.0</ele><time>2026-03-28T12:15:50Z</time></trkpt><trkpt lat="37.855869973094535" lon="15.096471676069775"><ele>670.0</ele><time>2026-03-28T12:15:51Z</time></trkpt><trkpt lat="37.855810020959545" lon="15.096294107205503"><ele>669.0</ele><time>2026-03-28T12:15:52Z</time></trkpt><trkpt lat="37.855742318200285" lon="15.096137176316088"><ele>668.0</ele><time>2026-03-28T12:15:53Z</time></trkpt><trkpt lat="37.855666145934045" lon="15.095996060065875"><ele>667.0</ele><time>2026-03-28T12:15:54Z</time></trkpt><trkpt lat="37.855607470660786" lon="15.095847497113722"><ele>667.75</ele><time>2026-03-28T12:15:55Z</time></trkpt><trkpt lat="37.855564540457564" lon="15.0956983245939"><ele>668.5</ele><time>2026-03-28T12:15:56Z</time></trkpt><trkpt lat="37.855554784277935" lon="15.095542972483264"><ele>669.25</ele><time>2026-03-28T12:15:57Z</time></trkpt><trkpt lat="37.85555676308286" lon="15.095385238987417"><ele>670.0</ele><time>2026-03-28T12:15:58Z</time></trkpt><trkpt lat="37.85558401038306" lon="15.095236407081599"><ele>670.0</ele><time>2026-03-28T12:15:59Z</time></trkpt><trkpt lat="37.85562412371989" lon="15.095083517336654"><ele>670.0</ele><time>2026-03-28T12:16:00Z</time></trkpt><trkpt lat="37.855673295333" lon="15.094920515319068"><ele>670.0</ele><time>2026-03-28T12:16:01Z</time></trkpt><trkpt lat="37.85572602171448" lon="15.094747774361014"><ele>670.0</ele><time>2026-03-28T12:16:02Z</time></trkpt><trkpt lat="37.85578000531165" lon="15.09456850306119"><ele>671.0</ele><time>2026-03-28T12:16:03Z</time></trkpt><trkpt lat="37.855836467641645" lon="15.09438100032625"><ele>672.0</ele><time>2026-03-28T12:16:04Z</time></trkpt><trkpt lat="37.855895707836396" lon="15.094189371646339"><ele>673.0</ele><time>2026-03-28T12:16:05Z</time></trkpt><trkpt lat="37.855957040771635" lon="15.093993934317739"><ele>670.3333333333334</ele><time>2026-03-28T12:16:06Z</time></trkpt><trkpt lat="37.85601870902035" lon="15.093800056755432"><ele>667.6666666666666</ele><time>2026-03-28T12:16:07Z</time></trkpt><trkpt lat="37.85607845042452" lon="15.09361226432957"><ele>665.0</ele><time>2026-03-28T12:16:08Z</time></trkpt><trkpt lat="37.85614109437221" lon="15.093420789144037"><ele>666.0</ele><time>2026-03-28T12:16:09Z</time></trkpt><trkpt lat="37.8562043685345" lon="15.093227387722884"><ele>667.0</ele><time>2026-03-28T12:16:10Z</time></trkpt><trkpt lat="37.856268121943415" lon="15.093032520989851"><ele>668.0</ele><time>2026-03-28T12:16:11Z</time></trkpt><trkpt lat="37.85633356931536" lon="15.092838736715304"><ele>668.0</ele><time>2026-03-28T12:16:12Z</time></trkpt><trkpt lat="37.856398201087586" lon="15.092650543931741"><ele>668.0</ele><time>2026-03-28T12:16:13Z</time></trkpt><trkpt lat="37.856463569444756" lon="15.092462509458928"><ele>668.0</ele><time>2026-03-28T12:16:14Z</time></trkpt><trkpt lat="37.8565283291249" lon="15.092276225831082"><ele>669.0</ele><time>2026-03-28T12:16:15Z</time></trkpt><trkpt lat="37.85659161876695" lon="15.092092552190627"><ele>670.0</ele><time>2026-03-28T12:16:16Z</time></trkpt><trkpt lat="37.85664856120315" lon="15.091908401239325"><ele>671.0</ele><time>2026-03-28T12:16:17Z</time></trkpt><trkpt lat="37.856700304266475" lon="15.091715612764139"><ele>671.6666666666666</ele><time>2026-03-28T12:16:18Z</time></trkpt><trkpt lat="37.85674997120891" lon="15.091520709677297"><ele>672.3333333333334</ele><time>2026-03-28T12:16:19Z</time></trkpt><trkpt lat="37.85679994091122" lon="15.091330776989688"><ele>673.0</ele><time>2026-03-28T12:16:20Z</time></trkpt><trkpt lat="37.85685064216807" lon="15.091139738917345"><ele>672.3333333333334</ele><time>2026-03-28T12:16:21Z</time></trkpt><trkpt lat="37.85689970552474" lon="15.09095487110916"><ele>671.6666666666666</ele><time>2026-03-28T12:16:22Z</time></trkpt><trkpt lat="37.85695060118229" lon="15.090773272843157"><ele>671.0</ele><time>2026-03-28T12:16:23Z</time></trkpt><trkpt lat="37.857003892764766" lon="15.09059542704425"><ele>671.0</ele><time>2026-03-28T12:16:24Z</time></trkpt><trkpt lat="37.85705577684263" lon="15.09041775616194"><ele>671.0</ele><time>2026-03-28T12:16:25Z</time></trkpt><trkpt lat="37.85714748809856" lon="15.090260371499497"><ele>671.0</ele><time>2026-03-28T12:16:26Z</time></trkpt><trkpt lat="37.85726326451031" lon="15.090126967021826"><ele>671.0</ele><time>2026-03-28T12:16:27Z</time></trkpt><trkpt lat="37.85737096298545" lon="15.089977469769272"><ele>671.0</ele><time>2026-03-28T12:16:28Z</time></trkpt><trkpt lat="37.857480265045446" lon="15.089829794222046"><ele>671.0</ele><time>2026-03-28T12:16:29Z</time></trkpt><trkpt lat="37.857579672972186" lon="15.089667705967049"><ele>669.75</ele><time>2026-03-28T12:16:30Z</time></trkpt><trkpt lat="37.857679237789576" lon="15.089530755092678"><ele>668.5</ele><time>2026-03-28T12:16:31Z</time></trkpt><trkpt lat="37.85777225550424" lon="15.089399298245967"><ele>667.25</ele><time>2026-03-28T12:16:32Z</time></trkpt><trkpt lat="37.85786921614792" lon="15.089295600634042"><ele>666.0</ele><time>2026-03-28T12:16:33.001Z</time></trkpt><trkpt lat="37.857933839434644" lon="15.089150778329781"><ele>667.0</ele><time>2026-03-28T12:16:34.001Z</time></trkpt><trkpt lat="37.85797354980714" lon="15.08899204328266"><ele>668.0</ele><time>2026-03-28T12:16:35.001Z</time></trkpt><trkpt lat="37.85800706967361" lon="15.08883179434115"><ele>669.0</ele><time>2026-03-28T12:16:36.001Z</time></trkpt><trkpt lat="37.85804006976599" lon="15.08866768346143"><ele>670.0</ele><time>2026-03-28T12:16:37.001Z</time></trkpt><trkpt lat="37.858071399154966" lon="15.088507021466762"><ele>670.0</ele><time>2026-03-28T12:16:38.001Z</time></trkpt><trkpt lat="37.85810096414312" lon="15.088355405953296"><ele>670.0</ele><time>2026-03-28T12:16:39.001Z</time></trkpt><trkpt lat="37.858138199022555" lon="15.088226586080125"><ele>670.0</ele><time>2026-03-28T12:16:40.001Z</time></trkpt><trkpt lat="37.858178325906074" lon="15.088107330924498"><ele>670.0</ele><time>2026-03-28T12:16:41.001Z</time></trkpt><trkpt lat="37.858254010421646" lon="15.088017208865931"><ele>670.0</ele><time>2026-03-28T12:16:42.001Z</time></trkpt><trkpt lat="37.858335051617516" lon="15.087958161000143"><ele>672.4</ele><time>2026-03-28T12:16:43.001Z</time></trkpt><trkpt lat="37.858423997523886" lon="15.087945601882847"><ele>674.8</ele><time>2026-03-28T12:16:44.001Z</time></trkpt><trkpt lat="37.85851277323228" lon="15.087989077472393"><ele>677.2</ele><time>2026-03-28T12:16:45.001Z</time></trkpt><trkpt lat="37.85861374314361" lon="15.088022182337195"><ele>679.6</ele><time>2026-03-28T12:16:46.001Z</time></trkpt><trkpt lat="37.85872455349575" lon="15.088041021172133"><ele>682.0</ele><time>2026-03-28T12:16:47.001Z</time></trkpt><trkpt lat="37.85883495374859" lon="15.088085014333904"><ele>682.2</ele><time>2026-03-28T12:16:48.001Z</time></trkpt><trkpt lat="37.858940435793826" lon="15.088122370220923"><ele>682.4000000000001</ele><time>2026-03-28T12:16:49.001Z</time></trkpt><trkpt lat="37.859027659332256" lon="15.08816411472601"><ele>682.5999999999999</ele><time>2026-03-28T12:16:50.001Z</time></trkpt><trkpt lat="37.85911718140855" lon="15.088172719397646"><ele>682.8</ele><time>2026-03-28T12:16:51.001Z</time></trkpt><trkpt lat="37.85920579168359" lon="15.088139978848986"><ele>683.0</ele><time>2026-03-28T12:16:52Z</time></trkpt><trkpt lat="37.859285729430425" lon="15.088067615945729"><ele>682.8</ele><time>2026-03-28T12:16:53Z</time></trkpt><trkpt lat="37.859350186251234" lon="15.087969333503473"><ele>682.5999999999999</ele><time>2026-03-28T12:16:54Z</time></trkpt><trkpt lat="37.85938581950095" lon="15.087833122978267"><ele>682.4000000000001</ele><time>2026-03-28T12:16:55Z</time></trkpt><trkpt lat="37.859392299103476" lon="15.087696280333777"><ele>682.2</ele><time>2026-03-28T12:16:56Z</time></trkpt><trkpt lat="37.85940853109332" lon="15.087554917005955"><ele>682.0</ele><time>2026-03-28T12:16:57Z</time></trkpt><trkpt lat="37.859440964813224" lon="15.087402871737888"><ele>682.0</ele><time>2026-03-28T12:16:58Z</time></trkpt><trkpt lat="37.85946000114478" lon="15.087237686731592"><ele>682.0</ele><time>2026-03-28T12:16:59Z</time></trkpt><trkpt lat="37.859477853479675" lon="15.087060633746244"><ele>682.0</ele><time>2026-03-28T12:17:00Z</time></trkpt><trkpt lat="37.859469236745326" lon="15.086873835313062"><ele>682.0</ele><time>2026-03-28T12:17:01Z</time></trkpt><trkpt lat="37.859466622580356" lon="15.08668082583355"><ele>682.0</ele><time>2026-03-28T12:17:02Z</time></trkpt><trkpt lat="37.85945067653293" lon="15.086486728973052"><ele>682.0</ele><time>2026-03-28T12:17:03Z</time></trkpt><trkpt lat="37.85941295837861" lon="15.086301025431576"><ele>682.0</ele><time>2026-03-28T12:17:04Z</time></trkpt><trkpt lat="37.85935185608031" lon="15.086121488577586"><ele>684.0</ele><time>2026-03-28T12:17:05Z</time></trkpt><trkpt lat="37.859278012275695" lon="15.085946607022382"><ele>686.0</ele><time>2026-03-28T12:17:06Z</time></trkpt><trkpt lat="37.85920097850593" lon="15.085766337110217"><ele>688.0</ele><time>2026-03-28T12:17:07Z</time></trkpt><trkpt lat="37.859128511746135" lon="15.085581152492544"><ele>688.3333333333334</ele><time>2026-03-28T12:17:08Z</time></trkpt><trkpt lat="37.85905633251338" lon="15.085392343223056"><ele>688.6666666666666</ele><time>2026-03-28T12:17:09Z</time></trkpt><trkpt lat="37.85898713773893" lon="15.085216217929009"><ele>689.0</ele><time>2026-03-28T12:17:10Z</time></trkpt><trkpt lat="37.858926060171775" lon="15.085057535891515"><ele>689.0</ele><time>2026-03-28T12:17:11Z</time></trkpt><trkpt lat="37.85888062333926" lon="15.08491125872677"><ele>689.0</ele><time>2026-03-28T12:17:12Z</time></trkpt><trkpt lat="37.85885797743058" lon="15.084761391441283"><ele>689.0</ele><time>2026-03-28T12:17:13Z</time></trkpt><trkpt lat="37.85887850095697" lon="15.084602569768125"><ele>689.0</ele><time>2026-03-28T12:17:14Z</time></trkpt><trkpt lat="37.85891550823039" lon="15.084447346988199"><ele>689.0</ele><time>2026-03-28T12:17:15Z</time></trkpt><trkpt lat="37.858943925006486" lon="15.084280099178667"><ele>689.0</ele><time>2026-03-28T12:17:16Z</time></trkpt><trkpt lat="37.858974920492614" lon="15.08410519025136"><ele>689.0</ele><time>2026-03-28T12:17:17Z</time></trkpt><trkpt lat="37.859005877769846" lon="15.083919011036413"><ele>689.0</ele><time>2026-03-28T12:17:18Z</time></trkpt><trkpt lat="37.859037890180794" lon="15.083729191611845"><ele>689.5</ele><time>2026-03-28T12:17:19Z</time></trkpt><trkpt lat="37.85906976649253" lon="15.083540179156062"><ele>690.0</ele><time>2026-03-28T12:17:20Z</time></trkpt><trkpt lat="37.859100915358596" lon="15.083355480298158"><ele>690.5</ele><time>2026-03-28T12:17:21Z</time></trkpt><trkpt lat="37.85913160478529" lon="15.083173505554408"><ele>691.0</ele><time>2026-03-28T12:17:22Z</time></trkpt><trkpt lat="37.85916224707562" lon="15.082991810347528"><ele>691.0</ele><time>2026-03-28T12:17:23Z</time></trkpt><trkpt lat="37.859193568606585" lon="15.082809103996263"><ele>691.0</ele><time>2026-03-28T12:17:24Z</time></trkpt><trkpt lat="37.859224498637516" lon="15.082628956407374"><ele>691.0</ele><time>2026-03-28T12:17:25Z</time></trkpt><trkpt lat="37.85925577119553" lon="15.08244681370311"><ele>691.0</ele><time>2026-03-28T12:17:26Z</time></trkpt><trkpt lat="37.85928715639386" lon="15.08226401800375"><ele>688.5</ele><time>2026-03-28T12:17:27Z</time></trkpt><trkpt lat="37.85931652668635" lon="15.082092602083588"><ele>686.0</ele><time>2026-03-28T12:17:28Z</time></trkpt><trkpt lat="37.85934495033974" lon="15.081926792640935"><ele>683.5</ele><time>2026-03-28T12:17:29Z</time></trkpt><trkpt lat="37.85937265905738" lon="15.08176515421557"><ele>681.0</ele><time>2026-03-28T12:17:30Z</time></trkpt><trkpt lat="37.85939773793196" lon="15.081609106727438"><ele>681.25</ele><time>2026-03-28T12:17:31Z</time></trkpt><trkpt lat="37.85941888500185" lon="15.081459989431831"><ele>681.5</ele><time>2026-03-28T12:17:32Z</time></trkpt><trkpt lat="37.859440401686385" lon="15.081308170356062"><ele>681.75</ele><time>2026-03-28T12:17:33Z</time></trkpt><trkpt lat="37.85946863231436" lon="15.081157073603325"><ele>682.0</ele><time>2026-03-28T12:17:34Z</time></trkpt><trkpt lat="37.85950135646008" lon="15.081017754780591"><ele>682.0</ele><time>2026-03-28T12:17:35Z</time></trkpt><trkpt lat="37.85959069610786" lon="15.08093137423983"><ele>682.0</ele><time>2026-03-28T12:17:36Z</time></trkpt><trkpt lat="37.859683257375806" lon="15.080872957730897"><ele>682.0</ele><time>2026-03-28T12:17:37Z</time></trkpt><trkpt lat="37.859794517968076" lon="15.080833458336757"><ele>682.0</ele><time>2026-03-28T12:17:38Z</time></trkpt><trkpt lat="37.859916692466285" lon="15.080789414179268"><ele>681.75</ele><time>2026-03-28T12:17:39Z</time></trkpt><trkpt lat="37.86004308806822" lon="15.080732052029495"><ele>681.5</ele><time>2026-03-28T12:17:40Z</time></trkpt><trkpt lat="37.86017318697909" lon="15.08068960747637"><ele>681.25</ele><time>2026-03-28T12:17:41Z</time></trkpt><trkpt lat="37.86030139503435" lon="15.080658022383131"><ele>681.0</ele><time>2026-03-28T12:17:42Z</time></trkpt><trkpt lat="37.86042180999313" lon="15.080581858263345"><ele>681.0</ele><time>2026-03-28T12:17:43Z</time></trkpt><trkpt lat="37.86052571264885" lon="15.080468619226858"><ele>681.0</ele><time>2026-03-28T12:17:44Z</time></trkpt><trkpt lat="37.86059749826698" lon="15.080318133168337"><ele>681.0</ele><time>2026-03-28T12:17:45Z</time></trkpt><trkpt lat="37.86066917127311" lon="15.080167750686297"><ele>681.0</ele><time>2026-03-28T12:17:46Z</time></trkpt><trkpt lat="37.86075981829334" lon="15.080024958095995"><ele>681.3333333333334</ele><time>2026-03-28T12:17:47Z</time></trkpt><trkpt lat="37.86084038376868" lon="15.079864594105523"><ele>681.6666666666667</ele><time>2026-03-28T12:17:48Z</time></trkpt><trkpt lat="37.86092255700582" lon="15.079699897665678"><ele>682.0</ele><time>2026-03-28T12:17:49Z</time></trkpt><trkpt lat="37.86100583748918" lon="15.07953298204871"><ele>682.5</ele><time>2026-03-28T12:17:50Z</time></trkpt><trkpt lat="37.86108852677038" lon="15.079366643079462"><ele>683.0</ele><time>2026-03-28T12:17:51Z</time></trkpt><trkpt lat="37.86116344125664" lon="15.079215531862362"><ele>683.5</ele><time>2026-03-28T12:17:52Z</time></trkpt><trkpt lat="37.86122930981341" lon="15.079082667253397"><ele>684.0</ele><time>2026-03-28T12:17:53Z</time></trkpt><trkpt lat="37.861289382439026" lon="15.078948766364633"><ele>684.0</ele><time>2026-03-28T12:17:54Z</time></trkpt><trkpt lat="37.86134561761322" lon="15.07880476113863"><ele>684.0</ele><time>2026-03-28T12:17:55Z</time></trkpt><trkpt lat="37.86139971288814" lon="15.078652084568509"><ele>684.0</ele><time>2026-03-28T12:17:56Z</time></trkpt><trkpt lat="37.861455899812334" lon="15.07849174258552"><ele>684.0</ele><time>2026-03-28T12:17:57Z</time></trkpt><trkpt lat="37.86151400782537" lon="15.078325918385408"><ele>686.25</ele><time>2026-03-28T12:17:58Z</time></trkpt><trkpt lat="37.86155845182254" lon="15.078148688222848"><ele>688.5</ele><time>2026-03-28T12:17:59Z</time></trkpt><trkpt lat="37.861622089081955" lon="15.077976909524642"><ele>690.75</ele><time>2026-03-28T12:18:00Z</time></trkpt><trkpt lat="37.86168340115775" lon="15.077801908987409"><ele>693.0</ele><time>2026-03-28T12:18:01Z</time></trkpt><trkpt lat="37.861744265956496" lon="15.077629776568456"><ele>693.25</ele><time>2026-03-28T12:18:02Z</time></trkpt><trkpt lat="37.86180410119903" lon="15.077466316445243"><ele>693.5</ele><time>2026-03-28T12:18:03Z</time></trkpt><trkpt lat="37.86186152069039" lon="15.07732090482196"><ele>693.75</ele><time>2026-03-28T12:18:04Z</time></trkpt><trkpt lat="37.86191956034462" lon="15.077188454014532"><ele>694.0</ele><time>2026-03-28T12:18:05Z</time></trkpt><trkpt lat="37.861978072540445" lon="15.07706728307276"><ele>694.0</ele><time>2026-03-28T12:18:06Z</time></trkpt><trkpt lat="37.86202724333948" lon="15.076969957595113"><ele>694.0</ele><time>2026-03-28T12:18:07Z</time></trkpt><trkpt lat="37.86206741558254" lon="15.076883150574702"><ele>694.0</ele><time>2026-03-28T12:18:08Z</time></trkpt><trkpt lat="37.86211892831508" lon="15.076762362670102"><ele>694.0</ele><time>2026-03-28T12:18:10Z</time></trkpt><trkpt lat="37.86214840364837" lon="15.076670073375999"><ele>694.0</ele><time>2026-03-28T12:18:13Z</time></trkpt><trkpt lat="37.86218074235319" lon="15.076561430160304"><ele>694.0</ele><time>2026-03-28T12:18:15Z</time></trkpt><trkpt lat="37.86220995080467" lon="15.076449540128328"><ele>694.5</ele><time>2026-03-28T12:18:17Z</time></trkpt><trkpt lat="37.8622387783762" lon="15.076345931142423"><ele>695.0</ele><time>2026-03-28T12:18:19Z</time></trkpt><trkpt lat="37.86226720906699" lon="15.076256045368737"><ele>695.5</ele><time>2026-03-28T12:18:22Z</time></trkpt><trkpt lat="37.86228808570592" lon="15.076153519704075"><ele>696.0</ele><time>2026-03-28T12:18:25Z</time></trkpt><trkpt lat="37.86231839429835" lon="15.076059614184375"><ele>696.5</ele><time>2026-03-28T12:18:37Z</time></trkpt><trkpt lat="37.86229532570372" lon="15.07613736732475"><ele>697.0</ele><time>2026-03-28T12:18:43.001Z</time></trkpt><trkpt lat="37.862260346898346" lon="15.076282461653435"><ele>697.0</ele><time>2026-03-28T12:18:45.001Z</time></trkpt><trkpt lat="37.86224121267666" lon="15.076365340830929"><ele>697.0</ele><time>2026-03-28T12:18:46.001Z</time></trkpt><trkpt lat="37.862208508550985" lon="15.076504797924008"><ele>697.0</ele><time>2026-03-28T12:18:48.001Z</time></trkpt><trkpt lat="37.8621820864148" lon="15.076617919743093"><ele>697.0</ele><time>2026-03-28T12:18:50.001Z</time></trkpt><trkpt lat="37.862176196659014" lon="15.07669974079969"><ele>697.0</ele><time>2026-03-28T12:18:53.001Z</time></trkpt><trkpt lat="37.862418836210644" lon="15.076926163154518"><ele>696.5</ele><time>2026-03-28T12:19:12Z</time></trkpt><trkpt lat="37.86248490383561" lon="15.077004759294594"><ele>696.0</ele><time>2026-03-28T12:19:13Z</time></trkpt><trkpt lat="37.86255479315631" lon="15.077079553492027"><ele>695.5</ele><time>2026-03-28T12:19:14Z</time></trkpt><trkpt lat="37.86262356436315" lon="15.077138011295512"><ele>695.0</ele><time>2026-03-28T12:19:15Z</time></trkpt><trkpt lat="37.86269077464164" lon="15.0771913083399"><ele>694.5</ele><time>2026-03-28T12:19:16Z</time></trkpt><trkpt lat="37.86275190766469" lon="15.077246194633126"><ele>694.0</ele><time>2026-03-28T12:19:17Z</time></trkpt><trkpt lat="37.862796552689446" lon="15.077321119663425"><ele>692.7142857142858</ele><time>2026-03-28T12:19:18Z</time></trkpt><trkpt lat="37.86282833684577" lon="15.077409728299237"><ele>691.4285714285713</ele><time>2026-03-28T12:19:19Z</time></trkpt><trkpt lat="37.86285366099896" lon="15.077498915204853"><ele>690.1428571428571</ele><time>2026-03-28T12:19:20Z</time></trkpt><trkpt lat="37.86287690075619" lon="15.077586323030276"><ele>688.8571428571429</ele><time>2026-03-28T12:19:21Z</time></trkpt><trkpt lat="37.86290231160608" lon="15.077673352294731"><ele>687.5714285714287</ele><time>2026-03-28T12:19:22Z</time></trkpt><trkpt lat="37.862932846878174" lon="15.077757273911528"><ele>686.2857142857142</ele><time>2026-03-28T12:19:23Z</time></trkpt><trkpt lat="37.86296778718613" lon="15.077834165754735"><ele>685.0</ele><time>2026-03-28T12:19:24Z</time></trkpt><trkpt lat="37.8630072824584" lon="15.077909981063105"><ele>684.6666666666667</ele><time>2026-03-28T12:19:25Z</time></trkpt><trkpt lat="37.863051570764206" lon="15.077987446403398"><ele>684.3333333333334</ele><time>2026-03-28T12:19:26Z</time></trkpt><trkpt lat="37.86309713526725" lon="15.078068042154742"><ele>684.0</ele><time>2026-03-28T12:19:27Z</time></trkpt><trkpt lat="37.86314837163006" lon="15.07815238382467"><ele>683.6666666666666</ele><time>2026-03-28T12:19:28Z</time></trkpt><trkpt lat="37.863202316498686" lon="15.078237992964507"><ele>683.3333333333333</ele><time>2026-03-28T12:19:29Z</time></trkpt><trkpt lat="37.863254644615495" lon="15.078319439027533"><ele>683.0</ele><time>2026-03-28T12:19:30Z</time></trkpt><trkpt lat="37.86331221615003" lon="15.078408553652077"><ele>682.6666666666666</ele><time>2026-03-28T12:19:31Z</time></trkpt><trkpt lat="37.86336840682791" lon="15.078492208904303"><ele>682.3333333333333</ele><time>2026-03-28T12:19:32Z</time></trkpt><trkpt lat="37.86342161097344" lon="15.078573981710381"><ele>682.0</ele><time>2026-03-28T12:19:33Z</time></trkpt><trkpt lat="37.86347063282668" lon="15.078650060798719"><ele>681.6666666666666</ele><time>2026-03-28T12:19:34Z</time></trkpt><trkpt lat="37.863514035802076" lon="15.07871801611925"><ele>681.3333333333334</ele><time>2026-03-28T12:19:35Z</time></trkpt><trkpt lat="37.863556820570146" lon="15.078784979263569"><ele>681.0</ele><time>2026-03-28T12:19:36Z</time></trkpt><trkpt lat="37.86360292078933" lon="15.078853198464676"><ele>679.1999999999999</ele><time>2026-03-28T12:19:37Z</time></trkpt><trkpt lat="37.863657968023226" lon="15.078917196181974"><ele>677.4</ele><time>2026-03-28T12:19:38Z</time></trkpt><trkpt lat="37.863716319741144" lon="15.078970125692775"><ele>675.6</ele><time>2026-03-28T12:19:39Z</time></trkpt><trkpt lat="37.863771003295106" lon="15.079014208127402"><ele>673.8</ele><time>2026-03-28T12:19:40Z</time></trkpt><trkpt lat="37.86387623084796" lon="15.079094849569401"><ele>672.0</ele><time>2026-03-28T12:19:42Z</time></trkpt><trkpt lat="37.863980838739515" lon="15.07917699276807"><ele>671.2</ele><time>2026-03-28T12:19:44Z</time></trkpt><trkpt lat="37.86404345728531" lon="15.079195637598065"><ele>670.4000000000001</ele><time>2026-03-28T12:19:45Z</time></trkpt><trkpt lat="37.86405898175344" lon="15.079342134357626"><ele>669.5999999999999</ele><time>2026-03-28T12:19:46Z</time></trkpt><trkpt lat="37.864091278169894" lon="15.079450201177954"><ele>668.8</ele><time>2026-03-28T12:19:47Z</time></trkpt><trkpt lat="37.86412652778298" lon="15.079573554902828"><ele>668.0</ele><time>2026-03-28T12:19:48Z</time></trkpt><trkpt lat="37.86417773013306" lon="15.079704677256293"><ele>668.0</ele><time>2026-03-28T12:19:49Z</time></trkpt><trkpt lat="37.864244502241085" lon="15.07983608016514"><ele>668.0</ele><time>2026-03-28T12:19:50Z</time></trkpt><trkpt lat="37.86432617733331" lon="15.07995913194367"><ele>668.0</ele><time>2026-03-28T12:19:51Z</time></trkpt><trkpt lat="37.86442092987045" lon="15.080072042315813"><ele>668.0</ele><time>2026-03-28T12:19:52Z</time></trkpt><trkpt lat="37.864522558103836" lon="15.080178768040504"><ele>665.25</ele><time>2026-03-28T12:19:53Z</time></trkpt><trkpt lat="37.86462685463903" lon="15.080287697137338"><ele>662.5</ele><time>2026-03-28T12:19:54Z</time></trkpt><trkpt lat="37.86473442715561" lon="15.080394655097875"><ele>659.75</ele><time>2026-03-28T12:19:55Z</time></trkpt><trkpt lat="37.864844398585376" lon="15.08050748666573"><ele>657.0</ele><time>2026-03-28T12:19:56Z</time></trkpt><trkpt lat="37.86495142855076" lon="15.080625576893254"><ele>657.0</ele><time>2026-03-28T12:19:57Z</time></trkpt><trkpt lat="37.865052560184644" lon="15.080746139146731"><ele>657.0</ele><time>2026-03-28T12:19:58Z</time></trkpt><trkpt lat="37.865140029276866" lon="15.080874517888814"><ele>657.0</ele><time>2026-03-28T12:19:59Z</time></trkpt><trkpt lat="37.86522198396386" lon="15.080996183944865"><ele>657.0</ele><time>2026-03-28T12:20:00Z</time></trkpt><trkpt lat="37.865311750084" lon="15.081099877352601"><ele>654.5</ele><time>2026-03-28T12:20:01Z</time></trkpt><trkpt lat="37.86541190331904" lon="15.081187512610516"><ele>652.0</ele><time>2026-03-28T12:20:02Z</time></trkpt><trkpt lat="37.86551651231421" lon="15.081263242017462"><ele>649.5</ele><time>2026-03-28T12:20:03Z</time></trkpt><trkpt lat="37.86561981757215" lon="15.081332151509491"><ele>647.0</ele><time>2026-03-28T12:20:04Z</time></trkpt><trkpt lat="37.86573136144858" lon="15.081389979576851"><ele>647.0</ele><time>2026-03-28T12:20:05Z</time></trkpt><trkpt lat="37.865850263848834" lon="15.081424111002567"><ele>647.0</ele><time>2026-03-28T12:20:06Z</time></trkpt><trkpt lat="37.86597361073191" lon="15.081444841681169"><ele>647.0</ele><time>2026-03-28T12:20:07Z</time></trkpt><trkpt lat="37.866100256243854" lon="15.081463076839542"><ele>647.0</ele><time>2026-03-28T12:20:08Z</time></trkpt><trkpt lat="37.866234301698235" lon="15.081487937644745"><ele>644.75</ele><time>2026-03-28T12:20:09Z</time></trkpt><trkpt lat="37.866367629993874" lon="15.081515406671919"><ele>642.5</ele><time>2026-03-28T12:20:10Z</time></trkpt><trkpt lat="37.8665038314604" lon="15.081544027577758"><ele>640.25</ele><time>2026-03-28T12:20:11Z</time></trkpt><trkpt lat="37.86664014851425" lon="15.081576702166027"><ele>638.0</ele><time>2026-03-28T12:20:12Z</time></trkpt><trkpt lat="37.86677071151589" lon="15.081613300971979"><ele>636.75</ele><time>2026-03-28T12:20:13Z</time></trkpt><trkpt lat="37.86689865182395" lon="15.081652463407579"><ele>635.5</ele><time>2026-03-28T12:20:14Z</time></trkpt><trkpt lat="37.86701877982241" lon="15.081690546347277"><ele>634.25</ele><time>2026-03-28T12:20:15Z</time></trkpt><trkpt lat="37.86713787444615" lon="15.08172538411861"><ele>633.0</ele><time>2026-03-28T12:20:16Z</time></trkpt><trkpt lat="37.867257608049854" lon="15.081743625042874"><ele>633.0</ele><time>2026-03-28T12:20:17Z</time></trkpt><trkpt lat="37.86737806573325" lon="15.081737291276367"><ele>633.0</ele><time>2026-03-28T12:20:18Z</time></trkpt><trkpt lat="37.86750225788457" lon="15.081713923341097"><ele>633.0</ele><time>2026-03-28T12:20:19Z</time></trkpt><trkpt lat="37.86762636368628" lon="15.081684861331327"><ele>633.0</ele><time>2026-03-28T12:20:20Z</time></trkpt><trkpt lat="37.8677448678648" lon="15.081657161115634"><ele>631.75</ele><time>2026-03-28T12:20:21Z</time></trkpt><trkpt lat="37.86786132639471" lon="15.081639466656728"><ele>630.5</ele><time>2026-03-28T12:20:22Z</time></trkpt><trkpt lat="37.86797929087098" lon="15.081643189226638"><ele>629.25</ele><time>2026-03-28T12:20:23Z</time></trkpt><trkpt lat="37.86810307349072" lon="15.081666031582216"><ele>628.0</ele><time>2026-03-28T12:20:24Z</time></trkpt><trkpt lat="37.86822340232833" lon="15.081707160377968"><ele>628.0</ele><time>2026-03-28T12:20:25Z</time></trkpt><trkpt lat="37.868331597778095" lon="15.081770193460981"><ele>628.0</ele><time>2026-03-28T12:20:26Z</time></trkpt><trkpt lat="37.86843805617413" lon="15.08184908939971"><ele>628.0</ele><time>2026-03-28T12:20:27Z</time></trkpt><trkpt lat="37.86855329352689" lon="15.081931821802916"><ele>628.0</ele><time>2026-03-28T12:20:28Z</time></trkpt><trkpt lat="37.86867202587275" lon="15.082015621213836"><ele>626.75</ele><time>2026-03-28T12:20:29Z</time></trkpt><trkpt lat="37.86879141107629" lon="15.08209835710488"><ele>625.5</ele><time>2026-03-28T12:20:30Z</time></trkpt><trkpt lat="37.86890648691984" lon="15.08217899004854"><ele>624.25</ele><time>2026-03-28T12:20:31Z</time></trkpt><trkpt lat="37.86901696135434" lon="15.08225666475316"><ele>623.0</ele><time>2026-03-28T12:20:32Z</time></trkpt><trkpt lat="37.86912522701088" lon="15.082332620533267"><ele>623.0</ele><time>2026-03-28T12:20:33Z</time></trkpt><trkpt lat="37.86922967108011" lon="15.082404099093978"><ele>623.0</ele><time>2026-03-28T12:20:34Z</time></trkpt><trkpt lat="37.86933092878437" lon="15.082474173933317"><ele>623.0</ele><time>2026-03-28T12:20:35Z</time></trkpt><trkpt lat="37.86942443740327" lon="15.082543346510416"><ele>623.0</ele><time>2026-03-28T12:20:36Z</time></trkpt><trkpt lat="37.86950577633823" lon="15.08262645690554"><ele>623.0</ele><time>2026-03-28T12:20:37Z</time></trkpt><trkpt lat="37.86957194119074" lon="15.082726930559797"><ele>621.1999999999999</ele><time>2026-03-28T12:20:38Z</time></trkpt><trkpt lat="37.869626836728614" lon="15.082846865679999"><ele>619.4</ele><time>2026-03-28T12:20:39Z</time></trkpt><trkpt lat="37.86967038609166" lon="15.082977069443656"><ele>617.5999999999999</ele><time>2026-03-28T12:20:40Z</time></trkpt><trkpt lat="37.86971357914433" lon="15.083102652949195"><ele>615.8</ele><time>2026-03-28T12:20:41Z</time></trkpt><trkpt lat="37.869762827781976" lon="15.083204224966632"><ele>614.0</ele><time>2026-03-28T12:20:42Z</time></trkpt><trkpt lat="37.869826510793146" lon="15.083281478836716"><ele>613.8</ele><time>2026-03-28T12:20:43Z</time></trkpt><trkpt lat="37.86989917242569" lon="15.083332423712612"><ele>613.5999999999999</ele><time>2026-03-28T12:20:44Z</time></trkpt><trkpt lat="37.86999526370119" lon="15.083349130491007"><ele>613.4</ele><time>2026-03-28T12:20:45.001Z</time></trkpt><trkpt lat="37.870103657488144" lon="15.083340515132036"><ele>613.1999999999999</ele><time>2026-03-28T12:20:46.001Z</time></trkpt><trkpt lat="37.87022193735938" lon="15.083308520913407"><ele>613.0</ele><time>2026-03-28T12:20:47.001Z</time></trkpt><trkpt lat="37.87035197823925" lon="15.083299176955759"><ele>612.0</ele><time>2026-03-28T12:20:48.001Z</time></trkpt><trkpt lat="37.87048062840778" lon="15.083323027321114"><ele>611.0</ele><time>2026-03-28T12:20:49.001Z</time></trkpt><trkpt lat="37.87061235813249" lon="15.083344236973709"><ele>610.0</ele><time>2026-03-28T12:20:50.001Z</time></trkpt><trkpt lat="37.870747237448" lon="15.083340848154478"><ele>609.0</ele><time>2026-03-28T12:20:51.001Z</time></trkpt><trkpt lat="37.870875973576275" lon="15.083330796679734"><ele>607.75</ele><time>2026-03-28T12:20:52.001Z</time></trkpt><trkpt lat="37.87099898717793" lon="15.08333796321943"><ele>606.5</ele><time>2026-03-28T12:20:53.001Z</time></trkpt><trkpt lat="37.87112410232684" lon="15.083368729099655"><ele>605.25</ele><time>2026-03-28T12:20:54.001Z</time></trkpt><trkpt lat="37.87125837464339" lon="15.08340813202353"><ele>604.0</ele><time>2026-03-28T12:20:55.001Z</time></trkpt><trkpt lat="37.87139981493074" lon="15.083453379013852"><ele>604.0</ele><time>2026-03-28T12:20:56.001Z</time></trkpt><trkpt lat="37.87153460034013" lon="15.08351728474573"><ele>604.0</ele><time>2026-03-28T12:20:57.001Z</time></trkpt><trkpt lat="37.871657477849865" lon="15.083594339309245"><ele>604.0</ele><time>2026-03-28T12:20:58.001Z</time></trkpt><trkpt lat="37.87178076963284" lon="15.08366592367092"><ele>604.0</ele><time>2026-03-28T12:20:59.001Z</time></trkpt><trkpt lat="37.87190889429824" lon="15.083722972513343"><ele>602.75</ele><time>2026-03-28T12:21:00.001Z</time></trkpt><trkpt lat="37.87204179993499" lon="15.083769998411386"><ele>601.5</ele><time>2026-03-28T12:21:01.001Z</time></trkpt><trkpt lat="37.872167756550084" lon="15.083816918255302"><ele>600.25</ele><time>2026-03-28T12:21:02.001Z</time></trkpt><trkpt lat="37.87227240532667" lon="15.083889289218313"><ele>599.0</ele><time>2026-03-28T12:21:03.001Z</time></trkpt><trkpt lat="37.87236284356499" lon="15.083983036379664"><ele>599.0</ele><time>2026-03-28T12:21:04.001Z</time></trkpt><trkpt lat="37.872464077638874" lon="15.084078585421016"><ele>599.0</ele><time>2026-03-28T12:21:05.001Z</time></trkpt><trkpt lat="37.87258533496975" lon="15.084164369051333"><ele>599.0</ele><time>2026-03-28T12:21:06.001Z</time></trkpt><trkpt lat="37.8727206666883" lon="15.084240716463933"><ele>599.0</ele><time>2026-03-28T12:21:07.001Z</time></trkpt><trkpt lat="37.872865013480755" lon="15.084308935861038"><ele>598.5</ele><time>2026-03-28T12:21:08.001Z</time></trkpt><trkpt lat="37.87300181453069" lon="15.08437742230201"><ele>598.0</ele><time>2026-03-28T12:21:09Z</time></trkpt><trkpt lat="37.87313101338012" lon="15.084453892613983"><ele>597.5</ele><time>2026-03-28T12:21:10Z</time></trkpt><trkpt lat="37.87326273195723" lon="15.084543669998858"><ele>597.0</ele><time>2026-03-28T12:21:11Z</time></trkpt><trkpt lat="37.87339615222463" lon="15.08464235513911"><ele>595.5</ele><time>2026-03-28T12:21:12Z</time></trkpt><trkpt lat="37.87352377023569" lon="15.084735280034842"><ele>594.0</ele><time>2026-03-28T12:21:13Z</time></trkpt><trkpt lat="37.873646531653186" lon="15.084825078456662"><ele>592.5</ele><time>2026-03-28T12:21:14Z</time></trkpt><trkpt lat="37.873758380500675" lon="15.08491800938528"><ele>591.0</ele><time>2026-03-28T12:21:15Z</time></trkpt><trkpt lat="37.87385972880394" lon="15.085020763736535"><ele>590.25</ele><time>2026-03-28T12:21:16Z</time></trkpt><trkpt lat="37.873954885854765" lon="15.085138124967923"><ele>589.5</ele><time>2026-03-28T12:21:17Z</time></trkpt><trkpt lat="37.87405093596229" lon="15.085269794335998"><ele>588.75</ele><time>2026-03-28T12:21:18Z</time></trkpt><trkpt lat="37.874152736399" lon="15.08540040754638"><ele>588.0</ele><time>2026-03-28T12:21:19Z</time></trkpt><trkpt lat="37.874259633167526" lon="15.085516118765375"><ele>588.5</ele><time>2026-03-28T12:21:20Z</time></trkpt><trkpt lat="37.874375896308884" lon="15.08561245775957"><ele>589.0</ele><time>2026-03-28T12:21:21Z</time></trkpt><trkpt lat="37.87449340329098" lon="15.085708273925038"><ele>589.5</ele><time>2026-03-28T12:21:22Z</time></trkpt><trkpt lat="37.87460042991019" lon="15.085825965005826"><ele>590.0</ele><time>2026-03-28T12:21:23Z</time></trkpt><trkpt lat="37.87470201500282" lon="15.085959010214474"><ele>588.25</ele><time>2026-03-28T12:21:24Z</time></trkpt><trkpt lat="37.8748062997015" lon="15.086098111838178"><ele>586.5</ele><time>2026-03-28T12:21:25Z</time></trkpt><trkpt lat="37.87490817719831" lon="15.086232396081725"><ele>584.75</ele><time>2026-03-28T12:21:26Z</time></trkpt><trkpt lat="37.87500323516331" lon="15.086362845830044"><ele>583.0</ele><time>2026-03-28T12:21:27Z</time></trkpt><trkpt lat="37.87509401135257" lon="15.086488451851995"><ele>579.75</ele><time>2026-03-28T12:21:28Z</time></trkpt><trkpt lat="37.87518414353008" lon="15.086610693096004"><ele>576.5</ele><time>2026-03-28T12:21:29Z</time></trkpt><trkpt lat="37.875279031822664" lon="15.086724637985037"><ele>573.25</ele><time>2026-03-28T12:21:30Z</time></trkpt><trkpt lat="37.8753835969209" lon="15.086818817659955"><ele>570.0</ele><time>2026-03-28T12:21:31Z</time></trkpt><trkpt lat="37.87549920387524" lon="15.086892359285088"><ele>570.0</ele><time>2026-03-28T12:21:32Z</time></trkpt><trkpt lat="37.875628363699285" lon="15.086951760021599"><ele>570.0</ele><time>2026-03-28T12:21:33Z</time></trkpt><trkpt lat="37.87576712441879" lon="15.08700376647758"><ele>570.0</ele><time>2026-03-28T12:21:34Z</time></trkpt><trkpt lat="37.87590895548948" lon="15.087047577298526"><ele>570.0</ele><time>2026-03-28T12:21:35Z</time></trkpt><trkpt lat="37.876053906178" lon="15.08708116211702"><ele>567.75</ele><time>2026-03-28T12:21:36Z</time></trkpt><trkpt lat="37.87619304168449" lon="15.087103980327441"><ele>565.5</ele><time>2026-03-28T12:21:37Z</time></trkpt><trkpt lat="37.87632807151728" lon="15.087119670297326"><ele>563.25</ele><time>2026-03-28T12:21:38Z</time></trkpt><trkpt lat="37.87646223422222" lon="15.087135066504038"><ele>561.0</ele><time>2026-03-28T12:21:39Z</time></trkpt><trkpt lat="37.87659392621886" lon="15.087157294280598"><ele>561.0</ele><time>2026-03-28T12:21:40Z</time></trkpt><trkpt lat="37.876719250404435" lon="15.087197363299126"><ele>561.0</ele><time>2026-03-28T12:21:41Z</time></trkpt><trkpt lat="37.87684053711257" lon="15.087251048965248"><ele>561.0</ele><time>2026-03-28T12:21:42Z</time></trkpt><trkpt lat="37.87695924040326" lon="15.087309229697095"><ele>561.0</ele><time>2026-03-28T12:21:43Z</time></trkpt><trkpt lat="37.877074356569246" lon="15.087369055338812"><ele>559.0</ele><time>2026-03-28T12:21:44Z</time></trkpt><trkpt lat="37.877192546151036" lon="15.087427898976909"><ele>557.0</ele><time>2026-03-28T12:21:45Z</time></trkpt><trkpt lat="37.87731056605736" lon="15.087490590145187"><ele>555.0</ele><time>2026-03-28T12:21:46Z</time></trkpt><trkpt lat="37.87742626357613" lon="15.08755947662976"><ele>553.0</ele><time>2026-03-28T12:21:47Z</time></trkpt><trkpt lat="37.87754006576615" lon="15.087639078213373"><ele>551.5</ele><time>2026-03-28T12:21:48Z</time></trkpt><trkpt lat="37.87765575297823" lon="15.087719439391254"><ele>550.0</ele><time>2026-03-28T12:21:49Z</time></trkpt><trkpt lat="37.87777531125157" lon="15.087798320114462"><ele>548.5</ele><time>2026-03-28T12:21:50Z</time></trkpt><trkpt lat="37.87789377341053" lon="15.087878308663424"><ele>547.0</ele><time>2026-03-28T12:21:51Z</time></trkpt><trkpt lat="37.878012348871756" lon="15.08795679148349"><ele>547.0</ele><time>2026-03-28T12:21:52Z</time></trkpt><trkpt lat="37.878128378514575" lon="15.088036390749044"><ele>547.0</ele><time>2026-03-28T12:21:53Z</time></trkpt><trkpt lat="37.87823510146932" lon="15.088118990541732"><ele>547.0</ele><time>2026-03-28T12:21:54Z</time></trkpt><trkpt lat="37.87832970679785" lon="15.08820376287952"><ele>547.0</ele><time>2026-03-28T12:21:55Z</time></trkpt><trkpt lat="37.87841586248394" lon="15.088285512876382"><ele>545.6666666666667</ele><time>2026-03-28T12:21:56Z</time></trkpt><trkpt lat="37.87849462862194" lon="15.088354076901632"><ele>544.3333333333334</ele><time>2026-03-28T12:21:57Z</time></trkpt><trkpt lat="37.878558986478154" lon="15.088412943263824"><ele>543.0</ele><time>2026-03-28T12:21:58Z</time></trkpt><trkpt lat="37.878603029706966" lon="15.0884799283082"><ele>541.6666666666666</ele><time>2026-03-28T12:21:59Z</time></trkpt><trkpt lat="37.87862333031566" lon="15.088635558358959"><ele>540.3333333333333</ele><time>2026-03-28T12:22:01Z</time></trkpt><trkpt lat="37.87860303378751" lon="15.088735213375228"><ele>539.0</ele><time>2026-03-28T12:22:02Z</time></trkpt><trkpt lat="37.87857014554223" lon="15.088854523052982"><ele>539.0</ele><time>2026-03-28T12:22:03Z</time></trkpt><trkpt lat="37.878541858879935" lon="15.088972133411358"><ele>539.0</ele><time>2026-03-28T12:22:04Z</time></trkpt><trkpt lat="37.87852054062698" lon="15.0890769162802"><ele>539.0</ele><time>2026-03-28T12:22:05Z</time></trkpt><trkpt lat="37.87850278941263" lon="15.089173239220687"><ele>539.0</ele><time>2026-03-28T12:22:06Z</time></trkpt><trkpt lat="37.87849162691034" lon="15.089263984054307"><ele>539.0</ele><time>2026-03-28T12:22:07Z</time></trkpt><trkpt lat="37.8784972481114" lon="15.089352628423585"><ele>539.0</ele><time>2026-03-28T12:22:08Z</time></trkpt><trkpt lat="37.87852890790453" lon="15.089431069991988"><ele>538.5</ele><time>2026-03-28T12:22:09Z</time></trkpt><trkpt lat="37.8785881353748" lon="15.089489700153521"><ele>538.0</ele><time>2026-03-28T12:22:10Z</time></trkpt><trkpt lat="37.87866539909848" lon="15.089516063591557"><ele>537.5</ele><time>2026-03-28T12:22:11Z</time></trkpt><trkpt lat="37.878752622529866" lon="15.089508906120829"><ele>537.0</ele><time>2026-03-28T12:22:12Z</time></trkpt><trkpt lat="37.87884108835801" lon="15.089466686092097"><ele>536.5</ele><time>2026-03-28T12:22:13Z</time></trkpt><trkpt lat="37.87892567277455" lon="15.089395784789332"><ele>536.0</ele><time>2026-03-28T12:22:14Z</time></trkpt><trkpt lat="37.87901671048214" lon="15.08934123660581"><ele>536.0</ele><time>2026-03-28T12:22:15Z</time></trkpt><trkpt lat="37.87908479497563" lon="15.089286846864617"><ele>536.0</ele><time>2026-03-28T12:22:16Z</time></trkpt><trkpt lat="37.87917406956954" lon="15.08919523026369"><ele>536.0</ele><time>2026-03-28T12:22:18Z</time></trkpt><trkpt lat="37.879239819257485" lon="15.089255286112822"><ele>536.0</ele><time>2026-03-28T12:22:20Z</time></trkpt><trkpt lat="37.87920375739411" lon="15.089392076719358"><ele>536.0</ele><time>2026-03-28T12:22:22Z</time></trkpt><trkpt lat="37.87913875500129" lon="15.089457186640857"><ele>536.0</ele><time>2026-03-28T12:22:23Z</time></trkpt><trkpt lat="37.87906253095177" lon="15.089527537147202"><ele>536.0</ele><time>2026-03-28T12:22:24Z</time></trkpt><trkpt lat="37.87897211740548" lon="15.089601387343066"><ele>536.0</ele><time>2026-03-28T12:22:25Z</time></trkpt><trkpt lat="37.87888045176279" lon="15.08965545015947"><ele>536.0</ele><time>2026-03-28T12:22:26Z</time></trkpt><trkpt lat="37.878794946408455" lon="15.089689190105666"><ele>536.0</ele><time>2026-03-28T12:22:27Z</time></trkpt><trkpt lat="37.878721373719294" lon="15.089715686168002"><ele>536.0</ele><time>2026-03-28T12:22:28Z</time></trkpt><trkpt lat="37.878665866593074" lon="15.089756492534228"><ele>536.0</ele><time>2026-03-28T12:22:29Z</time></trkpt><trkpt lat="37.878650782229485" lon="15.089893256658549"><ele>536.0</ele><time>2026-03-28T12:22:31Z</time></trkpt><trkpt lat="37.87870070234459" lon="15.089964035720625"><ele>536.0</ele><time>2026-03-28T12:22:32Z</time></trkpt><trkpt lat="37.878786882095795" lon="15.090013053125874"><ele>536.0</ele><time>2026-03-28T12:22:33Z</time></trkpt><trkpt lat="37.878889069962916" lon="15.090046288551063"><ele>536.0</ele><time>2026-03-28T12:22:34Z</time></trkpt><trkpt lat="37.8790049549863" lon="15.090076622005395"><ele>533.5</ele><time>2026-03-28T12:22:35Z</time></trkpt><trkpt lat="37.87912774663221" lon="15.09011923030736"><ele>531.0</ele><time>2026-03-28T12:22:36Z</time></trkpt><trkpt lat="37.87924635558233" lon="15.090161704313937"><ele>528.5</ele><time>2026-03-28T12:22:37Z</time></trkpt><trkpt lat="37.87936331466233" lon="15.090180197058599"><ele>526.0</ele><time>2026-03-28T12:22:38Z</time></trkpt><trkpt lat="37.87947905084037" lon="15.090169934632659"><ele>523.25</ele><time>2026-03-28T12:22:39Z</time></trkpt><trkpt lat="37.87958985754351" lon="15.090127563665721"><ele>520.5</ele><time>2026-03-28T12:22:40Z</time></trkpt><trkpt lat="37.87969959870632" lon="15.090075535797316"><ele>517.75</ele><time>2026-03-28T12:22:41Z</time></trkpt><trkpt lat="37.879801674358546" lon="15.090011452443953"><ele>515.0</ele><time>2026-03-28T12:22:42Z</time></trkpt><trkpt lat="37.87989765508871" lon="15.089937330892223"><ele>516.2</ele><time>2026-03-28T12:22:43Z</time></trkpt><trkpt lat="37.879994506739514" lon="15.089869758886636"><ele>517.4</ele><time>2026-03-28T12:22:44Z</time></trkpt><trkpt lat="37.88009672987968" lon="15.089817383622764"><ele>518.6</ele><time>2026-03-28T12:22:45Z</time></trkpt><trkpt lat="37.880203656679086" lon="15.08978474955446"><ele>519.8</ele><time>2026-03-28T12:22:46Z</time></trkpt><trkpt lat="37.880310655223944" lon="15.089769053905876"><ele>521.0</ele><time>2026-03-28T12:22:47Z</time></trkpt><trkpt lat="37.88041200976482" lon="15.089759387269975"><ele>517.8</ele><time>2026-03-28T12:22:48Z</time></trkpt><trkpt lat="37.880508767341446" lon="15.089734224742193"><ele>514.6</ele><time>2026-03-28T12:22:49Z</time></trkpt><trkpt lat="37.88059675760451" lon="15.089680988019971"><ele>511.4</ele><time>2026-03-28T12:22:50Z</time></trkpt><trkpt lat="37.88066342017354" lon="15.089597682348963"><ele>508.2</ele><time>2026-03-28T12:22:51.001Z</time></trkpt><trkpt lat="37.88070645889003" lon="15.08949575004108"><ele>505.0</ele><time>2026-03-28T12:22:52.001Z</time></trkpt><trkpt lat="37.88073054102896" lon="15.089386947083508"><ele>505.0</ele><time>2026-03-28T12:22:53.001Z</time></trkpt><trkpt lat="37.88074237371552" lon="15.08928076577118"><ele>505.0</ele><time>2026-03-28T12:22:54.001Z</time></trkpt><trkpt lat="37.880756972058265" lon="15.089168558348941"><ele>505.0</ele><time>2026-03-28T12:22:55.001Z</time></trkpt><trkpt lat="37.88071954966613" lon="15.089054252798984"><ele>505.0</ele><time>2026-03-28T12:22:56.001Z</time></trkpt><trkpt lat="37.880664719370934" lon="15.088959988241488"><ele>505.0</ele><time>2026-03-28T12:22:57.001Z</time></trkpt><trkpt lat="37.88059186606889" lon="15.088902940705369"><ele>505.0</ele><time>2026-03-28T12:22:58.001Z</time></trkpt><trkpt lat="37.880561434701995" lon="15.088821119653682"><ele>504.99999999999994</ele><time>2026-03-28T12:22:59.001Z</time></trkpt><trkpt lat="37.880563075291086" lon="15.088734346453974"><ele>505.0</ele><time>2026-03-28T12:23:00.001Z</time></trkpt><trkpt lat="37.8805908862756" lon="15.088659261778034"><ele>505.0</ele><time>2026-03-28T12:23:01.001Z</time></trkpt><trkpt lat="37.88063838645923" lon="15.088589734489226"><ele>504.99999999999994</ele><time>2026-03-28T12:23:02.001Z</time></trkpt><trkpt lat="37.88069792509892" lon="15.088511267273619"><ele>505.0</ele><time>2026-03-28T12:23:03.001Z</time></trkpt><trkpt lat="37.88075653470122" lon="15.088436763054082"><ele>505.0</ele><time>2026-03-28T12:23:04.001Z</time></trkpt><trkpt lat="37.88081311658112" lon="15.088378058077938"><ele>505.00000000000006</ele><time>2026-03-28T12:23:05.001Z</time></trkpt><trkpt lat="37.880875792571715" lon="15.088354161038234"><ele>505.0</ele><time>2026-03-28T12:23:06.001Z</time></trkpt><trkpt lat="37.88094106832966" lon="15.08837786167489"><ele>505.0</ele><time>2026-03-28T12:23:07.001Z</time></trkpt><trkpt lat="37.88099518989961" lon="15.088441122296919"><ele>505.0</ele><time>2026-03-28T12:23:08.001Z</time></trkpt><trkpt lat="37.88104891453073" lon="15.08853354566939"><ele>505.00000000000006</ele><time>2026-03-28T12:23:09.001Z</time></trkpt><trkpt lat="37.88111133168319" lon="15.088638634212124"><ele>505.0</ele><time>2026-03-28T12:23:10.001Z</time></trkpt><trkpt lat="37.88117019367716" lon="15.08873655223922"><ele>505.0</ele><time>2026-03-28T12:23:11.001Z</time></trkpt><trkpt lat="37.881225225572" lon="15.088829361228047"><ele>505.0</ele><time>2026-03-28T12:23:12.001Z</time></trkpt><trkpt lat="37.88127958709476" lon="15.088919285409485"><ele>505.0</ele><time>2026-03-28T12:23:13.001Z</time></trkpt><trkpt lat="37.881332646329774" lon="15.08901068242257"><ele>505.0</ele><time>2026-03-28T12:23:14Z</time></trkpt><trkpt lat="37.88138629853446" lon="15.089107845828826"><ele>505.0</ele><time>2026-03-28T12:23:15Z</time></trkpt><trkpt lat="37.88144776045287" lon="15.089202704250646"><ele>503.8</ele><time>2026-03-28T12:23:16Z</time></trkpt><trkpt lat="37.88152606591749" lon="15.089283882714106"><ele>502.6</ele><time>2026-03-28T12:23:17Z</time></trkpt><trkpt lat="37.881626141633376" lon="15.089349622364066"><ele>501.4</ele><time>2026-03-28T12:23:18Z</time></trkpt><trkpt lat="37.881732002986176" lon="15.089390821732149"><ele>500.2</ele><time>2026-03-28T12:23:19Z</time></trkpt><trkpt lat="37.881836390374396" lon="15.08941011145413"><ele>499.0</ele><time>2026-03-28T12:23:20Z</time></trkpt><trkpt lat="37.88193782736833" lon="15.089431924858017"><ele>498.6</ele><time>2026-03-28T12:23:21Z</time></trkpt><trkpt lat="37.88203396784764" lon="15.089458637390674"><ele>498.2</ele><time>2026-03-28T12:23:22Z</time></trkpt><trkpt lat="37.882124489671206" lon="15.089491080510834"><ele>497.80000000000007</ele><time>2026-03-28T12:23:23Z</time></trkpt><trkpt lat="37.88221928194204" lon="15.089504215906004"><ele>497.40000000000003</ele><time>2026-03-28T12:23:24Z</time></trkpt><trkpt lat="37.88230725475744" lon="15.089552289452639"><ele>497.0</ele><time>2026-03-28T12:23:25Z</time></trkpt><trkpt lat="37.88238984792949" lon="15.08958401210753"><ele>497.0</ele><time>2026-03-28T12:23:26Z</time></trkpt><trkpt lat="37.88243218383686" lon="15.089757062252653"><ele>497.00000000000006</ele><time>2026-03-28T12:23:27Z</time></trkpt><trkpt lat="37.88248371917826" lon="15.089853868575725"><ele>497.00000000000006</ele><time>2026-03-28T12:23:28Z</time></trkpt><trkpt lat="37.88252392568543" lon="15.08996848018984"><ele>497.0</ele><time>2026-03-28T12:23:29Z</time></trkpt><trkpt lat="37.88257766766847" lon="15.090091116686473"><ele>497.0</ele><time>2026-03-28T12:23:30Z</time></trkpt><trkpt lat="37.8825771070162" lon="15.09026344005332"><ele>495.25</ele><time>2026-03-28T12:23:31Z</time></trkpt><trkpt lat="37.88259882840129" lon="15.090436913386716"><ele>493.5</ele><time>2026-03-28T12:23:32Z</time></trkpt><trkpt lat="37.882620121818924" lon="15.090619961802743"><ele>491.75</ele><time>2026-03-28T12:23:33Z</time></trkpt><trkpt lat="37.88264109503533" lon="15.090796532497352"><ele>490.0</ele><time>2026-03-28T12:23:34Z</time></trkpt><trkpt lat="37.88266416100414" lon="15.090971697314156"><ele>487.75</ele><time>2026-03-28T12:23:35Z</time></trkpt><trkpt lat="37.88268802267735" lon="15.091144277777712"><ele>485.5</ele><time>2026-03-28T12:23:36Z</time></trkpt><trkpt lat="37.882713737179365" lon="15.091316549873529"><ele>483.25</ele><time>2026-03-28T12:23:37Z</time></trkpt><trkpt lat="37.88274932739918" lon="15.09148583856139"><ele>481.0</ele><time>2026-03-28T12:23:38Z</time></trkpt><trkpt lat="37.88279274572056" lon="15.091650137862413"><ele>479.0</ele><time>2026-03-28T12:23:39Z</time></trkpt><trkpt lat="37.88284338750261" lon="15.091811236195467"><ele>477.0</ele><time>2026-03-28T12:23:40Z</time></trkpt><trkpt lat="37.88290344230075" lon="15.09197163704295"><ele>475.0</ele><time>2026-03-28T12:23:41Z</time></trkpt><trkpt lat="37.88297448175713" lon="15.092130460234397"><ele>473.0</ele><time>2026-03-28T12:23:42Z</time></trkpt><trkpt lat="37.88305209726829" lon="15.092289718317428"><ele>472.0</ele><time>2026-03-28T12:23:43Z</time></trkpt><trkpt lat="37.88313525758829" lon="15.092451727663578"><ele>471.0</ele><time>2026-03-28T12:23:44Z</time></trkpt><trkpt lat="37.883220579757676" lon="15.092617786732765"><ele>470.0</ele><time>2026-03-28T12:23:45Z</time></trkpt><trkpt lat="37.88330407658527" lon="15.092786124343245"><ele>470.0</ele><time>2026-03-28T12:23:46Z</time></trkpt><trkpt lat="37.88338264888855" lon="15.092958764028394"><ele>470.0</ele><time>2026-03-28T12:23:47Z</time></trkpt><trkpt lat="37.88345507563094" lon="15.09314043939163"><ele>470.0</ele><time>2026-03-28T12:23:48Z</time></trkpt><trkpt lat="37.88351208508253" lon="15.093338337897325"><ele>467.66666666666663</ele><time>2026-03-28T12:23:49Z</time></trkpt><trkpt lat="37.88355509491123" lon="15.093537663471457"><ele>465.33333333333337</ele><time>2026-03-28T12:23:50Z</time></trkpt><trkpt lat="37.88360198532009" lon="15.09374106540223"><ele>463.0</ele><time>2026-03-28T12:23:51Z</time></trkpt><trkpt lat="37.88366690496544" lon="15.09393783757486"><ele>461.33333333333337</ele><time>2026-03-28T12:23:52Z</time></trkpt><trkpt lat="37.88374591639433" lon="15.094128788166477"><ele>459.66666666666663</ele><time>2026-03-28T12:23:53Z</time></trkpt><trkpt lat="37.88383135583293" lon="15.094309628568428"><ele>458.0</ele><time>2026-03-28T12:23:54Z</time></trkpt><trkpt lat="37.883908346806" lon="15.094486317451581"><ele>458.0</ele><time>2026-03-28T12:23:55Z</time></trkpt><trkpt lat="37.88396581792594" lon="15.094672108262014"><ele>458.0</ele><time>2026-03-28T12:23:56Z</time></trkpt><trkpt lat="37.88401369406573" lon="15.094867093682655"><ele>458.0</ele><time>2026-03-28T12:23:57Z</time></trkpt><trkpt lat="37.88405753503979" lon="15.095067031136743"><ele>456.0</ele><time>2026-03-28T12:23:58Z</time></trkpt><trkpt lat="37.884108727871784" lon="15.095270120873302"><ele>454.0</ele><time>2026-03-28T12:23:59Z</time></trkpt><trkpt lat="37.884177579729304" lon="15.095472639229389"><ele>452.0</ele><time>2026-03-28T12:24:00Z</time></trkpt><trkpt lat="37.88425406144389" lon="15.095658934759522"><ele>451.3333333333333</ele><time>2026-03-28T12:24:01Z</time></trkpt><trkpt lat="37.88432826633646" lon="15.095839440428065"><ele>450.66666666666663</ele><time>2026-03-28T12:24:02Z</time></trkpt><trkpt lat="37.88439868450217" lon="15.096017485168746"><ele>450.0</ele><time>2026-03-28T12:24:03Z</time></trkpt><trkpt lat="37.88446359303124" lon="15.096196778484941"><ele>450.0</ele><time>2026-03-28T12:24:04Z</time></trkpt><trkpt lat="37.8845225840886" lon="15.096387339507483"><ele>450.0</ele><time>2026-03-28T12:24:05Z</time></trkpt><trkpt lat="37.884572673188295" lon="15.09658849466472"><ele>450.0</ele><time>2026-03-28T12:24:06Z</time></trkpt><trkpt lat="37.88461425910131" lon="15.096801773572766"><ele>449.33333333333337</ele><time>2026-03-28T12:24:07Z</time></trkpt><trkpt lat="37.88465180741471" lon="15.097024762157295"><ele>448.6666666666667</ele><time>2026-03-28T12:24:08Z</time></trkpt><trkpt lat="37.88469024100336" lon="15.097256971391209"><ele>448.0</ele><time>2026-03-28T12:24:09Z</time></trkpt><trkpt lat="37.88472948108077" lon="15.097493135452053"><ele>446.6666666666667</ele><time>2026-03-28T12:24:10Z</time></trkpt><trkpt lat="37.88476974863688" lon="15.097735610978873"><ele>445.33333333333337</ele><time>2026-03-28T12:24:11Z</time></trkpt><trkpt lat="37.88481063957757" lon="15.097977446946679"><ele>444.0</ele><time>2026-03-28T12:24:12Z</time></trkpt><trkpt lat="37.884852971539765" lon="15.098224138180495"><ele>443.66666666666663</ele><time>2026-03-28T12:24:13Z</time></trkpt><trkpt lat="37.8848960548294" lon="15.098474001088713"><ele>443.3333333333333</ele><time>2026-03-28T12:24:14Z</time></trkpt><trkpt lat="37.88494029063954" lon="15.09871591825433"><ele>443.0</ele><time>2026-03-28T12:24:15Z</time></trkpt><trkpt lat="37.88498595460277" lon="15.098949083657697"><ele>442.3333333333333</ele><time>2026-03-28T12:24:16Z</time></trkpt><trkpt lat="37.88503164913772" lon="15.099173125854774"><ele>441.66666666666663</ele><time>2026-03-28T12:24:17Z</time></trkpt><trkpt lat="37.8850788768433" lon="15.09938900627081"><ele>441.0</ele><time>2026-03-28T12:24:18Z</time></trkpt><trkpt lat="37.88512607867704" lon="15.099592941355704"><ele>440.66666666666663</ele><time>2026-03-28T12:24:19Z</time></trkpt><trkpt lat="37.88517489072467" lon="15.099788950706783"><ele>440.3333333333333</ele><time>2026-03-28T12:24:20Z</time></trkpt><trkpt lat="37.88522197412599" lon="15.099975277193911"><ele>440.0</ele><time>2026-03-28T12:24:21Z</time></trkpt><trkpt lat="37.88526188945405" lon="15.100154514947842"><ele>439.5</ele><time>2026-03-28T12:24:22Z</time></trkpt><trkpt lat="37.885292325353355" lon="15.10033005050368"><ele>439.0</ele><time>2026-03-28T12:24:23Z</time></trkpt><trkpt lat="37.885310080007116" lon="15.100511603471242"><ele>438.5</ele><time>2026-03-28T12:24:24Z</time></trkpt><trkpt lat="37.88531666947604" lon="15.100704663529607"><ele>438.0</ele><time>2026-03-28T12:24:25Z</time></trkpt><trkpt lat="37.88531142929024" lon="15.100890826192735"><ele>437.33333333333337</ele><time>2026-03-28T12:24:26Z</time></trkpt><trkpt lat="37.88528685208231" lon="15.101071934609655"><ele>436.6666666666667</ele><time>2026-03-28T12:24:27Z</time></trkpt><trkpt lat="37.88524294895359" lon="15.101256938054751"><ele>436.0</ele><time>2026-03-28T12:24:28Z</time></trkpt><trkpt lat="37.88518600852491" lon="15.101444536479711"><ele>435.33333333333337</ele><time>2026-03-28T12:24:29Z</time></trkpt><trkpt lat="37.88510551432792" lon="15.101621279549414"><ele>434.66666666666663</ele><time>2026-03-28T12:24:30Z</time></trkpt><trkpt lat="37.885013948056276" lon="15.101790475181081"><ele>434.0</ele><time>2026-03-28T12:24:31Z</time></trkpt><trkpt lat="37.884912808155704" lon="15.101953881808397"><ele>434.0</ele><time>2026-03-28T12:24:32Z</time></trkpt><trkpt lat="37.88481064937603" lon="15.102123144960055"><ele>434.0</ele><time>2026-03-28T12:24:33Z</time></trkpt><trkpt lat="37.88471147568813" lon="15.102301469125338"><ele>434.0</ele><time>2026-03-28T12:24:34Z</time></trkpt><trkpt lat="37.88460991175497" lon="15.10247859525269"><ele>432.66666666666663</ele><time>2026-03-28T12:24:35Z</time></trkpt><trkpt lat="37.88451238792104" lon="15.102644527516267"><ele>431.33333333333337</ele><time>2026-03-28T12:24:36Z</time></trkpt><trkpt lat="37.884414909984166" lon="15.10280563215558"><ele>430.0</ele><time>2026-03-28T12:24:37Z</time></trkpt><trkpt lat="37.884318019767555" lon="15.10297080282595"><ele>430.33333333333337</ele><time>2026-03-28T12:24:38Z</time></trkpt><trkpt lat="37.88421943238602" lon="15.103142889163381"><ele>430.66666666666663</ele><time>2026-03-28T12:24:39Z</time></trkpt><trkpt lat="37.88412487421944" lon="15.103323210600163"><ele>431.0</ele><time>2026-03-28T12:24:40Z</time></trkpt><trkpt lat="37.884042252393805" lon="15.103516237683735"><ele>431.0</ele><time>2026-03-28T12:24:41Z</time></trkpt><trkpt lat="37.88396861386662" lon="15.103721186829818"><ele>431.0</ele><time>2026-03-28T12:24:42Z</time></trkpt><trkpt lat="37.883899441722654" lon="15.103933531234096"><ele>431.0</ele><time>2026-03-28T12:24:43Z</time></trkpt><trkpt lat="37.88382813426233" lon="15.10415140454746"><ele>430.0</ele><time>2026-03-28T12:24:44Z</time></trkpt><trkpt lat="37.883755219277816" lon="15.104372371350712"><ele>429.0</ele><time>2026-03-28T12:24:45Z</time></trkpt><trkpt lat="37.883684454396175" lon="15.104597374918493"><ele>428.0</ele><time>2026-03-28T12:24:46Z</time></trkpt><trkpt lat="37.88361451232004" lon="15.104825069224248"><ele>428.0</ele><time>2026-03-28T12:24:47Z</time></trkpt><trkpt lat="37.88354326398072" lon="15.10505785177891"><ele>428.0</ele><time>2026-03-28T12:24:48Z</time></trkpt><trkpt lat="37.8834723291987" lon="15.105288708678481"><ele>428.0</ele><time>2026-03-28T12:24:49Z</time></trkpt><trkpt lat="37.88340134172844" lon="15.105523802915561"><ele>427.0</ele><time>2026-03-28T12:24:50Z</time></trkpt><trkpt lat="37.88332968908727" lon="15.105761077202338"><ele>426.0</ele><time>2026-03-28T12:24:51Z</time></trkpt><trkpt lat="37.88326022878445" lon="15.105999339970175"><ele>425.0</ele><time>2026-03-28T12:24:52Z</time></trkpt><trkpt lat="37.88319175472642" lon="15.106234313903602"><ele>425.0</ele><time>2026-03-28T12:24:53Z</time></trkpt><trkpt lat="37.88312491279963" lon="15.106463788535239"><ele>425.0</ele><time>2026-03-28T12:24:54Z</time></trkpt><trkpt lat="37.8830615635953" lon="15.106690916414733"><ele>425.0</ele><time>2026-03-28T12:24:55Z</time></trkpt><trkpt lat="37.88300127942165" lon="15.106919132479117"><ele>425.0</ele><time>2026-03-28T12:24:56Z</time></trkpt><trkpt lat="37.88294414339787" lon="15.10715072070721"><ele>425.0</ele><time>2026-03-28T12:24:57.001Z</time></trkpt><trkpt lat="37.88288909772972" lon="15.107386280708422"><ele>425.0</ele><time>2026-03-28T12:24:58.001Z</time></trkpt><trkpt lat="37.88283462154627" lon="15.107625600718986"><ele>425.0</ele><time>2026-03-28T12:24:59.001Z</time></trkpt><trkpt lat="37.88278124464126" lon="15.107866813032679"><ele>425.0</ele><time>2026-03-28T12:25:00.001Z</time></trkpt><trkpt lat="37.88272972454564" lon="15.10811196870442"><ele>425.0</ele><time>2026-03-28T12:25:01.001Z</time></trkpt><trkpt lat="37.882677806622446" lon="15.108357352589895"><ele>426.0</ele><time>2026-03-28T12:25:02.001Z</time></trkpt><trkpt lat="37.88262557560087" lon="15.10860259646844"><ele>427.0</ele><time>2026-03-28T12:25:03.001Z</time></trkpt><trkpt lat="37.88257234339565" lon="15.108850608032165"><ele>428.0</ele><time>2026-03-28T12:25:04.001Z</time></trkpt><trkpt lat="37.88252183340261" lon="15.109090973221102"><ele>430.0</ele><time>2026-03-28T12:25:05.001Z</time></trkpt><trkpt lat="37.88247304723709" lon="15.109318226887485"><ele>432.0</ele><time>2026-03-28T12:25:06.001Z</time></trkpt><trkpt lat="37.8824289394395" lon="15.109534785169998"><ele>434.0</ele><time>2026-03-28T12:25:07.001Z</time></trkpt><trkpt lat="37.88239134694436" lon="15.1097466723976"><ele>433.3333333333333</ele><time>2026-03-28T12:25:08.001Z</time></trkpt><trkpt lat="37.882371674939684" lon="15.10995524905811"><ele>432.66666666666663</ele><time>2026-03-28T12:25:09.001Z</time></trkpt><trkpt lat="37.88237160312169" lon="15.110170953531597"><ele>432.0</ele><time>2026-03-28T12:25:10.001Z</time></trkpt><trkpt lat="37.882384759695405" lon="15.110391495251976"><ele>432.0</ele><time>2026-03-28T12:25:11.001Z</time></trkpt><trkpt lat="37.882407589479186" lon="15.110611080400131"><ele>432.0</ele><time>2026-03-28T12:25:12.001Z</time></trkpt><trkpt lat="37.882429777084624" lon="15.110831924739689"><ele>432.0</ele><time>2026-03-28T12:25:13.001Z</time></trkpt><trkpt lat="37.88244634220406" lon="15.11105381629286"><ele>431.66666666666663</ele><time>2026-03-28T12:25:14.001Z</time></trkpt><trkpt lat="37.882457126923704" lon="15.111277795386608"><ele>431.3333333333333</ele><time>2026-03-28T12:25:15.001Z</time></trkpt><trkpt lat="37.88246505111953" lon="15.111503090901136"><ele>431.0</ele><time>2026-03-28T12:25:16.001Z</time></trkpt><trkpt lat="37.882471728105905" lon="15.111729327892201"><ele>431.66666666666663</ele><time>2026-03-28T12:25:17.001Z</time></trkpt><trkpt lat="37.882478999711154" lon="15.111957726113781"><ele>432.33333333333337</ele><time>2026-03-28T12:25:18.001Z</time></trkpt><trkpt lat="37.88248675311859" lon="15.112182952182112"><ele>433.0</ele><time>2026-03-28T12:25:19.001Z</time></trkpt><trkpt lat="37.88249485184138" lon="15.112411707450962"><ele>434.33333333333337</ele><time>2026-03-28T12:25:20Z</time></trkpt><trkpt lat="37.88250227803826" lon="15.112640207062187"><ele>435.66666666666663</ele><time>2026-03-28T12:25:21Z</time></trkpt><trkpt lat="37.88251399028687" lon="15.112862062392653"><ele>437.0</ele><time>2026-03-28T12:25:22Z</time></trkpt><trkpt lat="37.882542414736214" lon="15.113065266651416"><ele>438.66666666666663</ele><time>2026-03-28T12:25:23Z</time></trkpt><trkpt lat="37.88259452335409" lon="15.113246088266486"><ele>440.33333333333337</ele><time>2026-03-28T12:25:24Z</time></trkpt><trkpt lat="37.882664466489295" lon="15.11341633997577"><ele>442.0</ele><time>2026-03-28T12:25:25Z</time></trkpt><trkpt lat="37.882749742750875" lon="15.113568666088597"><ele>441.8</ele><time>2026-03-28T12:25:26Z</time></trkpt><trkpt lat="37.8828364885115" lon="15.113689569753506"><ele>441.6</ele><time>2026-03-28T12:25:27Z</time></trkpt><trkpt lat="37.88290206216014" lon="15.113795695098688"><ele>441.40000000000003</ele><time>2026-03-28T12:25:28Z</time></trkpt><trkpt lat="37.8829264668659" lon="15.113898021785356"><ele>441.20000000000005</ele><time>2026-03-28T12:25:29Z</time></trkpt><trkpt lat="37.88290737770168" lon="15.114036765762014"><ele>441.0</ele><time>2026-03-28T12:25:31Z</time></trkpt><trkpt lat="37.88283964688598" lon="15.1141655491257"><ele>441.0</ele><time>2026-03-28T12:25:33Z</time></trkpt><trkpt lat="37.88281848620532" lon="15.11426551275476"><ele>441.0</ele><time>2026-03-28T12:25:35Z</time></trkpt><trkpt lat="37.882900755504316" lon="15.114425655373461"><ele>441.0</ele><time>2026-03-28T12:25:38Z</time></trkpt><trkpt lat="37.882971192507284" lon="15.114527474895555"><ele>441.0</ele><time>2026-03-28T12:25:40Z</time></trkpt><trkpt lat="37.88298697417938" lon="15.11460977658976"><ele>441.0</ele><time>2026-03-28T12:25:41Z</time></trkpt><trkpt lat="37.88299633462988" lon="15.114717163936362"><ele>441.0</ele><time>2026-03-28T12:25:42Z</time></trkpt><trkpt lat="37.88300505503556" lon="15.114841147970443"><ele>441.0</ele><time>2026-03-28T12:25:43Z</time></trkpt><trkpt lat="37.883017172547156" lon="15.114962051463595"><ele>441.0</ele><time>2026-03-28T12:25:44Z</time></trkpt><trkpt lat="37.88303197512434" lon="15.115078083920011"><ele>441.0</ele><time>2026-03-28T12:25:45Z</time></trkpt><trkpt lat="37.883063201284024" lon="15.11518298780813"><ele>441.0</ele><time>2026-03-28T12:25:46Z</time></trkpt><trkpt lat="37.8831209848381" lon="15.11527434471219"><ele>441.3333333333333</ele><time>2026-03-28T12:25:47Z</time></trkpt><trkpt lat="37.88320060391985" lon="15.115361920469523"><ele>441.66666666666663</ele><time>2026-03-28T12:25:48Z</time></trkpt><trkpt lat="37.88327992707131" lon="15.115445712014163"><ele>442.0</ele><time>2026-03-28T12:25:49Z</time></trkpt><trkpt lat="37.883351195735045" lon="15.115519656844338"><ele>442.3333333333333</ele><time>2026-03-28T12:25:50Z</time></trkpt><trkpt lat="37.883415935698835" lon="15.115571814448149"><ele>442.66666666666663</ele><time>2026-03-28T12:25:51Z</time></trkpt><trkpt lat="37.883484638778825" lon="15.115595319769898"><ele>443.0</ele><time>2026-03-28T12:25:52Z</time></trkpt><trkpt lat="37.883564476222645" lon="15.115584718088787"><ele>441.4</ele><time>2026-03-28T12:25:53Z</time></trkpt><trkpt lat="37.88365332973613" lon="15.115550564737385"><ele>439.79999999999995</ele><time>2026-03-28T12:25:54Z</time></trkpt><trkpt lat="37.88375246219892" lon="15.115509801921077"><ele>438.2</ele><time>2026-03-28T12:25:55Z</time></trkpt><trkpt lat="37.883846381730116" lon="15.115473030029543"><ele>436.6</ele><time>2026-03-28T12:25:56Z</time></trkpt><trkpt lat="37.883927819441006" lon="15.115427113830052"><ele>435.0</ele><time>2026-03-28T12:25:57Z</time></trkpt><trkpt lat="37.88399108942024" lon="15.115357301281094"><ele>435.0</ele><time>2026-03-28T12:25:58Z</time></trkpt><trkpt lat="37.88403029033015" lon="15.115263709239501"><ele>435.0</ele><time>2026-03-28T12:25:59Z</time></trkpt><trkpt lat="37.88406806775535" lon="15.115168266676392"><ele>435.0</ele><time>2026-03-28T12:26:00Z</time></trkpt><trkpt lat="37.8840879740952" lon="15.115076229826752"><ele>435.0</ele><time>2026-03-28T12:26:01Z</time></trkpt><trkpt lat="37.8841029307801" lon="15.1149977329237"><ele>435.0</ele><time>2026-03-28T12:26:02Z</time></trkpt><trkpt lat="37.88421627510239" lon="15.114941816968113"><ele>435.0</ele><time>2026-03-28T12:26:04Z</time></trkpt><trkpt lat="37.88430332342526" lon="15.114956153686313"><ele>434.8</ele><time>2026-03-28T12:26:05Z</time></trkpt><trkpt lat="37.88440297949633" lon="15.114943226060076"><ele>434.6</ele><time>2026-03-28T12:26:06Z</time></trkpt><trkpt lat="37.884500784323215" lon="15.114887250033291"><ele>434.4</ele><time>2026-03-28T12:26:07Z</time></trkpt><trkpt lat="37.88458605872776" lon="15.114816424172638"><ele>434.2</ele><time>2026-03-28T12:26:08Z</time></trkpt><trkpt lat="37.88467330607156" lon="15.114772008679479"><ele>434.0</ele><time>2026-03-28T12:26:09Z</time></trkpt><trkpt lat="37.884768359232005" lon="15.114768484543346"><ele>431.2</ele><time>2026-03-28T12:26:10Z</time></trkpt><trkpt lat="37.88487435855171" lon="15.114799395346905"><ele>428.4</ele><time>2026-03-28T12:26:11Z</time></trkpt><trkpt lat="37.88498623883812" lon="15.114831462485093"><ele>425.6</ele><time>2026-03-28T12:26:12Z</time></trkpt><trkpt lat="37.88507951410464" lon="15.114853378711144"><ele>422.8</ele><time>2026-03-28T12:26:13Z</time></trkpt><trkpt lat="37.8851445870561" lon="15.114886526277905"><ele>420.0</ele><time>2026-03-28T12:26:14Z</time></trkpt><trkpt lat="37.88519041544817" lon="15.114998678110034"><ele>419.5</ele><time>2026-03-28T12:26:16Z</time></trkpt><trkpt lat="37.88518895805759" lon="15.115080902050998"><ele>419.0</ele><time>2026-03-28T12:26:17Z</time></trkpt><trkpt lat="37.885198559292974" lon="15.115171944736241"><ele>418.5</ele><time>2026-03-28T12:26:18Z</time></trkpt><trkpt lat="37.885258322999185" lon="15.115251265569466"><ele>418.0</ele><time>2026-03-28T12:26:19Z</time></trkpt><trkpt lat="37.88534840993696" lon="15.115304294335106"><ele>417.5</ele><time>2026-03-28T12:26:20Z</time></trkpt><trkpt lat="37.88545903303522" lon="15.115337831997529"><ele>417.0</ele><time>2026-03-28T12:26:21Z</time></trkpt><trkpt lat="37.8855746039722" lon="15.115369524570882"><ele>417.0</ele><time>2026-03-28T12:26:22Z</time></trkpt><trkpt lat="37.8856781681719" lon="15.115404217072456"><ele>417.0</ele><time>2026-03-28T12:26:23Z</time></trkpt><trkpt lat="37.88576417036559" lon="15.115434561651362"><ele>417.0</ele><time>2026-03-28T12:26:24Z</time></trkpt><trkpt lat="37.88583843843777" lon="15.115471250091089"><ele>417.0</ele><time>2026-03-28T12:26:25Z</time></trkpt><trkpt lat="37.88589646917657" lon="15.11552871962367"><ele>417.0</ele><time>2026-03-28T12:26:26Z</time></trkpt><trkpt lat="37.885927582715546" lon="15.115607598509182"><ele>417.0</ele><time>2026-03-28T12:26:27Z</time></trkpt><trkpt lat="37.885934708478615" lon="15.115712217980725"><ele>417.0</ele><time>2026-03-28T12:26:28Z</time></trkpt><trkpt lat="37.88593272447939" lon="15.11583455140834"><ele>417.0</ele><time>2026-03-28T12:26:29Z</time></trkpt><trkpt lat="37.885937392953196" lon="15.115973676831027"><ele>417.0</ele><time>2026-03-28T12:26:30Z</time></trkpt><trkpt lat="37.88594599445136" lon="15.116123052801163"><ele>417.0</ele><time>2026-03-28T12:26:31Z</time></trkpt><trkpt lat="37.885967302369785" lon="15.11626169869132"><ele>417.0</ele><time>2026-03-28T12:26:32Z</time></trkpt><trkpt lat="37.8860087583832" lon="15.116394019728226"><ele>417.0</ele><time>2026-03-28T12:26:33Z</time></trkpt><trkpt lat="37.88607053025778" lon="15.116532207986337"><ele>417.0</ele><time>2026-03-28T12:26:34Z</time></trkpt><trkpt lat="37.88614532912118" lon="15.116674998417526"><ele>417.0</ele><time>2026-03-28T12:26:35Z</time></trkpt><trkpt lat="37.88622649723065" lon="15.11682699798411"><ele>417.0</ele><time>2026-03-28T12:26:36Z</time></trkpt><trkpt lat="37.88631136233941" lon="15.116989079429773"><ele>417.0</ele><time>2026-03-28T12:26:37Z</time></trkpt><trkpt lat="37.886391186086556" lon="15.117146245939617"><ele>417.0</ele><time>2026-03-28T12:26:38Z</time></trkpt><trkpt lat="37.88646646240239" lon="15.117299900364054"><ele>417.0</ele><time>2026-03-28T12:26:39Z</time></trkpt><trkpt lat="37.88653959300482" lon="15.117444069797923"><ele>417.0</ele><time>2026-03-28T12:26:40Z</time></trkpt><trkpt lat="37.8866094717995" lon="15.117580351653311"><ele>417.0</ele><time>2026-03-28T12:26:41Z</time></trkpt><trkpt lat="37.88667585648866" lon="15.117713990579707"><ele>417.0</ele><time>2026-03-28T12:26:42Z</time></trkpt><trkpt lat="37.88673962691311" lon="15.11784437416362"><ele>417.0</ele><time>2026-03-28T12:26:43Z</time></trkpt><trkpt lat="37.88680276241252" lon="15.117970272807742"><ele>417.0</ele><time>2026-03-28T12:26:44Z</time></trkpt><trkpt lat="37.88686077728242" lon="15.11808579567453"><ele>415.40000000000003</ele><time>2026-03-28T12:26:45Z</time></trkpt><trkpt lat="37.88692463963116" lon="15.118180007155388"><ele>413.8</ele><time>2026-03-28T12:26:46Z</time></trkpt><trkpt lat="37.887001696474854" lon="15.11824019240653"><ele>412.2</ele><time>2026-03-28T12:26:47Z</time></trkpt><trkpt lat="37.88708469181917" lon="15.118256587385186"><ele>410.6</ele><time>2026-03-28T12:26:48Z</time></trkpt><trkpt lat="37.887173612790164" lon="15.118240546538098"><ele>409.0</ele><time>2026-03-28T12:26:49Z</time></trkpt><trkpt lat="37.887274410601705" lon="15.118192214241885"><ele>408.5</ele><time>2026-03-28T12:26:50Z</time></trkpt><trkpt lat="37.887378310398724" lon="15.118114983768121"><ele>408.0</ele><time>2026-03-28T12:26:51Z</time></trkpt><trkpt lat="37.88748511394586" lon="15.118026523695482"><ele>407.5</ele><time>2026-03-28T12:26:52Z</time></trkpt><trkpt lat="37.88760444973052" lon="15.11793406939566"><ele>407.0</ele><time>2026-03-28T12:26:53Z</time></trkpt><trkpt lat="37.88772981134159" lon="15.117838431062193"><ele>405.0</ele><time>2026-03-28T12:26:54Z</time></trkpt><trkpt lat="37.88786372768157" lon="15.117738562010924"><ele>403.0</ele><time>2026-03-28T12:26:55Z</time></trkpt><trkpt lat="37.88799941841787" lon="15.117637044390861"><ele>401.0</ele><time>2026-03-28T12:26:56Z</time></trkpt><trkpt lat="37.88812778371203" lon="15.117538957576476"><ele>401.0</ele><time>2026-03-28T12:26:57Z</time></trkpt><trkpt lat="37.8882500433259" lon="15.117444827791758"><ele>401.0</ele><time>2026-03-28T12:26:58Z</time></trkpt><trkpt lat="37.88837027918222" lon="15.117346509715569"><ele>401.0</ele><time>2026-03-28T12:26:59Z</time></trkpt><trkpt lat="37.888484500097064" lon="15.117239965053704"><ele>401.0</ele><time>2026-03-28T12:27:00Z</time></trkpt><trkpt lat="37.88859635091057" lon="15.117130297629988"><ele>400.6</ele><time>2026-03-28T12:27:01Z</time></trkpt><trkpt lat="37.88869491825158" lon="15.117032471619645"><ele>400.20000000000005</ele><time>2026-03-28T12:27:02Z</time></trkpt><trkpt lat="37.8887842572747" lon="15.116947407729171"><ele>399.79999999999995</ele><time>2026-03-28T12:27:03.001Z</time></trkpt><trkpt lat="37.88886156231671" lon="15.116877166654211"><ele>399.4</ele><time>2026-03-28T12:27:04.001Z</time></trkpt><trkpt lat="37.88893521979581" lon="15.116807394041526"><ele>399.0</ele><time>2026-03-28T12:27:05.001Z</time></trkpt><trkpt lat="37.88901228076613" lon="15.116735678786876"><ele>399.0</ele><time>2026-03-28T12:27:06.001Z</time></trkpt><trkpt lat="37.8890996031413" lon="15.11666826609787"><ele>399.0</ele><time>2026-03-28T12:27:07.001Z</time></trkpt><trkpt lat="37.88918554080023" lon="15.116624491268718"><ele>399.0</ele><time>2026-03-28T12:27:08.001Z</time></trkpt><trkpt lat="37.88927280162752" lon="15.11660316608619"><ele>399.0</ele><time>2026-03-28T12:27:09.001Z</time></trkpt><trkpt lat="37.88935674262536" lon="15.116603482826815"><ele>399.0</ele><time>2026-03-28T12:27:10.001Z</time></trkpt><trkpt lat="37.88943114190989" lon="15.11663190905509"><ele>399.0</ele><time>2026-03-28T12:27:11.001Z</time></trkpt><trkpt lat="37.889485465638074" lon="15.116688966677641"><ele>399.79999999999995</ele><time>2026-03-28T12:27:12.001Z</time></trkpt><trkpt lat="37.889523468231594" lon="15.116770015133556"><ele>400.59999999999997</ele><time>2026-03-28T12:27:13.001Z</time></trkpt><trkpt lat="37.88955126183649" lon="15.116874179052967"><ele>401.4</ele><time>2026-03-28T12:27:14.001Z</time></trkpt><trkpt lat="37.88956777911788" lon="15.117000883000621"><ele>402.2</ele><time>2026-03-28T12:27:15.001Z</time></trkpt><trkpt lat="37.88957674818175" lon="15.117148312174393"><ele>403.0</ele><time>2026-03-28T12:27:16.001Z</time></trkpt><trkpt lat="37.88959128593118" lon="15.11731068335821"><ele>402.5</ele><time>2026-03-28T12:27:17.001Z</time></trkpt><trkpt lat="37.88960735040944" lon="15.117483627754824"><ele>402.0</ele><time>2026-03-28T12:27:18.001Z</time></trkpt><trkpt lat="37.88961680738382" lon="15.11764786784463"><ele>401.5</ele><time>2026-03-28T12:27:19.001Z</time></trkpt><trkpt lat="37.88962873737311" lon="15.11779033200803"><ele>401.0</ele><time>2026-03-28T12:27:20.001Z</time></trkpt><trkpt lat="37.88965779528341" lon="15.117900159143245"><ele>401.0</ele><time>2026-03-28T12:27:21.001Z</time></trkpt><trkpt lat="37.88971425040069" lon="15.11799693157254"><ele>401.0</ele><time>2026-03-28T12:27:22.001Z</time></trkpt><trkpt lat="37.88978905019223" lon="15.118095281460123"><ele>401.0</ele><time>2026-03-28T12:27:23.001Z</time></trkpt><trkpt lat="37.889869229969484" lon="15.118202736629483"><ele>401.0</ele><time>2026-03-28T12:27:24.001Z</time></trkpt><trkpt lat="37.889949092411165" lon="15.118321923585219"><ele>401.0</ele><time>2026-03-28T12:27:25.001Z</time></trkpt><trkpt lat="37.89002984549533" lon="15.118453574814351"><ele>399.75</ele><time>2026-03-28T12:27:26.001Z</time></trkpt><trkpt lat="37.89010601166057" lon="15.118600633282309"><ele>398.5</ele><time>2026-03-28T12:27:27.001Z</time></trkpt><trkpt lat="37.890182130884554" lon="15.118758780882914"><ele>397.25</ele><time>2026-03-28T12:27:28Z</time></trkpt><trkpt lat="37.89026419756359" lon="15.118924662238568"><ele>396.0</ele><time>2026-03-28T12:27:29Z</time></trkpt><trkpt lat="37.890350410595765" lon="15.119093883777943"><ele>396.0</ele><time>2026-03-28T12:27:30Z</time></trkpt><trkpt lat="37.890444388837764" lon="15.11926430924139"><ele>396.0</ele><time>2026-03-28T12:27:31Z</time></trkpt><trkpt lat="37.89053995987147" lon="15.119426933312683"><ele>396.0</ele><time>2026-03-28T12:27:32Z</time></trkpt><trkpt lat="37.89063649065465" lon="15.119577913765887"><ele>396.0</ele><time>2026-03-28T12:27:33Z</time></trkpt><trkpt lat="37.89073298958706" lon="15.119721392572202"><ele>396.0</ele><time>2026-03-28T12:27:34Z</time></trkpt><trkpt lat="37.89081746941968" lon="15.119860057915647"><ele>396.0</ele><time>2026-03-28T12:27:35Z</time></trkpt><trkpt lat="37.89088779272105" lon="15.120001455385205"><ele>396.0</ele><time>2026-03-28T12:27:36Z</time></trkpt><trkpt lat="37.89094337778913" lon="15.120150630948855"><ele>394.0</ele><time>2026-03-28T12:27:37Z</time></trkpt><trkpt lat="37.89099221074312" lon="15.120298381213503"><ele>392.0</ele><time>2026-03-28T12:27:38Z</time></trkpt><trkpt lat="37.89103503259058" lon="15.120450835162117"><ele>390.0</ele><time>2026-03-28T12:27:39Z</time></trkpt><trkpt lat="37.89107560314899" lon="15.120599385766768"><ele>388.0</ele><time>2026-03-28T12:27:40Z</time></trkpt><trkpt lat="37.89111750963832" lon="15.120751280982601"><ele>386.75</ele><time>2026-03-28T12:27:41Z</time></trkpt><trkpt lat="37.89115993276593" lon="15.120906203960896"><ele>385.5</ele><time>2026-03-28T12:27:42Z</time></trkpt><trkpt lat="37.89120086420559" lon="15.121063477902435"><ele>384.25</ele><time>2026-03-28T12:27:43Z</time></trkpt><trkpt lat="37.8912443830779" lon="15.121222198383824"><ele>383.0</ele><time>2026-03-28T12:27:44Z</time></trkpt><trkpt lat="37.89128986638251" lon="15.12138914645844"><ele>383.0</ele><time>2026-03-28T12:27:45Z</time></trkpt><trkpt lat="37.89133741400479" lon="15.121566789308114"><ele>383.0</ele><time>2026-03-28T12:27:46Z</time></trkpt><trkpt lat="37.891382858285965" lon="15.12175078353768"><ele>383.0</ele><time>2026-03-28T12:27:47Z</time></trkpt><trkpt lat="37.89141743404868" lon="15.121924025665095"><ele>383.0</ele><time>2026-03-28T12:27:48Z</time></trkpt><trkpt lat="37.89144201041498" lon="15.122092566989679"><ele>383.0</ele><time>2026-03-28T12:27:49Z</time></trkpt><trkpt lat="37.89146444581378" lon="15.122264096865116"><ele>383.0</ele><time>2026-03-28T12:27:50Z</time></trkpt><trkpt lat="37.891491344769676" lon="15.122429823209199"><ele>383.0</ele><time>2026-03-28T12:27:51Z</time></trkpt><trkpt lat="37.891534440347314" lon="15.122584405652695"><ele>383.0</ele><time>2026-03-28T12:27:52Z</time></trkpt><trkpt lat="37.891599238604456" lon="15.122728890470682"><ele>383.0</ele><time>2026-03-28T12:27:53Z</time></trkpt><trkpt lat="37.891684790767044" lon="15.122868683844576"><ele>383.0</ele><time>2026-03-28T12:27:54Z</time></trkpt><trkpt lat="37.89177769342546" lon="15.123011721417505"><ele>383.0</ele><time>2026-03-28T12:27:55Z</time></trkpt><trkpt lat="37.891878113254634" lon="15.123168465199443"><ele>383.0</ele><time>2026-03-28T12:27:56Z</time></trkpt><trkpt lat="37.891978829439495" lon="15.123325296355453"><ele>382.0</ele><time>2026-03-28T12:27:57Z</time></trkpt><trkpt lat="37.89207007079843" lon="15.123478697855452"><ele>381.0</ele><time>2026-03-28T12:27:58Z</time></trkpt><trkpt lat="37.89214060572759" lon="15.12363857949589"><ele>380.0</ele><time>2026-03-28T12:27:59Z</time></trkpt><trkpt lat="37.892195237484266" lon="15.123807934538531"><ele>379.0</ele><time>2026-03-28T12:28:00Z</time></trkpt><trkpt lat="37.89224650445139" lon="15.123984180130002"><ele>378.3333333333333</ele><time>2026-03-28T12:28:01Z</time></trkpt><trkpt lat="37.89230625729772" lon="15.124162556964533"><ele>377.6666666666667</ele><time>2026-03-28T12:28:02Z</time></trkpt><trkpt lat="37.892365488011905" lon="15.124339527071168"><ele>377.0</ele><time>2026-03-28T12:28:03Z</time></trkpt><trkpt lat="37.892417314475196" lon="15.124513048295208"><ele>377.0</ele><time>2026-03-28T12:28:04Z</time></trkpt><trkpt lat="37.89246104665725" lon="15.124679725444974"><ele>377.0</ele><time>2026-03-28T12:28:05Z</time></trkpt><trkpt lat="37.89249271704309" lon="15.124844551092027"><ele>377.0</ele><time>2026-03-28T12:28:06Z</time></trkpt><trkpt lat="37.89251006350932" lon="15.12501100929104"><ele>377.0</ele><time>2026-03-28T12:28:07Z</time></trkpt><trkpt lat="37.892523474646346" lon="15.12518797575426"><ele>376.5</ele><time>2026-03-28T12:28:08Z</time></trkpt><trkpt lat="37.89253647274083" lon="15.125350860104852"><ele>376.0</ele><time>2026-03-28T12:28:09Z</time></trkpt><trkpt lat="37.89254970130214" lon="15.12550369431282"><ele>375.5</ele><time>2026-03-28T12:28:10Z</time></trkpt><trkpt lat="37.89256343920038" lon="15.125647748107442"><ele>375.0</ele><time>2026-03-28T12:28:11Z</time></trkpt><trkpt lat="37.89259090788604" lon="15.125775279470218"><ele>375.0</ele><time>2026-03-28T12:28:12Z</time></trkpt><trkpt lat="37.89265209082896" lon="15.125893007647988"><ele>375.0</ele><time>2026-03-28T12:28:13Z</time></trkpt><trkpt lat="37.89273420584861" lon="15.126014405533656"><ele>375.0</ele><time>2026-03-28T12:28:14Z</time></trkpt><trkpt lat="37.892818252984384" lon="15.126148163479112"><ele>375.0</ele><time>2026-03-28T12:28:15Z</time></trkpt><trkpt lat="37.892892340959584" lon="15.126305809753006"><ele>375.0</ele><time>2026-03-28T12:28:16Z</time></trkpt><trkpt lat="37.89295260430221" lon="15.12648401182643"><ele>375.0</ele><time>2026-03-28T12:28:17Z</time></trkpt><trkpt lat="37.89301190205358" lon="15.126667888534929"><ele>375.0</ele><time>2026-03-28T12:28:18Z</time></trkpt><trkpt lat="37.89308957398226" lon="15.126846755090558"><ele>374.5</ele><time>2026-03-28T12:28:19Z</time></trkpt><trkpt lat="37.893173138344864" lon="15.127010575274845"><ele>374.0</ele><time>2026-03-28T12:28:20Z</time></trkpt><trkpt lat="37.893246044880215" lon="15.127168629059158"><ele>373.5</ele><time>2026-03-28T12:28:21Z</time></trkpt><trkpt lat="37.89330112004322" lon="15.127332556567644"><ele>373.0</ele><time>2026-03-28T12:28:22Z</time></trkpt><trkpt lat="37.89334591057917" lon="15.127496320573956"><ele>372.5</ele><time>2026-03-28T12:28:23Z</time></trkpt><trkpt lat="37.89339050642269" lon="15.127662492792568"><ele>372.0</ele><time>2026-03-28T12:28:24Z</time></trkpt><trkpt lat="37.89341984795664" lon="15.127831254918203"><ele>371.5</ele><time>2026-03-28T12:28:25Z</time></trkpt><trkpt lat="37.89343480903499" lon="15.128013403184108"><ele>371.0</ele><time>2026-03-28T12:28:26Z</time></trkpt><trkpt lat="37.89344860556558" lon="15.128204912990977"><ele>373.6666666666667</ele><time>2026-03-28T12:28:27Z</time></trkpt><trkpt lat="37.89346867017686" lon="15.128401638014134"><ele>376.3333333333333</ele><time>2026-03-28T12:28:28Z</time></trkpt><trkpt lat="37.89348906604582" lon="15.12860136844767"><ele>379.0</ele><time>2026-03-28T12:28:29Z</time></trkpt><trkpt lat="37.893508555544315" lon="15.128794832809803"><ele>379.0</ele><time>2026-03-28T12:28:30Z</time></trkpt><trkpt lat="37.89352975831728" lon="15.12897802923206"><ele>379.0</ele><time>2026-03-28T12:28:31Z</time></trkpt><trkpt lat="37.89354968127609" lon="15.129135596615104"><ele>379.0</ele><time>2026-03-28T12:28:32Z</time></trkpt><trkpt lat="37.89356206255717" lon="15.129284203084158"><ele>379.0</ele><time>2026-03-28T12:28:32.999Z</time></trkpt><trkpt lat="37.89355269549676" lon="15.129428771628573"><ele>378.0</ele><time>2026-03-28T12:28:33.999Z</time></trkpt><trkpt lat="37.893518847574136" lon="15.12957601038511"><ele>377.0</ele><time>2026-03-28T12:28:34.999Z</time></trkpt><trkpt lat="37.89347825863013" lon="15.129723320937638"><ele>376.0</ele><time>2026-03-28T12:28:35.999Z</time></trkpt><trkpt lat="37.89344728875323" lon="15.1298532154075"><ele>375.0</ele><time>2026-03-28T12:28:36.999Z</time></trkpt><trkpt lat="37.8934379778052" lon="15.129984990796832"><ele>374.25</ele><time>2026-03-28T12:28:37.999Z</time></trkpt><trkpt lat="37.89345946185753" lon="15.130130013343367"><ele>373.5</ele><time>2026-03-28T12:28:38.999Z</time></trkpt><trkpt lat="37.8935045375935" lon="15.130271539176567"><ele>372.75</ele><time>2026-03-28T12:28:39.999Z</time></trkpt><trkpt lat="37.89355883921282" lon="15.130397440605096"><ele>372.0</ele><time>2026-03-28T12:28:40.999Z</time></trkpt><trkpt lat="37.89360709667452" lon="15.130530400595868"><ele>372.0</ele><time>2026-03-28T12:28:41.999Z</time></trkpt><trkpt lat="37.89363053012852" lon="15.130668522710083"><ele>372.0</ele><time>2026-03-28T12:28:42.999Z</time></trkpt><trkpt lat="37.893636099753266" lon="15.13082055993335"><ele>372.0</ele><time>2026-03-28T12:28:43.999Z</time></trkpt><trkpt lat="37.89364312120213" lon="15.130973520108654"><ele>372.0</ele><time>2026-03-28T12:28:44.999Z</time></trkpt><trkpt lat="37.89365127990654" lon="15.131108839690317"><ele>371.40000000000003</ele><time>2026-03-28T12:28:45.999Z</time></trkpt><trkpt lat="37.893653067543035" lon="15.131243585632049"><ele>370.8</ele><time>2026-03-28T12:28:46.999Z</time></trkpt><trkpt lat="37.89363960824677" lon="15.131384964929559"><ele>370.2</ele><time>2026-03-28T12:28:47.999Z</time></trkpt><trkpt lat="37.893615238175904" lon="15.13151719202969"><ele>369.6</ele><time>2026-03-28T12:28:48.999Z</time></trkpt><trkpt lat="37.893591323310986" lon="15.131643476526012"><ele>369.0</ele><time>2026-03-28T12:28:49.999Z</time></trkpt><trkpt lat="37.8935679647482" lon="15.131769636638388"><ele>368.79999999999995</ele><time>2026-03-28T12:28:50.999Z</time></trkpt><trkpt lat="37.89355162984429" lon="15.131889941762637"><ele>368.59999999999997</ele><time>2026-03-28T12:28:51.999Z</time></trkpt><trkpt lat="37.89355308328812" lon="15.132006691935715"><ele>368.4</ele><time>2026-03-28T12:28:52.999Z</time></trkpt><trkpt lat="37.89357476153038" lon="15.132131194841932"><ele>368.2</ele><time>2026-03-28T12:28:53.999Z</time></trkpt><trkpt lat="37.89361714613316" lon="15.132245972488878"><ele>368.0</ele><time>2026-03-28T12:28:54.999Z</time></trkpt><trkpt lat="37.89367751974465" lon="15.132346183711274"><ele>367.0</ele><time>2026-03-28T12:28:55.999Z</time></trkpt><trkpt lat="37.89374569895047" lon="15.132436866571789"><ele>366.0</ele><time>2026-03-28T12:28:56.999Z</time></trkpt><trkpt lat="37.89380748775599" lon="15.132535237476429"><ele>365.0</ele><time>2026-03-28T12:28:57.999Z</time></trkpt><trkpt lat="37.89384917769988" lon="15.132648282061197"><ele>364.0</ele><time>2026-03-28T12:28:58.999Z</time></trkpt><trkpt lat="37.89389055223483" lon="15.132762531278797"><ele>363.0</ele><time>2026-03-28T12:28:59.999Z</time></trkpt><trkpt lat="37.893953234263066" lon="15.132863313363677"><ele>363.0</ele><time>2026-03-28T12:29:00.999Z</time></trkpt><trkpt lat="37.8940374402205" lon="15.132953298388754"><ele>363.0</ele><time>2026-03-28T12:29:01.999Z</time></trkpt><trkpt lat="37.894138589362434" lon="15.133030310526516"><ele>363.0</ele><time>2026-03-28T12:29:02.999Z</time></trkpt><trkpt lat="37.89424788329613" lon="15.133102008808901"><ele>363.0</ele><time>2026-03-28T12:29:03.999Z</time></trkpt><trkpt lat="37.89435273643077" lon="15.133174282303257"><ele>361.0</ele><time>2026-03-28T12:29:04.999Z</time></trkpt><trkpt lat="37.894456091574426" lon="15.133251001262613"><ele>359.0</ele><time>2026-03-28T12:29:05.999Z</time></trkpt><trkpt lat="37.89456105645396" lon="15.133332061197939"><ele>357.0</ele><time>2026-03-28T12:29:06.999Z</time></trkpt><trkpt lat="37.89466690934893" lon="15.133424496844258"><ele>355.0</ele><time>2026-03-28T12:29:07.999Z</time></trkpt><trkpt lat="37.8947758524456" lon="15.133527792346152"><ele>355.0</ele><time>2026-03-28T12:29:09Z</time></trkpt><trkpt lat="37.89488609678528" lon="15.133627763961865"><ele>355.0</ele><time>2026-03-28T12:29:10Z</time></trkpt><trkpt lat="37.89499388097073" lon="15.13372791216012"><ele>355.0</ele><time>2026-03-28T12:29:11Z</time></trkpt><trkpt lat="37.89510103069153" lon="15.133825025869951"><ele>355.0</ele><time>2026-03-28T12:29:12Z</time></trkpt><trkpt lat="37.895206781514624" lon="15.13391528918835"><ele>355.6</ele><time>2026-03-28T12:29:13Z</time></trkpt><trkpt lat="37.89530015735" lon="15.133995196418212"><ele>356.2</ele><time>2026-03-28T12:29:14Z</time></trkpt><trkpt lat="37.89538225014921" lon="15.134067268385087"><ele>356.79999999999995</ele><time>2026-03-28T12:29:15Z</time></trkpt><trkpt lat="37.89544796025469" lon="15.134138631489055"><ele>357.4</ele><time>2026-03-28T12:29:16Z</time></trkpt><trkpt lat="37.89549849691878" lon="15.13422731449951"><ele>358.0</ele><time>2026-03-28T12:29:17Z</time></trkpt><trkpt lat="37.89552890721153" lon="15.134333368955232"><ele>356.0</ele><time>2026-03-28T12:29:18Z</time></trkpt><trkpt lat="37.89554221291733" lon="15.134438449783984"><ele>354.0</ele><time>2026-03-28T12:29:19Z</time></trkpt><trkpt lat="37.89556508699316" lon="15.134528677410167"><ele>352.0</ele><time>2026-03-28T12:29:20Z</time></trkpt><trkpt lat="37.89562202967252" lon="15.13460858304914"><ele>350.0</ele><time>2026-03-28T12:29:21Z</time></trkpt><trkpt lat="37.89569596135091" lon="15.134680379299727"><ele>348.0</ele><time>2026-03-28T12:29:22Z</time></trkpt><trkpt lat="37.89579171133427" lon="15.13474233978386"><ele>346.0</ele><time>2026-03-28T12:29:23Z</time></trkpt><trkpt lat="37.8959003559073" lon="15.134800668276096"><ele>345.75</ele><time>2026-03-28T12:29:24Z</time></trkpt><trkpt lat="37.896022652156866" lon="15.134862836479414"><ele>345.5</ele><time>2026-03-28T12:29:25Z</time></trkpt><trkpt lat="37.896149781932046" lon="15.13493051611572"><ele>345.25</ele><time>2026-03-28T12:29:26Z</time></trkpt><trkpt lat="37.89627331363385" lon="15.134996590327182"><ele>345.0</ele><time>2026-03-28T12:29:27Z</time></trkpt><trkpt lat="37.89638419646246" lon="15.135052877087077"><ele>345.0</ele><time>2026-03-28T12:29:28Z</time></trkpt><trkpt lat="37.896484887714315" lon="15.135110836747605"><ele>345.0</ele><time>2026-03-28T12:29:29Z</time></trkpt><trkpt lat="37.89657651308556" lon="15.135171413710022"><ele>345.0</ele><time>2026-03-28T12:29:30Z</time></trkpt><trkpt lat="37.896657423462514" lon="15.13524234231014"><ele>345.0</ele><time>2026-03-28T12:29:31Z</time></trkpt><trkpt lat="37.89673564688671" lon="15.135323078410885"><ele>345.0</ele><time>2026-03-28T12:29:32Z</time></trkpt><trkpt lat="37.89681636616667" lon="15.135387986699268"><ele>345.2</ele><time>2026-03-28T12:29:33Z</time></trkpt><trkpt lat="37.89690184963418" lon="15.135429866628046"><ele>345.4</ele><time>2026-03-28T12:29:34Z</time></trkpt><trkpt lat="37.896988269505485" lon="15.135449467398278"><ele>345.6</ele><time>2026-03-28T12:29:35Z</time></trkpt><trkpt lat="37.897091016323884" lon="15.135454143432808"><ele>345.8</ele><time>2026-03-28T12:29:36Z</time></trkpt><trkpt lat="37.89719582600278" lon="15.13545969281036"><ele>346.0</ele><time>2026-03-28T12:29:37Z</time></trkpt><trkpt lat="37.89730231673208" lon="15.135473437794493"><ele>346.0</ele><time>2026-03-28T12:29:37.999Z</time></trkpt><trkpt lat="37.8974095339523" lon="15.13549157996686"><ele>346.0</ele><time>2026-03-28T12:29:38.999Z</time></trkpt><trkpt lat="37.89751048334805" lon="15.135504084529899"><ele>346.0</ele><time>2026-03-28T12:29:39.999Z</time></trkpt><trkpt lat="37.89759223730858" lon="15.135512391657391"><ele>346.0</ele><time>2026-03-28T12:29:40.999Z</time></trkpt><trkpt lat="37.89766311950566" lon="15.135517742997095"><ele>346.0</ele><time>2026-03-28T12:29:41.999Z</time></trkpt><trkpt lat="37.897778543215175" lon="15.135528182634651"><ele>345.4</ele><time>2026-03-28T12:29:43.999Z</time></trkpt><trkpt lat="37.897889005269484" lon="15.135536791934728"><ele>344.8</ele><time>2026-03-28T12:29:45.999Z</time></trkpt><trkpt lat="37.897952792163224" lon="15.135541914929531"><ele>344.2</ele><time>2026-03-28T12:29:46.999Z</time></trkpt><trkpt lat="37.89806741848238" lon="15.13555615150717"><ele>343.59999999999997</ele><time>2026-03-28T12:29:48.999Z</time></trkpt><trkpt lat="37.89817540717426" lon="15.135564695831786"><ele>343.0</ele><time>2026-03-28T12:29:50.999Z</time></trkpt><trkpt lat="37.89829220116991" lon="15.135578545376303"><ele>343.0</ele><time>2026-03-28T12:29:52.999Z</time></trkpt><trkpt lat="37.89839410580576" lon="15.135589969656708"><ele>343.0</ele><time>2026-03-28T12:29:54.999Z</time></trkpt><trkpt lat="37.89848515821368" lon="15.135600638328953"><ele>343.0</ele><time>2026-03-28T12:29:56.999Z</time></trkpt><trkpt lat="37.898544590375955" lon="15.135629359801264"><ele>343.0</ele><time>2026-03-28T12:29:57.999Z</time></trkpt><trkpt lat="37.898617364898215" lon="15.135648055650543"><ele>343.0</ele><time>2026-03-28T12:29:58.999Z</time></trkpt><trkpt lat="37.89870433312971" lon="15.135660389129413"><ele>343.0</ele><time>2026-03-28T12:29:59.999Z</time></trkpt><trkpt lat="37.89879670667904" lon="15.135669874991684"><ele>342.59999999999997</ele><time>2026-03-28T12:30:00.999Z</time></trkpt><trkpt lat="37.89888857989512" lon="15.135679354720773"><ele>342.2</ele><time>2026-03-28T12:30:01.999Z</time></trkpt><trkpt lat="37.89898049312687" lon="15.135689441509"><ele>341.8</ele><time>2026-03-28T12:30:02.999Z</time></trkpt><trkpt lat="37.89907383255662" lon="15.135699757159944"><ele>341.4</ele><time>2026-03-28T12:30:03.999Z</time></trkpt><trkpt lat="37.899169201528906" lon="15.13571038674784"><ele>341.0</ele><time>2026-03-28T12:30:04.999Z</time></trkpt><trkpt lat="37.899267245604584" lon="15.135721541004829"><ele>340.4</ele><time>2026-03-28T12:30:05.999Z</time></trkpt><trkpt lat="37.89936705529946" lon="15.135732896141333"><ele>339.8</ele><time>2026-03-28T12:30:06.999Z</time></trkpt><trkpt lat="37.89946806418623" lon="15.135745942937493"><ele>339.2</ele><time>2026-03-28T12:30:07.999Z</time></trkpt><trkpt lat="37.899572377967544" lon="15.13576022065018"><ele>338.59999999999997</ele><time>2026-03-28T12:30:08.999Z</time></trkpt><trkpt lat="37.899678720892474" lon="15.135772971709235"><ele>338.0</ele><time>2026-03-28T12:30:09.999Z</time></trkpt><trkpt lat="37.89978400257366" lon="15.135784767292904"><ele>338.0</ele><time>2026-03-28T12:30:10.999Z</time></trkpt><trkpt lat="37.899892248645706" lon="15.135776679271629"><ele>338.0</ele><time>2026-03-28T12:30:11.999Z</time></trkpt><trkpt lat="37.89999927227476" lon="15.135792940188196"><ele>338.0</ele><time>2026-03-28T12:30:12.999Z</time></trkpt><trkpt lat="37.90010820695913" lon="15.135803647646227"><ele>338.0</ele><time>2026-03-28T12:30:13.999Z</time></trkpt><trkpt lat="37.90021976017525" lon="15.135818924061338"><ele>338.0</ele><time>2026-03-28T12:30:14.999Z</time></trkpt><trkpt lat="37.900332725358005" lon="15.135832755574196"><ele>337.79999999999995</ele><time>2026-03-28T12:30:15.999Z</time></trkpt><trkpt lat="37.90044715003304" lon="15.135846367171386"><ele>337.6</ele><time>2026-03-28T12:30:16.999Z</time></trkpt><trkpt lat="37.90056210119057" lon="15.135860003041062"><ele>337.4</ele><time>2026-03-28T12:30:17.999Z</time></trkpt><trkpt lat="37.90067185159663" lon="15.135873014974008"><ele>337.20000000000005</ele><time>2026-03-28T12:30:18.999Z</time></trkpt><trkpt lat="37.90077550477524" lon="15.135882061127782"><ele>337.0</ele><time>2026-03-28T12:30:19.999Z</time></trkpt><trkpt lat="37.90086559040929" lon="15.135890563247425"><ele>336.5</ele><time>2026-03-28T12:30:20.999Z</time></trkpt><trkpt lat="37.90094604322075" lon="15.135898282115551"><ele>336.0</ele><time>2026-03-28T12:30:21.999Z</time></trkpt><trkpt lat="37.90102472478294" lon="15.135905586327526"><ele>335.5</ele><time>2026-03-28T12:30:22.999Z</time></trkpt><trkpt lat="37.901097798015904" lon="15.135929634059604"><ele>335.0</ele><time>2026-03-28T12:30:23.999Z</time></trkpt><trkpt lat="37.901166723488146" lon="15.135933648400735"><ele>334.5</ele><time>2026-03-28T12:30:24.999Z</time></trkpt><trkpt lat="37.90127005710536" lon="15.1359315824864"><ele>334.0</ele><time>2026-03-28T12:30:26.999Z</time></trkpt><trkpt lat="37.90135266967326" lon="15.135925559105061"><ele>334.0</ele><time>2026-03-28T12:30:29.999Z</time></trkpt><trkpt lat="37.90143256341459" lon="15.13591709415083"><ele>334.0</ele><time>2026-03-28T12:30:32.999Z</time></trkpt><trkpt lat="37.90147776212679" lon="15.135788720352675"><ele>334.0</ele><time>2026-03-28T12:30:33.999Z</time></trkpt><trkpt lat="37.90148612333636" lon="15.135658990658971"><ele>334.0</ele><time>2026-03-28T12:30:35.999Z</time></trkpt><trkpt lat="37.90149614662384" lon="15.135558668398986"><ele>334.0</ele><time>2026-03-28T12:30:37.999Z</time></trkpt><trkpt lat="37.90150355036932" lon="15.135478974850264"><ele>334.0</ele><time>2026-03-28T12:30:39.999Z</time></trkpt><trkpt lat="37.9015136985958" lon="15.135369739542377"><ele>333.0</ele><time>2026-03-28T12:30:42.999Z</time></trkpt><trkpt lat="37.90152247421251" lon="15.135283996395534"><ele>333.0</ele><time>2026-03-28T12:31:28Z</time></trkpt><trkpt lat="37.90153092824804" lon="15.135199073304662"><ele>333.0</ele><time>2026-03-28T12:31:52.999Z</time></trkpt><trkpt lat="37.9015389546841" lon="15.135118445167056"><ele>333.0</ele><time>2026-03-28T12:31:55.999Z</time></trkpt><trkpt lat="37.90149138609728" lon="15.135009262236778"><ele>333.0</ele><time>2026-03-28T12:31:58.999Z</time></trkpt><trkpt lat="37.9014608711284" lon="15.134932836041509"><ele>333.0</ele><time>2026-03-28T12:32:42.999Z</time></trkpt></trkseg><trkseg><trkpt lat="37.90148328114071" lon="15.134785248605516"><ele>334.0</ele><time>2026-03-28T14:38:14.035Z</time></trkpt><trkpt lat="37.9014837069835" lon="15.134868981551142"><ele>334.0</ele><time>2026-03-28T14:38:15.035Z</time></trkpt><trkpt lat="37.901474898730626" lon="15.134950161848952"><ele>334.0</ele><time>2026-03-28T14:48:10Z</time></trkpt><trkpt lat="37.90148825391713" lon="15.135033871862253"><ele>334.0</ele><time>2026-03-28T14:48:13Z</time></trkpt><trkpt lat="37.90148695371359" lon="15.135132966549586"><ele>334.0</ele><time>2026-03-28T14:48:16Z</time></trkpt><trkpt lat="37.90148836372031" lon="15.135232069604251"><ele>334.0</ele><time>2026-03-28T14:48:20Z</time></trkpt><trkpt lat="37.90151355599109" lon="15.135308170157032"><ele>334.0</ele><time>2026-03-28T14:48:22.999Z</time></trkpt><trkpt lat="37.901505767336914" lon="15.135399055636364"><ele>334.0</ele><time>2026-03-28T14:50:33.999Z</time></trkpt><trkpt lat="37.90147609666491" lon="15.135525382435082"><ele>334.0</ele><time>2026-03-28T14:50:36.999Z</time></trkpt><trkpt lat="37.90147639392553" lon="15.13566523922298"><ele>334.0</ele><time>2026-03-28T14:50:38.999Z</time></trkpt><trkpt lat="37.90147240669155" lon="15.135800790331569"><ele>334.0</ele><time>2026-03-28T14:50:40.999Z</time></trkpt><trkpt lat="37.901466889621" lon="15.13590859536091"><ele>334.0</ele><time>2026-03-28T14:50:42.999Z</time></trkpt><trkpt lat="37.90145729727929" lon="15.136055898132605"><ele>334.0</ele><time>2026-03-28T14:50:44.999Z</time></trkpt><trkpt lat="37.901461943893125" lon="15.13614496456047"><ele>334.0</ele><time>2026-03-28T14:50:45.999Z</time></trkpt><trkpt lat="37.90147919045229" lon="15.136244901579474"><ele>334.0</ele><time>2026-03-28T14:50:46.999Z</time></trkpt><trkpt lat="37.90150665714263" lon="15.136360385855287"><ele>334.0</ele><time>2026-03-28T14:50:47.999Z</time></trkpt><trkpt lat="37.9015451300838" lon="15.136475805944016"><ele>334.0</ele><time>2026-03-28T14:50:48.999Z</time></trkpt><trkpt lat="37.90159070364696" lon="15.136585217506083"><ele>334.0</ele><time>2026-03-28T14:50:49.999Z</time></trkpt><trkpt lat="37.901641199370964" lon="15.136694561462036"><ele>333.0</ele><time>2026-03-28T14:50:50.999Z</time></trkpt><trkpt lat="37.901681611521255" lon="15.136800507146527"><ele>332.0</ele><time>2026-03-28T14:50:51.999Z</time></trkpt><trkpt lat="37.90171138252439" lon="15.136906767629645"><ele>331.0</ele><time>2026-03-28T14:50:52.999Z</time></trkpt><trkpt lat="37.9016992136622" lon="15.137018410265142"><ele>330.0</ele><time>2026-03-28T14:50:53.999Z</time></trkpt><trkpt lat="37.90168641645801" lon="15.137128158201294"><ele>329.0</ele><time>2026-03-28T14:50:54.999Z</time></trkpt><trkpt lat="37.9016587556746" lon="15.137240950610682"><ele>329.0</ele><time>2026-03-28T14:50:55.999Z</time></trkpt><trkpt lat="37.901602041077744" lon="15.137338298979897"><ele>329.0</ele><time>2026-03-28T14:50:56.999Z</time></trkpt><trkpt lat="37.901518480713335" lon="15.137426062889517"><ele>329.0</ele><time>2026-03-28T14:50:57.999Z</time></trkpt><trkpt lat="37.90142598022877" lon="15.137521041176857"><ele>329.0</ele><time>2026-03-28T14:50:58.999Z</time></trkpt><trkpt lat="37.90134461660577" lon="15.137634631765756"><ele>329.0</ele><time>2026-03-28T14:50:59.999Z</time></trkpt><trkpt lat="37.901277432789314" lon="15.137759298085363"><ele>326.75</ele><time>2026-03-28T14:51:00.999Z</time></trkpt><trkpt lat="37.90123778214222" lon="15.137924061093592"><ele>324.5</ele><time>2026-03-28T14:51:01.999Z</time></trkpt><trkpt lat="37.90122209637485" lon="15.13808999261329"><ele>322.25</ele><time>2026-03-28T14:51:02.999Z</time></trkpt><trkpt lat="37.90120497138402" lon="15.138260920334652"><ele>320.0</ele><time>2026-03-28T14:51:03.999Z</time></trkpt><trkpt lat="37.901179479803325" lon="15.138439791927153"><ele>319.0</ele><time>2026-03-28T14:51:04.999Z</time></trkpt><trkpt lat="37.90115483774549" lon="15.138612516523379"><ele>318.0</ele><time>2026-03-28T14:51:05.999Z</time></trkpt><trkpt lat="37.90113465042733" lon="15.138778590994306"><ele>317.0</ele><time>2026-03-28T14:51:06.999Z</time></trkpt><trkpt lat="37.90110805734115" lon="15.13893944404011"><ele>316.0</ele><time>2026-03-28T14:51:07.999Z</time></trkpt><trkpt lat="37.90108258001007" lon="15.139098577100523"><ele>314.75</ele><time>2026-03-28T14:51:08.999Z</time></trkpt><trkpt lat="37.9010592468403" lon="15.139253018283158"><ele>313.5</ele><time>2026-03-28T14:51:09.999Z</time></trkpt><trkpt lat="37.90103566861782" lon="15.139405855925038"><ele>312.25</ele><time>2026-03-28T14:51:11Z</time></trkpt><trkpt lat="37.901025198355164" lon="15.139558063107991"><ele>311.0</ele><time>2026-03-28T14:51:12Z</time></trkpt><trkpt lat="37.90104306835742" lon="15.139712053320473"><ele>311.0</ele><time>2026-03-28T14:51:13Z</time></trkpt><trkpt lat="37.90107907409267" lon="15.139864073866743"><ele>311.0</ele><time>2026-03-28T14:51:14Z</time></trkpt><trkpt lat="37.901135307387015" lon="15.140010066995787"><ele>311.0</ele><time>2026-03-28T14:51:15Z</time></trkpt><trkpt lat="37.90120065944984" lon="15.14015487114801"><ele>311.0</ele><time>2026-03-28T14:51:16Z</time></trkpt><trkpt lat="37.90127352241065" lon="15.140296041997013"><ele>309.5</ele><time>2026-03-28T14:51:17Z</time></trkpt><trkpt lat="37.90134790859954" lon="15.140438048846985"><ele>308.0</ele><time>2026-03-28T14:51:18Z</time></trkpt><trkpt lat="37.90141925335704" lon="15.14059176726455"><ele>306.5</ele><time>2026-03-28T14:51:19Z</time></trkpt><trkpt lat="37.90149090275088" lon="15.140745299031142"><ele>305.0</ele><time>2026-03-28T14:51:20Z</time></trkpt><trkpt lat="37.901569376735516" lon="15.140902405036249"><ele>304.75</ele><time>2026-03-28T14:51:21Z</time></trkpt><trkpt lat="37.90164612822197" lon="15.14105881052553"><ele>304.5</ele><time>2026-03-28T14:51:22Z</time></trkpt><trkpt lat="37.90172142601352" lon="15.141214196924212"><ele>304.25</ele><time>2026-03-28T14:51:23Z</time></trkpt><trkpt lat="37.901795869097576" lon="15.141367009787452"><ele>304.0</ele><time>2026-03-28T14:51:24Z</time></trkpt><trkpt lat="37.90186648402451" lon="15.141516927078586"><ele>303.75</ele><time>2026-03-28T14:51:25Z</time></trkpt><trkpt lat="37.901933632612625" lon="15.141659806148509"><ele>303.5</ele><time>2026-03-28T14:51:26Z</time></trkpt><trkpt lat="37.90199965848769" lon="15.141796878949618"><ele>303.25</ele><time>2026-03-28T14:51:27Z</time></trkpt><trkpt lat="37.90206491908823" lon="15.14192969300753"><ele>303.0</ele><time>2026-03-28T14:51:28Z</time></trkpt><trkpt lat="37.9021287409148" lon="15.14205602920251"><ele>303.0</ele><time>2026-03-28T14:51:29Z</time></trkpt><trkpt lat="37.90218665691658" lon="15.142174710795759"><ele>303.0</ele><time>2026-03-28T14:51:30Z</time></trkpt><trkpt lat="37.90223426845292" lon="15.142273286850612"><ele>303.0</ele><time>2026-03-28T14:51:31Z</time></trkpt><trkpt lat="37.9022708260018" lon="15.142351525360725"><ele>303.0</ele><time>2026-03-28T14:51:32Z</time></trkpt><trkpt lat="37.902304702211524" lon="15.142472603087638"><ele>303.0</ele><time>2026-03-28T14:51:34Z</time></trkpt><trkpt lat="37.90218577401088" lon="15.142617972245963"><ele>300.75</ele><time>2026-03-28T14:51:37Z</time></trkpt><trkpt lat="37.902102376471994" lon="15.142672280075995"><ele>298.5</ele><time>2026-03-28T14:51:38Z</time></trkpt><trkpt lat="37.90200806596306" lon="15.14274367475832"><ele>296.25</ele><time>2026-03-28T14:51:39Z</time></trkpt><trkpt lat="37.90190430087799" lon="15.142827404915225"><ele>294.0</ele><time>2026-03-28T14:51:40Z</time></trkpt><trkpt lat="37.90179272637822" lon="15.142916835884611"><ele>294.5</ele><time>2026-03-28T14:51:41Z</time></trkpt><trkpt lat="37.90167193344478" lon="15.143012176629822"><ele>295.0</ele><time>2026-03-28T14:51:42Z</time></trkpt><trkpt lat="37.901546866291206" lon="15.143113328812383"><ele>295.5</ele><time>2026-03-28T14:51:43Z</time></trkpt><trkpt lat="37.9014140470875" lon="15.14321464923787"><ele>296.0</ele><time>2026-03-28T14:51:44Z</time></trkpt><trkpt lat="37.901276717005395" lon="15.143325993991908"><ele>293.6666666666667</ele><time>2026-03-28T14:51:45Z</time></trkpt><trkpt lat="37.90113503124633" lon="15.143441472074574"><ele>291.3333333333333</ele><time>2026-03-28T14:51:46Z</time></trkpt><trkpt lat="37.900987796299205" lon="15.14355779109751"><ele>289.0</ele><time>2026-03-28T14:51:47Z</time></trkpt><trkpt lat="37.90083313475014" lon="15.143682461139598"><ele>289.0</ele><time>2026-03-28T14:51:48Z</time></trkpt><trkpt lat="37.9006825954585" lon="15.143801801257496"><ele>289.0</ele><time>2026-03-28T14:51:49Z</time></trkpt><trkpt lat="37.90053837619819" lon="15.143915596182415"><ele>289.0</ele><time>2026-03-28T14:51:50Z</time></trkpt><trkpt lat="37.9003975726549" lon="15.14402964412904"><ele>287.3333333333333</ele><time>2026-03-28T14:51:51Z</time></trkpt><trkpt lat="37.900269508287614" lon="15.144134575686655"><ele>285.6666666666667</ele><time>2026-03-28T14:51:52Z</time></trkpt><trkpt lat="37.90013498338352" lon="15.144237743627771"><ele>284.0</ele><time>2026-03-28T14:51:53Z</time></trkpt><trkpt lat="37.90000215596711" lon="15.144341286683318"><ele>284.0</ele><time>2026-03-28T14:51:54Z</time></trkpt><trkpt lat="37.899874942950994" lon="15.144441685995574"><ele>284.0</ele><time>2026-03-28T14:51:55Z</time></trkpt><trkpt lat="37.89974916141199" lon="15.144546668261892"><ele>284.0</ele><time>2026-03-28T14:51:56Z</time></trkpt><trkpt lat="37.899624578055786" lon="15.144655884598055"><ele>284.0</ele><time>2026-03-28T14:51:57Z</time></trkpt><trkpt lat="37.89951260004282" lon="15.144777570222052"><ele>284.0</ele><time>2026-03-28T14:51:58Z</time></trkpt><trkpt lat="37.89940647529492" lon="15.144915394126306"><ele>284.0</ele><time>2026-03-28T14:51:59Z</time></trkpt><trkpt lat="37.89930770832815" lon="15.145070195656295"><ele>283.33333333333337</ele><time>2026-03-28T14:52:00Z</time></trkpt><trkpt lat="37.899218676493476" lon="15.14523665016304"><ele>282.6666666666667</ele><time>2026-03-28T14:52:01Z</time></trkpt><trkpt lat="37.89913591105024" lon="15.145413830539972"><ele>282.0</ele><time>2026-03-28T14:52:02Z</time></trkpt><trkpt lat="37.89906585872108" lon="15.145599372646414"><ele>281.3333333333333</ele><time>2026-03-28T14:52:03Z</time></trkpt><trkpt lat="37.89899935073597" lon="15.145795100127698"><ele>280.66666666666663</ele><time>2026-03-28T14:52:04Z</time></trkpt><trkpt lat="37.898930169017035" lon="15.145992840956934"><ele>280.0</ele><time>2026-03-28T14:52:05Z</time></trkpt><trkpt lat="37.89886222956965" lon="15.14619395735475"><ele>280.0</ele><time>2026-03-28T14:52:06Z</time></trkpt><trkpt lat="37.898793594646456" lon="15.146396592934156"><ele>280.0</ele><time>2026-03-28T14:52:07Z</time></trkpt><trkpt lat="37.89872369072537" lon="15.146600681561473"><ele>280.0</ele><time>2026-03-28T14:52:08Z</time></trkpt><trkpt lat="37.89866024496212" lon="15.146795214098349"><ele>279.66666666666663</ele><time>2026-03-28T14:52:09Z</time></trkpt><trkpt lat="37.89859589537451" lon="15.14698503497007"><ele>279.3333333333333</ele><time>2026-03-28T14:52:10Z</time></trkpt><trkpt lat="37.89853767430362" lon="15.147162027092163"><ele>279.0</ele><time>2026-03-28T14:52:11Z</time></trkpt><trkpt lat="37.89847548532072" lon="15.14734381652344"><ele>278.3333333333333</ele><time>2026-03-28T14:52:12Z</time></trkpt><trkpt lat="37.89841894300654" lon="15.147512551047626"><ele>277.66666666666663</ele><time>2026-03-28T14:52:13Z</time></trkpt><trkpt lat="37.898356015235144" lon="15.147693562075046"><ele>277.0</ele><time>2026-03-28T14:52:14Z</time></trkpt><trkpt lat="37.89828987281847" lon="15.147871358247317"><ele>276.66666666666663</ele><time>2026-03-28T14:52:15Z</time></trkpt><trkpt lat="37.898215397592956" lon="15.148039262659708"><ele>276.3333333333333</ele><time>2026-03-28T14:52:16Z</time></trkpt><trkpt lat="37.89812477549439" lon="15.14821234219368"><ele>276.0</ele><time>2026-03-28T14:52:17Z</time></trkpt><trkpt lat="37.89802734682074" lon="15.148371026340747"><ele>275.3333333333333</ele><time>2026-03-28T14:52:18Z</time></trkpt><trkpt lat="37.89791593699358" lon="15.148535467416922"><ele>274.66666666666663</ele><time>2026-03-28T14:52:19Z</time></trkpt><trkpt lat="37.897801513986565" lon="15.14868579305502"><ele>274.0</ele><time>2026-03-28T14:52:20Z</time></trkpt><trkpt lat="37.8976798354284" lon="15.148848424558459"><ele>273.3333333333333</ele><time>2026-03-28T14:52:21Z</time></trkpt><trkpt lat="37.89756464624082" lon="15.149004480950058"><ele>272.6666666666667</ele><time>2026-03-28T14:52:22Z</time></trkpt><trkpt lat="37.897458704155156" lon="15.149148046200443"><ele>272.0</ele><time>2026-03-28T14:52:23Z</time></trkpt><trkpt lat="37.89735225339233" lon="15.149298674879795"><ele>271.0</ele><time>2026-03-28T14:52:24Z</time></trkpt><trkpt lat="37.8972431119224" lon="15.1494597860981"><ele>270.0</ele><time>2026-03-28T14:52:25Z</time></trkpt><trkpt lat="37.897140327447374" lon="15.149628185160406"><ele>269.0</ele><time>2026-03-28T14:52:26Z</time></trkpt><trkpt lat="37.8970454187035" lon="15.14980722337579"><ele>268.0</ele><time>2026-03-28T14:52:27Z</time></trkpt><trkpt lat="37.89695380624829" lon="15.14999863436928"><ele>267.0</ele><time>2026-03-28T14:52:28Z</time></trkpt><trkpt lat="37.89687031899132" lon="15.150195877928748"><ele>266.0</ele><time>2026-03-28T14:52:29Z</time></trkpt><trkpt lat="37.89678490918551" lon="15.15040357151875"><ele>266.0</ele><time>2026-03-28T14:52:30Z</time></trkpt><trkpt lat="37.8967054300296" lon="15.150615103061439"><ele>266.0</ele><time>2026-03-28T14:52:31Z</time></trkpt><trkpt lat="37.89663003385472" lon="15.150825042879005"><ele>266.0</ele><time>2026-03-28T14:52:32Z</time></trkpt><trkpt lat="37.896546321402184" lon="15.15104139115395"><ele>265.33333333333337</ele><time>2026-03-28T14:52:33Z</time></trkpt><trkpt lat="37.89646723326503" lon="15.151256172253785"><ele>264.6666666666667</ele><time>2026-03-28T14:52:34Z</time></trkpt><trkpt lat="37.896389661796846" lon="15.151463894921793"><ele>264.0</ele><time>2026-03-28T14:52:35Z</time></trkpt><trkpt lat="37.896305558386786" lon="15.1516835575191"><ele>263.6666666666667</ele><time>2026-03-28T14:52:36Z</time></trkpt><trkpt lat="37.89622699524403" lon="15.151895811271661"><ele>263.33333333333337</ele><time>2026-03-28T14:52:37Z</time></trkpt><trkpt lat="37.896149057099024" lon="15.15210379383389"><ele>263.0</ele><time>2026-03-28T14:52:38Z</time></trkpt><trkpt lat="37.89607308320958" lon="15.152312040543437"><ele>263.0</ele><time>2026-03-28T14:52:39Z</time></trkpt><trkpt lat="37.89600022625878" lon="15.152516518194426"><ele>263.0</ele><time>2026-03-28T14:52:40Z</time></trkpt><trkpt lat="37.89592298669199" lon="15.15272489894884"><ele>263.0</ele><time>2026-03-28T14:52:41Z</time></trkpt><trkpt lat="37.8958483314674" lon="15.152924496801269"><ele>261.6666666666667</ele><time>2026-03-28T14:52:42Z</time></trkpt><trkpt lat="37.89577553829121" lon="15.153123800891958"><ele>260.3333333333333</ele><time>2026-03-28T14:52:43Z</time></trkpt><trkpt lat="37.89569891232035" lon="15.15331967523389"><ele>259.0</ele><time>2026-03-28T14:52:44Z</time></trkpt><trkpt lat="37.89561278545922" lon="15.153521999767783"><ele>258.66666666666663</ele><time>2026-03-28T14:52:44.999Z</time></trkpt><trkpt lat="37.89551818125427" lon="15.153714178468999"><ele>258.3333333333333</ele><time>2026-03-28T14:52:45.999Z</time></trkpt><trkpt lat="37.89540684545838" lon="15.153895402601993"><ele>258.0</ele><time>2026-03-28T14:52:46.999Z</time></trkpt><trkpt lat="37.89528905081088" lon="15.154072567126597"><ele>257.6666666666667</ele><time>2026-03-28T14:52:47.999Z</time></trkpt><trkpt lat="37.89516608538471" lon="15.154249037131306"><ele>257.33333333333337</ele><time>2026-03-28T14:52:48.999Z</time></trkpt><trkpt lat="37.895041882267755" lon="15.154428047876609"><ele>257.0</ele><time>2026-03-28T14:52:49.999Z</time></trkpt><trkpt lat="37.894922498040806" lon="15.154602284499155"><ele>257.0</ele><time>2026-03-28T14:52:50.999Z</time></trkpt><trkpt lat="37.89480025167481" lon="15.154780889974898"><ele>257.0</ele><time>2026-03-28T14:52:51.999Z</time></trkpt><trkpt lat="37.89467805217225" lon="15.154957912797608"><ele>257.0</ele><time>2026-03-28T14:52:52.999Z</time></trkpt><trkpt lat="37.89455851800349" lon="15.15513352835562"><ele>257.0</ele><time>2026-03-28T14:52:53.999Z</time></trkpt><trkpt lat="37.89443151256485" lon="15.15531253849246"><ele>257.0</ele><time>2026-03-28T14:52:54.999Z</time></trkpt><trkpt lat="37.89430511053658" lon="15.155493776315026"><ele>257.0</ele><time>2026-03-28T14:52:55.999Z</time></trkpt><trkpt lat="37.894177369132485" lon="15.155674469865081"><ele>256.6666666666667</ele><time>2026-03-28T14:52:56.999Z</time></trkpt><trkpt lat="37.89405276991324" lon="15.155854122208725"><ele>256.3333333333333</ele><time>2026-03-28T14:52:57.999Z</time></trkpt><trkpt lat="37.89392732185399" lon="15.156034395462612"><ele>256.0</ele><time>2026-03-28T14:52:58.999Z</time></trkpt><trkpt lat="37.893803578245425" lon="15.15621170279534"><ele>256.0</ele><time>2026-03-28T14:52:59.999Z</time></trkpt><trkpt lat="37.893675507493136" lon="15.15639337909147"><ele>256.0</ele><time>2026-03-28T14:53:00.999Z</time></trkpt><trkpt lat="37.89355228021672" lon="15.156566094702336"><ele>256.0</ele><time>2026-03-28T14:53:01.999Z</time></trkpt><trkpt lat="37.893427899845896" lon="15.156742139465488"><ele>253.33333333333331</ele><time>2026-03-28T14:53:02.999Z</time></trkpt><trkpt lat="37.8933093567268" lon="15.156914471492462"><ele>250.66666666666669</ele><time>2026-03-28T14:53:03.999Z</time></trkpt><trkpt lat="37.8931936133113" lon="15.157087476966442"><ele>248.0</ele><time>2026-03-28T14:53:04.999Z</time></trkpt><trkpt lat="37.89308762863344" lon="15.157264891548532"><ele>246.66666666666669</ele><time>2026-03-28T14:53:05.999Z</time></trkpt><trkpt lat="37.892998977140515" lon="15.157451757408325"><ele>245.33333333333331</ele><time>2026-03-28T14:53:06.999Z</time></trkpt><trkpt lat="37.89292494319502" lon="15.157655558709212"><ele>244.0</ele><time>2026-03-28T14:53:07.999Z</time></trkpt><trkpt lat="37.8928738631352" lon="15.157875558592163"><ele>244.0</ele><time>2026-03-28T14:53:08.999Z</time></trkpt><trkpt lat="37.89283465631405" lon="15.158110067246993"><ele>244.0</ele><time>2026-03-28T14:53:09.999Z</time></trkpt><trkpt lat="37.892803175394796" lon="15.15833678473776"><ele>244.0</ele><time>2026-03-28T14:53:10.999Z</time></trkpt><trkpt lat="37.892764303668" lon="15.158584333523464"><ele>242.66666666666666</ele><time>2026-03-28T14:53:11.999Z</time></trkpt><trkpt lat="37.892728538867395" lon="15.158828746505172"><ele>241.33333333333331</ele><time>2026-03-28T14:53:12.999Z</time></trkpt><trkpt lat="37.892689125258556" lon="15.159067775153355"><ele>240.0</ele><time>2026-03-28T14:53:13.999Z</time></trkpt><trkpt lat="37.89264970426169" lon="15.159315066526267"><ele>238.0</ele><time>2026-03-28T14:53:14.999Z</time></trkpt><trkpt lat="37.89260990517836" lon="15.159562133068292"><ele>236.0</ele><time>2026-03-28T14:53:15.999Z</time></trkpt><trkpt lat="37.89257419110552" lon="15.159800433084893"><ele>234.0</ele><time>2026-03-28T14:53:16.999Z</time></trkpt><trkpt lat="37.89253778397914" lon="15.160044611742213"><ele>233.33333333333331</ele><time>2026-03-28T14:53:17.999Z</time></trkpt><trkpt lat="37.89249988987722" lon="15.160281231512673"><ele>232.66666666666666</ele><time>2026-03-28T14:53:18.999Z</time></trkpt><trkpt lat="37.89246203162003" lon="15.160508654967707"><ele>232.0</ele><time>2026-03-28T14:53:19.999Z</time></trkpt><trkpt lat="37.89242879067459" lon="15.160747738261849"><ele>232.0</ele><time>2026-03-28T14:53:20.999Z</time></trkpt><trkpt lat="37.89239205744383" lon="15.160973846208076"><ele>232.0</ele><time>2026-03-28T14:53:21.999Z</time></trkpt><trkpt lat="37.892357137621524" lon="15.161205746081691"><ele>232.0</ele><time>2026-03-28T14:53:22.999Z</time></trkpt><trkpt lat="37.89232332491668" lon="15.161428830736691"><ele>233.0</ele><time>2026-03-28T14:53:23.999Z</time></trkpt><trkpt lat="37.8922905098942" lon="15.161653307190704"><ele>234.0</ele><time>2026-03-28T14:53:24.999Z</time></trkpt><trkpt lat="37.892257145186264" lon="15.16186817963656"><ele>235.0</ele><time>2026-03-28T14:53:25.999Z</time></trkpt><trkpt lat="37.89221603876147" lon="15.1620653216508"><ele>235.0</ele><time>2026-03-28T14:53:26.999Z</time></trkpt><trkpt lat="37.89216044318526" lon="15.162252059339421"><ele>235.0</ele><time>2026-03-28T14:53:27.999Z</time></trkpt><trkpt lat="37.89208455063688" lon="15.162421696183454"><ele>235.0</ele><time>2026-03-28T14:53:28.999Z</time></trkpt><trkpt lat="37.891983647322796" lon="15.162569758551902"><ele>236.0</ele><time>2026-03-28T14:53:29.999Z</time></trkpt><trkpt lat="37.89186786564909" lon="15.162708630886252"><ele>237.0</ele><time>2026-03-28T14:53:30.999Z</time></trkpt><trkpt lat="37.89172375143722" lon="15.162804132428935"><ele>238.0</ele><time>2026-03-28T14:53:31.999Z</time></trkpt><trkpt lat="37.8915650437175" lon="15.16289177585926"><ele>238.0</ele><time>2026-03-28T14:53:32.999Z</time></trkpt><trkpt lat="37.89140578119744" lon="15.162982978687705"><ele>238.0</ele><time>2026-03-28T14:53:33.999Z</time></trkpt><trkpt lat="37.89125114401391" lon="15.163075206225129"><ele>238.0</ele><time>2026-03-28T14:53:34.999Z</time></trkpt><trkpt lat="37.89109631483863" lon="15.163169220375154"><ele>238.0</ele><time>2026-03-28T14:53:35.999Z</time></trkpt><trkpt lat="37.89093935726306" lon="15.163266456292638"><ele>238.0</ele><time>2026-03-28T14:53:36.999Z</time></trkpt><trkpt lat="37.890781681294754" lon="15.163361797358238"><ele>238.0</ele><time>2026-03-28T14:53:37.999Z</time></trkpt><trkpt lat="37.890611646476486" lon="15.16343942759169"><ele>238.0</ele><time>2026-03-28T14:53:38.999Z</time></trkpt><trkpt lat="37.8904479923987" lon="15.163534252358335"><ele>238.0</ele><time>2026-03-28T14:53:39.999Z</time></trkpt><trkpt lat="37.89029078311234" lon="15.16364596947262"><ele>238.0</ele><time>2026-03-28T14:53:40.999Z</time></trkpt><trkpt lat="37.8901282524125" lon="15.163738641985674"><ele>236.0</ele><time>2026-03-28T14:53:41.999Z</time></trkpt><trkpt lat="37.88996674208054" lon="15.163832029087926"><ele>234.0</ele><time>2026-03-28T14:53:42.999Z</time></trkpt><trkpt lat="37.889808852463474" lon="15.163920692024247"><ele>232.0</ele><time>2026-03-28T14:53:43.999Z</time></trkpt><trkpt lat="37.88965185048062" lon="15.16400688578549"><ele>232.66666666666666</ele><time>2026-03-28T14:53:44.999Z</time></trkpt><trkpt lat="37.889507034675496" lon="15.164091304903247"><ele>233.33333333333331</ele><time>2026-03-28T14:53:45.999Z</time></trkpt><trkpt lat="37.889374055802094" lon="15.164183093548127"><ele>234.0</ele><time>2026-03-28T14:53:46.999Z</time></trkpt><trkpt lat="37.88925651060334" lon="15.164285548128218"><ele>233.0</ele><time>2026-03-28T14:53:47.999Z</time></trkpt><trkpt lat="37.88915309345325" lon="15.164402097239645"><ele>232.0</ele><time>2026-03-28T14:53:48.999Z</time></trkpt><trkpt lat="37.88905786302428" lon="15.164528112066675"><ele>231.0</ele><time>2026-03-28T14:53:49.999Z</time></trkpt><trkpt lat="37.88896970358281" lon="15.164661154986598"><ele>230.0</ele><time>2026-03-28T14:53:50.999Z</time></trkpt><trkpt lat="37.88886525220799" lon="15.164779744531343"><ele>231.75</ele><time>2026-03-28T14:53:51.999Z</time></trkpt><trkpt lat="37.88877926444599" lon="15.164926233515661"><ele>233.5</ele><time>2026-03-28T14:53:52.999Z</time></trkpt><trkpt lat="37.888682496573296" lon="15.16505983292301"><ele>235.25</ele><time>2026-03-28T14:53:53.999Z</time></trkpt><trkpt lat="37.888590092011604" lon="15.165196013400077"><ele>237.0</ele><time>2026-03-28T14:53:54.999Z</time></trkpt><trkpt lat="37.88850373803882" lon="15.165326215124152"><ele>236.0</ele><time>2026-03-28T14:53:55.999Z</time></trkpt><trkpt lat="37.888418227437356" lon="15.165450121011167"><ele>235.0</ele><time>2026-03-28T14:53:56.999Z</time></trkpt><trkpt lat="37.888334778830824" lon="15.165567794965805"><ele>234.0</ele><time>2026-03-28T14:53:57.999Z</time></trkpt><trkpt lat="37.8882548681738" lon="15.165682063112552"><ele>233.0</ele><time>2026-03-28T14:53:58.999Z</time></trkpt><trkpt lat="37.88817681944677" lon="15.16579636235112"><ele>233.0</ele><time>2026-03-28T14:53:59.999Z</time></trkpt><trkpt lat="37.88808340510294" lon="15.16590155018381"><ele>233.0</ele><time>2026-03-28T14:54:00.999Z</time></trkpt><trkpt lat="37.888000266113885" lon="15.166021285350526"><ele>233.0</ele><time>2026-03-28T14:54:01.999Z</time></trkpt><trkpt lat="37.8879140291228" lon="15.166145482202003"><ele>233.0</ele><time>2026-03-28T14:54:02.999Z</time></trkpt><trkpt lat="37.887826997620124" lon="15.166273768042922"><ele>233.0</ele><time>2026-03-28T14:54:03.999Z</time></trkpt><trkpt lat="37.88773872622565" lon="15.166404048546825"><ele>233.0</ele><time>2026-03-28T14:54:04.999Z</time></trkpt><trkpt lat="37.88764764682434" lon="15.1665389036558"><ele>233.0</ele><time>2026-03-28T14:54:05.999Z</time></trkpt><trkpt lat="37.88756753957303" lon="15.166687589071946"><ele>233.0</ele><time>2026-03-28T14:54:06.999Z</time></trkpt><trkpt lat="37.887467271633135" lon="15.166823138599222"><ele>231.0</ele><time>2026-03-28T14:54:07.999Z</time></trkpt><trkpt lat="37.88736801156995" lon="15.16696097196866"><ele>229.0</ele><time>2026-03-28T14:54:08.999Z</time></trkpt><trkpt lat="37.887269902627025" lon="15.167101682230967"><ele>227.0</ele><time>2026-03-28T14:54:09.999Z</time></trkpt><trkpt lat="37.88716731153325" lon="15.167248805548002"><ele>229.0</ele><time>2026-03-28T14:54:10.999Z</time></trkpt><trkpt lat="37.88706243859258" lon="15.167396561716917"><ele>231.0</ele><time>2026-03-28T14:54:11.999Z</time></trkpt><trkpt lat="37.88695410958358" lon="15.167548071543406"><ele>233.0</ele><time>2026-03-28T14:54:12.999Z</time></trkpt><trkpt lat="37.886842568207314" lon="15.167705409711685"><ele>230.0</ele><time>2026-03-28T14:54:13.999Z</time></trkpt><trkpt lat="37.88672848461961" lon="15.167862841196357"><ele>227.0</ele><time>2026-03-28T14:54:14.999Z</time></trkpt><trkpt lat="37.8866121595288" lon="15.168020848066888"><ele>224.0</ele><time>2026-03-28T14:54:15.999Z</time></trkpt><trkpt lat="37.88649094334426" lon="15.16817541678539"><ele>225.66666666666669</ele><time>2026-03-28T14:54:16.999Z</time></trkpt><trkpt lat="37.88636574095791" lon="15.168330203567816"><ele>227.33333333333331</ele><time>2026-03-28T14:54:17.999Z</time></trkpt><trkpt lat="37.88623913599043" lon="15.168488583746255"><ele>229.0</ele><time>2026-03-28T14:54:18.999Z</time></trkpt><trkpt lat="37.886112615687836" lon="15.168650734693106"><ele>229.0</ele><time>2026-03-28T14:54:19.999Z</time></trkpt><trkpt lat="37.88598405532061" lon="15.168810540849252"><ele>229.0</ele><time>2026-03-28T14:54:20.999Z</time></trkpt><trkpt lat="37.885855696807255" lon="15.16896720091681"><ele>229.0</ele><time>2026-03-28T14:54:21.999Z</time></trkpt><trkpt lat="37.885728154370724" lon="15.169121604893979"><ele>228.0</ele><time>2026-03-28T14:54:22.999Z</time></trkpt><trkpt lat="37.88560582479448" lon="15.169276689693904"><ele>227.0</ele><time>2026-03-28T14:54:23.999Z</time></trkpt><trkpt lat="37.88548506250115" lon="15.169429083049135"><ele>226.0</ele><time>2026-03-28T14:54:24.999Z</time></trkpt><trkpt lat="37.885366259008414" lon="15.169580768727062"><ele>226.0</ele><time>2026-03-28T14:54:25.999Z</time></trkpt><trkpt lat="37.88525472316858" lon="15.169724635174855"><ele>226.0</ele><time>2026-03-28T14:54:26.999Z</time></trkpt><trkpt lat="37.88515189180228" lon="15.169859623295082"><ele>226.0</ele><time>2026-03-28T14:54:27.999Z</time></trkpt><trkpt lat="37.88505073845437" lon="15.169991838147194"><ele>225.75</ele><time>2026-03-28T14:54:28.999Z</time></trkpt><trkpt lat="37.88495097391376" lon="15.170119802996066"><ele>225.5</ele><time>2026-03-28T14:54:29.999Z</time></trkpt><trkpt lat="37.88485328273648" lon="15.170245127339566"><ele>225.25</ele><time>2026-03-28T14:54:30.999Z</time></trkpt><trkpt lat="37.88474731612618" lon="15.170377690121402"><ele>225.0</ele><time>2026-03-28T14:54:31.999Z</time></trkpt><trkpt lat="37.88463822542639" lon="15.170519172499109"><ele>225.0</ele><time>2026-03-28T14:54:32.999Z</time></trkpt><trkpt lat="37.88452576658231" lon="15.170665015757606"><ele>225.0</ele><time>2026-03-28T14:54:33.999Z</time></trkpt><trkpt lat="37.88441284560975" lon="15.170814674579612"><ele>225.0</ele><time>2026-03-28T14:54:34.999Z</time></trkpt><trkpt lat="37.88429891755114" lon="15.170964490351942"><ele>224.66666666666669</ele><time>2026-03-28T14:54:35.999Z</time></trkpt><trkpt lat="37.88418029115414" lon="15.17111795453576"><ele>224.33333333333334</ele><time>2026-03-28T14:54:36.999Z</time></trkpt><trkpt lat="37.88406045562965" lon="15.171270321471429"><ele>224.0</ele><time>2026-03-28T14:54:37.999Z</time></trkpt><trkpt lat="37.883936900001906" lon="15.171423740185881"><ele>225.0</ele><time>2026-03-28T14:54:38.999Z</time></trkpt><trkpt lat="37.883806692021786" lon="15.171579200527749"><ele>226.0</ele><time>2026-03-28T14:54:39.999Z</time></trkpt><trkpt lat="37.88367753043157" lon="15.171728390002663"><ele>227.0</ele><time>2026-03-28T14:54:40.999Z</time></trkpt><trkpt lat="37.883544698727135" lon="15.171876932257371"><ele>225.66666666666669</ele><time>2026-03-28T14:54:41.999Z</time></trkpt><trkpt lat="37.883412483944085" lon="15.17202336619979"><ele>224.33333333333331</ele><time>2026-03-28T14:54:42.999Z</time></trkpt><trkpt lat="37.88327920994268" lon="15.172170161054234"><ele>223.0</ele><time>2026-03-28T14:54:43.999Z</time></trkpt><trkpt lat="37.883145325346106" lon="15.17231980007541"><ele>223.0</ele><time>2026-03-28T14:54:44.999Z</time></trkpt><trkpt lat="37.88301329742459" lon="15.17246828364771"><ele>223.0</ele><time>2026-03-28T14:54:45.999Z</time></trkpt><trkpt lat="37.88287910073541" lon="15.172618804366863"><ele>223.0</ele><time>2026-03-28T14:54:46.999Z</time></trkpt><trkpt lat="37.88275271280472" lon="15.172760148299563"><ele>223.0</ele><time>2026-03-28T14:54:47.999Z</time></trkpt><trkpt lat="37.88262904052411" lon="15.172901358782381"><ele>223.0</ele><time>2026-03-28T14:54:48.999Z</time></trkpt><trkpt lat="37.882505947902125" lon="15.17304098083344"><ele>223.0</ele><time>2026-03-28T14:54:49.999Z</time></trkpt><trkpt lat="37.88238497669534" lon="15.173174370892742"><ele>220.66666666666666</ele><time>2026-03-28T14:54:50.999Z</time></trkpt><trkpt lat="37.88226059304965" lon="15.173309953767992"><ele>218.33333333333331</ele><time>2026-03-28T14:54:51.999Z</time></trkpt><trkpt lat="37.882136965316285" lon="15.17344306732157"><ele>216.0</ele><time>2026-03-28T14:54:52.999Z</time></trkpt><trkpt lat="37.8820112823825" lon="15.173578894410612"><ele>216.0</ele><time>2026-03-28T14:54:53.999Z</time></trkpt><trkpt lat="37.8818863261237" lon="15.173715159619917"><ele>216.0</ele><time>2026-03-28T14:54:54.999Z</time></trkpt><trkpt lat="37.88176919197395" lon="15.173843660312171"><ele>216.0</ele><time>2026-03-28T14:54:55.999Z</time></trkpt><trkpt lat="37.88166043517778" lon="15.173964856850343"><ele>215.75</ele><time>2026-03-28T14:54:56.999Z</time></trkpt><trkpt lat="37.88155870382066" lon="15.174079658728447"><ele>215.5</ele><time>2026-03-28T14:54:57.999Z</time></trkpt><trkpt lat="37.88146304206172" lon="15.17418610754291"><ele>215.25</ele><time>2026-03-28T14:54:58.999Z</time></trkpt><trkpt lat="37.88136537427445" lon="15.174284427522782"><ele>215.0</ele><time>2026-03-28T14:54:59.999Z</time></trkpt><trkpt lat="37.8812646159169" lon="15.174365298900371"><ele>215.0</ele><time>2026-03-28T14:55:00.999Z</time></trkpt><trkpt lat="37.88115959222852" lon="15.174419831671829"><ele>215.0</ele><time>2026-03-28T14:55:01.999Z</time></trkpt><trkpt lat="37.88105488621133" lon="15.174452298514664"><ele>215.0</ele><time>2026-03-28T14:55:02.999Z</time></trkpt><trkpt lat="37.88096235725233" lon="15.174462854763785"><ele>215.0</ele><time>2026-03-28T14:55:03.999Z</time></trkpt><trkpt lat="37.880879891832144" lon="15.174457499496388"><ele>215.0</ele><time>2026-03-28T14:55:04.998Z</time></trkpt><trkpt lat="37.880803129952554" lon="15.17443916300002"><ele>214.16666666666669</ele><time>2026-03-28T14:55:05.998Z</time></trkpt><trkpt lat="37.88073306360707" lon="15.174412912591569"><ele>213.33333333333334</ele><time>2026-03-28T14:55:06.998Z</time></trkpt><trkpt lat="37.880622891475355" lon="15.174360367051655"><ele>212.5</ele><time>2026-03-28T14:55:08.998Z</time></trkpt><trkpt lat="37.88053203507846" lon="15.174324920664155"><ele>211.66666666666669</ele><time>2026-03-28T14:55:10.999Z</time></trkpt><trkpt lat="37.88046047975886" lon="15.174329398020296"><ele>210.83333333333334</ele><time>2026-03-28T14:55:12.999Z</time></trkpt><trkpt lat="37.88038338369641" lon="15.174359834172172"><ele>210.0</ele><time>2026-03-28T14:55:14.999Z</time></trkpt><trkpt lat="37.88028201095465" lon="15.174470383054338"><ele>210.0</ele><time>2026-03-28T14:55:16.999Z</time></trkpt><trkpt lat="37.880235675659165" lon="15.174557228095784"><ele>210.0</ele><time>2026-03-28T14:55:17.999Z</time></trkpt><trkpt lat="37.88019637870396" lon="15.174643672325628"><ele>210.0</ele><time>2026-03-28T14:55:18.999Z</time></trkpt><trkpt lat="37.880162770666864" lon="15.174729110332661"><ele>210.0</ele><time>2026-03-28T14:55:19.999Z</time></trkpt><trkpt lat="37.88013143424181" lon="15.174815975099067"><ele>210.0</ele><time>2026-03-28T14:55:20.999Z</time></trkpt><trkpt lat="37.88010168476295" lon="15.174899672451403"><ele>210.0</ele><time>2026-03-28T14:55:21.999Z</time></trkpt><trkpt lat="37.88007101854106" lon="15.174983973799396"><ele>208.5</ele><time>2026-03-28T14:55:22.999Z</time></trkpt><trkpt lat="37.88004021460595" lon="15.175069097290868"><ele>207.0</ele><time>2026-03-28T14:55:23.999Z</time></trkpt><trkpt lat="37.88000586207543" lon="15.17515585954141"><ele>205.5</ele><time>2026-03-28T14:55:24.999Z</time></trkpt><trkpt lat="37.87996907521339" lon="15.17524472021349"><ele>204.0</ele><time>2026-03-28T14:55:25.999Z</time></trkpt><trkpt lat="37.87993132445053" lon="15.17533257173499"><ele>202.5</ele><time>2026-03-28T14:55:26.999Z</time></trkpt><trkpt lat="37.879889467735616" lon="15.175422038055304"><ele>201.0</ele><time>2026-03-28T14:55:27.999Z</time></trkpt><trkpt lat="37.879843496676884" lon="15.175507108174815"><ele>201.0</ele><time>2026-03-28T14:55:28.999Z</time></trkpt><trkpt lat="37.87979006978102" lon="15.17558337775357"><ele>201.0</ele><time>2026-03-28T14:55:29.999Z</time></trkpt><trkpt lat="37.87973642273309" lon="15.175651019643333"><ele>201.0</ele><time>2026-03-28T14:55:30.999Z</time></trkpt><trkpt lat="37.87967732731668" lon="15.17570923639493"><ele>201.0</ele><time>2026-03-28T14:55:31.999Z</time></trkpt><trkpt lat="37.879616556203956" lon="15.175757668122692"><ele>201.0</ele><time>2026-03-28T14:55:32.999Z</time></trkpt><trkpt lat="37.87955164126706" lon="15.17579963272291"><ele>201.0</ele><time>2026-03-28T14:55:33.999Z</time></trkpt><trkpt lat="37.8794843631667" lon="15.17583883712554"><ele>201.0</ele><time>2026-03-28T14:55:34.999Z</time></trkpt><trkpt lat="37.87942254610842" lon="15.17587563459697"><ele>201.0</ele><time>2026-03-28T14:55:35.999Z</time></trkpt><trkpt lat="37.87936053630565" lon="15.175913951424102"><ele>201.0</ele><time>2026-03-28T14:55:36.999Z</time></trkpt><trkpt lat="37.87930002106505" lon="15.175952537423829"><ele>201.0</ele><time>2026-03-28T14:55:37.999Z</time></trkpt><trkpt lat="37.87924267499387" lon="15.175989023900598"><ele>201.0</ele><time>2026-03-28T14:55:39Z</time></trkpt><trkpt lat="37.87918403504395" lon="15.176026689313773"><ele>201.0</ele><time>2026-03-28T14:55:40Z</time></trkpt><trkpt lat="37.87911494047939" lon="15.176046963602195"><ele>201.0</ele><time>2026-03-28T14:55:41Z</time></trkpt><trkpt lat="37.87905019108687" lon="15.176087083975505"><ele>201.0</ele><time>2026-03-28T14:55:42Z</time></trkpt><trkpt lat="37.87897816749688" lon="15.176132123385017"><ele>201.0</ele><time>2026-03-28T14:55:43Z</time></trkpt><trkpt lat="37.878908783791026" lon="15.176198908132337"><ele>201.0</ele><time>2026-03-28T14:55:44Z</time></trkpt><trkpt lat="37.87882971907352" lon="15.17624609830397"><ele>201.0</ele><time>2026-03-28T14:55:45Z</time></trkpt><trkpt lat="37.87875213656109" lon="15.176294062206706"><ele>201.0</ele><time>2026-03-28T14:55:46Z</time></trkpt><trkpt lat="37.8786759627031" lon="15.176341894444112"><ele>201.0</ele><time>2026-03-28T14:55:47Z</time></trkpt><trkpt lat="37.878594097172886" lon="15.17639169921806"><ele>201.0</ele><time>2026-03-28T14:55:48Z</time></trkpt><trkpt lat="37.87849875633991" lon="15.176450544771846"><ele>201.0</ele><time>2026-03-28T14:55:49Z</time></trkpt><trkpt lat="37.87839669730376" lon="15.176514220829173"><ele>201.0</ele><time>2026-03-28T14:55:50Z</time></trkpt><trkpt lat="37.87829028136672" lon="15.176579991999485"><ele>201.0</ele><time>2026-03-28T14:55:51Z</time></trkpt><trkpt lat="37.87818087305321" lon="15.176645845758706"><ele>199.5</ele><time>2026-03-28T14:55:52Z</time></trkpt><trkpt lat="37.878068649503234" lon="15.176714299041562"><ele>198.0</ele><time>2026-03-28T14:55:53Z</time></trkpt><trkpt lat="37.87795817456718" lon="15.176783368584116"><ele>196.5</ele><time>2026-03-28T14:55:54Z</time></trkpt><trkpt lat="37.8778496232772" lon="15.176850761744403"><ele>195.0</ele><time>2026-03-28T14:55:55Z</time></trkpt><trkpt lat="37.87774422682838" lon="15.176916588471281"><ele>195.0</ele><time>2026-03-28T14:55:56Z</time></trkpt><trkpt lat="37.87764368971182" lon="15.176979636161638"><ele>195.0</ele><time>2026-03-28T14:55:57Z</time></trkpt><trkpt lat="37.87754595399481" lon="15.177039955545768"><ele>195.0</ele><time>2026-03-28T14:55:58Z</time></trkpt><trkpt lat="37.87745046550885" lon="15.17710325693451"><ele>195.0</ele><time>2026-03-28T14:55:59Z</time></trkpt><trkpt lat="37.87735989412938" lon="15.177174587611809"><ele>195.0</ele><time>2026-03-28T14:56:00Z</time></trkpt><trkpt lat="37.87727551899774" lon="15.177258995582548"><ele>193.25</ele><time>2026-03-28T14:56:01Z</time></trkpt><trkpt lat="37.87719123082171" lon="15.177355159368211"><ele>191.5</ele><time>2026-03-28T14:56:02Z</time></trkpt><trkpt lat="37.87710789472184" lon="15.177466019066188"><ele>189.75</ele><time>2026-03-28T14:56:03Z</time></trkpt><trkpt lat="37.87702401348021" lon="15.177584784556448"><ele>188.0</ele><time>2026-03-28T14:56:04Z</time></trkpt><trkpt lat="37.876939833340614" lon="15.177704692883019"><ele>188.0</ele><time>2026-03-28T14:56:05Z</time></trkpt><trkpt lat="37.876850418583416" lon="15.177831739928333"><ele>188.0</ele><time>2026-03-28T14:56:06Z</time></trkpt><trkpt lat="37.87675941276679" lon="15.177964708204433"><ele>188.0</ele><time>2026-03-28T14:56:07Z</time></trkpt><trkpt lat="37.876669373528244" lon="15.178094673257375"><ele>188.0</ele><time>2026-03-28T14:56:08Z</time></trkpt><trkpt lat="37.87657920558003" lon="15.178226333597433"><ele>186.0</ele><time>2026-03-28T14:56:09Z</time></trkpt><trkpt lat="37.87648854327525" lon="15.178357264465818"><ele>184.0</ele><time>2026-03-28T14:56:10Z</time></trkpt><trkpt lat="37.876403525033616" lon="15.178489870484436"><ele>182.0</ele><time>2026-03-28T14:56:11Z</time></trkpt><trkpt lat="37.87633325429129" lon="15.178631422827838"><ele>180.0</ele><time>2026-03-28T14:56:12Z</time></trkpt><trkpt lat="37.87629060434433" lon="15.178792458544425"><ele>180.0</ele><time>2026-03-28T14:56:13Z</time></trkpt><trkpt lat="37.876265562593176" lon="15.178952252811785"><ele>180.0</ele><time>2026-03-28T14:56:14Z</time></trkpt><trkpt lat="37.87626151616002" lon="15.17911319421475"><ele>180.0</ele><time>2026-03-28T14:56:15Z</time></trkpt><trkpt lat="37.876270150731074" lon="15.179268373850158"><ele>180.0</ele><time>2026-03-28T14:56:16Z</time></trkpt><trkpt lat="37.87629806435038" lon="15.179426944568386"><ele>179.5</ele><time>2026-03-28T14:56:17Z</time></trkpt><trkpt lat="37.87633922010883" lon="15.179594094191145"><ele>179.0</ele><time>2026-03-28T14:56:18Z</time></trkpt><trkpt lat="37.87638952299324" lon="15.17975464017118"><ele>178.5</ele><time>2026-03-28T14:56:19Z</time></trkpt><trkpt lat="37.87643747840856" lon="15.179905723586158"><ele>178.0</ele><time>2026-03-28T14:56:20Z</time></trkpt><trkpt lat="37.876477980369216" lon="15.180055259555594"><ele>177.5</ele><time>2026-03-28T14:56:21Z</time></trkpt><trkpt lat="37.87650786664823" lon="15.180203975676255"><ele>177.0</ele><time>2026-03-28T14:56:22Z</time></trkpt><trkpt lat="37.876529005637124" lon="15.18035519344568"><ele>176.5</ele><time>2026-03-28T14:56:23Z</time></trkpt><trkpt lat="37.876541873783694" lon="15.180514955196628"><ele>176.0</ele><time>2026-03-28T14:56:24Z</time></trkpt><trkpt lat="37.876547320806566" lon="15.18067773181573"><ele>175.75</ele><time>2026-03-28T14:56:25Z</time></trkpt><trkpt lat="37.87654672640652" lon="15.180843175281781"><ele>175.5</ele><time>2026-03-28T14:56:26Z</time></trkpt><trkpt lat="37.87653808629303" lon="15.181004547001734"><ele>175.25</ele><time>2026-03-28T14:56:27Z</time></trkpt><trkpt lat="37.87652164384747" lon="15.18116127959979"><ele>175.0</ele><time>2026-03-28T14:56:28Z</time></trkpt><trkpt lat="37.87649738974578" lon="15.181313081739564"><ele>175.0</ele><time>2026-03-28T14:56:29Z</time></trkpt><trkpt lat="37.876466750774725" lon="15.18145860697882"><ele>175.0</ele><time>2026-03-28T14:56:30Z</time></trkpt><trkpt lat="37.87642803986509" lon="15.18160335349166"><ele>175.0</ele><time>2026-03-28T14:56:31Z</time></trkpt><trkpt lat="37.87638123030081" lon="15.18174813467598"><ele>175.0</ele><time>2026-03-28T14:56:32Z</time></trkpt><trkpt lat="37.87632376610851" lon="15.181891951527282"><ele>175.5</ele><time>2026-03-28T14:56:33Z</time></trkpt><trkpt lat="37.87625475090342" lon="15.182033355574413"><ele>176.0</ele><time>2026-03-28T14:56:34Z</time></trkpt><trkpt lat="37.87617558058461" lon="15.18217215060082"><ele>176.5</ele><time>2026-03-28T14:56:35Z</time></trkpt><trkpt lat="37.87608882502676" lon="15.182304732383773"><ele>177.0</ele><time>2026-03-28T14:56:36Z</time></trkpt><trkpt lat="37.87599778591633" lon="15.182435537754705"><ele>176.5</ele><time>2026-03-28T14:56:37Z</time></trkpt><trkpt lat="37.87590631963563" lon="15.18256820355443"><ele>176.0</ele><time>2026-03-28T14:56:38Z</time></trkpt><trkpt lat="37.8758242714502" lon="15.182699774773761"><ele>175.5</ele><time>2026-03-28T14:56:39Z</time></trkpt><trkpt lat="37.87576136831215" lon="15.18283722649782"><ele>175.0</ele><time>2026-03-28T14:56:40Z</time></trkpt><trkpt lat="37.87571138153626" lon="15.182985591942577"><ele>175.0</ele><time>2026-03-28T14:56:41Z</time></trkpt><trkpt lat="37.875676689985774" lon="15.183143613746546"><ele>175.0</ele><time>2026-03-28T14:56:42Z</time></trkpt><trkpt lat="37.87566579370823" lon="15.183316428112505"><ele>175.0</ele><time>2026-03-28T14:56:43Z</time></trkpt><trkpt lat="37.87566747218077" lon="15.183494617216128"><ele>175.0</ele><time>2026-03-28T14:56:44Z</time></trkpt><trkpt lat="37.875689792820104" lon="15.183667901656948"><ele>174.25</ele><time>2026-03-28T14:56:45Z</time></trkpt><trkpt lat="37.87573377008123" lon="15.183833069233312"><ele>173.5</ele><time>2026-03-28T14:56:46Z</time></trkpt><trkpt lat="37.87578905228159" lon="15.183989033906006"><ele>172.75</ele><time>2026-03-28T14:56:47Z</time></trkpt><trkpt lat="37.875855232445126" lon="15.184142632809325"><ele>172.0</ele><time>2026-03-28T14:56:48Z</time></trkpt><trkpt lat="37.87593014276942" lon="15.184299105573581"><ele>173.5</ele><time>2026-03-28T14:56:49Z</time></trkpt><trkpt lat="37.87600841645751" lon="15.184459225190459"><ele>175.0</ele><time>2026-03-28T14:56:50Z</time></trkpt><trkpt lat="37.876083489273576" lon="15.1846123042288"><ele>176.5</ele><time>2026-03-28T14:56:51Z</time></trkpt><trkpt lat="37.876158506786574" lon="15.184761582812072"><ele>178.0</ele><time>2026-03-28T14:56:52Z</time></trkpt><trkpt lat="37.87623306664151" lon="15.184909020078482"><ele>178.0</ele><time>2026-03-28T14:56:53Z</time></trkpt><trkpt lat="37.87630368818993" lon="15.185053264238434"><ele>178.0</ele><time>2026-03-28T14:56:54Z</time></trkpt><trkpt lat="37.87637514030276" lon="15.185198782838617"><ele>178.0</ele><time>2026-03-28T14:56:55Z</time></trkpt><trkpt lat="37.876447398804075" lon="15.185345815167373"><ele>178.0</ele><time>2026-03-28T14:56:56Z</time></trkpt><trkpt lat="37.8765227381068" lon="15.185499181483681"><ele>178.0</ele><time>2026-03-28T14:56:57Z</time></trkpt><trkpt lat="37.87659694300129" lon="15.185650373147993"><ele>178.0</ele><time>2026-03-28T14:56:58Z</time></trkpt><trkpt lat="37.87667111219479" lon="15.185795280023036"><ele>178.0</ele><time>2026-03-28T14:56:59Z</time></trkpt><trkpt lat="37.87674920235543" lon="15.185935979727926"><ele>178.0</ele><time>2026-03-28T14:57:00Z</time></trkpt><trkpt lat="37.87684169726905" lon="15.186067726416084"><ele>178.75</ele><time>2026-03-28T14:57:01Z</time></trkpt><trkpt lat="37.8769501741618" lon="15.18618029830979"><ele>179.5</ele><time>2026-03-28T14:57:02Z</time></trkpt><trkpt lat="37.8770616304538" lon="15.186274905678607"><ele>180.25</ele><time>2026-03-28T14:57:03Z</time></trkpt><trkpt lat="37.87717317738158" lon="15.186356728791361"><ele>181.0</ele><time>2026-03-28T14:57:04Z</time></trkpt><trkpt lat="37.87728181730816" lon="15.186428280804618"><ele>181.0</ele><time>2026-03-28T14:57:05Z</time></trkpt><trkpt lat="37.877389139593895" lon="15.18649368661016"><ele>181.0</ele><time>2026-03-28T14:57:06Z</time></trkpt><trkpt lat="37.8774931274569" lon="15.1865537569741"><ele>181.0</ele><time>2026-03-28T14:57:07Z</time></trkpt><trkpt lat="37.87759212458394" lon="15.186609423227914"><ele>181.0</ele><time>2026-03-28T14:57:08Z</time></trkpt><trkpt lat="37.87768917997117" lon="15.186664544758248"><ele>181.0</ele><time>2026-03-28T14:57:09Z</time></trkpt><trkpt lat="37.877779742785826" lon="15.186716381472745"><ele>178.4</ele><time>2026-03-28T14:57:10Z</time></trkpt><trkpt lat="37.8778677099236" lon="15.186768175247774"><ele>175.8</ele><time>2026-03-28T14:57:10.999Z</time></trkpt><trkpt lat="37.877952642285194" lon="15.186823820932645"><ele>173.20000000000002</ele><time>2026-03-28T14:57:11.999Z</time></trkpt><trkpt lat="37.87803347595285" lon="15.186894987613705"><ele>170.60000000000002</ele><time>2026-03-28T14:57:12.999Z</time></trkpt><trkpt lat="37.878108338295604" lon="15.186992077565414"><ele>168.0</ele><time>2026-03-28T14:57:13.999Z</time></trkpt><trkpt lat="37.87817907536616" lon="15.187104256021575"><ele>168.0</ele><time>2026-03-28T14:57:14.999Z</time></trkpt><trkpt lat="37.878236517403785" lon="15.187245287082002"><ele>168.0</ele><time>2026-03-28T14:57:15.999Z</time></trkpt><trkpt lat="37.87825192235379" lon="15.187409849121732"><ele>168.0</ele><time>2026-03-28T14:57:16.999Z</time></trkpt><trkpt lat="37.878257035270494" lon="15.187574301977389"><ele>168.0</ele><time>2026-03-28T14:57:17.999Z</time></trkpt><trkpt lat="37.87827706702935" lon="15.187740600881556"><ele>164.25</ele><time>2026-03-28T14:57:18.999Z</time></trkpt><trkpt lat="37.878274811582315" lon="15.187913538402457"><ele>160.5</ele><time>2026-03-28T14:57:19.999Z</time></trkpt><trkpt lat="37.878280336897475" lon="15.188071664978608"><ele>156.75</ele><time>2026-03-28T14:57:20.999Z</time></trkpt><trkpt lat="37.87828545491119" lon="15.188219922489896"><ele>153.0</ele><time>2026-03-28T14:57:21.999Z</time></trkpt><trkpt lat="37.878278493516575" lon="15.188372966906451"><ele>152.75</ele><time>2026-03-28T14:57:22.999Z</time></trkpt><trkpt lat="37.8782492634926" lon="15.188509329309811"><ele>152.5</ele><time>2026-03-28T14:57:23.999Z</time></trkpt><trkpt lat="37.87820223734795" lon="15.188647007146738"><ele>152.25</ele><time>2026-03-28T14:57:24.999Z</time></trkpt><trkpt lat="37.87813527868523" lon="15.18878402954928"><ele>152.0</ele><time>2026-03-28T14:57:25.999Z</time></trkpt><trkpt lat="37.878051514026296" lon="15.188911715244606"><ele>155.75</ele><time>2026-03-28T14:57:26.999Z</time></trkpt><trkpt lat="37.877953383957546" lon="15.18902385159166"><ele>159.5</ele><time>2026-03-28T14:57:28Z</time></trkpt><trkpt lat="37.877845389058216" lon="15.18912751866205"><ele>163.25</ele><time>2026-03-28T14:57:29Z</time></trkpt><trkpt lat="37.87773315035534" lon="15.18923503844067"><ele>167.0</ele><time>2026-03-28T14:57:30Z</time></trkpt><trkpt lat="37.87762333705489" lon="15.189340361342005"><ele>163.25</ele><time>2026-03-28T14:57:31Z</time></trkpt><trkpt lat="37.877512598231995" lon="15.1894489149557"><ele>159.5</ele><time>2026-03-28T14:57:32Z</time></trkpt><trkpt lat="37.87739647438542" lon="15.189561849100318"><ele>155.75</ele><time>2026-03-28T14:57:33Z</time></trkpt><trkpt lat="37.87727589719977" lon="15.1896726602734"><ele>152.0</ele><time>2026-03-28T14:57:34Z</time></trkpt><trkpt lat="37.87715001617529" lon="15.189781323376351"><ele>151.5</ele><time>2026-03-28T14:57:35Z</time></trkpt><trkpt lat="37.87702341241863" lon="15.189879798042531"><ele>151.0</ele><time>2026-03-28T14:57:36Z</time></trkpt><trkpt lat="37.876895519228995" lon="15.18997168436509"><ele>150.5</ele><time>2026-03-28T14:57:37Z</time></trkpt><trkpt lat="37.87676976298912" lon="15.190055542970489"><ele>150.0</ele><time>2026-03-28T14:57:38Z</time></trkpt><trkpt lat="37.876645777868504" lon="15.19013536840721"><ele>150.0</ele><time>2026-03-28T14:57:39Z</time></trkpt><trkpt lat="37.8765247999963" lon="15.190213561672788"><ele>150.0</ele><time>2026-03-28T14:57:40Z</time></trkpt><trkpt lat="37.8764046601483" lon="15.190292281888052"><ele>150.0</ele><time>2026-03-28T14:57:41Z</time></trkpt><trkpt lat="37.87628215759584" lon="15.1903729870941"><ele>150.0</ele><time>2026-03-28T14:57:42Z</time></trkpt><trkpt lat="37.87615734708165" lon="15.190456289975725"><ele>150.0</ele><time>2026-03-28T14:57:43Z</time></trkpt><trkpt lat="37.87603234838704" lon="15.190538035446789"><ele>150.0</ele><time>2026-03-28T14:57:44Z</time></trkpt><trkpt lat="37.87590494153948" lon="15.190619308632417"><ele>150.0</ele><time>2026-03-28T14:57:45Z</time></trkpt><trkpt lat="37.87577498774422" lon="15.190701311153765"><ele>150.0</ele><time>2026-03-28T14:57:46Z</time></trkpt><trkpt lat="37.87564591172973" lon="15.190784267899273"><ele>149.0</ele><time>2026-03-28T14:57:47Z</time></trkpt><trkpt lat="37.87551652665003" lon="15.19086738888713"><ele>148.0</ele><time>2026-03-28T14:57:48Z</time></trkpt><trkpt lat="37.87538812051131" lon="15.190949439425061"><ele>147.0</ele><time>2026-03-28T14:57:49Z</time></trkpt><trkpt lat="37.87525716439198" lon="15.191029634094749"><ele>146.0</ele><time>2026-03-28T14:57:50Z</time></trkpt><trkpt lat="37.87512814469124" lon="15.191101502969081"><ele>143.75</ele><time>2026-03-28T14:57:51Z</time></trkpt><trkpt lat="37.87499885830302" lon="15.191170809528284"><ele>141.5</ele><time>2026-03-28T14:57:52Z</time></trkpt><trkpt lat="37.8748669815192" lon="15.191236151601474"><ele>139.25</ele><time>2026-03-28T14:57:53Z</time></trkpt><trkpt lat="37.8747274460525" lon="15.19130551555179"><ele>137.0</ele><time>2026-03-28T14:57:54Z</time></trkpt><trkpt lat="37.87458077814692" lon="15.191375416479518"><ele>137.0</ele><time>2026-03-28T14:57:55Z</time></trkpt><trkpt lat="37.874425143441584" lon="15.191445746881865"><ele>137.0</ele><time>2026-03-28T14:57:56Z</time></trkpt><trkpt lat="37.87426419397393" lon="15.191508780548622"><ele>137.0</ele><time>2026-03-28T14:57:57Z</time></trkpt><trkpt lat="37.874100444745764" lon="15.191565364423624"><ele>136.33333333333331</ele><time>2026-03-28T14:57:58Z</time></trkpt><trkpt lat="37.873935959043315" lon="15.191621457597856"><ele>135.66666666666666</ele><time>2026-03-28T14:57:59Z</time></trkpt><trkpt lat="37.873771433242624" lon="15.191678521311983"><ele>135.0</ele><time>2026-03-28T14:58:00Z</time></trkpt><trkpt lat="37.87360940345949" lon="15.19173445923105"><ele>135.0</ele><time>2026-03-28T14:58:01Z</time></trkpt><trkpt lat="37.87344797766848" lon="15.19179078111261"><ele>135.0</ele><time>2026-03-28T14:58:02Z</time></trkpt><trkpt lat="37.87328659187526" lon="15.191847244561504"><ele>135.0</ele><time>2026-03-28T14:58:03Z</time></trkpt><trkpt lat="37.873130845660285" lon="15.191901227369678"><ele>133.0</ele><time>2026-03-28T14:58:04Z</time></trkpt><trkpt lat="37.87297446533958" lon="15.19195519639158"><ele>131.0</ele><time>2026-03-28T14:58:05Z</time></trkpt><trkpt lat="37.87282286960133" lon="15.192005911791526"><ele>129.0</ele><time>2026-03-28T14:58:06Z</time></trkpt><trkpt lat="37.87267416638171" lon="15.192055763085243"><ele>129.0</ele><time>2026-03-28T14:58:07Z</time></trkpt><trkpt lat="37.87252686748204" lon="15.192105328657936"><ele>129.0</ele><time>2026-03-28T14:58:08Z</time></trkpt><trkpt lat="37.87238321009881" lon="15.192152496510097"><ele>129.0</ele><time>2026-03-28T14:58:09Z</time></trkpt><trkpt lat="37.87223744050687" lon="15.192199627234844"><ele>129.0</ele><time>2026-03-28T14:58:10Z</time></trkpt><trkpt lat="37.87209099849885" lon="15.192247486189132"><ele>129.0</ele><time>2026-03-28T14:58:11Z</time></trkpt><trkpt lat="37.871947595083896" lon="15.192293210363863"><ele>129.0</ele><time>2026-03-28T14:58:12Z</time></trkpt><trkpt lat="37.871810393397254" lon="15.192336103674814"><ele>129.0</ele><time>2026-03-28T14:58:13Z</time></trkpt><trkpt lat="37.87167301001396" lon="15.19237708801026"><ele>129.5</ele><time>2026-03-28T14:58:14Z</time></trkpt><trkpt lat="37.87153433203012" lon="15.192416493845672"><ele>130.0</ele><time>2026-03-28T14:58:15Z</time></trkpt><trkpt lat="37.871391845875614" lon="15.19245466126474"><ele>130.5</ele><time>2026-03-28T14:58:16Z</time></trkpt><trkpt lat="37.871243914467236" lon="15.192500808186418"><ele>131.0</ele><time>2026-03-28T14:58:17Z</time></trkpt><trkpt lat="37.871091172108834" lon="15.192545568359721"><ele>130.33333333333331</ele><time>2026-03-28T14:58:18Z</time></trkpt><trkpt lat="37.87093744291444" lon="15.192601972810325"><ele>129.66666666666666</ele><time>2026-03-28T14:58:19Z</time></trkpt><trkpt lat="37.87078268348512" lon="15.192679873567183"><ele>129.0</ele><time>2026-03-28T14:58:20Z</time></trkpt><trkpt lat="37.87063566900936" lon="15.192779862989532"><ele>129.0</ele><time>2026-03-28T14:58:21Z</time></trkpt><trkpt lat="37.87049395231712" lon="15.192899323540782"><ele>129.0</ele><time>2026-03-28T14:58:22Z</time></trkpt><trkpt lat="37.87035362114977" lon="15.193028326359267"><ele>129.0</ele><time>2026-03-28T14:58:23Z</time></trkpt><trkpt lat="37.87021351637615" lon="15.193159887933094"><ele>127.33333333333334</ele><time>2026-03-28T14:58:24Z</time></trkpt><trkpt lat="37.87007382025225" lon="15.193287487092768"><ele>125.66666666666667</ele><time>2026-03-28T14:58:25Z</time></trkpt><trkpt lat="37.869937173104816" lon="15.193411516834157"><ele>124.0</ele><time>2026-03-28T14:58:26Z</time></trkpt><trkpt lat="37.869802180815576" lon="15.193534422588185"><ele>124.0</ele><time>2026-03-28T14:58:27Z</time></trkpt><trkpt lat="37.86966629865062" lon="15.193657978725204"><ele>124.0</ele><time>2026-03-28T14:58:28Z</time></trkpt><trkpt lat="37.86953501051146" lon="15.193778302524606"><ele>124.0</ele><time>2026-03-28T14:58:29Z</time></trkpt><trkpt lat="37.86940433310922" lon="15.193901503791896"><ele>122.33333333333334</ele><time>2026-03-28T14:58:30Z</time></trkpt><trkpt lat="37.86927715524059" lon="15.194029383903683"><ele>120.66666666666666</ele><time>2026-03-28T14:58:31Z</time></trkpt><trkpt lat="37.869151971977836" lon="15.194170563938302"><ele>119.0</ele><time>2026-03-28T14:58:32Z</time></trkpt><trkpt lat="37.86903716481288" lon="15.19432550702789"><ele>119.0</ele><time>2026-03-28T14:58:33Z</time></trkpt><trkpt lat="37.86892470768256" lon="15.19449771995083"><ele>119.0</ele><time>2026-03-28T14:58:34Z</time></trkpt><trkpt lat="37.86881232416468" lon="15.194679068624067"><ele>119.0</ele><time>2026-03-28T14:58:35Z</time></trkpt><trkpt lat="37.86870091898976" lon="15.19486513213383"><ele>119.66666666666666</ele><time>2026-03-28T14:58:36Z</time></trkpt><trkpt lat="37.868586219948945" lon="15.195058914423987"><ele>120.33333333333334</ele><time>2026-03-28T14:58:37Z</time></trkpt><trkpt lat="37.86847113541405" lon="15.195251676892925"><ele>121.0</ele><time>2026-03-28T14:58:38Z</time></trkpt><trkpt lat="37.86835441675495" lon="15.195446708951927"><ele>119.33333333333334</ele><time>2026-03-28T14:58:39Z</time></trkpt><trkpt lat="37.8682398708492" lon="15.195636568822557"><ele>117.66666666666666</ele><time>2026-03-28T14:58:40Z</time></trkpt><trkpt lat="37.86812557863927" lon="15.195826199176285"><ele>116.0</ele><time>2026-03-28T14:58:41Z</time></trkpt><trkpt lat="37.86801305995896" lon="15.196011946015577"><ele>116.0</ele><time>2026-03-28T14:58:42Z</time></trkpt><trkpt lat="37.867903373966634" lon="15.196196936136491"><ele>116.0</ele><time>2026-03-28T14:58:43Z</time></trkpt><trkpt lat="37.8677954415814" lon="15.19637981240635"><ele>116.0</ele><time>2026-03-28T14:58:44Z</time></trkpt><trkpt lat="37.86768626293813" lon="15.196563282610763"><ele>115.0</ele><time>2026-03-28T14:58:45Z</time></trkpt><trkpt lat="37.86757724610992" lon="15.19674448191642"><ele>114.0</ele><time>2026-03-28T14:58:46Z</time></trkpt><trkpt lat="37.86746931354201" lon="15.19692098611327"><ele>113.0</ele><time>2026-03-28T14:58:47Z</time></trkpt><trkpt lat="37.86736065293356" lon="15.197096351248833"><ele>113.0</ele><time>2026-03-28T14:58:48Z</time></trkpt><trkpt lat="37.867253274984236" lon="15.19726341288244"><ele>113.0</ele><time>2026-03-28T14:58:49Z</time></trkpt><trkpt lat="37.867156942651796" lon="15.197430984884408"><ele>113.0</ele><time>2026-03-28T14:58:50Z</time></trkpt><trkpt lat="37.86708973185363" lon="15.197610754357973"><ele>114.33333333333333</ele><time>2026-03-28T14:58:51Z</time></trkpt><trkpt lat="37.86705493452627" lon="15.197798404503075"><ele>115.66666666666666</ele><time>2026-03-28T14:58:52Z</time></trkpt><trkpt lat="37.86705102535261" lon="15.197995381165889"><ele>117.0</ele><time>2026-03-28T14:58:53Z</time></trkpt><trkpt lat="37.867082137917706" lon="15.198179462864802"><ele>117.0</ele><time>2026-03-28T14:58:54Z</time></trkpt><trkpt lat="37.867130345247716" lon="15.198356608920028"><ele>117.0</ele><time>2026-03-28T14:58:55Z</time></trkpt><trkpt lat="37.86719747049492" lon="15.19851060097667"><ele>117.0</ele><time>2026-03-28T14:58:56Z</time></trkpt><trkpt lat="37.86729364387456" lon="15.198631552591062"><ele>117.0</ele><time>2026-03-28T14:58:57Z</time></trkpt><trkpt lat="37.86741544229854" lon="15.198722410867667"><ele>117.0</ele><time>2026-03-28T14:58:58Z</time></trkpt><trkpt lat="37.86754767535101" lon="15.198807015852923"><ele>117.0</ele><time>2026-03-28T14:58:59Z</time></trkpt><trkpt lat="37.86768764925588" lon="15.19888923724497"><ele>117.0</ele><time>2026-03-28T14:59:00Z</time></trkpt><trkpt lat="37.867829016640876" lon="15.198976843206223"><ele>116.33333333333334</ele><time>2026-03-28T14:59:01Z</time></trkpt><trkpt lat="37.86797328561989" lon="15.199069011185856"><ele>115.66666666666667</ele><time>2026-03-28T14:59:02Z</time></trkpt><trkpt lat="37.86811646044581" lon="15.1991619950202"><ele>115.0</ele><time>2026-03-28T14:59:03Z</time></trkpt><trkpt lat="37.86825287527298" lon="15.199260926390185"><ele>115.0</ele><time>2026-03-28T14:59:04Z</time></trkpt><trkpt lat="37.86837281060355" lon="15.199374923422573"><ele>115.0</ele><time>2026-03-28T14:59:05Z</time></trkpt><trkpt lat="37.868480319876596" lon="15.199504709336058"><ele>115.0</ele><time>2026-03-28T14:59:06Z</time></trkpt><trkpt lat="37.86856887365577" lon="15.199654320709445"><ele>115.0</ele><time>2026-03-28T14:59:07Z</time></trkpt><trkpt lat="37.868636947065426" lon="15.199823415144412"><ele>116.25</ele><time>2026-03-28T14:59:08Z</time></trkpt><trkpt lat="37.86868528391328" lon="15.199997001461453"><ele>117.5</ele><time>2026-03-28T14:59:09Z</time></trkpt><trkpt lat="37.868711964871586" lon="15.200176554014503"><ele>118.75</ele><time>2026-03-28T14:59:10Z</time></trkpt><trkpt lat="37.86871367480026" lon="15.200350150885743"><ele>120.0</ele><time>2026-03-28T14:59:11Z</time></trkpt><trkpt lat="37.868700395802364" lon="15.200527478923744"><ele>122.33333333333334</ele><time>2026-03-28T14:59:12Z</time></trkpt><trkpt lat="37.86866747045669" lon="15.200707733896326"><ele>124.66666666666667</ele><time>2026-03-28T14:59:13Z</time></trkpt><trkpt lat="37.868608447886295" lon="15.200884625652865"><ele>127.0</ele><time>2026-03-28T14:59:14Z</time></trkpt><trkpt lat="37.86852317048017" lon="15.201052551106693"><ele>124.0</ele><time>2026-03-28T14:59:15Z</time></trkpt><trkpt lat="37.868416758609406" lon="15.20120863446624"><ele>121.0</ele><time>2026-03-28T14:59:16Z</time></trkpt><trkpt lat="37.86830619410234" lon="15.201348627013779"><ele>118.0</ele><time>2026-03-28T14:59:17Z</time></trkpt><trkpt lat="37.868202607531344" lon="15.201475596938819"><ele>122.25</ele><time>2026-03-28T14:59:18Z</time></trkpt><trkpt lat="37.86811131973927" lon="15.201621647765808"><ele>126.5</ele><time>2026-03-28T14:59:19Z</time></trkpt><trkpt lat="37.86803922111322" lon="15.201787894705834"><ele>130.75</ele><time>2026-03-28T14:59:20Z</time></trkpt><trkpt lat="37.8679939809292" lon="15.201967333905506"><ele>135.0</ele><time>2026-03-28T14:59:21Z</time></trkpt><trkpt lat="37.86796788073341" lon="15.202157528805444"><ele>138.33333333333334</ele><time>2026-03-28T14:59:22Z</time></trkpt><trkpt lat="37.867957507544254" lon="15.202360071660564"><ele>141.66666666666669</ele><time>2026-03-28T14:59:23Z</time></trkpt><trkpt lat="37.86795579929402" lon="15.202568165322848"><ele>145.0</ele><time>2026-03-28T14:59:24Z</time></trkpt><trkpt lat="37.86795307021432" lon="15.202776862156036"><ele>145.0</ele><time>2026-03-28T14:59:25Z</time></trkpt><trkpt lat="37.867951879859255" lon="15.202970786786445"><ele>145.0</ele><time>2026-03-28T14:59:26Z</time></trkpt><trkpt lat="37.867966891913234" lon="15.203152711450079"><ele>145.0</ele><time>2026-03-28T14:59:27Z</time></trkpt><trkpt lat="37.86801736976392" lon="15.203327542183409"><ele>145.0</ele><time>2026-03-28T14:59:28Z</time></trkpt><trkpt lat="37.868103923841055" lon="15.203484867414577"><ele>144.66666666666669</ele><time>2026-03-28T14:59:29Z</time></trkpt><trkpt lat="37.868209883193124" lon="15.203638126641588"><ele>144.33333333333334</ele><time>2026-03-28T14:59:30Z</time></trkpt><trkpt lat="37.86832528086086" lon="15.203785606949268"><ele>144.0</ele><time>2026-03-28T14:59:31Z</time></trkpt><trkpt lat="37.86842971159272" lon="15.203931108778471"><ele>142.75</ele><time>2026-03-28T14:59:32Z</time></trkpt><trkpt lat="37.868532970721425" lon="15.204062949161354"><ele>141.5</ele><time>2026-03-28T14:59:33Z</time></trkpt><trkpt lat="37.86862428692435" lon="15.204149288630996"><ele>140.25</ele><time>2026-03-28T14:59:34Z</time></trkpt><trkpt lat="37.86874547509093" lon="15.20421223600362"><ele>139.0</ele><time>2026-03-28T14:59:35Z</time></trkpt><trkpt lat="37.868883003686335" lon="15.204227451938648"><ele>139.0</ele><time>2026-03-28T14:59:36Z</time></trkpt><trkpt lat="37.86901886323682" lon="15.204205456466237"><ele>139.0</ele><time>2026-03-28T14:59:37Z</time></trkpt><trkpt lat="37.869139416253404" lon="15.204137876347435"><ele>139.0</ele><time>2026-03-28T14:59:38Z</time></trkpt><trkpt lat="37.86925609580296" lon="15.204072072816484"><ele>139.0</ele><time>2026-03-28T14:59:39Z</time></trkpt><trkpt lat="37.86937517729327" lon="15.203994000775117"><ele>144.0</ele><time>2026-03-28T14:59:40Z</time></trkpt><trkpt lat="37.869494715042215" lon="15.203904056680576"><ele>149.0</ele><time>2026-03-28T14:59:41Z</time></trkpt><trkpt lat="37.86963347536599" lon="15.203851172906873"><ele>154.0</ele><time>2026-03-28T14:59:42Z</time></trkpt><trkpt lat="37.86978316796607" lon="15.203818670251602"><ele>159.0</ele><time>2026-03-28T14:59:43Z</time></trkpt><trkpt lat="37.86993993863388" lon="15.203799197010289"><ele>159.0</ele><time>2026-03-28T14:59:44Z</time></trkpt><trkpt lat="37.8700989156364" lon="15.203800712734633"><ele>159.0</ele><time>2026-03-28T14:59:45Z</time></trkpt><trkpt lat="37.870259660282315" lon="15.203819080796507"><ele>159.0</ele><time>2026-03-28T14:59:46Z</time></trkpt><trkpt lat="37.87042192640353" lon="15.203840949594358"><ele>158.33333333333334</ele><time>2026-03-28T14:59:47Z</time></trkpt><trkpt lat="37.87058282192799" lon="15.203863963133639"><ele>157.66666666666669</ele><time>2026-03-28T14:59:48Z</time></trkpt><trkpt lat="37.870745842182394" lon="15.203887275375102"><ele>157.0</ele><time>2026-03-28T14:59:49Z</time></trkpt><trkpt lat="37.870910432681825" lon="15.203910704487889"><ele>159.66666666666669</ele><time>2026-03-28T14:59:50Z</time></trkpt><trkpt lat="37.871077280333324" lon="15.203932003328257"><ele>162.33333333333334</ele><time>2026-03-28T14:59:51Z</time></trkpt><trkpt lat="37.87124311507062" lon="15.203952738871042"><ele>165.0</ele><time>2026-03-28T14:59:52Z</time></trkpt><trkpt lat="37.87139655698127" lon="15.20397146861586"><ele>165.0</ele><time>2026-03-28T14:59:53Z</time></trkpt><trkpt lat="37.87153382142591" lon="15.20399615815823"><ele>165.0</ele><time>2026-03-28T14:59:54Z</time></trkpt><trkpt lat="37.871654151158594" lon="15.204043019068424"><ele>165.0</ele><time>2026-03-28T14:59:55Z</time></trkpt><trkpt lat="37.87176226174682" lon="15.204126042633526"><ele>165.0</ele><time>2026-03-28T14:59:56Z</time></trkpt><trkpt lat="37.8718569438125" lon="15.204238336249151"><ele>165.0</ele><time>2026-03-28T14:59:57Z</time></trkpt><trkpt lat="37.871924026569346" lon="15.204383920091937"><ele>165.0</ele><time>2026-03-28T14:59:58Z</time></trkpt><trkpt lat="37.87196602219633" lon="15.204550549308454"><ele>165.0</ele><time>2026-03-28T14:59:59Z</time></trkpt><trkpt lat="37.87197381402665" lon="15.204724971018948"><ele>165.0</ele><time>2026-03-28T15:00:00Z</time></trkpt><trkpt lat="37.87195467113058" lon="15.204887503577016"><ele>165.5</ele><time>2026-03-28T15:00:01Z</time></trkpt><trkpt lat="37.871926236372246" lon="15.205035563939743"><ele>166.0</ele><time>2026-03-28T15:00:02Z</time></trkpt><trkpt lat="37.87189870526765" lon="15.205177880920122"><ele>166.5</ele><time>2026-03-28T15:00:03Z</time></trkpt><trkpt lat="37.87187012873686" lon="15.2053271732215"><ele>167.0</ele><time>2026-03-28T15:00:04Z</time></trkpt><trkpt lat="37.87184411787418" lon="15.205484843895077"><ele>167.0</ele><time>2026-03-28T15:00:05Z</time></trkpt><trkpt lat="37.871818534752805" lon="15.205656046452113"><ele>167.0</ele><time>2026-03-28T15:00:06Z</time></trkpt><trkpt lat="37.87179246081509" lon="15.205836543367383"><ele>167.0</ele><time>2026-03-28T15:00:07Z</time></trkpt><trkpt lat="37.871763231974086" lon="15.206023805961362"><ele>167.0</ele><time>2026-03-28T15:00:08Z</time></trkpt><trkpt lat="37.87172772019388" lon="15.20621174807158"><ele>166.0</ele><time>2026-03-28T15:00:09Z</time></trkpt><trkpt lat="37.87169328313727" lon="15.206403739817256"><ele>165.0</ele><time>2026-03-28T15:00:10Z</time></trkpt><trkpt lat="37.871660375090336" lon="15.206608345699452"><ele>164.0</ele><time>2026-03-28T15:00:11Z</time></trkpt><trkpt lat="37.87162768472129" lon="15.206830682354752"><ele>164.0</ele><time>2026-03-28T15:00:12Z</time></trkpt><trkpt lat="37.87159118562401" lon="15.207064072532717"><ele>164.0</ele><time>2026-03-28T15:00:13Z</time></trkpt><trkpt lat="37.87155038141627" lon="15.207307895552772"><ele>164.0</ele><time>2026-03-28T15:00:14Z</time></trkpt><trkpt lat="37.871507554153936" lon="15.207562611472138"><ele>163.33333333333331</ele><time>2026-03-28T15:00:15Z</time></trkpt><trkpt lat="37.87146534700443" lon="15.207823607932069"><ele>162.66666666666666</ele><time>2026-03-28T15:00:16Z</time></trkpt><trkpt lat="37.87142168973623" lon="15.208092870469445"><ele>162.0</ele><time>2026-03-28T15:00:17Z</time></trkpt><trkpt lat="37.87137777721394" lon="15.208367450650037"><ele>162.0</ele><time>2026-03-28T15:00:18Z</time></trkpt><trkpt lat="37.87133451491363" lon="15.20863845037761"><ele>162.0</ele><time>2026-03-28T15:00:19Z</time></trkpt><trkpt lat="37.87129470773605" lon="15.208922360700468"><ele>162.0</ele><time>2026-03-28T15:00:20Z</time></trkpt><trkpt lat="37.87123156558249" lon="15.209214285703219"><ele>165.0</ele><time>2026-03-28T15:00:21Z</time></trkpt><trkpt lat="37.871180459272935" lon="15.209524495862436"><ele>168.0</ele><time>2026-03-28T15:00:22Z</time></trkpt><trkpt lat="37.871129634830595" lon="15.209833214960382"><ele>169.0</ele><time>2026-03-28T15:00:23Z</time></trkpt><trkpt lat="37.871087775703586" lon="15.21010028818103"><ele>170.0</ele><time>2026-03-28T15:00:24Z</time></trkpt><trkpt lat="37.87104437670901" lon="15.210367519564493"><ele>171.0</ele><time>2026-03-28T15:00:25Z</time></trkpt><trkpt lat="37.87100548406502" lon="15.210619355598183"><ele>172.33333333333334</ele><time>2026-03-28T15:00:26Z</time></trkpt><trkpt lat="37.87096487307039" lon="15.21085822226304"><ele>173.66666666666669</ele><time>2026-03-28T15:00:27Z</time></trkpt><trkpt lat="37.87092590734687" lon="15.211087377778979"><ele>175.0</ele><time>2026-03-28T15:00:28Z</time></trkpt><trkpt lat="37.870887071102736" lon="15.211307751497278"><ele>166.66666666666669</ele><time>2026-03-28T15:00:29Z</time></trkpt><trkpt lat="37.87085175516841" lon="15.211520033994129"><ele>158.33333333333334</ele><time>2026-03-28T15:00:30.001Z</time></trkpt><trkpt lat="37.87081750023315" lon="15.211722845542553"><ele>150.0</ele><time>2026-03-28T15:00:31.001Z</time></trkpt><trkpt lat="37.87078448382492" lon="15.211915578762731"><ele>150.0</ele><time>2026-03-28T15:00:32.001Z</time></trkpt><trkpt lat="37.87075526392212" lon="15.212086263182723"><ele>150.0</ele><time>2026-03-28T15:00:33.001Z</time></trkpt><trkpt lat="37.87074312187017" lon="15.212244428407065"><ele>150.0</ele><time>2026-03-28T15:00:34.001Z</time></trkpt><trkpt lat="37.8707709588027" lon="15.212392675411031"><ele>150.0</ele><time>2026-03-28T15:00:35.001Z</time></trkpt><trkpt lat="37.87083302633301" lon="15.212527889231017"><ele>149.75</ele><time>2026-03-28T15:00:36.001Z</time></trkpt><trkpt lat="37.87093112412988" lon="15.212626989813474"><ele>149.5</ele><time>2026-03-28T15:00:37.001Z</time></trkpt><trkpt lat="37.87104394493067" lon="15.212722579506705"><ele>149.25</ele><time>2026-03-28T15:00:38.001Z</time></trkpt><trkpt lat="37.87114248408073" lon="15.21283871457263"><ele>149.0</ele><time>2026-03-28T15:00:39.001Z</time></trkpt><trkpt lat="37.87120869754534" lon="15.212948727847696"><ele>150.83333333333331</ele><time>2026-03-28T15:00:40.001Z</time></trkpt><trkpt lat="37.8712560209407" lon="15.213054618538777"><ele>152.66666666666666</ele><time>2026-03-28T15:00:41.001Z</time></trkpt><trkpt lat="37.87129115902373" lon="15.21316885647819"><ele>154.5</ele><time>2026-03-28T15:00:42.001Z</time></trkpt><trkpt lat="37.871313758276884" lon="15.213277453848205"><ele>156.33333333333334</ele><time>2026-03-28T15:00:43.001Z</time></trkpt><trkpt lat="37.87132739387586" lon="15.213372834751791"><ele>158.16666666666669</ele><time>2026-03-28T15:00:44.001Z</time></trkpt><trkpt lat="37.87135242260269" lon="15.213452837399915"><ele>160.0</ele><time>2026-03-28T15:00:45.001Z</time></trkpt><trkpt lat="37.87140145941005" lon="15.213524884655174"><ele>160.0</ele><time>2026-03-28T15:00:46.001Z</time></trkpt><trkpt lat="37.87147971517875" lon="15.213573126820831"><ele>160.0</ele><time>2026-03-28T15:00:47.001Z</time></trkpt><trkpt lat="37.87157609218558" lon="15.213591382729547"><ele>160.0</ele><time>2026-03-28T15:00:48.001Z</time></trkpt><trkpt lat="37.87167974008127" lon="15.213602019337113"><ele>160.0</ele><time>2026-03-28T15:00:49.001Z</time></trkpt><trkpt lat="37.871775372945585" lon="15.213612606928622"><ele>160.0</ele><time>2026-03-28T15:00:50.001Z</time></trkpt><trkpt lat="37.871853461095505" lon="15.213628986760725"><ele>158.33333333333334</ele><time>2026-03-28T15:00:51.001Z</time></trkpt><trkpt lat="37.87195970339484" lon="15.213666036851695"><ele>156.66666666666669</ele><time>2026-03-28T15:00:53.001Z</time></trkpt><trkpt lat="37.87204450758001" lon="15.213735819475632"><ele>155.0</ele><time>2026-03-28T15:00:55.001Z</time></trkpt><trkpt lat="37.87207355835118" lon="15.213808647619718"><ele>153.33333333333334</ele><time>2026-03-28T15:00:56.001Z</time></trkpt><trkpt lat="37.87207647428618" lon="15.213900769012682"><ele>151.66666666666666</ele><time>2026-03-28T15:00:57.001Z</time></trkpt><trkpt lat="37.87202851472082" lon="15.213989671717645"><ele>150.0</ele><time>2026-03-28T15:00:58.001Z</time></trkpt><trkpt lat="37.872000008532645" lon="15.214112871497631"><ele>150.0</ele><time>2026-03-28T15:00:59.001Z</time></trkpt><trkpt lat="37.87195444525497" lon="15.214241448326788"><ele>150.0</ele><time>2026-03-28T15:01:00.001Z</time></trkpt><trkpt lat="37.87190576147077" lon="15.214378181460232"><ele>150.0</ele><time>2026-03-28T15:01:01.001Z</time></trkpt><trkpt lat="37.871855846914706" lon="15.214521151783178"><ele>150.0</ele><time>2026-03-28T15:01:02.001Z</time></trkpt><trkpt lat="37.87180740994216" lon="15.214669497592116"><ele>149.25</ele><time>2026-03-28T15:01:03.001Z</time></trkpt><trkpt lat="37.871756919868034" lon="15.214822586215927"><ele>148.5</ele><time>2026-03-28T15:01:04.001Z</time></trkpt><trkpt lat="37.87170644685965" lon="15.214976668081086"><ele>147.75</ele><time>2026-03-28T15:01:05.001Z</time></trkpt><trkpt lat="37.871654639010565" lon="15.215131622499555"><ele>147.0</ele><time>2026-03-28T15:01:06.001Z</time></trkpt><trkpt lat="37.87160371822223" lon="15.215283996547415"><ele>147.0</ele><time>2026-03-28T15:01:07.001Z</time></trkpt><trkpt lat="37.871555096711134" lon="15.215428473642897"><ele>147.0</ele><time>2026-03-28T15:01:08.001Z</time></trkpt><trkpt lat="37.871508411403134" lon="15.215566014496707"><ele>147.0</ele><time>2026-03-28T15:01:09.001Z</time></trkpt><trkpt lat="37.87146447250937" lon="15.215699631420112"><ele>147.0</ele><time>2026-03-28T15:01:10.001Z</time></trkpt><trkpt lat="37.871421425988686" lon="15.215829630148889"><ele>149.25</ele><time>2026-03-28T15:01:11.001Z</time></trkpt><trkpt lat="37.87137894410837" lon="15.215958399030718"><ele>151.5</ele><time>2026-03-28T15:01:12.001Z</time></trkpt><trkpt lat="37.871334349473806" lon="15.216085437406734"><ele>153.75</ele><time>2026-03-28T15:01:13.001Z</time></trkpt><trkpt lat="37.871275101041306" lon="15.216214699671541"><ele>156.0</ele><time>2026-03-28T15:01:14.001Z</time></trkpt><trkpt lat="37.87119918620956" lon="15.216332939381687"><ele>156.0</ele><time>2026-03-28T15:01:15.001Z</time></trkpt><trkpt lat="37.871120850256865" lon="15.216418714618076"><ele>156.0</ele><time>2026-03-28T15:01:16.001Z</time></trkpt><trkpt lat="37.87102144991519" lon="15.216454203800824"><ele>156.0</ele><time>2026-03-28T15:01:17.001Z</time></trkpt><trkpt lat="37.87091981772988" lon="15.21650987231495"><ele>156.0</ele><time>2026-03-28T15:01:18.001Z</time></trkpt><trkpt lat="37.87082042125732" lon="15.216565355667418"><ele>156.0</ele><time>2026-03-28T15:01:19.001Z</time></trkpt><trkpt lat="37.870725636829164" lon="15.216623612986018"><ele>155.6</ele><time>2026-03-28T15:01:20.001Z</time></trkpt><trkpt lat="37.870632386953424" lon="15.216683974322867"><ele>155.2</ele><time>2026-03-28T15:01:21.001Z</time></trkpt><trkpt lat="37.870549593172846" lon="15.21675387513903"><ele>154.8</ele><time>2026-03-28T15:01:22.001Z</time></trkpt><trkpt lat="37.87046314634512" lon="15.216808894335397"><ele>154.4</ele><time>2026-03-28T15:01:23Z</time></trkpt><trkpt lat="37.8703747552238" lon="15.21683376420904"><ele>154.0</ele><time>2026-03-28T15:01:24Z</time></trkpt><trkpt lat="37.87029733879237" lon="15.216879746346812"><ele>154.0</ele><time>2026-03-28T15:01:25Z</time></trkpt><trkpt lat="37.87021630293611" lon="15.21689524330522"><ele>154.0</ele><time>2026-03-28T15:01:26Z</time></trkpt><trkpt lat="37.87014229082596" lon="15.216913294525208"><ele>154.0</ele><time>2026-03-28T15:01:27Z</time></trkpt><trkpt lat="37.87007889107345" lon="15.216953201452585"><ele>154.0</ele><time>2026-03-28T15:01:28Z</time></trkpt><trkpt lat="37.87001836618656" lon="15.217030790992226"><ele>154.0</ele><time>2026-03-28T15:01:29Z</time></trkpt><trkpt lat="37.869970963708816" lon="15.217135463760103"><ele>154.0</ele><time>2026-03-28T15:01:30Z</time></trkpt><trkpt lat="37.86994176779195" lon="15.217237727408785"><ele>155.2</ele><time>2026-03-28T15:01:31Z</time></trkpt><trkpt lat="37.869906576837565" lon="15.217344798909556"><ele>156.4</ele><time>2026-03-28T15:01:32Z</time></trkpt><trkpt lat="37.86984898973018" lon="15.217454067757389"><ele>157.6</ele><time>2026-03-28T15:01:33Z</time></trkpt><trkpt lat="37.86977449538917" lon="15.217531725613718"><ele>158.8</ele><time>2026-03-28T15:01:34Z</time></trkpt><trkpt lat="37.86969001333258" lon="15.217624874734652"><ele>160.0</ele><time>2026-03-28T15:01:35Z</time></trkpt><trkpt lat="37.869589770895665" lon="15.217733718704636"><ele>160.0</ele><time>2026-03-28T15:01:36Z</time></trkpt><trkpt lat="37.86946754096993" lon="15.217863932576426"><ele>160.0</ele><time>2026-03-28T15:01:37Z</time></trkpt><trkpt lat="37.86936046652234" lon="15.217976366662798"><ele>160.0</ele><time>2026-03-28T15:01:38Z</time></trkpt><trkpt lat="37.869256384317914" lon="15.21806840056086"><ele>160.0</ele><time>2026-03-28T15:01:39Z</time></trkpt><trkpt lat="37.86915051503244" lon="15.218134051710567"><ele>160.16666666666669</ele><time>2026-03-28T15:01:40Z</time></trkpt><trkpt lat="37.86906918488501" lon="15.218189143840751"><ele>160.33333333333334</ele><time>2026-03-28T15:01:41Z</time></trkpt><trkpt lat="37.86898923497412" lon="15.21819092058136"><ele>160.5</ele><time>2026-03-28T15:01:42Z</time></trkpt><trkpt lat="37.86893547560355" lon="15.218126985931969"><ele>160.66666666666666</ele><time>2026-03-28T15:01:43Z</time></trkpt><trkpt lat="37.868900560896634" lon="15.21804460260597"><ele>160.83333333333331</ele><time>2026-03-28T15:01:44Z</time></trkpt><trkpt lat="37.868846034641585" lon="15.217942231404166"><ele>161.0</ele><time>2026-03-28T15:01:45Z</time></trkpt><trkpt lat="37.86878127435034" lon="15.217825576047552"><ele>160.0</ele><time>2026-03-28T15:01:46Z</time></trkpt><trkpt lat="37.86868180590534" lon="15.217722820798777"><ele>159.0</ele><time>2026-03-28T15:01:47Z</time></trkpt><trkpt lat="37.86855512997293" lon="15.21763816234357"><ele>158.0</ele><time>2026-03-28T15:01:48Z</time></trkpt><trkpt lat="37.86840076463383" lon="15.217572977374703"><ele>157.0</ele><time>2026-03-28T15:01:49Z</time></trkpt><trkpt lat="37.86824541931997" lon="15.217528447037063"><ele>157.0</ele><time>2026-03-28T15:01:50Z</time></trkpt><trkpt lat="37.868097146507985" lon="15.217488283071196"><ele>157.0</ele><time>2026-03-28T15:01:51Z</time></trkpt><trkpt lat="37.8679504965561" lon="15.217444464242883"><ele>157.0</ele><time>2026-03-28T15:01:52Z</time></trkpt><trkpt lat="37.8678087153624" lon="15.217399201379846"><ele>157.0</ele><time>2026-03-28T15:01:53Z</time></trkpt><trkpt lat="37.867680107283405" lon="15.217337506870914"><ele>152.79999999999998</ele><time>2026-03-28T15:01:54Z</time></trkpt><trkpt lat="37.86755650841919" lon="15.217299227198705"><ele>148.6</ele><time>2026-03-28T15:01:55Z</time></trkpt><trkpt lat="37.86744673340851" lon="15.217266417126986"><ele>144.39999999999998</ele><time>2026-03-28T15:01:56Z</time></trkpt><trkpt lat="37.86735216996571" lon="15.217211008542675"><ele>140.2</ele><time>2026-03-28T15:01:57Z</time></trkpt><trkpt lat="37.86725761329208" lon="15.217161333526809"><ele>136.0</ele><time>2026-03-28T15:01:58Z</time></trkpt><trkpt lat="37.867173705939194" lon="15.21708716963825"><ele>136.0</ele><time>2026-03-28T15:01:59Z</time></trkpt><trkpt lat="37.86706169360374" lon="15.21710068972756"><ele>136.0</ele><time>2026-03-28T15:02:00Z</time></trkpt><trkpt lat="37.866959956073934" lon="15.217135353669073"><ele>136.0</ele><time>2026-03-28T15:02:01Z</time></trkpt><trkpt lat="37.866866642834374" lon="15.217204820308602"><ele>136.0</ele><time>2026-03-28T15:02:02Z</time></trkpt><trkpt lat="37.86677838528097" lon="15.217277634665404"><ele>136.0</ele><time>2026-03-28T15:02:03Z</time></trkpt><trkpt lat="37.8666895039223" lon="15.217348349349214"><ele>136.2</ele><time>2026-03-28T15:02:04Z</time></trkpt><trkpt lat="37.86659744042513" lon="15.21741257459516"><ele>136.39999999999998</ele><time>2026-03-28T15:02:05Z</time></trkpt><trkpt lat="37.866494511891204" lon="15.217454988323345"><ele>136.6</ele><time>2026-03-28T15:02:06Z</time></trkpt><trkpt lat="37.86639608928905" lon="15.217514248278528"><ele>136.79999999999998</ele><time>2026-03-28T15:02:07Z</time></trkpt><trkpt lat="37.86629222854297" lon="15.217574128829844"><ele>137.0</ele><time>2026-03-28T15:02:08Z</time></trkpt><trkpt lat="37.86618772026187" lon="15.217633629994461"><ele>137.0</ele><time>2026-03-28T15:02:09Z</time></trkpt><trkpt lat="37.866085631972425" lon="15.217690923642003"><ele>137.0</ele><time>2026-03-28T15:02:10Z</time></trkpt><trkpt lat="37.86598543498887" lon="15.217745570022952"><ele>137.0</ele><time>2026-03-28T15:02:11Z</time></trkpt><trkpt lat="37.865893256723965" lon="15.217814479427645"><ele>137.0</ele><time>2026-03-28T15:02:12Z</time></trkpt><trkpt lat="37.865802861548374" lon="15.217855668718443"><ele>137.0</ele><time>2026-03-28T15:02:13Z</time></trkpt><trkpt lat="37.86571481966073" lon="15.21788989938239"><ele>135.16666666666666</ele><time>2026-03-28T15:02:14Z</time></trkpt><trkpt lat="37.86562833466635" lon="15.217909007182943"><ele>133.33333333333331</ele><time>2026-03-28T15:02:15.001Z</time></trkpt><trkpt lat="37.86554286062606" lon="15.217912887261305"><ele>131.5</ele><time>2026-03-28T15:02:16.001Z</time></trkpt><trkpt lat="37.865462193828776" lon="15.21790744900589"><ele>129.66666666666666</ele><time>2026-03-28T15:02:17.001Z</time></trkpt><trkpt lat="37.86538105978081" lon="15.217893449576394"><ele>127.83333333333333</ele><time>2026-03-28T15:02:18.001Z</time></trkpt><trkpt lat="37.86530491539784" lon="15.217869841273002"><ele>126.0</ele><time>2026-03-28T15:02:19.001Z</time></trkpt><trkpt lat="37.86522944867985" lon="15.217827720247513"><ele>126.0</ele><time>2026-03-28T15:02:20.001Z</time></trkpt><trkpt lat="37.86515541138047" lon="15.217770515862446"><ele>126.0</ele><time>2026-03-28T15:02:21.001Z</time></trkpt><trkpt lat="37.865075640570375" lon="15.217706711880837"><ele>126.0</ele><time>2026-03-28T15:02:22.001Z</time></trkpt><trkpt lat="37.8649872863648" lon="15.21765030420413"><ele>126.0</ele><time>2026-03-28T15:02:23.001Z</time></trkpt><trkpt lat="37.86488987125614" lon="15.217613916251839"><ele>126.0</ele><time>2026-03-28T15:02:24.001Z</time></trkpt><trkpt lat="37.86479768713872" lon="15.217608567773544"><ele>124.5</ele><time>2026-03-28T15:02:25.001Z</time></trkpt><trkpt lat="37.864713578215515" lon="15.217617349793606"><ele>123.0</ele><time>2026-03-28T15:02:26.001Z</time></trkpt><trkpt lat="37.86463530021539" lon="15.217627541962289"><ele>121.5</ele><time>2026-03-28T15:02:27.001Z</time></trkpt><trkpt lat="37.86455878957109" lon="15.217629014297813"><ele>120.0</ele><time>2026-03-28T15:02:28.001Z</time></trkpt><trkpt lat="37.86448674802411" lon="15.217613045045614"><ele>118.5</ele><time>2026-03-28T15:02:29.001Z</time></trkpt><trkpt lat="37.86442071256012" lon="15.217581001205303"><ele>117.0</ele><time>2026-03-28T15:02:30.001Z</time></trkpt><trkpt lat="37.86435878691177" lon="15.21753785297675"><ele>116.5</ele><time>2026-03-28T15:02:31.001Z</time></trkpt><trkpt lat="37.86425826508757" lon="15.217426795617794"><ele>116.0</ele><time>2026-03-28T15:02:33.001Z</time></trkpt><trkpt lat="37.86420624047979" lon="15.217366530399728"><ele>115.5</ele><time>2026-03-28T15:02:34.001Z</time></trkpt><trkpt lat="37.864156626894804" lon="15.21730555985464"><ele>115.0</ele><time>2026-03-28T15:02:35.001Z</time></trkpt><trkpt lat="37.86410322455369" lon="15.217241412572305"><ele>114.5</ele><time>2026-03-28T15:02:36.001Z</time></trkpt><trkpt lat="37.86404880176089" lon="15.217177956038654"><ele>114.0</ele><time>2026-03-28T15:02:37.001Z</time></trkpt><trkpt lat="37.86398626461339" lon="15.217108101459058"><ele>113.2</ele><time>2026-03-28T15:02:38.001Z</time></trkpt><trkpt lat="37.86392048020438" lon="15.217034905143953"><ele>112.4</ele><time>2026-03-28T15:02:39.001Z</time></trkpt><trkpt lat="37.863849224578246" lon="15.21695823667834"><ele>111.6</ele><time>2026-03-28T15:02:40.001Z</time></trkpt><trkpt lat="37.86376391208946" lon="15.216893757936667"><ele>110.8</ele><time>2026-03-28T15:02:41.001Z</time></trkpt><trkpt lat="37.86366420619364" lon="15.216851003494236"><ele>110.0</ele><time>2026-03-28T15:02:42.001Z</time></trkpt><trkpt lat="37.8635562564992" lon="15.216845433897838"><ele>108.75</ele><time>2026-03-28T15:02:43.001Z</time></trkpt><trkpt lat="37.86344707052429" lon="15.216873943522916"><ele>107.5</ele><time>2026-03-28T15:02:44.001Z</time></trkpt><trkpt lat="37.863344181260736" lon="15.216945393825098"><ele>106.25</ele><time>2026-03-28T15:02:45.001Z</time></trkpt><trkpt lat="37.8632573882226" lon="15.21704393553207"><ele>105.0</ele><time>2026-03-28T15:02:46.001Z</time></trkpt><trkpt lat="37.86317781626581" lon="15.217158664162373"><ele>105.0</ele><time>2026-03-28T15:02:47.001Z</time></trkpt><trkpt lat="37.86309844173191" lon="15.2172823057041"><ele>105.0</ele><time>2026-03-28T15:02:48.001Z</time></trkpt><trkpt lat="37.86302785618496" lon="15.21739398764418"><ele>105.0</ele><time>2026-03-28T15:02:49.001Z</time></trkpt><trkpt lat="37.862966211808825" lon="15.21748872666118"><ele>105.0</ele><time>2026-03-28T15:02:50.001Z</time></trkpt><trkpt lat="37.862909130315636" lon="15.217576856898823"><ele>105.0</ele><time>2026-03-28T15:02:51.001Z</time></trkpt><trkpt lat="37.86285388257608" lon="15.217661712310463"><ele>105.0</ele><time>2026-03-28T15:02:52.001Z</time></trkpt><trkpt lat="37.86280363705606" lon="15.217739964405295"><ele>105.0</ele><time>2026-03-28T15:02:53.001Z</time></trkpt><trkpt lat="37.86275983303282" lon="15.21780755023508"><ele>105.0</ele><time>2026-03-28T15:02:54.001Z</time></trkpt><trkpt lat="37.86271667114315" lon="15.217871448127092"><ele>105.0</ele><time>2026-03-28T15:02:55.001Z</time></trkpt><trkpt lat="37.862674571022154" lon="15.217937329008684"><ele>105.0</ele><time>2026-03-28T15:02:56.001Z</time></trkpt><trkpt lat="37.86262696704616" lon="15.21801202346194"><ele>105.0</ele><time>2026-03-28T15:02:57.001Z</time></trkpt><trkpt lat="37.86257606027424" lon="15.218088931470595"><ele>105.0</ele><time>2026-03-28T15:02:58.001Z</time></trkpt><trkpt lat="37.862524121387686" lon="15.218169327832445"><ele>106.33333333333333</ele><time>2026-03-28T15:02:59.001Z</time></trkpt><trkpt lat="37.862468428148254" lon="15.218256649498503"><ele>107.66666666666666</ele><time>2026-03-28T15:03:00.001Z</time></trkpt><trkpt lat="37.862408921003876" lon="15.218346592587546"><ele>109.0</ele><time>2026-03-28T15:03:01.001Z</time></trkpt><trkpt lat="37.86235489225276" lon="15.218431996238953"><ele>110.33333333333333</ele><time>2026-03-28T15:03:02.001Z</time></trkpt><trkpt lat="37.86230095495313" lon="15.218513143252245"><ele>111.66666666666666</ele><time>2026-03-28T15:03:03.001Z</time></trkpt><trkpt lat="37.86224761218964" lon="15.218593621669797"><ele>113.0</ele><time>2026-03-28T15:03:04.001Z</time></trkpt><trkpt lat="37.862192901597005" lon="15.218675585290772"><ele>112.99999999999999</ele><time>2026-03-28T15:03:05.001Z</time></trkpt><trkpt lat="37.862142894491065" lon="15.218757162795288"><ele>113.0</ele><time>2026-03-28T15:03:06.001Z</time></trkpt><trkpt lat="37.862093524314155" lon="15.218830178352514"><ele>113.0</ele><time>2026-03-28T15:03:07.001Z</time></trkpt><trkpt lat="37.86204698647312" lon="15.218895429628642"><ele>113.0</ele><time>2026-03-28T15:03:08.001Z</time></trkpt><trkpt lat="37.86200095783855" lon="15.218958766225395"><ele>112.99999999999999</ele><time>2026-03-28T15:03:09.001Z</time></trkpt><trkpt lat="37.86195359560138" lon="15.219033623979621"><ele>113.0</ele><time>2026-03-28T15:03:10.001Z</time></trkpt><trkpt lat="37.86190267675596" lon="15.219119821609867"><ele>113.0</ele><time>2026-03-28T15:03:11.001Z</time></trkpt><trkpt lat="37.861848208748285" lon="15.21920455574754"><ele>113.00000000000001</ele><time>2026-03-28T15:03:12.001Z</time></trkpt><trkpt lat="37.861787257908716" lon="15.219290990724682"><ele>113.00000000000001</ele><time>2026-03-28T15:03:13.001Z</time></trkpt><trkpt lat="37.86172324675579" lon="15.219376624270417"><ele>113.0</ele><time>2026-03-28T15:03:14.001Z</time></trkpt><trkpt lat="37.86164985134335" lon="15.219453868032167"><ele>113.0</ele><time>2026-03-28T15:03:15.001Z</time></trkpt><trkpt lat="37.861577530645356" lon="15.219520239300437"><ele>112.83333333333333</ele><time>2026-03-28T15:03:16.001Z</time></trkpt><trkpt lat="37.861508682082" lon="15.219584753619255"><ele>112.66666666666666</ele><time>2026-03-28T15:03:17.001Z</time></trkpt><trkpt lat="37.861442591186496" lon="15.219647960769734"><ele>112.5</ele><time>2026-03-28T15:03:18.001Z</time></trkpt><trkpt lat="37.861382346289524" lon="15.21970637598956"><ele>112.33333333333334</ele><time>2026-03-28T15:03:19.001Z</time></trkpt><trkpt lat="37.86132828420012" lon="15.219759428912196"><ele>112.16666666666667</ele><time>2026-03-28T15:03:20.001Z</time></trkpt><trkpt lat="37.86122939128571" lon="15.219847908868536"><ele>112.0</ele><time>2026-03-28T15:03:22.001Z</time></trkpt><trkpt lat="37.86114135584449" lon="15.219922843366472"><ele>112.00000000000001</ele><time>2026-03-28T15:03:24.001Z</time></trkpt><trkpt lat="37.86103214901031" lon="15.219999658020184"><ele>112.0</ele><time>2026-03-28T15:03:26.001Z</time></trkpt><trkpt lat="37.860964037772156" lon="15.220039342613306"><ele>112.0</ele><time>2026-03-28T15:03:27.001Z</time></trkpt><trkpt lat="37.86089236147133" lon="15.220082344007619"><ele>112.0</ele><time>2026-03-28T15:03:28.001Z</time></trkpt><trkpt lat="37.86082854805442" lon="15.220120374832277"><ele>112.00000000000001</ele><time>2026-03-28T15:03:29Z</time></trkpt><trkpt lat="37.86077023974707" lon="15.220154420111347"><ele>112.0</ele><time>2026-03-28T15:03:30Z</time></trkpt><trkpt lat="37.860662217453196" lon="15.220213271545104"><ele>111.16666666666667</ele><time>2026-03-28T15:03:32Z</time></trkpt><trkpt lat="37.86055090621329" lon="15.220265936851693"><ele>110.33333333333334</ele><time>2026-03-28T15:03:34Z</time></trkpt><trkpt lat="37.860483421804396" lon="15.220298922303177"><ele>109.5</ele><time>2026-03-28T15:03:35Z</time></trkpt><trkpt lat="37.86041701963507" lon="15.220332982751167"><ele>108.66666666666666</ele><time>2026-03-28T15:03:36Z</time></trkpt><trkpt lat="37.860355801519596" lon="15.220365257328403"><ele>107.83333333333333</ele><time>2026-03-28T15:03:37Z</time></trkpt><trkpt lat="37.86029778189296" lon="15.220399401774102"><ele>107.0</ele><time>2026-03-28T15:03:38Z</time></trkpt><trkpt lat="37.86024077962566" lon="15.220434917691238"><ele>107.00000000000001</ele><time>2026-03-28T15:03:39Z</time></trkpt><trkpt lat="37.86018354392984" lon="15.220469265395772"><ele>107.0</ele><time>2026-03-28T15:03:40Z</time></trkpt><trkpt lat="37.86012415676187" lon="15.220505387501927"><ele>107.0</ele><time>2026-03-28T15:03:41Z</time></trkpt><trkpt lat="37.86006392240208" lon="15.220546262905152"><ele>107.0</ele><time>2026-03-28T15:03:42Z</time></trkpt><trkpt lat="37.85999972092808" lon="15.220591987864553"><ele>107.0</ele><time>2026-03-28T15:03:43Z</time></trkpt><trkpt lat="37.859934574530044" lon="15.22064380059209"><ele>107.00000000000001</ele><time>2026-03-28T15:03:44Z</time></trkpt><trkpt lat="37.859880529108786" lon="15.220692424914706"><ele>107.0</ele><time>2026-03-28T15:03:45Z</time></trkpt><trkpt lat="37.8598122943543" lon="15.220756010244765"><ele>106.83333333333333</ele><time>2026-03-28T15:03:47Z</time></trkpt><trkpt lat="37.85975177357063" lon="15.22081176669535"><ele>106.66666666666666</ele><time>2026-03-28T15:03:49Z</time></trkpt><trkpt lat="37.85966880119457" lon="15.220898931646973"><ele>106.5</ele><time>2026-03-28T15:03:51Z</time></trkpt><trkpt lat="37.85958736834077" lon="15.221002542793688"><ele>106.33333333333334</ele><time>2026-03-28T15:03:53Z</time></trkpt><trkpt lat="37.85954469065991" lon="15.221063116904404"><ele>106.16666666666667</ele><time>2026-03-28T15:03:54Z</time></trkpt><trkpt lat="37.85949758610259" lon="15.22113389669992"><ele>106.0</ele><time>2026-03-28T15:03:55Z</time></trkpt><trkpt lat="37.859445065430535" lon="15.221210751554189"><ele>106.00000000000001</ele><time>2026-03-28T15:03:56Z</time></trkpt><trkpt lat="37.8593953423705" lon="15.221289662186068"><ele>106.0</ele><time>2026-03-28T15:03:57Z</time></trkpt><trkpt lat="37.85934972994672" lon="15.221368836659275"><ele>106.0</ele><time>2026-03-28T15:03:58Z</time></trkpt><trkpt lat="37.859305443597385" lon="15.221448117032597"><ele>106.0</ele><time>2026-03-28T15:03:59Z</time></trkpt><trkpt lat="37.85924261415065" lon="15.221505811642032"><ele>106.00000000000001</ele><time>2026-03-28T15:04:00Z</time></trkpt><trkpt lat="37.859179216266774" lon="15.221548641225436"><ele>106.0</ele><time>2026-03-28T15:04:01Z</time></trkpt><trkpt lat="37.859091032741674" lon="15.221587144788248"><ele>105.71428571428572</ele><time>2026-03-28T15:04:03.001Z</time></trkpt><trkpt lat="37.8590214322757" lon="15.221607757393143"><ele>105.42857142857142</ele><time>2026-03-28T15:04:05.001Z</time></trkpt><trkpt lat="37.85895327277424" lon="15.221623702963043"><ele>105.14285714285714</ele><time>2026-03-28T15:04:07.001Z</time></trkpt><trkpt lat="37.85888919089022" lon="15.221632107108165"><ele>104.85714285714286</ele><time>2026-03-28T15:04:09.001Z</time></trkpt><trkpt lat="37.85882210094712" lon="15.22164141473422"><ele>104.57142857142858</ele><time>2026-03-28T15:04:11.001Z</time></trkpt><trkpt lat="37.85873125285848" lon="15.221653598115726"><ele>104.28571428571428</ele><time>2026-03-28T15:04:13.001Z</time></trkpt><trkpt lat="37.85866788403755" lon="15.22165934694611"><ele>104.0</ele><time>2026-03-28T15:04:14.001Z</time></trkpt><trkpt lat="37.85859353487597" lon="15.221669326781498"><ele>103.99999999999999</ele><time>2026-03-28T15:04:15.001Z</time></trkpt><trkpt lat="37.85851833748111" lon="15.221681580109415"><ele>104.0</ele><time>2026-03-28T15:04:16.001Z</time></trkpt><trkpt lat="37.85844546745662" lon="15.22169268896976"><ele>104.0</ele><time>2026-03-28T15:04:17.001Z</time></trkpt><trkpt lat="37.85835260867319" lon="15.221708050398757"><ele>104.0</ele><time>2026-03-28T15:04:19.001Z</time></trkpt><trkpt lat="37.85828373691631" lon="15.221718536882866"><ele>103.99999999999999</ele><time>2026-03-28T15:04:21.001Z</time></trkpt><trkpt lat="37.85820995003125" lon="15.221725112416909"><ele>104.0</ele><time>2026-03-28T15:04:23.001Z</time></trkpt><trkpt lat="37.85812358146575" lon="15.221739389442615"><ele>103.16666666666666</ele><time>2026-03-28T15:04:25.001Z</time></trkpt><trkpt lat="37.85804291530742" lon="15.221754481544945"><ele>102.33333333333333</ele><time>2026-03-28T15:04:27.001Z</time></trkpt><trkpt lat="37.8579623055395" lon="15.221762516335302"><ele>101.5</ele><time>2026-03-28T15:04:29.001Z</time></trkpt><trkpt lat="37.85788000880091" lon="15.22176405273147"><ele>100.66666666666666</ele><time>2026-03-28T15:04:31.001Z</time></trkpt><trkpt lat="37.857773203893686" lon="15.221772730405096"><ele>99.83333333333333</ele><time>2026-03-28T15:04:33.001Z</time></trkpt><trkpt lat="37.857704107810285" lon="15.221801547282768"><ele>99.0</ele><time>2026-03-28T15:04:34.001Z</time></trkpt><trkpt lat="37.85762443878614" lon="15.221839446130678"><ele>98.0</ele><time>2026-03-28T15:04:35.001Z</time></trkpt><trkpt lat="37.85753640087927" lon="15.221878788084126"><ele>97.0</ele><time>2026-03-28T15:04:36.001Z</time></trkpt><trkpt lat="37.857444932702876" lon="15.221918142434653"><ele>96.0</ele><time>2026-03-28T15:04:37.001Z</time></trkpt><trkpt lat="37.857360550542246" lon="15.221954390217904"><ele>95.0</ele><time>2026-03-28T15:04:38.001Z</time></trkpt><trkpt lat="37.85728430047857" lon="15.221986835970231"><ele>94.0</ele><time>2026-03-28T15:04:39.001Z</time></trkpt><trkpt lat="37.85721952570494" lon="15.222014805626152"><ele>93.0</ele><time>2026-03-28T15:04:40.001Z</time></trkpt><trkpt lat="37.85715811901567" lon="15.222042063898472"><ele>93.0</ele><time>2026-03-28T15:04:41.001Z</time></trkpt><trkpt lat="37.857043181180586" lon="15.222093458945038"><ele>93.0</ele><time>2026-03-28T15:04:43.001Z</time></trkpt><trkpt lat="37.85693187796369" lon="15.222139966474055"><ele>93.0</ele><time>2026-03-28T15:04:45.001Z</time></trkpt><trkpt lat="37.85686965378676" lon="15.222170935965234"><ele>93.0</ele><time>2026-03-28T15:04:46.001Z</time></trkpt><trkpt lat="37.856797209471765" lon="15.22220758857566"><ele>93.0</ele><time>2026-03-28T15:04:47.001Z</time></trkpt><trkpt lat="37.85672205740641" lon="15.222242222417027"><ele>92.83333333333333</ele><time>2026-03-28T15:04:48.001Z</time></trkpt><trkpt lat="37.85664886312375" lon="15.222274461889697"><ele>92.66666666666667</ele><time>2026-03-28T15:04:49.001Z</time></trkpt><trkpt lat="37.85657538361712" lon="15.222302959511422"><ele>92.5</ele><time>2026-03-28T15:04:50.001Z</time></trkpt><trkpt lat="37.85649771884177" lon="15.22233448993673"><ele>92.33333333333334</ele><time>2026-03-28T15:04:51.001Z</time></trkpt><trkpt lat="37.856418767179576" lon="15.222368164510314"><ele>92.16666666666667</ele><time>2026-03-28T15:04:52.001Z</time></trkpt><trkpt lat="37.85633356268861" lon="15.222403156940205"><ele>92.0</ele><time>2026-03-28T15:04:53.001Z</time></trkpt><trkpt lat="37.85624657318659" lon="15.222439668774308"><ele>92.0</ele><time>2026-03-28T15:04:54.001Z</time></trkpt><trkpt lat="37.85615238035226" lon="15.222484882703483"><ele>92.0</ele><time>2026-03-28T15:04:55.001Z</time></trkpt><trkpt lat="37.856066107901675" lon="15.222537530331747"><ele>92.0</ele><time>2026-03-28T15:04:56.001Z</time></trkpt><trkpt lat="37.85599205263246" lon="15.22259563045718"><ele>92.0</ele><time>2026-03-28T15:04:57.001Z</time></trkpt><trkpt lat="37.85592989090471" lon="15.222664431121949"><ele>92.0</ele><time>2026-03-28T15:04:58.001Z</time></trkpt><trkpt lat="37.855880904099976" lon="15.222739663863878"><ele>92.0</ele><time>2026-03-28T15:04:59.001Z</time></trkpt><trkpt lat="37.85583570575155" lon="15.222816308456698"><ele>91.8</ele><time>2026-03-28T15:05:00.001Z</time></trkpt><trkpt lat="37.855797123540725" lon="15.222888345581756"><ele>91.6</ele><time>2026-03-28T15:05:01.001Z</time></trkpt><trkpt lat="37.85575897474207" lon="15.22295721736849"><ele>91.39999999999999</ele><time>2026-03-28T15:05:02.001Z</time></trkpt><trkpt lat="37.85568368183238" lon="15.223071544712257"><ele>91.19999999999999</ele><time>2026-03-28T15:05:04.001Z</time></trkpt><trkpt lat="37.8555939990632" lon="15.22319381728963"><ele>91.0</ele><time>2026-03-28T15:05:06.001Z</time></trkpt><trkpt lat="37.8555394955003" lon="15.223253856175663"><ele>91.0</ele><time>2026-03-28T15:05:07.001Z</time></trkpt><trkpt lat="37.85547448690411" lon="15.22332009029523"><ele>91.0</ele><time>2026-03-28T15:05:08.001Z</time></trkpt><trkpt lat="37.855404077105945" lon="15.223388274128261"><ele>91.0</ele><time>2026-03-28T15:05:09.001Z</time></trkpt><trkpt lat="37.85532349896724" lon="15.223459741777743"><ele>91.0</ele><time>2026-03-28T15:05:10.001Z</time></trkpt><trkpt lat="37.85523111724174" lon="15.223523467656818"><ele>91.0</ele><time>2026-03-28T15:05:11.001Z</time></trkpt><trkpt lat="37.85512563552491" lon="15.223585800188454"><ele>91.25</ele><time>2026-03-28T15:05:12.001Z</time></trkpt><trkpt lat="37.85501734189129" lon="15.223667654377333"><ele>91.5</ele><time>2026-03-28T15:05:13.001Z</time></trkpt><trkpt lat="37.854903036166704" lon="15.223760984191498"><ele>91.75</ele><time>2026-03-28T15:05:14.001Z</time></trkpt><trkpt lat="37.854789524886485" lon="15.223869166067203"><ele>92.0</ele><time>2026-03-28T15:05:15.001Z</time></trkpt><trkpt lat="37.854681177261085" lon="15.22399489734162"><ele>92.0</ele><time>2026-03-28T15:05:16.001Z</time></trkpt><trkpt lat="37.85457543918231" lon="15.224131559617604"><ele>92.0</ele><time>2026-03-28T15:05:17.001Z</time></trkpt><trkpt lat="37.85447148374814" lon="15.224265588690098"><ele>92.0</ele><time>2026-03-28T15:05:18.001Z</time></trkpt><trkpt lat="37.85437361365986" lon="15.224397523553687"><ele>92.0</ele><time>2026-03-28T15:05:19.001Z</time></trkpt><trkpt lat="37.85427727260955" lon="15.224529158166938"><ele>91.5</ele><time>2026-03-28T15:05:20.001Z</time></trkpt><trkpt lat="37.854182710076145" lon="15.224662861159983"><ele>91.0</ele><time>2026-03-28T15:05:21.001Z</time></trkpt><trkpt lat="37.85408751512478" lon="15.224798993691463"><ele>90.5</ele><time>2026-03-28T15:05:22.001Z</time></trkpt><trkpt lat="37.85399176163002" lon="15.224938455443704"><ele>90.0</ele><time>2026-03-28T15:05:23.001Z</time></trkpt><trkpt lat="37.85389135469893" lon="15.225084777326098"><ele>90.0</ele><time>2026-03-28T15:05:24.001Z</time></trkpt><trkpt lat="37.85378979670378" lon="15.225231907570608"><ele>90.0</ele><time>2026-03-28T15:05:25.001Z</time></trkpt><trkpt lat="37.85368939015896" lon="15.225367761451295"><ele>90.0</ele><time>2026-03-28T15:05:26.001Z</time></trkpt><trkpt lat="37.85358604843923" lon="15.225487826980313"><ele>90.0</ele><time>2026-03-28T15:05:27.001Z</time></trkpt><trkpt lat="37.85347429708959" lon="15.225590720895102"><ele>90.25</ele><time>2026-03-28T15:05:28.001Z</time></trkpt><trkpt lat="37.85335082734433" lon="15.225675468814478"><ele>90.5</ele><time>2026-03-28T15:05:29.001Z</time></trkpt><trkpt lat="37.85321746311029" lon="15.225743639747643"><ele>90.75</ele><time>2026-03-28T15:05:30.001Z</time></trkpt><trkpt lat="37.85307381195228" lon="15.225790196125416"><ele>91.0</ele><time>2026-03-28T15:05:31.001Z</time></trkpt><trkpt lat="37.85291974109951" lon="15.2258161951159"><ele>91.0</ele><time>2026-03-28T15:05:32.001Z</time></trkpt><trkpt lat="37.85276552321746" lon="15.225820917091571"><ele>91.0</ele><time>2026-03-28T15:05:33.001Z</time></trkpt><trkpt lat="37.85261711169358" lon="15.225801606264074"><ele>91.0</ele><time>2026-03-28T15:05:34.001Z</time></trkpt><trkpt lat="37.85247586649236" lon="15.225758461754346"><ele>91.0</ele><time>2026-03-28T15:05:35Z</time></trkpt><trkpt lat="37.85234349134827" lon="15.225693500324818"><ele>88.66666666666666</ele><time>2026-03-28T15:05:36Z</time></trkpt><trkpt lat="37.85221555424488" lon="15.22560564455064"><ele>86.33333333333333</ele><time>2026-03-28T15:05:37Z</time></trkpt><trkpt lat="37.8520925463899" lon="15.225494762040556"><ele>84.0</ele><time>2026-03-28T15:05:38Z</time></trkpt><trkpt lat="37.851970983998456" lon="15.2253755359077"><ele>84.0</ele><time>2026-03-28T15:05:39Z</time></trkpt><trkpt lat="37.851847109530596" lon="15.225246428469541"><ele>84.0</ele><time>2026-03-28T15:05:40Z</time></trkpt><trkpt lat="37.8517159515735" lon="15.225115991344179"><ele>84.0</ele><time>2026-03-28T15:05:41Z</time></trkpt><trkpt lat="37.8515823301161" lon="15.22498082761556"><ele>84.0</ele><time>2026-03-28T15:05:42Z</time></trkpt><trkpt lat="37.85144477529336" lon="15.2248558190469"><ele>84.0</ele><time>2026-03-28T15:05:43Z</time></trkpt><trkpt lat="37.85129834161665" lon="15.224750330747714"><ele>84.0</ele><time>2026-03-28T15:05:44Z</time></trkpt><trkpt lat="37.85114845110852" lon="15.224636070606621"><ele>82.33333333333333</ele><time>2026-03-28T15:05:45Z</time></trkpt><trkpt lat="37.85098004073777" lon="15.22456056506983"><ele>80.66666666666666</ele><time>2026-03-28T15:05:46Z</time></trkpt><trkpt lat="37.85080159369573" lon="15.224517053984053"><ele>79.0</ele><time>2026-03-28T15:05:47Z</time></trkpt><trkpt lat="37.850624382733706" lon="15.224463335153198"><ele>78.66666666666666</ele><time>2026-03-28T15:05:48Z</time></trkpt><trkpt lat="37.85044258471975" lon="15.224415733418077"><ele>78.33333333333333</ele><time>2026-03-28T15:05:49Z</time></trkpt><trkpt lat="37.85025789388861" lon="15.224369076464475"><ele>78.0</ele><time>2026-03-28T15:05:50Z</time></trkpt><trkpt lat="37.85007088217843" lon="15.224329054279165"><ele>77.66666666666667</ele><time>2026-03-28T15:05:51Z</time></trkpt><trkpt lat="37.849893412112706" lon="15.224297286667037"><ele>77.33333333333334</ele><time>2026-03-28T15:05:52Z</time></trkpt><trkpt lat="37.84973159612353" lon="15.2242487001676"><ele>77.0</ele><time>2026-03-28T15:05:53Z</time></trkpt><trkpt lat="37.849579025150675" lon="15.224230602794158"><ele>77.0</ele><time>2026-03-28T15:05:54Z</time></trkpt><trkpt lat="37.84944063650731" lon="15.22423996413232"><ele>77.0</ele><time>2026-03-28T15:05:55Z</time></trkpt><trkpt lat="37.84931178430443" lon="15.224232478747544"><ele>77.0</ele><time>2026-03-28T15:05:56Z</time></trkpt><trkpt lat="37.849181252717166" lon="15.224224537121565"><ele>77.0</ele><time>2026-03-28T15:05:57Z</time></trkpt><trkpt lat="37.84905149824647" lon="15.224200759307358"><ele>78.0</ele><time>2026-03-28T15:05:58Z</time></trkpt><trkpt lat="37.84892157731017" lon="15.224152207794972"><ele>79.0</ele><time>2026-03-28T15:05:59Z</time></trkpt><trkpt lat="37.84879396045681" lon="15.224091272791703"><ele>80.0</ele><time>2026-03-28T15:06:00Z</time></trkpt><trkpt lat="37.84867781571403" lon="15.224034588847571"><ele>81.0</ele><time>2026-03-28T15:06:01.001Z</time></trkpt><trkpt lat="37.84856933844811" lon="15.223967317978612"><ele>80.75</ele><time>2026-03-28T15:06:02.001Z</time></trkpt><trkpt lat="37.848452049363274" lon="15.223938232044006"><ele>80.5</ele><time>2026-03-28T15:06:03.001Z</time></trkpt><trkpt lat="37.84833029486926" lon="15.223958889289145"><ele>80.25</ele><time>2026-03-28T15:06:04.001Z</time></trkpt><trkpt lat="37.84820534070357" lon="15.22398151602557"><ele>80.0</ele><time>2026-03-28T15:06:05.001Z</time></trkpt><trkpt lat="37.848073310413966" lon="15.224002879258947"><ele>80.0</ele><time>2026-03-28T15:06:06.001Z</time></trkpt><trkpt lat="37.847940348467425" lon="15.224059198675407"><ele>80.0</ele><time>2026-03-28T15:06:07.001Z</time></trkpt><trkpt lat="37.84780633371098" lon="15.224137295078172"><ele>80.0</ele><time>2026-03-28T15:06:08.001Z</time></trkpt><trkpt lat="37.8476797597895" lon="15.224253168901333"><ele>80.0</ele><time>2026-03-28T15:06:09.001Z</time></trkpt><trkpt lat="37.84754601023964" lon="15.224372539934244"><ele>78.66666666666667</ele><time>2026-03-28T15:06:10.001Z</time></trkpt><trkpt lat="37.84741892274395" lon="15.224517227450942"><ele>77.33333333333333</ele><time>2026-03-28T15:06:11.001Z</time></trkpt><trkpt lat="37.847300877895435" lon="15.224686456211032"><ele>76.0</ele><time>2026-03-28T15:06:12.001Z</time></trkpt><trkpt lat="37.847192836394775" lon="15.224875274017046"><ele>76.0</ele><time>2026-03-28T15:06:13.001Z</time></trkpt><trkpt lat="37.84708926854068" lon="15.225078081008471"><ele>76.0</ele><time>2026-03-28T15:06:14.001Z</time></trkpt><trkpt lat="37.84698064287231" lon="15.225284130819865"><ele>76.0</ele><time>2026-03-28T15:06:15.001Z</time></trkpt><trkpt lat="37.84687092501442" lon="15.225493918938193"><ele>75.0</ele><time>2026-03-28T15:06:16.001Z</time></trkpt><trkpt lat="37.84675845278243" lon="15.225711042997158"><ele>74.0</ele><time>2026-03-28T15:06:17.001Z</time></trkpt><trkpt lat="37.84664699448059" lon="15.225924284086155"><ele>73.0</ele><time>2026-03-28T15:06:18.001Z</time></trkpt><trkpt lat="37.84653643101465" lon="15.226132663597868"><ele>73.0</ele><time>2026-03-28T15:06:19.001Z</time></trkpt><trkpt lat="37.84642631684225" lon="15.226339870913941"><ele>73.0</ele><time>2026-03-28T15:06:20.001Z</time></trkpt><trkpt lat="37.84631682155079" lon="15.226544084692708"><ele>73.0</ele><time>2026-03-28T15:06:21.001Z</time></trkpt><trkpt lat="37.84621315741416" lon="15.226740057636214"><ele>75.33333333333333</ele><time>2026-03-28T15:06:22.001Z</time></trkpt><trkpt lat="37.84611321855702" lon="15.22693316319951"><ele>77.66666666666667</ele><time>2026-03-28T15:06:23.001Z</time></trkpt><trkpt lat="37.84601562927053" lon="15.227119647392957"><ele>80.0</ele><time>2026-03-28T15:06:24.001Z</time></trkpt><trkpt lat="37.84592146346216" lon="15.227300902965496"><ele>75.66666666666667</ele><time>2026-03-28T15:06:25.001Z</time></trkpt><trkpt lat="37.845826369001436" lon="15.227480064837357"><ele>71.33333333333333</ele><time>2026-03-28T15:06:26.001Z</time></trkpt><trkpt lat="37.84573009213524" lon="15.227656070393518"><ele>67.0</ele><time>2026-03-28T15:06:27.001Z</time></trkpt><trkpt lat="37.845634134563596" lon="15.227830030732916"><ele>67.0</ele><time>2026-03-28T15:06:28.001Z</time></trkpt><trkpt lat="37.8455419391406" lon="15.228002097360358"><ele>67.0</ele><time>2026-03-28T15:06:29.001Z</time></trkpt><trkpt lat="37.84545018421982" lon="15.228176545349319"><ele>67.0</ele><time>2026-03-28T15:06:30.001Z</time></trkpt><trkpt lat="37.84535891211625" lon="15.228351719523175"><ele>67.66666666666666</ele><time>2026-03-28T15:06:31.001Z</time></trkpt><trkpt lat="37.8452681864048" lon="15.228526130114414"><ele>68.33333333333333</ele><time>2026-03-28T15:06:32.001Z</time></trkpt><trkpt lat="37.845171916137666" lon="15.228685388050241"><ele>69.0</ele><time>2026-03-28T15:06:33.001Z</time></trkpt><trkpt lat="37.84506283195768" lon="15.228826305185605"><ele>69.66666666666667</ele><time>2026-03-28T15:06:34.001Z</time></trkpt><trkpt lat="37.84493501075253" lon="15.228948766842594"><ele>70.33333333333334</ele><time>2026-03-28T15:06:35.001Z</time></trkpt><trkpt lat="37.84479339682595" lon="15.229048974531231"><ele>71.0</ele><time>2026-03-28T15:06:36.001Z</time></trkpt><trkpt lat="37.844636710982165" lon="15.229125434764972"><ele>71.0</ele><time>2026-03-28T15:06:37.001Z</time></trkpt><trkpt lat="37.844474175605555" lon="15.229178519362142"><ele>71.0</ele><time>2026-03-28T15:06:38.001Z</time></trkpt><trkpt lat="37.84430170536915" lon="15.229217912590434"><ele>71.0</ele><time>2026-03-28T15:06:39.001Z</time></trkpt><trkpt lat="37.84412634129716" lon="15.22924913716437"><ele>70.33333333333334</ele><time>2026-03-28T15:06:40.001Z</time></trkpt><trkpt lat="37.84394853470398" lon="15.229278596744415"><ele>69.66666666666667</ele><time>2026-03-28T15:06:41.001Z</time></trkpt><trkpt lat="37.84376790570626" lon="15.229307955504481"><ele>69.0</ele><time>2026-03-28T15:06:42.001Z</time></trkpt><trkpt lat="37.84358159088737" lon="15.229338871354585"><ele>67.66666666666667</ele><time>2026-03-28T15:06:43.001Z</time></trkpt><trkpt lat="37.84339194968372" lon="15.22937119913016"><ele>66.33333333333334</ele><time>2026-03-28T15:06:44.001Z</time></trkpt><trkpt lat="37.843202032094375" lon="15.22941354374651"><ele>65.0</ele><time>2026-03-28T15:06:45.001Z</time></trkpt><trkpt lat="37.84301229784739" lon="15.229470865045682"><ele>65.0</ele><time>2026-03-28T15:06:46.001Z</time></trkpt><trkpt lat="37.84281553131928" lon="15.229549777866042"><ele>65.0</ele><time>2026-03-28T15:06:47.001Z</time></trkpt><trkpt lat="37.84260535933311" lon="15.229615551004416"><ele>65.0</ele><time>2026-03-28T15:06:48.001Z</time></trkpt><trkpt lat="37.84239575447008" lon="15.229695028179787"><ele>63.0</ele><time>2026-03-28T15:06:49.001Z</time></trkpt><trkpt lat="37.84217792486339" lon="15.229777359322519"><ele>61.0</ele><time>2026-03-28T15:06:50.001Z</time></trkpt><trkpt lat="37.841958115617665" lon="15.229860489875628"><ele>62.0</ele><time>2026-03-28T15:06:51.001Z</time></trkpt><trkpt lat="37.84173579972808" lon="15.22996252577124"><ele>63.0</ele><time>2026-03-28T15:06:52.001Z</time></trkpt><trkpt lat="37.84150763166898" lon="15.230042919606559"><ele>63.0</ele><time>2026-03-28T15:06:53.001Z</time></trkpt><trkpt lat="37.84127497851483" lon="15.230127495521183"><ele>63.0</ele><time>2026-03-28T15:06:54.001Z</time></trkpt><trkpt lat="37.84104268140897" lon="15.230214240383095"><ele>61.5</ele><time>2026-03-28T15:06:55.001Z</time></trkpt><trkpt lat="37.84081521752515" lon="15.230300352961645"><ele>60.0</ele><time>2026-03-28T15:06:56.001Z</time></trkpt><trkpt lat="37.84060199247103" lon="15.230381116709239"><ele>60.0</ele><time>2026-03-28T15:06:57.001Z</time></trkpt><trkpt lat="37.84039874918464" lon="15.230458716911546"><ele>60.0</ele><time>2026-03-28T15:06:58.001Z</time></trkpt><trkpt lat="37.84020389740133" lon="15.230531947588164"><ele>60.0</ele><time>2026-03-28T15:06:59.001Z</time></trkpt><trkpt lat="37.84001318746987" lon="15.230604229929732"><ele>60.33333333333333</ele><time>2026-03-28T15:07:00.001Z</time></trkpt><trkpt lat="37.839832505394675" lon="15.230672311561614"><ele>60.666666666666664</ele><time>2026-03-28T15:07:01.001Z</time></trkpt><trkpt lat="37.839653968186994" lon="15.23073811619138"><ele>61.0</ele><time>2026-03-28T15:07:02.001Z</time></trkpt><trkpt lat="37.839482884364294" lon="15.230800568861605"><ele>61.0</ele><time>2026-03-28T15:07:03.001Z</time></trkpt><trkpt lat="37.839319374248085" lon="15.230862596742952"><ele>61.0</ele><time>2026-03-28T15:07:04.001Z</time></trkpt><trkpt lat="37.839164112039" lon="15.230933026607582"><ele>61.0</ele><time>2026-03-28T15:07:05.001Z</time></trkpt><trkpt lat="37.83902017865152" lon="15.2310280615467"><ele>61.33333333333333</ele><time>2026-03-28T15:07:06.001Z</time></trkpt><trkpt lat="37.83889016967009" lon="15.231157034208127"><ele>61.66666666666667</ele><time>2026-03-28T15:07:07.001Z</time></trkpt><trkpt lat="37.838774379403354" lon="15.231314002643195"><ele>62.0</ele><time>2026-03-28T15:07:08.001Z</time></trkpt><trkpt lat="37.83868247351717" lon="15.231485466097924"><ele>62.25</ele><time>2026-03-28T15:07:09.001Z</time></trkpt><trkpt lat="37.83861730220942" lon="15.231658662021523"><ele>62.5</ele><time>2026-03-28T15:07:10.001Z</time></trkpt><trkpt lat="37.83857697160921" lon="15.231817726096223"><ele>62.75</ele><time>2026-03-28T15:07:11.001Z</time></trkpt><trkpt lat="37.83855347011785" lon="15.231965410688884"><ele>63.0</ele><time>2026-03-28T15:07:12Z</time></trkpt><trkpt lat="37.83854530503618" lon="15.232099352964898"><ele>63.0</ele><time>2026-03-28T15:07:13Z</time></trkpt><trkpt lat="37.838549042105605" lon="15.232210232231907"><ele>63.0</ele><time>2026-03-28T15:07:14Z</time></trkpt><trkpt lat="37.83855674418578" lon="15.2323074786449"><ele>63.0</ele><time>2026-03-28T15:07:15Z</time></trkpt><trkpt lat="37.83856413614636" lon="15.232395697888704"><ele>63.0</ele><time>2026-03-28T15:07:16Z</time></trkpt><trkpt lat="37.83857888244177" lon="15.232502028580708"><ele>63.0</ele><time>2026-03-28T15:07:17Z</time></trkpt><trkpt lat="37.83860569066815" lon="15.23263359213593"><ele>63.0</ele><time>2026-03-28T15:07:18Z</time></trkpt><trkpt lat="37.83863351914963" lon="15.232784806451386"><ele>64.75</ele><time>2026-03-28T15:07:19Z</time></trkpt><trkpt lat="37.83865779059561" lon="15.232954692926432"><ele>66.5</ele><time>2026-03-28T15:07:20Z</time></trkpt><trkpt lat="37.83866313794803" lon="15.233136359105293"><ele>68.25</ele><time>2026-03-28T15:07:21Z</time></trkpt><trkpt lat="37.83864752525005" lon="15.233331163357176"><ele>70.0</ele><time>2026-03-28T15:07:22Z</time></trkpt><trkpt lat="37.838606422825045" lon="15.233533133326917"><ele>70.33333333333333</ele><time>2026-03-28T15:07:23Z</time></trkpt><trkpt lat="37.83854635137892" lon="15.23373587567075"><ele>70.66666666666667</ele><time>2026-03-28T15:07:24Z</time></trkpt><trkpt lat="37.83848340666676" lon="15.233932890356565"><ele>71.0</ele><time>2026-03-28T15:07:25Z</time></trkpt><trkpt lat="37.8384265108347" lon="15.23411400249744"><ele>68.5</ele><time>2026-03-28T15:07:26Z</time></trkpt><trkpt lat="37.83837305634281" lon="15.234292096236329"><ele>66.0</ele><time>2026-03-28T15:07:27Z</time></trkpt><trkpt lat="37.83832403241269" lon="15.234461134378979"><ele>63.5</ele><time>2026-03-28T15:07:28Z</time></trkpt><trkpt lat="37.838276255049834" lon="15.234626014589077"><ele>61.0</ele><time>2026-03-28T15:07:29Z</time></trkpt><trkpt lat="37.83822608343339" lon="15.234778590242843"><ele>61.199999999999996</ele><time>2026-03-28T15:07:30Z</time></trkpt><trkpt lat="37.83816939449289" lon="15.234916602961928"><ele>61.39999999999999</ele><time>2026-03-28T15:07:31Z</time></trkpt><trkpt lat="37.83811551964845" lon="15.23504492170292"><ele>61.6</ele><time>2026-03-28T15:07:32Z</time></trkpt><trkpt lat="37.8380790358851" lon="15.235170736823097"><ele>61.8</ele><time>2026-03-28T15:07:33Z</time></trkpt><trkpt lat="37.83805823834591" lon="15.235282890690149"><ele>62.0</ele><time>2026-03-28T15:07:34Z</time></trkpt><trkpt lat="37.838038018477185" lon="15.235382629459423"><ele>62.0</ele><time>2026-03-28T15:07:35Z</time></trkpt><trkpt lat="37.83800385904501" lon="15.23549530352021"><ele>62.0</ele><time>2026-03-28T15:07:36Z</time></trkpt><trkpt lat="37.83795935835037" lon="15.235631914915311"><ele>62.0</ele><time>2026-03-28T15:07:37Z</time></trkpt><trkpt lat="37.83790870040326" lon="15.23578921509409"><ele>62.0</ele><time>2026-03-28T15:07:38Z</time></trkpt><trkpt lat="37.83785515159009" lon="15.235959460763816"><ele>62.66666666666667</ele><time>2026-03-28T15:07:39Z</time></trkpt><trkpt lat="37.837805481377075" lon="15.236136686714154"><ele>63.33333333333333</ele><time>2026-03-28T15:07:40Z</time></trkpt><trkpt lat="37.83777153313394" lon="15.23632473454955"><ele>64.0</ele><time>2026-03-28T15:07:40.999Z</time></trkpt><trkpt lat="37.83776160456727" lon="15.23652548866164"><ele>64.25</ele><time>2026-03-28T15:07:41.999Z</time></trkpt><trkpt lat="37.837769573848256" lon="15.2367234483708"><ele>64.5</ele><time>2026-03-28T15:07:42.999Z</time></trkpt><trkpt lat="37.83779586574705" lon="15.23690745410744"><ele>64.75</ele><time>2026-03-28T15:07:43.999Z</time></trkpt><trkpt lat="37.83783101221245" lon="15.23707902507574"><ele>65.0</ele><time>2026-03-28T15:07:44.999Z</time></trkpt><trkpt lat="37.83785745651838" lon="15.23724428892582"><ele>65.4</ele><time>2026-03-28T15:07:45.999Z</time></trkpt><trkpt lat="37.837866050114094" lon="15.237395694286311"><ele>65.8</ele><time>2026-03-28T15:07:46.999Z</time></trkpt><trkpt lat="37.837853707372176" lon="15.237521812877896"><ele>66.2</ele><time>2026-03-28T15:07:47.999Z</time></trkpt><trkpt lat="37.837834595437464" lon="15.237639774872408"><ele>66.6</ele><time>2026-03-28T15:07:48.999Z</time></trkpt><trkpt lat="37.83781293448222" lon="15.237760943721934"><ele>67.0</ele><time>2026-03-28T15:07:49.999Z</time></trkpt><trkpt lat="37.8377856456488" lon="15.237890781820628"><ele>67.0</ele><time>2026-03-28T15:07:50.999Z</time></trkpt><trkpt lat="37.83775421060618" lon="15.238028206135182"><ele>67.0</ele><time>2026-03-28T15:07:51.999Z</time></trkpt><trkpt lat="37.83771787501502" lon="15.238172285248032"><ele>67.0</ele><time>2026-03-28T15:07:52.999Z</time></trkpt><trkpt lat="37.837677726584296" lon="15.238316643602555"><ele>67.0</ele><time>2026-03-28T15:07:53.999Z</time></trkpt><trkpt lat="37.83764001118908" lon="15.238448515571678"><ele>66.5</ele><time>2026-03-28T15:07:54.999Z</time></trkpt><trkpt lat="37.837604605186044" lon="15.238569203385705"><ele>66.0</ele><time>2026-03-28T15:07:55.999Z</time></trkpt><trkpt lat="37.83757162655904" lon="15.238677494750927"><ele>65.5</ele><time>2026-03-28T15:07:56.999Z</time></trkpt><trkpt lat="37.83754139877855" lon="15.238777390856175"><ele>65.0</ele><time>2026-03-28T15:07:57.999Z</time></trkpt><trkpt lat="37.83751409119444" lon="15.238871961885701"><ele>64.5</ele><time>2026-03-28T15:07:58.999Z</time></trkpt><trkpt lat="37.83748194729945" lon="15.238974664438338"><ele>64.0</ele><time>2026-03-28T15:07:59.999Z</time></trkpt><trkpt lat="37.83744846147399" lon="15.23908205119062"><ele>63.99999999999999</ele><time>2026-03-28T15:08:00.999Z</time></trkpt><trkpt lat="37.83741542941967" lon="15.239191947911467"><ele>64.0</ele><time>2026-03-28T15:08:01.999Z</time></trkpt><trkpt lat="37.83738320765891" lon="15.239301076221238"><ele>64.0</ele><time>2026-03-28T15:08:02.999Z</time></trkpt><trkpt lat="37.837349241613964" lon="15.23940521354958"><ele>64.0</ele><time>2026-03-28T15:08:03.999Z</time></trkpt><trkpt lat="37.83731253820633" lon="15.239504954165369"><ele>63.99999999999999</ele><time>2026-03-28T15:08:04.999Z</time></trkpt><trkpt lat="37.837269139587484" lon="15.239600873320764"><ele>64.0</ele><time>2026-03-28T15:08:05.999Z</time></trkpt><trkpt lat="37.8372231778997" lon="15.239689939888901"><ele>64.0</ele><time>2026-03-28T15:08:06.999Z</time></trkpt><trkpt lat="37.83717686366572" lon="15.23977450720996"><ele>63.99999999999999</ele><time>2026-03-28T15:08:07.999Z</time></trkpt><trkpt lat="37.83713113821066" lon="15.23986228137912"><ele>64.0</ele><time>2026-03-28T15:08:08.999Z</time></trkpt><trkpt lat="37.83708934072531" lon="15.239943131328022"><ele>64.0</ele><time>2026-03-28T15:08:09.999Z</time></trkpt><trkpt lat="37.83705096602719" lon="15.24001970307144"><ele>63.99999999999999</ele><time>2026-03-28T15:08:10.999Z</time></trkpt><trkpt lat="37.837014417941035" lon="15.240092033066276"><ele>64.0</ele><time>2026-03-28T15:08:11.999Z</time></trkpt><trkpt lat="37.836979075764006" lon="15.240161930167726"><ele>64.0</ele><time>2026-03-28T15:08:12.999Z</time></trkpt><trkpt lat="37.83694127559669" lon="15.240235825579775"><ele>63.83333333333333</ele><time>2026-03-28T15:08:13.999Z</time></trkpt><trkpt lat="37.83690061582291" lon="15.240318726142746"><ele>63.666666666666664</ele><time>2026-03-28T15:08:14.999Z</time></trkpt><trkpt lat="37.836855312310185" lon="15.240410696452063"><ele>63.5</ele><time>2026-03-28T15:08:15.999Z</time></trkpt><trkpt lat="37.83680523837198" lon="15.240507205042931"><ele>63.33333333333333</ele><time>2026-03-28T15:08:16.999Z</time></trkpt><trkpt lat="37.83675990825735" lon="15.240594493677255"><ele>63.166666666666664</ele><time>2026-03-28T15:08:17.999Z</time></trkpt><trkpt lat="37.836715216624256" lon="15.24068072488776"><ele>63.0</ele><time>2026-03-28T15:08:18.999Z</time></trkpt><trkpt lat="37.83667267245794" lon="15.240764578624121"><ele>62.8</ele><time>2026-03-28T15:08:20Z</time></trkpt><trkpt lat="37.836628418748155" lon="15.240851625044376"><ele>62.599999999999994</ele><time>2026-03-28T15:08:21Z</time></trkpt><trkpt lat="37.83657962233138" lon="15.24094312561201"><ele>62.400000000000006</ele><time>2026-03-28T15:08:22Z</time></trkpt><trkpt lat="37.83652424132519" lon="15.241037270615305"><ele>62.2</ele><time>2026-03-28T15:08:23Z</time></trkpt><trkpt lat="37.83646237142167" lon="15.241131068647292"><ele>62.0</ele><time>2026-03-28T15:08:24Z</time></trkpt><trkpt lat="37.836393675542766" lon="15.241231879979894"><ele>62.0</ele><time>2026-03-28T15:08:25Z</time></trkpt><trkpt lat="37.83631881107549" lon="15.241339610290053"><ele>62.0</ele><time>2026-03-28T15:08:26Z</time></trkpt><trkpt lat="37.83624496290946" lon="15.241447112403234"><ele>62.0</ele><time>2026-03-28T15:08:27Z</time></trkpt><trkpt lat="37.83617722555937" lon="15.241549595767133"><ele>62.0</ele><time>2026-03-28T15:08:28Z</time></trkpt><trkpt lat="37.8361105513343" lon="15.2416472662657"><ele>62.0</ele><time>2026-03-28T15:08:29Z</time></trkpt><trkpt lat="37.836044586822055" lon="15.241739102490598"><ele>61.8</ele><time>2026-03-28T15:08:30Z</time></trkpt><trkpt lat="37.83597664630372" lon="15.241838648561583"><ele>61.6</ele><time>2026-03-28T15:08:31Z</time></trkpt><trkpt lat="37.83590904001726" lon="15.241943040171847"><ele>61.39999999999999</ele><time>2026-03-28T15:08:32Z</time></trkpt><trkpt lat="37.835841024033584" lon="15.242044324011932"><ele>61.199999999999996</ele><time>2026-03-28T15:08:33Z</time></trkpt><trkpt lat="37.83577695448887" lon="15.242144893693562"><ele>61.0</ele><time>2026-03-28T15:08:34Z</time></trkpt><trkpt lat="37.83571608776838" lon="15.24223974371101"><ele>60.599999999999994</ele><time>2026-03-28T15:08:35Z</time></trkpt><trkpt lat="37.83565695608327" lon="15.242329335639818"><ele>60.199999999999996</ele><time>2026-03-28T15:08:36Z</time></trkpt><trkpt lat="37.83559771384525" lon="15.242419476124683"><ele>59.800000000000004</ele><time>2026-03-28T15:08:37Z</time></trkpt><trkpt lat="37.83553561070674" lon="15.242520000018787"><ele>59.400000000000006</ele><time>2026-03-28T15:08:38Z</time></trkpt><trkpt lat="37.83546942004534" lon="15.24262413356975"><ele>59.0</ele><time>2026-03-28T15:08:39Z</time></trkpt><trkpt lat="37.835406982340864" lon="15.24271922677253"><ele>59.0</ele><time>2026-03-28T15:08:40Z</time></trkpt><trkpt lat="37.83535036295869" lon="15.242802607922473"><ele>59.00000000000001</ele><time>2026-03-28T15:08:41Z</time></trkpt><trkpt lat="37.83530507259825" lon="15.242870476157448"><ele>59.00000000000001</ele><time>2026-03-28T15:08:42Z</time></trkpt><trkpt lat="37.83526252261005" lon="15.242933398458225"><ele>59.0</ele><time>2026-03-28T15:08:43Z</time></trkpt><trkpt lat="37.83518633003277" lon="15.243054477791288"><ele>59.0</ele><time>2026-03-28T15:08:45Z</time></trkpt><trkpt lat="37.8351045362471" lon="15.243173332997474"><ele>58.6</ele><time>2026-03-28T15:08:47Z</time></trkpt><trkpt lat="37.835059013020995" lon="15.243238810906357"><ele>58.2</ele><time>2026-03-28T15:08:48Z</time></trkpt><trkpt lat="37.83498118541943" lon="15.243354634648876"><ele>57.800000000000004</ele><time>2026-03-28T15:08:50Z</time></trkpt><trkpt lat="37.83490861398152" lon="15.243470928008584"><ele>57.400000000000006</ele><time>2026-03-28T15:08:52Z</time></trkpt><trkpt lat="37.83482532785614" lon="15.243592883709187"><ele>57.0</ele><time>2026-03-28T15:08:54Z</time></trkpt><trkpt lat="37.83477991918571" lon="15.243659505586741"><ele>57.0</ele><time>2026-03-28T15:08:55Z</time></trkpt><trkpt lat="37.83473620846369" lon="15.243727664918092"><ele>57.0</ele><time>2026-03-28T15:08:56Z</time></trkpt><trkpt lat="37.83464928382361" lon="15.243835502963135"><ele>57.0</ele><time>2026-03-28T15:08:58Z</time></trkpt><trkpt lat="37.834576353245964" lon="15.24395087696181"><ele>57.0</ele><time>2026-03-28T15:09:00Z</time></trkpt><trkpt lat="37.83450428435038" lon="15.244070535600065"><ele>57.0</ele><time>2026-03-28T15:09:02Z</time></trkpt><trkpt lat="37.834461698109315" lon="15.244136307261666"><ele>57.166666666666664</ele><time>2026-03-28T15:09:03Z</time></trkpt><trkpt lat="37.83441304741401" lon="15.24420815325117"><ele>57.33333333333333</ele><time>2026-03-28T15:09:04Z</time></trkpt><trkpt lat="37.83436012135068" lon="15.244287755436343"><ele>57.5</ele><time>2026-03-28T15:09:05Z</time></trkpt><trkpt lat="37.83430573020109" lon="15.244369120274232"><ele>57.666666666666664</ele><time>2026-03-28T15:09:06Z</time></trkpt><trkpt lat="37.834249036319804" lon="15.244448707125143"><ele>57.83333333333333</ele><time>2026-03-28T15:09:07Z</time></trkpt><trkpt lat="37.834185496867136" lon="15.244534999890238"><ele>58.0</ele><time>2026-03-28T15:09:08Z</time></trkpt><trkpt lat="37.834120051201765" lon="15.244625276603104"><ele>57.99999999999999</ele><time>2026-03-28T15:09:09Z</time></trkpt><trkpt lat="37.83405957510777" lon="15.244709567800129"><ele>58.0</ele><time>2026-03-28T15:09:10Z</time></trkpt><trkpt lat="37.83400483233619" lon="15.244790552536148"><ele>58.0</ele><time>2026-03-28T15:09:11Z</time></trkpt><trkpt lat="37.833950756179846" lon="15.244871770007318"><ele>58.0</ele><time>2026-03-28T15:09:12Z</time></trkpt><trkpt lat="37.83389558210173" lon="15.244952977453755"><ele>57.99999999999999</ele><time>2026-03-28T15:09:13Z</time></trkpt><trkpt lat="37.833843344029795" lon="15.24503034405871"><ele>58.0</ele><time>2026-03-28T15:09:14Z</time></trkpt><trkpt lat="37.833796761355245" lon="15.245096936354503"><ele>58.33333333333333</ele><time>2026-03-28T15:09:15Z</time></trkpt><trkpt lat="37.833716222510006" lon="15.245212310791002"><ele>58.666666666666664</ele><time>2026-03-28T15:09:17Z</time></trkpt><trkpt lat="37.833675054340944" lon="15.245274260736398"><ele>59.0</ele><time>2026-03-28T15:09:18Z</time></trkpt><trkpt lat="37.833625965415045" lon="15.245350052991514"><ele>59.33333333333333</ele><time>2026-03-28T15:09:19Z</time></trkpt><trkpt lat="37.833570480842496" lon="15.245434056486216"><ele>59.666666666666664</ele><time>2026-03-28T15:09:20Z</time></trkpt><trkpt lat="37.83351056670426" lon="15.24552530854347"><ele>60.0</ele><time>2026-03-28T15:09:21Z</time></trkpt><trkpt lat="37.83344384754969" lon="15.245627465861217"><ele>60.166666666666664</ele><time>2026-03-28T15:09:22Z</time></trkpt><trkpt lat="37.8333805008774" lon="15.24572274194666"><ele>60.33333333333333</ele><time>2026-03-28T15:09:23Z</time></trkpt><trkpt lat="37.83331952681363" lon="15.245813341110315"><ele>60.5</ele><time>2026-03-28T15:09:24Z</time></trkpt><trkpt lat="37.83327064642527" lon="15.245886587784709"><ele>60.666666666666664</ele><time>2026-03-28T15:09:25Z</time></trkpt><trkpt lat="37.83322721590492" lon="15.245950228503725"><ele>60.83333333333333</ele><time>2026-03-28T15:09:26Z</time></trkpt><trkpt lat="37.83315507626022" lon="15.246059146138064"><ele>61.0</ele><time>2026-03-28T15:09:28Z</time></trkpt><trkpt lat="37.83308601693666" lon="15.246168661411224"><ele>60.99999999999999</ele><time>2026-03-28T15:09:30Z</time></trkpt><trkpt lat="37.83301560261484" lon="15.246273606650679"><ele>61.0</ele><time>2026-03-28T15:09:32Z</time></trkpt><trkpt lat="37.832960239416884" lon="15.246364716987804"><ele>61.0</ele><time>2026-03-28T15:09:34Z</time></trkpt><trkpt lat="37.83291040686018" lon="15.24643619161585"><ele>61.0</ele><time>2026-03-28T15:09:36Z</time></trkpt><trkpt lat="37.83286874308348" lon="15.246502963002628"><ele>60.99999999999999</ele><time>2026-03-28T15:09:38Z</time></trkpt><trkpt lat="37.83280857167821" lon="15.246592846320617"><ele>61.0</ele><time>2026-03-28T15:09:40Z</time></trkpt><trkpt lat="37.83275757092486" lon="15.246667008936262"><ele>61.166666666666664</ele><time>2026-03-28T15:09:42Z</time></trkpt><trkpt lat="37.83270299245509" lon="15.246754865152727"><ele>61.33333333333333</ele><time>2026-03-28T15:09:54.999Z</time></trkpt><trkpt lat="37.83264135054482" lon="15.24683596828699"><ele>61.5</ele><time>2026-03-28T15:09:57.999Z</time></trkpt><trkpt lat="37.832603865216406" lon="15.24690500910961"><ele>61.66666666666667</ele><time>2026-03-28T15:10:00.999Z</time></trkpt><trkpt lat="37.83256384995344" lon="15.246973401440412"><ele>61.833333333333336</ele><time>2026-03-28T15:10:15Z</time></trkpt><trkpt lat="37.832512375805614" lon="15.24705257189802"><ele>62.0</ele><time>2026-03-28T15:10:18Z</time></trkpt><trkpt lat="37.83246220979831" lon="15.247138844197453"><ele>62.2</ele><time>2026-03-28T15:10:20Z</time></trkpt><trkpt lat="37.83239636667414" lon="15.24723272462738"><ele>62.400000000000006</ele><time>2026-03-28T15:10:22Z</time></trkpt><trkpt lat="37.83231092221042" lon="15.24735091754936"><ele>62.599999999999994</ele><time>2026-03-28T15:10:24Z</time></trkpt><trkpt lat="37.83226453526835" lon="15.24742559339817"><ele>62.8</ele><time>2026-03-28T15:10:25Z</time></trkpt><trkpt lat="37.832215889820326" lon="15.247505744234813"><ele>63.0</ele><time>2026-03-28T15:10:26Z</time></trkpt><trkpt lat="37.83216645094281" lon="15.247582957956489"><ele>63.0</ele><time>2026-03-28T15:10:27Z</time></trkpt><trkpt lat="37.832117878509486" lon="15.247655571905783"><ele>63.0</ele><time>2026-03-28T15:10:28Z</time></trkpt><trkpt lat="37.83206735711508" lon="15.24772329626684"><ele>63.0</ele><time>2026-03-28T15:10:29Z</time></trkpt><trkpt lat="37.83202189242938" lon="15.247791536015349"><ele>63.0</ele><time>2026-03-28T15:10:30Z</time></trkpt><trkpt lat="37.831980132280655" lon="15.24786050217442"><ele>63.0</ele><time>2026-03-28T15:10:31Z</time></trkpt><trkpt lat="37.83193784671027" lon="15.24792644401773"><ele>63.0</ele><time>2026-03-28T15:10:32Z</time></trkpt><trkpt lat="37.831895017960804" lon="15.247995378961338"><ele>63.0</ele><time>2026-03-28T15:10:33Z</time></trkpt><trkpt lat="37.83184832596916" lon="15.248067474032636"><ele>62.5</ele><time>2026-03-28T15:10:34Z</time></trkpt><trkpt lat="37.83180138075601" lon="15.248148310958685"><ele>62.0</ele><time>2026-03-28T15:10:35Z</time></trkpt><trkpt lat="37.831752621726125" lon="15.248231823501447"><ele>61.5</ele><time>2026-03-28T15:10:36Z</time></trkpt><trkpt lat="37.83170650559668" lon="15.24831031722999"><ele>61.0</ele><time>2026-03-28T15:10:37Z</time></trkpt><trkpt lat="37.83166051769332" lon="15.248384369992593"><ele>60.5</ele><time>2026-03-28T15:10:38Z</time></trkpt><trkpt lat="37.83161812151794" lon="15.248455944682712"><ele>60.0</ele><time>2026-03-28T15:10:39Z</time></trkpt><trkpt lat="37.83157756337819" lon="15.24852731879035"><ele>60.0</ele><time>2026-03-28T15:10:40Z</time></trkpt><trkpt lat="37.83153584840791" lon="15.24859607296069"><ele>60.0</ele><time>2026-03-28T15:10:41Z</time></trkpt><trkpt lat="37.83149677079826" lon="15.248667329277577"><ele>60.0</ele><time>2026-03-28T15:10:42Z</time></trkpt><trkpt lat="37.8314582303639" lon="15.2487450453882"><ele>60.0</ele><time>2026-03-28T15:10:43Z</time></trkpt><trkpt lat="37.831417428220185" lon="15.248826336108564"><ele>60.0</ele><time>2026-03-28T15:10:44Z</time></trkpt><trkpt lat="37.83136961882141" lon="15.248916742163964"><ele>60.0</ele><time>2026-03-28T15:10:45Z</time></trkpt><trkpt lat="37.831315904456915" lon="15.249010598283913"><ele>58.8</ele><time>2026-03-28T15:10:46Z</time></trkpt><trkpt lat="37.83125924608822" lon="15.24910813231033"><ele>57.6</ele><time>2026-03-28T15:10:47Z</time></trkpt><trkpt lat="37.83119883429605" lon="15.249215356263846"><ele>56.400000000000006</ele><time>2026-03-28T15:10:48Z</time></trkpt><trkpt lat="37.831135250426414" lon="15.249322766590492"><ele>55.2</ele><time>2026-03-28T15:10:49Z</time></trkpt><trkpt lat="37.83107500856233" lon="15.249427644482406"><ele>54.0</ele><time>2026-03-28T15:10:50Z</time></trkpt><trkpt lat="37.83101804855809" lon="15.249530609586012"><ele>54.0</ele><time>2026-03-28T15:10:51Z</time></trkpt><trkpt lat="37.830958884310235" lon="15.249628213116305"><ele>54.0</ele><time>2026-03-28T15:10:52Z</time></trkpt><trkpt lat="37.830905651705045" lon="15.249716824520574"><ele>54.0</ele><time>2026-03-28T15:10:53Z</time></trkpt><trkpt lat="37.83085679629922" lon="15.24980280148691"><ele>54.0</ele><time>2026-03-28T15:10:54Z</time></trkpt><trkpt lat="37.83081262037418" lon="15.249883832918186"><ele>54.0</ele><time>2026-03-28T15:10:55Z</time></trkpt><trkpt lat="37.83076775719798" lon="15.249957929605085"><ele>54.0</ele><time>2026-03-28T15:10:56Z</time></trkpt><trkpt lat="37.83072304839089" lon="15.250028206677994"><ele>53.5</ele><time>2026-03-28T15:10:57Z</time></trkpt><trkpt lat="37.830683381007994" lon="15.25009686782508"><ele>53.0</ele><time>2026-03-28T15:10:58Z</time></trkpt><trkpt lat="37.8306486411445" lon="15.250166773719235"><ele>52.5</ele><time>2026-03-28T15:10:59Z</time></trkpt><trkpt lat="37.83061172928651" lon="15.250231474953477"><ele>52.0</ele><time>2026-03-28T15:11:00Z</time></trkpt><trkpt lat="37.830540238648304" lon="15.250365227701792"><ele>51.5</ele><time>2026-03-28T15:11:02Z</time></trkpt><trkpt lat="37.83049735626502" lon="15.250442259601826"><ele>51.0</ele><time>2026-03-28T15:11:03Z</time></trkpt><trkpt lat="37.830445893569255" lon="15.25052646580449"><ele>51.0</ele><time>2026-03-28T15:11:04Z</time></trkpt><trkpt lat="37.8303983089956" lon="15.250608403545113"><ele>51.0</ele><time>2026-03-28T15:11:05Z</time></trkpt><trkpt lat="37.83035550582863" lon="15.250689934116666"><ele>51.0</ele><time>2026-03-28T15:11:06Z</time></trkpt><trkpt lat="37.83030812196689" lon="15.250775563898427"><ele>51.0</ele><time>2026-03-28T15:11:07Z</time></trkpt><trkpt lat="37.830252135931545" lon="15.250868570941794"><ele>51.0</ele><time>2026-03-28T15:11:08Z</time></trkpt><trkpt lat="37.83019302736752" lon="15.250969998560292"><ele>51.0</ele><time>2026-03-28T15:11:09Z</time></trkpt><trkpt lat="37.83013823010757" lon="15.251065783896955"><ele>50.199999999999996</ele><time>2026-03-28T15:11:10Z</time></trkpt><trkpt lat="37.830083993922734" lon="15.251159957948273"><ele>49.4</ele><time>2026-03-28T15:11:11Z</time></trkpt><trkpt lat="37.83002557130401" lon="15.251260537553247"><ele>48.6</ele><time>2026-03-28T15:11:12Z</time></trkpt><trkpt lat="37.82996341326185" lon="15.251370569090831"><ele>47.8</ele><time>2026-03-28T15:11:13Z</time></trkpt><trkpt lat="37.82990127946796" lon="15.251485450161498"><ele>47.0</ele><time>2026-03-28T15:11:14Z</time></trkpt><trkpt lat="37.82983890116403" lon="15.25159848955696"><ele>47.0</ele><time>2026-03-28T15:11:15Z</time></trkpt><trkpt lat="37.82978452987773" lon="15.251708279072208"><ele>47.0</ele><time>2026-03-28T15:11:16Z</time></trkpt><trkpt lat="37.82973345477989" lon="15.251810255818711"><ele>47.0</ele><time>2026-03-28T15:11:17Z</time></trkpt><trkpt lat="37.829680790290915" lon="15.251909076149397"><ele>47.0</ele><time>2026-03-28T15:11:18Z</time></trkpt><trkpt lat="37.82962383579335" lon="15.252012667321617"><ele>47.0</ele><time>2026-03-28T15:11:19Z</time></trkpt><trkpt lat="37.829559064015655" lon="15.25212085928186"><ele>47.0</ele><time>2026-03-28T15:11:20Z</time></trkpt><trkpt lat="37.82949266421956" lon="15.252227626992964"><ele>47.0</ele><time>2026-03-28T15:11:21Z</time></trkpt><trkpt lat="37.82943253082625" lon="15.252329251500157"><ele>47.0</ele><time>2026-03-28T15:11:22Z</time></trkpt><trkpt lat="37.829375677617385" lon="15.252428419245312"><ele>47.0</ele><time>2026-03-28T15:11:23Z</time></trkpt><trkpt lat="37.82932189518367" lon="15.252523710988697"><ele>47.0</ele><time>2026-03-28T15:11:24Z</time></trkpt><trkpt lat="37.82927218484623" lon="15.252619506536963"><ele>46.8</ele><time>2026-03-28T15:11:25Z</time></trkpt><trkpt lat="37.82921940614382" lon="15.25271364871692"><ele>46.6</ele><time>2026-03-28T15:11:26Z</time></trkpt><trkpt lat="37.82916048946628" lon="15.252811043310025"><ele>46.4</ele><time>2026-03-28T15:11:27Z</time></trkpt><trkpt lat="37.82909951174711" lon="15.252912150012264"><ele>46.199999999999996</ele><time>2026-03-28T15:11:28Z</time></trkpt><trkpt lat="37.82904212530385" lon="15.253009389074151"><ele>46.0</ele><time>2026-03-28T15:11:29Z</time></trkpt><trkpt lat="37.828986740221765" lon="15.253108122079153"><ele>45.5</ele><time>2026-03-28T15:11:30Z</time></trkpt><trkpt lat="37.82893018233632" lon="15.253205264962924"><ele>45.0</ele><time>2026-03-28T15:11:31Z</time></trkpt><trkpt lat="37.82887841149719" lon="15.253299127403723"><ele>44.5</ele><time>2026-03-28T15:11:32Z</time></trkpt><trkpt lat="37.82882871576036" lon="15.253392094209017"><ele>44.0</ele><time>2026-03-28T15:11:33Z</time></trkpt><trkpt lat="37.82878453811066" lon="15.25348424539365"><ele>43.5</ele><time>2026-03-28T15:11:34Z</time></trkpt><trkpt lat="37.82874342125619" lon="15.25356501465847"><ele>43.0</ele><time>2026-03-28T15:11:35Z</time></trkpt><trkpt lat="37.82870216572159" lon="15.253640977416323"><ele>43.0</ele><time>2026-03-28T15:11:36Z</time></trkpt><trkpt lat="37.82866486858757" lon="15.253711293334137"><ele>43.0</ele><time>2026-03-28T15:11:37Z</time></trkpt><trkpt lat="37.82862677703648" lon="15.2537791481871"><ele>43.0</ele><time>2026-03-28T15:11:38Z</time></trkpt><trkpt lat="37.82855320797979" lon="15.253901953150692"><ele>43.0</ele><time>2026-03-28T15:11:40Z</time></trkpt><trkpt lat="37.82851703460204" lon="15.25396748399557"><ele>43.0</ele><time>2026-03-28T15:11:41Z</time></trkpt><trkpt lat="37.82844480542547" lon="15.254088892375911"><ele>43.0</ele><time>2026-03-28T15:11:43Z</time></trkpt><trkpt lat="37.82840620652012" lon="15.25415724515368"><ele>43.0</ele><time>2026-03-28T15:11:44Z</time></trkpt><trkpt lat="37.828361223181886" lon="15.254236949683866"><ele>43.0</ele><time>2026-03-28T15:11:45Z</time></trkpt><trkpt lat="37.82831449596737" lon="15.254318603647288"><ele>43.0</ele><time>2026-03-28T15:11:46Z</time></trkpt><trkpt lat="37.82826894473158" lon="15.254399454768487"><ele>43.0</ele><time>2026-03-28T15:11:47Z</time></trkpt><trkpt lat="37.828227250634406" lon="15.254480662010069"><ele>43.0</ele><time>2026-03-28T15:11:48Z</time></trkpt><trkpt lat="37.82818080443512" lon="15.254565781651353"><ele>43.0</ele><time>2026-03-28T15:11:49Z</time></trkpt><trkpt lat="37.82812772433272" lon="15.254646081909192"><ele>43.0</ele><time>2026-03-28T15:11:50Z</time></trkpt><trkpt lat="37.82807357487334" lon="15.254733543069165"><ele>43.0</ele><time>2026-03-28T15:11:51Z</time></trkpt><trkpt lat="37.828016908282315" lon="15.254831745669645"><ele>43.0</ele><time>2026-03-28T15:11:52.001Z</time></trkpt><trkpt lat="37.82795745882287" lon="15.254932493377375"><ele>43.0</ele><time>2026-03-28T15:11:52.999Z</time></trkpt><trkpt lat="37.827899564552524" lon="15.255036392205474"><ele>43.0</ele><time>2026-03-28T15:11:53.999Z</time></trkpt><trkpt lat="37.82784210461113" lon="15.255139438204367"><ele>42.4</ele><time>2026-03-28T15:11:54.999Z</time></trkpt><trkpt lat="37.82778250844492" lon="15.255240700274857"><ele>41.8</ele><time>2026-03-28T15:11:55.999Z</time></trkpt><trkpt lat="37.82771998068875" lon="15.255347086614208"><ele>41.2</ele><time>2026-03-28T15:11:56.999Z</time></trkpt><trkpt lat="37.827653455580915" lon="15.25545985146739"><ele>40.6</ele><time>2026-03-28T15:11:57.999Z</time></trkpt><trkpt lat="37.8275853282239" lon="15.255580715705458"><ele>40.0</ele><time>2026-03-28T15:11:58.999Z</time></trkpt><trkpt lat="37.82751598560903" lon="15.255704504026355"><ele>39.6</ele><time>2026-03-28T15:11:59.999Z</time></trkpt><trkpt lat="37.82744740809776" lon="15.255823414646327"><ele>39.2</ele><time>2026-03-28T15:12:00.999Z</time></trkpt><trkpt lat="37.82738561253262" lon="15.255930602594896"><ele>38.8</ele><time>2026-03-28T15:12:01.999Z</time></trkpt><trkpt lat="37.827327300318075" lon="15.256027666621861"><ele>38.4</ele><time>2026-03-28T15:12:02.999Z</time></trkpt><trkpt lat="37.82727259745533" lon="15.25611999401316"><ele>38.0</ele><time>2026-03-28T15:12:03.999Z</time></trkpt><trkpt lat="37.82722245704758" lon="15.256206458542929"><ele>38.0</ele><time>2026-03-28T15:12:04.999Z</time></trkpt><trkpt lat="37.827167308995946" lon="15.256300133233461"><ele>38.0</ele><time>2026-03-28T15:12:05.999Z</time></trkpt><trkpt lat="37.82710158717676" lon="15.256408383031234"><ele>38.0</ele><time>2026-03-28T15:12:06.999Z</time></trkpt><trkpt lat="37.827030797332604" lon="15.256531801757955"><ele>38.0</ele><time>2026-03-28T15:12:07.999Z</time></trkpt><trkpt lat="37.8269665508081" lon="15.256650435348691"><ele>38.0</ele><time>2026-03-28T15:12:08.999Z</time></trkpt><trkpt lat="37.82690755318661" lon="15.256757412166666"><ele>37.6</ele><time>2026-03-28T15:12:09.999Z</time></trkpt><trkpt lat="37.82685404564604" lon="15.25685651590731"><ele>37.199999999999996</ele><time>2026-03-28T15:12:10.999Z</time></trkpt><trkpt lat="37.82680172135968" lon="15.256966082251065"><ele>36.8</ele><time>2026-03-28T15:12:11.999Z</time></trkpt><trkpt lat="37.8267489165652" lon="15.25708827778119"><ele>36.4</ele><time>2026-03-28T15:12:12.999Z</time></trkpt><trkpt lat="37.826696359833235" lon="15.257218417920114"><ele>36.0</ele><time>2026-03-28T15:12:14Z</time></trkpt><trkpt lat="37.82664818413312" lon="15.2573552653455"><ele>35.75</ele><time>2026-03-28T15:12:15Z</time></trkpt><trkpt lat="37.826606401071395" lon="15.25750180703613"><ele>35.5</ele><time>2026-03-28T15:12:16Z</time></trkpt><trkpt lat="37.82657236476948" lon="15.257660733230022"><ele>35.25</ele><time>2026-03-28T15:12:17Z</time></trkpt><trkpt lat="37.82654297165797" lon="15.257825668084982"><ele>35.0</ele><time>2026-03-28T15:12:18Z</time></trkpt><trkpt lat="37.826521149495235" lon="15.2579969947698"><ele>34.75</ele><time>2026-03-28T15:12:19Z</time></trkpt><trkpt lat="37.82651231746535" lon="15.258160722221128"><ele>34.5</ele><time>2026-03-28T15:12:20Z</time></trkpt><trkpt lat="37.82651247398831" lon="15.258319250842288"><ele>34.25</ele><time>2026-03-28T15:12:21Z</time></trkpt><trkpt lat="37.82651917367508" lon="15.258465838428823"><ele>34.0</ele><time>2026-03-28T15:12:22Z</time></trkpt><trkpt lat="37.82652833371958" lon="15.258598014279828"><ele>34.0</ele><time>2026-03-28T15:12:23Z</time></trkpt><trkpt lat="37.82654191440671" lon="15.258719098572001"><ele>34.0</ele><time>2026-03-28T15:12:24Z</time></trkpt><trkpt lat="37.8265602964902" lon="15.258834178005417"><ele>34.0</ele><time>2026-03-28T15:12:25Z</time></trkpt><trkpt lat="37.826582631579605" lon="15.258949759894794"><ele>34.0</ele><time>2026-03-28T15:12:26Z</time></trkpt><trkpt lat="37.82660791462527" lon="15.259060182186163"><ele>34.0</ele><time>2026-03-28T15:12:27Z</time></trkpt><trkpt lat="37.826635384638976" lon="15.25915938817895"><ele>33.833333333333336</ele><time>2026-03-28T15:12:28Z</time></trkpt><trkpt lat="37.826666620719834" lon="15.259250575025767"><ele>33.66666666666667</ele><time>2026-03-28T15:12:29Z</time></trkpt><trkpt lat="37.82669594292022" lon="15.259330926434393"><ele>33.5</ele><time>2026-03-28T15:12:30Z</time></trkpt><trkpt lat="37.82674269429129" lon="15.259471511957306"><ele>33.333333333333336</ele><time>2026-03-28T15:12:32Z</time></trkpt><trkpt lat="37.82678053026566" lon="15.259577834438462"><ele>33.166666666666664</ele><time>2026-03-28T15:12:34Z</time></trkpt><trkpt lat="37.826810304133666" lon="15.259665342338392"><ele>33.0</ele><time>2026-03-28T15:12:37Z</time></trkpt><trkpt lat="37.82685826130909" lon="15.259750606752018"><ele>33.0</ele><time>2026-03-28T15:13:44Z</time></trkpt><trkpt lat="37.82691971943792" lon="15.259885482218"><ele>33.0</ele><time>2026-03-28T15:13:46Z</time></trkpt><trkpt lat="37.82695486832373" lon="15.259978673484582"><ele>33.0</ele><time>2026-03-28T15:13:47Z</time></trkpt><trkpt lat="37.826987089191114" lon="15.260088332815497"><ele>33.0</ele><time>2026-03-28T15:13:48Z</time></trkpt><trkpt lat="37.82701494754895" lon="15.260203050943094"><ele>33.0</ele><time>2026-03-28T15:13:49Z</time></trkpt><trkpt lat="37.82703514543976" lon="15.260312832492458"><ele>33.0</ele><time>2026-03-28T15:13:50Z</time></trkpt><trkpt lat="37.82704503893117" lon="15.26042146368941"><ele>33.0</ele><time>2026-03-28T15:13:51Z</time></trkpt><trkpt lat="37.82704365212466" lon="15.260533282229446"><ele>33.0</ele><time>2026-03-28T15:13:52Z</time></trkpt><trkpt lat="37.82703629023492" lon="15.2606463258862"><ele>33.0</ele><time>2026-03-28T15:13:53Z</time></trkpt><trkpt lat="37.82702182539192" lon="15.260766309997269"><ele>33.0</ele><time>2026-03-28T15:13:54Z</time></trkpt><trkpt lat="37.827001801911116" lon="15.26088060669942"><ele>33.0</ele><time>2026-03-28T15:13:55.001Z</time></trkpt><trkpt lat="37.826970139822315" lon="15.260985853614402"><ele>33.0</ele><time>2026-03-28T15:13:56.001Z</time></trkpt><trkpt lat="37.82693336016861" lon="15.26108135756134"><ele>33.0</ele><time>2026-03-28T15:13:57.001Z</time></trkpt><trkpt lat="37.82689357514046" lon="15.261168593356636"><ele>33.0</ele><time>2026-03-28T15:13:58.001Z</time></trkpt><trkpt lat="37.82685459407105" lon="15.261237919156551"><ele>33.0</ele><time>2026-03-28T15:13:59Z</time></trkpt><trkpt lat="37.8268034531754" lon="15.261319411151188"><ele>33.0</ele><time>2026-03-28T15:14:01Z</time></trkpt><trkpt lat="37.826753662720655" lon="15.26137258610085"><ele>32.6</ele><time>2026-03-28T15:22:07.001Z</time></trkpt><trkpt lat="37.82668556375926" lon="15.261487433782365"><ele>32.199999999999996</ele><time>2026-03-28T15:22:09.001Z</time></trkpt><trkpt lat="37.82664767019882" lon="15.261553926414157"><ele>31.8</ele><time>2026-03-28T15:22:10.001Z</time></trkpt><trkpt lat="37.82659568891585" lon="15.261636268873245"><ele>31.4</ele><time>2026-03-28T15:22:11.001Z</time></trkpt><trkpt lat="37.826537671995865" lon="15.261732855705496"><ele>31.0</ele><time>2026-03-28T15:22:12.001Z</time></trkpt><trkpt lat="37.82646987836143" lon="15.261834863657018"><ele>31.0</ele><time>2026-03-28T15:22:13.001Z</time></trkpt><trkpt lat="37.82639445703474" lon="15.261939470171217"><ele>31.0</ele><time>2026-03-28T15:22:14.001Z</time></trkpt><trkpt lat="37.82631808583284" lon="15.262051292679049"><ele>31.0</ele><time>2026-03-28T15:22:15.001Z</time></trkpt><trkpt lat="37.826244332139204" lon="15.262165747881646"><ele>31.0</ele><time>2026-03-28T15:22:16.001Z</time></trkpt><trkpt lat="37.826169072628836" lon="15.262275894163977"><ele>31.0</ele><time>2026-03-28T15:22:17.001Z</time></trkpt><trkpt lat="37.82609348565967" lon="15.26239199816433"><ele>31.0</ele><time>2026-03-28T15:22:18.001Z</time></trkpt><trkpt lat="37.82602388954395" lon="15.262500465540128"><ele>31.0</ele><time>2026-03-28T15:22:19.001Z</time></trkpt><trkpt lat="37.82595969713096" lon="15.262603150489689"><ele>31.0</ele><time>2026-03-28T15:22:20.001Z</time></trkpt><trkpt lat="37.82589113437129" lon="15.26270588775672"><ele>31.0</ele><time>2026-03-28T15:22:21.001Z</time></trkpt><trkpt lat="37.82582239285259" lon="15.262816014344125"><ele>31.0</ele><time>2026-03-28T15:22:22.001Z</time></trkpt><trkpt lat="37.82575130000891" lon="15.262929911260375"><ele>31.0</ele><time>2026-03-28T15:22:23.001Z</time></trkpt><trkpt lat="37.82567904473264" lon="15.26304575887522"><ele>31.0</ele><time>2026-03-28T15:22:24.001Z</time></trkpt><trkpt lat="37.82560897308997" lon="15.263157291164681"><ele>31.0</ele><time>2026-03-28T15:22:25.001Z</time></trkpt><trkpt lat="37.825539736146276" lon="15.26326631174615"><ele>31.75</ele><time>2026-03-28T15:22:26.001Z</time></trkpt><trkpt lat="37.82546525658906" lon="15.263376755572557"><ele>32.5</ele><time>2026-03-28T15:22:27.001Z</time></trkpt><trkpt lat="37.825386934462166" lon="15.263497111774939"><ele>33.25</ele><time>2026-03-28T15:22:28.001Z</time></trkpt><trkpt lat="37.82530523082666" lon="15.263622924225833"><ele>34.0</ele><time>2026-03-28T15:22:29.001Z</time></trkpt><trkpt lat="37.82521395046268" lon="15.263762278303295"><ele>33.333333333333336</ele><time>2026-03-28T15:22:30.001Z</time></trkpt><trkpt lat="37.825120957650846" lon="15.263913071916814"><ele>32.666666666666664</ele><time>2026-03-28T15:22:31.001Z</time></trkpt><trkpt lat="37.825013621736346" lon="15.264067925124332"><ele>32.0</ele><time>2026-03-28T15:22:32.001Z</time></trkpt><trkpt lat="37.824906979016205" lon="15.264229454886076"><ele>32.0</ele><time>2026-03-28T15:22:33.001Z</time></trkpt><trkpt lat="37.82479784062094" lon="15.264395411543314"><ele>32.0</ele><time>2026-03-28T15:22:34.001Z</time></trkpt><trkpt lat="37.82468503189562" lon="15.264566324404854"><ele>32.0</ele><time>2026-03-28T15:22:35.001Z</time></trkpt><trkpt lat="37.82457360679635" lon="15.264732958943872"><ele>30.666666666666664</ele><time>2026-03-28T15:22:36.001Z</time></trkpt><trkpt lat="37.824464854325456" lon="15.264899803195927"><ele>29.333333333333336</ele><time>2026-03-28T15:22:37.001Z</time></trkpt><trkpt lat="37.82435822544613" lon="15.265076578811055"><ele>28.0</ele><time>2026-03-28T15:22:38.001Z</time></trkpt><trkpt lat="37.82426408894176" lon="15.265268330124762"><ele>28.0</ele><time>2026-03-28T15:22:39.001Z</time></trkpt><trkpt lat="37.824186592275574" lon="15.265476392858085"><ele>28.0</ele><time>2026-03-28T15:22:40.001Z</time></trkpt><trkpt lat="37.82411864045422" lon="15.26568996266684"><ele>28.0</ele><time>2026-03-28T15:22:41.001Z</time></trkpt><trkpt lat="37.82405456500772" lon="15.265898690545548"><ele>26.666666666666668</ele><time>2026-03-28T15:22:42Z</time></trkpt><trkpt lat="37.823991850262026" lon="15.26609290647858"><ele>25.333333333333336</ele><time>2026-03-28T15:22:43Z</time></trkpt><trkpt lat="37.82393149041216" lon="15.266283107291535"><ele>24.0</ele><time>2026-03-28T15:22:44Z</time></trkpt><trkpt lat="37.82387688265066" lon="15.266475000931925"><ele>23.25</ele><time>2026-03-28T15:22:45Z</time></trkpt><trkpt lat="37.8238377685645" lon="15.266653425738975"><ele>22.5</ele><time>2026-03-28T15:22:46Z</time></trkpt><trkpt lat="37.823833736805746" lon="15.266836246002352"><ele>21.75</ele><time>2026-03-28T15:22:47Z</time></trkpt><trkpt lat="37.823870213644554" lon="15.26700811563637"><ele>21.0</ele><time>2026-03-28T15:22:48Z</time></trkpt><trkpt lat="37.82393944830929" lon="15.26716246373842"><ele>20.25</ele><time>2026-03-28T15:22:49Z</time></trkpt><trkpt lat="37.824036471530874" lon="15.267294347706164"><ele>19.5</ele><time>2026-03-28T15:22:50Z</time></trkpt><trkpt lat="37.82414903986191" lon="15.267396552388206"><ele>18.75</ele><time>2026-03-28T15:22:51Z</time></trkpt><trkpt lat="37.82427456192474" lon="15.267455652335064"><ele>18.0</ele><time>2026-03-28T15:22:52Z</time></trkpt><trkpt lat="37.82440347090275" lon="15.26746884497881"><ele>18.0</ele><time>2026-03-28T15:22:53Z</time></trkpt><trkpt lat="37.82452978844996" lon="15.267442509171387"><ele>18.0</ele><time>2026-03-28T15:22:54Z</time></trkpt><trkpt lat="37.824651472925446" lon="15.26738243066191"><ele>18.0</ele><time>2026-03-28T15:22:55Z</time></trkpt><trkpt lat="37.82476178740423" lon="15.267300477780392"><ele>18.0</ele><time>2026-03-28T15:22:56Z</time></trkpt><trkpt lat="37.824860470879" lon="15.267188868115138"><ele>18.5</ele><time>2026-03-28T15:22:57Z</time></trkpt><trkpt lat="37.82493872973031" lon="15.267049367291323"><ele>19.0</ele><time>2026-03-28T15:22:58Z</time></trkpt><trkpt lat="37.824989396926554" lon="15.266904424862393"><ele>19.5</ele><time>2026-03-28T15:22:59Z</time></trkpt><trkpt lat="37.82503278896146" lon="15.26678505487524"><ele>20.0</ele><time>2026-03-28T15:23:00Z</time></trkpt><trkpt lat="37.82509015604303" lon="15.26669722490858"><ele>20.166666666666668</ele><time>2026-03-28T15:23:01Z</time></trkpt><trkpt lat="37.82516044595467" lon="15.266624285401475"><ele>20.333333333333336</ele><time>2026-03-28T15:23:02Z</time></trkpt><trkpt lat="37.82524450295274" lon="15.266572088102958"><ele>20.5</ele><time>2026-03-28T15:23:03Z</time></trkpt><trkpt lat="37.82534158041057" lon="15.266545418126631"><ele>20.666666666666668</ele><time>2026-03-28T15:23:04Z</time></trkpt><trkpt lat="37.82542828152657" lon="15.266528750771986"><ele>20.833333333333332</ele><time>2026-03-28T15:23:05Z</time></trkpt><trkpt lat="37.8254957803287" lon="15.266513357828911"><ele>21.0</ele><time>2026-03-28T15:23:06Z</time></trkpt><trkpt lat="37.825586344107265" lon="15.26661257925269"><ele>21.0</ele><time>2026-03-28T15:23:07Z</time></trkpt><trkpt lat="37.82566889844525" lon="15.266665487487339"><ele>21.0</ele><time>2026-03-28T15:23:08Z</time></trkpt><trkpt lat="37.82575619278434" lon="15.266718140827644"><ele>21.0</ele><time>2026-03-28T15:23:09Z</time></trkpt><trkpt lat="37.825832082814074" lon="15.266753985678347"><ele>21.0</ele><time>2026-03-28T15:23:10Z</time></trkpt><trkpt lat="37.8259248205968" lon="15.26680503097425"><ele>21.0</ele><time>2026-03-28T15:23:12Z</time></trkpt><trkpt lat="37.825951140589765" lon="15.266892768537733"><ele>21.0</ele><time>2026-03-28T15:23:15Z</time></trkpt><trkpt lat="37.825901243279176" lon="15.267011283111577"><ele>21.0</ele><time>2026-03-28T15:23:16Z</time></trkpt><trkpt lat="37.82587771834788" lon="15.26712265511251"><ele>21.0</ele><time>2026-03-28T15:23:17Z</time></trkpt><trkpt lat="37.82583298380773" lon="15.267203702697035"><ele>21.0</ele><time>2026-03-28T15:23:18Z</time></trkpt><trkpt lat="37.82581834454224" lon="15.26729882210403"><ele>21.0</ele><time>2026-03-28T15:23:19Z</time></trkpt><trkpt lat="37.82578624711399" lon="15.26739339942581"><ele>21.0</ele><time>2026-03-28T15:23:20Z</time></trkpt><trkpt lat="37.82575264722222" lon="15.267496932948893"><ele>21.0</ele><time>2026-03-28T15:23:21Z</time></trkpt><trkpt lat="37.82571993616237" lon="15.267597727655266"><ele>20.833333333333332</ele><time>2026-03-28T15:23:22Z</time></trkpt><trkpt lat="37.82569113677456" lon="15.26768829541626"><ele>20.666666666666668</ele><time>2026-03-28T15:23:23Z</time></trkpt><trkpt lat="37.82567068127536" lon="15.267771575210451"><ele>20.5</ele><time>2026-03-28T15:23:24Z</time></trkpt><trkpt lat="37.82566938071222" lon="15.26785940333385"><ele>20.333333333333336</ele><time>2026-03-28T15:23:25Z</time></trkpt><trkpt lat="37.82568993222897" lon="15.267954408118689"><ele>20.166666666666668</ele><time>2026-03-28T15:23:26Z</time></trkpt><trkpt lat="37.82571686795322" lon="15.268052504641942"><ele>20.0</ele><time>2026-03-28T15:23:27Z</time></trkpt><trkpt lat="37.825737342938325" lon="15.268145448891485"><ele>19.857142857142858</ele><time>2026-03-28T15:23:28Z</time></trkpt><trkpt lat="37.82575829008121" lon="15.26823909039779"><ele>19.714285714285715</ele><time>2026-03-28T15:23:29Z</time></trkpt><trkpt lat="37.82576661694559" lon="15.268334728547789"><ele>19.57142857142857</ele><time>2026-03-28T15:23:30Z</time></trkpt><trkpt lat="37.82578292879079" lon="15.268422824160595"><ele>19.42857142857143</ele><time>2026-03-28T15:23:31Z</time></trkpt><trkpt lat="37.82581031366762" lon="15.268510597687886"><ele>19.28571428571429</ele><time>2026-03-28T15:23:32Z</time></trkpt><trkpt lat="37.82582779201983" lon="15.268596238044408"><ele>19.142857142857142</ele><time>2026-03-28T15:23:33Z</time></trkpt><trkpt lat="37.82584830783403" lon="15.26868320557514"><ele>19.0</ele><time>2026-03-28T15:23:34Z</time></trkpt><trkpt lat="37.825867082433135" lon="15.268762457572237"><ele>19.0</ele><time>2026-03-28T15:23:35Z</time></trkpt><trkpt lat="37.82588925611749" lon="15.268868388537857"><ele>19.0</ele><time>2026-03-28T15:23:37Z</time></trkpt><trkpt lat="37.82590745538274" lon="15.268951697859803"><ele>19.0</ele><time>2026-03-28T15:23:40Z</time></trkpt><trkpt lat="37.82592567543407" lon="15.26903232263921"><ele>19.0</ele><time>2026-03-28T15:23:42Z</time></trkpt><trkpt lat="37.82594835467174" lon="15.26913142303319"><ele>19.0</ele><time>2026-03-28T15:23:45Z</time></trkpt><trkpt lat="37.825996371732344" lon="15.269214530764433"><ele>19.0</ele><time>2026-03-28T15:23:49Z</time></trkpt><trkpt lat="37.82606889949207" lon="15.2692052070666"><ele>17.285714285714285</ele><time>2026-03-28T15:23:52Z</time></trkpt><trkpt lat="37.82613106693365" lon="15.269180090119344"><ele>15.571428571428573</ele><time>2026-03-28T15:23:55Z</time></trkpt><trkpt lat="37.82619449766607" lon="15.269163431627646"><ele>13.857142857142858</ele><time>2026-03-28T15:23:58Z</time></trkpt><trkpt lat="37.82625591531679" lon="15.269144777454619"><ele>12.142857142857142</ele><time>2026-03-28T15:24:00Z</time></trkpt><trkpt lat="37.82632100574205" lon="15.269120948798278"><ele>10.428571428571429</ele><time>2026-03-28T15:24:02Z</time></trkpt><trkpt lat="37.82639212367876" lon="15.269095060048796"><ele>8.714285714285715</ele><time>2026-03-28T15:24:04Z</time></trkpt><trkpt lat="37.82645379256202" lon="15.269073964912545"><ele>7.0</ele><time>2026-03-28T15:24:06Z</time></trkpt><trkpt lat="37.82653261195934" lon="15.269045355586488"><ele>7.0</ele><time>2026-03-28T15:24:08Z</time></trkpt><trkpt lat="37.826636396532344" lon="15.268994406930595"><ele>6.999999999999999</ele><time>2026-03-28T15:24:10Z</time></trkpt><trkpt lat="37.826719230469195" lon="15.268965632447905"><ele>6.999999999999999</ele><time>2026-03-28T15:24:12Z</time></trkpt><trkpt lat="37.82681669782306" lon="15.268949354569635"><ele>7.0</ele><time>2026-03-28T15:24:14Z</time></trkpt><trkpt lat="37.826929170507135" lon="15.268905071713773"><ele>7.0</ele><time>2026-03-28T15:24:16Z</time></trkpt><trkpt lat="37.82699542254259" lon="15.26888410602478"><ele>8.166666666666668</ele><time>2026-03-28T15:24:17Z</time></trkpt><trkpt lat="37.82706253708207" lon="15.268858711262293"><ele>9.333333333333334</ele><time>2026-03-28T15:24:18Z</time></trkpt><trkpt lat="37.827132926408495" lon="15.268837353497915"><ele>10.5</ele><time>2026-03-28T15:24:19Z</time></trkpt><trkpt lat="37.82719778723985" lon="15.268814319763232"><ele>11.666666666666668</ele><time>2026-03-28T15:24:20Z</time></trkpt><trkpt lat="37.827267331696255" lon="15.268791958666142"><ele>12.833333333333334</ele><time>2026-03-28T15:24:21Z</time></trkpt><trkpt lat="37.82738453984217" lon="15.268754419666816"><ele>14.0</ele><time>2026-03-28T15:24:23Z</time></trkpt><trkpt lat="37.82750317824486" lon="15.268733131216246"><ele>14.0</ele><time>2026-03-28T15:24:25Z</time></trkpt><trkpt lat="37.827617952785054" lon="15.268726174845153"><ele>14.0</ele><time>2026-03-28T15:24:27Z</time></trkpt><trkpt lat="37.82773606172569" lon="15.268726516131071"><ele>14.0</ele><time>2026-03-28T15:24:28.999Z</time></trkpt><trkpt lat="37.82785557054607" lon="15.268729453485754"><ele>14.0</ele><time>2026-03-28T15:24:30.999Z</time></trkpt><trkpt lat="37.8279574212437" lon="15.268728416021117"><ele>13.6</ele><time>2026-03-28T15:24:32.999Z</time></trkpt><trkpt lat="37.82806274780466" lon="15.26872450540719"><ele>13.2</ele><time>2026-03-28T15:24:34.999Z</time></trkpt><trkpt lat="37.82818927456216" lon="15.268725071564393"><ele>12.799999999999999</ele><time>2026-03-28T15:24:36.999Z</time></trkpt><trkpt lat="37.82825333003812" lon="15.26872766881214"><ele>12.399999999999999</ele><time>2026-03-28T15:24:37.999Z</time></trkpt><trkpt lat="37.82836113682188" lon="15.268730629644478"><ele>12.0</ele><time>2026-03-28T15:24:39.999Z</time></trkpt><trkpt lat="37.82846034768221" lon="15.268732633338402"><ele>12.5</ele><time>2026-03-28T15:24:41.999Z</time></trkpt><trkpt lat="37.828572668098126" lon="15.268735662986154"><ele>13.0</ele><time>2026-03-28T15:24:43.999Z</time></trkpt><trkpt lat="37.82863589712551" lon="15.268736633357518"><ele>13.5</ele><time>2026-03-28T15:24:44.999Z</time></trkpt><trkpt lat="37.82870159085449" lon="15.268737010467861"><ele>14.0</ele><time>2026-03-28T15:24:45.999Z</time></trkpt><trkpt lat="37.82877163955042" lon="15.26873839908475"><ele>14.5</ele><time>2026-03-28T15:24:46.999Z</time></trkpt><trkpt lat="37.82884007753411" lon="15.268738927869332"><ele>15.0</ele><time>2026-03-28T15:24:47.999Z</time></trkpt><trkpt lat="37.82896402773754" lon="15.268745093119088"><ele>15.0</ele><time>2026-03-28T15:24:49.999Z</time></trkpt><trkpt lat="37.8290855468632" lon="15.268746657480289"><ele>15.0</ele><time>2026-03-28T15:24:51.999Z</time></trkpt><trkpt lat="37.82920547341998" lon="15.268757728024813"><ele>15.0</ele><time>2026-03-28T15:24:53.999Z</time></trkpt><trkpt lat="37.82931482375922" lon="15.268769246898916"><ele>15.0</ele><time>2026-03-28T15:24:55.999Z</time></trkpt><trkpt lat="37.82943297501444" lon="15.268789652490904"><ele>15.4</ele><time>2026-03-28T15:24:57.999Z</time></trkpt><trkpt lat="37.82954733319195" lon="15.268813958876576"><ele>15.8</ele><time>2026-03-28T15:24:59.999Z</time></trkpt><trkpt lat="37.82965941833103" lon="15.2688346824329"><ele>16.2</ele><time>2026-03-28T15:25:01.999Z</time></trkpt><trkpt lat="37.829766764055115" lon="15.26886352538746"><ele>16.6</ele><time>2026-03-28T15:25:03.999Z</time></trkpt><trkpt lat="37.82986579121366" lon="15.268888419013855"><ele>17.0</ele><time>2026-03-28T15:25:06Z</time></trkpt><trkpt lat="37.829980960210534" lon="15.268924621686372"><ele>17.0</ele><time>2026-03-28T15:25:08Z</time></trkpt><trkpt lat="37.830042788015035" lon="15.268940399017254"><ele>17.0</ele><time>2026-03-28T15:25:09Z</time></trkpt><trkpt lat="37.83010651363892" lon="15.268957286440562"><ele>17.0</ele><time>2026-03-28T15:25:10Z</time></trkpt><trkpt lat="37.83021310608837" lon="15.268986581267907"><ele>17.0</ele><time>2026-03-28T15:25:12Z</time></trkpt><trkpt lat="37.83029440716251" lon="15.269007561034092"><ele>17.0</ele><time>2026-03-28T15:25:14Z</time></trkpt><trkpt lat="37.830387881364295" lon="15.269031040831448"><ele>17.0</ele><time>2026-03-28T15:25:17Z</time></trkpt><trkpt lat="37.83046092019199" lon="15.269052947420654"><ele>14.857142857142856</ele><time>2026-03-28T15:25:19Z</time></trkpt><trkpt lat="37.83052141412063" lon="15.269077324265062"><ele>12.714285714285714</ele><time>2026-03-28T15:25:21Z</time></trkpt><trkpt lat="37.83058812040018" lon="15.269105058821031"><ele>10.571428571428571</ele><time>2026-03-28T15:25:23Z</time></trkpt><trkpt lat="37.8306542221192" lon="15.269131725767679"><ele>8.428571428571427</ele><time>2026-03-28T15:25:25Z</time></trkpt><trkpt lat="37.8307194372909" lon="15.269157971915424"><ele>6.285714285714285</ele><time>2026-03-28T15:25:27Z</time></trkpt><trkpt lat="37.83079173917771" lon="15.269183849707051"><ele>4.142857142857142</ele><time>2026-03-28T15:25:29Z</time></trkpt><trkpt lat="37.83086179549117" lon="15.269215608915657"><ele>2.0</ele><time>2026-03-28T15:25:31Z</time></trkpt><trkpt lat="37.83093949596112" lon="15.269258484646047"><ele>3.333333333333333</ele><time>2026-03-28T15:25:33Z</time></trkpt><trkpt lat="37.831010520193544" lon="15.269294622889968"><ele>4.666666666666667</ele><time>2026-03-28T15:25:35Z</time></trkpt><trkpt lat="37.83110996559322" lon="15.269344431218467"><ele>6.0</ele><time>2026-03-28T15:25:37Z</time></trkpt><trkpt lat="37.831215804772" lon="15.269407393346857"><ele>7.333333333333334</ele><time>2026-03-28T15:25:39Z</time></trkpt><trkpt lat="37.83127549447092" lon="15.269441636528404"><ele>8.666666666666668</ele><time>2026-03-28T15:25:40Z</time></trkpt><trkpt lat="37.83133624598263" lon="15.269473416785067"><ele>10.0</ele><time>2026-03-28T15:25:41Z</time></trkpt><trkpt lat="37.83139489267357" lon="15.269505330971898"><ele>10.0</ele><time>2026-03-28T15:25:42Z</time></trkpt><trkpt lat="37.83151163016254" lon="15.269572261807433"><ele>10.0</ele><time>2026-03-28T15:25:44Z</time></trkpt><trkpt lat="37.83157585483521" lon="15.269609144051008"><ele>10.0</ele><time>2026-03-28T15:25:45Z</time></trkpt><trkpt lat="37.83165056440934" lon="15.269650600860029"><ele>10.0</ele><time>2026-03-28T15:25:46Z</time></trkpt><trkpt lat="37.83172394104863" lon="15.269692944544865"><ele>10.0</ele><time>2026-03-28T15:25:47Z</time></trkpt><trkpt lat="37.831797464701594" lon="15.26974045442773"><ele>10.0</ele><time>2026-03-28T15:25:48Z</time></trkpt><trkpt lat="37.831872467466454" lon="15.269788490824814"><ele>9.0</ele><time>2026-03-28T15:25:49Z</time></trkpt><trkpt lat="37.831948814689646" lon="15.269836659151732"><ele>8.0</ele><time>2026-03-28T15:25:50Z</time></trkpt><trkpt lat="37.83202492196912" lon="15.269885038132024"><ele>7.0</ele><time>2026-03-28T15:25:51Z</time></trkpt><trkpt lat="37.83210282175881" lon="15.269936979452945"><ele>6.0</ele><time>2026-03-28T15:25:52Z</time></trkpt><trkpt lat="37.832178714118506" lon="15.269990775813607"><ele>5.0</ele><time>2026-03-28T15:25:53Z</time></trkpt><trkpt lat="37.83225894494063" lon="15.270051878176705"><ele>4.0</ele><time>2026-03-28T15:25:54Z</time></trkpt><trkpt lat="37.83233671273048" lon="15.270113852671425"><ele>3.9999999999999996</ele><time>2026-03-28T15:25:55Z</time></trkpt><trkpt lat="37.83241306324351" lon="15.270175122074733"><ele>4.0</ele><time>2026-03-28T15:25:56Z</time></trkpt><trkpt lat="37.832486670996886" lon="15.270235099079455"><ele>4.0</ele><time>2026-03-28T15:25:57Z</time></trkpt><trkpt lat="37.832557058594205" lon="15.270294066298284"><ele>4.0</ele><time>2026-03-28T15:25:58Z</time></trkpt><trkpt lat="37.832627544739374" lon="15.27035205302837"><ele>3.9999999999999996</ele><time>2026-03-28T15:25:59Z</time></trkpt><trkpt lat="37.8326978718651" lon="15.270408188198553"><ele>4.0</ele><time>2026-03-28T15:26:00Z</time></trkpt><trkpt lat="37.83276950274951" lon="15.27046547793732"><ele>4.333333333333333</ele><time>2026-03-28T15:26:01Z</time></trkpt><trkpt lat="37.83284163511305" lon="15.270524515286784"><ele>4.666666666666666</ele><time>2026-03-28T15:26:02Z</time></trkpt><trkpt lat="37.83291400619161" lon="15.270584816088292"><ele>5.0</ele><time>2026-03-28T15:26:03Z</time></trkpt><trkpt lat="37.832980678132664" lon="15.270640278485548"><ele>5.333333333333333</ele><time>2026-03-28T15:26:04Z</time></trkpt><trkpt lat="37.833044185935755" lon="15.270692901807836"><ele>5.666666666666667</ele><time>2026-03-28T15:26:05Z</time></trkpt><trkpt lat="37.833107521121036" lon="15.270742547446336"><ele>6.0</ele><time>2026-03-28T15:26:06Z</time></trkpt><trkpt lat="37.83316863928782" lon="15.270788845960102"><ele>5.999999999999999</ele><time>2026-03-28T15:26:07Z</time></trkpt><trkpt lat="37.833227967828044" lon="15.270835141265184"><ele>6.0</ele><time>2026-03-28T15:26:08Z</time></trkpt><trkpt lat="37.833286454643556" lon="15.270879005044074"><ele>6.0</ele><time>2026-03-28T15:26:09Z</time></trkpt><trkpt lat="37.83334738905507" lon="15.270927393528503"><ele>6.0</ele><time>2026-03-28T15:26:10Z</time></trkpt><trkpt lat="37.83340635751447" lon="15.270973751060053"><ele>6.0</ele><time>2026-03-28T15:26:11Z</time></trkpt><trkpt lat="37.8334629688775" lon="15.271019166469841"><ele>5.999999999999999</ele><time>2026-03-28T15:26:12Z</time></trkpt><trkpt lat="37.833518325165834" lon="15.27106452516497"><ele>6.0</ele><time>2026-03-28T15:26:13Z</time></trkpt><trkpt lat="37.8335728518936" lon="15.271108211277314"><ele>6.142857142857142</ele><time>2026-03-28T15:26:14Z</time></trkpt><trkpt lat="37.83363152353985" lon="15.271152007381795"><ele>6.285714285714286</ele><time>2026-03-28T15:26:15Z</time></trkpt><trkpt lat="37.833693868179054" lon="15.271195968202347"><ele>6.428571428571429</ele><time>2026-03-28T15:26:16Z</time></trkpt><trkpt lat="37.833749946282055" lon="15.271242389824467"><ele>6.571428571428571</ele><time>2026-03-28T15:26:17Z</time></trkpt><trkpt lat="37.833808984189666" lon="15.271294676412946"><ele>6.714285714285714</ele><time>2026-03-28T15:26:18Z</time></trkpt><trkpt lat="37.83387337357772" lon="15.27134514193118"><ele>6.857142857142857</ele><time>2026-03-28T15:26:19Z</time></trkpt><trkpt lat="37.83394243765246" lon="15.271393831261497"><ele>7.0</ele><time>2026-03-28T15:26:20Z</time></trkpt><trkpt lat="37.834012690921234" lon="15.271442021026335"><ele>7.000000000000001</ele><time>2026-03-28T15:26:21Z</time></trkpt><trkpt lat="37.834083170451386" lon="15.271491039314649"><ele>7.0</ele><time>2026-03-28T15:26:22Z</time></trkpt><trkpt lat="37.83414749008006" lon="15.271532720345668"><ele>7.0</ele><time>2026-03-28T15:26:23Z</time></trkpt><trkpt lat="37.834203141783995" lon="15.271570885550299"><ele>7.0</ele><time>2026-03-28T15:26:24Z</time></trkpt><trkpt lat="37.83430484002919" lon="15.271643434422202"><ele>7.000000000000001</ele><time>2026-03-28T15:26:26Z</time></trkpt><trkpt lat="37.83436236798106" lon="15.27167931179425"><ele>7.0</ele><time>2026-03-28T15:26:27Z</time></trkpt><trkpt lat="37.83442435171441" lon="15.271715692171515"><ele>7.166666666666667</ele><time>2026-03-28T15:26:28Z</time></trkpt><trkpt lat="37.83448796428585" lon="15.27175508087647"><ele>7.333333333333334</ele><time>2026-03-28T15:26:29Z</time></trkpt><trkpt lat="37.834556215460005" lon="15.27180116182135"><ele>7.5</ele><time>2026-03-28T15:26:30Z</time></trkpt><trkpt lat="37.83462746121329" lon="15.271847015972341"><ele>7.666666666666666</ele><time>2026-03-28T15:26:31Z</time></trkpt><trkpt lat="37.834699376633885" lon="15.271890277362374"><ele>7.833333333333333</ele><time>2026-03-28T15:26:32Z</time></trkpt><trkpt lat="37.83476261000491" lon="15.271930161436844"><ele>8.0</ele><time>2026-03-28T15:26:33Z</time></trkpt><trkpt lat="37.83485379909178" lon="15.271989170207235"><ele>7.999999999999999</ele><time>2026-03-28T15:26:34.998Z</time></trkpt><trkpt lat="37.8349122235656" lon="15.272029146751361"><ele>8.0</ele><time>2026-03-28T15:26:38.998Z</time></trkpt><trkpt lat="37.83497763493543" lon="15.272042245700364"><ele>8.0</ele><time>2026-03-28T15:26:45.998Z</time></trkpt><trkpt lat="37.835039982380096" lon="15.27207621194205"><ele>8.0</ele><time>2026-03-28T15:26:48.999Z</time></trkpt><trkpt lat="37.83510569108852" lon="15.272098148336035"><ele>7.999999999999999</ele><time>2026-03-28T15:26:52.999Z</time></trkpt><trkpt lat="37.83504511528289" lon="15.27206457119947"><ele>8.0</ele><time>2026-03-28T15:34:50.001Z</time></trkpt><trkpt lat="37.83506929225805" lon="15.271921276072463"><ele>8.833333333333332</ele><time>2026-03-28T15:34:57.001Z</time></trkpt><trkpt lat="37.83513752026754" lon="15.271852473905334"><ele>9.666666666666666</ele><time>2026-03-28T15:35:07.001Z</time></trkpt><trkpt lat="37.8351707292152" lon="15.271759252360262"><ele>10.5</ele><time>2026-03-28T15:35:38Z</time></trkpt><trkpt lat="37.83521050798264" lon="15.27167512231472"><ele>11.333333333333332</ele><time>2026-03-28T15:35:40Z</time></trkpt><trkpt lat="37.835256506205724" lon="15.27160604802807"><ele>12.166666666666666</ele><time>2026-03-28T15:35:42Z</time></trkpt><trkpt lat="37.83529310796309" lon="15.27153890944642"><ele>13.0</ele><time>2026-03-28T15:35:44Z</time></trkpt><trkpt lat="37.835338584667795" lon="15.271469042969162"><ele>13.8</ele><time>2026-03-28T15:35:49Z</time></trkpt><trkpt lat="37.83522423498256" lon="15.271384046049079"><ele>14.600000000000001</ele><time>2026-03-28T15:35:50Z</time></trkpt><trkpt lat="37.835118220853346" lon="15.271319250342165"><ele>15.399999999999999</ele><time>2026-03-28T15:35:52Z</time></trkpt><trkpt lat="37.83506154855755" lon="15.27128273616023"><ele>16.2</ele><time>2026-03-28T15:35:53Z</time></trkpt><trkpt lat="37.83495660591705" lon="15.271209307753175"><ele>17.0</ele><time>2026-03-28T15:35:55Z</time></trkpt><trkpt lat="37.834847948360114" lon="15.27113457230861"><ele>17.5</ele><time>2026-03-28T15:35:57Z</time></trkpt><trkpt lat="37.83473647092944" lon="15.271057366632284"><ele>18.0</ele><time>2026-03-28T15:35:59Z</time></trkpt><trkpt lat="37.83467778432425" lon="15.271019870816318"><ele>18.5</ele><time>2026-03-28T15:36:00Z</time></trkpt><trkpt lat="37.83462009005979" lon="15.270971656561777"><ele>19.0</ele><time>2026-03-28T15:36:01Z</time></trkpt><trkpt lat="37.83456424538739" lon="15.270925581714161"><ele>19.5</ele><time>2026-03-28T15:36:02Z</time></trkpt><trkpt lat="37.834503460419484" lon="15.270881806667955"><ele>20.0</ele><time>2026-03-28T15:36:03Z</time></trkpt><trkpt lat="37.8344434018245" lon="15.270839892860423"><ele>20.0</ele><time>2026-03-28T15:36:04Z</time></trkpt><trkpt lat="37.8343359324754" lon="15.270768828765835"><ele>20.0</ele><time>2026-03-28T15:36:06Z</time></trkpt><trkpt lat="37.834235041763215" lon="15.270687411744824"><ele>20.0</ele><time>2026-03-28T15:36:08Z</time></trkpt><trkpt lat="37.83412755419452" lon="15.270617688521453"><ele>20.0</ele><time>2026-03-28T15:36:10Z</time></trkpt><trkpt lat="37.83402576091596" lon="15.270545613935717"><ele>20.833333333333336</ele><time>2026-03-28T15:36:12Z</time></trkpt><trkpt lat="37.83393259469721" lon="15.27048267011527"><ele>21.666666666666668</ele><time>2026-03-28T15:36:14Z</time></trkpt><trkpt lat="37.83382562992462" lon="15.2704005100831"><ele>22.5</ele><time>2026-03-28T15:36:16Z</time></trkpt><trkpt lat="37.8337689641331" lon="15.270356146952164"><ele>23.333333333333336</ele><time>2026-03-28T15:36:17Z</time></trkpt><trkpt lat="37.8337110368057" lon="15.270315456314801"><ele>24.166666666666668</ele><time>2026-03-28T15:36:18Z</time></trkpt><trkpt lat="37.83365353787876" lon="15.270274771523177"><ele>25.0</ele><time>2026-03-28T15:36:19Z</time></trkpt><trkpt lat="37.83359830735269" lon="15.270235052360768"><ele>25.0</ele><time>2026-03-28T15:36:20Z</time></trkpt><trkpt lat="37.83349819911528" lon="15.270156786255363"><ele>25.0</ele><time>2026-03-28T15:36:22Z</time></trkpt><trkpt lat="37.83340662438542" lon="15.27008280539026"><ele>25.0</ele><time>2026-03-28T15:36:24Z</time></trkpt><trkpt lat="37.833305674518876" lon="15.270000685485487"><ele>25.0</ele><time>2026-03-28T15:36:26Z</time></trkpt><trkpt lat="37.833252626739046" lon="15.26995428323965"><ele>25.0</ele><time>2026-03-28T15:36:27Z</time></trkpt><trkpt lat="37.83319719133226" lon="15.269906625686492"><ele>25.666666666666668</ele><time>2026-03-28T15:36:28Z</time></trkpt><trkpt lat="37.83313950611971" lon="15.269855315752709"><ele>26.333333333333336</ele><time>2026-03-28T15:36:29Z</time></trkpt><trkpt lat="37.833084797019936" lon="15.269807453201754"><ele>27.0</ele><time>2026-03-28T15:36:30Z</time></trkpt><trkpt lat="37.83298030523309" lon="15.269714186136161"><ele>27.666666666666664</ele><time>2026-03-28T15:36:32Z</time></trkpt><trkpt lat="37.83292567884754" lon="15.269664689968213"><ele>28.333333333333332</ele><time>2026-03-28T15:36:33Z</time></trkpt><trkpt lat="37.83286869411612" lon="15.26961343637029"><ele>29.0</ele><time>2026-03-28T15:36:34Z</time></trkpt><trkpt lat="37.83280908362758" lon="15.269562778539518"><ele>28.999999999999996</ele><time>2026-03-28T15:36:35Z</time></trkpt><trkpt lat="37.83274529718856" lon="15.269511484398588"><ele>29.0</ele><time>2026-03-28T15:36:36Z</time></trkpt><trkpt lat="37.83267934179542" lon="15.269457933728889"><ele>29.0</ele><time>2026-03-28T15:36:37Z</time></trkpt><trkpt lat="37.832610061074035" lon="15.269400497624163"><ele>29.0</ele><time>2026-03-28T15:36:38Z</time></trkpt><trkpt lat="37.832542226361284" lon="15.269344844262594"><ele>28.999999999999996</ele><time>2026-03-28T15:36:39Z</time></trkpt><trkpt lat="37.83247665353148" lon="15.269291139140899"><ele>29.0</ele><time>2026-03-28T15:36:40Z</time></trkpt><trkpt lat="37.83240853464393" lon="15.26923841922833"><ele>26.833333333333332</ele><time>2026-03-28T15:36:41Z</time></trkpt><trkpt lat="37.83234487385842" lon="15.269191480013198"><ele>24.666666666666664</ele><time>2026-03-28T15:36:42Z</time></trkpt><trkpt lat="37.832282762534774" lon="15.26914627561946"><ele>22.5</ele><time>2026-03-28T15:36:43Z</time></trkpt><trkpt lat="37.832220144752725" lon="15.269100535029272"><ele>20.333333333333332</ele><time>2026-03-28T15:36:44Z</time></trkpt><trkpt lat="37.832162305987744" lon="15.269058739323397"><ele>18.166666666666664</ele><time>2026-03-28T15:36:45Z</time></trkpt><trkpt lat="37.83210641095359" lon="15.26902105591051"><ele>16.0</ele><time>2026-03-28T15:36:46Z</time></trkpt><trkpt lat="37.83200394737745" lon="15.26894369888433"><ele>16.333333333333332</ele><time>2026-03-28T15:36:48Z</time></trkpt><trkpt lat="37.831895945164845" lon="15.268862850494827"><ele>16.666666666666664</ele><time>2026-03-28T15:36:50Z</time></trkpt><trkpt lat="37.831841443589035" lon="15.268820366688603"><ele>17.0</ele><time>2026-03-28T15:36:51Z</time></trkpt><trkpt lat="37.8317533090032" lon="15.26875358025214"><ele>17.333333333333332</ele><time>2026-03-28T15:36:53Z</time></trkpt><trkpt lat="37.83169852825504" lon="15.268711970435222"><ele>17.666666666666668</ele><time>2026-03-28T15:36:55Z</time></trkpt><trkpt lat="37.83162026746262" lon="15.26866431231239"><ele>18.0</ele><time>2026-03-28T15:37:06Z</time></trkpt><trkpt lat="37.83153616345647" lon="15.26861177137623"><ele>18.0</ele><time>2026-03-28T15:37:08Z</time></trkpt><trkpt lat="37.831440486660334" lon="15.268550259492235"><ele>18.0</ele><time>2026-03-28T15:37:10Z</time></trkpt><trkpt lat="37.83132602263354" lon="15.268491590871628"><ele>18.0</ele><time>2026-03-28T15:37:12Z</time></trkpt><trkpt lat="37.83121594128451" lon="15.26844059075596"><ele>18.0</ele><time>2026-03-28T15:37:14Z</time></trkpt><trkpt lat="37.831090636808895" lon="15.268397811551374"><ele>18.0</ele><time>2026-03-28T15:37:16Z</time></trkpt><trkpt lat="37.831021354519955" lon="15.26838045510712"><ele>18.0</ele><time>2026-03-28T15:37:17Z</time></trkpt><trkpt lat="37.8309551783553" lon="15.268362343258929"><ele>18.0</ele><time>2026-03-28T15:37:18Z</time></trkpt><trkpt lat="37.83083515987073" lon="15.26832804112463"><ele>18.0</ele><time>2026-03-28T15:37:20Z</time></trkpt><trkpt lat="37.83076929856195" lon="15.268311909550425"><ele>18.0</ele><time>2026-03-28T15:37:21Z</time></trkpt><trkpt lat="37.830695978625045" lon="15.268296017917296"><ele>18.0</ele><time>2026-03-28T15:37:22Z</time></trkpt><trkpt lat="37.830614910444524" lon="15.268278376314104"><ele>17.857142857142858</ele><time>2026-03-28T15:37:23Z</time></trkpt><trkpt lat="37.83053300815406" lon="15.268257794956805"><ele>17.714285714285715</ele><time>2026-03-28T15:37:24Z</time></trkpt><trkpt lat="37.83045943128601" lon="15.26824024829926"><ele>17.57142857142857</ele><time>2026-03-28T15:37:25Z</time></trkpt><trkpt lat="37.83038914943384" lon="15.268220199623778"><ele>17.42857142857143</ele><time>2026-03-28T15:37:26Z</time></trkpt><trkpt lat="37.83032370605243" lon="15.268202049880818"><ele>17.285714285714285</ele><time>2026-03-28T15:37:27Z</time></trkpt><trkpt lat="37.830261584258466" lon="15.268185014448099"><ele>17.142857142857142</ele><time>2026-03-28T15:37:28Z</time></trkpt><trkpt lat="37.83019822534941" lon="15.268164882448728"><ele>17.0</ele><time>2026-03-28T15:37:29Z</time></trkpt><trkpt lat="37.83013337164269" lon="15.268145416878662"><ele>16.999999999999996</ele><time>2026-03-28T15:37:30Z</time></trkpt><trkpt lat="37.8300660036416" lon="15.268127219583011"><ele>17.0</ele><time>2026-03-28T15:37:31Z</time></trkpt><trkpt lat="37.829998624723295" lon="15.268107977391155"><ele>17.0</ele><time>2026-03-28T15:37:32Z</time></trkpt><trkpt lat="37.82993268012108" lon="15.268090700046777"><ele>17.0</ele><time>2026-03-28T15:37:33Z</time></trkpt><trkpt lat="37.829867248372786" lon="15.268070843690941"><ele>17.0</ele><time>2026-03-28T15:37:34Z</time></trkpt><trkpt lat="37.829805262577665" lon="15.26804969040056"><ele>16.999999999999996</ele><time>2026-03-28T15:37:35Z</time></trkpt><trkpt lat="37.829739920991024" lon="15.268030824392339"><ele>17.0</ele><time>2026-03-28T15:37:36Z</time></trkpt><trkpt lat="37.82966722725152" lon="15.268011056595746"><ele>18.666666666666668</ele><time>2026-03-28T15:37:37Z</time></trkpt><trkpt lat="37.8295918737542" lon="15.2679935212379"><ele>20.333333333333336</ele><time>2026-03-28T15:37:38Z</time></trkpt><trkpt lat="37.829519041972304" lon="15.26797338607616"><ele>22.0</ele><time>2026-03-28T15:37:39Z</time></trkpt><trkpt lat="37.829447153632834" lon="15.267951935697674"><ele>23.666666666666668</ele><time>2026-03-28T15:37:40Z</time></trkpt><trkpt lat="37.82937393436166" lon="15.267929155081724"><ele>25.333333333333332</ele><time>2026-03-28T15:37:41Z</time></trkpt><trkpt lat="37.82929918635873" lon="15.267905649162199"><ele>27.0</ele><time>2026-03-28T15:37:42Z</time></trkpt><trkpt lat="37.829224427894985" lon="15.267890362567776"><ele>27.0</ele><time>2026-03-28T15:37:43Z</time></trkpt><trkpt lat="37.82914135342893" lon="15.267878856255933"><ele>27.0</ele><time>2026-03-28T15:37:44Z</time></trkpt><trkpt lat="37.829052383225864" lon="15.267868281504187"><ele>27.0</ele><time>2026-03-28T15:37:45Z</time></trkpt><trkpt lat="37.8289644532308" lon="15.267857229002006"><ele>27.0</ele><time>2026-03-28T15:37:46Z</time></trkpt><trkpt lat="37.82887785930572" lon="15.267851914404794"><ele>27.0</ele><time>2026-03-28T15:37:47Z</time></trkpt><trkpt lat="37.828788484041354" lon="15.26784313618366"><ele>27.0</ele><time>2026-03-28T15:37:48Z</time></trkpt><trkpt lat="37.82869109342871" lon="15.267829279146037"><ele>27.0</ele><time>2026-03-28T15:37:49Z</time></trkpt><trkpt lat="37.82858514604547" lon="15.267815896348363"><ele>27.000000000000004</ele><time>2026-03-28T15:37:50Z</time></trkpt><trkpt lat="37.82847687286752" lon="15.267801341259677"><ele>27.000000000000004</ele><time>2026-03-28T15:37:51Z</time></trkpt><trkpt lat="37.82837101242911" lon="15.267789130789149"><ele>27.0</ele><time>2026-03-28T15:37:52Z</time></trkpt><trkpt lat="37.82827167617823" lon="15.267776218297316"><ele>27.0</ele><time>2026-03-28T15:37:53Z</time></trkpt><trkpt lat="37.82817616584821" lon="15.267762132839772"><ele>26.400000000000002</ele><time>2026-03-28T15:37:54Z</time></trkpt><trkpt lat="37.82808438233192" lon="15.267748209518038"><ele>25.800000000000004</ele><time>2026-03-28T15:37:55Z</time></trkpt><trkpt lat="37.82799325532726" lon="15.26773286908763"><ele>25.2</ele><time>2026-03-28T15:37:56Z</time></trkpt><trkpt lat="37.827899047249765" lon="15.267713019939537"><ele>24.6</ele><time>2026-03-28T15:37:57Z</time></trkpt><trkpt lat="37.82781166788669" lon="15.26768813411229"><ele>24.0</ele><time>2026-03-28T15:37:58Z</time></trkpt><trkpt lat="37.827728724514174" lon="15.2676544525872"><ele>24.0</ele><time>2026-03-28T15:37:59Z</time></trkpt><trkpt lat="37.82765544956778" lon="15.26762267937516"><ele>24.0</ele><time>2026-03-28T15:38:00Z</time></trkpt><trkpt lat="37.827586897621956" lon="15.267591602700948"><ele>24.0</ele><time>2026-03-28T15:38:01Z</time></trkpt><trkpt lat="37.82747777525525" lon="15.267537286731535"><ele>24.0</ele><time>2026-03-28T15:38:03Z</time></trkpt><trkpt lat="37.82737644081996" lon="15.267471804273056"><ele>24.0</ele><time>2026-03-28T15:38:05Z</time></trkpt><trkpt lat="37.82731720415911" lon="15.267439619546453"><ele>24.0</ele><time>2026-03-28T15:38:06Z</time></trkpt><trkpt lat="37.827200085537314" lon="15.267373406563296"><ele>24.285714285714285</ele><time>2026-03-28T15:38:08Z</time></trkpt><trkpt lat="37.82713489894295" lon="15.267338476006628"><ele>24.57142857142857</ele><time>2026-03-28T15:38:09Z</time></trkpt><trkpt lat="37.827061006421644" lon="15.26729875219403"><ele>24.857142857142854</ele><time>2026-03-28T15:38:10Z</time></trkpt><trkpt lat="37.82698643126399" lon="15.267265800988875"><ele>25.142857142857142</ele><time>2026-03-28T15:38:11Z</time></trkpt><trkpt lat="37.82691698588868" lon="15.267237481384106"><ele>25.42857142857143</ele><time>2026-03-28T15:38:12Z</time></trkpt><trkpt lat="37.82685400370396" lon="15.267207929152105"><ele>25.71428571428571</ele><time>2026-03-28T15:38:13Z</time></trkpt><trkpt lat="37.82679145324458" lon="15.26717742749014"><ele>26.0</ele><time>2026-03-28T15:38:14Z</time></trkpt><trkpt lat="37.82672206450129" lon="15.26714738416827"><ele>25.333333333333332</ele><time>2026-03-28T15:38:15Z</time></trkpt><trkpt lat="37.82665371540614" lon="15.267112638925582"><ele>24.666666666666664</ele><time>2026-03-28T15:38:16Z</time></trkpt><trkpt lat="37.826589510017854" lon="15.267079101950547"><ele>24.0</ele><time>2026-03-28T15:38:17Z</time></trkpt><trkpt lat="37.82652746187923" lon="15.267047968815257"><ele>23.333333333333332</ele><time>2026-03-28T15:38:18Z</time></trkpt><trkpt lat="37.8264541104386" lon="15.26701828619543"><ele>22.666666666666664</ele><time>2026-03-28T15:38:19Z</time></trkpt><trkpt lat="37.82637193150479" lon="15.26697816122547"><ele>22.0</ele><time>2026-03-28T15:38:20Z</time></trkpt><trkpt lat="37.82628281109639" lon="15.266930399909338"><ele>22.0</ele><time>2026-03-28T15:38:21Z</time></trkpt><trkpt lat="37.82618958939476" lon="15.266881471039607"><ele>22.0</ele><time>2026-03-28T15:38:22Z</time></trkpt><trkpt lat="37.826099569485095" lon="15.266829876036178"><ele>22.0</ele><time>2026-03-28T15:38:23Z</time></trkpt><trkpt lat="37.826012292199145" lon="15.266776537907873"><ele>22.0</ele><time>2026-03-28T15:38:24Z</time></trkpt><trkpt lat="37.82592599225975" lon="15.266722211357818"><ele>22.0</ele><time>2026-03-28T15:38:25Z</time></trkpt><trkpt lat="37.82583694689406" lon="15.266669971206527"><ele>21.833333333333332</ele><time>2026-03-28T15:38:26Z</time></trkpt><trkpt lat="37.82575337922314" lon="15.266621475789751"><ele>21.666666666666664</ele><time>2026-03-28T15:38:27Z</time></trkpt><trkpt lat="37.82567397428843" lon="15.26658040224103"><ele>21.5</ele><time>2026-03-28T15:38:28Z</time></trkpt><trkpt lat="37.82560084300903" lon="15.26655267636383"><ele>21.333333333333332</ele><time>2026-03-28T15:38:29Z</time></trkpt><trkpt lat="37.825524142192656" lon="15.266526838470854"><ele>21.166666666666668</ele><time>2026-03-28T15:38:30Z</time></trkpt><trkpt lat="37.82544866514287" lon="15.266492461515632"><ele>21.0</ele><time>2026-03-28T15:38:31Z</time></trkpt><trkpt lat="37.82538234158431" lon="15.266460137925558"><ele>21.0</ele><time>2026-03-28T15:38:32Z</time></trkpt><trkpt lat="37.82532077909488" lon="15.266429717317878"><ele>21.0</ele><time>2026-03-28T15:38:33Z</time></trkpt><trkpt lat="37.825257900419146" lon="15.266399525923871"><ele>21.0</ele><time>2026-03-28T15:38:34Z</time></trkpt><trkpt lat="37.82514370182982" lon="15.26635309452039"><ele>21.0</ele><time>2026-03-28T15:38:36Z</time></trkpt><trkpt lat="37.82501647151091" lon="15.266395965386764"><ele>21.0</ele><time>2026-03-28T15:38:38Z</time></trkpt><trkpt lat="37.82496931329917" lon="15.266456067192989"><ele>20.833333333333332</ele><time>2026-03-28T15:38:39Z</time></trkpt><trkpt lat="37.82493636241739" lon="15.266541616443092"><ele>20.666666666666668</ele><time>2026-03-28T15:38:40Z</time></trkpt><trkpt lat="37.8249238468236" lon="15.266639515123801"><ele>20.5</ele><time>2026-03-28T15:38:41Z</time></trkpt><trkpt lat="37.82491967650715" lon="15.266741870814082"><ele>20.333333333333336</ele><time>2026-03-28T15:38:42Z</time></trkpt><trkpt lat="37.82490917617101" lon="15.266850470182655"><ele>20.166666666666668</ele><time>2026-03-28T15:38:43Z</time></trkpt><trkpt lat="37.82488191413338" lon="15.266960988652176"><ele>20.0</ele><time>2026-03-28T15:38:44Z</time></trkpt><trkpt lat="37.824840501717055" lon="15.267057069560762"><ele>20.0</ele><time>2026-03-28T15:38:45Z</time></trkpt><trkpt lat="37.82478601169341" lon="15.267147757062798"><ele>20.0</ele><time>2026-03-28T15:38:46Z</time></trkpt><trkpt lat="37.824716671594395" lon="15.267225989430615"><ele>20.0</ele><time>2026-03-28T15:38:47Z</time></trkpt><trkpt lat="37.82463407979172" lon="15.267290220626533"><ele>20.0</ele><time>2026-03-28T15:38:48Z</time></trkpt><trkpt lat="37.82454248685791" lon="15.267331739802287"><ele>20.0</ele><time>2026-03-28T15:38:49Z</time></trkpt><trkpt lat="37.82444783205094" lon="15.267350079047372"><ele>20.2</ele><time>2026-03-28T15:38:50Z</time></trkpt><trkpt lat="37.82435275523773" lon="15.26734714603035"><ele>20.4</ele><time>2026-03-28T15:38:51Z</time></trkpt><trkpt lat="37.824255389022504" lon="15.26732144977955"><ele>20.6</ele><time>2026-03-28T15:38:52Z</time></trkpt><trkpt lat="37.82416506322601" lon="15.267268873462148"><ele>20.8</ele><time>2026-03-28T15:38:53Z</time></trkpt><trkpt lat="37.824082609332045" lon="15.26719522430092"><ele>21.0</ele><time>2026-03-28T15:38:54Z</time></trkpt><trkpt lat="37.82401789475973" lon="15.26710110314722"><ele>21.0</ele><time>2026-03-28T15:38:55Z</time></trkpt><trkpt lat="37.82397014140701" lon="15.266993415582979"><ele>21.0</ele><time>2026-03-28T15:38:56Z</time></trkpt><trkpt lat="37.8239369766452" lon="15.26687821325484"><ele>21.0</ele><time>2026-03-28T15:38:57Z</time></trkpt><trkpt lat="37.82392047946311" lon="15.266752730334597"><ele>21.0</ele><time>2026-03-28T15:38:58Z</time></trkpt><trkpt lat="37.823927997886464" lon="15.266624902735641"><ele>21.0</ele><time>2026-03-28T15:38:59Z</time></trkpt><trkpt lat="37.82395568897923" lon="15.266494231253805"><ele>21.6</ele><time>2026-03-28T15:39:00Z</time></trkpt><trkpt lat="37.823998394764594" lon="15.266365797594785"><ele>22.200000000000003</ele><time>2026-03-28T15:39:01Z</time></trkpt><trkpt lat="37.82404110122507" lon="15.266235677324389"><ele>22.799999999999997</ele><time>2026-03-28T15:39:02Z</time></trkpt><trkpt lat="37.824082377311356" lon="15.266102647719997"><ele>23.4</ele><time>2026-03-28T15:39:03Z</time></trkpt><trkpt lat="37.82412290280222" lon="15.265974870734775"><ele>24.0</ele><time>2026-03-28T15:39:04Z</time></trkpt><trkpt lat="37.824161349063445" lon="15.265850667725093"><ele>24.0</ele><time>2026-03-28T15:39:05Z</time></trkpt><trkpt lat="37.82420032762078" lon="15.265725536085299"><ele>24.0</ele><time>2026-03-28T15:39:06Z</time></trkpt><trkpt lat="37.8242400424641" lon="15.265599273956406"><ele>24.0</ele><time>2026-03-28T15:39:07Z</time></trkpt><trkpt lat="37.82428174279667" lon="15.265471050478519"><ele>24.0</ele><time>2026-03-28T15:39:08Z</time></trkpt><trkpt lat="37.824330246919494" lon="15.265340117113873"><ele>24.0</ele><time>2026-03-28T15:39:09Z</time></trkpt><trkpt lat="37.82438862291604" lon="15.2652094315802"><ele>25.0</ele><time>2026-03-28T15:39:09.999Z</time></trkpt><trkpt lat="37.82445860188298" lon="15.265082348897398"><ele>26.0</ele><time>2026-03-28T15:39:10.999Z</time></trkpt><trkpt lat="37.824536322761666" lon="15.264950851838858"><ele>27.0</ele><time>2026-03-28T15:39:11.999Z</time></trkpt><trkpt lat="37.82462150011764" lon="15.264817137819414"><ele>28.0</ele><time>2026-03-28T15:39:12.999Z</time></trkpt><trkpt lat="37.82471108349172" lon="15.264675831709544"><ele>29.333333333333336</ele><time>2026-03-28T15:39:13.999Z</time></trkpt><trkpt lat="37.82480570545137" lon="15.264525990539305"><ele>30.666666666666664</ele><time>2026-03-28T15:39:14.999Z</time></trkpt><trkpt lat="37.82490610051827" lon="15.264372179636071"><ele>32.0</ele><time>2026-03-28T15:39:15.999Z</time></trkpt><trkpt lat="37.825012969326124" lon="15.2642135122404"><ele>32.0</ele><time>2026-03-28T15:39:16.999Z</time></trkpt><trkpt lat="37.82511924894336" lon="15.264053004364701"><ele>32.0</ele><time>2026-03-28T15:39:17.999Z</time></trkpt><trkpt lat="37.82522612481242" lon="15.263889133863865"><ele>32.0</ele><time>2026-03-28T15:39:18.999Z</time></trkpt><trkpt lat="37.82533347128181" lon="15.263725953756317"><ele>32.666666666666664</ele><time>2026-03-28T15:39:19.999Z</time></trkpt><trkpt lat="37.82543939896243" lon="15.263562105119735"><ele>33.333333333333336</ele><time>2026-03-28T15:39:20.999Z</time></trkpt><trkpt lat="37.82554239999762" lon="15.26340349501302"><ele>34.0</ele><time>2026-03-28T15:39:21.999Z</time></trkpt><trkpt lat="37.825643859850246" lon="15.26324872673805"><ele>33.0</ele><time>2026-03-28T15:39:22.999Z</time></trkpt><trkpt lat="37.825739850908754" lon="15.263099794800086"><ele>32.0</ele><time>2026-03-28T15:39:23.999Z</time></trkpt><trkpt lat="37.82583979432474" lon="15.262949637721256"><ele>31.0</ele><time>2026-03-28T15:39:24.999Z</time></trkpt><trkpt lat="37.82593821246462" lon="15.262798149149637"><ele>32.333333333333336</ele><time>2026-03-28T15:39:25.999Z</time></trkpt><trkpt lat="37.826037138318064" lon="15.262644072268644"><ele>33.666666666666664</ele><time>2026-03-28T15:39:26.999Z</time></trkpt><trkpt lat="37.826135356358066" lon="15.262493140030758"><ele>35.0</ele><time>2026-03-28T15:39:27.999Z</time></trkpt><trkpt lat="37.82623292994122" lon="15.262342614167114"><ele>33.666666666666664</ele><time>2026-03-28T15:39:28.999Z</time></trkpt><trkpt lat="37.82633117624472" lon="15.262191969787915"><ele>32.333333333333336</ele><time>2026-03-28T15:39:29.999Z</time></trkpt><trkpt lat="37.82643037561481" lon="15.262045478063035"><ele>31.0</ele><time>2026-03-28T15:39:30.999Z</time></trkpt><trkpt lat="37.82653250823626" lon="15.261905782396573"><ele>31.0</ele><time>2026-03-28T15:39:31.999Z</time></trkpt><trkpt lat="37.826630001150065" lon="15.26177726876873"><ele>31.0</ele><time>2026-03-28T15:39:32.999Z</time></trkpt><trkpt lat="37.826724532682206" lon="15.261653865487578"><ele>31.0</ele><time>2026-03-28T15:39:33.999Z</time></trkpt><trkpt lat="37.82681480651731" lon="15.26153505683639"><ele>31.0</ele><time>2026-03-28T15:39:34.999Z</time></trkpt><trkpt lat="37.82688623830874" lon="15.261406350062071"><ele>31.5</ele><time>2026-03-28T15:39:35.999Z</time></trkpt><trkpt lat="37.82699205479968" lon="15.261306540279472"><ele>32.0</ele><time>2026-03-28T15:39:36.999Z</time></trkpt><trkpt lat="37.82708324589501" lon="15.261184613336853"><ele>32.5</ele><time>2026-03-28T15:39:37.999Z</time></trkpt><trkpt lat="37.82717867430764" lon="15.26105809348691"><ele>33.0</ele><time>2026-03-28T15:39:38.999Z</time></trkpt><trkpt lat="37.8272762732016" lon="15.260927965354918"><ele>33.0</ele><time>2026-03-28T15:39:39.999Z</time></trkpt><trkpt lat="37.827375211862424" lon="15.260795005254257"><ele>33.0</ele><time>2026-03-28T15:39:40.999Z</time></trkpt><trkpt lat="37.82746850069957" lon="15.260666739608668"><ele>33.0</ele><time>2026-03-28T15:39:41.999Z</time></trkpt><trkpt lat="37.82755575324613" lon="15.260544389836948"><ele>33.0</ele><time>2026-03-28T15:39:42.999Z</time></trkpt><trkpt lat="37.82763899956396" lon="15.260429382700153"><ele>33.5</ele><time>2026-03-28T15:39:43.999Z</time></trkpt><trkpt lat="37.82771894093519" lon="15.260316128249787"><ele>34.0</ele><time>2026-03-28T15:39:44.999Z</time></trkpt><trkpt lat="37.82780284860281" lon="15.260202975696304"><ele>34.5</ele><time>2026-03-28T15:39:45.999Z</time></trkpt><trkpt lat="37.82789139222777" lon="15.260089839254205"><ele>35.0</ele><time>2026-03-28T15:39:46.999Z</time></trkpt><trkpt lat="37.827979736119566" lon="15.259978735235599"><ele>35.0</ele><time>2026-03-28T15:39:47.999Z</time></trkpt><trkpt lat="37.828059497477305" lon="15.259879989878273"><ele>35.0</ele><time>2026-03-28T15:39:48.999Z</time></trkpt><trkpt lat="37.828133118052044" lon="15.259789037247673"><ele>35.0</ele><time>2026-03-28T15:39:49.999Z</time></trkpt><trkpt lat="37.82819740072508" lon="15.259709860020344"><ele>35.0</ele><time>2026-03-28T15:39:50.999Z</time></trkpt><trkpt lat="37.82825503478985" lon="15.25963978140483"><ele>35.0</ele><time>2026-03-28T15:39:51.999Z</time></trkpt><trkpt lat="37.82830858308781" lon="15.259575328777562"><ele>35.0</ele><time>2026-03-28T15:39:52.999Z</time></trkpt><trkpt lat="37.82835409367303" lon="15.259519260207513"><ele>35.0</ele><time>2026-03-28T15:39:53.999Z</time></trkpt><trkpt lat="37.82843893167676" lon="15.259415140044197"><ele>35.0</ele><time>2026-03-28T15:39:55.999Z</time></trkpt><trkpt lat="37.8285152023145" lon="15.259320674860156"><ele>35.0</ele><time>2026-03-28T15:39:57.999Z</time></trkpt><trkpt lat="37.82857659167719" lon="15.259241559333873"><ele>35.0</ele><time>2026-03-28T15:39:59.999Z</time></trkpt><trkpt lat="37.82863941344838" lon="15.25916235082789"><ele>36.0</ele><time>2026-03-28T15:40:01.999Z</time></trkpt><trkpt lat="37.82873001887176" lon="15.25904556022142"><ele>37.0</ele><time>2026-03-28T15:40:03.999Z</time></trkpt><trkpt lat="37.82878414661708" lon="15.258974870269657"><ele>38.0</ele><time>2026-03-28T15:40:04.999Z</time></trkpt><trkpt lat="37.828837436922534" lon="15.258887942697664"><ele>39.0</ele><time>2026-03-28T15:40:05.999Z</time></trkpt><trkpt lat="37.82889459578956" lon="15.258785807541386"><ele>40.0</ele><time>2026-03-28T15:40:06.999Z</time></trkpt><trkpt lat="37.82895675158495" lon="15.258673357198484"><ele>40.0</ele><time>2026-03-28T15:40:07.999Z</time></trkpt><trkpt lat="37.82902565115122" lon="15.258553190751348"><ele>40.0</ele><time>2026-03-28T15:40:08.999Z</time></trkpt><trkpt lat="37.82910026510226" lon="15.258429683525732"><ele>40.0</ele><time>2026-03-28T15:40:09.999Z</time></trkpt><trkpt lat="37.82918165865564" lon="15.258306074410596"><ele>40.0</ele><time>2026-03-28T15:40:10.999Z</time></trkpt><trkpt lat="37.829270151993384" lon="15.258184449970983"><ele>40.5</ele><time>2026-03-28T15:40:11.999Z</time></trkpt><trkpt lat="37.82936388004244" lon="15.258060448882095"><ele>41.0</ele><time>2026-03-28T15:40:12.999Z</time></trkpt><trkpt lat="37.82946095113074" lon="15.257937176008298"><ele>41.5</ele><time>2026-03-28T15:40:13.999Z</time></trkpt><trkpt lat="37.82955903871136" lon="15.257817668436665"><ele>42.0</ele><time>2026-03-28T15:40:14.999Z</time></trkpt><trkpt lat="37.8296482749076" lon="15.257704621592758"><ele>42.0</ele><time>2026-03-28T15:40:15.999Z</time></trkpt><trkpt lat="37.82972315579522" lon="15.257606865139955"><ele>42.0</ele><time>2026-03-28T15:40:16.999Z</time></trkpt><trkpt lat="37.82979058794978" lon="15.257519175057864"><ele>42.0</ele><time>2026-03-28T15:40:17.999Z</time></trkpt><trkpt lat="37.82985254581903" lon="15.257438920744715"><ele>42.0</ele><time>2026-03-28T15:40:18.999Z</time></trkpt><trkpt lat="37.829908685640696" lon="15.257366303245266"><ele>42.0</ele><time>2026-03-28T15:40:19.999Z</time></trkpt><trkpt lat="37.82996638657769" lon="15.257297367663451"><ele>42.0</ele><time>2026-03-28T15:40:20.999Z</time></trkpt><trkpt lat="37.83001979734661" lon="15.25723222205397"><ele>42.0</ele><time>2026-03-28T15:40:21.999Z</time></trkpt><trkpt lat="37.83008564517307" lon="15.257156680528556"><ele>42.0</ele><time>2026-03-28T15:40:22.999Z</time></trkpt><trkpt lat="37.83015340213217" lon="15.257075192350856"><ele>42.0</ele><time>2026-03-28T15:40:23.999Z</time></trkpt><trkpt lat="37.83022649796683" lon="15.256989366585305"><ele>42.0</ele><time>2026-03-28T15:40:24.999Z</time></trkpt><trkpt lat="37.830302663176" lon="15.256897811601268"><ele>42.75</ele><time>2026-03-28T15:40:25.999Z</time></trkpt><trkpt lat="37.83038015202602" lon="15.256800000425333"><ele>43.5</ele><time>2026-03-28T15:40:26.999Z</time></trkpt><trkpt lat="37.830466031961976" lon="15.256698272306387"><ele>44.25</ele><time>2026-03-28T15:40:27.999Z</time></trkpt><trkpt lat="37.83055873068837" lon="15.256602217151181"><ele>45.0</ele><time>2026-03-28T15:40:28.999Z</time></trkpt><trkpt lat="37.830656168813384" lon="15.256509599525126"><ele>45.5</ele><time>2026-03-28T15:40:29.999Z</time></trkpt><trkpt lat="37.83075753069954" lon="15.256413870228329"><ele>46.0</ele><time>2026-03-28T15:40:30.999Z</time></trkpt><trkpt lat="37.83086249770506" lon="15.256317142231225"><ele>46.5</ele><time>2026-03-28T15:40:31.999Z</time></trkpt><trkpt lat="37.83097084354144" lon="15.256219585667841"><ele>47.0</ele><time>2026-03-28T15:40:32.999Z</time></trkpt><trkpt lat="37.83108074690699" lon="15.25611724738441"><ele>47.25</ele><time>2026-03-28T15:40:33.999Z</time></trkpt><trkpt lat="37.83119142410181" lon="15.25601423682977"><ele>47.5</ele><time>2026-03-28T15:40:34.999Z</time></trkpt><trkpt lat="37.83130555343534" lon="15.255908008927266"><ele>47.75</ele><time>2026-03-28T15:40:35.999Z</time></trkpt><trkpt lat="37.83142093398172" lon="15.255797578070224"><ele>48.0</ele><time>2026-03-28T15:40:36.999Z</time></trkpt><trkpt lat="37.83153900116244" lon="15.255680090847367"><ele>48.33333333333333</ele><time>2026-03-28T15:40:37.999Z</time></trkpt><trkpt lat="37.83165479623032" lon="15.255558205783892"><ele>48.666666666666664</ele><time>2026-03-28T15:40:38.999Z</time></trkpt><trkpt lat="37.83177415583121" lon="15.255430411380255"><ele>49.0</ele><time>2026-03-28T15:40:39.999Z</time></trkpt><trkpt lat="37.83189061003187" lon="15.255293064349907"><ele>50.666666666666664</ele><time>2026-03-28T15:40:40.999Z</time></trkpt><trkpt lat="37.83200263044192" lon="15.25514378484207"><ele>52.33333333333333</ele><time>2026-03-28T15:40:41.999Z</time></trkpt><trkpt lat="37.832113953212364" lon="15.254987321556039"><ele>54.0</ele><time>2026-03-28T15:40:42.999Z</time></trkpt><trkpt lat="37.8322175605195" lon="15.254825538538519"><ele>54.66666666666667</ele><time>2026-03-28T15:40:43.999Z</time></trkpt><trkpt lat="37.8323154036341" lon="15.254659347892623"><ele>55.333333333333336</ele><time>2026-03-28T15:40:44.999Z</time></trkpt><trkpt lat="37.8324160614471" lon="15.254485382244342"><ele>56.0</ele><time>2026-03-28T15:40:45.999Z</time></trkpt><trkpt lat="37.83251283835975" lon="15.254312531928008"><ele>56.0</ele><time>2026-03-28T15:40:46.999Z</time></trkpt><trkpt lat="37.8326127580423" lon="15.254142229962445"><ele>56.0</ele><time>2026-03-28T15:40:47.999Z</time></trkpt><trkpt lat="37.83271606101927" lon="15.253969875040523"><ele>56.0</ele><time>2026-03-28T15:40:48.999Z</time></trkpt><trkpt lat="37.83281837219238" lon="15.253795135344582"><ele>59.333333333333336</ele><time>2026-03-28T15:40:49.999Z</time></trkpt><trkpt lat="37.83292000708692" lon="15.253622074632716"><ele>62.66666666666667</ele><time>2026-03-28T15:40:50.999Z</time></trkpt><trkpt lat="37.833015865111484" lon="15.25345196918908"><ele>66.0</ele><time>2026-03-28T15:40:51.999Z</time></trkpt><trkpt lat="37.83310276271175" lon="15.253292542624067"><ele>66.0</ele><time>2026-03-28T15:40:52.999Z</time></trkpt><trkpt lat="37.83318709224024" lon="15.25314636715696"><ele>66.0</ele><time>2026-03-28T15:40:53.999Z</time></trkpt><trkpt lat="37.83326817135004" lon="15.253017760295508"><ele>66.0</ele><time>2026-03-28T15:40:54.999Z</time></trkpt><trkpt lat="37.83335479761665" lon="15.252900445594719"><ele>66.0</ele><time>2026-03-28T15:40:55.999Z</time></trkpt><trkpt lat="37.83344392889967" lon="15.252799227589744"><ele>64.75</ele><time>2026-03-28T15:40:56.999Z</time></trkpt><trkpt lat="37.833552172267325" lon="15.252732876908343"><ele>63.5</ele><time>2026-03-28T15:40:57.999Z</time></trkpt><trkpt lat="37.833668829564765" lon="15.252678571603502"><ele>62.25</ele><time>2026-03-28T15:40:58.999Z</time></trkpt><trkpt lat="37.83379379174397" lon="15.252653694608354"><ele>61.0</ele><time>2026-03-28T15:40:59.999Z</time></trkpt><trkpt lat="37.83392645274844" lon="15.252661852677022"><ele>61.0</ele><time>2026-03-28T15:41:00.999Z</time></trkpt><trkpt lat="37.83405989035061" lon="15.2526889411204"><ele>61.0</ele><time>2026-03-28T15:41:01.999Z</time></trkpt><trkpt lat="37.83419125699161" lon="15.252753091597707"><ele>61.0</ele><time>2026-03-28T15:41:02.999Z</time></trkpt><trkpt lat="37.834304036022885" lon="15.252847912273115"><ele>61.0</ele><time>2026-03-28T15:41:03.999Z</time></trkpt><trkpt lat="37.83438810827369" lon="15.252965067420051"><ele>61.0</ele><time>2026-03-28T15:41:04.999Z</time></trkpt><trkpt lat="37.83445219443551" lon="15.253098474813921"><ele>61.0</ele><time>2026-03-28T15:41:05.999Z</time></trkpt><trkpt lat="37.83450048952279" lon="15.253247206672304"><ele>61.0</ele><time>2026-03-28T15:41:06.999Z</time></trkpt><trkpt lat="37.83453138348055" lon="15.253414241234468"><ele>61.0</ele><time>2026-03-28T15:41:07.999Z</time></trkpt><trkpt lat="37.83453461322322" lon="15.253593790546281"><ele>61.75</ele><time>2026-03-28T15:41:08.999Z</time></trkpt><trkpt lat="37.834507739226396" lon="15.253775349611939"><ele>62.5</ele><time>2026-03-28T15:41:09.999Z</time></trkpt><trkpt lat="37.83444928200219" lon="15.253944654442654"><ele>63.25</ele><time>2026-03-28T15:41:10.999Z</time></trkpt><trkpt lat="37.83436730751566" lon="15.254102963350887"><ele>64.0</ele><time>2026-03-28T15:41:11.999Z</time></trkpt><trkpt lat="37.83426649712801" lon="15.254245361147763"><ele>65.0</ele><time>2026-03-28T15:41:12.999Z</time></trkpt><trkpt lat="37.834144191129205" lon="15.254377860956573"><ele>66.0</ele><time>2026-03-28T15:41:13.999Z</time></trkpt><trkpt lat="37.83400624835836" lon="15.254492334648091"><ele>67.0</ele><time>2026-03-28T15:41:14.999Z</time></trkpt><trkpt lat="37.83385830855137" lon="15.254579794001032"><ele>67.0</ele><time>2026-03-28T15:41:15.998Z</time></trkpt><trkpt lat="37.833700446206976" lon="15.254632999113717"><ele>67.0</ele><time>2026-03-28T15:41:16.998Z</time></trkpt><trkpt lat="37.83353494117271" lon="15.25465651613696"><ele>67.0</ele><time>2026-03-28T15:41:17.998Z</time></trkpt><trkpt lat="37.83336425102756" lon="15.254644448842784"><ele>65.33333333333333</ele><time>2026-03-28T15:41:18.998Z</time></trkpt><trkpt lat="37.833195704641945" lon="15.25460210527698"><ele>63.66666666666667</ele><time>2026-03-28T15:41:19.998Z</time></trkpt><trkpt lat="37.83303345215864" lon="15.254530375129098"><ele>62.0</ele><time>2026-03-28T15:41:20.998Z</time></trkpt><trkpt lat="37.83287688970918" lon="15.25444169088871"><ele>62.0</ele><time>2026-03-28T15:41:21.998Z</time></trkpt><trkpt lat="37.832719964828264" lon="15.254335396926285"><ele>62.0</ele><time>2026-03-28T15:41:22.998Z</time></trkpt><trkpt lat="37.8325689802637" lon="15.254216642331055"><ele>62.0</ele><time>2026-03-28T15:41:23.998Z</time></trkpt><trkpt lat="37.832420521446856" lon="15.25409256827778"><ele>60.333333333333336</ele><time>2026-03-28T15:41:24.998Z</time></trkpt><trkpt lat="37.832267105911285" lon="15.253961985409024"><ele>58.66666666666667</ele><time>2026-03-28T15:41:25.998Z</time></trkpt><trkpt lat="37.83211150959421" lon="15.253836545734062"><ele>57.0</ele><time>2026-03-28T15:41:26.998Z</time></trkpt><trkpt lat="37.83195795080608" lon="15.253719225889176"><ele>55.0</ele><time>2026-03-28T15:41:27.998Z</time></trkpt><trkpt lat="37.83180270674963" lon="15.253602179126291"><ele>53.0</ele><time>2026-03-28T15:41:28.998Z</time></trkpt><trkpt lat="37.83164370039171" lon="15.253486199321284"><ele>51.0</ele><time>2026-03-28T15:41:29.998Z</time></trkpt><trkpt lat="37.831484149398484" lon="15.253373579256893"><ele>51.0</ele><time>2026-03-28T15:41:30.998Z</time></trkpt><trkpt lat="37.83133702053491" lon="15.253266900782858"><ele>51.0</ele><time>2026-03-28T15:41:31.998Z</time></trkpt><trkpt lat="37.83118783149116" lon="15.253157538701254"><ele>51.0</ele><time>2026-03-28T15:41:32.998Z</time></trkpt><trkpt lat="37.83103298350172" lon="15.253047019503764"><ele>49.666666666666664</ele><time>2026-03-28T15:41:33.998Z</time></trkpt><trkpt lat="37.83087658137863" lon="15.25292967170987"><ele>48.33333333333333</ele><time>2026-03-28T15:41:34.998Z</time></trkpt><trkpt lat="37.830722685690155" lon="15.252817808114685"><ele>47.0</ele><time>2026-03-28T15:41:35.998Z</time></trkpt><trkpt lat="37.83056922422749" lon="15.252706772272587"><ele>47.0</ele><time>2026-03-28T15:41:36.998Z</time></trkpt><trkpt lat="37.830413486518324" lon="15.252591755100381"><ele>47.0</ele><time>2026-03-28T15:41:37.998Z</time></trkpt><trkpt lat="37.8302543925848" lon="15.252474088585316"><ele>47.0</ele><time>2026-03-28T15:41:38.998Z</time></trkpt><trkpt lat="37.83009919783298" lon="15.252359183775717"><ele>47.0</ele><time>2026-03-28T15:41:39.998Z</time></trkpt><trkpt lat="37.82994350025458" lon="15.252243985766233"><ele>47.0</ele><time>2026-03-28T15:41:40.998Z</time></trkpt><trkpt lat="37.82978596345259" lon="15.252127200802986"><ele>47.0</ele><time>2026-03-28T15:41:41.998Z</time></trkpt><trkpt lat="37.82962639003925" lon="15.2520064115121"><ele>47.0</ele><time>2026-03-28T15:41:42.998Z</time></trkpt><trkpt lat="37.82946429451027" lon="15.251882719434192"><ele>47.0</ele><time>2026-03-28T15:41:43.998Z</time></trkpt><trkpt lat="37.829295449443094" lon="15.251755913550513"><ele>47.0</ele><time>2026-03-28T15:41:44.998Z</time></trkpt><trkpt lat="37.8291267729957" lon="15.251627940528115"><ele>47.0</ele><time>2026-03-28T15:41:45.998Z</time></trkpt><trkpt lat="37.828954938077615" lon="15.251496481980542"><ele>47.0</ele><time>2026-03-28T15:41:46.998Z</time></trkpt><trkpt lat="37.82878160452106" lon="15.251366019027321"><ele>47.0</ele><time>2026-03-28T15:41:47.998Z</time></trkpt><trkpt lat="37.828599914328976" lon="15.251231908262989"><ele>49.33333333333333</ele><time>2026-03-28T15:41:48.998Z</time></trkpt><trkpt lat="37.82842108543352" lon="15.251096577142626"><ele>51.666666666666664</ele><time>2026-03-28T15:41:49.998Z</time></trkpt><trkpt lat="37.82824238442036" lon="15.250961506942113"><ele>54.0</ele><time>2026-03-28T15:41:50.998Z</time></trkpt><trkpt lat="37.828061735018636" lon="15.250820513400493"><ele>54.0</ele><time>2026-03-28T15:41:51.998Z</time></trkpt><trkpt lat="37.827883662672576" lon="15.250680743204688"><ele>54.0</ele><time>2026-03-28T15:41:52.998Z</time></trkpt><trkpt lat="37.82770037738096" lon="15.250532062666485"><ele>54.0</ele><time>2026-03-28T15:41:53.998Z</time></trkpt><trkpt lat="37.82753033840659" lon="15.250382720936681"><ele>56.33333333333333</ele><time>2026-03-28T15:41:54.998Z</time></trkpt><trkpt lat="37.82736840550512" lon="15.250229323360145"><ele>58.666666666666664</ele><time>2026-03-28T15:41:55.998Z</time></trkpt><trkpt lat="37.82721532728493" lon="15.25007724449424"><ele>61.0</ele><time>2026-03-28T15:41:56.998Z</time></trkpt><trkpt lat="37.827058494251965" lon="15.249916766680862"><ele>61.666666666666664</ele><time>2026-03-28T15:41:57.998Z</time></trkpt><trkpt lat="37.82690334186522" lon="15.249743703144718"><ele>62.33333333333333</ele><time>2026-03-28T15:41:58.998Z</time></trkpt><trkpt lat="37.82674707348994" lon="15.249561910473872"><ele>63.0</ele><time>2026-03-28T15:41:59.998Z</time></trkpt><trkpt lat="37.826590636463145" lon="15.249376580478044"><ele>58.66666666666667</ele><time>2026-03-28T15:42:00.998Z</time></trkpt><trkpt lat="37.82644037585512" lon="15.249191987004016"><ele>54.333333333333336</ele><time>2026-03-28T15:42:01.998Z</time></trkpt><trkpt lat="37.82629810318505" lon="15.248998410269598"><ele>50.0</ele><time>2026-03-28T15:42:02.998Z</time></trkpt><trkpt lat="37.826150634060276" lon="15.248799972218151"><ele>48.333333333333336</ele><time>2026-03-28T15:42:03.998Z</time></trkpt><trkpt lat="37.826009940409044" lon="15.24859760649138"><ele>46.66666666666667</ele><time>2026-03-28T15:42:04.998Z</time></trkpt><trkpt lat="37.82587628155111" lon="15.24838860643305"><ele>45.0</ele><time>2026-03-28T15:42:05.998Z</time></trkpt><trkpt lat="37.82574783391012" lon="15.248183522097264"><ele>42.666666666666664</ele><time>2026-03-28T15:42:06.998Z</time></trkpt><trkpt lat="37.825623749235604" lon="15.247974402898638"><ele>40.33333333333333</ele><time>2026-03-28T15:42:07.998Z</time></trkpt><trkpt lat="37.82549855687755" lon="15.24776170707834"><ele>38.0</ele><time>2026-03-28T15:42:08.998Z</time></trkpt><trkpt lat="37.82537156998229" lon="15.247546307464749"><ele>38.0</ele><time>2026-03-28T15:42:09.998Z</time></trkpt><trkpt lat="37.82524693439468" lon="15.247337838866143"><ele>38.0</ele><time>2026-03-28T15:42:10.998Z</time></trkpt><trkpt lat="37.825126446309575" lon="15.247139102763484"><ele>38.0</ele><time>2026-03-28T15:42:11.998Z</time></trkpt><trkpt lat="37.825010894087285" lon="15.246944569630498"><ele>37.666666666666664</ele><time>2026-03-28T15:42:12.998Z</time></trkpt><trkpt lat="37.82489744456567" lon="15.246754338102894"><ele>37.333333333333336</ele><time>2026-03-28T15:42:13.998Z</time></trkpt><trkpt lat="37.82477963538165" lon="15.246558724402577"><ele>37.0</ele><time>2026-03-28T15:42:14.998Z</time></trkpt><trkpt lat="37.82465909445135" lon="15.246354313184188"><ele>37.0</ele><time>2026-03-28T15:42:15.998Z</time></trkpt><trkpt lat="37.82454216154831" lon="15.246162682247911"><ele>37.0</ele><time>2026-03-28T15:42:16.998Z</time></trkpt><trkpt lat="37.82442415846685" lon="15.245965978139951"><ele>37.0</ele><time>2026-03-28T15:42:17.998Z</time></trkpt><trkpt lat="37.824305301432204" lon="15.2457593143815"><ele>37.0</ele><time>2026-03-28T15:42:18.998Z</time></trkpt><trkpt lat="37.82418021697581" lon="15.245549543564945"><ele>37.0</ele><time>2026-03-28T15:42:19.998Z</time></trkpt><trkpt lat="37.82405619969179" lon="15.2453392339156"><ele>37.0</ele><time>2026-03-28T15:42:20.998Z</time></trkpt><trkpt lat="37.823933596530985" lon="15.245132273616923"><ele>37.0</ele><time>2026-03-28T15:42:21.998Z</time></trkpt><trkpt lat="37.82380736738704" lon="15.244917820383867"><ele>37.0</ele><time>2026-03-28T15:42:22.998Z</time></trkpt><trkpt lat="37.82369703354506" lon="15.244732959556753"><ele>37.0</ele><time>2026-03-28T15:42:23.998Z</time></trkpt><trkpt lat="37.82358649112114" lon="15.244536777901464"><ele>36.66666666666667</ele><time>2026-03-28T15:42:24.998Z</time></trkpt><trkpt lat="37.82345925052841" lon="15.244341901047877"><ele>36.333333333333336</ele><time>2026-03-28T15:42:25.998Z</time></trkpt><trkpt lat="37.82333660172289" lon="15.244150821101679"><ele>36.0</ele><time>2026-03-28T15:42:26.998Z</time></trkpt><trkpt lat="37.82322663757114" lon="15.243957127655964"><ele>35.666666666666664</ele><time>2026-03-28T15:42:27.998Z</time></trkpt><trkpt lat="37.82310785576182" lon="15.243762607956103"><ele>35.33333333333333</ele><time>2026-03-28T15:42:28.998Z</time></trkpt><trkpt lat="37.82299719096646" lon="15.2435672384418"><ele>35.0</ele><time>2026-03-28T15:42:29.998Z</time></trkpt><trkpt lat="37.82287809208058" lon="15.243379035626784"><ele>35.0</ele><time>2026-03-28T15:42:30.998Z</time></trkpt><trkpt lat="37.82276486734238" lon="15.243184526863542"><ele>35.0</ele><time>2026-03-28T15:42:31.998Z</time></trkpt><trkpt lat="37.822651434825865" lon="15.242993569176464"><ele>35.0</ele><time>2026-03-28T15:42:32.998Z</time></trkpt><trkpt lat="37.82253753477245" lon="15.242804531620077"><ele>35.33333333333333</ele><time>2026-03-28T15:42:33.998Z</time></trkpt><trkpt lat="37.822424427420046" lon="15.24261654706794"><ele>35.666666666666664</ele><time>2026-03-28T15:42:34.998Z</time></trkpt><trkpt lat="37.8223132082612" lon="15.242422097992625"><ele>36.0</ele><time>2026-03-28T15:42:35.998Z</time></trkpt><trkpt lat="37.822196142968856" lon="15.242230247609745"><ele>34.333333333333336</ele><time>2026-03-28T15:42:36.998Z</time></trkpt><trkpt lat="37.82208027068657" lon="15.242039714404646"><ele>32.66666666666667</ele><time>2026-03-28T15:42:37.998Z</time></trkpt><trkpt lat="37.821961821381365" lon="15.24185050044647"><ele>31.0</ele><time>2026-03-28T15:42:38.998Z</time></trkpt><trkpt lat="37.82184760534124" lon="15.241653099152284"><ele>30.0</ele><time>2026-03-28T15:42:39.998Z</time></trkpt><trkpt lat="37.82173109721482" lon="15.241459679878917"><ele>29.0</ele><time>2026-03-28T15:42:40.998Z</time></trkpt><trkpt lat="37.82161427819304" lon="15.241265148128468"><ele>28.0</ele><time>2026-03-28T15:42:41.998Z</time></trkpt><trkpt lat="37.821498716557386" lon="15.24106470961774"><ele>28.0</ele><time>2026-03-28T15:42:42.998Z</time></trkpt><trkpt lat="37.82138452803807" lon="15.240870381029794"><ele>28.0</ele><time>2026-03-28T15:42:43.998Z</time></trkpt><trkpt lat="37.82126856126947" lon="15.240669744472042"><ele>28.0</ele><time>2026-03-28T15:42:44.998Z</time></trkpt><trkpt lat="37.82115249387105" lon="15.240468275941215"><ele>28.0</ele><time>2026-03-28T15:42:45.998Z</time></trkpt><trkpt lat="37.821035349420995" lon="15.24026509551217"><ele>28.0</ele><time>2026-03-28T15:42:46.998Z</time></trkpt><trkpt lat="37.820916585610426" lon="15.240061769697066"><ele>28.0</ele><time>2026-03-28T15:42:47.998Z</time></trkpt><trkpt lat="37.82079532151388" lon="15.239864732092382"><ele>29.333333333333336</ele><time>2026-03-28T15:42:48.998Z</time></trkpt><trkpt lat="37.820672641780575" lon="15.239664262142478"><ele>30.666666666666664</ele><time>2026-03-28T15:42:49.998Z</time></trkpt><trkpt lat="37.820550172749115" lon="15.239465057123923"><ele>32.0</ele><time>2026-03-28T15:42:50.998Z</time></trkpt><trkpt lat="37.820429682311214" lon="15.239265463294503"><ele>32.0</ele><time>2026-03-28T15:42:51.998Z</time></trkpt><trkpt lat="37.82030830746326" lon="15.239062495098334"><ele>32.0</ele><time>2026-03-28T15:42:52.998Z</time></trkpt><trkpt lat="37.820188442687034" lon="15.238861033992459"><ele>32.0</ele><time>2026-03-28T15:42:53.998Z</time></trkpt><trkpt lat="37.82006805322223" lon="15.238658248607047"><ele>33.33333333333333</ele><time>2026-03-28T15:42:54.998Z</time></trkpt><trkpt lat="37.81994703804694" lon="15.238452140780993"><ele>34.666666666666664</ele><time>2026-03-28T15:42:55.998Z</time></trkpt><trkpt lat="37.81982671316842" lon="15.238247690782677"><ele>36.0</ele><time>2026-03-28T15:42:56.998Z</time></trkpt><trkpt lat="37.81971018448707" lon="15.238042143416655"><ele>36.666666666666664</ele><time>2026-03-28T15:42:57.998Z</time></trkpt><trkpt lat="37.819595897259084" lon="15.23783338462132"><ele>37.33333333333333</ele><time>2026-03-28T15:42:58.998Z</time></trkpt><trkpt lat="37.819483129101656" lon="15.23762229229311"><ele>38.0</ele><time>2026-03-28T15:42:59.998Z</time></trkpt><trkpt lat="37.81937421377078" lon="15.237407451682833"><ele>38.33333333333333</ele><time>2026-03-28T15:43:00.998Z</time></trkpt><trkpt lat="37.81926601364904" lon="15.237185319730035"><ele>38.666666666666664</ele><time>2026-03-28T15:43:01.998Z</time></trkpt><trkpt lat="37.819164281252846" lon="15.23696588373172"><ele>39.0</ele><time>2026-03-28T15:43:02.998Z</time></trkpt><trkpt lat="37.81906484852815" lon="15.23673985028341"><ele>39.0</ele><time>2026-03-28T15:43:03.998Z</time></trkpt><trkpt lat="37.818966066621385" lon="15.236511864646957"><ele>39.0</ele><time>2026-03-28T15:43:04.998Z</time></trkpt><trkpt lat="37.81886770312526" lon="15.236279579955616"><ele>39.0</ele><time>2026-03-28T15:43:05.998Z</time></trkpt><trkpt lat="37.81877261861567" lon="15.236051236969034"><ele>39.333333333333336</ele><time>2026-03-28T15:43:06.998Z</time></trkpt><trkpt lat="37.81868574512456" lon="15.235825468086318"><ele>39.66666666666667</ele><time>2026-03-28T15:43:07.998Z</time></trkpt><trkpt lat="37.81859693048802" lon="15.235592155357628"><ele>40.0</ele><time>2026-03-28T15:43:08.998Z</time></trkpt><trkpt lat="37.81850856227301" lon="15.235358341329194"><ele>40.333333333333336</ele><time>2026-03-28T15:43:09.998Z</time></trkpt><trkpt lat="37.81842705641199" lon="15.235130431438014"><ele>40.666666666666664</ele><time>2026-03-28T15:43:10.998Z</time></trkpt><trkpt lat="37.81834479071744" lon="15.234893105194686"><ele>41.0</ele><time>2026-03-28T15:43:11.998Z</time></trkpt><trkpt lat="37.81826195542244" lon="15.234657173139176"><ele>42.33333333333333</ele><time>2026-03-28T15:43:12.998Z</time></trkpt><trkpt lat="37.81818386326112" lon="15.234422139780014"><ele>43.666666666666664</ele><time>2026-03-28T15:43:13.998Z</time></trkpt><trkpt lat="37.81810105521009" lon="15.234181928785606"><ele>45.0</ele><time>2026-03-28T15:43:14.998Z</time></trkpt><trkpt lat="37.818018306434425" lon="15.233943993244086"><ele>46.33333333333333</ele><time>2026-03-28T15:43:15.998Z</time></trkpt><trkpt lat="37.81793507237439" lon="15.233703110649467"><ele>47.666666666666664</ele><time>2026-03-28T15:43:16.998Z</time></trkpt><trkpt lat="37.81785477078893" lon="15.233464676277329"><ele>49.0</ele><time>2026-03-28T15:43:17.998Z</time></trkpt><trkpt lat="37.81777369806943" lon="15.233224482426152"><ele>48.666666666666664</ele><time>2026-03-28T15:43:18.998Z</time></trkpt><trkpt lat="37.81768916625784" lon="15.23298081140124"><ele>48.33333333333333</ele><time>2026-03-28T15:43:19.998Z</time></trkpt><trkpt lat="37.817606343956605" lon="15.232741904308245"><ele>48.0</ele><time>2026-03-28T15:43:20.998Z</time></trkpt><trkpt lat="37.817522386176755" lon="15.232500093994554"><ele>48.33333333333333</ele><time>2026-03-28T15:43:21.996Z</time></trkpt><trkpt lat="37.8174388150942" lon="15.232268349709397"><ele>48.666666666666664</ele><time>2026-03-28T15:43:22.996Z</time></trkpt><trkpt lat="37.81736483853834" lon="15.2320233412774"><ele>49.0</ele><time>2026-03-28T15:43:23.996Z</time></trkpt><trkpt lat="37.817270835178206" lon="15.231783940016568"><ele>49.0</ele><time>2026-03-28T15:43:24.996Z</time></trkpt><trkpt lat="37.81719260312142" lon="15.231546608248925"><ele>49.0</ele><time>2026-03-28T15:43:25.996Z</time></trkpt><trkpt lat="37.81711020771179" lon="15.231307078805097"><ele>49.0</ele><time>2026-03-28T15:43:26.997Z</time></trkpt><trkpt lat="37.81703085941617" lon="15.23106837168516"><ele>49.0</ele><time>2026-03-28T15:43:27.997Z</time></trkpt><trkpt lat="37.81695730458904" lon="15.230826950878182"><ele>49.0</ele><time>2026-03-28T15:43:28.997Z</time></trkpt><trkpt lat="37.816889585948296" lon="15.230585040099353"><ele>49.0</ele><time>2026-03-28T15:43:29.997Z</time></trkpt><trkpt lat="37.81682668133596" lon="15.230342105278938"><ele>48.33333333333333</ele><time>2026-03-28T15:43:30.997Z</time></trkpt><trkpt lat="37.816765305827396" lon="15.230101591525974"><ele>47.666666666666664</ele><time>2026-03-28T15:43:31.997Z</time></trkpt><trkpt lat="37.816706991202004" lon="15.229862587588736"><ele>47.0</ele><time>2026-03-28T15:43:32.997Z</time></trkpt><trkpt lat="37.8166511806804" lon="15.229622980672474"><ele>48.33333333333333</ele><time>2026-03-28T15:43:33.997Z</time></trkpt><trkpt lat="37.81660021432281" lon="15.229390849730594"><ele>49.666666666666664</ele><time>2026-03-28T15:43:34.997Z</time></trkpt><trkpt lat="37.816551572707816" lon="15.22914559716773"><ele>51.0</ele><time>2026-03-28T15:43:35.998Z</time></trkpt><trkpt lat="37.81650762713458" lon="15.228907935583802"><ele>51.33333333333333</ele><time>2026-03-28T15:43:36.998Z</time></trkpt><trkpt lat="37.81646773946632" lon="15.228671806410508"><ele>51.666666666666664</ele><time>2026-03-28T15:43:37.998Z</time></trkpt><trkpt lat="37.81643400201821" lon="15.228431422643489"><ele>52.0</ele><time>2026-03-28T15:43:38.998Z</time></trkpt><trkpt lat="37.81639755361778" lon="15.228184621438098"><ele>52.0</ele><time>2026-03-28T15:43:39.998Z</time></trkpt><trkpt lat="37.81636678763404" lon="15.227943075641013"><ele>52.0</ele><time>2026-03-28T15:43:40.998Z</time></trkpt><trkpt lat="37.81633892354995" lon="15.227695361757691"><ele>52.0</ele><time>2026-03-28T15:43:41.998Z</time></trkpt><trkpt lat="37.81631843194053" lon="15.227449768045563"><ele>52.33333333333333</ele><time>2026-03-28T15:43:42.998Z</time></trkpt><trkpt lat="37.81629620583401" lon="15.227199068582848"><ele>52.66666666666667</ele><time>2026-03-28T15:43:43.998Z</time></trkpt><trkpt lat="37.81627955298889" lon="15.22694821668282"><ele>53.0</ele><time>2026-03-28T15:43:44.998Z</time></trkpt><trkpt lat="37.81626978485069" lon="15.226702186299002"><ele>54.333333333333336</ele><time>2026-03-28T15:43:45.998Z</time></trkpt><trkpt lat="37.81625766867522" lon="15.2264520190108"><ele>55.66666666666667</ele><time>2026-03-28T15:43:46.998Z</time></trkpt><trkpt lat="37.81625039417121" lon="15.226206046506444"><ele>57.0</ele><time>2026-03-28T15:43:47.998Z</time></trkpt><trkpt lat="37.81623772074036" lon="15.225951367232748"><ele>57.0</ele><time>2026-03-28T15:43:48.998Z</time></trkpt><trkpt lat="37.81623048031953" lon="15.225703443102573"><ele>57.0</ele><time>2026-03-28T15:43:49.998Z</time></trkpt><trkpt lat="37.81622382147529" lon="15.225453222708651"><ele>57.0</ele><time>2026-03-28T15:43:50.998Z</time></trkpt><trkpt lat="37.81621709280532" lon="15.225207225896586"><ele>58.66666666666667</ele><time>2026-03-28T15:43:51.999Z</time></trkpt><trkpt lat="37.81620900550777" lon="15.22495537671755"><ele>60.333333333333336</ele><time>2026-03-28T15:43:52.999Z</time></trkpt><trkpt lat="37.81620091026047" lon="15.224706573463678"><ele>62.0</ele><time>2026-03-28T15:43:53.999Z</time></trkpt><trkpt lat="37.816196744988936" lon="15.224458911104644"><ele>62.0</ele><time>2026-03-28T15:43:54.999Z</time></trkpt><trkpt lat="37.816190985567474" lon="15.224207645150951"><ele>62.0</ele><time>2026-03-28T15:43:55.999Z</time></trkpt><trkpt lat="37.816182628492385" lon="15.223950831122202"><ele>62.0</ele><time>2026-03-28T15:43:56.999Z</time></trkpt><trkpt lat="37.816173056338975" lon="15.223697957421932"><ele>63.333333333333336</ele><time>2026-03-28T15:43:57.999Z</time></trkpt><trkpt lat="37.816157018564134" lon="15.223438813346972"><ele>64.66666666666667</ele><time>2026-03-28T15:43:58.999Z</time></trkpt><trkpt lat="37.81614250682615" lon="15.223188009250222"><ele>66.0</ele><time>2026-03-28T15:43:59.999Z</time></trkpt><trkpt lat="37.816122822702" lon="15.222933627417039"><ele>67.0</ele><time>2026-03-28T15:44:00.999Z</time></trkpt><trkpt lat="37.81609871631454" lon="15.22267792178087"><ele>68.0</ele><time>2026-03-28T15:44:01.999Z</time></trkpt><trkpt lat="37.81607117717345" lon="15.222424219411554"><ele>69.0</ele><time>2026-03-28T15:44:02.999Z</time></trkpt><trkpt lat="37.81603671844138" lon="15.222167064593183"><ele>69.0</ele><time>2026-03-28T15:44:03.999Z</time></trkpt><trkpt lat="37.816002090967274" lon="15.221914984932504"><ele>69.0</ele><time>2026-03-28T15:44:04.999Z</time></trkpt><trkpt lat="37.81596272811016" lon="15.221664042789449"><ele>69.0</ele><time>2026-03-28T15:44:05.999Z</time></trkpt><trkpt lat="37.815920213165576" lon="15.221412762488724"><ele>69.66666666666667</ele><time>2026-03-28T15:44:06.999Z</time></trkpt><trkpt lat="37.81587347897194" lon="15.221164641179351"><ele>70.33333333333334</ele><time>2026-03-28T15:44:07.999Z</time></trkpt><trkpt lat="37.81582478614285" lon="15.220916863868412"><ele>71.0</ele><time>2026-03-28T15:44:08.999Z</time></trkpt><trkpt lat="37.8157728939585" lon="15.22066651702138"><ele>71.66666666666667</ele><time>2026-03-28T15:44:09.999Z</time></trkpt><trkpt lat="37.815722509873474" lon="15.220422364204072"><ele>72.33333333333333</ele><time>2026-03-28T15:44:10.999Z</time></trkpt><trkpt lat="37.81566734107889" lon="15.220174395075182"><ele>73.0</ele><time>2026-03-28T15:44:11.999Z</time></trkpt><trkpt lat="37.815612722893604" lon="15.219924427841578"><ele>74.33333333333333</ele><time>2026-03-28T15:44:12.999Z</time></trkpt><trkpt lat="37.81556132532073" lon="15.219682487111857"><ele>75.66666666666667</ele><time>2026-03-28T15:44:13.999Z</time></trkpt><trkpt lat="37.81550872004397" lon="15.219438253283354"><ele>77.0</ele><time>2026-03-28T15:44:14.999Z</time></trkpt><trkpt lat="37.815456834847076" lon="15.219189711366191"><ele>79.66666666666667</ele><time>2026-03-28T15:44:15.999Z</time></trkpt><trkpt lat="37.815403081179014" lon="15.21894846802888"><ele>82.33333333333333</ele><time>2026-03-28T15:44:16.999Z</time></trkpt><trkpt lat="37.815350057180254" lon="15.21870946578436"><ele>85.0</ele><time>2026-03-28T15:44:17.999Z</time></trkpt><trkpt lat="37.815295107807586" lon="15.218464629528976"><ele>85.0</ele><time>2026-03-28T15:44:18.999Z</time></trkpt><trkpt lat="37.81524105939174" lon="15.218220854523693"><ele>85.0</ele><time>2026-03-28T15:44:19.999Z</time></trkpt><trkpt lat="37.81518954266464" lon="15.21797977156347"><ele>85.0</ele><time>2026-03-28T15:44:20.999Z</time></trkpt><trkpt lat="37.81513551159473" lon="15.217741267822115"><ele>85.33333333333333</ele><time>2026-03-28T15:44:21.999Z</time></trkpt><trkpt lat="37.81508338802915" lon="15.217499730006121"><ele>85.66666666666667</ele><time>2026-03-28T15:44:22.999Z</time></trkpt><trkpt lat="37.815032143200774" lon="15.217260776116246"><ele>86.0</ele><time>2026-03-28T15:44:23.999Z</time></trkpt><trkpt lat="37.81497653133092" lon="15.217029914337402"><ele>88.66666666666667</ele><time>2026-03-28T15:44:24.999Z</time></trkpt><trkpt lat="37.81491745789249" lon="15.216792551045677"><ele>91.33333333333333</ele><time>2026-03-28T15:44:25.999Z</time></trkpt><trkpt lat="37.81485981865746" lon="15.216561683207429"><ele>94.0</ele><time>2026-03-28T15:44:26.999Z</time></trkpt><trkpt lat="37.81479103903206" lon="15.216324948966838"><ele>95.66666666666666</ele><time>2026-03-28T15:44:27.999Z</time></trkpt><trkpt lat="37.814719260913215" lon="15.216089199480427"><ele>97.33333333333333</ele><time>2026-03-28T15:44:28.999Z</time></trkpt><trkpt lat="37.81464449937211" lon="15.215847628268802"><ele>99.0</ele><time>2026-03-28T15:44:29.999Z</time></trkpt><trkpt lat="37.81456748636225" lon="15.215603651871316"><ele>97.33333333333333</ele><time>2026-03-28T15:44:30.999Z</time></trkpt><trkpt lat="37.814484574424256" lon="15.215358077911588"><ele>95.66666666666666</ele><time>2026-03-28T15:44:31.999Z</time></trkpt><trkpt lat="37.814398106284045" lon="15.215118399456124"><ele>94.0</ele><time>2026-03-28T15:44:32.999Z</time></trkpt><trkpt lat="37.81430613653198" lon="15.2148792790635"><ele>95.0</ele><time>2026-03-28T15:44:33.999Z</time></trkpt><trkpt lat="37.81420942179997" lon="15.214638365101248"><ele>96.0</ele><time>2026-03-28T15:44:34.999Z</time></trkpt><trkpt lat="37.81410970656399" lon="15.21439734948011"><ele>97.0</ele><time>2026-03-28T15:44:35.999Z</time></trkpt><trkpt lat="37.81400611177553" lon="15.214159853541329"><ele>97.66666666666667</ele><time>2026-03-28T15:44:36.999Z</time></trkpt><trkpt lat="37.81390030865672" lon="15.21392904501101"><ele>98.33333333333334</ele><time>2026-03-28T15:44:37.999Z</time></trkpt><trkpt lat="37.813791931642434" lon="15.213696839258528"><ele>99.0</ele><time>2026-03-28T15:44:38.999Z</time></trkpt><trkpt lat="37.81368472771966" lon="15.213468370544081"><ele>99.0</ele><time>2026-03-28T15:44:39.999Z</time></trkpt><trkpt lat="37.813575494525196" lon="15.213238869856388"><ele>99.0</ele><time>2026-03-28T15:44:40.999Z</time></trkpt><trkpt lat="37.81347012896716" lon="15.213009325139776"><ele>99.0</ele><time>2026-03-28T15:44:41.999Z</time></trkpt><trkpt lat="37.813363800281195" lon="15.21277899038011"><ele>98.66666666666666</ele><time>2026-03-28T15:44:42.999Z</time></trkpt><trkpt lat="37.81325722092259" lon="15.212550798674606"><ele>98.33333333333333</ele><time>2026-03-28T15:44:43.999Z</time></trkpt><trkpt lat="37.81314751440064" lon="15.212320111276524"><ele>98.0</ele><time>2026-03-28T15:44:44.999Z</time></trkpt><trkpt lat="37.81303913003291" lon="15.212092996142097"><ele>99.33333333333333</ele><time>2026-03-28T15:44:45.999Z</time></trkpt><trkpt lat="37.81293002139696" lon="15.211868462491255"><ele>100.66666666666666</ele><time>2026-03-28T15:44:46.999Z</time></trkpt><trkpt lat="37.812822439633884" lon="15.211642046855438"><ele>102.0</ele><time>2026-03-28T15:44:47.999Z</time></trkpt><trkpt lat="37.81271887618502" lon="15.211417598842901"><ele>104.33333333333334</ele><time>2026-03-28T15:44:49Z</time></trkpt><trkpt lat="37.81261459194859" lon="15.211191553303758"><ele>106.66666666666667</ele><time>2026-03-28T15:44:50Z</time></trkpt><trkpt lat="37.81250736337495" lon="15.210959836596274"><ele>109.0</ele><time>2026-03-28T15:44:51Z</time></trkpt><trkpt lat="37.81239953941066" lon="15.210732091283385"><ele>111.33333333333334</ele><time>2026-03-28T15:44:52Z</time></trkpt><trkpt lat="37.81229216025546" lon="15.210506685694796"><ele>113.66666666666666</ele><time>2026-03-28T15:44:53Z</time></trkpt><trkpt lat="37.8121839545122" lon="15.210278492925225"><ele>116.0</ele><time>2026-03-28T15:44:54Z</time></trkpt><trkpt lat="37.81207290791925" lon="15.210048319057757"><ele>116.66666666666666</ele><time>2026-03-28T15:44:55Z</time></trkpt><trkpt lat="37.811958726198924" lon="15.209824201844697"><ele>117.33333333333334</ele><time>2026-03-28T15:44:56Z</time></trkpt><trkpt lat="37.811841752301454" lon="15.209602199544438"><ele>118.0</ele><time>2026-03-28T15:44:57Z</time></trkpt><trkpt lat="37.81171911695604" lon="15.209379294120922"><ele>118.0</ele><time>2026-03-28T15:44:58Z</time></trkpt><trkpt lat="37.811593314007276" lon="15.209157153597934"><ele>118.0</ele><time>2026-03-28T15:44:59Z</time></trkpt><trkpt lat="37.811462870661536" lon="15.208936624655125"><ele>118.0</ele><time>2026-03-28T15:45:00Z</time></trkpt><trkpt lat="37.811327953076656" lon="15.208713285246926"><ele>120.66666666666667</ele><time>2026-03-28T15:45:01Z</time></trkpt><trkpt lat="37.81119213199003" lon="15.208491354435825"><ele>123.33333333333334</ele><time>2026-03-28T15:45:02Z</time></trkpt><trkpt lat="37.81105323816849" lon="15.208275132577683"><ele>126.0</ele><time>2026-03-28T15:45:03Z</time></trkpt><trkpt lat="37.81090785460795" lon="15.208059171029632"><ele>126.0</ele><time>2026-03-28T15:45:04Z</time></trkpt><trkpt lat="37.81076048738823" lon="15.207844696167335"><ele>126.0</ele><time>2026-03-28T15:45:05Z</time></trkpt><trkpt lat="37.81061410957829" lon="15.207631490712233"><ele>126.0</ele><time>2026-03-28T15:45:06Z</time></trkpt><trkpt lat="37.810454818321084" lon="15.20742008775328"><ele>128.0</ele><time>2026-03-28T15:45:07Z</time></trkpt><trkpt lat="37.81027817936322" lon="15.207209224664698"><ele>130.0</ele><time>2026-03-28T15:45:08Z</time></trkpt><trkpt lat="37.81009569934738" lon="15.206982172254197"><ele>130.0</ele><time>2026-03-28T15:45:09Z</time></trkpt><trkpt lat="37.80991223695749" lon="15.206743880159362"><ele>130.0</ele><time>2026-03-28T15:45:10Z</time></trkpt><trkpt lat="37.809723498060954" lon="15.20649862462379"><ele>131.0</ele><time>2026-03-28T15:45:11Z</time></trkpt><trkpt lat="37.80954037134487" lon="15.206269587203446"><ele>132.0</ele><time>2026-03-28T15:45:12Z</time></trkpt><trkpt lat="37.80936674725755" lon="15.206068645658794"><ele>132.5</ele><time>2026-03-28T15:45:13Z</time></trkpt><trkpt lat="37.809194649046404" lon="15.205877735537296"><ele>133.0</ele><time>2026-03-28T15:45:14Z</time></trkpt><trkpt lat="37.809021822914616" lon="15.2056851242283"><ele>135.5</ele><time>2026-03-28T15:45:15Z</time></trkpt><trkpt lat="37.80885023670581" lon="15.205492939853798"><ele>138.0</ele><time>2026-03-28T15:45:16Z</time></trkpt><trkpt lat="37.80867831980564" lon="15.205298999432046"><ele>138.0</ele><time>2026-03-28T15:45:17Z</time></trkpt><trkpt lat="37.80850664415045" lon="15.205103885565736"><ele>138.0</ele><time>2026-03-28T15:45:18Z</time></trkpt><trkpt lat="37.80833221626859" lon="15.204909224111121"><ele>133.0</ele><time>2026-03-28T15:45:19Z</time></trkpt><trkpt lat="37.80815581733748" lon="15.204714830225962"><ele>128.0</ele><time>2026-03-28T15:45:20Z</time></trkpt><trkpt lat="37.80797849439897" lon="15.20451958032054"><ele>128.0</ele><time>2026-03-28T15:45:21Z</time></trkpt><trkpt lat="37.80779994488286" lon="15.20432426096052"><ele>128.0</ele><time>2026-03-28T15:45:22Z</time></trkpt><trkpt lat="37.807621137008525" lon="15.204126321317391"><ele>122.0</ele><time>2026-03-28T15:45:23Z</time></trkpt><trkpt lat="37.807441504536165" lon="15.203924623929707"><ele>116.0</ele><time>2026-03-28T15:45:24Z</time></trkpt><trkpt lat="37.80725914423087" lon="15.203720314326695"><ele>116.0</ele><time>2026-03-28T15:45:25Z</time></trkpt><trkpt lat="37.80707772808223" lon="15.203519287147222"><ele>116.0</ele><time>2026-03-28T15:45:26Z</time></trkpt><trkpt lat="37.80689851760297" lon="15.203318337914972"><ele>119.5</ele><time>2026-03-28T15:45:27Z</time></trkpt><trkpt lat="37.806718716522035" lon="15.20311712216272"><ele>123.0</ele><time>2026-03-28T15:45:27.999Z</time></trkpt><trkpt lat="37.80653680127366" lon="15.202914049458215"><ele>123.0</ele><time>2026-03-28T15:45:28.998Z</time></trkpt><trkpt lat="37.80635208642293" lon="15.202712622739261"><ele>123.0</ele><time>2026-03-28T15:45:29.999Z</time></trkpt><trkpt lat="37.80616505028289" lon="15.202508918586053"><ele>124.0</ele><time>2026-03-28T15:45:30.999Z</time></trkpt><trkpt lat="37.80597783133036" lon="15.202303888578331"><ele>125.0</ele><time>2026-03-28T15:45:31.999Z</time></trkpt><trkpt lat="37.805788470900204" lon="15.202097049257137"><ele>125.0</ele><time>2026-03-28T15:45:32.999Z</time></trkpt><trkpt lat="37.80559267173783" lon="15.201895158620069"><ele>125.0</ele><time>2026-03-28T15:45:33.999Z</time></trkpt><trkpt lat="37.80538906021455" lon="15.2016951178903"><ele>125.0</ele><time>2026-03-28T15:45:34.999Z</time></trkpt><trkpt lat="37.80518057957178" lon="15.201501773337956"><ele>125.0</ele><time>2026-03-28T15:45:35.999Z</time></trkpt><trkpt lat="37.804965403134524" lon="15.201299007018033"><ele>119.0</ele><time>2026-03-28T15:45:36.999Z</time></trkpt><trkpt lat="37.80475183159022" lon="15.201103721623367"><ele>113.0</ele><time>2026-03-28T15:45:37.999Z</time></trkpt><trkpt lat="37.804532581018265" lon="15.200911954228827"><ele>108.0</ele><time>2026-03-28T15:45:38.999Z</time></trkpt><trkpt lat="37.804310350631695" lon="15.20073001883326"><ele>103.0</ele><time>2026-03-28T15:45:39.999Z</time></trkpt><trkpt lat="37.80408331126833" lon="15.200546230194151"><ele>103.0</ele><time>2026-03-28T15:45:40.999Z</time></trkpt><trkpt lat="37.803852713394726" lon="15.20037005220142"><ele>103.0</ele><time>2026-03-28T15:45:41.999Z</time></trkpt><trkpt lat="37.80361627309895" lon="15.200194018617982"><ele>108.5</ele><time>2026-03-28T15:45:42.999Z</time></trkpt><trkpt lat="37.80337335158055" lon="15.200019824837161"><ele>114.0</ele><time>2026-03-28T15:45:43.999Z</time></trkpt><trkpt lat="37.80311551416235" lon="15.199841537705115"><ele>115.0</ele><time>2026-03-28T15:45:44.999Z</time></trkpt><trkpt lat="37.80286127459398" lon="15.199662798386562"><ele>116.0</ele><time>2026-03-28T15:45:45.999Z</time></trkpt><trkpt lat="37.80262244871774" lon="15.199488006161108"><ele>116.5</ele><time>2026-03-28T15:45:46.999Z</time></trkpt><trkpt lat="37.802395817945104" lon="15.19931991808217"><ele>117.0</ele><time>2026-03-28T15:45:47.999Z</time></trkpt><trkpt lat="37.80216843578798" lon="15.19915587769291"><ele>118.5</ele><time>2026-03-28T15:45:48.999Z</time></trkpt><trkpt lat="37.80194665994357" lon="15.198996216005538"><ele>120.0</ele><time>2026-03-28T15:45:49.999Z</time></trkpt><trkpt lat="37.80172209929663" lon="15.198834510567695"><ele>120.0</ele><time>2026-03-28T15:45:50.999Z</time></trkpt><trkpt lat="37.801504856546" lon="15.198672559681281"><ele>120.0</ele><time>2026-03-28T15:45:51.999Z</time></trkpt><trkpt lat="37.80129430250897" lon="15.198512890880595"><ele>120.0</ele><time>2026-03-28T15:45:52.999Z</time></trkpt><trkpt lat="37.8010908888359" lon="15.19835911533292"><ele>120.0</ele><time>2026-03-28T15:45:53.999Z</time></trkpt><trkpt lat="37.800890348583216" lon="15.19821024866157"><ele>118.5</ele><time>2026-03-28T15:45:54.999Z</time></trkpt><trkpt lat="37.80068673162416" lon="15.198063088294822"><ele>117.0</ele><time>2026-03-28T15:45:55.999Z</time></trkpt><trkpt lat="37.80047549197717" lon="15.19790896450738"><ele>117.0</ele><time>2026-03-28T15:45:56.999Z</time></trkpt><trkpt lat="37.80025970407507" lon="15.197747260612436"><ele>117.0</ele><time>2026-03-28T15:45:57.999Z</time></trkpt><trkpt lat="37.80003924787536" lon="15.197570345154112"><ele>116.0</ele><time>2026-03-28T15:45:58.999Z</time></trkpt><trkpt lat="37.799816264817544" lon="15.19737951974059"><ele>115.0</ele><time>2026-03-28T15:45:59.999Z</time></trkpt><trkpt lat="37.799590404869804" lon="15.197174292033727"><ele>115.0</ele><time>2026-03-28T15:46:00.999Z</time></trkpt><trkpt lat="37.799367454557206" lon="15.196956873812281"><ele>115.0</ele><time>2026-03-28T15:46:01.999Z</time></trkpt><trkpt lat="37.799145756551376" lon="15.19672398626569"><ele>115.5</ele><time>2026-03-28T15:46:02.999Z</time></trkpt><trkpt lat="37.798928460815304" lon="15.196477446522723"><ele>116.0</ele><time>2026-03-28T15:46:03.999Z</time></trkpt><trkpt lat="37.79871684297885" lon="15.196216059408851"><ele>116.0</ele><time>2026-03-28T15:46:04.999Z</time></trkpt><trkpt lat="37.79851502802999" lon="15.19594156388403"><ele>116.0</ele><time>2026-03-28T15:46:05.999Z</time></trkpt><trkpt lat="37.79832310018374" lon="15.19565411977501"><ele>113.5</ele><time>2026-03-28T15:46:06.999Z</time></trkpt><trkpt lat="37.79813565323589" lon="15.19535934980061"><ele>111.0</ele><time>2026-03-28T15:46:07.999Z</time></trkpt><trkpt lat="37.79795151878373" lon="15.195064758606538"><ele>111.5</ele><time>2026-03-28T15:46:08.999Z</time></trkpt><trkpt lat="37.79777275951528" lon="15.194768802542406"><ele>112.0</ele><time>2026-03-28T15:46:09.999Z</time></trkpt><trkpt lat="37.79759732955877" lon="15.194470958524485"><ele>112.0</ele><time>2026-03-28T15:46:10.999Z</time></trkpt><trkpt lat="37.797424703015615" lon="15.194177937169457"><ele>112.0</ele><time>2026-03-28T15:46:11.999Z</time></trkpt><trkpt lat="37.79724741694637" lon="15.193886065300212"><ele>115.0</ele><time>2026-03-28T15:46:12.999Z</time></trkpt><trkpt lat="37.797070974068234" lon="15.19360145921835"><ele>118.0</ele><time>2026-03-28T15:46:13.999Z</time></trkpt><trkpt lat="37.79689450864583" lon="15.193316412664668"><ele>118.0</ele><time>2026-03-28T15:46:14.999Z</time></trkpt><trkpt lat="37.796720767027686" lon="15.193035591134604"><ele>118.0</ele><time>2026-03-28T15:46:16Z</time></trkpt><trkpt lat="37.796555101292185" lon="15.192757781825598"><ele>118.0</ele><time>2026-03-28T15:46:17Z</time></trkpt><trkpt lat="37.79638877581437" lon="15.192484196894286"><ele>118.0</ele><time>2026-03-28T15:46:18Z</time></trkpt><trkpt lat="37.79621498179655" lon="15.192211924968689"><ele>119.0</ele><time>2026-03-28T15:46:19Z</time></trkpt><trkpt lat="37.79603682576086" lon="15.191946008735766"><ele>120.0</ele><time>2026-03-28T15:46:20Z</time></trkpt><trkpt lat="37.79585401135112" lon="15.19168124287016"><ele>123.5</ele><time>2026-03-28T15:46:21Z</time></trkpt><trkpt lat="37.79566420933768" lon="15.191420792242624"><ele>127.0</ele><time>2026-03-28T15:46:22Z</time></trkpt><trkpt lat="37.79546600055608" lon="15.19116877695093"><ele>127.0</ele><time>2026-03-28T15:46:23Z</time></trkpt><trkpt lat="37.795261559803414" lon="15.190927500441305"><ele>127.0</ele><time>2026-03-28T15:46:24Z</time></trkpt><trkpt lat="37.79505135580735" lon="15.190693216563753"><ele>126.5</ele><time>2026-03-28T15:46:25Z</time></trkpt><trkpt lat="37.794836490261766" lon="15.190468470563541"><ele>126.0</ele><time>2026-03-28T15:46:26Z</time></trkpt><trkpt lat="37.79462363903051" lon="15.190247273656645"><ele>126.0</ele><time>2026-03-28T15:46:27Z</time></trkpt><trkpt lat="37.79441293077243" lon="15.190028749909045"><ele>126.0</ele><time>2026-03-28T15:46:28Z</time></trkpt><trkpt lat="37.7941914226483" lon="15.18982274066106"><ele>126.5</ele><time>2026-03-28T15:46:29Z</time></trkpt><trkpt lat="37.79396325602865" lon="15.189631686637302"><ele>127.0</ele><time>2026-03-28T15:46:30Z</time></trkpt><trkpt lat="37.79373195562286" lon="15.189451484844044"><ele>128.5</ele><time>2026-03-28T15:46:31Z</time></trkpt><trkpt lat="37.79349773373267" lon="15.189277548437426"><ele>130.0</ele><time>2026-03-28T15:46:32Z</time></trkpt><trkpt lat="37.79325848262303" lon="15.189113730460285"><ele>130.5</ele><time>2026-03-28T15:46:33Z</time></trkpt><trkpt lat="37.793012043975196" lon="15.188959219723104"><ele>131.0</ele><time>2026-03-28T15:46:34Z</time></trkpt><trkpt lat="37.792763121275804" lon="15.1888110040231"><ele>132.0</ele><time>2026-03-28T15:46:35Z</time></trkpt><trkpt lat="37.792508834095315" lon="15.188668187584746"><ele>133.0</ele><time>2026-03-28T15:46:36Z</time></trkpt><trkpt lat="37.79225023122987" lon="15.18853956397057"><ele>133.0</ele><time>2026-03-28T15:46:37Z</time></trkpt><trkpt lat="37.7919831383082" lon="15.188423450216838"><ele>133.0</ele><time>2026-03-28T15:46:38Z</time></trkpt><trkpt lat="37.79171345313746" lon="15.18831309085384"><ele>131.5</ele><time>2026-03-28T15:46:39Z</time></trkpt><trkpt lat="37.79145003642088" lon="15.188208443404806"><ele>130.0</ele><time>2026-03-28T15:46:40Z</time></trkpt><trkpt lat="37.791181001023496" lon="15.188110516577035"><ele>131.0</ele><time>2026-03-28T15:46:41Z</time></trkpt><trkpt lat="37.79091386557112" lon="15.188012728306886"><ele>132.0</ele><time>2026-03-28T15:46:42Z</time></trkpt><trkpt lat="37.79064669945612" lon="15.187913414098059"><ele>132.0</ele><time>2026-03-28T15:46:43Z</time></trkpt><trkpt lat="37.790378010234825" lon="15.18781504752884"><ele>132.0</ele><time>2026-03-28T15:46:44Z</time></trkpt><trkpt lat="37.79011073165467" lon="15.187716875338623"><ele>130.0</ele><time>2026-03-28T15:46:45Z</time></trkpt><trkpt lat="37.78984371552576" lon="15.187617249680786"><ele>128.0</ele><time>2026-03-28T15:46:46Z</time></trkpt><trkpt lat="37.789577747409645" lon="15.187520932168304"><ele>128.5</ele><time>2026-03-28T15:46:47Z</time></trkpt><trkpt lat="37.789309132483204" lon="15.187427316395258"><ele>129.0</ele><time>2026-03-28T15:46:48Z</time></trkpt><trkpt lat="37.78904446963431" lon="15.187331992063067"><ele>129.0</ele><time>2026-03-28T15:46:49Z</time></trkpt><trkpt lat="37.788783302678965" lon="15.187238863680788"><ele>129.0</ele><time>2026-03-28T15:46:50Z</time></trkpt><trkpt lat="37.78852261580969" lon="15.187146140117077"><ele>122.5</ele><time>2026-03-28T15:46:51Z</time></trkpt><trkpt lat="37.78826004876939" lon="15.187053875800705"><ele>116.0</ele><time>2026-03-28T15:46:52Z</time></trkpt><trkpt lat="37.78799806089468" lon="15.18696050088992"><ele>116.0</ele><time>2026-03-28T15:46:53Z</time></trkpt><trkpt lat="37.78773876041152" lon="15.186865963790432"><ele>116.0</ele><time>2026-03-28T15:46:54Z</time></trkpt><trkpt lat="37.787480515248646" lon="15.18677061145379"><ele>117.5</ele><time>2026-03-28T15:46:55Z</time></trkpt><trkpt lat="37.78723627768578" lon="15.186679639001447"><ele>119.0</ele><time>2026-03-28T15:46:56Z</time></trkpt><trkpt lat="37.7870035291117" lon="15.186592704660233"><ele>119.5</ele><time>2026-03-28T15:46:57Z</time></trkpt><trkpt lat="37.78677881355826" lon="15.186510237699366"><ele>120.0</ele><time>2026-03-28T15:46:58Z</time></trkpt><trkpt lat="37.78655193970111" lon="15.186427243292542"><ele>120.0</ele><time>2026-03-28T15:46:59Z</time></trkpt><trkpt lat="37.78632296022645" lon="15.186341154161555"><ele>120.0</ele><time>2026-03-28T15:47:00Z</time></trkpt><trkpt lat="37.786089397891054" lon="15.186254230629732"><ele>118.0</ele><time>2026-03-28T15:47:01Z</time></trkpt><trkpt lat="37.78585382161502" lon="15.186168680885986"><ele>116.0</ele><time>2026-03-28T15:47:02Z</time></trkpt><trkpt lat="37.785611957105786" lon="15.18608923530686"><ele>116.0</ele><time>2026-03-28T15:47:03Z</time></trkpt><trkpt lat="37.785360227895794" lon="15.186015345728975"><ele>116.0</ele><time>2026-03-28T15:47:04Z</time></trkpt><trkpt lat="37.78510216943142" lon="15.18593537794852"><ele>117.0</ele><time>2026-03-28T15:47:05Z</time></trkpt><trkpt lat="37.784839800346816" lon="15.18583959308093"><ele>118.0</ele><time>2026-03-28T15:47:06Z</time></trkpt><trkpt lat="37.784572039483734" lon="15.185737366806858"><ele>118.0</ele><time>2026-03-28T15:47:07Z</time></trkpt><trkpt lat="37.784302371977226" lon="15.1856355125503"><ele>118.0</ele><time>2026-03-28T15:47:08Z</time></trkpt><trkpt lat="37.78403130284034" lon="15.185533249916828"><ele>118.0</ele><time>2026-03-28T15:47:09Z</time></trkpt><trkpt lat="37.783755000534846" lon="15.185431908192841"><ele>118.0</ele><time>2026-03-28T15:47:10Z</time></trkpt><trkpt lat="37.78347871129566" lon="15.185333058266947"><ele>119.0</ele><time>2026-03-28T15:47:11Z</time></trkpt><trkpt lat="37.78320231039303" lon="15.185235623776068"><ele>120.0</ele><time>2026-03-28T15:47:12Z</time></trkpt><trkpt lat="37.782923202379564" lon="15.1851366954463"><ele>119.5</ele><time>2026-03-28T15:47:13Z</time></trkpt><trkpt lat="37.78264670168755" lon="15.185036753275583"><ele>119.0</ele><time>2026-03-28T15:47:14Z</time></trkpt><trkpt lat="37.78236926283848" lon="15.184936697248995"><ele>119.5</ele><time>2026-03-28T15:47:15Z</time></trkpt><trkpt lat="37.78209095502491" lon="15.184840629366905"><ele>120.0</ele><time>2026-03-28T15:47:16Z</time></trkpt><trkpt lat="37.78180983474902" lon="15.184753856900684"><ele>120.0</ele><time>2026-03-28T15:47:17Z</time></trkpt><trkpt lat="37.781531901187044" lon="15.18467429945704"><ele>120.0</ele><time>2026-03-28T15:47:18Z</time></trkpt><trkpt lat="37.78125284061562" lon="15.184597434398158"><ele>122.0</ele><time>2026-03-28T15:47:19Z</time></trkpt><trkpt lat="37.78097024243758" lon="15.184522750694311"><ele>124.0</ele><time>2026-03-28T15:47:20Z</time></trkpt><trkpt lat="37.78068643874259" lon="15.184456360374233"><ele>124.0</ele><time>2026-03-28T15:47:21Z</time></trkpt><trkpt lat="37.7804007757577" lon="15.184398608642837"><ele>124.0</ele><time>2026-03-28T15:47:22Z</time></trkpt><trkpt lat="37.780113014016656" lon="15.184347000576754"><ele>123.5</ele><time>2026-03-28T15:47:23Z</time></trkpt><trkpt lat="37.77982235793768" lon="15.18430150184074"><ele>123.0</ele><time>2026-03-28T15:47:24Z</time></trkpt><trkpt lat="37.779525407160506" lon="15.184261916229936"><ele>123.0</ele><time>2026-03-28T15:47:25Z</time></trkpt><trkpt lat="37.779229366573944" lon="15.184224959017808"><ele>123.0</ele><time>2026-03-28T15:47:26Z</time></trkpt><trkpt lat="37.77892820455352" lon="15.184192791136345"><ele>123.0</ele><time>2026-03-28T15:47:27Z</time></trkpt><trkpt lat="37.77862367209956" lon="15.184168436734549"><ele>123.0</ele><time>2026-03-28T15:47:28Z</time></trkpt><trkpt lat="37.77831547864639" lon="15.18415184037045"><ele>123.0</ele><time>2026-03-28T15:47:29Z</time></trkpt><trkpt lat="37.77800778980755" lon="15.18414235531888"><ele>123.0</ele><time>2026-03-28T15:47:30Z</time></trkpt><trkpt lat="37.777700399779086" lon="15.184137459837821"><ele>122.5</ele><time>2026-03-28T15:47:31Z</time></trkpt><trkpt lat="37.77739017207763" lon="15.184136484384528"><ele>122.0</ele><time>2026-03-28T15:47:32Z</time></trkpt><trkpt lat="37.77708258645768" lon="15.184134860974115"><ele>118.5</ele><time>2026-03-28T15:47:33Z</time></trkpt><trkpt lat="37.77677340957086" lon="15.184134020495337"><ele>115.0</ele><time>2026-03-28T15:47:33.999Z</time></trkpt><trkpt lat="37.77646340217143" lon="15.18412860989575"><ele>115.0</ele><time>2026-03-28T15:47:34.999Z</time></trkpt><trkpt lat="37.776154649738835" lon="15.184122265000797"><ele>115.0</ele><time>2026-03-28T15:47:35.999Z</time></trkpt><trkpt lat="37.77584673834499" lon="15.184120322269111"><ele>114.0</ele><time>2026-03-28T15:47:36.999Z</time></trkpt><trkpt lat="37.77554136215682" lon="15.184117711667097"><ele>113.0</ele><time>2026-03-28T15:47:37.999Z</time></trkpt><trkpt lat="37.77523816622019" lon="15.18411283985379"><ele>112.5</ele><time>2026-03-28T15:47:38.999Z</time></trkpt><trkpt lat="37.77493132496115" lon="15.184111056937619"><ele>112.0</ele><time>2026-03-28T15:47:39.999Z</time></trkpt><trkpt lat="37.77462640925285" lon="15.184106530775143"><ele>110.0</ele><time>2026-03-28T15:47:40.999Z</time></trkpt><trkpt lat="37.77432157336823" lon="15.184096620954474"><ele>108.0</ele><time>2026-03-28T15:47:41.999Z</time></trkpt><trkpt lat="37.774016440147186" lon="15.184086543151201"><ele>108.0</ele><time>2026-03-28T15:47:42.999Z</time></trkpt><trkpt lat="37.77371259775106" lon="15.184072561791737"><ele>108.0</ele><time>2026-03-28T15:47:43.999Z</time></trkpt><trkpt lat="37.773407282128666" lon="15.184048636608303"><ele>109.0</ele><time>2026-03-28T15:47:44.999Z</time></trkpt><trkpt lat="37.77310334510426" lon="15.184017877318265"><ele>110.0</ele><time>2026-03-28T15:47:45.999Z</time></trkpt><trkpt lat="37.77279932310846" lon="15.183982671631881"><ele>113.5</ele><time>2026-03-28T15:47:46.999Z</time></trkpt><trkpt lat="37.77249543833585" lon="15.183945136529887"><ele>117.0</ele><time>2026-03-28T15:47:47.999Z</time></trkpt><trkpt lat="37.77219213231325" lon="15.18390122791052"><ele>117.0</ele><time>2026-03-28T15:47:48.999Z</time></trkpt><trkpt lat="37.77189140884036" lon="15.183854232584709"><ele>117.0</ele><time>2026-03-28T15:47:49.999Z</time></trkpt><trkpt lat="37.77159158876051" lon="15.183813345290817"><ele>116.0</ele><time>2026-03-28T15:47:50.999Z</time></trkpt><trkpt lat="37.77129171178321" lon="15.183774390136023"><ele>115.0</ele><time>2026-03-28T15:47:51.999Z</time></trkpt><trkpt lat="37.77099078248277" lon="15.18373737531749"><ele>114.5</ele><time>2026-03-28T15:47:52.999Z</time></trkpt><trkpt lat="37.770689531336956" lon="15.183698980931139"><ele>114.0</ele><time>2026-03-28T15:47:53.999Z</time></trkpt><trkpt lat="37.77038777353045" lon="15.183659202978932"><ele>114.5</ele><time>2026-03-28T15:47:54.999Z</time></trkpt><trkpt lat="37.7700865091223" lon="15.183618092785304"><ele>115.0</ele><time>2026-03-28T15:47:55.999Z</time></trkpt><trkpt lat="37.769785242962804" lon="15.183576467412133"><ele>115.0</ele><time>2026-03-28T15:47:56.999Z</time></trkpt><trkpt lat="37.769486489505255" lon="15.18353353046383"><ele>115.0</ele><time>2026-03-28T15:47:58Z</time></trkpt><trkpt lat="37.769188074319935" lon="15.18348967076042"><ele>115.0</ele><time>2026-03-28T15:47:59Z</time></trkpt><trkpt lat="37.768889852642154" lon="15.18344685790056"><ele>115.0</ele><time>2026-03-28T15:48:00Z</time></trkpt><trkpt lat="37.76859097699489" lon="15.183406981496352"><ele>115.0</ele><time>2026-03-28T15:48:01Z</time></trkpt><trkpt lat="37.76829464122288" lon="15.183367643513487"><ele>115.0</ele><time>2026-03-28T15:48:02Z</time></trkpt><trkpt lat="37.767996433351044" lon="15.183329105090793"><ele>115.0</ele><time>2026-03-28T15:48:03Z</time></trkpt><trkpt lat="37.76769935935438" lon="15.183289825922174"><ele>115.0</ele><time>2026-03-28T15:48:04Z</time></trkpt><trkpt lat="37.76739967159956" lon="15.183250063346199"><ele>115.5</ele><time>2026-03-28T15:48:05Z</time></trkpt><trkpt lat="37.76710204390234" lon="15.183208706111717"><ele>116.0</ele><time>2026-03-28T15:48:06Z</time></trkpt><trkpt lat="37.76680412132733" lon="15.183168037069281"><ele>119.0</ele><time>2026-03-28T15:48:07Z</time></trkpt><trkpt lat="37.76650830323126" lon="15.183127887320834"><ele>122.0</ele><time>2026-03-28T15:48:08Z</time></trkpt><trkpt lat="37.76621353717142" lon="15.183086485194913"><ele>120.0</ele><time>2026-03-28T15:48:09Z</time></trkpt><trkpt lat="37.765917882576304" lon="15.183046112925927"><ele>118.0</ele><time>2026-03-28T15:48:10Z</time></trkpt><trkpt lat="37.765625398070625" lon="15.183006207922881"><ele>118.0</ele><time>2026-03-28T15:48:11Z</time></trkpt><trkpt lat="37.765342432841685" lon="15.182967739637135"><ele>118.0</ele><time>2026-03-28T15:48:12Z</time></trkpt><trkpt lat="37.765062030866375" lon="15.182932065854015"><ele>119.5</ele><time>2026-03-28T15:48:13Z</time></trkpt><trkpt lat="37.76478111127675" lon="15.182893788352574"><ele>121.0</ele><time>2026-03-28T15:48:14Z</time></trkpt><trkpt lat="37.76450119279797" lon="15.182851124544111"><ele>123.0</ele><time>2026-03-28T15:48:15Z</time></trkpt><trkpt lat="37.76422072350231" lon="15.182803111330253"><ele>125.0</ele><time>2026-03-28T15:48:16Z</time></trkpt><trkpt lat="37.76393851872579" lon="15.18274575530121"><ele>125.0</ele><time>2026-03-28T15:48:17Z</time></trkpt><trkpt lat="37.763657455185985" lon="15.182677122061754"><ele>125.0</ele><time>2026-03-28T15:48:18Z</time></trkpt><trkpt lat="37.763378972907354" lon="15.182596705220103"><ele>125.5</ele><time>2026-03-28T15:48:19Z</time></trkpt><trkpt lat="37.763103220716424" lon="15.18249988707771"><ele>126.0</ele><time>2026-03-28T15:48:20Z</time></trkpt><trkpt lat="37.7628292022103" lon="15.182392441109906"><ele>127.5</ele><time>2026-03-28T15:48:21Z</time></trkpt><trkpt lat="37.76255885262235" lon="15.18227357078371"><ele>129.0</ele><time>2026-03-28T15:48:22Z</time></trkpt><trkpt lat="37.76229210356725" lon="15.182145609183793"><ele>129.0</ele><time>2026-03-28T15:48:23Z</time></trkpt><trkpt lat="37.76202784603942" lon="15.182008141180381"><ele>129.0</ele><time>2026-03-28T15:48:24Z</time></trkpt><trkpt lat="37.761769615748904" lon="15.181857375610791"><ele>129.0</ele><time>2026-03-28T15:48:25Z</time></trkpt><trkpt lat="37.7615162020424" lon="15.181695482871211"><ele>129.0</ele><time>2026-03-28T15:48:26Z</time></trkpt><trkpt lat="37.76126578855898" lon="15.181528247890503"><ele>129.5</ele><time>2026-03-28T15:48:27Z</time></trkpt><trkpt lat="37.761021609440846" lon="15.18134942906369"><ele>130.0</ele><time>2026-03-28T15:48:28Z</time></trkpt><trkpt lat="37.76077882741716" lon="15.181162303297214"><ele>130.0</ele><time>2026-03-28T15:48:29Z</time></trkpt><trkpt lat="37.76054324441689" lon="15.180967131667945"><ele>130.0</ele><time>2026-03-28T15:48:30Z</time></trkpt><trkpt lat="37.760307528145155" lon="15.180765603654114"><ele>134.5</ele><time>2026-03-28T15:48:31Z</time></trkpt><trkpt lat="37.760080358463796" lon="15.180552125064688"><ele>139.0</ele><time>2026-03-28T15:48:32Z</time></trkpt><trkpt lat="37.75985912309179" lon="15.180330548889991"><ele>139.0</ele><time>2026-03-28T15:48:33Z</time></trkpt><trkpt lat="37.75964679557262" lon="15.180102649878863"><ele>139.0</ele><time>2026-03-28T15:48:34Z</time></trkpt><trkpt lat="37.75943421282672" lon="15.179869214500314"><ele>137.0</ele><time>2026-03-28T15:48:35Z</time></trkpt><trkpt lat="37.75922358990956" lon="15.17963622229773"><ele>135.0</ele><time>2026-03-28T15:48:36Z</time></trkpt><trkpt lat="37.75901303102177" lon="15.179403077723043"><ele>135.0</ele><time>2026-03-28T15:48:37Z</time></trkpt><trkpt lat="37.758803906683035" lon="15.179172538301051"><ele>135.0</ele><time>2026-03-28T15:48:38Z</time></trkpt><trkpt lat="37.75859437606927" lon="15.17894572389446"><ele>136.0</ele><time>2026-03-28T15:48:39Z</time></trkpt><trkpt lat="37.75838473171732" lon="15.178718294501563"><ele>137.0</ele><time>2026-03-28T15:48:40Z</time></trkpt><trkpt lat="37.758176564218196" lon="15.178496524630397"><ele>137.0</ele><time>2026-03-28T15:48:41Z</time></trkpt><trkpt lat="37.75796324209184" lon="15.178281479053853"><ele>137.0</ele><time>2026-03-28T15:48:42Z</time></trkpt><trkpt lat="37.757740584223264" lon="15.178074631212665"><ele>137.5</ele><time>2026-03-28T15:48:43Z</time></trkpt><trkpt lat="37.757508705118774" lon="15.17788297595714"><ele>138.0</ele><time>2026-03-28T15:48:44Z</time></trkpt><trkpt lat="37.75726561981278" lon="15.17770345742702"><ele>138.0</ele><time>2026-03-28T15:48:45Z</time></trkpt><trkpt lat="37.75701397682878" lon="15.177533923263633"><ele>138.0</ele><time>2026-03-28T15:48:46Z</time></trkpt><trkpt lat="37.75675657149624" lon="15.177380479776499"><ele>142.0</ele><time>2026-03-28T15:48:47Z</time></trkpt><trkpt lat="37.75650093460288" lon="15.177231134045577"><ele>146.0</ele><time>2026-03-28T15:48:48Z</time></trkpt><trkpt lat="37.756234909258104" lon="15.177099294266279"><ele>147.5</ele><time>2026-03-28T15:48:49Z</time></trkpt><trkpt lat="37.755961988084444" lon="15.176980752270552"><ele>149.0</ele><time>2026-03-28T15:48:50Z</time></trkpt><trkpt lat="37.75568359509972" lon="15.176874738093574"><ele>149.0</ele><time>2026-03-28T15:48:51Z</time></trkpt><trkpt lat="37.755402369342775" lon="15.17678361732398"><ele>149.0</ele><time>2026-03-28T15:48:52Z</time></trkpt><trkpt lat="37.75511479852159" lon="15.176707471893744"><ele>148.0</ele><time>2026-03-28T15:48:53Z</time></trkpt><trkpt lat="37.754818385526946" lon="15.176636213801386"><ele>147.0</ele><time>2026-03-28T15:48:54Z</time></trkpt><trkpt lat="37.754510242676005" lon="15.176563141731036"><ele>154.0</ele><time>2026-03-28T15:48:55Z</time></trkpt><trkpt lat="37.754202375593984" lon="15.176483442622098"><ele>161.0</ele><time>2026-03-28T15:48:56Z</time></trkpt><trkpt lat="37.75389029122336" lon="15.176399145919829"><ele>161.0</ele><time>2026-03-28T15:48:57Z</time></trkpt><trkpt lat="37.75357205960982" lon="15.176312597813999"><ele>161.0</ele><time>2026-03-28T15:48:58Z</time></trkpt><trkpt lat="37.7532570641338" lon="15.176216747263679"><ele>156.5</ele><time>2026-03-28T15:48:59Z</time></trkpt><trkpt lat="37.75294161352145" lon="15.176107624314868"><ele>152.0</ele><time>2026-03-28T15:49:00Z</time></trkpt><trkpt lat="37.75262991745412" lon="15.175980102405301"><ele>152.0</ele><time>2026-03-28T15:49:01Z</time></trkpt><trkpt lat="37.752320504050076" lon="15.175838608601"><ele>152.0</ele><time>2026-03-28T15:49:02Z</time></trkpt><trkpt lat="37.7520179773351" lon="15.17569078266561"><ele>145.0</ele><time>2026-03-28T15:49:03Z</time></trkpt><trkpt lat="37.75172333579838" lon="15.175542213223151"><ele>138.0</ele><time>2026-03-28T15:49:04Z</time></trkpt><trkpt lat="37.75143405852423" lon="15.175395454897545"><ele>138.0</ele><time>2026-03-28T15:49:05Z</time></trkpt><trkpt lat="37.751151320170756" lon="15.175254444607564"><ele>138.0</ele><time>2026-03-28T15:49:06.001Z</time></trkpt><trkpt lat="37.750885262221935" lon="15.175129855536964"><ele>137.0</ele><time>2026-03-28T15:49:07.001Z</time></trkpt><trkpt lat="37.75062020881618" lon="15.175015773063318"><ele>136.0</ele><time>2026-03-28T15:49:08.001Z</time></trkpt><trkpt lat="37.75035392566146" lon="15.17491303080519"><ele>143.0</ele><time>2026-03-28T15:49:09.001Z</time></trkpt><trkpt lat="37.75008913767773" lon="15.174826332390028"><ele>150.0</ele><time>2026-03-28T15:49:10.001Z</time></trkpt><trkpt lat="37.74981510586302" lon="15.174756068357787"><ele>150.0</ele><time>2026-03-28T15:49:11.001Z</time></trkpt><trkpt lat="37.74953783305288" lon="15.174696040833537"><ele>150.0</ele><time>2026-03-28T15:49:12.001Z</time></trkpt><trkpt lat="37.749258312548605" lon="15.174651796298884"><ele>149.0</ele><time>2026-03-28T15:49:13.001Z</time></trkpt><trkpt lat="37.74897617420654" lon="15.174623151269737"><ele>148.0</ele><time>2026-03-28T15:49:14.001Z</time></trkpt><trkpt lat="37.748689190505566" lon="15.174610078473506"><ele>150.5</ele><time>2026-03-28T15:49:15.001Z</time></trkpt><trkpt lat="37.74839931977089" lon="15.17461220457523"><ele>153.0</ele><time>2026-03-28T15:49:16.001Z</time></trkpt><trkpt lat="37.74810650502246" lon="15.174627308663629"><ele>153.0</ele><time>2026-03-28T15:49:17.001Z</time></trkpt><trkpt lat="37.74781078293621" lon="15.174650278790306"><ele>153.0</ele><time>2026-03-28T15:49:18.001Z</time></trkpt><trkpt lat="37.74751333229919" lon="15.174677496058326"><ele>153.0</ele><time>2026-03-28T15:49:19.001Z</time></trkpt><trkpt lat="37.74721321551702" lon="15.174706968707712"><ele>153.0</ele><time>2026-03-28T15:49:20.001Z</time></trkpt><trkpt lat="37.746911537598784" lon="15.174732936165775"><ele>152.0</ele><time>2026-03-28T15:49:21.001Z</time></trkpt><trkpt lat="37.746609756618184" lon="15.174757618366742"><ele>151.0</ele><time>2026-03-28T15:49:22.001Z</time></trkpt><trkpt lat="37.74631174411308" lon="15.1747828229727"><ele>154.0</ele><time>2026-03-28T15:49:23.001Z</time></trkpt><trkpt lat="37.74601499690631" lon="15.174807184641734"><ele>157.0</ele><time>2026-03-28T15:49:24.001Z</time></trkpt><trkpt lat="37.745722003992256" lon="15.174826294661184"><ele>157.0</ele><time>2026-03-28T15:49:25.001Z</time></trkpt><trkpt lat="37.745432540147206" lon="15.174831960735395"><ele>157.0</ele><time>2026-03-28T15:49:26.001Z</time></trkpt><trkpt lat="37.74515492339079" lon="15.17481625791524"><ele>162.0</ele><time>2026-03-28T15:49:27.001Z</time></trkpt><trkpt lat="37.74488645303788" lon="15.174784774401084"><ele>167.0</ele><time>2026-03-28T15:49:28.001Z</time></trkpt><trkpt lat="37.74462296695484" lon="15.174751749664097"><ele>168.0</ele><time>2026-03-28T15:49:29.001Z</time></trkpt><trkpt lat="37.744378289881375" lon="15.17472244184052"><ele>169.0</ele><time>2026-03-28T15:49:30.001Z</time></trkpt><trkpt lat="37.74414577762334" lon="15.174694358648134"><ele>169.0</ele><time>2026-03-28T15:49:31.001Z</time></trkpt><trkpt lat="37.743922061401676" lon="15.174669763758617"><ele>169.0</ele><time>2026-03-28T15:49:32.001Z</time></trkpt><trkpt lat="37.74370096206823" lon="15.174645631230346"><ele>169.0</ele><time>2026-03-28T15:49:33.001Z</time></trkpt><trkpt lat="37.743476990797014" lon="15.17462158750292"><ele>167.0</ele><time>2026-03-28T15:49:34.001Z</time></trkpt><trkpt lat="37.74325334365623" lon="15.17459635382463"><ele>165.0</ele><time>2026-03-28T15:49:35.001Z</time></trkpt><trkpt lat="37.743032868690335" lon="15.174571012198237"><ele>163.0</ele><time>2026-03-28T15:49:36.001Z</time></trkpt><trkpt lat="37.7428102760227" lon="15.174545276771033"><ele>158.66666666666669</ele><time>2026-03-28T15:49:37.001Z</time></trkpt><trkpt lat="37.74259071441954" lon="15.174520397120354"><ele>154.33333333333334</ele><time>2026-03-28T15:49:38.001Z</time></trkpt><trkpt lat="37.742371308364476" lon="15.174496412487757"><ele>150.0</ele><time>2026-03-28T15:49:39.001Z</time></trkpt><trkpt lat="37.742147457976955" lon="15.174473311324597"><ele>150.0</ele><time>2026-03-28T15:49:39.999Z</time></trkpt><trkpt lat="37.74192087617597" lon="15.174448982274686"><ele>150.0</ele><time>2026-03-28T15:49:40.999Z</time></trkpt><trkpt lat="37.74169884046519" lon="15.17442492847218"><ele>153.33333333333334</ele><time>2026-03-28T15:49:41.999Z</time></trkpt><trkpt lat="37.74148201657484" lon="15.1743970089352"><ele>156.66666666666669</ele><time>2026-03-28T15:49:42.999Z</time></trkpt><trkpt lat="37.74126917986466" lon="15.174371204996215"><ele>160.0</ele><time>2026-03-28T15:49:43.999Z</time></trkpt><trkpt lat="37.741058492907385" lon="15.17434631126438"><ele>159.66666666666669</ele><time>2026-03-28T15:49:44.999Z</time></trkpt><trkpt lat="37.7408511826438" lon="15.174323162875236"><ele>159.33333333333334</ele><time>2026-03-28T15:49:45.999Z</time></trkpt><trkpt lat="37.74063448761887" lon="15.17430652715259"><ele>159.0</ele><time>2026-03-28T15:49:46.999Z</time></trkpt><trkpt lat="37.74040915230352" lon="15.174292521328242"><ele>152.0</ele><time>2026-03-28T15:49:47.999Z</time></trkpt><trkpt lat="37.740177785487035" lon="15.174273426975947"><ele>145.0</ele><time>2026-03-28T15:49:48.999Z</time></trkpt><trkpt lat="37.73994024891864" lon="15.174244024586054"><ele>145.0</ele><time>2026-03-28T15:49:49.999Z</time></trkpt><trkpt lat="37.73970017577169" lon="15.17421182799687"><ele>145.0</ele><time>2026-03-28T15:49:50.999Z</time></trkpt><trkpt lat="37.739458182486274" lon="15.174171488454444"><ele>150.0</ele><time>2026-03-28T15:49:51.999Z</time></trkpt><trkpt lat="37.739216518549355" lon="15.174131287533752"><ele>155.0</ele><time>2026-03-28T15:49:52.999Z</time></trkpt><trkpt lat="37.738978589605274" lon="15.174088108960614"><ele>155.0</ele><time>2026-03-28T15:49:53.999Z</time></trkpt><trkpt lat="37.73873483310827" lon="15.174056505379706"><ele>155.0</ele><time>2026-03-28T15:49:55Z</time></trkpt><trkpt lat="37.73848055714129" lon="15.174047790726787"><ele>158.0</ele><time>2026-03-28T15:49:56Z</time></trkpt><trkpt lat="37.738236489817965" lon="15.174025152677295"><ele>161.0</ele><time>2026-03-28T15:49:57Z</time></trkpt><trkpt lat="37.73800001391785" lon="15.173997237185597"><ele>165.5</ele><time>2026-03-28T15:49:58Z</time></trkpt><trkpt lat="37.73776261346815" lon="15.173968688743757"><ele>170.0</ele><time>2026-03-28T15:49:59Z</time></trkpt><trkpt lat="37.7375183238112" lon="15.173943839701309"><ele>172.0</ele><time>2026-03-28T15:50:00Z</time></trkpt><trkpt lat="37.737266351352126" lon="15.173920940662505"><ele>174.0</ele><time>2026-03-28T15:50:01Z</time></trkpt><trkpt lat="37.73700831653691" lon="15.173897030156095"><ele>170.5</ele><time>2026-03-28T15:50:02Z</time></trkpt><trkpt lat="37.73674520366748" lon="15.173869106719334"><ele>167.0</ele><time>2026-03-28T15:50:03Z</time></trkpt><trkpt lat="37.7364818164154" lon="15.173838354117665"><ele>167.0</ele><time>2026-03-28T15:50:04Z</time></trkpt><trkpt lat="37.73621219372878" lon="15.173806971801339"><ele>167.0</ele><time>2026-03-28T15:50:05Z</time></trkpt><trkpt lat="37.73593976880114" lon="15.173776617123583"><ele>166.5</ele><time>2026-03-28T15:50:06Z</time></trkpt><trkpt lat="37.73566712764301" lon="15.17374770044702"><ele>166.0</ele><time>2026-03-28T15:50:07Z</time></trkpt><trkpt lat="37.73539632986148" lon="15.17371760786093"><ele>167.0</ele><time>2026-03-28T15:50:08Z</time></trkpt><trkpt lat="37.7351235380217" lon="15.173684509912679"><ele>168.0</ele><time>2026-03-28T15:50:09Z</time></trkpt><trkpt lat="37.73485156311365" lon="15.17364594537862"><ele>168.0</ele><time>2026-03-28T15:50:10Z</time></trkpt><trkpt lat="37.734578758637056" lon="15.173601733762556"><ele>168.0</ele><time>2026-03-28T15:50:11Z</time></trkpt><trkpt lat="37.73430550484082" lon="15.173552252337247"><ele>167.5</ele><time>2026-03-28T15:50:12Z</time></trkpt><trkpt lat="37.734030421430816" lon="15.173495757706736"><ele>167.0</ele><time>2026-03-28T15:50:13Z</time></trkpt><trkpt lat="37.73375821064564" lon="15.173432152760943"><ele>159.5</ele><time>2026-03-28T15:50:14Z</time></trkpt><trkpt lat="37.73348212482136" lon="15.17336586636498"><ele>152.0</ele><time>2026-03-28T15:50:15Z</time></trkpt><trkpt lat="37.73320577446628" lon="15.173293881881639"><ele>152.0</ele><time>2026-03-28T15:50:16Z</time></trkpt><trkpt lat="37.732935031621764" lon="15.173216200832826"><ele>152.0</ele><time>2026-03-28T15:50:17Z</time></trkpt><trkpt lat="37.73266475112957" lon="15.173127267970118"><ele>160.0</ele><time>2026-03-28T15:50:18Z</time></trkpt><trkpt lat="37.73239790078025" lon="15.173029083695575"><ele>168.0</ele><time>2026-03-28T15:50:19Z</time></trkpt><trkpt lat="37.73213439783498" lon="15.172926181602227"><ele>168.5</ele><time>2026-03-28T15:50:20Z</time></trkpt><trkpt lat="37.731869488473805" lon="15.172822993241763"><ele>169.0</ele><time>2026-03-28T15:50:21Z</time></trkpt><trkpt lat="37.73160388291576" lon="15.172720840654211"><ele>169.0</ele><time>2026-03-28T15:50:22Z</time></trkpt><trkpt lat="37.7313360051271" lon="15.172619195537935"><ele>169.0</ele><time>2026-03-28T15:50:23Z</time></trkpt><trkpt lat="37.73106896169087" lon="15.172519889446855"><ele>168.5</ele><time>2026-03-28T15:50:24Z</time></trkpt><trkpt lat="37.730801224203624" lon="15.172421618904734"><ele>168.0</ele><time>2026-03-28T15:50:25Z</time></trkpt><trkpt lat="37.730532126332605" lon="15.172324825602457"><ele>168.0</ele><time>2026-03-28T15:50:26Z</time></trkpt><trkpt lat="37.73026463554586" lon="15.172228845766378"><ele>168.0</ele><time>2026-03-28T15:50:27Z</time></trkpt><trkpt lat="37.72999583393438" lon="15.172133509246052"><ele>163.5</ele><time>2026-03-28T15:50:28Z</time></trkpt><trkpt lat="37.72972538604908" lon="15.172043082042691"><ele>159.0</ele><time>2026-03-28T15:50:29Z</time></trkpt><trkpt lat="37.729453595016736" lon="15.171960392128106"><ele>159.5</ele><time>2026-03-28T15:50:30Z</time></trkpt><trkpt lat="37.72918253883108" lon="15.171886569422655"><ele>160.0</ele><time>2026-03-28T15:50:31Z</time></trkpt><trkpt lat="37.72890801968342" lon="15.171821317120331"><ele>160.0</ele><time>2026-03-28T15:50:32Z</time></trkpt><trkpt lat="37.72863050862829" lon="15.171763951267717"><ele>160.0</ele><time>2026-03-28T15:50:33Z</time></trkpt><trkpt lat="37.72834747590621" lon="15.171715476741419"><ele>161.5</ele><time>2026-03-28T15:50:34Z</time></trkpt><trkpt lat="37.72806366384037" lon="15.171676937206062"><ele>163.0</ele><time>2026-03-28T15:50:35Z</time></trkpt><trkpt lat="37.727780545002936" lon="15.17164559638962"><ele>164.0</ele><time>2026-03-28T15:50:36Z</time></trkpt><trkpt lat="37.72749373740576" lon="15.171623300061142"><ele>165.0</ele><time>2026-03-28T15:50:37Z</time></trkpt><trkpt lat="37.72720718482896" lon="15.171610183980992"><ele>165.0</ele><time>2026-03-28T15:50:38Z</time></trkpt><trkpt lat="37.726919412389414" lon="15.171609243729653"><ele>165.0</ele><time>2026-03-28T15:50:39Z</time></trkpt><trkpt lat="37.72663040077639" lon="15.171613853330301"><ele>164.0</ele><time>2026-03-28T15:50:40Z</time></trkpt><trkpt lat="37.72634466129392" lon="15.171623809584995"><ele>163.0</ele><time>2026-03-28T15:50:41Z</time></trkpt><trkpt lat="37.726056161527886" lon="15.171645961049256"><ele>161.5</ele><time>2026-03-28T15:50:42Z</time></trkpt><trkpt lat="37.725767285845016" lon="15.17167648700751"><ele>160.0</ele><time>2026-03-28T15:50:43Z</time></trkpt><trkpt lat="37.725478524902144" lon="15.171716622352378"><ele>162.0</ele><time>2026-03-28T15:50:44Z</time></trkpt><trkpt lat="37.725189103372635" lon="15.17176731202921"><ele>164.0</ele><time>2026-03-28T15:50:45Z</time></trkpt><trkpt lat="37.72490256924069" lon="15.17182691372225"><ele>164.0</ele><time>2026-03-28T15:50:46Z</time></trkpt><trkpt lat="37.72461892903327" lon="15.171895050062494"><ele>164.0</ele><time>2026-03-28T15:50:47Z</time></trkpt><trkpt lat="37.724337799848136" lon="15.171973669522956"><ele>164.5</ele><time>2026-03-28T15:50:48Z</time></trkpt><trkpt lat="37.72405981303654" lon="15.172060093752076"><ele>165.0</ele><time>2026-03-28T15:50:49Z</time></trkpt><trkpt lat="37.72378147576439" lon="15.172150169972948"><ele>160.5</ele><time>2026-03-28T15:50:50Z</time></trkpt><trkpt lat="37.723504007944484" lon="15.172239653315524"><ele>156.0</ele><time>2026-03-28T15:50:51Z</time></trkpt><trkpt lat="37.72322593220206" lon="15.17232516804534"><ele>153.0</ele><time>2026-03-28T15:50:52Z</time></trkpt><trkpt lat="37.72294757080773" lon="15.17241025910983"><ele>150.0</ele><time>2026-03-28T15:50:53Z</time></trkpt><trkpt lat="37.7226673700978" lon="15.17249511315795"><ele>148.5</ele><time>2026-03-28T15:50:54Z</time></trkpt><trkpt lat="37.72239349061983" lon="15.172573851067945"><ele>147.0</ele><time>2026-03-28T15:50:55Z</time></trkpt><trkpt lat="37.72211910306284" lon="15.172648650761754"><ele>143.0</ele><time>2026-03-28T15:50:56Z</time></trkpt><trkpt lat="37.721841619517825" lon="15.172712822362978"><ele>139.0</ele><time>2026-03-28T15:50:57Z</time></trkpt><trkpt lat="37.721566258614885" lon="15.1727614863442"><ele>139.0</ele><time>2026-03-28T15:50:58Z</time></trkpt><trkpt lat="37.72129151085188" lon="15.172798695179415"><ele>139.0</ele><time>2026-03-28T15:50:59Z</time></trkpt><trkpt lat="37.721016516752165" lon="15.1728295060869"><ele>137.5</ele><time>2026-03-28T15:51:00.001Z</time></trkpt><trkpt lat="37.72074339477347" lon="15.172846886588495"><ele>136.0</ele><time>2026-03-28T15:51:01.001Z</time></trkpt><trkpt lat="37.72047193618976" lon="15.172853585097714"><ele>141.0</ele><time>2026-03-28T15:51:02.001Z</time></trkpt><trkpt lat="37.720198224537334" lon="15.172850418471986"><ele>146.0</ele><time>2026-03-28T15:51:03.001Z</time></trkpt><trkpt lat="37.71992534234544" lon="15.172836835195158"><ele>146.0</ele><time>2026-03-28T15:51:04.001Z</time></trkpt><trkpt lat="37.71964881208386" lon="15.172813292360884"><ele>146.0</ele><time>2026-03-28T15:51:05.001Z</time></trkpt><trkpt lat="37.71937394840838" lon="15.172777665572099"><ele>146.5</ele><time>2026-03-28T15:51:06.001Z</time></trkpt><trkpt lat="37.71909805700996" lon="15.172730093115348"><ele>147.0</ele><time>2026-03-28T15:51:07.001Z</time></trkpt><trkpt lat="37.71882393643617" lon="15.172671662226168"><ele>147.5</ele><time>2026-03-28T15:51:08.001Z</time></trkpt><trkpt lat="37.71855360824076" lon="15.172604263050976"><ele>148.0</ele><time>2026-03-28T15:51:09.001Z</time></trkpt><trkpt lat="37.71828794687245" lon="15.172527242111443"><ele>148.0</ele><time>2026-03-28T15:51:10.001Z</time></trkpt><trkpt lat="37.718021124561446" lon="15.172439822979959"><ele>148.0</ele><time>2026-03-28T15:51:11.001Z</time></trkpt><trkpt lat="37.7177561543941" lon="15.172340523323125"><ele>150.0</ele><time>2026-03-28T15:51:12.001Z</time></trkpt><trkpt lat="37.71749751762302" lon="15.172231197336993"><ele>152.0</ele><time>2026-03-28T15:51:13.001Z</time></trkpt><trkpt lat="37.71724017740086" lon="15.17211232519604"><ele>152.0</ele><time>2026-03-28T15:51:14.001Z</time></trkpt><trkpt lat="37.71698391127364" lon="15.171985352493529"><ele>152.0</ele><time>2026-03-28T15:51:15.001Z</time></trkpt><trkpt lat="37.71672724793248" lon="15.171848143522382"><ele>153.5</ele><time>2026-03-28T15:51:16.001Z</time></trkpt><trkpt lat="37.71647334633361" lon="15.171699663657357"><ele>155.0</ele><time>2026-03-28T15:51:17.001Z</time></trkpt><trkpt lat="37.71621998919448" lon="15.171539116027997"><ele>156.5</ele><time>2026-03-28T15:51:18.001Z</time></trkpt><trkpt lat="37.715973853275884" lon="15.171369727805429"><ele>158.0</ele><time>2026-03-28T15:51:19.001Z</time></trkpt><trkpt lat="37.71572893653591" lon="15.171191767486219"><ele>158.0</ele><time>2026-03-28T15:51:20.001Z</time></trkpt><trkpt lat="37.715488217397755" lon="15.171007748223913"><ele>158.0</ele><time>2026-03-28T15:51:21.001Z</time></trkpt><trkpt lat="37.71524922310912" lon="15.170826957102522"><ele>162.0</ele><time>2026-03-28T15:51:22.001Z</time></trkpt><trkpt lat="37.715009265307486" lon="15.170650701973221"><ele>166.0</ele><time>2026-03-28T15:51:23.001Z</time></trkpt><trkpt lat="37.714770265000205" lon="15.170477707490049"><ele>166.0</ele><time>2026-03-28T15:51:24.001Z</time></trkpt><trkpt lat="37.71453253805334" lon="15.170305134527668"><ele>166.0</ele><time>2026-03-28T15:51:25.001Z</time></trkpt><trkpt lat="37.71429352852287" lon="15.170131055415228"><ele>166.5</ele><time>2026-03-28T15:51:26.001Z</time></trkpt><trkpt lat="37.7140531813319" lon="15.169956732083973"><ele>167.0</ele><time>2026-03-28T15:51:27.001Z</time></trkpt><trkpt lat="37.71381346588179" lon="15.16978412130314"><ele>169.0</ele><time>2026-03-28T15:51:28.001Z</time></trkpt><trkpt lat="37.713577418273246" lon="15.169612893165917"><ele>171.0</ele><time>2026-03-28T15:51:29.001Z</time></trkpt><trkpt lat="37.71334330577625" lon="15.169441226227732"><ele>172.0</ele><time>2026-03-28T15:51:30.001Z</time></trkpt><trkpt lat="37.71310926238654" lon="15.169272486238945"><ele>173.0</ele><time>2026-03-28T15:51:31.001Z</time></trkpt><trkpt lat="37.712869526983916" lon="15.169110869107287"><ele>175.5</ele><time>2026-03-28T15:51:32.001Z</time></trkpt><trkpt lat="37.71262727849694" lon="15.168961117016448"><ele>178.0</ele><time>2026-03-28T15:51:33.001Z</time></trkpt><trkpt lat="37.71237783212322" lon="15.168823694081583"><ele>178.0</ele><time>2026-03-28T15:51:34.001Z</time></trkpt><trkpt lat="37.71212584176402" lon="15.168697043238847"><ele>178.0</ele><time>2026-03-28T15:51:35.001Z</time></trkpt><trkpt lat="37.71187635339639" lon="15.1685801229495"><ele>180.0</ele><time>2026-03-28T15:51:36.001Z</time></trkpt><trkpt lat="37.711627362013985" lon="15.168474405183797"><ele>182.0</ele><time>2026-03-28T15:51:37.001Z</time></trkpt><trkpt lat="37.71138160747354" lon="15.168380755733978"><ele>182.0</ele><time>2026-03-28T15:51:38.001Z</time></trkpt><trkpt lat="37.71113426616487" lon="15.168298361825551"><ele>182.0</ele><time>2026-03-28T15:51:39.001Z</time></trkpt><trkpt lat="37.71087864746825" lon="15.168223736214115"><ele>183.0</ele><time>2026-03-28T15:51:40.001Z</time></trkpt><trkpt lat="37.71061474352953" lon="15.168151452448164"><ele>184.0</ele><time>2026-03-28T15:51:41.001Z</time></trkpt><trkpt lat="37.7103441634662" lon="15.16807776776177"><ele>185.0</ele><time>2026-03-28T15:51:42.001Z</time></trkpt><trkpt lat="37.71007113153811" lon="15.168000465007212"><ele>186.0</ele><time>2026-03-28T15:51:43.001Z</time></trkpt><trkpt lat="37.70980292117807" lon="15.167920783254186"><ele>186.0</ele><time>2026-03-28T15:51:44.001Z</time></trkpt><trkpt lat="37.70952988871713" lon="15.167833460020129"><ele>186.0</ele><time>2026-03-28T15:51:45.001Z</time></trkpt><trkpt lat="37.70925688334572" lon="15.167744147815794"><ele>187.0</ele><time>2026-03-28T15:51:46Z</time></trkpt><trkpt lat="37.70898324016767" lon="15.167652132571623"><ele>188.0</ele><time>2026-03-28T15:51:47Z</time></trkpt><trkpt lat="37.70871205405528" lon="15.16756103537885"><ele>189.0</ele><time>2026-03-28T15:51:48Z</time></trkpt><trkpt lat="37.70844317188638" lon="15.167471918404749"><ele>190.0</ele><time>2026-03-28T15:51:49Z</time></trkpt><trkpt lat="37.708173329190146" lon="15.167383791681548"><ele>190.0</ele><time>2026-03-28T15:51:50Z</time></trkpt><trkpt lat="37.70790518977116" lon="15.16729974009988"><ele>190.0</ele><time>2026-03-28T15:51:51Z</time></trkpt><trkpt lat="37.70763883999854" lon="15.167216296835235"><ele>190.0</ele><time>2026-03-28T15:51:52Z</time></trkpt><trkpt lat="37.70737055771318" lon="15.167135822410179"><ele>190.0</ele><time>2026-03-28T15:51:53Z</time></trkpt><trkpt lat="37.707103455276226" lon="15.167058450394684"><ele>191.5</ele><time>2026-03-28T15:51:54Z</time></trkpt><trkpt lat="37.70683691651343" lon="15.166979801065684"><ele>193.0</ele><time>2026-03-28T15:51:55Z</time></trkpt><trkpt lat="37.70656786607862" lon="15.16690030011293"><ele>193.0</ele><time>2026-03-28T15:51:56Z</time></trkpt><trkpt lat="37.70629965451484" lon="15.166819846621191"><ele>193.0</ele><time>2026-03-28T15:51:57Z</time></trkpt><trkpt lat="37.70603042812485" lon="15.166737853665179"><ele>192.0</ele><time>2026-03-28T15:51:58Z</time></trkpt><trkpt lat="37.7057637926042" lon="15.166656404853528"><ele>191.0</ele><time>2026-03-28T15:51:59Z</time></trkpt><trkpt lat="37.70549787836868" lon="15.166573943647315"><ele>191.0</ele><time>2026-03-28T15:52:00Z</time></trkpt><trkpt lat="37.705233451982984" lon="15.166494597312717"><ele>191.0</ele><time>2026-03-28T15:52:01Z</time></trkpt><trkpt lat="37.704970145961056" lon="15.16641542036491"><ele>191.0</ele><time>2026-03-28T15:52:02Z</time></trkpt><trkpt lat="37.70470570563958" lon="15.166341427532341"><ele>191.0</ele><time>2026-03-28T15:52:03Z</time></trkpt><trkpt lat="37.704439283431874" lon="15.166268339062576"><ele>195.5</ele><time>2026-03-28T15:52:04Z</time></trkpt><trkpt lat="37.704166447004674" lon="15.16620633751157"><ele>200.0</ele><time>2026-03-28T15:52:05Z</time></trkpt><trkpt lat="37.70389252082547" lon="15.16616364152301"><ele>200.0</ele><time>2026-03-28T15:52:06Z</time></trkpt><trkpt lat="37.70361659405325" lon="15.166129655685053"><ele>200.0</ele><time>2026-03-28T15:52:07Z</time></trkpt><trkpt lat="37.703340340776826" lon="15.166104180094866"><ele>199.5</ele><time>2026-03-28T15:52:08Z</time></trkpt><trkpt lat="37.70306592491708" lon="15.166089772573125"><ele>199.0</ele><time>2026-03-28T15:52:09Z</time></trkpt><trkpt lat="37.70278966204909" lon="15.166089834875732"><ele>194.0</ele><time>2026-03-28T15:52:10Z</time></trkpt><trkpt lat="37.70251009160044" lon="15.166103861887047"><ele>189.0</ele><time>2026-03-28T15:52:11Z</time></trkpt><trkpt lat="37.70223479497643" lon="15.166120330513031"><ele>189.0</ele><time>2026-03-28T15:52:12Z</time></trkpt><trkpt lat="37.701957843395505" lon="15.16614561696968"><ele>189.0</ele><time>2026-03-28T15:52:13Z</time></trkpt><trkpt lat="37.70167525695676" lon="15.16618750638568"><ele>193.0</ele><time>2026-03-28T15:52:14Z</time></trkpt><trkpt lat="37.70139337080267" lon="15.166240304004363"><ele>197.0</ele><time>2026-03-28T15:52:15Z</time></trkpt><trkpt lat="37.70113338746908" lon="15.166297759669632"><ele>201.5</ele><time>2026-03-28T15:52:16Z</time></trkpt><trkpt lat="37.70088084363897" lon="15.166354347036112"><ele>206.0</ele><time>2026-03-28T15:52:17Z</time></trkpt><trkpt lat="37.700633989416865" lon="15.166417849444944"><ele>206.0</ele><time>2026-03-28T15:52:18Z</time></trkpt><trkpt lat="37.70038663428998" lon="15.166483883638262"><ele>206.0</ele><time>2026-03-28T15:52:19Z</time></trkpt><trkpt lat="37.70014310441054" lon="15.166543780290034"><ele>200.0</ele><time>2026-03-28T15:52:20Z</time></trkpt><trkpt lat="37.69990130291511" lon="15.166601426754463"><ele>194.0</ele><time>2026-03-28T15:52:21Z</time></trkpt><trkpt lat="37.69966901405884" lon="15.166655276650696"><ele>194.0</ele><time>2026-03-28T15:52:22Z</time></trkpt><trkpt lat="37.6994357986351" lon="15.166711873199146"><ele>194.0</ele><time>2026-03-28T15:52:23Z</time></trkpt><trkpt lat="37.69920139776216" lon="15.166768766292657"><ele>195.5</ele><time>2026-03-28T15:52:24Z</time></trkpt><trkpt lat="37.69896839492765" lon="15.166822834359724"><ele>197.0</ele><time>2026-03-28T15:52:25Z</time></trkpt><trkpt lat="37.698733548982375" lon="15.166871536137252"><ele>200.0</ele><time>2026-03-28T15:52:26Z</time></trkpt><trkpt lat="37.698496209295605" lon="15.166909673632714"><ele>203.0</ele><time>2026-03-28T15:52:27Z</time></trkpt><trkpt lat="37.698254226045485" lon="15.166935271241586"><ele>203.0</ele><time>2026-03-28T15:52:28Z</time></trkpt><trkpt lat="37.69800792061198" lon="15.166954912152802"><ele>203.0</ele><time>2026-03-28T15:52:29Z</time></trkpt><trkpt lat="37.69775936204714" lon="15.166969526987009"><ele>206.0</ele><time>2026-03-28T15:52:30Z</time></trkpt><trkpt lat="37.69751192343222" lon="15.166975795879315"><ele>209.0</ele><time>2026-03-28T15:52:31Z</time></trkpt><trkpt lat="37.69726687127106" lon="15.16697290807752"><ele>209.0</ele><time>2026-03-28T15:52:32Z</time></trkpt><trkpt lat="37.69702509597203" lon="15.166960647819192"><ele>209.0</ele><time>2026-03-28T15:52:33Z</time></trkpt><trkpt lat="37.69679043104587" lon="15.166936128787336"><ele>210.0</ele><time>2026-03-28T15:52:34Z</time></trkpt><trkpt lat="37.696558870818485" lon="15.166902102887624"><ele>211.0</ele><time>2026-03-28T15:52:35Z</time></trkpt><trkpt lat="37.69632286751395" lon="15.166864062229562"><ele>208.0</ele><time>2026-03-28T15:52:36Z</time></trkpt><trkpt lat="37.69608064966" lon="15.166821209834042"><ele>205.0</ele><time>2026-03-28T15:52:37Z</time></trkpt><trkpt lat="37.695835594006304" lon="15.166769794601626"><ele>205.0</ele><time>2026-03-28T15:52:38Z</time></trkpt><trkpt lat="37.695583273822436" lon="15.166706132610472"><ele>205.0</ele><time>2026-03-28T15:52:39Z</time></trkpt><trkpt lat="37.69532606141335" lon="15.166631829458135"><ele>205.5</ele><time>2026-03-28T15:52:40Z</time></trkpt><trkpt lat="37.69506245881901" lon="15.166543755328442"><ele>206.0</ele><time>2026-03-28T15:52:41Z</time></trkpt><trkpt lat="37.69479470566932" lon="15.166442369905772"><ele>206.0</ele><time>2026-03-28T15:52:42Z</time></trkpt><trkpt lat="37.69452351351871" lon="15.166334808342478"><ele>206.0</ele><time>2026-03-28T15:52:43Z</time></trkpt><trkpt lat="37.694255794769894" lon="15.166219318916866"><ele>205.0</ele><time>2026-03-28T15:52:44Z</time></trkpt><trkpt lat="37.69397885102287" lon="15.166097193728417"><ele>204.0</ele><time>2026-03-28T15:52:45Z</time></trkpt><trkpt lat="37.69370262738125" lon="15.165976882268792"><ele>204.0</ele><time>2026-03-28T15:52:46Z</time></trkpt><trkpt lat="37.6934284537191" lon="15.16585622641284"><ele>204.0</ele><time>2026-03-28T15:52:47Z</time></trkpt><trkpt lat="37.69317030783599" lon="15.165740133051496"><ele>206.0</ele><time>2026-03-28T15:52:48Z</time></trkpt><trkpt lat="37.69291889861951" lon="15.165631535562724"><ele>208.0</ele><time>2026-03-28T15:52:49Z</time></trkpt><trkpt lat="37.692662847559184" lon="15.1655247141749"><ele>208.0</ele><time>2026-03-28T15:52:50Z</time></trkpt><trkpt lat="37.69241135205599" lon="15.165419282636643"><ele>208.0</ele><time>2026-03-28T15:52:51Z</time></trkpt><trkpt lat="37.692159163373894" lon="15.165311953018842"><ele>209.5</ele><time>2026-03-28T15:52:52Z</time></trkpt><trkpt lat="37.691908404744" lon="15.165203574856852"><ele>211.0</ele><time>2026-03-28T15:52:53Z</time></trkpt><trkpt lat="37.69165572900291" lon="15.165093710412014"><ele>211.0</ele><time>2026-03-28T15:52:54Z</time></trkpt><trkpt lat="37.69140294426379" lon="15.164984890088991"><ele>211.0</ele><time>2026-03-28T15:52:55.001Z</time></trkpt><trkpt lat="37.691143673604415" lon="15.164875415604712"><ele>210.0</ele><time>2026-03-28T15:52:56.001Z</time></trkpt><trkpt lat="37.690881269721295" lon="15.16476324132949"><ele>209.0</ele><time>2026-03-28T15:52:57.001Z</time></trkpt><trkpt lat="37.69061642053787" lon="15.16464918454783"><ele>209.0</ele><time>2026-03-28T15:52:58.001Z</time></trkpt><trkpt lat="37.6903463539903" lon="15.16453543335076"><ele>209.0</ele><time>2026-03-28T15:52:59.001Z</time></trkpt><trkpt lat="37.69007565613904" lon="15.16441971154864"><ele>208.0</ele><time>2026-03-28T15:53:00.001Z</time></trkpt><trkpt lat="37.6898035984294" lon="15.164303349265822"><ele>207.0</ele><time>2026-03-28T15:53:01.001Z</time></trkpt><trkpt lat="37.68953413376867" lon="15.164185772756577"><ele>209.0</ele><time>2026-03-28T15:53:02.001Z</time></trkpt><trkpt lat="37.689262753588984" lon="15.164067126238189"><ele>211.0</ele><time>2026-03-28T15:53:03.001Z</time></trkpt><trkpt lat="37.68899150403222" lon="15.16394615631362"><ele>212.0</ele><time>2026-03-28T15:53:04.001Z</time></trkpt><trkpt lat="37.688721767073076" lon="15.163824455904551"><ele>213.0</ele><time>2026-03-28T15:53:05.001Z</time></trkpt><trkpt lat="37.68845395482729" lon="15.163698418655413"><ele>215.5</ele><time>2026-03-28T15:53:06.001Z</time></trkpt><trkpt lat="37.68818670243454" lon="15.163564649937458"><ele>218.0</ele><time>2026-03-28T15:53:07.001Z</time></trkpt><trkpt lat="37.6879211326249" lon="15.163423372475389"><ele>218.0</ele><time>2026-03-28T15:53:08.001Z</time></trkpt><trkpt lat="37.687655958471446" lon="15.16327098554827"><ele>218.0</ele><time>2026-03-28T15:53:09.001Z</time></trkpt><trkpt lat="37.68739202814414" lon="15.163109072022342"><ele>217.5</ele><time>2026-03-28T15:53:10.001Z</time></trkpt><trkpt lat="37.687133700271495" lon="15.162940683108031"><ele>217.0</ele><time>2026-03-28T15:53:11.001Z</time></trkpt><trkpt lat="37.68687887356603" lon="15.1627693660616"><ele>217.0</ele><time>2026-03-28T15:53:12.001Z</time></trkpt><trkpt lat="37.686627523390875" lon="15.162597703665702"><ele>217.0</ele><time>2026-03-28T15:53:13.001Z</time></trkpt><trkpt lat="37.686379030376166" lon="15.162426889456366"><ele>216.0</ele><time>2026-03-28T15:53:14.001Z</time></trkpt><trkpt lat="37.68614244204872" lon="15.162262926989229"><ele>215.0</ele><time>2026-03-28T15:53:15.001Z</time></trkpt><trkpt lat="37.68590875437135" lon="15.162102890837053"><ele>215.0</ele><time>2026-03-28T15:53:16.001Z</time></trkpt><trkpt lat="37.68567535587826" lon="15.161940392791621"><ele>215.0</ele><time>2026-03-28T15:53:17.001Z</time></trkpt><trkpt lat="37.68543947899263" lon="15.161777231891474"><ele>216.5</ele><time>2026-03-28T15:53:18.001Z</time></trkpt><trkpt lat="37.68519999320626" lon="15.161614146147814"><ele>218.0</ele><time>2026-03-28T15:53:19.001Z</time></trkpt><trkpt lat="37.68495324468822" lon="15.161448429440407"><ele>218.0</ele><time>2026-03-28T15:53:20.001Z</time></trkpt><trkpt lat="37.68470598696051" lon="15.161280680043824"><ele>218.0</ele><time>2026-03-28T15:53:21.001Z</time></trkpt><trkpt lat="37.68445663509141" lon="15.16111218761745"><ele>222.0</ele><time>2026-03-28T15:53:22.001Z</time></trkpt><trkpt lat="37.68420753065812" lon="15.160940939133297"><ele>226.0</ele><time>2026-03-28T15:53:23.001Z</time></trkpt><trkpt lat="37.68395702874973" lon="15.16076772099503"><ele>225.5</ele><time>2026-03-28T15:53:24.001Z</time></trkpt><trkpt lat="37.68370446486462" lon="15.160590840018012"><ele>225.0</ele><time>2026-03-28T15:53:25.001Z</time></trkpt><trkpt lat="37.68345148585916" lon="15.16041500762236"><ele>224.5</ele><time>2026-03-28T15:53:26.001Z</time></trkpt><trkpt lat="37.683199982489946" lon="15.1602393272249"><ele>224.0</ele><time>2026-03-28T15:53:27.001Z</time></trkpt><trkpt lat="37.682948389365144" lon="15.160065866837918"><ele>225.5</ele><time>2026-03-28T15:53:28.001Z</time></trkpt><trkpt lat="37.68269793005978" lon="15.159893816228157"><ele>227.0</ele><time>2026-03-28T15:53:29.001Z</time></trkpt><trkpt lat="37.682446279783996" lon="15.159723666544702"><ele>227.0</ele><time>2026-03-28T15:53:30.001Z</time></trkpt><trkpt lat="37.68219250261048" lon="15.159554007887156"><ele>227.0</ele><time>2026-03-28T15:53:31.001Z</time></trkpt><trkpt lat="37.68193773332217" lon="15.159384741061512"><ele>226.5</ele><time>2026-03-28T15:53:32.001Z</time></trkpt><trkpt lat="37.6816809566818" lon="15.1592141662592"><ele>226.0</ele><time>2026-03-28T15:53:33.001Z</time></trkpt><trkpt lat="37.681423490717805" lon="15.159045061641304"><ele>227.5</ele><time>2026-03-28T15:53:34.001Z</time></trkpt><trkpt lat="37.68116462780697" lon="15.158878185801203"><ele>229.0</ele><time>2026-03-28T15:53:35.001Z</time></trkpt><trkpt lat="37.68089984264684" lon="15.158713612314296"><ele>229.0</ele><time>2026-03-28T15:53:36.001Z</time></trkpt><trkpt lat="37.68063070211024" lon="15.158555959210618"><ele>229.0</ele><time>2026-03-28T15:53:37.001Z</time></trkpt><trkpt lat="37.68035675861136" lon="15.158407891636948"><ele>226.0</ele><time>2026-03-28T15:53:38.001Z</time></trkpt><trkpt lat="37.6800810490819" lon="15.158274459597584"><ele>223.0</ele><time>2026-03-28T15:53:39.001Z</time></trkpt><trkpt lat="37.67980295080038" lon="15.158148269443931"><ele>222.5</ele><time>2026-03-28T15:53:40.001Z</time></trkpt><trkpt lat="37.67952040594658" lon="15.158029517870315"><ele>222.0</ele><time>2026-03-28T15:53:41.001Z</time></trkpt><trkpt lat="37.67923313764719" lon="15.157919977508296"><ele>219.5</ele><time>2026-03-28T15:53:42.001Z</time></trkpt><trkpt lat="37.67894520748413" lon="15.157821365558638"><ele>217.0</ele><time>2026-03-28T15:53:43.001Z</time></trkpt><trkpt lat="37.67865438182834" lon="15.157729923676106"><ele>217.0</ele><time>2026-03-28T15:53:44.001Z</time></trkpt><trkpt lat="37.67836125000574" lon="15.157640250182423"><ele>217.0</ele><time>2026-03-28T15:53:45.001Z</time></trkpt><trkpt lat="37.67806760450571" lon="15.157551247387106"><ele>217.0</ele><time>2026-03-28T15:53:46.001Z</time></trkpt><trkpt lat="37.67777439028547" lon="15.157462697948446"><ele>217.0</ele><time>2026-03-28T15:53:47.001Z</time></trkpt><trkpt lat="37.677478565280815" lon="15.157372730272773"><ele>219.5</ele><time>2026-03-28T15:53:48.001Z</time></trkpt><trkpt lat="37.67718459015323" lon="15.157278998643331"><ele>222.0</ele><time>2026-03-28T15:53:49.001Z</time></trkpt><trkpt lat="37.6768947380061" lon="15.157178709716412"><ele>222.0</ele><time>2026-03-28T15:53:50.001Z</time></trkpt><trkpt lat="37.67660502492146" lon="15.157067852386495"><ele>222.0</ele><time>2026-03-28T15:53:51.001Z</time></trkpt><trkpt lat="37.676321408638216" lon="15.156941598313548"><ele>219.0</ele><time>2026-03-28T15:53:52Z</time></trkpt><trkpt lat="37.676039531124566" lon="15.156802643893343"><ele>216.0</ele><time>2026-03-28T15:53:53Z</time></trkpt><trkpt lat="37.67576090474885" lon="15.156651275907613"><ele>216.0</ele><time>2026-03-28T15:53:54Z</time></trkpt><trkpt lat="37.67548584091464" lon="15.156487757855684"><ele>216.0</ele><time>2026-03-28T15:53:55Z</time></trkpt><trkpt lat="37.675211350978145" lon="15.156311139824895"><ele>216.0</ele><time>2026-03-28T15:53:56Z</time></trkpt><trkpt lat="37.67494068680146" lon="15.156123757504314"><ele>216.0</ele><time>2026-03-28T15:53:57Z</time></trkpt><trkpt lat="37.6746746971332" lon="15.155926601196054"><ele>214.0</ele><time>2026-03-28T15:53:58Z</time></trkpt><trkpt lat="37.67441267116286" lon="15.155718997961129"><ele>212.0</ele><time>2026-03-28T15:53:59Z</time></trkpt><trkpt lat="37.67415340819088" lon="15.15550554219808"><ele>212.0</ele><time>2026-03-28T15:54:00Z</time></trkpt><trkpt lat="37.6738940360116" lon="15.155291270796047"><ele>212.0</ele><time>2026-03-28T15:54:01Z</time></trkpt><trkpt lat="37.67363581183423" lon="15.155080370818357"><ele>212.0</ele><time>2026-03-28T15:54:02Z</time></trkpt><trkpt lat="37.67337332495401" lon="15.154871188581545"><ele>212.0</ele><time>2026-03-28T15:54:03Z</time></trkpt><trkpt lat="37.673112014791286" lon="15.154664876063295"><ele>211.5</ele><time>2026-03-28T15:54:04Z</time></trkpt><trkpt lat="37.672851948096785" lon="15.154460135632904"><ele>211.0</ele><time>2026-03-28T15:54:05Z</time></trkpt><trkpt lat="37.672594606613295" lon="15.154254468325934"><ele>211.0</ele><time>2026-03-28T15:54:06Z</time></trkpt><trkpt lat="37.67234064980631" lon="15.154048506654352"><ele>211.0</ele><time>2026-03-28T15:54:07Z</time></trkpt><trkpt lat="37.67208901943945" lon="15.153843099245723"><ele>211.5</ele><time>2026-03-28T15:54:08Z</time></trkpt><trkpt lat="37.67183625756071" lon="15.153638785805274"><ele>212.0</ele><time>2026-03-28T15:54:09Z</time></trkpt><trkpt lat="37.671584090060705" lon="15.153434987598102"><ele>212.0</ele><time>2026-03-28T15:54:10Z</time></trkpt><trkpt lat="37.67133379286328" lon="15.153229835544641"><ele>212.0</ele><time>2026-03-28T15:54:11Z</time></trkpt><trkpt lat="37.671085757100634" lon="15.153025036504022"><ele>212.0</ele><time>2026-03-28T15:54:12Z</time></trkpt><trkpt lat="37.67083597045105" lon="15.152822737437916"><ele>212.0</ele><time>2026-03-28T15:54:13Z</time></trkpt><trkpt lat="37.67058777304937" lon="15.152622321984344"><ele>212.0</ele><time>2026-03-28T15:54:14Z</time></trkpt><trkpt lat="37.67033989947215" lon="15.152422732085725"><ele>212.0</ele><time>2026-03-28T15:54:15Z</time></trkpt><trkpt lat="37.670090417061864" lon="15.152228628295001"><ele>213.5</ele><time>2026-03-28T15:54:16Z</time></trkpt><trkpt lat="37.66983453457043" lon="15.152041509709708"><ele>215.0</ele><time>2026-03-28T15:54:17Z</time></trkpt><trkpt lat="37.669572254923246" lon="15.151862624651997"><ele>217.0</ele><time>2026-03-28T15:54:18Z</time></trkpt><trkpt lat="37.669304946046786" lon="15.15169016981738"><ele>219.0</ele><time>2026-03-28T15:54:19Z</time></trkpt><trkpt lat="37.669032049803214" lon="15.151524204732853"><ele>220.0</ele><time>2026-03-28T15:54:20Z</time></trkpt><trkpt lat="37.66875451842251" lon="15.15136305412433"><ele>221.0</ele><time>2026-03-28T15:54:21Z</time></trkpt><trkpt lat="37.66847265840776" lon="15.15120896524443"><ele>222.5</ele><time>2026-03-28T15:54:22Z</time></trkpt><trkpt lat="37.668187607969415" lon="15.151064033160914"><ele>224.0</ele><time>2026-03-28T15:54:23Z</time></trkpt><trkpt lat="37.667897898254836" lon="15.150925707263486"><ele>223.0</ele><time>2026-03-28T15:54:24Z</time></trkpt><trkpt lat="37.667606282538536" lon="15.150793925518597"><ele>222.0</ele><time>2026-03-28T15:54:25Z</time></trkpt><trkpt lat="37.66731255779842" lon="15.150671431087522"><ele>224.5</ele><time>2026-03-28T15:54:26Z</time></trkpt><trkpt lat="37.66701620165824" lon="15.150557149913734"><ele>227.0</ele><time>2026-03-28T15:54:27Z</time></trkpt><trkpt lat="37.666717711418514" lon="15.150450245497836"><ele>228.0</ele><time>2026-03-28T15:54:28Z</time></trkpt><trkpt lat="37.66642075048392" lon="15.150348457981424"><ele>229.0</ele><time>2026-03-28T15:54:29Z</time></trkpt><trkpt lat="37.66612539707668" lon="15.150257545917572"><ele>229.5</ele><time>2026-03-28T15:54:30Z</time></trkpt><trkpt lat="37.66582688931486" lon="15.150174903799682"><ele>230.0</ele><time>2026-03-28T15:54:31Z</time></trkpt><trkpt lat="37.66553123213881" lon="15.15010126405425"><ele>228.5</ele><time>2026-03-28T15:54:32Z</time></trkpt><trkpt lat="37.66523292777581" lon="15.150038467630543"><ele>227.0</ele><time>2026-03-28T15:54:33Z</time></trkpt><trkpt lat="37.66493532910698" lon="15.149981034641593"><ele>227.0</ele><time>2026-03-28T15:54:34Z</time></trkpt><trkpt lat="37.664633879258844" lon="15.149932740190788"><ele>227.0</ele><time>2026-03-28T15:54:35Z</time></trkpt><trkpt lat="37.66433199032031" lon="15.149894448935388"><ele>231.5</ele><time>2026-03-28T15:54:36Z</time></trkpt><trkpt lat="37.664030489445686" lon="15.14986760092761"><ele>236.0</ele><time>2026-03-28T15:54:37Z</time></trkpt><trkpt lat="37.663730838734686" lon="15.149849389925022"><ele>237.5</ele><time>2026-03-28T15:54:38Z</time></trkpt><trkpt lat="37.663429251986166" lon="15.14983736275958"><ele>239.0</ele><time>2026-03-28T15:54:39Z</time></trkpt><trkpt lat="37.66313280425092" lon="15.14982908968109"><ele>239.0</ele><time>2026-03-28T15:54:40Z</time></trkpt><trkpt lat="37.66283445692172" lon="15.149824170869298"><ele>239.0</ele><time>2026-03-28T15:54:41Z</time></trkpt><trkpt lat="37.66253502490314" lon="15.149820535555019"><ele>242.5</ele><time>2026-03-28T15:54:42Z</time></trkpt><trkpt lat="37.662233074098026" lon="15.149816441439766"><ele>246.0</ele><time>2026-03-28T15:54:43Z</time></trkpt><trkpt lat="37.6619309788549" lon="15.149811215437456"><ele>247.5</ele><time>2026-03-28T15:54:44Z</time></trkpt><trkpt lat="37.66162555363816" lon="15.149804761023217"><ele>249.0</ele><time>2026-03-28T15:54:45Z</time></trkpt><trkpt lat="37.661319233914355" lon="15.1497980085465"><ele>250.0</ele><time>2026-03-28T15:54:46Z</time></trkpt><trkpt lat="37.66101242365574" lon="15.149792335774533"><ele>251.0</ele><time>2026-03-28T15:54:47Z</time></trkpt><trkpt lat="37.66070198095558" lon="15.149787379687647"><ele>251.0</ele><time>2026-03-28T15:54:48Z</time></trkpt><trkpt lat="37.660393410304444" lon="15.149784097788924"><ele>251.0</ele><time>2026-03-28T15:54:49Z</time></trkpt><trkpt lat="37.66008025715518" lon="15.149784181264929"><ele>251.5</ele><time>2026-03-28T15:54:50Z</time></trkpt><trkpt lat="37.659766784539556" lon="15.149785547287806"><ele>252.0</ele><time>2026-03-28T15:54:51Z</time></trkpt><trkpt lat="37.65945295636429" lon="15.14978557641303"><ele>251.0</ele><time>2026-03-28T15:54:52Z</time></trkpt><trkpt lat="37.65913720830899" lon="15.149785885992946"><ele>250.0</ele><time>2026-03-28T15:54:53.001Z</time></trkpt><trkpt lat="37.65882288444827" lon="15.149781805807516"><ele>250.0</ele><time>2026-03-28T15:54:54.001Z</time></trkpt><trkpt lat="37.65850619512409" lon="15.149779335017957"><ele>250.0</ele><time>2026-03-28T15:54:55.001Z</time></trkpt><trkpt lat="37.65819462696169" lon="15.149775780359946"><ele>250.0</ele><time>2026-03-28T15:54:56.001Z</time></trkpt><trkpt lat="37.65788074820952" lon="15.149772695374919"><ele>250.0</ele><time>2026-03-28T15:54:57.001Z</time></trkpt><trkpt lat="37.65756610177269" lon="15.149767468670914"><ele>249.5</ele><time>2026-03-28T15:54:58.001Z</time></trkpt><trkpt lat="37.65725401856567" lon="15.14976266021621"><ele>249.0</ele><time>2026-03-28T15:54:59.001Z</time></trkpt><trkpt lat="37.65694349837537" lon="15.149754475681833"><ele>248.5</ele><time>2026-03-28T15:55:00.001Z</time></trkpt><trkpt lat="37.65663165997451" lon="15.14974692628771"><ele>248.0</ele><time>2026-03-28T15:55:01.001Z</time></trkpt><trkpt lat="37.6563204142601" lon="15.149739665669857"><ele>251.0</ele><time>2026-03-28T15:55:02.001Z</time></trkpt><trkpt lat="37.656010686800954" lon="15.149732133340489"><ele>254.0</ele><time>2026-03-28T15:55:03.001Z</time></trkpt><trkpt lat="37.655701869568084" lon="15.149724821902188"><ele>254.0</ele><time>2026-03-28T15:55:04.001Z</time></trkpt><trkpt lat="37.655390387484566" lon="15.14971580142583"><ele>254.0</ele><time>2026-03-28T15:55:05.001Z</time></trkpt><trkpt lat="37.655079197075885" lon="15.14970120467618"><ele>254.0</ele><time>2026-03-28T15:55:06.001Z</time></trkpt><trkpt lat="37.65477035614015" lon="15.149678856194772"><ele>254.0</ele><time>2026-03-28T15:55:07.001Z</time></trkpt><trkpt lat="37.654462824320284" lon="15.149648781097504"><ele>257.0</ele><time>2026-03-28T15:55:08.001Z</time></trkpt><trkpt lat="37.65415504894631" lon="15.14961125505279"><ele>260.0</ele><time>2026-03-28T15:55:09.001Z</time></trkpt><trkpt lat="37.65384892870482" lon="15.149566299416112"><ele>259.5</ele><time>2026-03-28T15:55:10.001Z</time></trkpt><trkpt lat="37.65354119352313" lon="15.149517970534424"><ele>259.0</ele><time>2026-03-28T15:55:11.001Z</time></trkpt><trkpt lat="37.653235252083334" lon="15.149464060067963"><ele>259.0</ele><time>2026-03-28T15:55:12.001Z</time></trkpt><trkpt lat="37.652934522330845" lon="15.149402867531283"><ele>259.0</ele><time>2026-03-28T15:55:13.001Z</time></trkpt><trkpt lat="37.652635126311154" lon="15.149336045168784"><ele>257.5</ele><time>2026-03-28T15:55:14.001Z</time></trkpt><trkpt lat="37.652333474391" lon="15.149264905700713"><ele>256.0</ele><time>2026-03-28T15:55:15.001Z</time></trkpt><trkpt lat="37.652036553257545" lon="15.14918686693364"><ele>255.5</ele><time>2026-03-28T15:55:16.001Z</time></trkpt><trkpt lat="37.65174080491968" lon="15.149103324334986"><ele>255.0</ele><time>2026-03-28T15:55:17.001Z</time></trkpt><trkpt lat="37.65144538013894" lon="15.14901482723521"><ele>256.0</ele><time>2026-03-28T15:55:18.001Z</time></trkpt><trkpt lat="37.65115426321891" lon="15.148920103949395"><ele>257.0</ele><time>2026-03-28T15:55:19.001Z</time></trkpt><trkpt lat="37.65086045840561" lon="15.148824377041459"><ele>257.0</ele><time>2026-03-28T15:55:20.001Z</time></trkpt><trkpt lat="37.65056549143941" lon="15.148726660551828"><ele>257.0</ele><time>2026-03-28T15:55:21.001Z</time></trkpt><trkpt lat="37.65027003896005" lon="15.148630155666666"><ele>257.0</ele><time>2026-03-28T15:55:22.001Z</time></trkpt><trkpt lat="37.64997530094048" lon="15.148531831810653"><ele>257.0</ele><time>2026-03-28T15:55:23.001Z</time></trkpt><trkpt lat="37.64967925336774" lon="15.148434354584854"><ele>256.0</ele><time>2026-03-28T15:55:24.001Z</time></trkpt><trkpt lat="37.6493852421247" lon="15.148339122439934"><ele>255.0</ele><time>2026-03-28T15:55:25.001Z</time></trkpt><trkpt lat="37.64909066826532" lon="15.148244355260225"><ele>257.5</ele><time>2026-03-28T15:55:26.001Z</time></trkpt><trkpt lat="37.64880103285221" lon="15.148149751984777"><ele>260.0</ele><time>2026-03-28T15:55:27.001Z</time></trkpt><trkpt lat="37.64850935034256" lon="15.148056291416955"><ele>260.5</ele><time>2026-03-28T15:55:28.001Z</time></trkpt><trkpt lat="37.64821915334777" lon="15.147960984867716"><ele>261.0</ele><time>2026-03-28T15:55:29.001Z</time></trkpt><trkpt lat="37.647929685793535" lon="15.147865521680563"><ele>260.5</ele><time>2026-03-28T15:55:30.001Z</time></trkpt><trkpt lat="37.64764189275034" lon="15.147770432453797"><ele>260.0</ele><time>2026-03-28T15:55:31.001Z</time></trkpt><trkpt lat="37.64734977667006" lon="15.147679071516434"><ele>260.0</ele><time>2026-03-28T15:55:32.001Z</time></trkpt><trkpt lat="37.64706353903156" lon="15.14758537889882"><ele>260.0</ele><time>2026-03-28T15:55:33.001Z</time></trkpt><trkpt lat="37.6467748098425" lon="15.147490142004223"><ele>261.0</ele><time>2026-03-28T15:55:34.001Z</time></trkpt><trkpt lat="37.64648309863309" lon="15.147396930211665"><ele>262.0</ele><time>2026-03-28T15:55:35.001Z</time></trkpt><trkpt lat="37.646191615911576" lon="15.147301686420255"><ele>265.0</ele><time>2026-03-28T15:55:36.001Z</time></trkpt><trkpt lat="37.64589992025145" lon="15.147205911277053"><ele>268.0</ele><time>2026-03-28T15:55:37.001Z</time></trkpt><trkpt lat="37.6456095225941" lon="15.147109784988537"><ele>268.0</ele><time>2026-03-28T15:55:38.001Z</time></trkpt><trkpt lat="37.6453166312367" lon="15.147014973212054"><ele>268.0</ele><time>2026-03-28T15:55:39.001Z</time></trkpt><trkpt lat="37.64502359786247" lon="15.146920713082894"><ele>267.5</ele><time>2026-03-28T15:55:40.001Z</time></trkpt><trkpt lat="37.644730482304595" lon="15.146826311656532"><ele>267.0</ele><time>2026-03-28T15:55:41.001Z</time></trkpt><trkpt lat="37.644437447664075" lon="15.146732653174663"><ele>263.0</ele><time>2026-03-28T15:55:42.001Z</time></trkpt><trkpt lat="37.64413520744446" lon="15.146643051295857"><ele>259.0</ele><time>2026-03-28T15:55:43.001Z</time></trkpt><trkpt lat="37.6438470172683" lon="15.146547146813772"><ele>261.5</ele><time>2026-03-28T15:55:44.001Z</time></trkpt><trkpt lat="37.64355140068043" lon="15.146450255740639"><ele>264.0</ele><time>2026-03-28T15:55:45.001Z</time></trkpt><trkpt lat="37.643260248196306" lon="15.146357411608186"><ele>264.0</ele><time>2026-03-28T15:55:46.001Z</time></trkpt><trkpt lat="37.64296606998713" lon="15.146254534845838"><ele>264.0</ele><time>2026-03-28T15:55:47.001Z</time></trkpt><trkpt lat="37.64267250700193" lon="15.146163824777329"><ele>261.5</ele><time>2026-03-28T15:55:48.001Z</time></trkpt><trkpt lat="37.64237759279709" lon="15.146066916517617"><ele>259.0</ele><time>2026-03-28T15:55:49.001Z</time></trkpt><trkpt lat="37.64208271804104" lon="15.1459745547959"><ele>259.5</ele><time>2026-03-28T15:55:50.001Z</time></trkpt><trkpt lat="37.64179025142548" lon="15.145881662594388"><ele>260.0</ele><time>2026-03-28T15:55:51.001Z</time></trkpt><trkpt lat="37.64149750337168" lon="15.145784669692258"><ele>262.0</ele><time>2026-03-28T15:55:52.001Z</time></trkpt><trkpt lat="37.64120201197014" lon="15.14568897676195"><ele>264.0</ele><time>2026-03-28T15:55:53.001Z</time></trkpt><trkpt lat="37.64090545762609" lon="15.145590789791617"><ele>264.0</ele><time>2026-03-28T15:55:54.001Z</time></trkpt><trkpt lat="37.640613607426204" lon="15.145496647508512"><ele>264.0</ele><time>2026-03-28T15:55:55.001Z</time></trkpt><trkpt lat="37.64032579486772" lon="15.145399787421734"><ele>267.0</ele><time>2026-03-28T15:55:56.001Z</time></trkpt><trkpt lat="37.64003473013963" lon="15.145306767454423"><ele>270.0</ele><time>2026-03-28T15:55:57.001Z</time></trkpt><trkpt lat="37.639747129366135" lon="15.145215628144385"><ele>269.5</ele><time>2026-03-28T15:55:58Z</time></trkpt><trkpt lat="37.639454398399025" lon="15.145128591498421"><ele>269.0</ele><time>2026-03-28T15:55:59Z</time></trkpt><trkpt lat="37.63916278639685" lon="15.145050211888794"><ele>269.0</ele><time>2026-03-28T15:56:00Z</time></trkpt><trkpt lat="37.638864323338666" lon="15.144984970180538"><ele>269.0</ele><time>2026-03-28T15:56:01Z</time></trkpt><trkpt lat="37.638562203750915" lon="15.144921092257302"><ele>274.5</ele><time>2026-03-28T15:56:02Z</time></trkpt><trkpt lat="37.638256089332295" lon="15.144866839417453"><ele>280.0</ele><time>2026-03-28T15:56:03Z</time></trkpt><trkpt lat="37.63794807867127" lon="15.144823049644053"><ele>281.5</ele><time>2026-03-28T15:56:04Z</time></trkpt><trkpt lat="37.63764787314466" lon="15.144784670469646"><ele>283.0</ele><time>2026-03-28T15:56:05Z</time></trkpt><trkpt lat="37.63733341393919" lon="15.144762951848193"><ele>283.0</ele><time>2026-03-28T15:56:06Z</time></trkpt><trkpt lat="37.63702595705755" lon="15.144736901911067"><ele>283.0</ele><time>2026-03-28T15:56:07Z</time></trkpt><trkpt lat="37.63671987240174" lon="15.144710234880682"><ele>283.0</ele><time>2026-03-28T15:56:08Z</time></trkpt><trkpt lat="37.636410691194705" lon="15.144682985113015"><ele>283.0</ele><time>2026-03-28T15:56:09Z</time></trkpt><trkpt lat="37.63611032484783" lon="15.144654011140837"><ele>285.5</ele><time>2026-03-28T15:56:10Z</time></trkpt><trkpt lat="37.63580456041493" lon="15.144629549689348"><ele>288.0</ele><time>2026-03-28T15:56:11Z</time></trkpt><trkpt lat="37.63549843816246" lon="15.144603383331933"><ele>288.0</ele><time>2026-03-28T15:56:12Z</time></trkpt><trkpt lat="37.635196172190035" lon="15.144576693818827"><ele>288.0</ele><time>2026-03-28T15:56:13Z</time></trkpt><trkpt lat="37.63489028775865" lon="15.144546108138568"><ele>288.0</ele><time>2026-03-28T15:56:14Z</time></trkpt><trkpt lat="37.634583229867836" lon="15.144514861056956"><ele>288.0</ele><time>2026-03-28T15:56:15Z</time></trkpt><trkpt lat="37.634286418070054" lon="15.144455666233286"><ele>286.0</ele><time>2026-03-28T15:56:16Z</time></trkpt><trkpt lat="37.63398785283803" lon="15.144386108415066"><ele>284.0</ele><time>2026-03-28T15:56:17Z</time></trkpt><trkpt lat="37.63369191080261" lon="15.14430282625869"><ele>283.0</ele><time>2026-03-28T15:56:18Z</time></trkpt><trkpt lat="37.63339896047473" lon="15.14420722929651"><ele>282.0</ele><time>2026-03-28T15:56:19Z</time></trkpt><trkpt lat="37.633108698256194" lon="15.144099017609843"><ele>282.5</ele><time>2026-03-28T15:56:20Z</time></trkpt><trkpt lat="37.63281818919124" lon="15.143978191754027"><ele>283.0</ele><time>2026-03-28T15:56:21Z</time></trkpt><trkpt lat="37.63253194634939" lon="15.143845500771134"><ele>281.5</ele><time>2026-03-28T15:56:22Z</time></trkpt><trkpt lat="37.63224561051302" lon="15.143702227827426"><ele>280.0</ele><time>2026-03-28T15:56:23Z</time></trkpt><trkpt lat="37.63196642543176" lon="15.143547164421294"><ele>279.0</ele><time>2026-03-28T15:56:24Z</time></trkpt><trkpt lat="37.631686386657556" lon="15.143395269872386"><ele>278.0</ele><time>2026-03-28T15:56:25Z</time></trkpt><trkpt lat="37.631401655337626" lon="15.14324502092023"><ele>281.5</ele><time>2026-03-28T15:56:26Z</time></trkpt><trkpt lat="37.631120368069475" lon="15.14309859080184"><ele>285.0</ele><time>2026-03-28T15:56:27Z</time></trkpt><trkpt lat="37.63083997562976" lon="15.1429513256013"><ele>285.0</ele><time>2026-03-28T15:56:28Z</time></trkpt><trkpt lat="37.63056142698356" lon="15.142809364058884"><ele>285.0</ele><time>2026-03-28T15:56:29Z</time></trkpt><trkpt lat="37.63028107827397" lon="15.142666815508674"><ele>286.5</ele><time>2026-03-28T15:56:30Z</time></trkpt><trkpt lat="37.629997472028315" lon="15.142533039724151"><ele>288.0</ele><time>2026-03-28T15:56:31Z</time></trkpt><trkpt lat="37.62971203213391" lon="15.142404893854053"><ele>289.0</ele><time>2026-03-28T15:56:32Z</time></trkpt><trkpt lat="37.62942365052589" lon="15.142288397238564"><ele>290.0</ele><time>2026-03-28T15:56:33Z</time></trkpt><trkpt lat="37.62913577886269" lon="15.142179903570451"><ele>290.0</ele><time>2026-03-28T15:56:34Z</time></trkpt><trkpt lat="37.62884783855366" lon="15.142081612992097"><ele>290.0</ele><time>2026-03-28T15:56:35Z</time></trkpt><trkpt lat="37.62856505329392" lon="15.14199484472333"><ele>290.5</ele><time>2026-03-28T15:56:36Z</time></trkpt><trkpt lat="37.62828119925844" lon="15.141920524938186"><ele>291.0</ele><time>2026-03-28T15:56:37Z</time></trkpt><trkpt lat="37.62800534627746" lon="15.141845944314108"><ele>291.0</ele><time>2026-03-28T15:56:38Z</time></trkpt><trkpt lat="37.62773301178176" lon="15.141775741078453"><ele>291.0</ele><time>2026-03-28T15:56:39Z</time></trkpt><trkpt lat="37.62746139500881" lon="15.14170972259003"><ele>291.0</ele><time>2026-03-28T15:56:40Z</time></trkpt><trkpt lat="37.62719325786511" lon="15.141646008774627"><ele>291.0</ele><time>2026-03-28T15:56:41Z</time></trkpt><trkpt lat="37.626928227127536" lon="15.141580491271931"><ele>292.5</ele><time>2026-03-28T15:56:42Z</time></trkpt><trkpt lat="37.62666490659518" lon="15.141518863280531"><ele>294.0</ele><time>2026-03-28T15:56:43Z</time></trkpt><trkpt lat="37.62640403335447" lon="15.141454974051635"><ele>294.0</ele><time>2026-03-28T15:56:44.001Z</time></trkpt><trkpt lat="37.62614615445603" lon="15.141392050040864"><ele>294.0</ele><time>2026-03-28T15:56:45.001Z</time></trkpt><trkpt lat="37.62588721871098" lon="15.141333892281496"><ele>290.0</ele><time>2026-03-28T15:56:46.001Z</time></trkpt><trkpt lat="37.62563297632673" lon="15.141262856023477"><ele>286.0</ele><time>2026-03-28T15:56:47.001Z</time></trkpt><trkpt lat="37.62537439773195" lon="15.141194716424017"><ele>285.0</ele><time>2026-03-28T15:56:48.001Z</time></trkpt><trkpt lat="37.625114925234186" lon="15.141116656396992"><ele>284.0</ele><time>2026-03-28T15:56:49.001Z</time></trkpt><trkpt lat="37.62485580210156" lon="15.14101880350166"><ele>284.0</ele><time>2026-03-28T15:56:50.001Z</time></trkpt><trkpt lat="37.624599449369455" lon="15.140916320714695"><ele>284.0</ele><time>2026-03-28T15:56:51.001Z</time></trkpt><trkpt lat="37.624347793333015" lon="15.14079739280146"><ele>285.5</ele><time>2026-03-28T15:56:52.001Z</time></trkpt><trkpt lat="37.624097443725525" lon="15.140677052078416"><ele>287.0</ele><time>2026-03-28T15:56:53.001Z</time></trkpt><trkpt lat="37.623854244641585" lon="15.140541517647884"><ele>283.5</ele><time>2026-03-28T15:56:54.001Z</time></trkpt><trkpt lat="37.62359546201526" lon="15.140390859060172"><ele>280.0</ele><time>2026-03-28T15:56:55.001Z</time></trkpt><trkpt lat="37.623341394129916" lon="15.140227421251481"><ele>280.0</ele><time>2026-03-28T15:56:56.001Z</time></trkpt><trkpt lat="37.62308159106754" lon="15.140058131543944"><ele>280.0</ele><time>2026-03-28T15:56:57.001Z</time></trkpt><trkpt lat="37.62282153501548" lon="15.139863667985217"><ele>280.0</ele><time>2026-03-28T15:56:58.001Z</time></trkpt><trkpt lat="37.62256252104248" lon="15.139651323583623"><ele>280.0</ele><time>2026-03-28T15:56:59.001Z</time></trkpt><trkpt lat="37.622310207030566" lon="15.13942583006575"><ele>280.0</ele><time>2026-03-28T15:57:00.001Z</time></trkpt><trkpt lat="37.62207312726405" lon="15.13919702672967"><ele>280.0</ele><time>2026-03-28T15:57:01.001Z</time></trkpt><trkpt lat="37.62185726718429" lon="15.138982688075195"><ele>279.0</ele><time>2026-03-28T15:57:02.001Z</time></trkpt><trkpt lat="37.621651183349755" lon="15.138773052376584"><ele>278.0</ele><time>2026-03-28T15:57:03.001Z</time></trkpt><trkpt lat="37.62145769646046" lon="15.138566915757355"><ele>278.0</ele><time>2026-03-28T15:57:04.001Z</time></trkpt><trkpt lat="37.62126450734809" lon="15.138353899103643"><ele>278.0</ele><time>2026-03-28T15:57:05.001Z</time></trkpt><trkpt lat="37.621075012726806" lon="15.13814221528202"><ele>276.0</ele><time>2026-03-28T15:57:06.001Z</time></trkpt><trkpt lat="37.62088824267236" lon="15.1379320340312"><ele>274.0</ele><time>2026-03-28T15:57:07.001Z</time></trkpt><trkpt lat="37.62069931662564" lon="15.137718421604179"><ele>274.0</ele><time>2026-03-28T15:57:08.001Z</time></trkpt><trkpt lat="37.62051735800887" lon="15.13749370061758"><ele>274.0</ele><time>2026-03-28T15:57:09.001Z</time></trkpt><trkpt lat="37.6203195309632" lon="15.137264441831421"><ele>277.5</ele><time>2026-03-28T15:57:10.001Z</time></trkpt><trkpt lat="37.6201234177393" lon="15.137029700427748"><ele>281.0</ele><time>2026-03-28T15:57:11.001Z</time></trkpt><trkpt lat="37.619925179060836" lon="15.13679934211595"><ele>281.0</ele><time>2026-03-28T15:57:12.001Z</time></trkpt><trkpt lat="37.619716834255996" lon="15.136572494976752"><ele>281.0</ele><time>2026-03-28T15:57:13.001Z</time></trkpt><trkpt lat="37.6195035177312" lon="15.136354863837198"><ele>282.5</ele><time>2026-03-28T15:57:14.001Z</time></trkpt><trkpt lat="37.61927658383229" lon="15.136143919535376"><ele>284.0</ele><time>2026-03-28T15:57:15.001Z</time></trkpt><trkpt lat="37.619042018160485" lon="15.135942385536277"><ele>284.0</ele><time>2026-03-28T15:57:16.001Z</time></trkpt><trkpt lat="37.61879963409196" lon="15.135750211177223"><ele>284.0</ele><time>2026-03-28T15:57:17.001Z</time></trkpt><trkpt lat="37.61854876131425" lon="15.135571295590225"><ele>283.5</ele><time>2026-03-28T15:57:18.001Z</time></trkpt><trkpt lat="37.61829209644299" lon="15.135408667563217"><ele>283.0</ele><time>2026-03-28T15:57:19.001Z</time></trkpt><trkpt lat="37.618031217509255" lon="15.135251482446906"><ele>282.0</ele><time>2026-03-28T15:57:20.001Z</time></trkpt><trkpt lat="37.61776621945484" lon="15.135101938683434"><ele>281.0</ele><time>2026-03-28T15:57:21.001Z</time></trkpt><trkpt lat="37.6174982208399" lon="15.134956700142924"><ele>282.0</ele><time>2026-03-28T15:57:22.001Z</time></trkpt><trkpt lat="37.617225339718885" lon="15.134822326716723"><ele>283.0</ele><time>2026-03-28T15:57:23.001Z</time></trkpt><trkpt lat="37.616947898116926" lon="15.134699234170904"><ele>283.0</ele><time>2026-03-28T15:57:24.001Z</time></trkpt><trkpt lat="37.616667222993904" lon="15.134585500231283"><ele>283.0</ele><time>2026-03-28T15:57:25.001Z</time></trkpt><trkpt lat="37.61638213931214" lon="15.134483016670535"><ele>283.5</ele><time>2026-03-28T15:57:26.001Z</time></trkpt><trkpt lat="37.6160956710098" lon="15.1343926944117"><ele>284.0</ele><time>2026-03-28T15:57:27.001Z</time></trkpt><trkpt lat="37.61580427268917" lon="15.134316693585518"><ele>284.0</ele><time>2026-03-28T15:57:28.001Z</time></trkpt><trkpt lat="37.61550882106927" lon="15.134252400163641"><ele>284.0</ele><time>2026-03-28T15:57:29.001Z</time></trkpt><trkpt lat="37.61520782737293" lon="15.13419726965543"><ele>286.0</ele><time>2026-03-28T15:57:30.001Z</time></trkpt><trkpt lat="37.61490141416616" lon="15.134152610622383"><ele>288.0</ele><time>2026-03-28T15:57:31.001Z</time></trkpt><trkpt lat="37.614592956809055" lon="15.134117233388817"><ele>287.5</ele><time>2026-03-28T15:57:32.001Z</time></trkpt><trkpt lat="37.614280491250085" lon="15.134094467997071"><ele>287.0</ele><time>2026-03-28T15:57:33.001Z</time></trkpt><trkpt lat="37.61396602463515" lon="15.134089408259374"><ele>287.5</ele><time>2026-03-28T15:57:34.001Z</time></trkpt><trkpt lat="37.61365323696367" lon="15.134101337119736"><ele>288.0</ele><time>2026-03-28T15:57:35.001Z</time></trkpt><trkpt lat="37.613344945208425" lon="15.134128139506018"><ele>288.0</ele><time>2026-03-28T15:57:36.001Z</time></trkpt><trkpt lat="37.613047814325256" lon="15.134162357932905"><ele>288.0</ele><time>2026-03-28T15:57:37.001Z</time></trkpt><trkpt lat="37.61276260907753" lon="15.134204330365874"><ele>287.0</ele><time>2026-03-28T15:57:38.001Z</time></trkpt><trkpt lat="37.61247945449137" lon="15.134249019526438"><ele>286.0</ele><time>2026-03-28T15:57:39.001Z</time></trkpt><trkpt lat="37.61219593789837" lon="15.134297493328123"><ele>286.0</ele><time>2026-03-28T15:57:40.001Z</time></trkpt><trkpt lat="37.611907662678604" lon="15.134345714354753"><ele>286.0</ele><time>2026-03-28T15:57:41.001Z</time></trkpt><trkpt lat="37.61162273716248" lon="15.134386366310922"><ele>286.0</ele><time>2026-03-28T15:57:42.001Z</time></trkpt><trkpt lat="37.61133459209588" lon="15.134427058825443"><ele>286.0</ele><time>2026-03-28T15:57:43.001Z</time></trkpt><trkpt lat="37.61106350201422" lon="15.134462496570793"><ele>286.5</ele><time>2026-03-28T15:57:44.001Z</time></trkpt><trkpt lat="37.610794251987784" lon="15.134497323186487"><ele>287.0</ele><time>2026-03-28T15:57:45.001Z</time></trkpt><trkpt lat="37.61053128722868" lon="15.134529991643626"><ele>285.0</ele><time>2026-03-28T15:57:46.001Z</time></trkpt><trkpt lat="37.6102686372063" lon="15.13455474553965"><ele>283.0</ele><time>2026-03-28T15:57:47.001Z</time></trkpt><trkpt lat="37.6100066966152" lon="15.134560943844557"><ele>283.0</ele><time>2026-03-28T15:57:48.001Z</time></trkpt><trkpt lat="37.60974909414646" lon="15.134557379746528"><ele>283.0</ele><time>2026-03-28T15:57:49.001Z</time></trkpt><trkpt lat="37.60950877396009" lon="15.134545384696022"><ele>282.5</ele><time>2026-03-28T15:57:50.001Z</time></trkpt><trkpt lat="37.60926617197966" lon="15.134528805667353"><ele>282.0</ele><time>2026-03-28T15:57:51.001Z</time></trkpt><trkpt lat="37.60902481876178" lon="15.134504961102676"><ele>282.0</ele><time>2026-03-28T15:57:52.001Z</time></trkpt><trkpt lat="37.60878046702952" lon="15.134479076205748"><ele>282.0</ele><time>2026-03-28T15:57:53.001Z</time></trkpt><trkpt lat="37.60855131004231" lon="15.134446710420152"><ele>281.3333333333333</ele><time>2026-03-28T15:57:54.001Z</time></trkpt><trkpt lat="37.60833720085585" lon="15.134405991221703"><ele>280.66666666666663</ele><time>2026-03-28T15:57:55.001Z</time></trkpt><trkpt lat="37.608119475696064" lon="15.13435668131705"><ele>280.0</ele><time>2026-03-28T15:57:56.001Z</time></trkpt><trkpt lat="37.60790588020262" lon="15.134301777230409"><ele>280.3333333333333</ele><time>2026-03-28T15:57:57.001Z</time></trkpt><trkpt lat="37.60770008567345" lon="15.134242455721873"><ele>280.6666666666667</ele><time>2026-03-28T15:57:58.001Z</time></trkpt><trkpt lat="37.60748899357041" lon="15.13417949037446"><ele>281.0</ele><time>2026-03-28T15:57:59.001Z</time></trkpt><trkpt lat="37.60728530440992" lon="15.134110020433122"><ele>281.6666666666667</ele><time>2026-03-28T15:58:00.001Z</time></trkpt><trkpt lat="37.60709567445097" lon="15.134034305605299"><ele>282.3333333333333</ele><time>2026-03-28T15:58:01.001Z</time></trkpt><trkpt lat="37.60689993123833" lon="15.133954616288783"><ele>283.0</ele><time>2026-03-28T15:58:02.002Z</time></trkpt><trkpt lat="37.606700335810764" lon="15.133866624363597"><ele>283.0</ele><time>2026-03-28T15:58:03.002Z</time></trkpt><trkpt lat="37.60649657816466" lon="15.133776545285135"><ele>283.0</ele><time>2026-03-28T15:58:04Z</time></trkpt><trkpt lat="37.60627743664978" lon="15.13368084501414"><ele>283.0</ele><time>2026-03-28T15:58:05Z</time></trkpt><trkpt lat="37.606047817461594" lon="15.13357682441398"><ele>280.5</ele><time>2026-03-28T15:58:06Z</time></trkpt><trkpt lat="37.60580802952209" lon="15.133470070512471"><ele>278.0</ele><time>2026-03-28T15:58:07Z</time></trkpt><trkpt lat="37.60556580213163" lon="15.133370109946233"><ele>279.5</ele><time>2026-03-28T15:58:08Z</time></trkpt><trkpt lat="37.605326771670285" lon="15.13327407775436"><ele>281.0</ele><time>2026-03-28T15:58:09Z</time></trkpt><trkpt lat="37.605081099758124" lon="15.133172421359953"><ele>281.0</ele><time>2026-03-28T15:58:10Z</time></trkpt><trkpt lat="37.60483403464054" lon="15.133055294972754"><ele>281.0</ele><time>2026-03-28T15:58:11Z</time></trkpt><trkpt lat="37.60458778271024" lon="15.132934749227426"><ele>280.0</ele><time>2026-03-28T15:58:12Z</time></trkpt><trkpt lat="37.604334965004604" lon="15.132818233805923"><ele>279.0</ele><time>2026-03-28T15:58:13Z</time></trkpt><trkpt lat="37.60408508761614" lon="15.132701079684363"><ele>279.0</ele><time>2026-03-28T15:58:14Z</time></trkpt><trkpt lat="37.60383809017308" lon="15.13258315407612"><ele>279.0</ele><time>2026-03-28T15:58:15Z</time></trkpt><trkpt lat="37.60359204170324" lon="15.13246418979375"><ele>282.0</ele><time>2026-03-28T15:58:16Z</time></trkpt><trkpt lat="37.60334569568158" lon="15.132347059452048"><ele>285.0</ele><time>2026-03-28T15:58:17Z</time></trkpt><trkpt lat="37.603095903433065" lon="15.132228568543372"><ele>285.0</ele><time>2026-03-28T15:58:18Z</time></trkpt><trkpt lat="37.60285167991109" lon="15.132106518051794"><ele>285.0</ele><time>2026-03-28T15:58:19Z</time></trkpt><trkpt lat="37.60260312671856" lon="15.131989033110859"><ele>288.0</ele><time>2026-03-28T15:58:20Z</time></trkpt><trkpt lat="37.60235643331909" lon="15.131870606516555"><ele>291.0</ele><time>2026-03-28T15:58:21Z</time></trkpt><trkpt lat="37.60211058966975" lon="15.131751434175586"><ele>292.0</ele><time>2026-03-28T15:58:22Z</time></trkpt><trkpt lat="37.601863521822146" lon="15.131633335222194"><ele>293.0</ele><time>2026-03-28T15:58:23Z</time></trkpt><trkpt lat="37.60161897959161" lon="15.13151629113857"><ele>293.5</ele><time>2026-03-28T15:58:24Z</time></trkpt><trkpt lat="37.60137430112932" lon="15.131400460457863"><ele>294.0</ele><time>2026-03-28T15:58:25Z</time></trkpt><trkpt lat="37.60113120082006" lon="15.131285777344806"><ele>294.5</ele><time>2026-03-28T15:58:26Z</time></trkpt><trkpt lat="37.60088980788062" lon="15.131178187333346"><ele>295.0</ele><time>2026-03-28T15:58:27Z</time></trkpt><trkpt lat="37.60065001072173" lon="15.13106484403896"><ele>295.0</ele><time>2026-03-28T15:58:28Z</time></trkpt><trkpt lat="37.60040684682363" lon="15.130950312017129"><ele>295.0</ele><time>2026-03-28T15:58:29Z</time></trkpt><trkpt lat="37.60016499940769" lon="15.130836054526519"><ele>294.0</ele><time>2026-03-28T15:58:30Z</time></trkpt><trkpt lat="37.59992172440101" lon="15.130723974263308"><ele>293.0</ele><time>2026-03-28T15:58:31Z</time></trkpt><trkpt lat="37.59967930149959" lon="15.130609408687276"><ele>292.0</ele><time>2026-03-28T15:58:32Z</time></trkpt><trkpt lat="37.5994325335715" lon="15.13049371240331"><ele>291.0</ele><time>2026-03-28T15:58:33Z</time></trkpt><trkpt lat="37.59918551237967" lon="15.1303795122025"><ele>291.0</ele><time>2026-03-28T15:58:34Z</time></trkpt><trkpt lat="37.59893602072303" lon="15.13026625550528"><ele>291.0</ele><time>2026-03-28T15:58:35Z</time></trkpt><trkpt lat="37.598679034219195" lon="15.130159645033622"><ele>292.0</ele><time>2026-03-28T15:58:36Z</time></trkpt><trkpt lat="37.598424503955734" lon="15.130053214216668"><ele>293.0</ele><time>2026-03-28T15:58:37Z</time></trkpt><trkpt lat="37.59816699225233" lon="15.129949558600071"><ele>294.0</ele><time>2026-03-28T15:58:38Z</time></trkpt><trkpt lat="37.59791174643561" lon="15.129847755266276"><ele>295.0</ele><time>2026-03-28T15:58:39Z</time></trkpt><trkpt lat="37.59765393957942" lon="15.129750926302508"><ele>295.5</ele><time>2026-03-28T15:58:40Z</time></trkpt><trkpt lat="37.597398270049545" lon="15.129661607926657"><ele>296.0</ele><time>2026-03-28T15:58:41Z</time></trkpt><trkpt lat="37.59713754135558" lon="15.129584840953015"><ele>297.0</ele><time>2026-03-28T15:58:42Z</time></trkpt><trkpt lat="37.59687781966865" lon="15.129524127421663"><ele>298.0</ele><time>2026-03-28T15:58:43Z</time></trkpt><trkpt lat="37.59661466818757" lon="15.129474958691059"><ele>298.0</ele><time>2026-03-28T15:58:44Z</time></trkpt><trkpt lat="37.59635051908968" lon="15.129429789873129"><ele>298.0</ele><time>2026-03-28T15:58:45Z</time></trkpt><trkpt lat="37.596084892567475" lon="15.129385513751412"><ele>297.5</ele><time>2026-03-28T15:58:46Z</time></trkpt><trkpt lat="37.59582029760273" lon="15.12933581986405"><ele>297.0</ele><time>2026-03-28T15:58:47Z</time></trkpt><trkpt lat="37.595548545530654" lon="15.129286802942232"><ele>299.5</ele><time>2026-03-28T15:58:48Z</time></trkpt><trkpt lat="37.59528063272615" lon="15.129237059686377"><ele>302.0</ele><time>2026-03-28T15:58:49Z</time></trkpt><trkpt lat="37.5950043494353" lon="15.129182440928709"><ele>302.0</ele><time>2026-03-28T15:58:50Z</time></trkpt><trkpt lat="37.59474434334751" lon="15.129135404682712"><ele>302.0</ele><time>2026-03-28T15:58:51Z</time></trkpt><trkpt lat="37.59447934310082" lon="15.129089267130182"><ele>306.0</ele><time>2026-03-28T15:58:52Z</time></trkpt><trkpt lat="37.594226832491174" lon="15.129046398348244"><ele>310.0</ele><time>2026-03-28T15:58:53.001Z</time></trkpt><trkpt lat="37.59396988912936" lon="15.129002843164452"><ele>310.0</ele><time>2026-03-28T15:58:54.001Z</time></trkpt><trkpt lat="37.59371460529345" lon="15.128966666299046"><ele>310.0</ele><time>2026-03-28T15:58:55.001Z</time></trkpt><trkpt lat="37.59346728410716" lon="15.128925740347926"><ele>309.5</ele><time>2026-03-28T15:58:56.001Z</time></trkpt><trkpt lat="37.5932173578121" lon="15.128882277109991"><ele>309.0</ele><time>2026-03-28T15:58:57.001Z</time></trkpt><trkpt lat="37.592965528115" lon="15.128836336413576"><ele>311.0</ele><time>2026-03-28T15:58:58.001Z</time></trkpt><trkpt lat="37.5927170336112" lon="15.128783030526808"><ele>313.0</ele><time>2026-03-28T15:58:59.001Z</time></trkpt><trkpt lat="37.592462110834546" lon="15.128725288161126"><ele>313.0</ele><time>2026-03-28T15:59:00.001Z</time></trkpt><trkpt lat="37.592212674236215" lon="15.128656865291335"><ele>313.0</ele><time>2026-03-28T15:59:01.001Z</time></trkpt><trkpt lat="37.59195730106303" lon="15.128581676204258"><ele>314.5</ele><time>2026-03-28T15:59:02.001Z</time></trkpt><trkpt lat="37.59170403344771" lon="15.128500346100564"><ele>316.0</ele><time>2026-03-28T15:59:03.001Z</time></trkpt><trkpt lat="37.59144302471644" lon="15.128416434862753"><ele>316.0</ele><time>2026-03-28T15:59:04.001Z</time></trkpt><trkpt lat="37.59118700186292" lon="15.128323876727869"><ele>316.0</ele><time>2026-03-28T15:59:05.001Z</time></trkpt><trkpt lat="37.59092976057856" lon="15.12822288924897"><ele>318.5</ele><time>2026-03-28T15:59:06.001Z</time></trkpt><trkpt lat="37.59066984042191" lon="15.128118084462278"><ele>321.0</ele><time>2026-03-28T15:59:07.001Z</time></trkpt><trkpt lat="37.590413254049096" lon="15.128004269330868"><ele>320.5</ele><time>2026-03-28T15:59:08.001Z</time></trkpt><trkpt lat="37.59014719128173" lon="15.127887814117795"><ele>320.0</ele><time>2026-03-28T15:59:09.001Z</time></trkpt><trkpt lat="37.58989310147328" lon="15.127757335804453"><ele>320.0</ele><time>2026-03-28T15:59:10.001Z</time></trkpt><trkpt lat="37.58963455354197" lon="15.127620805763112"><ele>320.0</ele><time>2026-03-28T15:59:11.001Z</time></trkpt><trkpt lat="37.58937069159582" lon="15.127480231718135"><ele>318.5</ele><time>2026-03-28T15:59:12.001Z</time></trkpt><trkpt lat="37.58910859689527" lon="15.127327513047112"><ele>317.0</ele><time>2026-03-28T15:59:13.001Z</time></trkpt><trkpt lat="37.58884902791777" lon="15.127169615189425"><ele>317.0</ele><time>2026-03-28T15:59:14.001Z</time></trkpt><trkpt lat="37.58859543708638" lon="15.127002536005204"><ele>317.0</ele><time>2026-03-28T15:59:15.001Z</time></trkpt><trkpt lat="37.588344313758256" lon="15.126831174773988"><ele>317.0</ele><time>2026-03-28T15:59:16.001Z</time></trkpt><trkpt lat="37.58809268084704" lon="15.126652711306074"><ele>317.0</ele><time>2026-03-28T15:59:17.001Z</time></trkpt><trkpt lat="37.58785024891211" lon="15.12646323257356"><ele>315.0</ele><time>2026-03-28T15:59:18.001Z</time></trkpt><trkpt lat="37.58760476123955" lon="15.126271088790805"><ele>313.0</ele><time>2026-03-28T15:59:19.001Z</time></trkpt><trkpt lat="37.587364343793915" lon="15.126073712713032"><ele>313.0</ele><time>2026-03-28T15:59:20.001Z</time></trkpt><trkpt lat="37.58712977386421" lon="15.12587537188017"><ele>313.0</ele><time>2026-03-28T15:59:21.001Z</time></trkpt><trkpt lat="37.58688737597924" lon="15.12567937573195"><ele>314.0</ele><time>2026-03-28T15:59:22.001Z</time></trkpt><trkpt lat="37.58664950738184" lon="15.125482965172072"><ele>315.0</ele><time>2026-03-28T15:59:23.001Z</time></trkpt><trkpt lat="37.58641286434101" lon="15.125288575475091"><ele>315.5</ele><time>2026-03-28T15:59:24.001Z</time></trkpt><trkpt lat="37.58617552104633" lon="15.125096901866279"><ele>316.0</ele><time>2026-03-28T15:59:25.001Z</time></trkpt><trkpt lat="37.5859423565793" lon="15.12489780755467"><ele>319.0</ele><time>2026-03-28T15:59:26.001Z</time></trkpt><trkpt lat="37.58571069139037" lon="15.124708530417807"><ele>322.0</ele><time>2026-03-28T15:59:27.001Z</time></trkpt><trkpt lat="37.58547643006546" lon="15.124519005214363"><ele>324.0</ele><time>2026-03-28T15:59:28.001Z</time></trkpt><trkpt lat="37.58524499325954" lon="15.12432476441852"><ele>326.0</ele><time>2026-03-28T15:59:29.001Z</time></trkpt><trkpt lat="37.58502092425581" lon="15.124133431567618"><ele>331.0</ele><time>2026-03-28T15:59:30.001Z</time></trkpt><trkpt lat="37.58478992330531" lon="15.123943501467492"><ele>336.0</ele><time>2026-03-28T15:59:31.001Z</time></trkpt><trkpt lat="37.584557366732376" lon="15.123753954834783"><ele>335.5</ele><time>2026-03-28T15:59:32.001Z</time></trkpt><trkpt lat="37.58433382508423" lon="15.123563345428858"><ele>335.0</ele><time>2026-03-28T15:59:33.001Z</time></trkpt><trkpt lat="37.584099740393654" lon="15.12337334537449"><ele>334.5</ele><time>2026-03-28T15:59:34.001Z</time></trkpt><trkpt lat="37.5838679280497" lon="15.123182428323323"><ele>334.0</ele><time>2026-03-28T15:59:35.001Z</time></trkpt><trkpt lat="37.583633219825025" lon="15.122987035712686"><ele>334.0</ele><time>2026-03-28T15:59:36.001Z</time></trkpt><trkpt lat="37.58340878556196" lon="15.122784953852793"><ele>334.0</ele><time>2026-03-28T15:59:37.001Z</time></trkpt><trkpt lat="37.5831805019571" lon="15.122579741237178"><ele>335.0</ele><time>2026-03-28T15:59:38.001Z</time></trkpt><trkpt lat="37.58296371743672" lon="15.122358462084021"><ele>336.0</ele><time>2026-03-28T15:59:39.001Z</time></trkpt><trkpt lat="37.58274055997253" lon="15.122140144364543"><ele>336.0</ele><time>2026-03-28T15:59:40.001Z</time></trkpt><trkpt lat="37.58253147756017" lon="15.121910117352986"><ele>336.0</ele><time>2026-03-28T15:59:41.001Z</time></trkpt><trkpt lat="37.582312805649266" lon="15.12168221522749"><ele>338.0</ele><time>2026-03-28T15:59:42.001Z</time></trkpt><trkpt lat="37.58210599340118" lon="15.12143726132983"><ele>340.0</ele><time>2026-03-28T15:59:43.001Z</time></trkpt><trkpt lat="37.58190147428547" lon="15.121191051709964"><ele>336.0</ele><time>2026-03-28T15:59:44.001Z</time></trkpt><trkpt lat="37.581699654521394" lon="15.120939891214597"><ele>332.0</ele><time>2026-03-28T15:59:45.001Z</time></trkpt><trkpt lat="37.5814995016555" lon="15.12067786623827"><ele>331.5</ele><time>2026-03-28T15:59:46.001Z</time></trkpt><trkpt lat="37.58131239186043" lon="15.1204122119803"><ele>331.0</ele><time>2026-03-28T15:59:47.001Z</time></trkpt><trkpt lat="37.581118934024374" lon="15.120139657131995"><ele>334.0</ele><time>2026-03-28T15:59:48.001Z</time></trkpt><trkpt lat="37.58093802436978" lon="15.119854704382817"><ele>337.0</ele><time>2026-03-28T15:59:49.001Z</time></trkpt><trkpt lat="37.5807507577468" lon="15.119568660077046"><ele>337.0</ele><time>2026-03-28T15:59:50.001Z</time></trkpt><trkpt lat="37.580573934519535" lon="15.11927786169531"><ele>337.0</ele><time>2026-03-28T15:59:51.001Z</time></trkpt><trkpt lat="37.58039015472008" lon="15.118981978653526"><ele>337.0</ele><time>2026-03-28T15:59:52.001Z</time></trkpt><trkpt lat="37.58022030268949" lon="15.118684257284794"><ele>337.0</ele><time>2026-03-28T15:59:53.001Z</time></trkpt><trkpt lat="37.58003985543003" lon="15.118382399566546"><ele>338.5</ele><time>2026-03-28T15:59:54.001Z</time></trkpt><trkpt lat="37.57986363057888" lon="15.118078191912517"><ele>340.0</ele><time>2026-03-28T15:59:55.001Z</time></trkpt><trkpt lat="37.57968987320059" lon="15.117776390797017"><ele>340.0</ele><time>2026-03-28T15:59:56.001Z</time></trkpt><trkpt lat="37.57951829901614" lon="15.117483833772036"><ele>340.0</ele><time>2026-03-28T15:59:57.001Z</time></trkpt><trkpt lat="37.579353052816586" lon="15.117188604325817"><ele>338.5</ele><time>2026-03-28T15:59:58.001Z</time></trkpt><trkpt lat="37.57918185764587" lon="15.116896329007671"><ele>337.0</ele><time>2026-03-28T15:59:59.001Z</time></trkpt><trkpt lat="37.579011009065404" lon="15.116604669508705"><ele>337.0</ele><time>2026-03-28T16:00:00.001Z</time></trkpt><trkpt lat="37.578845904028235" lon="15.116313355113233"><ele>337.0</ele><time>2026-03-28T16:00:01.001Z</time></trkpt><trkpt lat="37.57867744788872" lon="15.116025436728725"><ele>337.0</ele><time>2026-03-28T16:00:02.001Z</time></trkpt><trkpt lat="37.57851331231085" lon="15.115734276720628"><ele>337.0</ele><time>2026-03-28T16:00:03.001Z</time></trkpt><trkpt lat="37.57834586069948" lon="15.11544221553406"><ele>337.0</ele><time>2026-03-28T16:00:04.001Z</time></trkpt><trkpt lat="37.57817616205268" lon="15.115153327063474"><ele>337.0</ele><time>2026-03-28T16:00:05.001Z</time></trkpt><trkpt lat="37.57801824603962" lon="15.114854361508579"><ele>337.5</ele><time>2026-03-28T16:00:06.001Z</time></trkpt><trkpt lat="37.57785595745925" lon="15.1145582039217"><ele>338.0</ele><time>2026-03-28T16:00:07.001Z</time></trkpt><trkpt lat="37.57768292568955" lon="15.114266641338155"><ele>339.0</ele><time>2026-03-28T16:00:08.001Z</time></trkpt><trkpt lat="37.57751607738479" lon="15.113971683456533"><ele>340.0</ele><time>2026-03-28T16:00:09.001Z</time></trkpt><trkpt lat="37.57734733607868" lon="15.113678400206501"><ele>340.0</ele><time>2026-03-28T16:00:10Z</time></trkpt><trkpt lat="37.57718150691455" lon="15.113379010580346"><ele>340.0</ele><time>2026-03-28T16:00:11Z</time></trkpt><trkpt lat="37.57702419502223" lon="15.113087978728567"><ele>340.0</ele><time>2026-03-28T16:00:12Z</time></trkpt><trkpt lat="37.57685160207161" lon="15.112789665348705"><ele>340.0</ele><time>2026-03-28T16:00:13Z</time></trkpt><trkpt lat="37.57667311055052" lon="15.112502798537207"><ele>339.5</ele><time>2026-03-28T16:00:14Z</time></trkpt><trkpt lat="37.576485034693" lon="15.112231722671964"><ele>339.0</ele><time>2026-03-28T16:00:15Z</time></trkpt><trkpt lat="37.57629412753775" lon="15.111966174951787"><ele>338.5</ele><time>2026-03-28T16:00:16Z</time></trkpt><trkpt lat="37.5761063167809" lon="15.111708463757505"><ele>338.0</ele><time>2026-03-28T16:00:17Z</time></trkpt><trkpt lat="37.57591517055473" lon="15.111456205054356"><ele>338.0</ele><time>2026-03-28T16:00:18Z</time></trkpt><trkpt lat="37.5757187670087" lon="15.111210687517076"><ele>338.0</ele><time>2026-03-28T16:00:19Z</time></trkpt><trkpt lat="37.575517271130394" lon="15.110975868169577"><ele>337.0</ele><time>2026-03-28T16:00:20Z</time></trkpt><trkpt lat="37.57531295385114" lon="15.11074613606908"><ele>336.0</ele><time>2026-03-28T16:00:21Z</time></trkpt><trkpt lat="37.575111836172745" lon="15.110523784649082"><ele>335.5</ele><time>2026-03-28T16:00:22Z</time></trkpt><trkpt lat="37.57490572994218" lon="15.11030387806886"><ele>335.0</ele><time>2026-03-28T16:00:23Z</time></trkpt><trkpt lat="37.57469824310375" lon="15.110089465226013"><ele>333.5</ele><time>2026-03-28T16:00:24Z</time></trkpt><trkpt lat="37.574483465980336" lon="15.109882045820717"><ele>332.0</ele><time>2026-03-28T16:00:25Z</time></trkpt><trkpt lat="37.5742670364309" lon="15.109681490465197"><ele>332.0</ele><time>2026-03-28T16:00:26Z</time></trkpt><trkpt lat="37.57404701414207" lon="15.109482996297633"><ele>332.0</ele><time>2026-03-28T16:00:27Z</time></trkpt><trkpt lat="37.57382855723785" lon="15.10928437227677"><ele>332.0</ele><time>2026-03-28T16:00:28Z</time></trkpt><trkpt lat="37.57361022818028" lon="15.10908710080224"><ele>332.0</ele><time>2026-03-28T16:00:29Z</time></trkpt><trkpt lat="37.57339252620661" lon="15.108887662711565"><ele>332.0</ele><time>2026-03-28T16:00:30Z</time></trkpt><trkpt lat="37.573179929515256" lon="15.108691943887937"><ele>332.0</ele><time>2026-03-28T16:00:31Z</time></trkpt><trkpt lat="37.57295655836781" lon="15.108496762861249"><ele>331.5</ele><time>2026-03-28T16:00:32Z</time></trkpt><trkpt lat="37.57273463766709" lon="15.108305170769688"><ele>331.0</ele><time>2026-03-28T16:00:33Z</time></trkpt><trkpt lat="37.57251237327329" lon="15.108108342922876"><ele>331.0</ele><time>2026-03-28T16:00:34Z</time></trkpt><trkpt lat="37.572293960917015" lon="15.107907856691082"><ele>331.0</ele><time>2026-03-28T16:00:35Z</time></trkpt><trkpt lat="37.57207174839566" lon="15.107702408186354"><ele>332.0</ele><time>2026-03-28T16:00:36Z</time></trkpt><trkpt lat="37.57185086968767" lon="15.107492676563236"><ele>333.0</ele><time>2026-03-28T16:00:37Z</time></trkpt><trkpt lat="37.57162921168414" lon="15.107283211684138"><ele>333.5</ele><time>2026-03-28T16:00:38Z</time></trkpt><trkpt lat="37.57141007192158" lon="15.107078549120864"><ele>334.0</ele><time>2026-03-28T16:00:39Z</time></trkpt><trkpt lat="37.57118941003736" lon="15.106874823017511"><ele>334.5</ele><time>2026-03-28T16:00:40Z</time></trkpt><trkpt lat="37.570971859301" lon="15.106672826511344"><ele>335.0</ele><time>2026-03-28T16:00:41Z</time></trkpt><trkpt lat="37.570757867504035" lon="15.106471595742097"><ele>335.0</ele><time>2026-03-28T16:00:42Z</time></trkpt><trkpt lat="37.570541135441026" lon="15.106267479198543"><ele>335.0</ele><time>2026-03-28T16:00:43Z</time></trkpt><trkpt lat="37.57033282331894" lon="15.106069790612644"><ele>335.0</ele><time>2026-03-28T16:00:44Z</time></trkpt><trkpt lat="37.570130740521435" lon="15.10587601041303"><ele>335.0</ele><time>2026-03-28T16:00:45Z</time></trkpt><trkpt lat="37.56993917908758" lon="15.105701479144695"><ele>335.0</ele><time>2026-03-28T16:00:46Z</time></trkpt><trkpt lat="37.56974608334659" lon="15.105526548429587"><ele>335.0</ele><time>2026-03-28T16:00:47Z</time></trkpt><trkpt lat="37.569558278451844" lon="15.105352872689064"><ele>335.5</ele><time>2026-03-28T16:00:48Z</time></trkpt><trkpt lat="37.56936997161943" lon="15.105179272235409"><ele>336.0</ele><time>2026-03-28T16:00:49Z</time></trkpt><trkpt lat="37.56918882646978" lon="15.105011591792124"><ele>335.3333333333333</ele><time>2026-03-28T16:00:50Z</time></trkpt><trkpt lat="37.569023899627496" lon="15.104853301510236"><ele>334.66666666666663</ele><time>2026-03-28T16:00:51Z</time></trkpt><trkpt lat="37.5688695287992" lon="15.104706136812231"><ele>334.0</ele><time>2026-03-28T16:00:52Z</time></trkpt><trkpt lat="37.56872118224684" lon="15.104569305615138"><ele>334.0</ele><time>2026-03-28T16:00:53Z</time></trkpt><trkpt lat="37.568582637858974" lon="15.104441727134683"><ele>334.0</ele><time>2026-03-28T16:00:54Z</time></trkpt><trkpt lat="37.568453149519705" lon="15.104323058637034"><ele>334.0</ele><time>2026-03-28T16:00:55Z</time></trkpt><trkpt lat="37.56832761370259" lon="15.104205975948936"><ele>334.0</ele><time>2026-03-28T16:00:56Z</time></trkpt><trkpt lat="37.56821368030581" lon="15.104099381889883"><ele>334.0</ele><time>2026-03-28T16:00:57Z</time></trkpt><trkpt lat="37.56810034399599" lon="15.103995355086957"><ele>334.0</ele><time>2026-03-28T16:00:58Z</time></trkpt><trkpt lat="37.56799993733755" lon="15.103901367391595"><ele>334.0</ele><time>2026-03-28T16:00:59Z</time></trkpt><trkpt lat="37.56790525201131" lon="15.1038140088842"><ele>334.79999999999995</ele><time>2026-03-28T16:01:00Z</time></trkpt><trkpt lat="37.56780720429896" lon="15.103729566210644"><ele>335.59999999999997</ele><time>2026-03-28T16:01:01Z</time></trkpt><trkpt lat="37.567724177961814" lon="15.103649049137026"><ele>336.4</ele><time>2026-03-28T16:01:02Z</time></trkpt><trkpt lat="37.567648304500864" lon="15.103573055550422"><ele>337.2</ele><time>2026-03-28T16:01:03Z</time></trkpt><trkpt lat="37.567581418230795" lon="15.10350359511037"><ele>338.0</ele><time>2026-03-28T16:01:04Z</time></trkpt><trkpt lat="37.56752186520432" lon="15.103441577794717"><ele>338.0</ele><time>2026-03-28T16:01:05Z</time></trkpt><trkpt lat="37.56747298487861" lon="15.103388665382413"><ele>338.0</ele><time>2026-03-28T16:01:06Z</time></trkpt><trkpt lat="37.56739025626035" lon="15.103298629117372"><ele>338.0</ele><time>2026-03-28T16:01:08Z</time></trkpt><trkpt lat="37.5673102888607" lon="15.103221109928914"><ele>338.0</ele><time>2026-03-28T16:01:10Z</time></trkpt><trkpt lat="37.56720798206888" lon="15.10312487969882"><ele>338.0</ele><time>2026-03-28T16:01:12Z</time></trkpt><trkpt lat="37.56714836759084" lon="15.103066662432639"><ele>337.79999999999995</ele><time>2026-03-28T16:01:13Z</time></trkpt><trkpt lat="37.56708434517747" lon="15.103005625946299"><ele>337.6</ele><time>2026-03-28T16:01:14Z</time></trkpt><trkpt lat="37.567009526807226" lon="15.102933820571906"><ele>337.4</ele><time>2026-03-28T16:01:15Z</time></trkpt><trkpt lat="37.56692524876059" lon="15.102850889905568"><ele>337.20000000000005</ele><time>2026-03-28T16:01:16Z</time></trkpt><trkpt lat="37.5668325199685" lon="15.102758875247039"><ele>337.0</ele><time>2026-03-28T16:01:17Z</time></trkpt><trkpt lat="37.56673164257562" lon="15.102657939187015"><ele>337.66666666666663</ele><time>2026-03-28T16:01:18Z</time></trkpt><trkpt lat="37.56662136394484" lon="15.102545822670127"><ele>338.3333333333333</ele><time>2026-03-28T16:01:19Z</time></trkpt><trkpt lat="37.5665002383062" lon="15.102424737065682"><ele>339.0</ele><time>2026-03-28T16:01:20Z</time></trkpt><trkpt lat="37.56637530889596" lon="15.102297976923573"><ele>339.0</ele><time>2026-03-28T16:01:21Z</time></trkpt><trkpt lat="37.56624235070128" lon="15.102165478788502"><ele>339.0</ele><time>2026-03-28T16:01:22.001Z</time></trkpt><trkpt lat="37.566105822219996" lon="15.102034233203916"><ele>339.0</ele><time>2026-03-28T16:01:23.001Z</time></trkpt><trkpt lat="37.565969670132176" lon="15.101905319383604"><ele>339.0</ele><time>2026-03-28T16:01:24.001Z</time></trkpt><trkpt lat="37.56583668779462" lon="15.101780075098437"><ele>339.0</ele><time>2026-03-28T16:01:25.001Z</time></trkpt><trkpt lat="37.56569972890003" lon="15.101653758124804"><ele>339.0</ele><time>2026-03-28T16:01:26.001Z</time></trkpt><trkpt lat="37.56556196666515" lon="15.10152632088807"><ele>339.3333333333333</ele><time>2026-03-28T16:01:27.001Z</time></trkpt><trkpt lat="37.56542278642761" lon="15.101386057887694"><ele>339.66666666666663</ele><time>2026-03-28T16:01:28.001Z</time></trkpt><trkpt lat="37.56527654345746" lon="15.101240885397731"><ele>340.0</ele><time>2026-03-28T16:01:29.001Z</time></trkpt><trkpt lat="37.5651327998801" lon="15.101087086402847"><ele>340.0</ele><time>2026-03-28T16:01:30.001Z</time></trkpt><trkpt lat="37.564988829410915" lon="15.100923723003456"><ele>340.0</ele><time>2026-03-28T16:01:31.001Z</time></trkpt><trkpt lat="37.56484625711193" lon="15.100749309623783"><ele>340.0</ele><time>2026-03-28T16:01:32.001Z</time></trkpt><trkpt lat="37.56470194789485" lon="15.100568969901744"><ele>342.0</ele><time>2026-03-28T16:01:33.001Z</time></trkpt><trkpt lat="37.564554567897545" lon="15.100376836865449"><ele>344.0</ele><time>2026-03-28T16:01:34.001Z</time></trkpt><trkpt lat="37.56440576470184" lon="15.100180322148434"><ele>346.0</ele><time>2026-03-28T16:01:35.001Z</time></trkpt><trkpt lat="37.564258035360815" lon="15.099971915714995"><ele>341.0</ele><time>2026-03-28T16:01:36.001Z</time></trkpt><trkpt lat="37.56410782240632" lon="15.099757068754188"><ele>336.0</ele><time>2026-03-28T16:01:37.001Z</time></trkpt><trkpt lat="37.56395708751663" lon="15.099537192279785"><ele>336.0</ele><time>2026-03-28T16:01:38.001Z</time></trkpt><trkpt lat="37.56380292189331" lon="15.099314290561624"><ele>336.0</ele><time>2026-03-28T16:01:39.001Z</time></trkpt><trkpt lat="37.563651823135835" lon="15.099085818824854"><ele>330.5</ele><time>2026-03-28T16:01:40.001Z</time></trkpt><trkpt lat="37.56349713882897" lon="15.09885606381099"><ele>325.0</ele><time>2026-03-28T16:01:41.001Z</time></trkpt><trkpt lat="37.56333774973798" lon="15.09862531938693"><ele>325.0</ele><time>2026-03-28T16:01:42.001Z</time></trkpt><trkpt lat="37.56317795436791" lon="15.098394358759883"><ele>325.0</ele><time>2026-03-28T16:01:43.001Z</time></trkpt><trkpt lat="37.563022675733215" lon="15.098164205097762"><ele>325.0</ele><time>2026-03-28T16:01:44.001Z</time></trkpt><trkpt lat="37.56286438118411" lon="15.097928121069614"><ele>325.0</ele><time>2026-03-28T16:01:45.001Z</time></trkpt><trkpt lat="37.5627064988438" lon="15.097690823740855"><ele>321.0</ele><time>2026-03-28T16:01:46.001Z</time></trkpt><trkpt lat="37.56253782356882" lon="15.097453916500601"><ele>317.0</ele><time>2026-03-28T16:01:47.001Z</time></trkpt><trkpt lat="37.56237041946373" lon="15.097208229242135"><ele>317.0</ele><time>2026-03-28T16:01:48.001Z</time></trkpt><trkpt lat="37.56219815447027" lon="15.096965761034975"><ele>317.0</ele><time>2026-03-28T16:01:49.001Z</time></trkpt><trkpt lat="37.5620257883662" lon="15.096714508911687"><ele>316.5</ele><time>2026-03-28T16:01:50.001Z</time></trkpt><trkpt lat="37.56185528298074" lon="15.096463579300623"><ele>316.0</ele><time>2026-03-28T16:01:51.001Z</time></trkpt><trkpt lat="37.56167770605832" lon="15.096209729531873"><ele>316.0</ele><time>2026-03-28T16:01:52.001Z</time></trkpt><trkpt lat="37.56150235545495" lon="15.095954249352198"><ele>316.0</ele><time>2026-03-28T16:01:53.001Z</time></trkpt><trkpt lat="37.56132550972483" lon="15.095694958851507"><ele>312.5</ele><time>2026-03-28T16:01:54.001Z</time></trkpt><trkpt lat="37.56114377000004" lon="15.095433388175694"><ele>309.0</ele><time>2026-03-28T16:01:55.001Z</time></trkpt><trkpt lat="37.56096410287806" lon="15.095170660154473"><ele>310.0</ele><time>2026-03-28T16:01:56.001Z</time></trkpt><trkpt lat="37.56078143861265" lon="15.094906883555089"><ele>311.0</ele><time>2026-03-28T16:01:57.001Z</time></trkpt><trkpt lat="37.56061416979185" lon="15.094657440843896"><ele>311.0</ele><time>2026-03-28T16:01:58.001Z</time></trkpt><trkpt lat="37.560442860336046" lon="15.094417856535404"><ele>311.0</ele><time>2026-03-28T16:01:59.001Z</time></trkpt><trkpt lat="37.56027514598583" lon="15.094172493854106"><ele>310.0</ele><time>2026-03-28T16:02:00.001Z</time></trkpt><trkpt lat="37.560092177858415" lon="15.09391749226018"><ele>309.0</ele><time>2026-03-28T16:02:01.001Z</time></trkpt><trkpt lat="37.55990365716957" lon="15.09365795209893"><ele>309.0</ele><time>2026-03-28T16:02:02.001Z</time></trkpt><trkpt lat="37.55971643374516" lon="15.093388611942327"><ele>309.0</ele><time>2026-03-28T16:02:03.001Z</time></trkpt><trkpt lat="37.559526598621275" lon="15.093108372642872"><ele>307.0</ele><time>2026-03-28T16:02:04.001Z</time></trkpt><trkpt lat="37.559346795387604" lon="15.092820396735762"><ele>305.0</ele><time>2026-03-28T16:02:05.001Z</time></trkpt><trkpt lat="37.55916982376748" lon="15.092520645541747"><ele>308.5</ele><time>2026-03-28T16:02:06.001Z</time></trkpt><trkpt lat="37.55899703324348" lon="15.092215187516526"><ele>312.0</ele><time>2026-03-28T16:02:07.001Z</time></trkpt><trkpt lat="37.5588357244437" lon="15.091909598641047"><ele>310.0</ele><time>2026-03-28T16:02:08.001Z</time></trkpt><trkpt lat="37.55867305438742" lon="15.091599628484811"><ele>308.0</ele><time>2026-03-28T16:02:09.001Z</time></trkpt><trkpt lat="37.55851901770989" lon="15.091293949717251"><ele>308.0</ele><time>2026-03-28T16:02:10.001Z</time></trkpt><trkpt lat="37.55836827096895" lon="15.090995995728134"><ele>308.0</ele><time>2026-03-28T16:02:11.001Z</time></trkpt><trkpt lat="37.55822235258049" lon="15.090693981211725"><ele>308.5</ele><time>2026-03-28T16:02:12.001Z</time></trkpt><trkpt lat="37.558074516043405" lon="15.090398518916226"><ele>309.0</ele><time>2026-03-28T16:02:13.001Z</time></trkpt><trkpt lat="37.5579230632521" lon="15.090107378869655"><ele>308.0</ele><time>2026-03-28T16:02:14.001Z</time></trkpt><trkpt lat="37.55777686496825" lon="15.089813526143642"><ele>307.0</ele><time>2026-03-28T16:02:15.001Z</time></trkpt><trkpt lat="37.557658136415434" lon="15.089524328007405"><ele>307.0</ele><time>2026-03-28T16:02:15.999Z</time></trkpt><trkpt lat="37.55751660242964" lon="15.089234386372548"><ele>307.0</ele><time>2026-03-28T16:02:16.999Z</time></trkpt><trkpt lat="37.55735019000429" lon="15.088961303914218"><ele>308.5</ele><time>2026-03-28T16:02:17.999Z</time></trkpt><trkpt lat="37.557182549225" lon="15.088695260583735"><ele>310.0</ele><time>2026-03-28T16:02:18.999Z</time></trkpt><trkpt lat="37.557015194529946" lon="15.088442389174965"><ele>306.5</ele><time>2026-03-28T16:02:19.999Z</time></trkpt><trkpt lat="37.55675143060403" lon="15.08822879351838"><ele>303.0</ele><time>2026-03-28T16:02:20.999Z</time></trkpt><trkpt lat="37.55656766765833" lon="15.087987660656939"><ele>303.0</ele><time>2026-03-28T16:02:21.999Z</time></trkpt><trkpt lat="37.55637698263655" lon="15.087762543822405"><ele>303.0</ele><time>2026-03-28T16:02:22.999Z</time></trkpt><trkpt lat="37.556217454526845" lon="15.0875568265807"><ele>302.0</ele><time>2026-03-28T16:02:23.999Z</time></trkpt><trkpt lat="37.55605200751816" lon="15.087356150620867"><ele>301.0</ele><time>2026-03-28T16:02:24.999Z</time></trkpt><trkpt lat="37.55585945239191" lon="15.087154485389284"><ele>301.0</ele><time>2026-03-28T16:02:25.999Z</time></trkpt><trkpt lat="37.55565269131648" lon="15.086950507874716"><ele>301.0</ele><time>2026-03-28T16:02:26.999Z</time></trkpt><trkpt lat="37.55544011183505" lon="15.086754765527443"><ele>299.0</ele><time>2026-03-28T16:02:27.999Z</time></trkpt><trkpt lat="37.555247100047495" lon="15.08656927842416"><ele>297.0</ele><time>2026-03-28T16:02:28.999Z</time></trkpt><trkpt lat="37.555032920645154" lon="15.086375308649124"><ele>297.0</ele><time>2026-03-28T16:02:29.999Z</time></trkpt><trkpt lat="37.554809945851424" lon="15.08618086773296"><ele>297.0</ele><time>2026-03-28T16:02:30.999Z</time></trkpt><trkpt lat="37.55459599218482" lon="15.085991183701145"><ele>296.0</ele><time>2026-03-28T16:02:31.999Z</time></trkpt><trkpt lat="37.55438192579134" lon="15.085803762243689"><ele>295.0</ele><time>2026-03-28T16:02:32.999Z</time></trkpt><trkpt lat="37.554171168198685" lon="15.085616721939244"><ele>295.0</ele><time>2026-03-28T16:02:34Z</time></trkpt><trkpt lat="37.553960610073666" lon="15.085432798494923"><ele>295.0</ele><time>2026-03-28T16:02:35Z</time></trkpt><trkpt lat="37.553752639427046" lon="15.085242951731203"><ele>291.0</ele><time>2026-03-28T16:02:36Z</time></trkpt><trkpt lat="37.5535566596822" lon="15.085051443450835"><ele>287.0</ele><time>2026-03-28T16:02:37Z</time></trkpt><trkpt lat="37.55335817103317" lon="15.084854829232"><ele>287.0</ele><time>2026-03-28T16:02:38Z</time></trkpt><trkpt lat="37.55317042466387" lon="15.0846486929317"><ele>287.0</ele><time>2026-03-28T16:02:39Z</time></trkpt><trkpt lat="37.5529897444751" lon="15.08443453468975"><ele>284.5</ele><time>2026-03-28T16:02:40Z</time></trkpt><trkpt lat="37.552812742183974" lon="15.084213524679377"><ele>282.0</ele><time>2026-03-28T16:02:41Z</time></trkpt><trkpt lat="37.552638123521746" lon="15.083985346669335"><ele>282.0</ele><time>2026-03-28T16:02:42Z</time></trkpt><trkpt lat="37.5524694649429" lon="15.083754807239872"><ele>282.0</ele><time>2026-03-28T16:02:43Z</time></trkpt><trkpt lat="37.55230662702243" lon="15.083519130642772"><ele>282.0</ele><time>2026-03-28T16:02:44Z</time></trkpt><trkpt lat="37.55214898698435" lon="15.083272211021097"><ele>282.0</ele><time>2026-03-28T16:02:45Z</time></trkpt><trkpt lat="37.551997812515154" lon="15.083023637418476"><ele>281.5</ele><time>2026-03-28T16:02:46Z</time></trkpt><trkpt lat="37.55184913928911" lon="15.082765841057627"><ele>281.0</ele><time>2026-03-28T16:02:47Z</time></trkpt><trkpt lat="37.55171760845075" lon="15.082509825254276"><ele>281.5</ele><time>2026-03-28T16:02:48Z</time></trkpt><trkpt lat="37.55157828354338" lon="15.082242586552164"><ele>282.0</ele><time>2026-03-28T16:02:49Z</time></trkpt><trkpt lat="37.55145590850787" lon="15.081974140997946"><ele>282.0</ele><time>2026-03-28T16:02:50Z</time></trkpt><trkpt lat="37.55133142753158" lon="15.081706616578758"><ele>282.0</ele><time>2026-03-28T16:02:51Z</time></trkpt><trkpt lat="37.551213643941296" lon="15.081436750986061"><ele>279.5</ele><time>2026-03-28T16:02:52Z</time></trkpt><trkpt lat="37.551093641463815" lon="15.081167754858612"><ele>277.0</ele><time>2026-03-28T16:02:53Z</time></trkpt><trkpt lat="37.55097285436825" lon="15.08089271549481"><ele>279.5</ele><time>2026-03-28T16:02:54Z</time></trkpt><trkpt lat="37.55085275836263" lon="15.080619978559515"><ele>282.0</ele><time>2026-03-28T16:02:55Z</time></trkpt><trkpt lat="37.550735615642004" lon="15.08035037782854"><ele>282.0</ele><time>2026-03-28T16:02:56Z</time></trkpt><trkpt lat="37.550621178446995" lon="15.080081461711444"><ele>282.0</ele><time>2026-03-28T16:02:57Z</time></trkpt><trkpt lat="37.55050336218114" lon="15.079809593249536"><ele>281.5</ele><time>2026-03-28T16:02:58Z</time></trkpt><trkpt lat="37.55038824924782" lon="15.079539792381114"><ele>281.0</ele><time>2026-03-28T16:02:59Z</time></trkpt><trkpt lat="37.55056428279494" lon="15.079235547939943"><ele>281.6666666666667</ele><time>2026-03-28T16:03:00Z</time></trkpt><trkpt lat="37.550513179870336" lon="15.078962653751962"><ele>282.3333333333333</ele><time>2026-03-28T16:03:01Z</time></trkpt><trkpt lat="37.55046741717741" lon="15.078688470744595"><ele>283.0</ele><time>2026-03-28T16:03:02Z</time></trkpt><trkpt lat="37.550425926026506" lon="15.07842261578103"><ele>283.3333333333333</ele><time>2026-03-28T16:03:03Z</time></trkpt><trkpt lat="37.550391479209715" lon="15.07815275835906"><ele>283.6666666666667</ele><time>2026-03-28T16:03:04Z</time></trkpt><trkpt lat="37.55036561621973" lon="15.077889759070347"><ele>284.0</ele><time>2026-03-28T16:03:05Z</time></trkpt><trkpt lat="37.55014977110374" lon="15.077250668532605"><ele>281.75</ele><time>2026-03-28T16:03:06Z</time></trkpt><trkpt lat="37.550166033779135" lon="15.07716741224078"><ele>279.5</ele><time>2026-03-28T16:03:07Z</time></trkpt><trkpt lat="37.55033112064949" lon="15.077117927795111"><ele>277.25</ele><time>2026-03-28T16:03:08Z</time></trkpt><trkpt lat="37.55031956434715" lon="15.076869247445314"><ele>275.0</ele><time>2026-03-28T16:03:09Z</time></trkpt><trkpt lat="37.55030300180314" lon="15.076622326407849"><ele>275.33333333333337</ele><time>2026-03-28T16:03:10Z</time></trkpt><trkpt lat="37.55028196885643" lon="15.076365444613941"><ele>275.6666666666667</ele><time>2026-03-28T16:03:11Z</time></trkpt><trkpt lat="37.550265265464475" lon="15.07611180049028"><ele>276.0</ele><time>2026-03-28T16:03:12Z</time></trkpt><trkpt lat="37.550247278255135" lon="15.07585782259017"><ele>277.0</ele><time>2026-03-28T16:03:13Z</time></trkpt><trkpt lat="37.55022494613642" lon="15.07560235766009"><ele>278.0</ele><time>2026-03-28T16:03:14Z</time></trkpt><trkpt lat="37.55019275907671" lon="15.075347836531098"><ele>279.0</ele><time>2026-03-28T16:03:15Z</time></trkpt><trkpt lat="37.55014759677878" lon="15.075094771517715"><ele>280.0</ele><time>2026-03-28T16:03:16Z</time></trkpt><trkpt lat="37.550104046578504" lon="15.074840018543032"><ele>281.0</ele><time>2026-03-28T16:03:17Z</time></trkpt><trkpt lat="37.55005848916153" lon="15.074577651475812"><ele>282.0</ele><time>2026-03-28T16:03:18Z</time></trkpt><trkpt lat="37.550011299206595" lon="15.074310144940394"><ele>280.3333333333333</ele><time>2026-03-28T16:03:19Z</time></trkpt><trkpt lat="37.54996337496227" lon="15.074048482153986"><ele>278.66666666666663</ele><time>2026-03-28T16:03:20Z</time></trkpt><trkpt lat="37.549915578620244" lon="15.073792712400937"><ele>277.0</ele><time>2026-03-28T16:03:21Z</time></trkpt><trkpt lat="37.54986930679181" lon="15.073583819192676"><ele>277.0</ele><time>2026-03-28T16:03:22Z</time></trkpt><trkpt lat="37.549808625670025" lon="15.07337372548732"><ele>277.0</ele><time>2026-03-28T16:03:23Z</time></trkpt><trkpt lat="37.54975747511544" lon="15.07312986019693"><ele>277.0</ele><time>2026-03-28T16:03:24Z</time></trkpt><trkpt lat="37.549709781348604" lon="15.072898147920737"><ele>276.3333333333333</ele><time>2026-03-28T16:03:25Z</time></trkpt><trkpt lat="37.54966638125099" lon="15.0726588066066"><ele>275.6666666666667</ele><time>2026-03-28T16:03:26Z</time></trkpt><trkpt lat="37.54962931724142" lon="15.072413855819857"><ele>275.0</ele><time>2026-03-28T16:03:27Z</time></trkpt><trkpt lat="37.54959778015435" lon="15.072165264964676"><ele>273.0</ele><time>2026-03-28T16:03:28Z</time></trkpt><trkpt lat="37.549572547869914" lon="15.07191288174758"><ele>271.0</ele><time>2026-03-28T16:03:29Z</time></trkpt><trkpt lat="37.549550535508814" lon="15.071657441890009"><ele>269.0</ele><time>2026-03-28T16:03:30Z</time></trkpt><trkpt lat="37.5495607302116" lon="15.071409247184274"><ele>269.33333333333337</ele><time>2026-03-28T16:03:31.001Z</time></trkpt><trkpt lat="37.549559014630844" lon="15.071162612595677"><ele>269.6666666666667</ele><time>2026-03-28T16:03:32.001Z</time></trkpt><trkpt lat="37.5495616092603" lon="15.070904702291715"><ele>270.0</ele><time>2026-03-28T16:03:33.001Z</time></trkpt><trkpt lat="37.54955976907345" lon="15.070644233621499"><ele>270.0</ele><time>2026-03-28T16:03:34.001Z</time></trkpt><trkpt lat="37.54956637632546" lon="15.070400608693648"><ele>270.0</ele><time>2026-03-28T16:03:35.001Z</time></trkpt><trkpt lat="37.549584471303575" lon="15.070175811818538"><ele>270.0</ele><time>2026-03-28T16:03:36.001Z</time></trkpt><trkpt lat="37.549596832071494" lon="15.06995154957592"><ele>270.25</ele><time>2026-03-28T16:03:37.001Z</time></trkpt><trkpt lat="37.54960984897747" lon="15.069753543600143"><ele>270.5</ele><time>2026-03-28T16:03:38.001Z</time></trkpt><trkpt lat="37.549632082908445" lon="15.069575718125295"><ele>270.75</ele><time>2026-03-28T16:03:39.001Z</time></trkpt><trkpt lat="37.549681805235004" lon="15.06940500275523"><ele>271.0</ele><time>2026-03-28T16:03:40.001Z</time></trkpt><trkpt lat="37.54975219871338" lon="15.069246657078594"><ele>271.25</ele><time>2026-03-28T16:03:41.001Z</time></trkpt><trkpt lat="37.54983503367107" lon="15.06909907415839"><ele>271.5</ele><time>2026-03-28T16:03:42.001Z</time></trkpt><trkpt lat="37.54993699955525" lon="15.068958653670565"><ele>271.75</ele><time>2026-03-28T16:03:43.001Z</time></trkpt><trkpt lat="37.550053848379015" lon="15.068847546414313"><ele>272.0</ele><time>2026-03-28T16:03:44.001Z</time></trkpt><trkpt lat="37.55018795455879" lon="15.068742509331605"><ele>272.0</ele><time>2026-03-28T16:03:45.001Z</time></trkpt><trkpt lat="37.55033378409763" lon="15.068641082577994"><ele>272.0</ele><time>2026-03-28T16:03:46.001Z</time></trkpt><trkpt lat="37.55048171313652" lon="15.06853846343184"><ele>272.0</ele><time>2026-03-28T16:03:47.001Z</time></trkpt><trkpt lat="37.55062963782852" lon="15.068425761584624"><ele>274.0</ele><time>2026-03-28T16:03:48.001Z</time></trkpt><trkpt lat="37.55075204628931" lon="15.068316309176733"><ele>276.0</ele><time>2026-03-28T16:03:49.001Z</time></trkpt><trkpt lat="37.55085168814906" lon="15.068186770613423"><ele>278.0</ele><time>2026-03-28T16:03:50.001Z</time></trkpt><trkpt lat="37.55092996286857" lon="15.068021432631866"><ele>280.0</ele><time>2026-03-28T16:03:51.001Z</time></trkpt><trkpt lat="37.55099250250421" lon="15.067840776403441"><ele>280.0</ele><time>2026-03-28T16:03:52.001Z</time></trkpt><trkpt lat="37.55103195418994" lon="15.06765508777519"><ele>280.0</ele><time>2026-03-28T16:03:53.001Z</time></trkpt><trkpt lat="37.55103734238013" lon="15.067475418353787"><ele>280.0</ele><time>2026-03-28T16:03:54.001Z</time></trkpt><trkpt lat="37.55101731439939" lon="15.067294198948845"><ele>280.0</ele><time>2026-03-28T16:03:55.001Z</time></trkpt><trkpt lat="37.55096557056595" lon="15.067116814973541"><ele>279.3333333333333</ele><time>2026-03-28T16:03:56.001Z</time></trkpt><trkpt lat="37.550897822163066" lon="15.066942397693698"><ele>278.6666666666667</ele><time>2026-03-28T16:03:57.001Z</time></trkpt><trkpt lat="37.550808561835645" lon="15.06677544753743"><ele>278.0</ele><time>2026-03-28T16:03:58.001Z</time></trkpt><trkpt lat="37.55071563687541" lon="15.066611579873237"><ele>279.33333333333337</ele><time>2026-03-28T16:03:59.001Z</time></trkpt><trkpt lat="37.55061877113415" lon="15.066438986543224"><ele>280.6666666666667</ele><time>2026-03-28T16:04:00.001Z</time></trkpt><trkpt lat="37.55052339262928" lon="15.066257025347529"><ele>282.0</ele><time>2026-03-28T16:04:01.001Z</time></trkpt><trkpt lat="37.550429566283334" lon="15.06607634397061"><ele>281.0</ele><time>2026-03-28T16:04:02.001Z</time></trkpt><trkpt lat="37.55033244091447" lon="15.065895503272625"><ele>280.0</ele><time>2026-03-28T16:04:03.001Z</time></trkpt><trkpt lat="37.55024033617129" lon="15.065725623852776"><ele>279.0</ele><time>2026-03-28T16:04:04.001Z</time></trkpt><trkpt lat="37.55015285524779" lon="15.065562268384708"><ele>279.0</ele><time>2026-03-28T16:04:05.001Z</time></trkpt><trkpt lat="37.55006637793591" lon="15.065401677739187"><ele>279.0</ele><time>2026-03-28T16:04:06.001Z</time></trkpt><trkpt lat="37.54998814696643" lon="15.06524524058327"><ele>279.0</ele><time>2026-03-28T16:04:07.001Z</time></trkpt><trkpt lat="37.54993561041845" lon="15.06511188102171"><ele>279.0</ele><time>2026-03-28T16:04:08.001Z</time></trkpt><trkpt lat="37.5499173327542" lon="15.06499031287223"><ele>278.5</ele><time>2026-03-28T16:04:09.001Z</time></trkpt><trkpt lat="37.549928518034626" lon="15.064882950203575"><ele>278.0</ele><time>2026-03-28T16:04:10.001Z</time></trkpt><trkpt lat="37.54995457095215" lon="15.06480710889881"><ele>277.5</ele><time>2026-03-28T16:04:11.001Z</time></trkpt><trkpt lat="37.55000042838228" lon="15.06472207532349"><ele>277.0</ele><time>2026-03-28T16:04:13.001Z</time></trkpt><trkpt lat="37.55006472813557" lon="15.064600563757129"><ele>276.5</ele><time>2026-03-28T16:04:15.001Z</time></trkpt><trkpt lat="37.550118285862354" lon="15.06452055204683"><ele>276.0</ele><time>2026-03-28T16:04:16.001Z</time></trkpt><trkpt lat="37.55017091739288" lon="15.06445526296487"><ele>276.0</ele><time>2026-03-28T16:04:17.001Z</time></trkpt><trkpt lat="37.550259951460966" lon="15.064396310792434"><ele>276.0</ele><time>2026-03-28T16:04:19.001Z</time></trkpt><trkpt lat="37.550331151477195" lon="15.064374223690733"><ele>276.0</ele><time>2026-03-28T16:04:21.001Z</time></trkpt><trkpt lat="37.550450981561916" lon="15.064342245748657"><ele>276.0</ele><time>2026-03-28T16:04:22.999Z</time></trkpt><trkpt lat="37.550506503210926" lon="15.064287769359098"><ele>276.0</ele><time>2026-03-28T16:04:23.999Z</time></trkpt><trkpt lat="37.5505794522848" lon="15.064284080670582"><ele>276.0</ele><time>2026-03-28T16:04:24.999Z</time></trkpt><trkpt lat="37.5506454533743" lon="15.064218933695114"><ele>277.1666666666667</ele><time>2026-03-28T16:04:26.999Z</time></trkpt><trkpt lat="37.55069021384427" lon="15.064127971151152"><ele>278.3333333333333</ele><time>2026-03-28T16:04:29.999Z</time></trkpt><trkpt lat="37.550726180905215" lon="15.064052527869402"><ele>279.5</ele><time>2026-03-28T16:04:31.999Z</time></trkpt><trkpt lat="37.55077415775246" lon="15.063943791757707"><ele>280.66666666666663</ele><time>2026-03-28T16:04:33.999Z</time></trkpt><trkpt lat="37.55085644632847" lon="15.063926974790766"><ele>281.8333333333333</ele><time>2026-03-28T16:04:34.999Z</time></trkpt><trkpt lat="37.55093773150894" lon="15.063911399404994"><ele>283.0</ele><time>2026-03-28T16:04:35.999Z</time></trkpt><trkpt lat="37.551018516282646" lon="15.063920788928954"><ele>283.0</ele><time>2026-03-28T16:04:36.999Z</time></trkpt><trkpt lat="37.55109749345097" lon="15.063935215609131"><ele>283.0</ele><time>2026-03-28T16:04:37.999Z</time></trkpt><trkpt lat="37.551169822998446" lon="15.063945834841954"><ele>283.0</ele><time>2026-03-28T16:04:38.999Z</time></trkpt><trkpt lat="37.55124382870052" lon="15.063964045500393"><ele>283.0</ele><time>2026-03-28T16:04:39.999Z</time></trkpt><trkpt lat="37.5513112362092" lon="15.063984470801529"><ele>283.0</ele><time>2026-03-28T16:04:40.999Z</time></trkpt><trkpt lat="37.551430354570414" lon="15.064039124407188"><ele>283.0</ele><time>2026-03-28T16:04:43Z</time></trkpt><trkpt lat="37.551548074946496" lon="15.064102524539772"><ele>284.2</ele><time>2026-03-28T16:04:45Z</time></trkpt><trkpt lat="37.551613804578416" lon="15.064144081384521"><ele>285.4</ele><time>2026-03-28T16:04:46Z</time></trkpt><trkpt lat="37.55168566534082" lon="15.064192176936244"><ele>286.59999999999997</ele><time>2026-03-28T16:04:47Z</time></trkpt><trkpt lat="37.551763581456704" lon="15.064255911602324"><ele>287.8</ele><time>2026-03-28T16:04:48Z</time></trkpt><trkpt lat="37.5518433332509" lon="15.064321819478266"><ele>289.0</ele><time>2026-03-28T16:04:49Z</time></trkpt><trkpt lat="37.551930569169556" lon="15.06440163808275"><ele>289.0</ele><time>2026-03-28T16:04:50Z</time></trkpt><trkpt lat="37.55201905224266" lon="15.064483242894484"><ele>289.0</ele><time>2026-03-28T16:04:51Z</time></trkpt><trkpt lat="37.55211005833931" lon="15.06457395164324"><ele>289.0</ele><time>2026-03-28T16:04:52Z</time></trkpt><trkpt lat="37.55220530549045" lon="15.06466728378915"><ele>289.0</ele><time>2026-03-28T16:04:53Z</time></trkpt><trkpt lat="37.552305142296895" lon="15.064765010226028"><ele>289.4</ele><time>2026-03-28T16:04:54Z</time></trkpt><trkpt lat="37.55239369737314" lon="15.064851348858463"><ele>289.79999999999995</ele><time>2026-03-28T16:04:55Z</time></trkpt><trkpt lat="37.552474114698946" lon="15.064936623189631"><ele>290.20000000000005</ele><time>2026-03-28T16:04:56Z</time></trkpt><trkpt lat="37.55253950638672" lon="15.06501235620926"><ele>290.6</ele><time>2026-03-28T16:04:57Z</time></trkpt><trkpt lat="37.55260594651369" lon="15.06508031307353"><ele>291.0</ele><time>2026-03-28T16:04:58Z</time></trkpt><trkpt lat="37.5526585473874" lon="15.065134661258517"><ele>291.6666666666667</ele><time>2026-03-28T16:04:59Z</time></trkpt><trkpt lat="37.55271728134057" lon="15.065193023646316"><ele>292.3333333333333</ele><time>2026-03-28T16:05:00Z</time></trkpt><trkpt lat="37.55277393757488" lon="15.065250296817766"><ele>293.0</ele><time>2026-03-28T16:05:01Z</time></trkpt><trkpt lat="37.55283967891457" lon="15.065307939282524"><ele>293.66666666666663</ele><time>2026-03-28T16:05:02Z</time></trkpt><trkpt lat="37.552911153037336" lon="15.065378208504104"><ele>294.3333333333333</ele><time>2026-03-28T16:05:03Z</time></trkpt><trkpt lat="37.5529771468959" lon="15.065443547762786"><ele>295.0</ele><time>2026-03-28T16:05:04Z</time></trkpt><trkpt lat="37.553046133528596" lon="15.065502883007545"><ele>295.8333333333333</ele><time>2026-03-28T16:05:05Z</time></trkpt><trkpt lat="37.55311925790525" lon="15.065560904964732"><ele>296.66666666666663</ele><time>2026-03-28T16:05:06Z</time></trkpt><trkpt lat="37.55319478127732" lon="15.065614382321689"><ele>297.5</ele><time>2026-03-28T16:05:07Z</time></trkpt><trkpt lat="37.55326035292778" lon="15.065661334354415"><ele>298.3333333333333</ele><time>2026-03-28T16:05:08Z</time></trkpt><trkpt lat="37.55331858224644" lon="15.065703026031127"><ele>299.1666666666667</ele><time>2026-03-28T16:05:09Z</time></trkpt><trkpt lat="37.55339574800494" lon="15.065755983301363"><ele>300.0</ele><time>2026-03-28T16:05:11Z</time></trkpt><trkpt lat="37.55347871414929" lon="15.065798050309741"><ele>300.6</ele><time>2026-03-28T16:05:13Z</time></trkpt><trkpt lat="37.55355140806438" lon="15.065837022018128"><ele>301.2</ele><time>2026-03-28T16:05:16Z</time></trkpt><trkpt lat="37.55365620662014" lon="15.065871817194486"><ele>301.8</ele><time>2026-03-28T16:05:19Z</time></trkpt><trkpt lat="37.553769603133034" lon="15.065903591930327"><ele>302.4</ele><time>2026-03-28T16:05:21Z</time></trkpt><trkpt lat="37.5538878425669" lon="15.065928789644946"><ele>303.0</ele><time>2026-03-28T16:05:23Z</time></trkpt><trkpt lat="37.55398582831033" lon="15.065959629990628"><ele>304.0</ele><time>2026-03-28T16:05:25Z</time></trkpt><trkpt lat="37.554109470979135" lon="15.065983676208896"><ele>305.0</ele><time>2026-03-28T16:05:27Z</time></trkpt><trkpt lat="37.55418007297696" lon="15.0659989458635"><ele>306.0</ele><time>2026-03-28T16:05:28Z</time></trkpt><trkpt lat="37.55424570707496" lon="15.066016692675802"><ele>307.0</ele><time>2026-03-28T16:05:29Z</time></trkpt><trkpt lat="37.554351402865464" lon="15.066044353448493"><ele>308.0</ele><time>2026-03-28T16:05:31Z</time></trkpt><trkpt lat="37.55446111973517" lon="15.066071765773248"><ele>310.0</ele><time>2026-03-28T16:05:33.001Z</time></trkpt><trkpt lat="37.5545731662831" lon="15.06609564918305"><ele>312.0</ele><time>2026-03-28T16:05:35.001Z</time></trkpt><trkpt lat="37.55469302794366" lon="15.06611503297982"><ele>314.0</ele><time>2026-03-28T16:05:37.001Z</time></trkpt><trkpt lat="37.55475743173375" lon="15.066130219795237"><ele>316.0</ele><time>2026-03-28T16:05:38.001Z</time></trkpt><trkpt lat="37.55482628530244" lon="15.066145270685533"><ele>318.0</ele><time>2026-03-28T16:05:39.001Z</time></trkpt><trkpt lat="37.55490256531048" lon="15.066157714169139"><ele>320.0</ele><time>2026-03-28T16:05:40.001Z</time></trkpt><trkpt lat="37.55498118148508" lon="15.066168397922151"><ele>320.0</ele><time>2026-03-28T16:05:41.001Z</time></trkpt><trkpt lat="37.5550674301017" lon="15.066178116932093"><ele>320.0</ele><time>2026-03-28T16:05:42.001Z</time></trkpt><trkpt lat="37.55515514310003" lon="15.066190355552038"><ele>320.0</ele><time>2026-03-28T16:05:43.001Z</time></trkpt><trkpt lat="37.555246812877634" lon="15.06619614804832"><ele>320.0</ele><time>2026-03-28T16:05:44.001Z</time></trkpt><trkpt lat="37.55534400312756" lon="15.06620195239072"><ele>320.0</ele><time>2026-03-28T16:05:45.001Z</time></trkpt><trkpt lat="37.55544080407214" lon="15.0662047624605"><ele>321.0</ele><time>2026-03-28T16:05:46.001Z</time></trkpt><trkpt lat="37.555540202475775" lon="15.066202393074787"><ele>322.0</ele><time>2026-03-28T16:05:47.001Z</time></trkpt><trkpt lat="37.5556410898749" lon="15.066193411335846"><ele>323.0</ele><time>2026-03-28T16:05:48.001Z</time></trkpt><trkpt lat="37.55573993949262" lon="15.066181200807906"><ele>324.0</ele><time>2026-03-28T16:05:49.001Z</time></trkpt><trkpt lat="37.55583679312373" lon="15.066177091212252"><ele>325.0</ele><time>2026-03-28T16:05:50.001Z</time></trkpt><trkpt lat="37.55592851052861" lon="15.066170902771919"><ele>325.0</ele><time>2026-03-28T16:05:51.001Z</time></trkpt><trkpt lat="37.55601988699986" lon="15.066163906427454"><ele>325.0</ele><time>2026-03-28T16:05:52.001Z</time></trkpt><trkpt lat="37.556111024209564" lon="15.066155645774375"><ele>325.0</ele><time>2026-03-28T16:05:53.001Z</time></trkpt><trkpt lat="37.556201338711936" lon="15.066148459598452"><ele>325.0</ele><time>2026-03-28T16:05:54.001Z</time></trkpt><trkpt lat="37.55628755990273" lon="15.066141156069051"><ele>325.0</ele><time>2026-03-28T16:05:55.001Z</time></trkpt><trkpt lat="37.55637158707293" lon="15.066131928483557"><ele>325.0</ele><time>2026-03-28T16:05:56.001Z</time></trkpt><trkpt lat="37.556457233180595" lon="15.066122856640344"><ele>326.0</ele><time>2026-03-28T16:05:57.001Z</time></trkpt><trkpt lat="37.55654768293064" lon="15.06611531834553"><ele>327.0</ele><time>2026-03-28T16:05:58.001Z</time></trkpt><trkpt lat="37.556640510844396" lon="15.06610977591154"><ele>328.0</ele><time>2026-03-28T16:05:59.001Z</time></trkpt><trkpt lat="37.55673333881669" lon="15.06610722509658"><ele>329.0</ele><time>2026-03-28T16:06:00.001Z</time></trkpt><trkpt lat="37.55682520774165" lon="15.06611148201839"><ele>330.0</ele><time>2026-03-28T16:06:01.001Z</time></trkpt><trkpt lat="37.55690917683644" lon="15.066117316362092"><ele>330.0</ele><time>2026-03-28T16:06:02.001Z</time></trkpt><trkpt lat="37.55698611727672" lon="15.06612823008117"><ele>330.0</ele><time>2026-03-28T16:06:03.001Z</time></trkpt><trkpt lat="37.557049810265084" lon="15.06614214353656"><ele>330.0</ele><time>2026-03-28T16:06:04.001Z</time></trkpt><trkpt lat="37.55715035015981" lon="15.066178927009842"><ele>330.0</ele><time>2026-03-28T16:06:06.001Z</time></trkpt><trkpt lat="37.55725234011649" lon="15.066257543693073"><ele>330.0</ele><time>2026-03-28T16:06:08.001Z</time></trkpt><trkpt lat="37.557339819652924" lon="15.066335080304528"><ele>331.6</ele><time>2026-03-28T16:06:10.001Z</time></trkpt><trkpt lat="37.55744296643665" lon="15.066299276942013"><ele>333.2</ele><time>2026-03-28T16:06:12.001Z</time></trkpt><trkpt lat="37.55750330691007" lon="15.06627487746815"><ele>334.79999999999995</ele><time>2026-03-28T16:06:13.001Z</time></trkpt><trkpt lat="37.55757288432729" lon="15.066274914175768"><ele>336.4</ele><time>2026-03-28T16:06:14.001Z</time></trkpt><trkpt lat="37.55768692813527" lon="15.066302562745335"><ele>338.0</ele><time>2026-03-28T16:06:16.001Z</time></trkpt><trkpt lat="37.557788247452386" lon="15.066340932376438"><ele>340.75</ele><time>2026-03-28T16:06:18.001Z</time></trkpt><trkpt lat="37.557896525521265" lon="15.066388947642851"><ele>343.5</ele><time>2026-03-28T16:06:20.001Z</time></trkpt><trkpt lat="37.55800772855415" lon="15.06644121924047"><ele>346.25</ele><time>2026-03-28T16:06:22.001Z</time></trkpt><trkpt lat="37.55810491314713" lon="15.066497648254117"><ele>349.0</ele><time>2026-03-28T16:06:24.001Z</time></trkpt><trkpt lat="37.55820287161177" lon="15.066560841830261"><ele>349.25</ele><time>2026-03-28T16:06:26.001Z</time></trkpt><trkpt lat="37.558314016032625" lon="15.066625956118548"><ele>349.5</ele><time>2026-03-28T16:06:27.999Z</time></trkpt><trkpt lat="37.55841317851303" lon="15.066682267933054"><ele>349.75</ele><time>2026-03-28T16:06:29.999Z</time></trkpt><trkpt lat="37.55851416477756" lon="15.066747102181976"><ele>350.0</ele><time>2026-03-28T16:06:31.999Z</time></trkpt><trkpt lat="37.55861934235354" lon="15.066818080309064"><ele>350.5</ele><time>2026-03-28T16:06:33.999Z</time></trkpt><trkpt lat="37.55871040024467" lon="15.066880906762703"><ele>351.0</ele><time>2026-03-28T16:06:35.999Z</time></trkpt><trkpt lat="37.55879476125545" lon="15.066935456722105"><ele>351.5</ele><time>2026-03-28T16:06:37.999Z</time></trkpt><trkpt lat="37.55886174829771" lon="15.066976074008078"><ele>352.0</ele><time>2026-03-28T16:06:39.999Z</time></trkpt><trkpt lat="37.55892753836567" lon="15.067020250217556"><ele>352.5</ele><time>2026-03-28T16:06:41.999Z</time></trkpt><trkpt lat="37.55900035608122" lon="15.06706860062344"><ele>353.0</ele><time>2026-03-28T16:06:44.999Z</time></trkpt><trkpt lat="37.55906105678284" lon="15.067103955753927"><ele>353.0</ele><time>2026-03-28T16:06:47Z</time></trkpt><trkpt lat="37.5591413760631" lon="15.067151978048756"><ele>353.0</ele><time>2026-03-28T16:06:49Z</time></trkpt><trkpt lat="37.55922598367036" lon="15.067206157308018"><ele>353.0</ele><time>2026-03-28T16:06:51Z</time></trkpt><trkpt lat="37.55932994466975" lon="15.06727632833876"><ele>353.0</ele><time>2026-03-28T16:06:53Z</time></trkpt><trkpt lat="37.55938698409326" lon="15.067314702115157"><ele>353.0</ele><time>2026-03-28T16:06:54Z</time></trkpt><trkpt lat="37.55944746897205" lon="15.067351739237951"><ele>353.0</ele><time>2026-03-28T16:06:55Z</time></trkpt><trkpt lat="37.5595083508859" lon="15.067385313586252"><ele>353.1666666666667</ele><time>2026-03-28T16:06:56Z</time></trkpt><trkpt lat="37.559601682077535" lon="15.067440906352982"><ele>353.33333333333337</ele><time>2026-03-28T16:06:58Z</time></trkpt><trkpt lat="37.55967703313075" lon="15.06749304755925"><ele>353.5</ele><time>2026-03-28T16:07:00Z</time></trkpt><trkpt lat="37.55974275506256" lon="15.067536431339985"><ele>353.6666666666667</ele><time>2026-03-28T16:07:02Z</time></trkpt><trkpt lat="37.55981475617772" lon="15.067574179878408"><ele>353.8333333333333</ele><time>2026-03-28T16:07:04Z</time></trkpt><trkpt lat="37.55988589829141" lon="15.067617880617496"><ele>354.0</ele><time>2026-03-28T16:07:07Z</time></trkpt><trkpt lat="37.55994260711465" lon="15.06765481623041"><ele>354.0</ele><time>2026-03-28T16:07:15Z</time></trkpt><trkpt lat="37.56004631346007" lon="15.067723346409275"><ele>354.0</ele><time>2026-03-28T16:07:17Z</time></trkpt><trkpt lat="37.56015041674005" lon="15.067788378529308"><ele>354.0</ele><time>2026-03-28T16:07:19Z</time></trkpt><trkpt lat="37.5602407793555" lon="15.067841093974927"><ele>354.0</ele><time>2026-03-28T16:07:21Z</time></trkpt><trkpt lat="37.56033672315861" lon="15.067904447535165"><ele>354.0</ele><time>2026-03-28T16:07:23Z</time></trkpt><trkpt lat="37.5604340952066" lon="15.067972513319559"><ele>354.2</ele><time>2026-03-28T16:07:25Z</time></trkpt><trkpt lat="37.56051461880029" lon="15.068029233521976"><ele>354.4</ele><time>2026-03-28T16:07:27Z</time></trkpt><trkpt lat="37.560572693806236" lon="15.068087101227418"><ele>354.6</ele><time>2026-03-28T16:07:30Z</time></trkpt><trkpt lat="37.56067393468278" lon="15.068189941494886"><ele>354.8</ele><time>2026-03-28T16:07:32Z</time></trkpt><trkpt lat="37.56072838931375" lon="15.068265387419066"><ele>355.0</ele><time>2026-03-28T16:07:33Z</time></trkpt><trkpt lat="37.56078918604732" lon="15.06831996454929"><ele>355.0</ele><time>2026-03-28T16:07:34Z</time></trkpt><trkpt lat="37.5608860563509" lon="15.068353152637055"><ele>355.0</ele><time>2026-03-28T16:07:36.001Z</time></trkpt><trkpt lat="37.560993260064386" lon="15.068327697642804"><ele>355.0</ele><time>2026-03-28T16:07:38.001Z</time></trkpt><trkpt lat="37.56105422160119" lon="15.068302815895379"><ele>355.0</ele><time>2026-03-28T16:07:39.001Z</time></trkpt><trkpt lat="37.56111522550397" lon="15.068276834014863"><ele>355.0</ele><time>2026-03-28T16:07:40.001Z</time></trkpt><trkpt lat="37.56117754631333" lon="15.06825351074287"><ele>355.0</ele><time>2026-03-28T16:07:41.001Z</time></trkpt><trkpt lat="37.56124021545491" lon="15.068234288651015"><ele>355.8333333333333</ele><time>2026-03-28T16:07:42.001Z</time></trkpt><trkpt lat="37.5613021873179" lon="15.068215116390192"><ele>356.66666666666663</ele><time>2026-03-28T16:07:43.001Z</time></trkpt><trkpt lat="37.56136133419652" lon="15.068184493802576"><ele>357.5</ele><time>2026-03-28T16:07:44.001Z</time></trkpt><trkpt lat="37.561442814928796" lon="15.068128279168102"><ele>358.3333333333333</ele><time>2026-03-28T16:07:46.001Z</time></trkpt><trkpt lat="37.56150329640116" lon="15.068084794476047"><ele>359.1666666666667</ele><time>2026-03-28T16:07:48.001Z</time></trkpt><trkpt lat="37.56159508190893" lon="15.068021484684998"><ele>360.0</ele><time>2026-03-28T16:07:50.001Z</time></trkpt><trkpt lat="37.561684634585255" lon="15.067957383781378"><ele>360.0</ele><time>2026-03-28T16:07:52.001Z</time></trkpt><trkpt lat="37.56177522950182" lon="15.067888843684397"><ele>360.0</ele><time>2026-03-28T16:07:54.001Z</time></trkpt><trkpt lat="37.56188668113628" lon="15.067808049828262"><ele>360.0</ele><time>2026-03-28T16:07:56.001Z</time></trkpt><trkpt lat="37.561954907193936" lon="15.067763725286527"><ele>360.0</ele><time>2026-03-28T16:07:57.001Z</time></trkpt><trkpt lat="37.562016828050574" lon="15.067722099862525"><ele>360.0</ele><time>2026-03-28T16:07:58.001Z</time></trkpt><trkpt lat="37.56208095574644" lon="15.067674943158236"><ele>360.1666666666667</ele><time>2026-03-28T16:07:59.001Z</time></trkpt><trkpt lat="37.562147956244594" lon="15.067623674462554"><ele>360.3333333333333</ele><time>2026-03-28T16:08:00.001Z</time></trkpt><trkpt lat="37.56221815374051" lon="15.067571958054415"><ele>360.5</ele><time>2026-03-28T16:08:01.001Z</time></trkpt><trkpt lat="37.562286964950914" lon="15.06752274465863"><ele>360.66666666666663</ele><time>2026-03-28T16:08:02.001Z</time></trkpt><trkpt lat="37.56235052607725" lon="15.067476400855712"><ele>360.8333333333333</ele><time>2026-03-28T16:08:03.001Z</time></trkpt><trkpt lat="37.562417059238484" lon="15.067426845819329"><ele>361.0</ele><time>2026-03-28T16:08:04.001Z</time></trkpt><trkpt lat="37.56248294597878" lon="15.067379504577252"><ele>361.66666666666663</ele><time>2026-03-28T16:08:05.001Z</time></trkpt><trkpt lat="37.562546639352455" lon="15.067331158494117"><ele>362.3333333333333</ele><time>2026-03-28T16:08:06.001Z</time></trkpt><trkpt lat="37.56261286741474" lon="15.067283878401627"><ele>363.0</ele><time>2026-03-28T16:08:07.001Z</time></trkpt><trkpt lat="37.562678636343236" lon="15.067237235987783"><ele>363.6666666666667</ele><time>2026-03-28T16:08:08.001Z</time></trkpt><trkpt lat="37.56274650585658" lon="15.067186630094682"><ele>364.33333333333337</ele><time>2026-03-28T16:08:09.001Z</time></trkpt><trkpt lat="37.56281440274582" lon="15.067139680931747"><ele>365.0</ele><time>2026-03-28T16:08:10.001Z</time></trkpt><trkpt lat="37.56287560649891" lon="15.067094698612273"><ele>365.6666666666667</ele><time>2026-03-28T16:08:11.001Z</time></trkpt><trkpt lat="37.562937094128564" lon="15.067046240194198"><ele>366.33333333333337</ele><time>2026-03-28T16:08:12.001Z</time></trkpt><trkpt lat="37.56299784830273" lon="15.066999458249139"><ele>367.0</ele><time>2026-03-28T16:08:13.001Z</time></trkpt><trkpt lat="37.563058459720864" lon="15.066953905556494"><ele>367.6666666666667</ele><time>2026-03-28T16:08:14.001Z</time></trkpt><trkpt lat="37.56311577922947" lon="15.066914272739949"><ele>368.3333333333333</ele><time>2026-03-28T16:08:15.001Z</time></trkpt><trkpt lat="37.56320046029143" lon="15.066850705151072"><ele>369.0</ele><time>2026-03-28T16:08:17.001Z</time></trkpt><trkpt lat="37.5632895042929" lon="15.066778391114822"><ele>369.0</ele><time>2026-03-28T16:08:19.001Z</time></trkpt><trkpt lat="37.56334230595231" lon="15.066734895718229"><ele>369.0</ele><time>2026-03-28T16:08:20.001Z</time></trkpt><trkpt lat="37.56340021940369" lon="15.066685105768666"><ele>369.0</ele><time>2026-03-28T16:08:21.001Z</time></trkpt><trkpt lat="37.5634584778032" lon="15.066635476396636"><ele>369.0</ele><time>2026-03-28T16:08:22.001Z</time></trkpt><trkpt lat="37.563512116794236" lon="15.06658928478383"><ele>369.0</ele><time>2026-03-28T16:08:23.001Z</time></trkpt><trkpt lat="37.56356702966325" lon="15.066539712025076"><ele>369.0</ele><time>2026-03-28T16:08:24.001Z</time></trkpt><trkpt lat="37.5636246672361" lon="15.066486662972762"><ele>369.0</ele><time>2026-03-28T16:08:25.001Z</time></trkpt><trkpt lat="37.56371830507592" lon="15.066413548005732"><ele>369.6</ele><time>2026-03-28T16:08:27.001Z</time></trkpt><trkpt lat="37.563770162106245" lon="15.066367245136426"><ele>370.2</ele><time>2026-03-28T16:08:30.001Z</time></trkpt><trkpt lat="37.563858654008435" lon="15.066286054108454"><ele>370.8</ele><time>2026-03-28T16:08:33.001Z</time></trkpt><trkpt lat="37.563965487699846" lon="15.06619473126387"><ele>371.40000000000003</ele><time>2026-03-28T16:08:35Z</time></trkpt><trkpt lat="37.56403197574481" lon="15.066134218583672"><ele>372.0</ele><time>2026-03-28T16:08:36Z</time></trkpt><trkpt lat="37.56410694998316" lon="15.066094000722366"><ele>372.0</ele><time>2026-03-28T16:08:37Z</time></trkpt><trkpt lat="37.56418080836854" lon="15.066032159313298"><ele>372.0</ele><time>2026-03-28T16:08:38Z</time></trkpt><trkpt lat="37.564248226306105" lon="15.06595316070613"><ele>372.0</ele><time>2026-03-28T16:08:39Z</time></trkpt><trkpt lat="37.5643441504679" lon="15.065898487755558"><ele>372.0</ele><time>2026-03-28T16:08:40Z</time></trkpt><trkpt lat="37.56443430501372" lon="15.065824659136135"><ele>372.0</ele><time>2026-03-28T16:08:41Z</time></trkpt><trkpt lat="37.564531801596196" lon="15.065740325934453"><ele>372.5</ele><time>2026-03-28T16:08:42Z</time></trkpt><trkpt lat="37.56463180460363" lon="15.065626891046499"><ele>373.0</ele><time>2026-03-28T16:08:43Z</time></trkpt><trkpt lat="37.56475441707299" lon="15.065526083792665"><ele>373.5</ele><time>2026-03-28T16:08:44Z</time></trkpt><trkpt lat="37.564875126687944" lon="15.06539750945315"><ele>374.0</ele><time>2026-03-28T16:08:45Z</time></trkpt><trkpt lat="37.564986196375436" lon="15.065255702400123"><ele>374.0</ele><time>2026-03-28T16:08:46Z</time></trkpt><trkpt lat="37.56507812280482" lon="15.065113607595968"><ele>374.0</ele><time>2026-03-28T16:08:47Z</time></trkpt><trkpt lat="37.5651502045076" lon="15.064968168988495"><ele>374.0</ele><time>2026-03-28T16:08:48Z</time></trkpt><trkpt lat="37.565212647797" lon="15.064810166449524"><ele>374.0</ele><time>2026-03-28T16:08:49Z</time></trkpt><trkpt lat="37.565262948807245" lon="15.064650618605542"><ele>373.25</ele><time>2026-03-28T16:08:50Z</time></trkpt><trkpt lat="37.565304165589474" lon="15.064491702012743"><ele>372.5</ele><time>2026-03-28T16:08:51Z</time></trkpt><trkpt lat="37.565338608199596" lon="15.064336145756627"><ele>371.75</ele><time>2026-03-28T16:08:52Z</time></trkpt><trkpt lat="37.565367491658364" lon="15.064192937424407"><ele>371.0</ele><time>2026-03-28T16:08:53Z</time></trkpt><trkpt lat="37.56539281760451" lon="15.06406364072286"><ele>372.4</ele><time>2026-03-28T16:08:54Z</time></trkpt><trkpt lat="37.56541618545556" lon="15.063939761775476"><ele>373.8</ele><time>2026-03-28T16:08:55Z</time></trkpt><trkpt lat="37.565438618492266" lon="15.063820501073009"><ele>375.2</ele><time>2026-03-28T16:08:56Z</time></trkpt><trkpt lat="37.565461188254034" lon="15.063691348733716"><ele>376.59999999999997</ele><time>2026-03-28T16:08:57Z</time></trkpt><trkpt lat="37.56548866625172" lon="15.06355847754706"><ele>378.0</ele><time>2026-03-28T16:08:58Z</time></trkpt><trkpt lat="37.56551701474725" lon="15.063415360226948"><ele>377.79999999999995</ele><time>2026-03-28T16:08:59Z</time></trkpt><trkpt lat="37.56554122261396" lon="15.063278340661103"><ele>377.6</ele><time>2026-03-28T16:09:00Z</time></trkpt><trkpt lat="37.56556372138893" lon="15.063152726353758"><ele>377.4</ele><time>2026-03-28T16:09:01Z</time></trkpt><trkpt lat="37.5655911148174" lon="15.063023502022395"><ele>377.20000000000005</ele><time>2026-03-28T16:09:02Z</time></trkpt><trkpt lat="37.56563073775388" lon="15.062893719512129"><ele>377.0</ele><time>2026-03-28T16:09:03Z</time></trkpt><trkpt lat="37.5656847426928" lon="15.062770000265258"><ele>377.0</ele><time>2026-03-28T16:09:04Z</time></trkpt><trkpt lat="37.56575043756215" lon="15.0626496135698"><ele>377.0</ele><time>2026-03-28T16:09:05Z</time></trkpt><trkpt lat="37.56581198307744" lon="15.062539242105778"><ele>377.0</ele><time>2026-03-28T16:09:06Z</time></trkpt><trkpt lat="37.56586770397959" lon="15.062439696235044"><ele>377.0</ele><time>2026-03-28T16:09:07Z</time></trkpt><trkpt lat="37.5659231597492" lon="15.062343294717095"><ele>377.0</ele><time>2026-03-28T16:09:08Z</time></trkpt><trkpt lat="37.565983743624585" lon="15.062236917772472"><ele>377.20000000000005</ele><time>2026-03-28T16:09:09Z</time></trkpt><trkpt lat="37.56604863804677" lon="15.062122769621816"><ele>377.4</ele><time>2026-03-28T16:09:10Z</time></trkpt><trkpt lat="37.56611418403114" lon="15.062005669250103"><ele>377.6</ele><time>2026-03-28T16:09:11Z</time></trkpt><trkpt lat="37.56617105318714" lon="15.061907335597796"><ele>377.79999999999995</ele><time>2026-03-28T16:09:12Z</time></trkpt><trkpt lat="37.5662180446179" lon="15.061824564651042"><ele>378.0</ele><time>2026-03-28T16:09:13Z</time></trkpt><trkpt lat="37.56626321953691" lon="15.06174604775539"><ele>378.6666666666667</ele><time>2026-03-28T16:09:14Z</time></trkpt><trkpt lat="37.56630997015461" lon="15.061663198006922"><ele>379.3333333333333</ele><time>2026-03-28T16:09:15Z</time></trkpt><trkpt lat="37.56635990434115" lon="15.061572177610397"><ele>380.0</ele><time>2026-03-28T16:09:16Z</time></trkpt><trkpt lat="37.56640652284315" lon="15.061484768864103"><ele>380.66666666666663</ele><time>2026-03-28T16:09:17Z</time></trkpt><trkpt lat="37.566446492778816" lon="15.061408808242511"><ele>381.3333333333333</ele><time>2026-03-28T16:09:18Z</time></trkpt><trkpt lat="37.566486390624725" lon="15.061343086797038"><ele>382.0</ele><time>2026-03-28T16:09:19Z</time></trkpt><trkpt lat="37.56658662741559" lon="15.061251856570784"><ele>382.0</ele><time>2026-03-28T16:09:21Z</time></trkpt><trkpt lat="37.56664986650284" lon="15.061212188252748"><ele>382.0</ele><time>2026-03-28T16:09:22Z</time></trkpt><trkpt lat="37.5667022439281" lon="15.061160407093928"><ele>382.0</ele><time>2026-03-28T16:09:23Z</time></trkpt><trkpt lat="37.566790241065895" lon="15.061047541495572"><ele>382.0</ele><time>2026-03-28T16:09:25Z</time></trkpt><trkpt lat="37.56676388364979" lon="15.060915482619714"><ele>382.0</ele><time>2026-03-28T16:09:26Z</time></trkpt><trkpt lat="37.566787567515604" lon="15.060816274691248"><ele>382.16666666666663</ele><time>2026-03-28T16:09:27Z</time></trkpt><trkpt lat="37.566826526430894" lon="15.060719087972112"><ele>382.3333333333333</ele><time>2026-03-28T16:09:28Z</time></trkpt><trkpt lat="37.56687592523938" lon="15.060624316601164"><ele>382.5</ele><time>2026-03-28T16:09:29Z</time></trkpt><trkpt lat="37.56692678641346" lon="15.060535729852383"><ele>382.6666666666667</ele><time>2026-03-28T16:09:30Z</time></trkpt><trkpt lat="37.56697298850474" lon="15.060458160487745"><ele>382.83333333333337</ele><time>2026-03-28T16:09:31Z</time></trkpt><trkpt lat="37.56701310161531" lon="15.06039028534103"><ele>383.0</ele><time>2026-03-28T16:09:32Z</time></trkpt><trkpt lat="37.567087395410425" lon="15.060254005784042"><ele>383.83333333333337</ele><time>2026-03-28T16:09:34Z</time></trkpt><trkpt lat="37.56713041544602" lon="15.06017533051626"><ele>384.6666666666667</ele><time>2026-03-28T16:09:35Z</time></trkpt><trkpt lat="37.5671776016938" lon="15.060089233940545"><ele>385.5</ele><time>2026-03-28T16:09:36Z</time></trkpt><trkpt lat="37.56722741705124" lon="15.059995884722337"><ele>386.33333333333337</ele><time>2026-03-28T16:09:37Z</time></trkpt><trkpt lat="37.56727924948585" lon="15.05990300812773"><ele>387.1666666666667</ele><time>2026-03-28T16:09:38Z</time></trkpt><trkpt lat="37.5673274789762" lon="15.059821904903359"><ele>388.0</ele><time>2026-03-28T16:09:39Z</time></trkpt><trkpt lat="37.56737385237202" lon="15.059742103017355"><ele>388.2</ele><time>2026-03-28T16:09:40Z</time></trkpt><trkpt lat="37.56742757001671" lon="15.059659543264088"><ele>388.4</ele><time>2026-03-28T16:09:41Z</time></trkpt><trkpt lat="37.56748702012585" lon="15.059569137884548"><ele>388.59999999999997</ele><time>2026-03-28T16:09:42Z</time></trkpt><trkpt lat="37.56755638077466" lon="15.059478531664986"><ele>388.79999999999995</ele><time>2026-03-28T16:09:43Z</time></trkpt><trkpt lat="37.56763153097093" lon="15.05938271877065"><ele>389.0</ele><time>2026-03-28T16:09:44Z</time></trkpt><trkpt lat="37.56770802790668" lon="15.059292346286057"><ele>388.99999999999994</ele><time>2026-03-28T16:09:45Z</time></trkpt><trkpt lat="37.56778244067267" lon="15.05921954045919"><ele>389.0</ele><time>2026-03-28T16:09:46.001Z</time></trkpt><trkpt lat="37.567853847905816" lon="15.059155710135434"><ele>389.0</ele><time>2026-03-28T16:09:47.001Z</time></trkpt><trkpt lat="37.56792057193673" lon="15.05910127281995"><ele>389.0</ele><time>2026-03-28T16:09:48.001Z</time></trkpt><trkpt lat="37.567978673458775" lon="15.059051572543664"><ele>388.99999999999994</ele><time>2026-03-28T16:09:49.001Z</time></trkpt><trkpt lat="37.568030586138576" lon="15.059006149266443"><ele>389.0</ele><time>2026-03-28T16:09:50.001Z</time></trkpt><trkpt lat="37.568136426370216" lon="15.058925681449152"><ele>389.66666666666663</ele><time>2026-03-28T16:09:52.001Z</time></trkpt><trkpt lat="37.56819731971042" lon="15.058886639631707"><ele>390.3333333333333</ele><time>2026-03-28T16:09:53.001Z</time></trkpt><trkpt lat="37.568263578334495" lon="15.058845192099774"><ele>391.0</ele><time>2026-03-28T16:09:54.001Z</time></trkpt><trkpt lat="37.56832685231659" lon="15.058808721224741"><ele>391.66666666666663</ele><time>2026-03-28T16:09:55.001Z</time></trkpt><trkpt lat="37.56838999148752" lon="15.05877367556047"><ele>392.3333333333333</ele><time>2026-03-28T16:09:56.001Z</time></trkpt><trkpt lat="37.56849934160985" lon="15.058725350282405"><ele>393.0</ele><time>2026-03-28T16:09:58.001Z</time></trkpt><trkpt lat="37.56861940186303" lon="15.058677330524917"><ele>393.0</ele><time>2026-03-28T16:10:00.001Z</time></trkpt><trkpt lat="37.56868513249613" lon="15.05865048978013"><ele>393.0</ele><time>2026-03-28T16:10:01.001Z</time></trkpt><trkpt lat="37.568758932477664" lon="15.058623454773823"><ele>393.0</ele><time>2026-03-28T16:10:02.001Z</time></trkpt><trkpt lat="37.56883743863158" lon="15.058596941671777"><ele>393.0</ele><time>2026-03-28T16:10:03.001Z</time></trkpt><trkpt lat="37.568920402472116" lon="15.058574267309737"><ele>393.0</ele><time>2026-03-28T16:10:04.001Z</time></trkpt><trkpt lat="37.569008059652234" lon="15.058551051184981"><ele>393.0</ele><time>2026-03-28T16:10:05.001Z</time></trkpt><trkpt lat="37.569095807989434" lon="15.058532429413345"><ele>394.0</ele><time>2026-03-28T16:10:06.001Z</time></trkpt><trkpt lat="37.56917976124338" lon="15.058518234791247"><ele>395.0</ele><time>2026-03-28T16:10:07.001Z</time></trkpt><trkpt lat="37.5692577603339" lon="15.058508765770053"><ele>396.0</ele><time>2026-03-28T16:10:08.001Z</time></trkpt><trkpt lat="37.569332149868835" lon="15.058500457185596"><ele>397.0</ele><time>2026-03-28T16:10:09.001Z</time></trkpt><trkpt lat="37.56940826739875" lon="15.058490515487573"><ele>398.0</ele><time>2026-03-28T16:10:10.001Z</time></trkpt><trkpt lat="37.5694890444168" lon="15.058479010888094"><ele>399.0</ele><time>2026-03-28T16:10:11.001Z</time></trkpt><trkpt lat="37.56957002356519" lon="15.058472243127747"><ele>399.6666666666667</ele><time>2026-03-28T16:10:12.001Z</time></trkpt><trkpt lat="37.569656892693644" lon="15.058461858212608"><ele>400.33333333333337</ele><time>2026-03-28T16:10:13.001Z</time></trkpt><trkpt lat="37.56974918704554" lon="15.058454188786678"><ele>401.0</ele><time>2026-03-28T16:10:14.001Z</time></trkpt><trkpt lat="37.569838059837764" lon="15.058447576005774"><ele>401.6666666666667</ele><time>2026-03-28T16:10:15.001Z</time></trkpt><trkpt lat="37.56992553952463" lon="15.058439720608051"><ele>402.33333333333337</ele><time>2026-03-28T16:10:16.001Z</time></trkpt><trkpt lat="37.570012357540854" lon="15.058432762659784"><ele>403.0</ele><time>2026-03-28T16:10:17.001Z</time></trkpt><trkpt lat="37.57010760011133" lon="15.058424268941108"><ele>403.0</ele><time>2026-03-28T16:10:18.001Z</time></trkpt><trkpt lat="37.57020352882749" lon="15.05841594794072"><ele>403.0</ele><time>2026-03-28T16:10:19.001Z</time></trkpt><trkpt lat="37.57029725829826" lon="15.058408759459054"><ele>403.0</ele><time>2026-03-28T16:10:20.001Z</time></trkpt><trkpt lat="37.57038648641619" lon="15.058400062343818"><ele>403.0</ele><time>2026-03-28T16:10:21.001Z</time></trkpt><trkpt lat="37.570478524090824" lon="15.05839353585501"><ele>403.0</ele><time>2026-03-28T16:10:22.001Z</time></trkpt><trkpt lat="37.57056860302749" lon="15.05838654403465"><ele>403.79999999999995</ele><time>2026-03-28T16:10:23.001Z</time></trkpt><trkpt lat="37.57065773128155" lon="15.058377199107865"><ele>404.6</ele><time>2026-03-28T16:10:24.001Z</time></trkpt><trkpt lat="37.570748238367045" lon="15.058365688401334"><ele>405.4</ele><time>2026-03-28T16:10:25.001Z</time></trkpt><trkpt lat="37.570839406180795" lon="15.058353202900054"><ele>406.20000000000005</ele><time>2026-03-28T16:10:26.001Z</time></trkpt><trkpt lat="37.57093013825408" lon="15.058341820410037"><ele>407.0</ele><time>2026-03-28T16:10:27.001Z</time></trkpt><trkpt lat="37.57102485854091" lon="15.058331907867359"><ele>407.0</ele><time>2026-03-28T16:10:28.001Z</time></trkpt><trkpt lat="37.57112115561675" lon="15.058318315561689"><ele>407.0</ele><time>2026-03-28T16:10:29.001Z</time></trkpt><trkpt lat="37.57122038241002" lon="15.05829738053302"><ele>407.0</ele><time>2026-03-28T16:10:30.001Z</time></trkpt><trkpt lat="37.57132247162168" lon="15.058272257090914"><ele>407.0</ele><time>2026-03-28T16:10:31.001Z</time></trkpt><trkpt lat="37.57142244691367" lon="15.058247838178824"><ele>407.0</ele><time>2026-03-28T16:10:32.001Z</time></trkpt><trkpt lat="37.571514375723595" lon="15.058229161987969"><ele>406.99999999999994</ele><time>2026-03-28T16:10:33.001Z</time></trkpt><trkpt lat="37.57158903483718" lon="15.058214303476566"><ele>407.0</ele><time>2026-03-28T16:10:34.001Z</time></trkpt><trkpt lat="37.5717103935802" lon="15.058188470792132"><ele>407.0</ele><time>2026-03-28T16:10:36.001Z</time></trkpt><trkpt lat="37.571778102672475" lon="15.058194247036427"><ele>407.0</ele><time>2026-03-28T16:10:37.001Z</time></trkpt><trkpt lat="37.57185425331857" lon="15.058178611402024"><ele>406.99999999999994</ele><time>2026-03-28T16:10:38.001Z</time></trkpt><trkpt lat="37.57193755913192" lon="15.058160974158374"><ele>407.0</ele><time>2026-03-28T16:10:39.001Z</time></trkpt><trkpt lat="37.57202861723188" lon="15.058141695624043"><ele>407.8333333333333</ele><time>2026-03-28T16:10:40Z</time></trkpt><trkpt lat="37.572123843931124" lon="15.058121534524568"><ele>408.66666666666663</ele><time>2026-03-28T16:10:41Z</time></trkpt><trkpt lat="37.57220793034479" lon="15.058103732010913"><ele>409.5</ele><time>2026-03-28T16:10:42Z</time></trkpt><trkpt lat="37.57228039630867" lon="15.058088389744768"><ele>410.33333333333337</ele><time>2026-03-28T16:10:43Z</time></trkpt><trkpt lat="37.57234587677332" lon="15.058074526428834"><ele>411.1666666666667</ele><time>2026-03-28T16:10:44Z</time></trkpt><trkpt lat="37.57244439541564" lon="15.058043812533803"><ele>412.0</ele><time>2026-03-28T16:10:46Z</time></trkpt><trkpt lat="37.57253474287232" lon="15.05805978645952"><ele>412.0</ele><time>2026-03-28T16:10:48Z</time></trkpt><trkpt lat="37.57261589276305" lon="15.058122657457766"><ele>412.0</ele><time>2026-03-28T16:10:50Z</time></trkpt><trkpt lat="37.572707041153045" lon="15.058114239394362"><ele>412.0</ele><time>2026-03-28T16:10:53Z</time></trkpt><trkpt lat="37.572784436670986" lon="15.058063119125823"><ele>412.0</ele><time>2026-03-28T16:10:55Z</time></trkpt><trkpt lat="37.57289023173017" lon="15.058000129584318"><ele>412.0</ele><time>2026-03-28T16:10:57Z</time></trkpt><trkpt lat="37.57295428329772" lon="15.057971348282516"><ele>413.0</ele><time>2026-03-28T16:10:58Z</time></trkpt><trkpt lat="37.573030977243505" lon="15.057951940704399"><ele>414.0</ele><time>2026-03-28T16:10:59Z</time></trkpt><trkpt lat="37.57312236753287" lon="15.057935991608515"><ele>415.0</ele><time>2026-03-28T16:11:00Z</time></trkpt><trkpt lat="37.57322613162593" lon="15.057916955324217"><ele>416.0</ele><time>2026-03-28T16:11:01Z</time></trkpt><trkpt lat="37.57333877368409" lon="15.057900428567969"><ele>417.0</ele><time>2026-03-28T16:11:02Z</time></trkpt><trkpt lat="37.573456026826676" lon="15.057882518832121"><ele>417.0</ele><time>2026-03-28T16:11:03Z</time></trkpt><trkpt lat="37.573572778118375" lon="15.057862715724758"><ele>417.0</ele><time>2026-03-28T16:11:04Z</time></trkpt><trkpt lat="37.5736849442339" lon="15.05784159975027"><ele>417.0</ele><time>2026-03-28T16:11:05Z</time></trkpt><trkpt lat="37.57379941503658" lon="15.05782093012443"><ele>417.0</ele><time>2026-03-28T16:11:06Z</time></trkpt><trkpt lat="37.57391700528332" lon="15.057799091917646"><ele>418.25</ele><time>2026-03-28T16:11:07Z</time></trkpt><trkpt lat="37.57403819516115" lon="15.057771335880373"><ele>419.5</ele><time>2026-03-28T16:11:08Z</time></trkpt><trkpt lat="37.57416225894806" lon="15.057751781003176"><ele>420.75</ele><time>2026-03-28T16:11:09Z</time></trkpt><trkpt lat="37.57427775129386" lon="15.057733311013246"><ele>422.0</ele><time>2026-03-28T16:11:10Z</time></trkpt><trkpt lat="37.57437651659904" lon="15.057722056409766"><ele>422.0</ele><time>2026-03-28T16:11:11Z</time></trkpt><trkpt lat="37.574458286579215" lon="15.05771745111046"><ele>422.0</ele><time>2026-03-28T16:11:12Z</time></trkpt><trkpt lat="37.57452705200134" lon="15.057718513005295"><ele>422.0</ele><time>2026-03-28T16:11:13Z</time></trkpt><trkpt lat="37.574594581090935" lon="15.057725884344258"><ele>422.0</ele><time>2026-03-28T16:11:14Z</time></trkpt><trkpt lat="37.5746681148186" lon="15.05773441592766"><ele>422.0</ele><time>2026-03-28T16:11:15Z</time></trkpt><trkpt lat="37.57474106873401" lon="15.057731020315595"><ele>422.0</ele><time>2026-03-28T16:11:16Z</time></trkpt><trkpt lat="37.57480846761871" lon="15.057707537478812"><ele>422.0</ele><time>2026-03-28T16:11:17Z</time></trkpt><trkpt lat="37.57487757049505" lon="15.057661709934129"><ele>422.0</ele><time>2026-03-28T16:11:18Z</time></trkpt><trkpt lat="37.57496149917083" lon="15.05760981280917"><ele>422.0</ele><time>2026-03-28T16:11:19Z</time></trkpt><trkpt lat="37.57505592880818" lon="15.057574532973403"><ele>422.0</ele><time>2026-03-28T16:11:20.001Z</time></trkpt><trkpt lat="37.575158087195064" lon="15.057550004093176"><ele>422.0</ele><time>2026-03-28T16:11:21.001Z</time></trkpt><trkpt lat="37.5752572839039" lon="15.057524841037667"><ele>422.0</ele><time>2026-03-28T16:11:22.001Z</time></trkpt><trkpt lat="37.57534459695239" lon="15.057497699055824"><ele>423.20000000000005</ele><time>2026-03-28T16:11:23.001Z</time></trkpt><trkpt lat="37.575441338573725" lon="15.057470093592409"><ele>424.4</ele><time>2026-03-28T16:11:24.001Z</time></trkpt><trkpt lat="37.57553961227781" lon="15.057440922647444"><ele>425.59999999999997</ele><time>2026-03-28T16:11:25.001Z</time></trkpt><trkpt lat="37.575641404826804" lon="15.057403484605627"><ele>426.79999999999995</ele><time>2026-03-28T16:11:26.001Z</time></trkpt><trkpt lat="37.57574519774413" lon="15.057370146459661"><ele>428.0</ele><time>2026-03-28T16:11:27.001Z</time></trkpt><trkpt lat="37.575853929596825" lon="15.057331172899143"><ele>428.0</ele><time>2026-03-28T16:11:28.001Z</time></trkpt><trkpt lat="37.57596622464132" lon="15.057285624665345"><ele>428.0</ele><time>2026-03-28T16:11:29.001Z</time></trkpt><trkpt lat="37.5760859805466" lon="15.057239041849003"><ele>428.0</ele><time>2026-03-28T16:11:30.001Z</time></trkpt><trkpt lat="37.576215031492964" lon="15.057187747866603"><ele>428.0</ele><time>2026-03-28T16:11:31.001Z</time></trkpt><trkpt lat="37.5763484255477" lon="15.057128813673225"><ele>429.5</ele><time>2026-03-28T16:11:32.001Z</time></trkpt><trkpt lat="37.57648601968996" lon="15.057068617272884"><ele>431.0</ele><time>2026-03-28T16:11:33.001Z</time></trkpt><trkpt lat="37.57662204246666" lon="15.057004770949725"><ele>432.5</ele><time>2026-03-28T16:11:34.001Z</time></trkpt><trkpt lat="37.57676172878126" lon="15.056945968331194"><ele>434.0</ele><time>2026-03-28T16:11:35.001Z</time></trkpt><trkpt lat="37.57690207998652" lon="15.056882055436754"><ele>435.3333333333333</ele><time>2026-03-28T16:11:36.001Z</time></trkpt><trkpt lat="37.5770459038855" lon="15.056817697267403"><ele>436.66666666666663</ele><time>2026-03-28T16:11:37.001Z</time></trkpt><trkpt lat="37.57719100655858" lon="15.056752374408802"><ele>438.0</ele><time>2026-03-28T16:11:38.001Z</time></trkpt><trkpt lat="37.577335282096364" lon="15.056694774598927"><ele>438.0</ele><time>2026-03-28T16:11:39.001Z</time></trkpt><trkpt lat="37.57748067653214" lon="15.056633696007644"><ele>438.0</ele><time>2026-03-28T16:11:40.001Z</time></trkpt><trkpt lat="37.57762117006306" lon="15.05657010670234"><ele>438.0</ele><time>2026-03-28T16:11:41.001Z</time></trkpt><trkpt lat="37.57775321937261" lon="15.05651156406797"><ele>438.0</ele><time>2026-03-28T16:11:42.001Z</time></trkpt><trkpt lat="37.577883256666276" lon="15.056456333421881"><ele>439.25</ele><time>2026-03-28T16:11:43.001Z</time></trkpt><trkpt lat="37.57801062193359" lon="15.056400435101004"><ele>440.5</ele><time>2026-03-28T16:11:44.001Z</time></trkpt><trkpt lat="37.57813839502693" lon="15.056345605971602"><ele>441.75</ele><time>2026-03-28T16:11:45.001Z</time></trkpt><trkpt lat="37.578264691521106" lon="15.05629299567928"><ele>443.0</ele><time>2026-03-28T16:11:46.001Z</time></trkpt><trkpt lat="37.57838616508841" lon="15.056242476733235"><ele>443.0</ele><time>2026-03-28T16:11:47.001Z</time></trkpt><trkpt lat="37.5785134030916" lon="15.056188468798968"><ele>443.0</ele><time>2026-03-28T16:11:48.001Z</time></trkpt><trkpt lat="37.57865464516832" lon="15.056120442863875"><ele>443.0</ele><time>2026-03-28T16:11:49.001Z</time></trkpt><trkpt lat="37.57880486873332" lon="15.056053754201997"><ele>443.0</ele><time>2026-03-28T16:11:50.001Z</time></trkpt><trkpt lat="37.57897149842954" lon="15.055984339928031"><ele>443.66666666666663</ele><time>2026-03-28T16:11:51.001Z</time></trkpt><trkpt lat="37.57913555393252" lon="15.055925865581731"><ele>444.33333333333337</ele><time>2026-03-28T16:11:52.001Z</time></trkpt><trkpt lat="37.579277673480505" lon="15.055869411390988"><ele>445.0</ele><time>2026-03-28T16:11:53.001Z</time></trkpt><trkpt lat="37.57940326572312" lon="15.055809894875004"><ele>446.25</ele><time>2026-03-28T16:11:54.001Z</time></trkpt><trkpt lat="37.57953543888014" lon="15.055750124948066"><ele>447.5</ele><time>2026-03-28T16:11:55.001Z</time></trkpt><trkpt lat="37.57967201594413" lon="15.055697147401906"><ele>448.75</ele><time>2026-03-28T16:11:56.001Z</time></trkpt><trkpt lat="37.57980242462299" lon="15.055644443148704"><ele>450.0</ele><time>2026-03-28T16:11:57.001Z</time></trkpt><trkpt lat="37.579922129902904" lon="15.055594638845504"><ele>450.0</ele><time>2026-03-28T16:11:58.001Z</time></trkpt><trkpt lat="37.58003217871306" lon="15.055547035526521"><ele>450.0</ele><time>2026-03-28T16:11:59.001Z</time></trkpt><trkpt lat="37.58013560545781" lon="15.055496539474824"><ele>450.0</ele><time>2026-03-28T16:12:00.001Z</time></trkpt><trkpt lat="37.58024252916457" lon="15.055441651034945"><ele>450.0</ele><time>2026-03-28T16:12:01.001Z</time></trkpt><trkpt lat="37.58034053587354" lon="15.055381432656693"><ele>450.6666666666667</ele><time>2026-03-28T16:12:02.001Z</time></trkpt><trkpt lat="37.58042986027684" lon="15.055320542691826"><ele>451.33333333333337</ele><time>2026-03-28T16:12:03.001Z</time></trkpt><trkpt lat="37.58051003050478" lon="15.055261614839393"><ele>452.0</ele><time>2026-03-28T16:12:04.001Z</time></trkpt><trkpt lat="37.580581968399414" lon="15.055202493218463"><ele>452.6666666666667</ele><time>2026-03-28T16:12:05.001Z</time></trkpt><trkpt lat="37.58064533679011" lon="15.055141773003294"><ele>453.33333333333337</ele><time>2026-03-28T16:12:06.001Z</time></trkpt><trkpt lat="37.58070246523373" lon="15.055082852875952"><ele>454.0</ele><time>2026-03-28T16:12:07.001Z</time></trkpt><trkpt lat="37.58075541476764" lon="15.055026200148518"><ele>454.2</ele><time>2026-03-28T16:12:08.001Z</time></trkpt><trkpt lat="37.58082812458692" lon="15.05494216272875"><ele>454.4</ele><time>2026-03-28T16:12:10.001Z</time></trkpt><trkpt lat="37.580880213258524" lon="15.054880765249777"><ele>454.6</ele><time>2026-03-28T16:12:12.001Z</time></trkpt><trkpt lat="37.58095512621612" lon="15.054766882817908"><ele>454.8</ele><time>2026-03-28T16:12:14.001Z</time></trkpt><trkpt lat="37.581016173825134" lon="15.054677973334163"><ele>455.0</ele><time>2026-03-28T16:12:16.001Z</time></trkpt><trkpt lat="37.58107540031479" lon="15.054580770192077"><ele>455.0</ele><time>2026-03-28T16:12:18.002Z</time></trkpt><trkpt lat="37.581119180004116" lon="15.054512081294831"><ele>455.0</ele><time>2026-03-28T16:12:19.002Z</time></trkpt><trkpt lat="37.5811717714727" lon="15.05443735737524"><ele>455.0</ele><time>2026-03-28T16:12:20.002Z</time></trkpt><trkpt lat="37.581223141545124" lon="15.054359855087421"><ele>455.0</ele><time>2026-03-28T16:12:21.002Z</time></trkpt><trkpt lat="37.5812681534001" lon="15.05429309903002"><ele>455.0</ele><time>2026-03-28T16:12:22.002Z</time></trkpt><trkpt lat="37.58131139287197" lon="15.054233842511426"><ele>455.0</ele><time>2026-03-28T16:12:23.002Z</time></trkpt><trkpt lat="37.581358293631155" lon="15.054168007549537"><ele>455.0</ele><time>2026-03-28T16:12:24.002Z</time></trkpt><trkpt lat="37.581407251163" lon="15.054096014797112"><ele>456.0</ele><time>2026-03-28T16:12:25.002Z</time></trkpt><trkpt lat="37.58145765193034" lon="15.05402063928847"><ele>457.0</ele><time>2026-03-28T16:12:26.002Z</time></trkpt><trkpt lat="37.58150691958239" lon="15.053948837983377"><ele>458.0</ele><time>2026-03-28T16:12:27.002Z</time></trkpt><trkpt lat="37.581556087087584" lon="15.053879275270774"><ele>459.0</ele><time>2026-03-28T16:12:28.002Z</time></trkpt><trkpt lat="37.58160427367837" lon="15.05381026079462"><ele>460.0</ele><time>2026-03-28T16:12:29.002Z</time></trkpt><trkpt lat="37.58164998733599" lon="15.053741609424728"><ele>461.0</ele><time>2026-03-28T16:12:30.002Z</time></trkpt><trkpt lat="37.58169692298019" lon="15.053670623026504"><ele>462.0</ele><time>2026-03-28T16:12:31.002Z</time></trkpt><trkpt lat="37.58174645828133" lon="15.053599302181755"><ele>462.0</ele><time>2026-03-28T16:12:32.002Z</time></trkpt><trkpt lat="37.581799563531966" lon="15.053523840729413"><ele>462.00000000000006</ele><time>2026-03-28T16:12:33.002Z</time></trkpt><trkpt lat="37.581856613727986" lon="15.053442784285004"><ele>462.00000000000006</ele><time>2026-03-28T16:12:34.002Z</time></trkpt><trkpt lat="37.5819189092773" lon="15.053352515621677"><ele>462.0</ele><time>2026-03-28T16:12:35.002Z</time></trkpt><trkpt lat="37.581987412899544" lon="15.053248209548398"><ele>462.0</ele><time>2026-03-28T16:12:36.002Z</time></trkpt><trkpt lat="37.58207341067543" lon="15.053154307127992"><ele>463.0</ele><time>2026-03-28T16:12:37.002Z</time></trkpt><trkpt lat="37.58213328699613" lon="15.053034218875549"><ele>464.0</ele><time>2026-03-28T16:12:38.002Z</time></trkpt><trkpt lat="37.582221721527304" lon="15.052938533251096"><ele>465.0</ele><time>2026-03-28T16:12:39.002Z</time></trkpt><trkpt lat="37.58230288875323" lon="15.052822484455348"><ele>466.0</ele><time>2026-03-28T16:12:40.002Z</time></trkpt><trkpt lat="37.582381451531944" lon="15.052710159319812"><ele>466.0</ele><time>2026-03-28T16:12:41.002Z</time></trkpt><trkpt lat="37.58245512012677" lon="15.052604831716529"><ele>466.0</ele><time>2026-03-28T16:12:42.002Z</time></trkpt><trkpt lat="37.58253732152043" lon="15.052486104796191"><ele>466.0</ele><time>2026-03-28T16:12:43.002Z</time></trkpt><trkpt lat="37.58262857482812" lon="15.052353485638486"><ele>466.0</ele><time>2026-03-28T16:12:44.002Z</time></trkpt><trkpt lat="37.5827159617775" lon="15.052218539316652"><ele>466.75</ele><time>2026-03-28T16:12:45Z</time></trkpt><trkpt lat="37.58278398207683" lon="15.05209267402467"><ele>467.5</ele><time>2026-03-28T16:12:46Z</time></trkpt><trkpt lat="37.58284358564016" lon="15.051953050534808"><ele>468.25</ele><time>2026-03-28T16:12:47Z</time></trkpt><trkpt lat="37.58289318712604" lon="15.051792090907373"><ele>469.0</ele><time>2026-03-28T16:12:48Z</time></trkpt><trkpt lat="37.582970194627464" lon="15.051625217212578"><ele>470.6666666666667</ele><time>2026-03-28T16:12:49Z</time></trkpt><trkpt lat="37.58305916256199" lon="15.051461485448124"><ele>472.33333333333337</ele><time>2026-03-28T16:12:50Z</time></trkpt><trkpt lat="37.5831639869725" lon="15.05132130431898"><ele>474.0</ele><time>2026-03-28T16:12:51Z</time></trkpt><trkpt lat="37.58328702213473" lon="15.051194490169614"><ele>474.0</ele><time>2026-03-28T16:12:52Z</time></trkpt><trkpt lat="37.583408475347035" lon="15.051072714273015"><ele>474.0</ele><time>2026-03-28T16:12:53Z</time></trkpt><trkpt lat="37.58352139196048" lon="15.050955925074682"><ele>474.0</ele><time>2026-03-28T16:12:54Z</time></trkpt><trkpt lat="37.5836178179896" lon="15.050843617742457"><ele>474.0</ele><time>2026-03-28T16:12:55Z</time></trkpt><trkpt lat="37.583692810479306" lon="15.050731240207131"><ele>475.0</ele><time>2026-03-28T16:12:56Z</time></trkpt><trkpt lat="37.58375729944929" lon="15.050628606232"><ele>476.0</ele><time>2026-03-28T16:12:57Z</time></trkpt><trkpt lat="37.58381673908974" lon="15.050534878055366"><ele>477.0</ele><time>2026-03-28T16:12:58Z</time></trkpt><trkpt lat="37.583866334172036" lon="15.050456761674562"><ele>478.0</ele><time>2026-03-28T16:12:59Z</time></trkpt><trkpt lat="37.58391557467982" lon="15.050395596596822"><ele>479.0</ele><time>2026-03-28T16:13:00Z</time></trkpt><trkpt lat="37.58396921166521" lon="15.050343420479892"><ele>480.0</ele><time>2026-03-28T16:13:01Z</time></trkpt><trkpt lat="37.584028076339266" lon="15.050287709148737"><ele>480.0</ele><time>2026-03-28T16:13:02Z</time></trkpt><trkpt lat="37.584086192758875" lon="15.050224147869674"><ele>480.0</ele><time>2026-03-28T16:13:03Z</time></trkpt><trkpt lat="37.58413696438084" lon="15.050164380746972"><ele>480.0</ele><time>2026-03-28T16:13:04Z</time></trkpt><trkpt lat="37.58422077322337" lon="15.05007566568956"><ele>480.0</ele><time>2026-03-28T16:13:06Z</time></trkpt><trkpt lat="37.58431321755996" lon="15.050034268850048"><ele>480.0</ele><time>2026-03-28T16:13:08Z</time></trkpt><trkpt lat="37.58438859768699" lon="15.050035180281425"><ele>480.0</ele><time>2026-03-28T16:13:09Z</time></trkpt><trkpt lat="37.584488079844164" lon="15.05004218816969"><ele>481.0</ele><time>2026-03-28T16:13:10Z</time></trkpt><trkpt lat="37.58460254700457" lon="15.050033081040105"><ele>482.0</ele><time>2026-03-28T16:13:11Z</time></trkpt><trkpt lat="37.58472432023214" lon="15.050019334161092"><ele>483.0</ele><time>2026-03-28T16:13:12Z</time></trkpt><trkpt lat="37.58484634790683" lon="15.050007377073486"><ele>484.0</ele><time>2026-03-28T16:13:13Z</time></trkpt><trkpt lat="37.584966271421145" lon="15.049996887679226"><ele>484.0</ele><time>2026-03-28T16:13:14Z</time></trkpt><trkpt lat="37.58509040381596" lon="15.049983485377306"><ele>484.0</ele><time>2026-03-28T16:13:15Z</time></trkpt><trkpt lat="37.58521793142575" lon="15.049969942815238"><ele>484.0</ele><time>2026-03-28T16:13:16Z</time></trkpt><trkpt lat="37.58534632793577" lon="15.04995831778971"><ele>484.0</ele><time>2026-03-28T16:13:17Z</time></trkpt><trkpt lat="37.58547715667545" lon="15.04994635845539"><ele>485.75</ele><time>2026-03-28T16:13:18Z</time></trkpt><trkpt lat="37.58561004959211" lon="15.04993329832322"><ele>487.5</ele><time>2026-03-28T16:13:19Z</time></trkpt><trkpt lat="37.58573336265585" lon="15.049926914377671"><ele>489.25</ele><time>2026-03-28T16:13:20Z</time></trkpt><trkpt lat="37.5858508420281" lon="15.049917045733846"><ele>491.0</ele><time>2026-03-28T16:13:21Z</time></trkpt><trkpt lat="37.58596475075295" lon="15.049894757169513"><ele>491.0</ele><time>2026-03-28T16:13:22.001Z</time></trkpt><trkpt lat="37.58607224599808" lon="15.049843437741345"><ele>491.0</ele><time>2026-03-28T16:13:23.001Z</time></trkpt><trkpt lat="37.58617947457956" lon="15.049776271713213"><ele>491.0</ele><time>2026-03-28T16:13:24.001Z</time></trkpt><trkpt lat="37.58627951916671" lon="15.04969495664402"><ele>491.0</ele><time>2026-03-28T16:13:25.001Z</time></trkpt><trkpt lat="37.58637699975342" lon="15.049610790813135"><ele>492.25</ele><time>2026-03-28T16:13:26.001Z</time></trkpt><trkpt lat="37.58647673193627" lon="15.049523099864105"><ele>493.5</ele><time>2026-03-28T16:13:27.001Z</time></trkpt><trkpt lat="37.586579169479116" lon="15.049432346683753"><ele>494.75</ele><time>2026-03-28T16:13:28.001Z</time></trkpt><trkpt lat="37.58668148112521" lon="15.049340336583784"><ele>496.0</ele><time>2026-03-28T16:13:29.001Z</time></trkpt><trkpt lat="37.58678701270834" lon="15.04924619429266"><ele>496.0</ele><time>2026-03-28T16:13:30.001Z</time></trkpt><trkpt lat="37.586891088076236" lon="15.049151944036392"><ele>496.0</ele><time>2026-03-28T16:13:31.001Z</time></trkpt><trkpt lat="37.586999115937786" lon="15.049053111125216"><ele>496.0</ele><time>2026-03-28T16:13:32.001Z</time></trkpt><trkpt lat="37.58711102862104" lon="15.048946569283641"><ele>496.0</ele><time>2026-03-28T16:13:33.001Z</time></trkpt><trkpt lat="37.58723411055542" lon="15.048864442191473"><ele>497.75</ele><time>2026-03-28T16:13:34.001Z</time></trkpt><trkpt lat="37.587327945605566" lon="15.048758625595122"><ele>499.5</ele><time>2026-03-28T16:13:35.001Z</time></trkpt><trkpt lat="37.58743932765424" lon="15.048663811693128"><ele>501.25</ele><time>2026-03-28T16:13:36.001Z</time></trkpt><trkpt lat="37.58754775521148" lon="15.048574654041692"><ele>503.0</ele><time>2026-03-28T16:13:37.001Z</time></trkpt><trkpt lat="37.58764908948211" lon="15.048500521497596"><ele>503.0</ele><time>2026-03-28T16:13:38.001Z</time></trkpt><trkpt lat="37.587757789826696" lon="15.048449394739725"><ele>503.0</ele><time>2026-03-28T16:13:39.001Z</time></trkpt><trkpt lat="37.587880620925446" lon="15.0484115054446"><ele>503.0</ele><time>2026-03-28T16:13:40.001Z</time></trkpt><trkpt lat="37.588008116339395" lon="15.048388830092271"><ele>503.0</ele><time>2026-03-28T16:13:41.001Z</time></trkpt><trkpt lat="37.58813778040788" lon="15.048376197357028"><ele>503.4</ele><time>2026-03-28T16:13:42.001Z</time></trkpt><trkpt lat="37.588251002725734" lon="15.048370145294141"><ele>503.79999999999995</ele><time>2026-03-28T16:13:43.001Z</time></trkpt><trkpt lat="37.58835667019627" lon="15.048362465456147"><ele>504.2</ele><time>2026-03-28T16:13:44.001Z</time></trkpt><trkpt lat="37.58846107672241" lon="15.04835563228095"><ele>504.6</ele><time>2026-03-28T16:13:45.001Z</time></trkpt><trkpt lat="37.58857704431734" lon="15.048347197027429"><ele>505.0</ele><time>2026-03-28T16:13:46.001Z</time></trkpt><trkpt lat="37.58870058885087" lon="15.04833690868656"><ele>506.0</ele><time>2026-03-28T16:13:47.001Z</time></trkpt><trkpt lat="37.58883001103256" lon="15.048325338900236"><ele>507.0</ele><time>2026-03-28T16:13:48.001Z</time></trkpt><trkpt lat="37.588965894208364" lon="15.048315826169764"><ele>508.0</ele><time>2026-03-28T16:13:49.001Z</time></trkpt><trkpt lat="37.589107360205446" lon="15.048308313084096"><ele>509.0</ele><time>2026-03-28T16:13:50.001Z</time></trkpt><trkpt lat="37.589255026341874" lon="15.04829277355493"><ele>510.3333333333333</ele><time>2026-03-28T16:13:51.001Z</time></trkpt><trkpt lat="37.58939736377924" lon="15.048250774162435"><ele>511.66666666666663</ele><time>2026-03-28T16:13:52.001Z</time></trkpt><trkpt lat="37.58953669822094" lon="15.048168726799947"><ele>513.0</ele><time>2026-03-28T16:13:53.001Z</time></trkpt><trkpt lat="37.58967365184996" lon="15.048052720912715"><ele>513.6666666666666</ele><time>2026-03-28T16:13:54.001Z</time></trkpt><trkpt lat="37.58981484448329" lon="15.04791045414025"><ele>514.3333333333333</ele><time>2026-03-28T16:13:55.001Z</time></trkpt><trkpt lat="37.58996357026061" lon="15.047751706587968"><ele>515.0</ele><time>2026-03-28T16:13:56.001Z</time></trkpt><trkpt lat="37.59013703126526" lon="15.047604970600084"><ele>518.0</ele><time>2026-03-28T16:13:57.001Z</time></trkpt><trkpt lat="37.59030247536648" lon="15.047441767381855"><ele>521.0</ele><time>2026-03-28T16:13:58.001Z</time></trkpt><trkpt lat="37.59046332758936" lon="15.047283105462727"><ele>524.0</ele><time>2026-03-28T16:13:59.001Z</time></trkpt><trkpt lat="37.59061934295173" lon="15.04712954558387"><ele>524.3333333333333</ele><time>2026-03-28T16:14:00.001Z</time></trkpt><trkpt lat="37.59076474001687" lon="15.046987799743171"><ele>524.6666666666666</ele><time>2026-03-28T16:14:01.001Z</time></trkpt><trkpt lat="37.590905505910655" lon="15.04685056889733"><ele>525.0</ele><time>2026-03-28T16:14:02.001Z</time></trkpt><trkpt lat="37.591052024199804" lon="15.046707808741042"><ele>527.3333333333334</ele><time>2026-03-28T16:14:03.001Z</time></trkpt><trkpt lat="37.591206725328966" lon="15.046557139016807"><ele>529.6666666666667</ele><time>2026-03-28T16:14:04.001Z</time></trkpt><trkpt lat="37.59136710794186" lon="15.04640093585769"><ele>532.0</ele><time>2026-03-28T16:14:05.001Z</time></trkpt><trkpt lat="37.59152894813069" lon="15.046243314194694"><ele>532.0</ele><time>2026-03-28T16:14:06.001Z</time></trkpt><trkpt lat="37.59166849253228" lon="15.046091347072142"><ele>532.0</ele><time>2026-03-28T16:14:07.001Z</time></trkpt><trkpt lat="37.59180575661291" lon="15.045973481618745"><ele>532.0</ele><time>2026-03-28T16:14:08.001Z</time></trkpt><trkpt lat="37.59193962801772" lon="15.045888338637107"><ele>532.75</ele><time>2026-03-28T16:14:09.001Z</time></trkpt><trkpt lat="37.59207897773673" lon="15.045831054462202"><ele>533.5</ele><time>2026-03-28T16:14:10.001Z</time></trkpt><trkpt lat="37.592213735539204" lon="15.045799704003375"><ele>534.25</ele><time>2026-03-28T16:14:11.001Z</time></trkpt><trkpt lat="37.592332977199874" lon="15.045779090470923"><ele>535.0</ele><time>2026-03-28T16:14:12.001Z</time></trkpt><trkpt lat="37.5924440153994" lon="15.045763860355093"><ele>535.2</ele><time>2026-03-28T16:14:13.001Z</time></trkpt><trkpt lat="37.592550886319344" lon="15.04575110397569"><ele>535.4</ele><time>2026-03-28T16:14:14.001Z</time></trkpt><trkpt lat="37.59264275957834" lon="15.045743668808122"><ele>535.6</ele><time>2026-03-28T16:14:15.001Z</time></trkpt><trkpt lat="37.592739597421264" lon="15.045734822891953"><ele>535.8</ele><time>2026-03-28T16:14:16.001Z</time></trkpt><trkpt lat="37.59284165047226" lon="15.045723692476686"><ele>536.0</ele><time>2026-03-28T16:14:17.001Z</time></trkpt><trkpt lat="37.59295451870172" lon="15.045709170344924"><ele>537.2</ele><time>2026-03-28T16:14:18.001Z</time></trkpt><trkpt lat="37.593073035353385" lon="15.045694121104995"><ele>538.4000000000001</ele><time>2026-03-28T16:14:19.001Z</time></trkpt><trkpt lat="37.59318918405699" lon="15.045680567837312"><ele>539.6</ele><time>2026-03-28T16:14:20.001Z</time></trkpt><trkpt lat="37.59330031490753" lon="15.045670017589373"><ele>540.8000000000001</ele><time>2026-03-28T16:14:21.002Z</time></trkpt><trkpt lat="37.59339763455575" lon="15.045660249444447"><ele>542.0</ele><time>2026-03-28T16:14:22.002Z</time></trkpt><trkpt lat="37.593490000807975" lon="15.045654416767407"><ele>542.0</ele><time>2026-03-28T16:14:23.002Z</time></trkpt><trkpt lat="37.59358129302702" lon="15.04564651564807"><ele>542.0</ele><time>2026-03-28T16:14:24.002Z</time></trkpt><trkpt lat="37.59367329928261" lon="15.045632299407657"><ele>542.0</ele><time>2026-03-28T16:14:25.002Z</time></trkpt><trkpt lat="37.59376646370032" lon="15.045617363521583"><ele>542.0</ele><time>2026-03-28T16:14:26.002Z</time></trkpt><trkpt lat="37.59385972175693" lon="15.045593040646416"><ele>542.0</ele><time>2026-03-28T16:14:27.002Z</time></trkpt><trkpt lat="37.59395713314263" lon="15.045548400255168"><ele>543.75</ele><time>2026-03-28T16:14:28.002Z</time></trkpt><trkpt lat="37.59406559834524" lon="15.045471641146248"><ele>545.5</ele><time>2026-03-28T16:14:29.002Z</time></trkpt><trkpt lat="37.59417754776851" lon="15.045362452373539"><ele>547.25</ele><time>2026-03-28T16:14:30.002Z</time></trkpt><trkpt lat="37.594305179855276" lon="15.045218249038111"><ele>549.0</ele><time>2026-03-28T16:14:31.002Z</time></trkpt><trkpt lat="37.594458923525245" lon="15.045067789520193"><ele>551.3333333333334</ele><time>2026-03-28T16:14:32.002Z</time></trkpt><trkpt lat="37.59461168887057" lon="15.044920505186639"><ele>553.6666666666667</ele><time>2026-03-28T16:14:33.002Z</time></trkpt><trkpt lat="37.59472681708882" lon="15.044761092727407"><ele>556.0</ele><time>2026-03-28T16:14:34.002Z</time></trkpt><trkpt lat="37.594811752901066" lon="15.044587555087334"><ele>556.0</ele><time>2026-03-28T16:14:35.002Z</time></trkpt><trkpt lat="37.59486698263565" lon="15.044388178616687"><ele>556.0</ele><time>2026-03-28T16:14:36.002Z</time></trkpt><trkpt lat="37.59489593299408" lon="15.044164522816228"><ele>556.0</ele><time>2026-03-28T16:14:37.002Z</time></trkpt><trkpt lat="37.59490833110017" lon="15.04391671189407"><ele>558.6666666666667</ele><time>2026-03-28T16:14:38.002Z</time></trkpt><trkpt lat="37.594938347583415" lon="15.043675752579734"><ele>561.3333333333334</ele><time>2026-03-28T16:14:39.002Z</time></trkpt><trkpt lat="37.59498628530617" lon="15.043451062405966"><ele>564.0</ele><time>2026-03-28T16:14:40.002Z</time></trkpt><trkpt lat="37.59505731246165" lon="15.04324087760698"><ele>564.6666666666666</ele><time>2026-03-28T16:14:41.002Z</time></trkpt><trkpt lat="37.59514354790795" lon="15.043037770691678"><ele>565.3333333333333</ele><time>2026-03-28T16:14:42.002Z</time></trkpt><trkpt lat="37.595235469983535" lon="15.04285622322752"><ele>566.0</ele><time>2026-03-28T16:14:43.002Z</time></trkpt><trkpt lat="37.595330042676984" lon="15.042700917036063"><ele>566.6</ele><time>2026-03-28T16:14:44.002Z</time></trkpt><trkpt lat="37.595419588692664" lon="15.04257333010168"><ele>567.2</ele><time>2026-03-28T16:14:45.002Z</time></trkpt><trkpt lat="37.595487657069945" lon="15.042480153611043"><ele>567.8</ele><time>2026-03-28T16:14:46.002Z</time></trkpt><trkpt lat="37.595546402084565" lon="15.04241895976045"><ele>568.4</ele><time>2026-03-28T16:14:48.002Z</time></trkpt><trkpt lat="37.59564233818553" lon="15.04231001356483"><ele>569.0</ele><time>2026-03-28T16:14:51Z</time></trkpt><trkpt lat="37.59569010613272" lon="15.04221291753058"><ele>569.0</ele><time>2026-03-28T16:14:52Z</time></trkpt><trkpt lat="37.59575225603646" lon="15.042090015764172"><ele>569.0</ele><time>2026-03-28T16:14:53Z</time></trkpt><trkpt lat="37.595821409423124" lon="15.041976320058135"><ele>569.0</ele><time>2026-03-28T16:14:54Z</time></trkpt><trkpt lat="37.59590741118618" lon="15.041849378144468"><ele>569.0</ele><time>2026-03-28T16:14:55Z</time></trkpt><trkpt lat="37.59600844492895" lon="15.041711624448602"><ele>569.3333333333333</ele><time>2026-03-28T16:14:56Z</time></trkpt><trkpt lat="37.59611664913714" lon="15.041559432017127"><ele>569.6666666666666</ele><time>2026-03-28T16:14:57Z</time></trkpt><trkpt lat="37.59623136942957" lon="15.041397010356087"><ele>570.0</ele><time>2026-03-28T16:14:58Z</time></trkpt><trkpt lat="37.59633918786741" lon="15.04124546262182"><ele>572.3333333333334</ele><time>2026-03-28T16:14:59Z</time></trkpt><trkpt lat="37.59642830820608" lon="15.041097545979584"><ele>574.6666666666667</ele><time>2026-03-28T16:15:00Z</time></trkpt><trkpt lat="37.59649966176875" lon="15.040930231205998"><ele>577.0</ele><time>2026-03-28T16:15:01Z</time></trkpt><trkpt lat="37.5965632054445" lon="15.040743534162434"><ele>577.5</ele><time>2026-03-28T16:15:02Z</time></trkpt><trkpt lat="37.59662044307687" lon="15.040553815086023"><ele>578.0</ele><time>2026-03-28T16:15:03Z</time></trkpt><trkpt lat="37.596667212648086" lon="15.040371982059558"><ele>578.5</ele><time>2026-03-28T16:15:04Z</time></trkpt><trkpt lat="37.596712914774834" lon="15.040209975763894"><ele>579.0</ele><time>2026-03-28T16:15:05Z</time></trkpt><trkpt lat="37.596778000526655" lon="15.040062555779791"><ele>578.6666666666666</ele><time>2026-03-28T16:15:06Z</time></trkpt><trkpt lat="37.596867059485554" lon="15.039921865960318"><ele>578.3333333333333</ele><time>2026-03-28T16:15:07Z</time></trkpt><trkpt lat="37.59696681770032" lon="15.03977249619919"><ele>578.0</ele><time>2026-03-28T16:15:08Z</time></trkpt><trkpt lat="37.597077379104455" lon="15.039615837505202"><ele>579.3333333333333</ele><time>2026-03-28T16:15:09Z</time></trkpt><trkpt lat="37.5971923915141" lon="15.039463515049604"><ele>580.6666666666666</ele><time>2026-03-28T16:15:10Z</time></trkpt><trkpt lat="37.59731143896018" lon="15.039306368107596"><ele>582.0</ele><time>2026-03-28T16:15:11Z</time></trkpt><trkpt lat="37.59743186333563" lon="15.039149426372385"><ele>581.0</ele><time>2026-03-28T16:15:12Z</time></trkpt><trkpt lat="37.597553802112884" lon="15.038988597547146"><ele>580.0</ele><time>2026-03-28T16:15:13Z</time></trkpt><trkpt lat="37.59767518150806" lon="15.038831387092287"><ele>579.0</ele><time>2026-03-28T16:15:14Z</time></trkpt><trkpt lat="37.597791434222934" lon="15.038688175203013"><ele>580.3333333333334</ele><time>2026-03-28T16:15:15Z</time></trkpt><trkpt lat="37.59791750175528" lon="15.038557725579672"><ele>581.6666666666667</ele><time>2026-03-28T16:15:16Z</time></trkpt><trkpt lat="37.598058106373465" lon="15.038446774606918"><ele>583.0</ele><time>2026-03-28T16:15:17Z</time></trkpt><trkpt lat="37.598212398337616" lon="15.038354458101978"><ele>583.6666666666667</ele><time>2026-03-28T16:15:18Z</time></trkpt><trkpt lat="37.59837696475343" lon="15.038272932435566"><ele>584.3333333333334</ele><time>2026-03-28T16:15:19Z</time></trkpt><trkpt lat="37.59854729670045" lon="15.038195704744933"><ele>585.0</ele><time>2026-03-28T16:15:20Z</time></trkpt><trkpt lat="37.598723528140866" lon="15.038119998394901"><ele>585.0</ele><time>2026-03-28T16:15:21Z</time></trkpt><trkpt lat="37.59890082231399" lon="15.03805000380276"><ele>585.0</ele><time>2026-03-28T16:15:22Z</time></trkpt><trkpt lat="37.5990770757319" lon="15.037983352211961"><ele>585.0</ele><time>2026-03-28T16:15:23Z</time></trkpt><trkpt lat="37.59923735125044" lon="15.037923857442017"><ele>585.0</ele><time>2026-03-28T16:15:24Z</time></trkpt><trkpt lat="37.59938636074828" lon="15.037868992080412"><ele>585.0</ele><time>2026-03-28T16:15:25Z</time></trkpt><trkpt lat="37.59952681223578" lon="15.037815963989562"><ele>585.0</ele><time>2026-03-28T16:15:26.001Z</time></trkpt><trkpt lat="37.599660014474814" lon="15.037769532697542"><ele>585.0</ele><time>2026-03-28T16:15:27.001Z</time></trkpt><trkpt lat="37.59978151843573" lon="15.037723482026403"><ele>586.5</ele><time>2026-03-28T16:15:28.001Z</time></trkpt><trkpt lat="37.59989097748607" lon="15.03765780878011"><ele>588.0</ele><time>2026-03-28T16:15:29.001Z</time></trkpt><trkpt lat="37.599988882818984" lon="15.037560112819515"><ele>589.5</ele><time>2026-03-28T16:15:30.001Z</time></trkpt><trkpt lat="37.600072443631525" lon="15.03742876848167"><ele>591.0</ele><time>2026-03-28T16:15:31.001Z</time></trkpt><trkpt lat="37.60015251338312" lon="15.037268854297928"><ele>591.75</ele><time>2026-03-28T16:15:32.001Z</time></trkpt><trkpt lat="37.60023000999395" lon="15.037114633741407"><ele>592.5</ele><time>2026-03-28T16:15:33.001Z</time></trkpt><trkpt lat="37.60030129951814" lon="15.036978398218677"><ele>593.25</ele><time>2026-03-28T16:15:34.001Z</time></trkpt><trkpt lat="37.60037597501308" lon="15.03683617728162"><ele>594.0</ele><time>2026-03-28T16:15:35.001Z</time></trkpt><trkpt lat="37.60045501814371" lon="15.036687821554036"><ele>595.5</ele><time>2026-03-28T16:15:36.001Z</time></trkpt><trkpt lat="37.60053809382255" lon="15.036533069064014"><ele>597.0</ele><time>2026-03-28T16:15:37.001Z</time></trkpt><trkpt lat="37.6006239331248" lon="15.036373223841716"><ele>598.5</ele><time>2026-03-28T16:15:38.001Z</time></trkpt><trkpt lat="37.600708105462736" lon="15.03622048138331"><ele>600.0</ele><time>2026-03-28T16:15:39.001Z</time></trkpt><trkpt lat="37.600790912824536" lon="15.036089893427514"><ele>600.0</ele><time>2026-03-28T16:15:40.001Z</time></trkpt><trkpt lat="37.60088591088513" lon="15.035963330734358"><ele>600.0</ele><time>2026-03-28T16:15:41.001Z</time></trkpt><trkpt lat="37.60100001390583" lon="15.035852744108462"><ele>600.0</ele><time>2026-03-28T16:15:42.001Z</time></trkpt><trkpt lat="37.60113187082239" lon="15.035754685396126"><ele>600.0</ele><time>2026-03-28T16:15:43.001Z</time></trkpt><trkpt lat="37.601272965021046" lon="15.035663278098895"><ele>601.0</ele><time>2026-03-28T16:15:44.001Z</time></trkpt><trkpt lat="37.60141048764744" lon="15.03555923824314"><ele>602.0</ele><time>2026-03-28T16:15:45.001Z</time></trkpt><trkpt lat="37.601544809329766" lon="15.03543353555597"><ele>603.0</ele><time>2026-03-28T16:15:46.001Z</time></trkpt><trkpt lat="37.601680794711434" lon="15.03529369525822"><ele>603.0</ele><time>2026-03-28T16:15:47.001Z</time></trkpt><trkpt lat="37.60182219202281" lon="15.035146458823656"><ele>603.0</ele><time>2026-03-28T16:15:48.001Z</time></trkpt><trkpt lat="37.601965481540304" lon="15.034996987995363"><ele>603.0</ele><time>2026-03-28T16:15:49.001Z</time></trkpt><trkpt lat="37.60211016438248" lon="15.034842210659683"><ele>606.0</ele><time>2026-03-28T16:15:50.001Z</time></trkpt><trkpt lat="37.602253226387965" lon="15.034689951064484"><ele>609.0</ele><time>2026-03-28T16:15:51.001Z</time></trkpt><trkpt lat="37.60239596646821" lon="15.03454233758094"><ele>612.0</ele><time>2026-03-28T16:15:52.001Z</time></trkpt><trkpt lat="37.60253269192059" lon="15.034403677224962"><ele>612.0</ele><time>2026-03-28T16:15:53.001Z</time></trkpt><trkpt lat="37.60266421263424" lon="15.034271416132693"><ele>612.0</ele><time>2026-03-28T16:15:54.001Z</time></trkpt><trkpt lat="37.602788731634995" lon="15.034152624056217"><ele>612.0</ele><time>2026-03-28T16:15:55.001Z</time></trkpt><trkpt lat="37.60292483208816" lon="15.034061189654722"><ele>613.6666666666666</ele><time>2026-03-28T16:15:56.001Z</time></trkpt><trkpt lat="37.60307364986243" lon="15.034005242587527"><ele>615.3333333333333</ele><time>2026-03-28T16:15:57.001Z</time></trkpt><trkpt lat="37.60323461815414" lon="15.033982363154927"><ele>617.0</ele><time>2026-03-28T16:15:58.001Z</time></trkpt><trkpt lat="37.60340197055447" lon="15.033988389583474"><ele>617.0</ele><time>2026-03-28T16:15:59.001Z</time></trkpt><trkpt lat="37.60356964576167" lon="15.034007671185096"><ele>617.0</ele><time>2026-03-28T16:16:00.001Z</time></trkpt><trkpt lat="37.60372765014014" lon="15.033994436139128"><ele>617.0</ele><time>2026-03-28T16:16:01.001Z</time></trkpt><trkpt lat="37.60388129200408" lon="15.033939364237565"><ele>618.6666666666666</ele><time>2026-03-28T16:16:02.001Z</time></trkpt><trkpt lat="37.60403728859227" lon="15.033850115873616"><ele>620.3333333333334</ele><time>2026-03-28T16:16:03.001Z</time></trkpt><trkpt lat="37.60419116152008" lon="15.033740702006394"><ele>622.0</ele><time>2026-03-28T16:16:04.001Z</time></trkpt><trkpt lat="37.60434381279144" lon="15.033622973080202"><ele>622.0</ele><time>2026-03-28T16:16:05.001Z</time></trkpt><trkpt lat="37.60449538066094" lon="15.033502544096915"><ele>622.0</ele><time>2026-03-28T16:16:06.001Z</time></trkpt><trkpt lat="37.60464944846886" lon="15.033374725061508"><ele>622.0</ele><time>2026-03-28T16:16:07.001Z</time></trkpt><trkpt lat="37.604798268410676" lon="15.033254789353462"><ele>625.3333333333334</ele><time>2026-03-28T16:16:08.001Z</time></trkpt><trkpt lat="37.60495264620213" lon="15.033121155189546"><ele>628.6666666666666</ele><time>2026-03-28T16:16:09.001Z</time></trkpt><trkpt lat="37.605097572965825" lon="15.032999654744255"><ele>632.0</ele><time>2026-03-28T16:16:10.001Z</time></trkpt><trkpt lat="37.605243783636574" lon="15.03287778170887"><ele>634.3333333333333</ele><time>2026-03-28T16:16:11.001Z</time></trkpt><trkpt lat="37.60539596485262" lon="15.032760888228507"><ele>636.6666666666666</ele><time>2026-03-28T16:16:12.001Z</time></trkpt><trkpt lat="37.60555876855678" lon="15.032648931739255"><ele>639.0</ele><time>2026-03-28T16:16:13.001Z</time></trkpt><trkpt lat="37.60572804617364" lon="15.03254918275826"><ele>639.0</ele><time>2026-03-28T16:16:14.001Z</time></trkpt><trkpt lat="37.605906096395074" lon="15.032456581682982"><ele>639.0</ele><time>2026-03-28T16:16:15.001Z</time></trkpt><trkpt lat="37.606089374899014" lon="15.032369565404077"><ele>639.0</ele><time>2026-03-28T16:16:16.001Z</time></trkpt><trkpt lat="37.60626300733748" lon="15.032292037421572"><ele>640.0</ele><time>2026-03-28T16:16:17.001Z</time></trkpt><trkpt lat="37.60642104614289" lon="15.032226983788867"><ele>641.0</ele><time>2026-03-28T16:16:18.001Z</time></trkpt><trkpt lat="37.606572251664474" lon="15.032180388398109"><ele>642.0</ele><time>2026-03-28T16:16:19.001Z</time></trkpt><trkpt lat="37.6067190324428" lon="15.032148469811377"><ele>642.0</ele><time>2026-03-28T16:16:20.001Z</time></trkpt><trkpt lat="37.606870916262416" lon="15.032122885766098"><ele>642.0</ele><time>2026-03-28T16:16:21.001Z</time></trkpt><trkpt lat="37.607010761181414" lon="15.032110632743972"><ele>642.0</ele><time>2026-03-28T16:16:22.001Z</time></trkpt><trkpt lat="37.60714565701329" lon="15.032111284315471"><ele>642.0</ele><time>2026-03-28T16:16:23.001Z</time></trkpt><trkpt lat="37.607280950603354" lon="15.032117916305584"><ele>643.0</ele><time>2026-03-28T16:16:24.001Z</time></trkpt><trkpt lat="37.60742108021657" lon="15.032123703438574"><ele>644.0</ele><time>2026-03-28T16:16:25.001Z</time></trkpt><trkpt lat="37.60756845218277" lon="15.032128896190558"><ele>645.0</ele><time>2026-03-28T16:16:26.001Z</time></trkpt><trkpt lat="37.60772558283646" lon="15.032135204884279"><ele>646.0</ele><time>2026-03-28T16:16:27.001Z</time></trkpt><trkpt lat="37.607887313152155" lon="15.032140176273412"><ele>647.6666666666667</ele><time>2026-03-28T16:16:28.002Z</time></trkpt><trkpt lat="37.60805071946897" lon="15.032148037851378"><ele>649.3333333333334</ele><time>2026-03-28T16:16:29.002Z</time></trkpt><trkpt lat="37.60820906202962" lon="15.03215745474524"><ele>651.0</ele><time>2026-03-28T16:16:30.002Z</time></trkpt><trkpt lat="37.60835148950548" lon="15.032159445173578"><ele>651.0</ele><time>2026-03-28T16:16:31.002Z</time></trkpt><trkpt lat="37.60848159033781" lon="15.032142961540146"><ele>651.0</ele><time>2026-03-28T16:16:32.002Z</time></trkpt><trkpt lat="37.608609140846085" lon="15.03209703358065"><ele>651.0</ele><time>2026-03-28T16:16:33.002Z</time></trkpt><trkpt lat="37.608729895401034" lon="15.032016279842425"><ele>651.0</ele><time>2026-03-28T16:16:34.002Z</time></trkpt><trkpt lat="37.60884327353301" lon="15.031910067520146"><ele>652.0</ele><time>2026-03-28T16:16:35.002Z</time></trkpt><trkpt lat="37.60894553765656" lon="15.031799129172393"><ele>653.0</ele><time>2026-03-28T16:16:36.002Z</time></trkpt><trkpt lat="37.60903799757702" lon="15.031701272932528"><ele>654.0</ele><time>2026-03-28T16:16:37.002Z</time></trkpt><trkpt lat="37.60912390283133" lon="15.031617305882577"><ele>655.0</ele><time>2026-03-28T16:16:38.002Z</time></trkpt><trkpt lat="37.60918928768712" lon="15.031526500308177"><ele>655.5</ele><time>2026-03-28T16:16:39.002Z</time></trkpt><trkpt lat="37.60923198553974" lon="15.03142173430469"><ele>656.0</ele><time>2026-03-28T16:16:40.002Z</time></trkpt><trkpt lat="37.6092509413937" lon="15.03131030550976"><ele>656.5</ele><time>2026-03-28T16:16:41.002Z</time></trkpt><trkpt lat="37.60924706942819" lon="15.031205747426903"><ele>657.0</ele><time>2026-03-28T16:16:42.002Z</time></trkpt><trkpt lat="37.609231981254325" lon="15.031122374063942"><ele>657.5</ele><time>2026-03-28T16:16:43.002Z</time></trkpt><trkpt lat="37.60921725703652" lon="15.031039470001817"><ele>658.0</ele><time>2026-03-28T16:16:44.002Z</time></trkpt><trkpt lat="37.60921150082097" lon="15.030954775012452"><ele>658.0</ele><time>2026-03-28T16:16:45.002Z</time></trkpt><trkpt lat="37.609200788405005" lon="15.030866735578076"><ele>658.0</ele><time>2026-03-28T16:16:46.002Z</time></trkpt><trkpt lat="37.60917202217015" lon="15.03077339434975"><ele>658.0</ele><time>2026-03-28T16:16:47.002Z</time></trkpt><trkpt lat="37.60912008140034" lon="15.03068203369415"><ele>658.0</ele><time>2026-03-28T16:16:48.002Z</time></trkpt><trkpt lat="37.60907275301843" lon="15.030442919616094"><ele>658.0</ele><time>2026-03-28T16:16:50.002Z</time></trkpt><trkpt lat="37.60907360906437" lon="15.030297449381548"><ele>659.5</ele><time>2026-03-28T16:16:51.002Z</time></trkpt><trkpt lat="37.609077890427315" lon="15.030138258143419"><ele>661.0</ele><time>2026-03-28T16:16:52.002Z</time></trkpt><trkpt lat="37.60908551640653" lon="15.029966191731317"><ele>662.5</ele><time>2026-03-28T16:16:53.002Z</time></trkpt><trkpt lat="37.60909118954766" lon="15.029784783559425"><ele>664.0</ele><time>2026-03-28T16:16:54.002Z</time></trkpt><trkpt lat="37.60909503240216" lon="15.029610749788528"><ele>664.8000000000001</ele><time>2026-03-28T16:16:55.002Z</time></trkpt><trkpt lat="37.60911007121175" lon="15.029462789487987"><ele>665.6</ele><time>2026-03-28T16:16:56.002Z</time></trkpt><trkpt lat="37.60914983195937" lon="15.029341416686465"><ele>666.4</ele><time>2026-03-28T16:16:57Z</time></trkpt><trkpt lat="37.6092080386817" lon="15.029237041657968"><ele>667.2</ele><time>2026-03-28T16:16:58Z</time></trkpt><trkpt lat="37.60927754110928" lon="15.029141460189082"><ele>668.0</ele><time>2026-03-28T16:16:59Z</time></trkpt><trkpt lat="37.60933155897566" lon="15.029050134707399"><ele>668.25</ele><time>2026-03-28T16:17:00Z</time></trkpt><trkpt lat="37.60943250794432" lon="15.029018194135931"><ele>668.5</ele><time>2026-03-28T16:17:01Z</time></trkpt><trkpt lat="37.609533510148346" lon="15.028953263862702"><ele>668.75</ele><time>2026-03-28T16:17:02Z</time></trkpt><trkpt lat="37.60964727849523" lon="15.02888434519576"><ele>669.0</ele><time>2026-03-28T16:17:03Z</time></trkpt><trkpt lat="37.60977218022973" lon="15.028809813325646"><ele>670.0</ele><time>2026-03-28T16:17:04Z</time></trkpt><trkpt lat="37.60990568874323" lon="15.028731214707088"><ele>671.0</ele><time>2026-03-28T16:17:05Z</time></trkpt><trkpt lat="37.610043555588156" lon="15.028646866414455"><ele>672.0</ele><time>2026-03-28T16:17:06Z</time></trkpt><trkpt lat="37.61018598460805" lon="15.028560821197441"><ele>673.0</ele><time>2026-03-28T16:17:07Z</time></trkpt><trkpt lat="37.61033133533165" lon="15.028474482094214"><ele>674.0</ele><time>2026-03-28T16:17:08Z</time></trkpt><trkpt lat="37.61048054444444" lon="15.028385092416112"><ele>675.0</ele><time>2026-03-28T16:17:09Z</time></trkpt><trkpt lat="37.61063566817513" lon="15.028290972896466"><ele>675.0</ele><time>2026-03-28T16:17:10Z</time></trkpt><trkpt lat="37.610795233861985" lon="15.028195795386186"><ele>675.0</ele><time>2026-03-28T16:17:11Z</time></trkpt><trkpt lat="37.61095240513346" lon="15.028101692782327"><ele>675.0</ele><time>2026-03-28T16:17:12Z</time></trkpt><trkpt lat="37.611096515534086" lon="15.028016864659175"><ele>676.75</ele><time>2026-03-28T16:17:13Z</time></trkpt><trkpt lat="37.611227795428384" lon="15.02793905282242"><ele>678.5</ele><time>2026-03-28T16:17:14Z</time></trkpt><trkpt lat="37.611345753877956" lon="15.02786849355947"><ele>680.25</ele><time>2026-03-28T16:17:15Z</time></trkpt><trkpt lat="37.61145348619677" lon="15.027802492281646"><ele>682.0</ele><time>2026-03-28T16:17:16Z</time></trkpt><trkpt lat="37.6115515530822" lon="15.02774136709518"><ele>682.0</ele><time>2026-03-28T16:17:17Z</time></trkpt><trkpt lat="37.61164637001162" lon="15.027683426507197"><ele>682.0</ele><time>2026-03-28T16:17:18Z</time></trkpt><trkpt lat="37.61173499400028" lon="15.027631975990836"><ele>682.0</ele><time>2026-03-28T16:17:19Z</time></trkpt><trkpt lat="37.61181079466972" lon="15.027585982664581"><ele>682.0</ele><time>2026-03-28T16:17:20Z</time></trkpt><trkpt lat="37.61188408218269" lon="15.027540586643127"><ele>682.0</ele><time>2026-03-28T16:17:21Z</time></trkpt><trkpt lat="37.61196127968022" lon="15.027491152888363"><ele>683.6666666666667</ele><time>2026-03-28T16:17:22Z</time></trkpt><trkpt lat="37.61204590536415" lon="15.027441923439099"><ele>685.3333333333334</ele><time>2026-03-28T16:17:23Z</time></trkpt><trkpt lat="37.61213073684999" lon="15.027397892340439"><ele>687.0</ele><time>2026-03-28T16:17:24Z</time></trkpt><trkpt lat="37.612218662660766" lon="15.02735139351562"><ele>688.6666666666666</ele><time>2026-03-28T16:17:25.001Z</time></trkpt><trkpt lat="37.61230063471361" lon="15.027308684257614"><ele>690.3333333333333</ele><time>2026-03-28T16:17:26.001Z</time></trkpt><trkpt lat="37.612369998180576" lon="15.027265493460257"><ele>692.0</ele><time>2026-03-28T16:17:27.001Z</time></trkpt><trkpt lat="37.612434602753325" lon="15.02721948516296"><ele>692.0</ele><time>2026-03-28T16:17:28.001Z</time></trkpt><trkpt lat="37.61249256803751" lon="15.027187258530917"><ele>692.0</ele><time>2026-03-28T16:17:29.001Z</time></trkpt><trkpt lat="37.612598716590135" lon="15.027126254324335"><ele>692.0</ele><time>2026-03-28T16:17:30.001Z</time></trkpt><trkpt lat="37.612671329436914" lon="15.027082739287358"><ele>692.0</ele><time>2026-03-28T16:17:31.001Z</time></trkpt><trkpt lat="37.6127324361589" lon="15.027044201803943"><ele>692.0</ele><time>2026-03-28T16:17:32.001Z</time></trkpt><trkpt lat="37.61283732572304" lon="15.026978019998438"><ele>692.0</ele><time>2026-03-28T16:17:34.001Z</time></trkpt><trkpt lat="37.61292047084568" lon="15.026927923286593"><ele>693.5</ele><time>2026-03-28T16:17:36.001Z</time></trkpt><trkpt lat="37.612978669444594" lon="15.026889333445084"><ele>695.0</ele><time>2026-03-28T16:17:39.001Z</time></trkpt><trkpt lat="37.613058750994355" lon="15.026830844943463"><ele>696.5</ele><time>2026-03-28T16:17:42.001Z</time></trkpt><trkpt lat="37.61313646190251" lon="15.026806646358244"><ele>698.0</ele><time>2026-03-28T16:17:44.001Z</time></trkpt><trkpt lat="37.61320788223198" lon="15.026758661929"><ele>699.5</ele><time>2026-03-28T16:17:46.001Z</time></trkpt><trkpt lat="37.61329461210138" lon="15.026709326987973"><ele>701.0</ele><time>2026-03-28T16:17:48.001Z</time></trkpt><trkpt lat="37.613366997930086" lon="15.02666632800551"><ele>701.0</ele><time>2026-03-28T16:17:50.001Z</time></trkpt><trkpt lat="37.61343537854917" lon="15.026627357779024"><ele>701.0</ele><time>2026-03-28T16:17:52.001Z</time></trkpt><trkpt lat="37.61348903843397" lon="15.026583748472383"><ele>701.0</ele><time>2026-03-28T16:17:54.001Z</time></trkpt><trkpt lat="37.613562488459316" lon="15.02653700883357"><ele>701.0</ele><time>2026-03-28T16:17:56.001Z</time></trkpt><trkpt lat="37.61365646680119" lon="15.02647951035427"><ele>701.0</ele><time>2026-03-28T16:17:58.001Z</time></trkpt><trkpt lat="37.613721526196514" lon="15.02644454224761"><ele>701.0</ele><time>2026-03-28T16:18:00.001Z</time></trkpt><trkpt lat="37.61378242684005" lon="15.026403831585386"><ele>701.6666666666666</ele><time>2026-03-28T16:18:05.001Z</time></trkpt><trkpt lat="37.613842456271556" lon="15.026360095129833"><ele>702.3333333333333</ele><time>2026-03-28T16:18:07.001Z</time></trkpt><trkpt lat="37.61392316270332" lon="15.026334413680091"><ele>703.0</ele><time>2026-03-28T16:18:09.001Z</time></trkpt><trkpt lat="37.61400472351899" lon="15.026285259394273"><ele>703.6666666666666</ele><time>2026-03-28T16:18:11.001Z</time></trkpt><trkpt lat="37.61408051304725" lon="15.026218981917095"><ele>704.3333333333334</ele><time>2026-03-28T16:18:13.001Z</time></trkpt><trkpt lat="37.61415799928899" lon="15.026186908358904"><ele>705.0</ele><time>2026-03-28T16:18:15.001Z</time></trkpt><trkpt lat="37.614252815813" lon="15.026127938080311"><ele>705.0</ele><time>2026-03-28T16:18:17.001Z</time></trkpt><trkpt lat="37.61431776520431" lon="15.026084207219675"><ele>705.0</ele><time>2026-03-28T16:18:22.001Z</time></trkpt><trkpt lat="37.61439168207305" lon="15.026034427885802"><ele>705.0</ele><time>2026-03-28T16:18:24.001Z</time></trkpt><trkpt lat="37.61449516721361" lon="15.025979539897765"><ele>705.0</ele><time>2026-03-28T16:18:26.001Z</time></trkpt><trkpt lat="37.61455573105226" lon="15.025947261297091"><ele>705.0</ele><time>2026-03-28T16:18:27.001Z</time></trkpt><trkpt lat="37.61462008832633" lon="15.025911983952327"><ele>705.0</ele><time>2026-03-28T16:18:28.001Z</time></trkpt><trkpt lat="37.61467970259477" lon="15.025873871274477"><ele>705.5</ele><time>2026-03-28T16:18:29.002Z</time></trkpt><trkpt lat="37.61473800627839" lon="15.025838412229813"><ele>706.0</ele><time>2026-03-28T16:18:30.002Z</time></trkpt><trkpt lat="37.61484660517655" lon="15.025768628149043"><ele>706.5</ele><time>2026-03-28T16:18:32.002Z</time></trkpt><trkpt lat="37.61490735245948" lon="15.02573202344588"><ele>707.0</ele><time>2026-03-28T16:18:33.002Z</time></trkpt><trkpt lat="37.614975545196636" lon="15.025692909561124"><ele>707.5</ele><time>2026-03-28T16:18:34.002Z</time></trkpt><trkpt lat="37.6150483504705" lon="15.025652516787723"><ele>708.0</ele><time>2026-03-28T16:18:35.002Z</time></trkpt><trkpt lat="37.61512519610253" lon="15.02560615779619"><ele>708.0</ele><time>2026-03-28T16:18:36.002Z</time></trkpt><trkpt lat="37.615204316442096" lon="15.02555518888204"><ele>708.0</ele><time>2026-03-28T16:18:37.002Z</time></trkpt><trkpt lat="37.61529040085592" lon="15.025502640622703"><ele>708.0</ele><time>2026-03-28T16:18:38.002Z</time></trkpt><trkpt lat="37.615373171382714" lon="15.025455569542073"><ele>708.0</ele><time>2026-03-28T16:18:39.002Z</time></trkpt><trkpt lat="37.61543683282508" lon="15.025415698572615"><ele>708.0</ele><time>2026-03-28T16:18:40.002Z</time></trkpt><trkpt lat="37.61552366860202" lon="15.025364906735078"><ele>708.0</ele><time>2026-03-28T16:18:42.002Z</time></trkpt><trkpt lat="37.615595425124326" lon="15.025322087260975"><ele>709.4</ele><time>2026-03-28T16:18:44.002Z</time></trkpt><trkpt lat="37.615687690210294" lon="15.025272606572436"><ele>710.8</ele><time>2026-03-28T16:18:46.002Z</time></trkpt><trkpt lat="37.61577246612936" lon="15.025221663591552"><ele>712.2</ele><time>2026-03-28T16:18:48.002Z</time></trkpt><trkpt lat="37.61585950103147" lon="15.025159397062726"><ele>713.6</ele><time>2026-03-28T16:18:50.002Z</time></trkpt><trkpt lat="37.615951004105824" lon="15.0251007364641"><ele>715.0</ele><time>2026-03-28T16:18:52.002Z</time></trkpt><trkpt lat="37.61605163862834" lon="15.025041216415586"><ele>715.0</ele><time>2026-03-28T16:18:54.002Z</time></trkpt><trkpt lat="37.61613085701159" lon="15.024997072616499"><ele>715.0</ele><time>2026-03-28T16:18:56.002Z</time></trkpt><trkpt lat="37.61620742514226" lon="15.024943481681547"><ele>715.0</ele><time>2026-03-28T16:18:58.002Z</time></trkpt><trkpt lat="37.61630941142475" lon="15.024882049951396"><ele>715.0</ele><time>2026-03-28T16:19:00.002Z</time></trkpt><trkpt lat="37.61636953037324" lon="15.0248467952952"><ele>715.0</ele><time>2026-03-28T16:19:01.002Z</time></trkpt><trkpt lat="37.616435966802285" lon="15.024810386132328"><ele>715.0</ele><time>2026-03-28T16:19:02.002Z</time></trkpt><trkpt lat="37.61650555405249" lon="15.024772895930647"><ele>716.1666666666667</ele><time>2026-03-28T16:19:03Z</time></trkpt><trkpt lat="37.61657742523155" lon="15.02473159171314"><ele>717.3333333333334</ele><time>2026-03-28T16:19:04Z</time></trkpt><trkpt lat="37.61664912332605" lon="15.024689586562419"><ele>718.5</ele><time>2026-03-28T16:19:05Z</time></trkpt><trkpt lat="37.61672532739417" lon="15.024645812339164"><ele>719.6666666666666</ele><time>2026-03-28T16:19:06Z</time></trkpt><trkpt lat="37.616805070119206" lon="15.0245983161033"><ele>720.8333333333333</ele><time>2026-03-28T16:19:07Z</time></trkpt><trkpt lat="37.616889952090794" lon="15.024544621922075"><ele>722.0</ele><time>2026-03-28T16:19:08Z</time></trkpt><trkpt lat="37.61696682620389" lon="15.024495469742824"><ele>723.1666666666666</ele><time>2026-03-28T16:19:09Z</time></trkpt><trkpt lat="37.61703660324688" lon="15.024464094077855"><ele>724.3333333333333</ele><time>2026-03-28T16:19:10Z</time></trkpt><trkpt lat="37.61710408368044" lon="15.024450839733241"><ele>725.5</ele><time>2026-03-28T16:19:11Z</time></trkpt><trkpt lat="37.61720432415242" lon="15.024452809184671"><ele>726.6666666666666</ele><time>2026-03-28T16:19:13Z</time></trkpt><trkpt lat="37.6172912914506" lon="15.024442514704416"><ele>727.8333333333334</ele><time>2026-03-28T16:19:16Z</time></trkpt><trkpt lat="37.617360268774185" lon="15.024392694376578"><ele>729.0</ele><time>2026-03-28T16:19:21Z</time></trkpt><trkpt lat="37.61743489897477" lon="15.024309100538344"><ele>729.0</ele><time>2026-03-28T16:19:23Z</time></trkpt><trkpt lat="37.61748052103124" lon="15.024248891875935"><ele>729.0</ele><time>2026-03-28T16:19:24Z</time></trkpt><trkpt lat="37.61753982960068" lon="15.024188207199524"><ele>729.0</ele><time>2026-03-28T16:19:25Z</time></trkpt><trkpt lat="37.61761037820601" lon="15.02414019352707"><ele>729.0</ele><time>2026-03-28T16:19:26Z</time></trkpt><trkpt lat="37.61769803039877" lon="15.02409297121053"><ele>729.0</ele><time>2026-03-28T16:19:27Z</time></trkpt><trkpt lat="37.61779040094348" lon="15.024037947383837"><ele>729.0</ele><time>2026-03-28T16:19:28Z</time></trkpt><trkpt lat="37.617891857686146" lon="15.023971630694403"><ele>731.25</ele><time>2026-03-28T16:19:29Z</time></trkpt><trkpt lat="37.618000553723654" lon="15.023907362942186"><ele>733.5</ele><time>2026-03-28T16:19:30Z</time></trkpt><trkpt lat="37.6181192270623" lon="15.023835416276867"><ele>735.75</ele><time>2026-03-28T16:19:31Z</time></trkpt><trkpt lat="37.61824591383771" lon="15.023763319217332"><ele>738.0</ele><time>2026-03-28T16:19:32Z</time></trkpt><trkpt lat="37.61837603315857" lon="15.02368342308163"><ele>738.0</ele><time>2026-03-28T16:19:33Z</time></trkpt><trkpt lat="37.618505406055604" lon="15.023605530331984"><ele>738.0</ele><time>2026-03-28T16:19:34Z</time></trkpt><trkpt lat="37.61862382796204" lon="15.023527115799867"><ele>738.0</ele><time>2026-03-28T16:19:35Z</time></trkpt><trkpt lat="37.61873216675243" lon="15.02344108851207"><ele>738.0</ele><time>2026-03-28T16:19:36Z</time></trkpt><trkpt lat="37.61882336186218" lon="15.023345617910902"><ele>740.0</ele><time>2026-03-28T16:19:37Z</time></trkpt><trkpt lat="37.6188945620058" lon="15.023231806048434"><ele>742.0</ele><time>2026-03-28T16:19:38Z</time></trkpt><trkpt lat="37.618961584733846" lon="15.023122614686587"><ele>744.0</ele><time>2026-03-28T16:19:39Z</time></trkpt><trkpt lat="37.61898703450148" lon="15.022988833775944"><ele>746.0</ele><time>2026-03-28T16:19:40Z</time></trkpt><trkpt lat="37.618979212877676" lon="15.02286036100605"><ele>748.0</ele><time>2026-03-28T16:19:41Z</time></trkpt><trkpt lat="37.6189915492007" lon="15.02275645596168"><ele>748.0</ele><time>2026-03-28T16:19:42Z</time></trkpt><trkpt lat="37.61898649649799" lon="15.022661822973681"><ele>748.0</ele><time>2026-03-28T16:19:43.001Z</time></trkpt><trkpt lat="37.61898186282413" lon="15.02257840740891"><ele>748.0</ele><time>2026-03-28T16:19:44.001Z</time></trkpt><trkpt lat="37.618976390657465" lon="15.022488538931889"><ele>748.0</ele><time>2026-03-28T16:19:45.001Z</time></trkpt><trkpt lat="37.61897075122406" lon="15.022395923433027"><ele>748.0</ele><time>2026-03-28T16:19:46.001Z</time></trkpt><trkpt lat="37.61896488733165" lon="15.022299621653248"><ele>748.0</ele><time>2026-03-28T16:19:47.001Z</time></trkpt><trkpt lat="37.61895888186386" lon="15.022200994779897"><ele>748.0</ele><time>2026-03-28T16:19:48.001Z</time></trkpt><trkpt lat="37.61895238784773" lon="15.022094344670352"><ele>749.2</ele><time>2026-03-28T16:19:49.001Z</time></trkpt><trkpt lat="37.618945716011254" lon="15.021984774218522"><ele>750.4</ele><time>2026-03-28T16:19:50.001Z</time></trkpt><trkpt lat="37.61893858281729" lon="15.021867626739414"><ele>751.6</ele><time>2026-03-28T16:19:51.001Z</time></trkpt><trkpt lat="37.6189311809899" lon="15.021747153020687"><ele>752.8000000000001</ele><time>2026-03-28T16:19:52.001Z</time></trkpt><trkpt lat="37.61890950113763" lon="15.021630912285966"><ele>754.0</ele><time>2026-03-28T16:19:53.001Z</time></trkpt><trkpt lat="37.61890442645066" lon="15.02151230998816"><ele>755.4000000000001</ele><time>2026-03-28T16:19:54.001Z</time></trkpt><trkpt lat="37.618899473516215" lon="15.021392826843082"><ele>756.8</ele><time>2026-03-28T16:19:55.001Z</time></trkpt><trkpt lat="37.61890301287824" lon="15.021271880610563"><ele>758.2</ele><time>2026-03-28T16:19:56.001Z</time></trkpt><trkpt lat="37.61891995485128" lon="15.021150212264414"><ele>759.5999999999999</ele><time>2026-03-28T16:19:57.001Z</time></trkpt><trkpt lat="37.61896248744452" lon="15.021033459051358"><ele>761.0</ele><time>2026-03-28T16:19:58.001Z</time></trkpt><trkpt lat="37.619027897136434" lon="15.020931418062071"><ele>761.0</ele><time>2026-03-28T16:19:59.001Z</time></trkpt><trkpt lat="37.61911423693946" lon="15.020851304114958"><ele>761.0</ele><time>2026-03-28T16:20:00.001Z</time></trkpt><trkpt lat="37.61921046132894" lon="15.020795377830636"><ele>761.0</ele><time>2026-03-28T16:20:01.001Z</time></trkpt><trkpt lat="37.61931201547434" lon="15.020775125405839"><ele>761.0</ele><time>2026-03-28T16:20:02.001Z</time></trkpt><trkpt lat="37.6194162146256" lon="15.020785722886993"><ele>761.0</ele><time>2026-03-28T16:20:03.001Z</time></trkpt><trkpt lat="37.61952746805168" lon="15.020827767083336"><ele>763.25</ele><time>2026-03-28T16:20:04.001Z</time></trkpt><trkpt lat="37.6196464038787" lon="15.020890134616142"><ele>765.5</ele><time>2026-03-28T16:20:05.001Z</time></trkpt><trkpt lat="37.61977373003463" lon="15.020955357798352"><ele>767.75</ele><time>2026-03-28T16:20:06.001Z</time></trkpt><trkpt lat="37.61990751443181" lon="15.021019166591142"><ele>770.0</ele><time>2026-03-28T16:20:07.001Z</time></trkpt><trkpt lat="37.62004349292519" lon="15.021083768707477"><ele>770.0</ele><time>2026-03-28T16:20:08.001Z</time></trkpt><trkpt lat="37.62017940898213" lon="15.021159291712996"><ele>770.0</ele><time>2026-03-28T16:20:09.001Z</time></trkpt><trkpt lat="37.620315756313914" lon="15.021232562949356"><ele>770.0</ele><time>2026-03-28T16:20:10.001Z</time></trkpt><trkpt lat="37.62045242665061" lon="15.021302616026652"><ele>770.0</ele><time>2026-03-28T16:20:11.001Z</time></trkpt><trkpt lat="37.62059281449253" lon="15.021375451610648"><ele>771.3333333333334</ele><time>2026-03-28T16:20:12.001Z</time></trkpt><trkpt lat="37.62073184910968" lon="15.021449306644753"><ele>772.6666666666667</ele><time>2026-03-28T16:20:13.001Z</time></trkpt><trkpt lat="37.620874312871834" lon="15.021519149921772"><ele>774.0</ele><time>2026-03-28T16:20:14.001Z</time></trkpt><trkpt lat="37.62101336458335" lon="15.021591801301879"><ele>774.0</ele><time>2026-03-28T16:20:15.001Z</time></trkpt><trkpt lat="37.621143748168734" lon="15.021654261553415"><ele>774.0</ele><time>2026-03-28T16:20:16.001Z</time></trkpt><trkpt lat="37.62126890998754" lon="15.02170051394823"><ele>774.0</ele><time>2026-03-28T16:20:17.001Z</time></trkpt><trkpt lat="37.62139715665121" lon="15.021722661646217"><ele>774.0</ele><time>2026-03-28T16:20:18.001Z</time></trkpt><trkpt lat="37.62153062907974" lon="15.021718276960145"><ele>774.0</ele><time>2026-03-28T16:20:19.001Z</time></trkpt><trkpt lat="37.62166704653222" lon="15.021687731145747"><ele>774.0</ele><time>2026-03-28T16:20:20.001Z</time></trkpt><trkpt lat="37.62180347889632" lon="15.02163077303017"><ele>774.0</ele><time>2026-03-28T16:20:21.001Z</time></trkpt><trkpt lat="37.62193807409754" lon="15.021554119736185"><ele>774.0</ele><time>2026-03-28T16:20:22.001Z</time></trkpt><trkpt lat="37.622074991238144" lon="15.021465284301884"><ele>778.6666666666667</ele><time>2026-03-28T16:20:23.001Z</time></trkpt><trkpt lat="37.62221736746062" lon="15.02137930908221"><ele>783.3333333333334</ele><time>2026-03-28T16:20:24.001Z</time></trkpt><trkpt lat="37.62236374376142" lon="15.021295989055055"><ele>788.0</ele><time>2026-03-28T16:20:25.001Z</time></trkpt><trkpt lat="37.622516920728835" lon="15.021205611208854"><ele>788.0</ele><time>2026-03-28T16:20:26.001Z</time></trkpt><trkpt lat="37.622676125772" lon="15.021108744218354"><ele>788.0</ele><time>2026-03-28T16:20:27.001Z</time></trkpt><trkpt lat="37.62283326836493" lon="15.021011639825163"><ele>788.0</ele><time>2026-03-28T16:20:28.001Z</time></trkpt><trkpt lat="37.62298286622345" lon="15.02090964592175"><ele>791.6666666666667</ele><time>2026-03-28T16:20:29.001Z</time></trkpt><trkpt lat="37.62312116663808" lon="15.020790573908851"><ele>795.3333333333333</ele><time>2026-03-28T16:20:30.001Z</time></trkpt><trkpt lat="37.62324693677993" lon="15.020651224775946"><ele>799.0</ele><time>2026-03-28T16:20:31.001Z</time></trkpt><trkpt lat="37.62336469965881" lon="15.020496932875227"><ele>799.0</ele><time>2026-03-28T16:20:32.001Z</time></trkpt><trkpt lat="37.62346995140649" lon="15.020330615027076"><ele>799.0</ele><time>2026-03-28T16:20:33.001Z</time></trkpt><trkpt lat="37.62356332788064" lon="15.02015526706744"><ele>799.0</ele><time>2026-03-28T16:20:34.001Z</time></trkpt><trkpt lat="37.62364683248469" lon="15.019967574645646"><ele>801.75</ele><time>2026-03-28T16:20:35.001Z</time></trkpt><trkpt lat="37.623706557781176" lon="15.019792938948232"><ele>804.5</ele><time>2026-03-28T16:20:36.001Z</time></trkpt><trkpt lat="37.623747106228585" lon="15.019627552190604"><ele>807.25</ele><time>2026-03-28T16:20:37.001Z</time></trkpt><trkpt lat="37.62379709551713" lon="15.019469156953816"><ele>810.0</ele><time>2026-03-28T16:20:38.001Z</time></trkpt><trkpt lat="37.623821408687135" lon="15.019294233991364"><ele>811.25</ele><time>2026-03-28T16:20:39.001Z</time></trkpt><trkpt lat="37.623820839614524" lon="15.019108144069408"><ele>812.5</ele><time>2026-03-28T16:20:40.001Z</time></trkpt><trkpt lat="37.62382314525133" lon="15.018919476221413"><ele>813.75</ele><time>2026-03-28T16:20:41.001Z</time></trkpt><trkpt lat="37.62381531604072" lon="15.018746978164218"><ele>815.0</ele><time>2026-03-28T16:20:42.001Z</time></trkpt><trkpt lat="37.623799254210745" lon="15.018609497232458"><ele>815.0</ele><time>2026-03-28T16:20:43.001Z</time></trkpt><trkpt lat="37.62379902367545" lon="15.018484880648902"><ele>815.0</ele><time>2026-03-28T16:20:44.001Z</time></trkpt><trkpt lat="37.62377513921082" lon="15.01836151327159"><ele>815.0</ele><time>2026-03-28T16:20:45.001Z</time></trkpt><trkpt lat="37.62375327481708" lon="15.0182369765993"><ele>815.0</ele><time>2026-03-28T16:20:46.001Z</time></trkpt><trkpt lat="37.62373096847289" lon="15.018113603795804"><ele>815.0</ele><time>2026-03-28T16:20:47.002Z</time></trkpt><trkpt lat="37.62369315045755" lon="15.017990153575969"><ele>815.6</ele><time>2026-03-28T16:20:48.002Z</time></trkpt><trkpt lat="37.623672692384474" lon="15.017865459926712"><ele>816.2</ele><time>2026-03-28T16:20:49.002Z</time></trkpt><trkpt lat="37.62365205194049" lon="15.017745572704193"><ele>816.8</ele><time>2026-03-28T16:20:50.002Z</time></trkpt><trkpt lat="37.623630085914435" lon="15.017618262252519"><ele>817.4</ele><time>2026-03-28T16:20:51.002Z</time></trkpt><trkpt lat="37.62360848060031" lon="15.017487278685103"><ele>818.0</ele><time>2026-03-28T16:20:52.002Z</time></trkpt><trkpt lat="37.623583936656786" lon="15.017346511849746"><ele>818.0</ele><time>2026-03-28T16:20:53.002Z</time></trkpt><trkpt lat="37.62355622962202" lon="15.017199844443432"><ele>818.0</ele><time>2026-03-28T16:20:54.002Z</time></trkpt><trkpt lat="37.62353170239165" lon="15.017050086998937"><ele>818.0</ele><time>2026-03-28T16:20:55.002Z</time></trkpt><trkpt lat="37.62350519478244" lon="15.016890907059107"><ele>818.0</ele><time>2026-03-28T16:20:56.002Z</time></trkpt><trkpt lat="37.62347779523808" lon="15.016727416737325"><ele>820.25</ele><time>2026-03-28T16:20:57.002Z</time></trkpt><trkpt lat="37.62344709064525" lon="15.016560283139905"><ele>822.5</ele><time>2026-03-28T16:20:58.002Z</time></trkpt><trkpt lat="37.62341594326991" lon="15.016392821366182"><ele>824.75</ele><time>2026-03-28T16:20:59.002Z</time></trkpt><trkpt lat="37.62340441616565" lon="15.016221369204338"><ele>827.0</ele><time>2026-03-28T16:21:00.002Z</time></trkpt><trkpt lat="37.62335943060419" lon="15.016054740922455"><ele>827.0</ele><time>2026-03-28T16:21:01.002Z</time></trkpt><trkpt lat="37.623346196876206" lon="15.015888966505235"><ele>827.0</ele><time>2026-03-28T16:21:02.002Z</time></trkpt><trkpt lat="37.62329726175203" lon="15.015722943336092"><ele>827.0</ele><time>2026-03-28T16:21:03.002Z</time></trkpt><trkpt lat="37.623229204966755" lon="15.015561523771545"><ele>827.0</ele><time>2026-03-28T16:21:04.002Z</time></trkpt><trkpt lat="37.62314351799677" lon="15.015417420550238"><ele>828.5</ele><time>2026-03-28T16:21:05.002Z</time></trkpt><trkpt lat="37.623042801700464" lon="15.015279448740563"><ele>830.0</ele><time>2026-03-28T16:21:06.002Z</time></trkpt><trkpt lat="37.62295679622743" lon="15.01513788578411"><ele>831.5</ele><time>2026-03-28T16:21:07.002Z</time></trkpt><trkpt lat="37.622891101264486" lon="15.014986776514268"><ele>833.0</ele><time>2026-03-28T16:21:08.002Z</time></trkpt><trkpt lat="37.622840340865835" lon="15.014823246167806"><ele>834.0</ele><time>2026-03-28T16:21:09Z</time></trkpt><trkpt lat="37.62284012055529" lon="15.014647794378634"><ele>835.0</ele><time>2026-03-28T16:21:10Z</time></trkpt><trkpt lat="37.62287354183096" lon="15.014480374114155"><ele>836.0</ele><time>2026-03-28T16:21:11Z</time></trkpt><trkpt lat="37.62293472124447" lon="15.014336530046698"><ele>837.0</ele><time>2026-03-28T16:21:12Z</time></trkpt><trkpt lat="37.62301902401855" lon="15.014206700418573"><ele>836.75</ele><time>2026-03-28T16:21:13Z</time></trkpt><trkpt lat="37.623125062560035" lon="15.014103475076318"><ele>836.5</ele><time>2026-03-28T16:21:14Z</time></trkpt><trkpt lat="37.62325156404123" lon="15.014022234186301"><ele>836.25</ele><time>2026-03-28T16:21:15Z</time></trkpt><trkpt lat="37.62339282048458" lon="15.013962219835104"><ele>836.0</ele><time>2026-03-28T16:21:16Z</time></trkpt><trkpt lat="37.62354125946697" lon="15.013908087956134"><ele>838.0</ele><time>2026-03-28T16:21:17Z</time></trkpt><trkpt lat="37.623697157223084" lon="15.013851511491126"><ele>840.0</ele><time>2026-03-28T16:21:18Z</time></trkpt><trkpt lat="37.62385498921733" lon="15.013794061700464"><ele>842.0</ele><time>2026-03-28T16:21:19Z</time></trkpt><trkpt lat="37.62401788991915" lon="15.013734861899545"><ele>842.0</ele><time>2026-03-28T16:21:20Z</time></trkpt><trkpt lat="37.62417810380349" lon="15.01367268564406"><ele>842.0</ele><time>2026-03-28T16:21:21Z</time></trkpt><trkpt lat="37.62432569494778" lon="15.01361648506045"><ele>842.0</ele><time>2026-03-28T16:21:22Z</time></trkpt><trkpt lat="37.624460686595086" lon="15.01356670226975"><ele>843.5</ele><time>2026-03-28T16:21:23Z</time></trkpt><trkpt lat="37.62458267622127" lon="15.013521844618689"><ele>845.0</ele><time>2026-03-28T16:21:24Z</time></trkpt><trkpt lat="37.62469339427769" lon="15.013480641681197"><ele>846.5</ele><time>2026-03-28T16:21:25Z</time></trkpt><trkpt lat="37.62480039135477" lon="15.013436991525674"><ele>848.0</ele><time>2026-03-28T16:21:26Z</time></trkpt><trkpt lat="37.62492045136909" lon="15.013414796508249"><ele>848.0</ele><time>2026-03-28T16:21:27Z</time></trkpt><trkpt lat="37.625056076146976" lon="15.013407421299549"><ele>848.0</ele><time>2026-03-28T16:21:28Z</time></trkpt><trkpt lat="37.62520426862958" lon="15.013412795433702"><ele>848.0</ele><time>2026-03-28T16:21:29Z</time></trkpt><trkpt lat="37.62536134642288" lon="15.013420074544783"><ele>848.0</ele><time>2026-03-28T16:21:30Z</time></trkpt><trkpt lat="37.62552720447129" lon="15.013425616725291"><ele>849.6666666666667</ele><time>2026-03-28T16:21:31Z</time></trkpt><trkpt lat="37.62569674077681" lon="15.013434110790008"><ele>851.3333333333333</ele><time>2026-03-28T16:21:32Z</time></trkpt><trkpt lat="37.62587254335651" lon="15.013438761659193"><ele>853.0</ele><time>2026-03-28T16:21:33Z</time></trkpt><trkpt lat="37.62605317603937" lon="15.013442363032043"><ele>854.6666666666666</ele><time>2026-03-28T16:21:34Z</time></trkpt><trkpt lat="37.62623150515215" lon="15.013451383990354"><ele>856.3333333333333</ele><time>2026-03-28T16:21:35Z</time></trkpt><trkpt lat="37.62638739463632" lon="15.013456322551407"><ele>858.0</ele><time>2026-03-28T16:21:36Z</time></trkpt><trkpt lat="37.626528283254395" lon="15.013457773136608"><ele>858.0</ele><time>2026-03-28T16:21:37Z</time></trkpt><trkpt lat="37.62666406567015" lon="15.013452697877836"><ele>858.0</ele><time>2026-03-28T16:21:38Z</time></trkpt><trkpt lat="37.62680232923949" lon="15.013433075359476"><ele>858.0</ele><time>2026-03-28T16:21:39Z</time></trkpt><trkpt lat="37.62694138672266" lon="15.013389620798524"><ele>858.0</ele><time>2026-03-28T16:21:40Z</time></trkpt><trkpt lat="37.62708148633401" lon="15.013319801169732"><ele>861.0</ele><time>2026-03-28T16:21:41Z</time></trkpt><trkpt lat="37.627216847183526" lon="15.013221187989934"><ele>864.0</ele><time>2026-03-28T16:21:42Z</time></trkpt><trkpt lat="37.62734963554988" lon="15.013111129038212"><ele>867.0</ele><time>2026-03-28T16:21:43Z</time></trkpt><trkpt lat="37.62746856686676" lon="15.013006776348597"><ele>867.0</ele><time>2026-03-28T16:21:44Z</time></trkpt><trkpt lat="37.627566219159185" lon="15.012893622464508"><ele>867.0</ele><time>2026-03-28T16:21:45Z</time></trkpt><trkpt lat="37.62763157648879" lon="15.012760352886875"><ele>867.0</ele><time>2026-03-28T16:21:46Z</time></trkpt><trkpt lat="37.62766253493665" lon="15.01261169390334"><ele>867.0</ele><time>2026-03-28T16:21:47Z</time></trkpt><trkpt lat="37.62766488074876" lon="15.012455022452164"><ele>867.5</ele><time>2026-03-28T16:21:48.001Z</time></trkpt><trkpt lat="37.627656823943184" lon="15.012286912308518"><ele>868.0</ele><time>2026-03-28T16:21:49.001Z</time></trkpt><trkpt lat="37.627649003952406" lon="15.012115512581287"><ele>868.5</ele><time>2026-03-28T16:21:50.001Z</time></trkpt><trkpt lat="37.62764650876352" lon="15.011943548074429"><ele>869.0</ele><time>2026-03-28T16:21:51.001Z</time></trkpt><trkpt lat="37.62764237217354" lon="15.011766117265385"><ele>869.75</ele><time>2026-03-28T16:21:52.001Z</time></trkpt><trkpt lat="37.62763462659192" lon="15.011583947294929"><ele>870.5</ele><time>2026-03-28T16:21:53.001Z</time></trkpt><trkpt lat="37.627624298778244" lon="15.011396267193694"><ele>871.25</ele><time>2026-03-28T16:21:54.001Z</time></trkpt><trkpt lat="37.62761529696653" lon="15.011206936444445"><ele>872.0</ele><time>2026-03-28T16:21:55.001Z</time></trkpt><trkpt lat="37.62760844259187" lon="15.011014456815223"><ele>872.25</ele><time>2026-03-28T16:21:56.001Z</time></trkpt><trkpt lat="37.627602970957554" lon="15.010824143184786"><ele>872.5</ele><time>2026-03-28T16:21:57.001Z</time></trkpt><trkpt lat="37.627600400744576" lon="15.010636526356496"><ele>872.75</ele><time>2026-03-28T16:21:58.001Z</time></trkpt><trkpt lat="37.6276044501738" lon="15.01046845411865"><ele>873.0</ele><time>2026-03-28T16:21:59.001Z</time></trkpt><trkpt lat="37.627636391036894" lon="15.01034250375114"><ele>873.0</ele><time>2026-03-28T16:22:00.001Z</time></trkpt><trkpt lat="37.627696452081416" lon="15.01022619159354"><ele>873.0</ele><time>2026-03-28T16:22:01.001Z</time></trkpt><trkpt lat="37.627773825923114" lon="15.01011451217495"><ele>873.0</ele><time>2026-03-28T16:22:02.001Z</time></trkpt><trkpt lat="37.627860366194746" lon="15.009997794099764"><ele>873.0</ele><time>2026-03-28T16:22:03.001Z</time></trkpt><trkpt lat="37.627949622771915" lon="15.009871573010996"><ele>876.25</ele><time>2026-03-28T16:22:04.001Z</time></trkpt><trkpt lat="37.62803731221478" lon="15.009731220897464"><ele>879.5</ele><time>2026-03-28T16:22:05.001Z</time></trkpt><trkpt lat="37.62811658063864" lon="15.009572897692856"><ele>882.75</ele><time>2026-03-28T16:22:06.001Z</time></trkpt><trkpt lat="37.62818904341965" lon="15.009403411196162"><ele>886.0</ele><time>2026-03-28T16:22:07.001Z</time></trkpt><trkpt lat="37.62826456998985" lon="15.009225403651758"><ele>885.3333333333333</ele><time>2026-03-28T16:22:08.001Z</time></trkpt><trkpt lat="37.62834339544985" lon="15.009042504235033"><ele>884.6666666666667</ele><time>2026-03-28T16:22:09.001Z</time></trkpt><trkpt lat="37.628425668104725" lon="15.008853415432162"><ele>884.0</ele><time>2026-03-28T16:22:10.001Z</time></trkpt><trkpt lat="37.62850823651146" lon="15.008656024088792"><ele>884.0</ele><time>2026-03-28T16:22:11.001Z</time></trkpt><trkpt lat="37.62859333071703" lon="15.008453873877832"><ele>884.0</ele><time>2026-03-28T16:22:12.001Z</time></trkpt><trkpt lat="37.628680377144406" lon="15.008249765364916"><ele>884.0</ele><time>2026-03-28T16:22:13.001Z</time></trkpt><trkpt lat="37.628770762775204" lon="15.00804080363964"><ele>888.3333333333334</ele><time>2026-03-28T16:22:14.001Z</time></trkpt><trkpt lat="37.62886298883222" lon="15.007826466464904"><ele>892.6666666666667</ele><time>2026-03-28T16:22:15.001Z</time></trkpt><trkpt lat="37.62895128395867" lon="15.00761639492484"><ele>897.0</ele><time>2026-03-28T16:22:16.001Z</time></trkpt><trkpt lat="37.62903667491896" lon="15.00743093085868"><ele>897.0</ele><time>2026-03-28T16:22:17.001Z</time></trkpt><trkpt lat="37.62913756830074" lon="15.007255030113244"><ele>897.0</ele><time>2026-03-28T16:22:18.001Z</time></trkpt><trkpt lat="37.62924807529949" lon="15.007088414701352"><ele>897.0</ele><time>2026-03-28T16:22:19.001Z</time></trkpt><trkpt lat="37.62935908647794" lon="15.006923546720369"><ele>897.0</ele><time>2026-03-28T16:22:20.001Z</time></trkpt><trkpt lat="37.62946694153437" lon="15.0067529424762"><ele>897.0</ele><time>2026-03-28T16:22:21.001Z</time></trkpt><trkpt lat="37.629568696665" lon="15.00657299693522"><ele>897.0</ele><time>2026-03-28T16:22:22.001Z</time></trkpt><trkpt lat="37.629656246619874" lon="15.006373495159819"><ele>897.3333333333333</ele><time>2026-03-28T16:22:23.001Z</time></trkpt><trkpt lat="37.62972974417668" lon="15.006157373140235"><ele>897.6666666666666</ele><time>2026-03-28T16:22:24.001Z</time></trkpt><trkpt lat="37.629805645238804" lon="15.00593522207896"><ele>898.0</ele><time>2026-03-28T16:22:25.001Z</time></trkpt><trkpt lat="37.62988713363642" lon="15.005709711882162"><ele>898.0</ele><time>2026-03-28T16:22:26.001Z</time></trkpt><trkpt lat="37.62997094700887" lon="15.00548600589539"><ele>898.0</ele><time>2026-03-28T16:22:27.001Z</time></trkpt><trkpt lat="37.63006802207862" lon="15.005268412650965"><ele>898.0</ele><time>2026-03-28T16:22:28.001Z</time></trkpt><trkpt lat="37.63018870369154" lon="15.005064460391562"><ele>899.3333333333333</ele><time>2026-03-28T16:22:29.001Z</time></trkpt><trkpt lat="37.63031581679255" lon="15.00486499212707"><ele>900.6666666666667</ele><time>2026-03-28T16:22:30.001Z</time></trkpt><trkpt lat="37.6304332960612" lon="15.004673167471525"><ele>902.0</ele><time>2026-03-28T16:22:31.001Z</time></trkpt><trkpt lat="37.63054154300103" lon="15.00449754122903"><ele>902.0</ele><time>2026-03-28T16:22:32.001Z</time></trkpt><trkpt lat="37.63064046131615" lon="15.00433360877863"><ele>902.0</ele><time>2026-03-28T16:22:33.001Z</time></trkpt><trkpt lat="37.63072707900163" lon="15.004174836829351"><ele>902.0</ele><time>2026-03-28T16:22:34.001Z</time></trkpt><trkpt lat="37.63079804371822" lon="15.003997579050646"><ele>901.6666666666667</ele><time>2026-03-28T16:22:35.001Z</time></trkpt><trkpt lat="37.63084627796538" lon="15.003801537771722"><ele>901.3333333333333</ele><time>2026-03-28T16:22:36.001Z</time></trkpt><trkpt lat="37.63089158944103" lon="15.003592329249043"><ele>901.0</ele><time>2026-03-28T16:22:37.001Z</time></trkpt><trkpt lat="37.63094060213282" lon="15.003380115994442"><ele>901.6666666666666</ele><time>2026-03-28T16:22:38.001Z</time></trkpt><trkpt lat="37.630994438922954" lon="15.003169219434193"><ele>902.3333333333333</ele><time>2026-03-28T16:22:39.001Z</time></trkpt><trkpt lat="37.631048090811404" lon="15.002963554836564"><ele>903.0</ele><time>2026-03-28T16:22:40.001Z</time></trkpt><trkpt lat="37.63109983020518" lon="15.002765015294177"><ele>903.0</ele><time>2026-03-28T16:22:41.001Z</time></trkpt><trkpt lat="37.63114484090084" lon="15.00258422077917"><ele>903.0</ele><time>2026-03-28T16:22:42.001Z</time></trkpt><trkpt lat="37.63117581893919" lon="15.002427986022187"><ele>903.0</ele><time>2026-03-28T16:22:43.001Z</time></trkpt><trkpt lat="37.63118513131496" lon="15.00227810578753"><ele>903.0</ele><time>2026-03-28T16:22:44.001Z</time></trkpt><trkpt lat="37.63116968595651" lon="15.002123581880033"><ele>905.0</ele><time>2026-03-28T16:22:45.001Z</time></trkpt><trkpt lat="37.6311250334314" lon="15.001979538144143"><ele>907.0</ele><time>2026-03-28T16:22:46.001Z</time></trkpt><trkpt lat="37.63105017857987" lon="15.001866256531052"><ele>909.0</ele><time>2026-03-28T16:22:47.001Z</time></trkpt><trkpt lat="37.63095493458313" lon="15.00178136949982"><ele>911.0</ele><time>2026-03-28T16:22:48.001Z</time></trkpt><trkpt lat="37.630853422556356" lon="15.0017290447746"><ele>911.0</ele><time>2026-03-28T16:22:49.001Z</time></trkpt><trkpt lat="37.63075348448733" lon="15.001692738039305"><ele>910.9999999999999</ele><time>2026-03-28T16:22:50.001Z</time></trkpt><trkpt lat="37.6306607097274" lon="15.001646613152019"><ele>910.9999999999999</ele><time>2026-03-28T16:22:51.002Z</time></trkpt><trkpt lat="37.63058273119339" lon="15.001572909352259"><ele>911.0</ele><time>2026-03-28T16:22:52.002Z</time></trkpt><trkpt lat="37.630522307531855" lon="15.00148151103024"><ele>911.0</ele><time>2026-03-28T16:22:53.002Z</time></trkpt><trkpt lat="37.63047721436735" lon="15.001372744858555"><ele>911.0</ele><time>2026-03-28T16:22:54.002Z</time></trkpt><trkpt lat="37.63045643347282" lon="15.001244910724143"><ele>910.9999999999999</ele><time>2026-03-28T16:22:55.002Z</time></trkpt><trkpt lat="37.63045910477049" lon="15.001109408729823"><ele>910.9999999999999</ele><time>2026-03-28T16:22:56.002Z</time></trkpt><trkpt lat="37.63048947476269" lon="15.000983390218405"><ele>911.0</ele><time>2026-03-28T16:22:57.002Z</time></trkpt><trkpt lat="37.63054633026609" lon="15.000865836301008"><ele>911.0</ele><time>2026-03-28T16:22:58.002Z</time></trkpt><trkpt lat="37.63062518871567" lon="15.00076152755808"><ele>911.0</ele><time>2026-03-28T16:22:59.002Z</time></trkpt><trkpt lat="37.63072049492719" lon="15.000678565872466"><ele>911.0</ele><time>2026-03-28T16:23:00.002Z</time></trkpt><trkpt lat="37.63082839474269" lon="15.000634468756585"><ele>911.0</ele><time>2026-03-28T16:23:01.002Z</time></trkpt><trkpt lat="37.63094058601399" lon="15.000635301232172"><ele>911.0</ele><time>2026-03-28T16:23:02.002Z</time></trkpt><trkpt lat="37.631052633165936" lon="15.00066505913247"><ele>912.5</ele><time>2026-03-28T16:23:03.002Z</time></trkpt><trkpt lat="37.631172326125096" lon="15.000701355329264"><ele>914.0</ele><time>2026-03-28T16:23:04.002Z</time></trkpt><trkpt lat="37.63129768199265" lon="15.000739972628658"><ele>915.5</ele><time>2026-03-28T16:23:05.002Z</time></trkpt><trkpt lat="37.63142832607275" lon="15.000785458898335"><ele>917.0</ele><time>2026-03-28T16:23:06.002Z</time></trkpt><trkpt lat="37.63155949628232" lon="15.000832973849054"><ele>917.0</ele><time>2026-03-28T16:23:07.002Z</time></trkpt><trkpt lat="37.63168835695737" lon="15.000878240362717"><ele>917.0</ele><time>2026-03-28T16:23:08.002Z</time></trkpt><trkpt lat="37.631806932009056" lon="15.000908386015718"><ele>917.0</ele><time>2026-03-28T16:23:09.002Z</time></trkpt><trkpt lat="37.631923165176154" lon="15.000909051798592"><ele>917.0</ele><time>2026-03-28T16:23:10.002Z</time></trkpt><trkpt lat="37.632033830297836" lon="15.000875010233642"><ele>919.25</ele><time>2026-03-28T16:23:11.002Z</time></trkpt><trkpt lat="37.6321395344773" lon="15.000812979125707"><ele>921.5</ele><time>2026-03-28T16:23:12.002Z</time></trkpt><trkpt lat="37.63225176335745" lon="15.000732375280608"><ele>923.75</ele><time>2026-03-28T16:23:13.002Z</time></trkpt><trkpt lat="37.6323737393802" lon="15.00064619272662"><ele>926.0</ele><time>2026-03-28T16:23:14.002Z</time></trkpt><trkpt lat="37.63250525478639" lon="15.00056030261259"><ele>926.0</ele><time>2026-03-28T16:23:15Z</time></trkpt><trkpt lat="37.63264309702372" lon="15.00046758585217"><ele>926.0</ele><time>2026-03-28T16:23:16Z</time></trkpt><trkpt lat="37.632781033400015" lon="15.000373742045126"><ele>926.0</ele><time>2026-03-28T16:23:17Z</time></trkpt><trkpt lat="37.632917054319286" lon="15.000281048056044"><ele>927.0</ele><time>2026-03-28T16:23:18Z</time></trkpt><trkpt lat="37.63305082050595" lon="15.000192624457053"><ele>928.0</ele><time>2026-03-28T16:23:19Z</time></trkpt><trkpt lat="37.63317573843506" lon="15.000109357311882"><ele>929.0</ele><time>2026-03-28T16:23:20Z</time></trkpt><trkpt lat="37.63329118009232" lon="15.0000287790245"><ele>930.0</ele><time>2026-03-28T16:23:21Z</time></trkpt><trkpt lat="37.63340274141726" lon="14.999951221915731"><ele>930.0</ele><time>2026-03-28T16:23:22Z</time></trkpt><trkpt lat="37.63351581277318" lon="14.999884057958694"><ele>930.0</ele><time>2026-03-28T16:23:23Z</time></trkpt><trkpt lat="37.63364063527633" lon="14.99983203888477"><ele>930.0</ele><time>2026-03-28T16:23:24Z</time></trkpt><trkpt lat="37.63377906669234" lon="14.999787750183472"><ele>930.0</ele><time>2026-03-28T16:23:25Z</time></trkpt><trkpt lat="37.6339278315353" lon="14.999742968423922"><ele>929.6666666666667</ele><time>2026-03-28T16:23:26Z</time></trkpt><trkpt lat="37.63408358304225" lon="14.999694829467291"><ele>929.3333333333334</ele><time>2026-03-28T16:23:27Z</time></trkpt><trkpt lat="37.63424673725381" lon="14.999641249028743"><ele>929.0</ele><time>2026-03-28T16:23:28Z</time></trkpt><trkpt lat="37.63441370231984" lon="14.999584762501069"><ele>929.6666666666667</ele><time>2026-03-28T16:23:29Z</time></trkpt><trkpt lat="37.634575582849926" lon="14.999532546633606"><ele>930.3333333333333</ele><time>2026-03-28T16:23:30Z</time></trkpt><trkpt lat="37.63472889606275" lon="14.9994860293248"><ele>931.0</ele><time>2026-03-28T16:23:31Z</time></trkpt><trkpt lat="37.634870220247706" lon="14.999442883840493"><ele>931.0</ele><time>2026-03-28T16:23:32Z</time></trkpt><trkpt lat="37.63500488282299" lon="14.99938915711596"><ele>931.0</ele><time>2026-03-28T16:23:33Z</time></trkpt><trkpt lat="37.63513104419446" lon="14.99930550066509"><ele>931.0</ele><time>2026-03-28T16:23:34Z</time></trkpt><trkpt lat="37.63525285548076" lon="14.999198484571535"><ele>931.0</ele><time>2026-03-28T16:23:35Z</time></trkpt><trkpt lat="37.63537545454915" lon="14.999082161555735"><ele>933.6666666666666</ele><time>2026-03-28T16:23:36Z</time></trkpt><trkpt lat="37.635501683226984" lon="14.998962423653815"><ele>936.3333333333333</ele><time>2026-03-28T16:23:37Z</time></trkpt><trkpt lat="37.63562843965099" lon="14.99884143110413"><ele>939.0</ele><time>2026-03-28T16:23:38Z</time></trkpt><trkpt lat="37.63575725028377" lon="14.998723213043037"><ele>939.0</ele><time>2026-03-28T16:23:39Z</time></trkpt><trkpt lat="37.6358822191825" lon="14.998611496728941"><ele>939.0</ele><time>2026-03-28T16:23:40Z</time></trkpt><trkpt lat="37.63599694923393" lon="14.99851507673949"><ele>939.0</ele><time>2026-03-28T16:23:41Z</time></trkpt><trkpt lat="37.63611099258919" lon="14.998420263586654"><ele>939.0</ele><time>2026-03-28T16:23:42.001Z</time></trkpt><trkpt lat="37.636237506098425" lon="14.998337214528163"><ele>944.3333333333333</ele><time>2026-03-28T16:23:43.001Z</time></trkpt><trkpt lat="37.63637244645729" lon="14.998264459463487"><ele>949.6666666666666</ele><time>2026-03-28T16:23:44.001Z</time></trkpt><trkpt lat="37.63651319075702" lon="14.998188658213701"><ele>955.0</ele><time>2026-03-28T16:23:45.001Z</time></trkpt><trkpt lat="37.63666174715981" lon="14.998101555440453"><ele>955.0</ele><time>2026-03-28T16:23:46.001Z</time></trkpt><trkpt lat="37.6368196643899" lon="14.998009502923155"><ele>955.0</ele><time>2026-03-28T16:23:47.001Z</time></trkpt><trkpt lat="37.63698866555178" lon="14.997911379344336"><ele>955.0</ele><time>2026-03-28T16:23:48.001Z</time></trkpt><trkpt lat="37.63718120861051" lon="14.997824075605928"><ele>956.5</ele><time>2026-03-28T16:23:49.001Z</time></trkpt><trkpt lat="37.637387462249094" lon="14.99771121228867"><ele>958.0</ele><time>2026-03-28T16:23:50.001Z</time></trkpt><trkpt lat="37.63760205232856" lon="14.997594259731793"><ele>958.6666666666666</ele><time>2026-03-28T16:23:51.001Z</time></trkpt><trkpt lat="37.63779639563273" lon="14.997488527610665"><ele>959.3333333333333</ele><time>2026-03-28T16:23:52.001Z</time></trkpt><trkpt lat="37.6379725193398" lon="14.997389440549737"><ele>960.0</ele><time>2026-03-28T16:23:53.001Z</time></trkpt><trkpt lat="37.63807209345833" lon="14.99731526404121"><ele>960.6666666666667</ele><time>2026-03-28T16:23:54.001Z</time></trkpt><trkpt lat="37.63818714772075" lon="14.997202745088918"><ele>961.3333333333334</ele><time>2026-03-28T16:23:55.001Z</time></trkpt><trkpt lat="37.638297394999555" lon="14.997057004238068"><ele>962.0</ele><time>2026-03-28T16:23:56.001Z</time></trkpt><trkpt lat="37.638402804881814" lon="14.996886531124813"><ele>962.0</ele><time>2026-03-28T16:23:57.001Z</time></trkpt><trkpt lat="37.638525924804284" lon="14.996723408737187"><ele>962.0</ele><time>2026-03-28T16:23:58.001Z</time></trkpt><trkpt lat="37.63862357918639" lon="14.996559730806265"><ele>962.0</ele><time>2026-03-28T16:23:59.001Z</time></trkpt><trkpt lat="37.63872441862212" lon="14.996421692201666"><ele>964.75</ele><time>2026-03-28T16:24:00.001Z</time></trkpt><trkpt lat="37.63881646861404" lon="14.996291720549786"><ele>967.5</ele><time>2026-03-28T16:24:01.001Z</time></trkpt><trkpt lat="37.638902958332594" lon="14.996173619588918"><ele>970.25</ele><time>2026-03-28T16:24:02.001Z</time></trkpt><trkpt lat="37.63898078939429" lon="14.996069088319151"><ele>973.0</ele><time>2026-03-28T16:24:03.001Z</time></trkpt><trkpt lat="37.63905475678749" lon="14.995973060705136"><ele>973.0</ele><time>2026-03-28T16:24:04.001Z</time></trkpt><trkpt lat="37.63913218738615" lon="14.995889144933042"><ele>973.0</ele><time>2026-03-28T16:24:05.001Z</time></trkpt><trkpt lat="37.63922789956337" lon="14.995812717237145"><ele>973.0</ele><time>2026-03-28T16:24:06.001Z</time></trkpt><trkpt lat="37.639345251167484" lon="14.995770835626079"><ele>973.0</ele><time>2026-03-28T16:24:07.001Z</time></trkpt><trkpt lat="37.63947713739868" lon="14.995755444697284"><ele>974.0</ele><time>2026-03-28T16:24:08.001Z</time></trkpt><trkpt lat="37.639623367514346" lon="14.995748315093996"><ele>975.0</ele><time>2026-03-28T16:24:09.001Z</time></trkpt><trkpt lat="37.63978322534819" lon="14.99573877414782"><ele>976.0</ele><time>2026-03-28T16:24:10.001Z</time></trkpt><trkpt lat="37.639962275170475" lon="14.995747373311351"><ele>976.0</ele><time>2026-03-28T16:24:11.001Z</time></trkpt><trkpt lat="37.640161066164005" lon="14.995735651916767"><ele>976.0</ele><time>2026-03-28T16:24:12.001Z</time></trkpt><trkpt lat="37.64037490821001" lon="14.995716255726402"><ele>976.0</ele><time>2026-03-28T16:24:13.001Z</time></trkpt><trkpt lat="37.6406030431208" lon="14.995700069511322"><ele>977.5</ele><time>2026-03-28T16:24:14.001Z</time></trkpt><trkpt lat="37.640845426898935" lon="14.995680229018076"><ele>979.0</ele><time>2026-03-28T16:24:15.001Z</time></trkpt><trkpt lat="37.64109525613828" lon="14.995664947638653"><ele>980.5</ele><time>2026-03-28T16:24:16.001Z</time></trkpt><trkpt lat="37.64134914871363" lon="14.995651953463085"><ele>982.0</ele><time>2026-03-28T16:24:17.001Z</time></trkpt><trkpt lat="37.64160713231706" lon="14.995637193296105"><ele>982.0</ele><time>2026-03-28T16:24:18.001Z</time></trkpt><trkpt lat="37.641868272462936" lon="14.995620333855294"><ele>982.0</ele><time>2026-03-28T16:24:19.001Z</time></trkpt><trkpt lat="37.64213184592301" lon="14.995602438481708"><ele>984.5</ele><time>2026-03-28T16:24:20.001Z</time></trkpt><trkpt lat="37.64238916000612" lon="14.995585481455421"><ele>987.0</ele><time>2026-03-28T16:24:21.001Z</time></trkpt><trkpt lat="37.64261993792229" lon="14.995569566306354"><ele>988.6666666666667</ele><time>2026-03-28T16:24:22.001Z</time></trkpt><trkpt lat="37.64283649995653" lon="14.99555551296316"><ele>990.3333333333334</ele><time>2026-03-28T16:24:23.001Z</time></trkpt><trkpt lat="37.64303648032694" lon="14.995531388896385"><ele>992.0</ele><time>2026-03-28T16:24:24.001Z</time></trkpt><trkpt lat="37.643226991442816" lon="14.995464530648112"><ele>992.0</ele><time>2026-03-28T16:24:25.001Z</time></trkpt><trkpt lat="37.6434138492381" lon="14.995368895543436"><ele>992.0</ele><time>2026-03-28T16:24:26.001Z</time></trkpt><trkpt lat="37.643611043443" lon="14.995245326325197"><ele>992.0</ele><time>2026-03-28T16:24:27.001Z</time></trkpt><trkpt lat="37.64381311764776" lon="14.995136221681935"><ele>995.5</ele><time>2026-03-28T16:24:28.001Z</time></trkpt><trkpt lat="37.644019296123396" lon="14.995026671714761"><ele>999.0</ele><time>2026-03-28T16:24:29.001Z</time></trkpt><trkpt lat="37.64422829004071" lon="14.994912767220882"><ele>999.3333333333333</ele><time>2026-03-28T16:24:30.001Z</time></trkpt><trkpt lat="37.64443512446221" lon="14.99480287143547"><ele>999.6666666666666</ele><time>2026-03-28T16:24:31.001Z</time></trkpt><trkpt lat="37.64464011526024" lon="14.994696108216989"><ele>1000.0</ele><time>2026-03-28T16:24:32.001Z</time></trkpt><trkpt lat="37.64484589822012" lon="14.994587296340214"><ele>1001.6666666666666</ele><time>2026-03-28T16:24:33.001Z</time></trkpt><trkpt lat="37.645045644884206" lon="14.994481572299362"><ele>1003.3333333333333</ele><time>2026-03-28T16:24:34.001Z</time></trkpt><trkpt lat="37.64524327805398" lon="14.994377582365109"><ele>1005.0</ele><time>2026-03-28T16:24:35.001Z</time></trkpt><trkpt lat="37.64543096632002" lon="14.994279537173933"><ele>1006.6666666666667</ele><time>2026-03-28T16:24:36.001Z</time></trkpt><trkpt lat="37.645605977829746" lon="14.994188803625644"><ele>1008.3333333333334</ele><time>2026-03-28T16:24:37.001Z</time></trkpt><trkpt lat="37.64577131788036" lon="14.994098579539296"><ele>1010.0</ele><time>2026-03-28T16:24:38.001Z</time></trkpt><trkpt lat="37.64592771436126" lon="14.993986598219259"><ele>1012.0</ele><time>2026-03-28T16:24:39.001Z</time></trkpt><trkpt lat="37.64606619350647" lon="14.993835831999288"><ele>1014.0</ele><time>2026-03-28T16:24:40.001Z</time></trkpt><trkpt lat="37.64619218620872" lon="14.993654180923896"><ele>1016.0</ele><time>2026-03-28T16:24:41.001Z</time></trkpt><trkpt lat="37.646314376030865" lon="14.99345859231257"><ele>1017.6666666666667</ele><time>2026-03-28T16:24:42.001Z</time></trkpt><trkpt lat="37.64644007120178" lon="14.993259641056211"><ele>1019.3333333333333</ele><time>2026-03-28T16:24:43.001Z</time></trkpt><trkpt lat="37.646567672321986" lon="14.99306246620061"><ele>1021.0</ele><time>2026-03-28T16:24:44.001Z</time></trkpt><trkpt lat="37.64669402683382" lon="14.992866753477545"><ele>1021.0</ele><time>2026-03-28T16:24:45.001Z</time></trkpt><trkpt lat="37.646819534046344" lon="14.992675009417548"><ele>1021.0</ele><time>2026-03-28T16:24:46.001Z</time></trkpt><trkpt lat="37.64694799061297" lon="14.992497868957173"><ele>1021.0</ele><time>2026-03-28T16:24:47.002Z</time></trkpt><trkpt lat="37.64709286851188" lon="14.992346558918554"><ele>1024.3333333333333</ele><time>2026-03-28T16:24:48.002Z</time></trkpt><trkpt lat="37.6472571799593" lon="14.992205100870681"><ele>1027.6666666666667</ele><time>2026-03-28T16:24:49.002Z</time></trkpt><trkpt lat="37.64742751079392" lon="14.992073692672252"><ele>1031.0</ele><time>2026-03-28T16:24:50.002Z</time></trkpt><trkpt lat="37.64759668356251" lon="14.991933433878563"><ele>1031.0</ele><time>2026-03-28T16:24:51.002Z</time></trkpt><trkpt lat="37.64776594160669" lon="14.99178640706684"><ele>1031.0</ele><time>2026-03-28T16:24:52.002Z</time></trkpt><trkpt lat="37.64793149646077" lon="14.991645811938058"><ele>1031.0</ele><time>2026-03-28T16:24:53.002Z</time></trkpt><trkpt lat="37.648097577942075" lon="14.991502240052686"><ele>1033.3333333333335</ele><time>2026-03-28T16:24:54.002Z</time></trkpt><trkpt lat="37.6482640777809" lon="14.991355774032725"><ele>1035.6666666666667</ele><time>2026-03-28T16:24:55.002Z</time></trkpt><trkpt lat="37.648434623202064" lon="14.991210148173067"><ele>1038.0</ele><time>2026-03-28T16:24:56.002Z</time></trkpt><trkpt lat="37.648607344510616" lon="14.991062701074856"><ele>1040.0</ele><time>2026-03-28T16:24:57.002Z</time></trkpt><trkpt lat="37.64878104782658" lon="14.990913968174818"><ele>1042.0</ele><time>2026-03-28T16:24:58.002Z</time></trkpt><trkpt lat="37.648957820292175" lon="14.990764704505514"><ele>1044.0</ele><time>2026-03-28T16:24:59.002Z</time></trkpt><trkpt lat="37.64913283721556" lon="14.99061859060422"><ele>1045.0</ele><time>2026-03-28T16:25:00.002Z</time></trkpt><trkpt lat="37.64930549504468" lon="14.990469352450301"><ele>1046.0</ele><time>2026-03-28T16:25:01.002Z</time></trkpt><trkpt lat="37.64947960768153" lon="14.990323267960155"><ele>1047.0</ele><time>2026-03-28T16:25:02.002Z</time></trkpt><trkpt lat="37.649653058579986" lon="14.990167392809553"><ele>1049.0</ele><time>2026-03-28T16:25:03.002Z</time></trkpt><trkpt lat="37.64982002024287" lon="14.99002577068757"><ele>1051.0</ele><time>2026-03-28T16:25:04.002Z</time></trkpt><trkpt lat="37.649970971027486" lon="14.989898246482273"><ele>1053.0</ele><time>2026-03-28T16:25:05.002Z</time></trkpt><trkpt lat="37.65011518984362" lon="14.989772911059204"><ele>1053.3333333333333</ele><time>2026-03-28T16:25:06.002Z</time></trkpt><trkpt lat="37.65025792364244" lon="14.989652565520228"><ele>1053.6666666666665</ele><time>2026-03-28T16:25:07.002Z</time></trkpt><trkpt lat="37.65039094290476" lon="14.989533969357966"><ele>1054.0</ele><time>2026-03-28T16:25:08.002Z</time></trkpt><trkpt lat="37.6505197800307" lon="14.989414923384095"><ele>1055.0</ele><time>2026-03-28T16:25:09.002Z</time></trkpt><trkpt lat="37.65064192480984" lon="14.989302036083915"><ele>1056.0</ele><time>2026-03-28T16:25:10.002Z</time></trkpt><trkpt lat="37.650761031186995" lon="14.989195249780105"><ele>1057.0</ele><time>2026-03-28T16:25:11.002Z</time></trkpt><trkpt lat="37.65088998687869" lon="14.989089681811663"><ele>1057.3333333333333</ele><time>2026-03-28T16:25:12.002Z</time></trkpt><trkpt lat="37.65102325361528" lon="14.988996978337292"><ele>1057.6666666666667</ele><time>2026-03-28T16:25:13.002Z</time></trkpt><trkpt lat="37.65117302308983" lon="14.98893605342996"><ele>1058.0</ele><time>2026-03-28T16:25:14.002Z</time></trkpt><trkpt lat="37.65133354267079" lon="14.988914504690728"><ele>1059.0</ele><time>2026-03-28T16:25:15.002Z</time></trkpt><trkpt lat="37.651499314861425" lon="14.988931058270001"><ele>1060.0</ele><time>2026-03-28T16:25:16.002Z</time></trkpt><trkpt lat="37.65166558965432" lon="14.988988371631615"><ele>1061.0</ele><time>2026-03-28T16:25:17.002Z</time></trkpt><trkpt lat="37.651826318674125" lon="14.989063716922567"><ele>1063.0</ele><time>2026-03-28T16:25:18.002Z</time></trkpt><trkpt lat="37.65198785237785" lon="14.98914282072694"><ele>1065.0</ele><time>2026-03-28T16:25:19.002Z</time></trkpt><trkpt lat="37.65215260088772" lon="14.989210952985296"><ele>1067.0</ele><time>2026-03-28T16:25:20.002Z</time></trkpt><trkpt lat="37.65231634657466" lon="14.989271790720135"><ele>1067.0</ele><time>2026-03-28T16:25:21.001Z</time></trkpt><trkpt lat="37.65248371283865" lon="14.989335754055334"><ele>1067.0</ele><time>2026-03-28T16:25:22.001Z</time></trkpt><trkpt lat="37.652649923035" lon="14.989394720750564"><ele>1067.0</ele><time>2026-03-28T16:25:23.001Z</time></trkpt><trkpt lat="37.65281763854679" lon="14.98945777611805"><ele>1069.6666666666667</ele><time>2026-03-28T16:25:24.001Z</time></trkpt><trkpt lat="37.65299338775997" lon="14.989515379503988"><ele>1072.3333333333333</ele><time>2026-03-28T16:25:25.001Z</time></trkpt><trkpt lat="37.653166088016235" lon="14.98957422281695"><ele>1075.0</ele><time>2026-03-28T16:25:26.001Z</time></trkpt><trkpt lat="37.6533381924146" lon="14.989637265294585"><ele>1075.0</ele><time>2026-03-28T16:25:27.001Z</time></trkpt><trkpt lat="37.65350999259968" lon="14.989702520991015"><ele>1075.0</ele><time>2026-03-28T16:25:28.001Z</time></trkpt><trkpt lat="37.65368606454085" lon="14.98976810095056"><ele>1075.0</ele><time>2026-03-28T16:25:29.001Z</time></trkpt><trkpt lat="37.65386279743283" lon="14.98983517785148"><ele>1076.3333333333333</ele><time>2026-03-28T16:25:30.001Z</time></trkpt><trkpt lat="37.65403424670507" lon="14.989898552021419"><ele>1077.6666666666667</ele><time>2026-03-28T16:25:31.001Z</time></trkpt><trkpt lat="37.65419014714122" lon="14.989956409202408"><ele>1079.0</ele><time>2026-03-28T16:25:32.001Z</time></trkpt><trkpt lat="37.654334564115885" lon="14.989999413271375"><ele>1079.75</ele><time>2026-03-28T16:25:33.001Z</time></trkpt><trkpt lat="37.65446659129091" lon="14.99000419463195"><ele>1080.5</ele><time>2026-03-28T16:25:34.001Z</time></trkpt><trkpt lat="37.65458500698438" lon="14.989954101275645"><ele>1081.25</ele><time>2026-03-28T16:25:35.001Z</time></trkpt><trkpt lat="37.65469936068952" lon="14.989867856870614"><ele>1082.0</ele><time>2026-03-28T16:25:36.001Z</time></trkpt><trkpt lat="37.65481275553765" lon="14.989758178452666"><ele>1082.0</ele><time>2026-03-28T16:25:37.001Z</time></trkpt><trkpt lat="37.65493227859744" lon="14.989642268649707"><ele>1082.0</ele><time>2026-03-28T16:25:38.001Z</time></trkpt><trkpt lat="37.65506259059524" lon="14.989532805665291"><ele>1082.0</ele><time>2026-03-28T16:25:39.001Z</time></trkpt><trkpt lat="37.6552014726211" lon="14.989420962888957"><ele>1086.3333333333335</ele><time>2026-03-28T16:25:40.001Z</time></trkpt><trkpt lat="37.65534276826708" lon="14.98930222335394"><ele>1090.6666666666667</ele><time>2026-03-28T16:25:41.001Z</time></trkpt><trkpt lat="37.65548746149903" lon="14.989180361434206"><ele>1095.0</ele><time>2026-03-28T16:25:42.001Z</time></trkpt><trkpt lat="37.65563403584151" lon="14.989057444183436"><ele>1095.0</ele><time>2026-03-28T16:25:43.001Z</time></trkpt><trkpt lat="37.65578351680841" lon="14.988931317731884"><ele>1095.0</ele><time>2026-03-28T16:25:44.001Z</time></trkpt><trkpt lat="37.65593252370762" lon="14.988805028357612"><ele>1095.0</ele><time>2026-03-28T16:25:45.001Z</time></trkpt><trkpt lat="37.65608096381502" lon="14.988681279778469"><ele>1097.3333333333333</ele><time>2026-03-28T16:25:46.001Z</time></trkpt><trkpt lat="37.65623115655576" lon="14.988555207629942"><ele>1099.6666666666665</ele><time>2026-03-28T16:25:47.001Z</time></trkpt><trkpt lat="37.65638037108798" lon="14.988429301729907"><ele>1102.0</ele><time>2026-03-28T16:25:48.001Z</time></trkpt><trkpt lat="37.65653208594786" lon="14.98830425234638"><ele>1102.0</ele><time>2026-03-28T16:25:49.001Z</time></trkpt><trkpt lat="37.656684296152726" lon="14.988178616152382"><ele>1102.0</ele><time>2026-03-28T16:25:50.001Z</time></trkpt><trkpt lat="37.656833962058386" lon="14.988055534335222"><ele>1102.0</ele><time>2026-03-28T16:25:51.001Z</time></trkpt><trkpt lat="37.65698524995848" lon="14.987929054416327"><ele>1105.3333333333333</ele><time>2026-03-28T16:25:52.001Z</time></trkpt><trkpt lat="37.65713422637117" lon="14.987800005227232"><ele>1108.6666666666667</ele><time>2026-03-28T16:25:53.001Z</time></trkpt><trkpt lat="37.65728501481592" lon="14.987665214542401"><ele>1112.0</ele><time>2026-03-28T16:25:54.001Z</time></trkpt><trkpt lat="37.65743133600699" lon="14.987531994615836"><ele>1113.3333333333335</ele><time>2026-03-28T16:25:55.001Z</time></trkpt><trkpt lat="37.65758365223068" lon="14.98739673890148"><ele>1114.6666666666667</ele><time>2026-03-28T16:25:56.001Z</time></trkpt><trkpt lat="37.657734207169106" lon="14.987254751732696"><ele>1116.0</ele><time>2026-03-28T16:25:57.001Z</time></trkpt><trkpt lat="37.65787795064321" lon="14.987116338820373"><ele>1120.6666666666667</ele><time>2026-03-28T16:25:58.001Z</time></trkpt><trkpt lat="37.65801396858372" lon="14.986988680759698"><ele>1125.3333333333335</ele><time>2026-03-28T16:25:59.001Z</time></trkpt><trkpt lat="37.65814493583329" lon="14.986889966402897"><ele>1130.0</ele><time>2026-03-28T16:26:00.001Z</time></trkpt><trkpt lat="37.65828357078971" lon="14.986818844069491"><ele>1130.0</ele><time>2026-03-28T16:26:01.001Z</time></trkpt><trkpt lat="37.65843326488314" lon="14.986772373408568"><ele>1130.0</ele><time>2026-03-28T16:26:02.001Z</time></trkpt><trkpt lat="37.658587096932095" lon="14.986749900702423"><ele>1130.0</ele><time>2026-03-28T16:26:03.001Z</time></trkpt><trkpt lat="37.65874390691233" lon="14.986730063119191"><ele>1130.3333333333335</ele><time>2026-03-28T16:26:04.001Z</time></trkpt><trkpt lat="37.658905465843844" lon="14.986703321577027"><ele>1130.6666666666667</ele><time>2026-03-28T16:26:05.001Z</time></trkpt><trkpt lat="37.659067791125324" lon="14.986681516577017"><ele>1131.0</ele><time>2026-03-28T16:26:06.001Z</time></trkpt><trkpt lat="37.65922944606487" lon="14.986652140758274"><ele>1131.0</ele><time>2026-03-28T16:26:07.001Z</time></trkpt><trkpt lat="37.6593861465641" lon="14.986615103782974"><ele>1131.0</ele><time>2026-03-28T16:26:08.001Z</time></trkpt><trkpt lat="37.6595365613746" lon="14.98655134801997"><ele>1131.0</ele><time>2026-03-28T16:26:09.001Z</time></trkpt><trkpt lat="37.659680715743534" lon="14.986454819767793"><ele>1133.0</ele><time>2026-03-28T16:26:10.001Z</time></trkpt><trkpt lat="37.65981808973768" lon="14.986325929580424"><ele>1135.0</ele><time>2026-03-28T16:26:11.001Z</time></trkpt><trkpt lat="37.6599443924995" lon="14.986179379061982"><ele>1137.0</ele><time>2026-03-28T16:26:12.001Z</time></trkpt><trkpt lat="37.660060845803905" lon="14.986026078330454"><ele>1137.0</ele><time>2026-03-28T16:26:13.001Z</time></trkpt><trkpt lat="37.6601784708466" lon="14.98587456776618"><ele>1137.0</ele><time>2026-03-28T16:26:14.001Z</time></trkpt><trkpt lat="37.66028957872115" lon="14.98574240425234"><ele>1137.0</ele><time>2026-03-28T16:26:15.001Z</time></trkpt><trkpt lat="37.66039422918214" lon="14.985640501596547"><ele>1139.75</ele><time>2026-03-28T16:26:16.001Z</time></trkpt><trkpt lat="37.660507945881406" lon="14.985578084825303"><ele>1142.5</ele><time>2026-03-28T16:26:17.001Z</time></trkpt><trkpt lat="37.66063938297359" lon="14.985595201561559"><ele>1145.25</ele><time>2026-03-28T16:26:18.001Z</time></trkpt><trkpt lat="37.66077222176927" lon="14.985597246175372"><ele>1148.0</ele><time>2026-03-28T16:26:19.001Z</time></trkpt><trkpt lat="37.660919334125914" lon="14.985594667471343"><ele>1148.0</ele><time>2026-03-28T16:26:20.001Z</time></trkpt><trkpt lat="37.66107282974842" lon="14.985597513863143"><ele>1148.0</ele><time>2026-03-28T16:26:21.001Z</time></trkpt><trkpt lat="37.661229129819695" lon="14.985595476895066"><ele>1148.0</ele><time>2026-03-28T16:26:22.001Z</time></trkpt><trkpt lat="37.66138863496031" lon="14.985595390330525"><ele>1150.0</ele><time>2026-03-28T16:26:23.001Z</time></trkpt><trkpt lat="37.66153686023636" lon="14.985594575461857"><ele>1152.0</ele><time>2026-03-28T16:26:24.001Z</time></trkpt><trkpt lat="37.661668477303174" lon="14.985590156615402"><ele>1154.0</ele><time>2026-03-28T16:26:25.001Z</time></trkpt><trkpt lat="37.66178177969164" lon="14.985562076193421"><ele>1156.0</ele><time>2026-03-28T16:26:26.001Z</time></trkpt><trkpt lat="37.66187975933286" lon="14.985483282241143"><ele>1157.25</ele><time>2026-03-28T16:26:27.001Z</time></trkpt><trkpt lat="37.661972179856825" lon="14.98537098999263"><ele>1158.5</ele><time>2026-03-28T16:26:28.001Z</time></trkpt><trkpt lat="37.662064778408556" lon="14.985240402281388"><ele>1159.75</ele><time>2026-03-28T16:26:29.001Z</time></trkpt><trkpt lat="37.662164804709406" lon="14.985108878965224"><ele>1161.0</ele><time>2026-03-28T16:26:30.001Z</time></trkpt><trkpt lat="37.662272400336626" lon="14.984972627407677"><ele>1161.0</ele><time>2026-03-28T16:26:31.001Z</time></trkpt><trkpt lat="37.66238489588591" lon="14.984834045147107"><ele>1161.0</ele><time>2026-03-28T16:26:32.001Z</time></trkpt><trkpt lat="37.66248866178377" lon="14.984704274381325"><ele>1161.0</ele><time>2026-03-28T16:26:33.001Z</time></trkpt><trkpt lat="37.66257931597176" lon="14.984593417179227"><ele>1161.0</ele><time>2026-03-28T16:26:34.001Z</time></trkpt><trkpt lat="37.66266859039957" lon="14.984509405366454"><ele>1161.0</ele><time>2026-03-28T16:26:35.001Z</time></trkpt><trkpt lat="37.66276593424831" lon="14.984463037311174"><ele>1161.0</ele><time>2026-03-28T16:26:36.001Z</time></trkpt><trkpt lat="37.66287134956027" lon="14.984460914633342"><ele>1161.0</ele><time>2026-03-28T16:26:37.001Z</time></trkpt><trkpt lat="37.66297733651243" lon="14.984505313212871"><ele>1161.0</ele><time>2026-03-28T16:26:38.001Z</time></trkpt><trkpt lat="37.663075247770415" lon="14.9845932108319"><ele>1161.0</ele><time>2026-03-28T16:26:39.001Z</time></trkpt><trkpt lat="37.6631430984814" lon="14.984719008391352"><ele>1164.75</ele><time>2026-03-28T16:26:40.001Z</time></trkpt><trkpt lat="37.663176502283676" lon="14.984867137260531"><ele>1168.5</ele><time>2026-03-28T16:26:41.001Z</time></trkpt><trkpt lat="37.66314819270078" lon="14.985013028500934"><ele>1172.25</ele><time>2026-03-28T16:26:42.001Z</time></trkpt><trkpt lat="37.66311198037463" lon="14.98516007104987"><ele>1176.0</ele><time>2026-03-28T16:26:43.001Z</time></trkpt><trkpt lat="37.663004880384825" lon="14.985259276121878"><ele>1177.25</ele><time>2026-03-28T16:26:44.002Z</time></trkpt><trkpt lat="37.662921457913704" lon="14.985382158835316"><ele>1178.5</ele><time>2026-03-28T16:26:45.002Z</time></trkpt><trkpt lat="37.66284906396135" lon="14.985499156469647"><ele>1179.75</ele><time>2026-03-28T16:26:46.002Z</time></trkpt><trkpt lat="37.66282367122572" lon="14.985631067770646"><ele>1181.0</ele><time>2026-03-28T16:26:47.002Z</time></trkpt><trkpt lat="37.66283697782085" lon="14.985776695822354"><ele>1181.75</ele><time>2026-03-28T16:26:48.002Z</time></trkpt><trkpt lat="37.66288717414339" lon="14.985916826615496"><ele>1182.5</ele><time>2026-03-28T16:26:49.002Z</time></trkpt><trkpt lat="37.66296997971885" lon="14.986038699608155"><ele>1183.25</ele><time>2026-03-28T16:26:50.002Z</time></trkpt><trkpt lat="37.663072319913056" lon="14.986132201043988"><ele>1184.0</ele><time>2026-03-28T16:26:51.002Z</time></trkpt><trkpt lat="37.66319188051158" lon="14.9861916215198"><ele>1184.0</ele><time>2026-03-28T16:26:52.002Z</time></trkpt><trkpt lat="37.663317883407274" lon="14.986197941910337"><ele>1184.0</ele><time>2026-03-28T16:26:53.002Z</time></trkpt><trkpt lat="37.66342769449773" lon="14.986149829743027"><ele>1184.0</ele><time>2026-03-28T16:26:54.002Z</time></trkpt><trkpt lat="37.66351383496211" lon="14.986057243742705"><ele>1184.0</ele><time>2026-03-28T16:26:55.002Z</time></trkpt><trkpt lat="37.66358410007794" lon="14.985929656428548"><ele>1183.25</ele><time>2026-03-28T16:26:56.002Z</time></trkpt><trkpt lat="37.66362863805409" lon="14.98577918699396"><ele>1182.5</ele><time>2026-03-28T16:26:57.002Z</time></trkpt><trkpt lat="37.663636539054224" lon="14.985629838901986"><ele>1181.75</ele><time>2026-03-28T16:26:58.002Z</time></trkpt><trkpt lat="37.663608326383304" lon="14.98545334618015"><ele>1181.0</ele><time>2026-03-28T16:26:59.002Z</time></trkpt><trkpt lat="37.66360256504485" lon="14.985297068478134"><ele>1184.0</ele><time>2026-03-28T16:27:00.002Z</time></trkpt><trkpt lat="37.663645330911955" lon="14.985151155006397"><ele>1187.0</ele><time>2026-03-28T16:27:01.002Z</time></trkpt><trkpt lat="37.663718358478555" lon="14.985001899017302"><ele>1190.0</ele><time>2026-03-28T16:27:02.002Z</time></trkpt><trkpt lat="37.66380036514423" lon="14.98484669230923"><ele>1193.0</ele><time>2026-03-28T16:27:03.002Z</time></trkpt><trkpt lat="37.663897474676624" lon="14.984692477520898"><ele>1193.0</ele><time>2026-03-28T16:27:04.002Z</time></trkpt><trkpt lat="37.663994665388074" lon="14.984531289027318"><ele>1193.0</ele><time>2026-03-28T16:27:05.002Z</time></trkpt><trkpt lat="37.664092542852856" lon="14.98436458127932"><ele>1193.0</ele><time>2026-03-28T16:27:06.002Z</time></trkpt><trkpt lat="37.66418942655893" lon="14.98420808486095"><ele>1192.25</ele><time>2026-03-28T16:27:07.002Z</time></trkpt><trkpt lat="37.66428000058838" lon="14.984066986862251"><ele>1191.5</ele><time>2026-03-28T16:27:08.002Z</time></trkpt><trkpt lat="37.66437239493722" lon="14.98395929437528"><ele>1190.75</ele><time>2026-03-28T16:27:09.002Z</time></trkpt><trkpt lat="37.664489304505" lon="14.983910794088828"><ele>1190.0</ele><time>2026-03-28T16:27:10.002Z</time></trkpt><trkpt lat="37.66460931624078" lon="14.983846006227171"><ele>1194.5</ele><time>2026-03-28T16:27:11.002Z</time></trkpt><trkpt lat="37.66474695922704" lon="14.983811030712781"><ele>1199.0</ele><time>2026-03-28T16:27:12.002Z</time></trkpt><trkpt lat="37.66487503764024" lon="14.983763194287656"><ele>1203.5</ele><time>2026-03-28T16:27:13.002Z</time></trkpt><trkpt lat="37.66499533731502" lon="14.983701846021336"><ele>1208.0</ele><time>2026-03-28T16:27:14.002Z</time></trkpt><trkpt lat="37.665124426195206" lon="14.98357270832756"><ele>1208.0</ele><time>2026-03-28T16:27:15.002Z</time></trkpt><trkpt lat="37.6652203883904" lon="14.983450405134368"><ele>1208.0</ele><time>2026-03-28T16:27:16.002Z</time></trkpt><trkpt lat="37.66530670815501" lon="14.983346277694045"><ele>1208.0</ele><time>2026-03-28T16:27:17.002Z</time></trkpt><trkpt lat="37.665382475684495" lon="14.983285020118354"><ele>1208.0</ele><time>2026-03-28T16:27:18.002Z</time></trkpt><trkpt lat="37.6654935129742" lon="14.983239194512498"><ele>1209.5</ele><time>2026-03-28T16:27:19.002Z</time></trkpt><trkpt lat="37.66563714953812" lon="14.983245812219861"><ele>1211.0</ele><time>2026-03-28T16:27:20.002Z</time></trkpt><trkpt lat="37.66576866841059" lon="14.98328966212822"><ele>1212.5</ele><time>2026-03-28T16:27:21.002Z</time></trkpt><trkpt lat="37.66587683760786" lon="14.983385483795299"><ele>1214.0</ele><time>2026-03-28T16:27:22.002Z</time></trkpt><trkpt lat="37.665959181046475" lon="14.983518538747331"><ele>1216.0</ele><time>2026-03-28T16:27:23.002Z</time></trkpt><trkpt lat="37.66601189083276" lon="14.983679157737"><ele>1218.0</ele><time>2026-03-28T16:27:24.002Z</time></trkpt><trkpt lat="37.66600358730955" lon="14.98384527781965"><ele>1220.0</ele><time>2026-03-28T16:27:25.002Z</time></trkpt><trkpt lat="37.665972882027525" lon="14.98400026565622"><ele>1222.0</ele><time>2026-03-28T16:27:26.002Z</time></trkpt><trkpt lat="37.66590451427621" lon="14.984146013774797"><ele>1223.5</ele><time>2026-03-28T16:27:27.001Z</time></trkpt><trkpt lat="37.66581509481512" lon="14.984262132143977"><ele>1225.0</ele><time>2026-03-28T16:27:28.001Z</time></trkpt><trkpt lat="37.66571055086658" lon="14.984324153985462"><ele>1226.5</ele><time>2026-03-28T16:27:29.001Z</time></trkpt><trkpt lat="37.66560558797876" lon="14.98440808353091"><ele>1228.0</ele><time>2026-03-28T16:27:30.001Z</time></trkpt><trkpt lat="37.66550799277306" lon="14.984479600440284"><ele>1228.0</ele><time>2026-03-28T16:27:31.001Z</time></trkpt><trkpt lat="37.66543682470361" lon="14.984588903540178"><ele>1228.0</ele><time>2026-03-28T16:27:32.001Z</time></trkpt><trkpt lat="37.665412531805735" lon="14.984748233220268"><ele>1228.0</ele><time>2026-03-28T16:27:33.001Z</time></trkpt><trkpt lat="37.66541875182102" lon="14.984930199430165"><ele>1228.0</ele><time>2026-03-28T16:27:34.001Z</time></trkpt><trkpt lat="37.66548570474108" lon="14.98508188242282"><ele>1228.75</ele><time>2026-03-28T16:27:35.001Z</time></trkpt><trkpt lat="37.665441040351816" lon="14.985138896589953"><ele>1229.5</ele><time>2026-03-28T16:27:36.001Z</time></trkpt><trkpt lat="37.66553939153944" lon="14.985244062300245"><ele>1230.25</ele><time>2026-03-28T16:27:37.001Z</time></trkpt><trkpt lat="37.66566300365753" lon="14.985302911296774"><ele>1231.0</ele><time>2026-03-28T16:27:38.001Z</time></trkpt><trkpt lat="37.66579228063961" lon="14.985305240572526"><ele>1231.0</ele><time>2026-03-28T16:27:39.001Z</time></trkpt><trkpt lat="37.66591948240094" lon="14.985281828377428"><ele>1231.0</ele><time>2026-03-28T16:27:40.001Z</time></trkpt><trkpt lat="37.666020375733616" lon="14.985201710256694"><ele>1231.0</ele><time>2026-03-28T16:27:41.001Z</time></trkpt><trkpt lat="37.666102446332204" lon="14.985073838008454"><ele>1231.0</ele><time>2026-03-28T16:27:42.001Z</time></trkpt><trkpt lat="37.666171493564384" lon="14.98493327660186"><ele>1234.3333333333333</ele><time>2026-03-28T16:27:43.001Z</time></trkpt><trkpt lat="37.66626794757385" lon="14.98479724294438"><ele>1237.6666666666667</ele><time>2026-03-28T16:27:44.001Z</time></trkpt><trkpt lat="37.666367861724986" lon="14.98463347279329"><ele>1241.0</ele><time>2026-03-28T16:27:45.001Z</time></trkpt><trkpt lat="37.66645974859586" lon="14.984485062625664"><ele>1241.0</ele><time>2026-03-28T16:27:46.001Z</time></trkpt><trkpt lat="37.66655248604446" lon="14.984364656208127"><ele>1241.0</ele><time>2026-03-28T16:27:47.001Z</time></trkpt><trkpt lat="37.666646493805025" lon="14.984283642464376"><ele>1241.0</ele><time>2026-03-28T16:27:48.001Z</time></trkpt><trkpt lat="37.66674261750476" lon="14.984224860725115"><ele>1241.0</ele><time>2026-03-28T16:27:49.001Z</time></trkpt><trkpt lat="37.6668712593167" lon="14.984223692726463"><ele>1246.0</ele><time>2026-03-28T16:27:50.001Z</time></trkpt><trkpt lat="37.666998023539904" lon="14.98425661610471"><ele>1251.0</ele><time>2026-03-28T16:27:51.001Z</time></trkpt><trkpt lat="37.66712092962066" lon="14.984334419873191"><ele>1256.0</ele><time>2026-03-28T16:27:52.001Z</time></trkpt><trkpt lat="37.66723069989778" lon="14.984462523580937"><ele>1261.0</ele><time>2026-03-28T16:27:53.001Z</time></trkpt><trkpt lat="37.66731017259253" lon="14.984614132205484"><ele>1261.0</ele><time>2026-03-28T16:27:54.001Z</time></trkpt><trkpt lat="37.667364560754706" lon="14.984776848844533"><ele>1261.0</ele><time>2026-03-28T16:27:55.001Z</time></trkpt><trkpt lat="37.66733021923488" lon="14.984966026744361"><ele>1261.0</ele><time>2026-03-28T16:27:56.001Z</time></trkpt><trkpt lat="37.66728874959833" lon="14.985142209780578"><ele>1261.0</ele><time>2026-03-28T16:27:57.001Z</time></trkpt><trkpt lat="37.66723547218998" lon="14.985343945778872"><ele>1260.3333333333333</ele><time>2026-03-28T16:27:58.001Z</time></trkpt><trkpt lat="37.667189747112914" lon="14.985548416978592"><ele>1259.6666666666667</ele><time>2026-03-28T16:27:59.001Z</time></trkpt><trkpt lat="37.66712515482196" lon="14.985750717172694"><ele>1259.0</ele><time>2026-03-28T16:28:00.001Z</time></trkpt><trkpt lat="37.6670685418835" lon="14.985962331907636"><ele>1260.6666666666667</ele><time>2026-03-28T16:28:01.001Z</time></trkpt><trkpt lat="37.66701033341755" lon="14.986176225824012"><ele>1262.3333333333333</ele><time>2026-03-28T16:28:02.001Z</time></trkpt><trkpt lat="37.66694942740849" lon="14.986391185923837"><ele>1264.0</ele><time>2026-03-28T16:28:03.001Z</time></trkpt><trkpt lat="37.66689639893284" lon="14.986582967885106"><ele>1263.0</ele><time>2026-03-28T16:28:04.001Z</time></trkpt><trkpt lat="37.66685654787812" lon="14.986741894136594"><ele>1262.0</ele><time>2026-03-28T16:28:05.001Z</time></trkpt><trkpt lat="37.66684879585583" lon="14.986887004584146"><ele>1261.0</ele><time>2026-03-28T16:28:06.001Z</time></trkpt><trkpt lat="37.66688624683132" lon="14.987021431734515"><ele>1260.0</ele><time>2026-03-28T16:28:07.001Z</time></trkpt><trkpt lat="37.666979024328626" lon="14.987133131436828"><ele>1263.5</ele><time>2026-03-28T16:28:08.001Z</time></trkpt><trkpt lat="37.66708443851691" lon="14.98721694352457"><ele>1267.0</ele><time>2026-03-28T16:28:09.001Z</time></trkpt><trkpt lat="37.66719923112038" lon="14.987246342908549"><ele>1270.5</ele><time>2026-03-28T16:28:10.001Z</time></trkpt><trkpt lat="37.66730718976274" lon="14.98721662901582"><ele>1274.0</ele><time>2026-03-28T16:28:11.001Z</time></trkpt><trkpt lat="37.667399876263175" lon="14.987144339521732"><ele>1274.0</ele><time>2026-03-28T16:28:12.001Z</time></trkpt><trkpt lat="37.66750120120133" lon="14.987055963389752"><ele>1274.0</ele><time>2026-03-28T16:28:13.001Z</time></trkpt><trkpt lat="37.66761439449708" lon="14.986974228451372"><ele>1274.0</ele><time>2026-03-28T16:28:14.001Z</time></trkpt><trkpt lat="37.66773076707558" lon="14.986894168991586"><ele>1274.0</ele><time>2026-03-28T16:28:15.001Z</time></trkpt><trkpt lat="37.66783895171817" lon="14.98680293084568"><ele>1276.25</ele><time>2026-03-28T16:28:16.001Z</time></trkpt><trkpt lat="37.667927271180524" lon="14.986690251165072"><ele>1278.5</ele><time>2026-03-28T16:28:17.001Z</time></trkpt><trkpt lat="37.66799784917932" lon="14.986565108492398"><ele>1280.75</ele><time>2026-03-28T16:28:18.001Z</time></trkpt><trkpt lat="37.66807207972574" lon="14.98645079794474"><ele>1283.0</ele><time>2026-03-28T16:28:19.001Z</time></trkpt><trkpt lat="37.66816488317153" lon="14.986376514979574"><ele>1283.0</ele><time>2026-03-28T16:28:20.001Z</time></trkpt><trkpt lat="37.668278956949464" lon="14.986342478960472"><ele>1283.0</ele><time>2026-03-28T16:28:21.001Z</time></trkpt><trkpt lat="37.6684008656126" lon="14.986353115507553"><ele>1283.0</ele><time>2026-03-28T16:28:22.001Z</time></trkpt><trkpt lat="37.66852117507544" lon="14.986423005899137"><ele>1283.0</ele><time>2026-03-28T16:28:23.001Z</time></trkpt><trkpt lat="37.66863742787024" lon="14.986528100046547"><ele>1286.75</ele><time>2026-03-28T16:28:24.001Z</time></trkpt><trkpt lat="37.668679208070394" lon="14.986634097501934"><ele>1290.5</ele><time>2026-03-28T16:28:25.001Z</time></trkpt><trkpt lat="37.66871459632887" lon="14.986794223525584"><ele>1294.25</ele><time>2026-03-28T16:28:26.001Z</time></trkpt><trkpt lat="37.66872237826264" lon="14.986961488387355"><ele>1298.0</ele><time>2026-03-28T16:28:27.001Z</time></trkpt><trkpt lat="37.668715572845635" lon="14.987138573075914"><ele>1298.0</ele><time>2026-03-28T16:28:28.001Z</time></trkpt><trkpt lat="37.668708084456505" lon="14.987315588783607"><ele>1298.0</ele><time>2026-03-28T16:28:29.001Z</time></trkpt><trkpt lat="37.66872099091691" lon="14.987471189336224"><ele>1298.0</ele><time>2026-03-28T16:28:30.001Z</time></trkpt><trkpt lat="37.66877219813311" lon="14.987584559155177"><ele>1298.0</ele><time>2026-03-28T16:28:31.001Z</time></trkpt><trkpt lat="37.66884892863758" lon="14.987700231035685"><ele>1297.0</ele><time>2026-03-28T16:28:32.001Z</time></trkpt><trkpt lat="37.66895205757668" lon="14.9878108227807"><ele>1296.0</ele><time>2026-03-28T16:28:33.001Z</time></trkpt><trkpt lat="37.669079154312925" lon="14.98789320506275"><ele>1295.0</ele><time>2026-03-28T16:28:34.001Z</time></trkpt><trkpt lat="37.669215215117156" lon="14.987944976169382"><ele>1294.0</ele><time>2026-03-28T16:28:35.001Z</time></trkpt><trkpt lat="37.66936536219748" lon="14.98799635459642"><ele>1297.0</ele><time>2026-03-28T16:28:36.001Z</time></trkpt><trkpt lat="37.66952325372645" lon="14.98806235770907"><ele>1300.0</ele><time>2026-03-28T16:28:37.001Z</time></trkpt><trkpt lat="37.669680279076424" lon="14.988131119337215"><ele>1303.0</ele><time>2026-03-28T16:28:38.001Z</time></trkpt><trkpt lat="37.669838087942075" lon="14.988198848733308"><ele>1303.0</ele><time>2026-03-28T16:28:39.001Z</time></trkpt><trkpt lat="37.67000550186807" lon="14.988275919391572"><ele>1303.0</ele><time>2026-03-28T16:28:40.001Z</time></trkpt><trkpt lat="37.670166558090095" lon="14.988348973331304"><ele>1303.0</ele><time>2026-03-28T16:28:41.001Z</time></trkpt><trkpt lat="37.6703189018029" lon="14.988415193238582"><ele>1304.75</ele><time>2026-03-28T16:28:42.001Z</time></trkpt><trkpt lat="37.67044894679331" lon="14.988481480667106"><ele>1306.5</ele><time>2026-03-28T16:28:43.002Z</time></trkpt><trkpt lat="37.670555606826504" lon="14.988563986976606"><ele>1308.25</ele><time>2026-03-28T16:28:44.002Z</time></trkpt><trkpt lat="37.67065117851136" lon="14.988651111171107"><ele>1310.0</ele><time>2026-03-28T16:28:45.002Z</time></trkpt><trkpt lat="37.670719459938624" lon="14.988780671886614"><ele>1310.0</ele><time>2026-03-28T16:28:46.002Z</time></trkpt><trkpt lat="37.67075751705312" lon="14.988930716715474"><ele>1310.0</ele><time>2026-03-28T16:28:47.002Z</time></trkpt><trkpt lat="37.670775896682386" lon="14.989092727687012"><ele>1310.0</ele><time>2026-03-28T16:28:48.002Z</time></trkpt><trkpt lat="37.67075695873954" lon="14.98925828315289"><ele>1310.0</ele><time>2026-03-28T16:28:49.002Z</time></trkpt><trkpt lat="37.670708232470794" lon="14.989406410424293"><ele>1311.0</ele><time>2026-03-28T16:28:50.002Z</time></trkpt><trkpt lat="37.67065949512444" lon="14.989566234599542"><ele>1312.0</ele><time>2026-03-28T16:28:51.002Z</time></trkpt><trkpt lat="37.67060944531754" lon="14.989731155390722"><ele>1313.0</ele><time>2026-03-28T16:28:52.002Z</time></trkpt><trkpt lat="37.670572897901984" lon="14.989897257731725"><ele>1314.0</ele><time>2026-03-28T16:28:53.002Z</time></trkpt><trkpt lat="37.67053740117253" lon="14.990057539255657"><ele>1315.0</ele><time>2026-03-28T16:28:54.002Z</time></trkpt><trkpt lat="37.67053494677635" lon="14.990201755066941"><ele>1316.0</ele><time>2026-03-28T16:28:55.002Z</time></trkpt><trkpt lat="37.67056437991928" lon="14.990358070634315"><ele>1317.0</ele><time>2026-03-28T16:28:56.002Z</time></trkpt><trkpt lat="37.67061966690234" lon="14.99051925950111"><ele>1318.0</ele><time>2026-03-28T16:28:57.002Z</time></trkpt><trkpt lat="37.670697350690325" lon="14.990662350018734"><ele>1318.0</ele><time>2026-03-28T16:28:58.002Z</time></trkpt><trkpt lat="37.6707883960592" lon="14.990789916528186"><ele>1318.0</ele><time>2026-03-28T16:28:59.002Z</time></trkpt><trkpt lat="37.67087911842469" lon="14.990911074777616"><ele>1318.0</ele><time>2026-03-28T16:29:00.002Z</time></trkpt><trkpt lat="37.670951043170376" lon="14.991011864230403"><ele>1318.0</ele><time>2026-03-28T16:29:01.002Z</time></trkpt><trkpt lat="37.671022424155744" lon="14.991084312195463"><ele>1317.6666666666665</ele><time>2026-03-28T16:29:02.002Z</time></trkpt><trkpt lat="37.6710932661011" lon="14.991126276679049"><ele>1317.3333333333333</ele><time>2026-03-28T16:29:03.002Z</time></trkpt><trkpt lat="37.67116295874161" lon="14.991154250216901"><ele>1317.0</ele><time>2026-03-28T16:29:04.002Z</time></trkpt><trkpt lat="37.67123590061581" lon="14.991192766198221"><ele>1316.6666666666667</ele><time>2026-03-28T16:29:06.002Z</time></trkpt><trkpt lat="37.67122131811572" lon="14.991272528856374"><ele>1316.3333333333335</ele><time>2026-03-28T16:29:08.002Z</time></trkpt><trkpt lat="37.67121996313104" lon="14.991422974555435"><ele>1316.0</ele><time>2026-03-28T16:29:10.002Z</time></trkpt><trkpt lat="37.67121905964672" lon="14.991512881849966"><ele>1319.6</ele><time>2026-03-28T16:29:11.002Z</time></trkpt><trkpt lat="37.67121774257188" lon="14.991643946543725"><ele>1323.1999999999998</ele><time>2026-03-28T16:29:13.002Z</time></trkpt><trkpt lat="37.671224696462886" lon="14.99178117763691"><ele>1326.8000000000002</ele><time>2026-03-28T16:29:15.002Z</time></trkpt><trkpt lat="37.671264112225856" lon="14.991871834115965"><ele>1330.4</ele><time>2026-03-28T16:29:17.002Z</time></trkpt><trkpt lat="37.671351300072416" lon="14.991897996988484"><ele>1334.0</ele><time>2026-03-28T16:29:19.002Z</time></trkpt><trkpt lat="37.671469245120775" lon="14.99189231015106"><ele>1334.1666666666667</ele><time>2026-03-28T16:29:21.002Z</time></trkpt><trkpt lat="37.6715391149871" lon="14.991876738849795"><ele>1334.3333333333335</ele><time>2026-03-28T16:29:22.002Z</time></trkpt><trkpt lat="37.67161180103997" lon="14.991884033757769"><ele>1334.5</ele><time>2026-03-28T16:29:23.002Z</time></trkpt><trkpt lat="37.671687208733616" lon="14.991908821639665"><ele>1334.6666666666667</ele><time>2026-03-28T16:29:24.002Z</time></trkpt><trkpt lat="37.671754116941244" lon="14.991896185700202"><ele>1334.8333333333333</ele><time>2026-03-28T16:29:25.002Z</time></trkpt><trkpt lat="37.671828576150574" lon="14.991916940121625"><ele>1335.0</ele><time>2026-03-28T16:29:26.002Z</time></trkpt><trkpt lat="37.67191314258223" lon="14.991909600092717"><ele>1337.5</ele><time>2026-03-28T16:29:27.002Z</time></trkpt><trkpt lat="37.671985466416004" lon="14.991905285073145"><ele>1340.0</ele><time>2026-03-28T16:29:28.002Z</time></trkpt><trkpt lat="37.67205968696401" lon="14.991912326654814"><ele>1342.5</ele><time>2026-03-28T16:29:29.002Z</time></trkpt><trkpt lat="37.67213153327518" lon="14.991936067400767"><ele>1345.0</ele><time>2026-03-28T16:29:30.002Z</time></trkpt><trkpt lat="37.67219932652792" lon="14.991957687312361"><ele>1347.5</ele><time>2026-03-28T16:29:31.002Z</time></trkpt><trkpt lat="37.6722784311154" lon="14.99198439410157"><ele>1350.0</ele><time>2026-03-28T16:29:32.002Z</time></trkpt><trkpt lat="37.6723556152048" lon="14.9920111825256"><ele>1350.0</ele><time>2026-03-28T16:29:33.001Z</time></trkpt><trkpt lat="37.67244603453901" lon="14.992046345595128"><ele>1350.0</ele><time>2026-03-28T16:29:34.001Z</time></trkpt><trkpt lat="37.672523555174664" lon="14.992071007733456"><ele>1350.0</ele><time>2026-03-28T16:29:35.001Z</time></trkpt><trkpt lat="37.67260225869366" lon="14.992082485546112"><ele>1350.0</ele><time>2026-03-28T16:29:36.001Z</time></trkpt><trkpt lat="37.67268528093286" lon="14.992054978955165"><ele>1350.0</ele><time>2026-03-28T16:29:37.001Z</time></trkpt><trkpt lat="37.67278205771182" lon="14.99204304398214"><ele>1350.0</ele><time>2026-03-28T16:29:38.001Z</time></trkpt><trkpt lat="37.67286375523039" lon="14.992046038576175"><ele>1352.6666666666667</ele><time>2026-03-28T16:29:39.001Z</time></trkpt><trkpt lat="37.67295727128517" lon="14.992050214534594"><ele>1355.3333333333333</ele><time>2026-03-28T16:29:40.001Z</time></trkpt><trkpt lat="37.67304119555199" lon="14.992048284364214"><ele>1358.0</ele><time>2026-03-28T16:29:41.001Z</time></trkpt><trkpt lat="37.67312574874786" lon="14.992051825661125"><ele>1360.6666666666665</ele><time>2026-03-28T16:29:43.001Z</time></trkpt><trkpt lat="37.67320149553634" lon="14.991978574550812"><ele>1363.3333333333333</ele><time>2026-03-28T16:29:45.001Z</time></trkpt><trkpt lat="37.67320404791725" lon="14.991896971638749"><ele>1366.0</ele><time>2026-03-28T16:29:46.001Z</time></trkpt><trkpt lat="37.67318328813154" lon="14.991813828421586"><ele>1366.0</ele><time>2026-03-28T16:29:47.001Z</time></trkpt><trkpt lat="37.6731778080107" lon="14.99173091939992"><ele>1366.0</ele><time>2026-03-28T16:29:48.001Z</time></trkpt><trkpt lat="37.67320798925652" lon="14.991615358934698"><ele>1366.0</ele><time>2026-03-28T16:29:50.001Z</time></trkpt><trkpt lat="37.673294693029156" lon="14.991540054224902"><ele>1366.0</ele><time>2026-03-28T16:29:52.001Z</time></trkpt><trkpt lat="37.673353202803916" lon="14.991505769391383"><ele>1366.0</ele><time>2026-03-28T16:29:53.001Z</time></trkpt><trkpt lat="37.67342917384365" lon="14.991506918226658"><ele>1366.0</ele><time>2026-03-28T16:29:54.001Z</time></trkpt><trkpt lat="37.673507014628946" lon="14.99150884911849"><ele>1366.5</ele><time>2026-03-28T16:29:55.001Z</time></trkpt><trkpt lat="37.67359235540125" lon="14.99151642820128"><ele>1367.0</ele><time>2026-03-28T16:29:56.001Z</time></trkpt><trkpt lat="37.673681105852644" lon="14.991506059718171"><ele>1367.5</ele><time>2026-03-28T16:29:57.001Z</time></trkpt><trkpt lat="37.67376156925131" lon="14.99152825963937"><ele>1368.0</ele><time>2026-03-28T16:29:58.001Z</time></trkpt><trkpt lat="37.67382503637686" lon="14.991533769978302"><ele>1368.5</ele><time>2026-03-28T16:29:59.001Z</time></trkpt><trkpt lat="37.67390073307816" lon="14.991522835882904"><ele>1369.0</ele><time>2026-03-28T16:30:00.001Z</time></trkpt><trkpt lat="37.67401491770823" lon="14.991455523753153"><ele>1372.4</ele><time>2026-03-28T16:30:01.001Z</time></trkpt><trkpt lat="37.67412431932659" lon="14.99138447026532"><ele>1375.8000000000002</ele><time>2026-03-28T16:30:02.001Z</time></trkpt><trkpt lat="37.6742371813425" lon="14.991302422826347"><ele>1379.1999999999998</ele><time>2026-03-28T16:30:03.001Z</time></trkpt><trkpt lat="37.674333411242316" lon="14.991282821932321"><ele>1382.6</ele><time>2026-03-28T16:30:04.001Z</time></trkpt><trkpt lat="37.67440158823102" lon="14.991257689394155"><ele>1386.0</ele><time>2026-03-28T16:30:06.001Z</time></trkpt><trkpt lat="37.67450572505021" lon="14.991260229406947"><ele>1385.6</ele><time>2026-03-28T16:30:09.001Z</time></trkpt><trkpt lat="37.674472510673894" lon="14.991342323794823"><ele>1385.1999999999998</ele><time>2026-03-28T16:30:11.001Z</time></trkpt><trkpt lat="37.674467292878845" lon="14.991515301898719"><ele>1384.8000000000002</ele><time>2026-03-28T16:30:13.001Z</time></trkpt><trkpt lat="37.67446365840878" lon="14.991624364248345"><ele>1384.4</ele><time>2026-03-28T16:30:14.001Z</time></trkpt><trkpt lat="37.67443383344479" lon="14.991709115312174"><ele>1384.0</ele><time>2026-03-28T16:30:15.001Z</time></trkpt><trkpt lat="37.674420805457345" lon="14.991818882242377"><ele>1384.0</ele><time>2026-03-28T16:30:16.001Z</time></trkpt><trkpt lat="37.674391377638976" lon="14.991923946121739"><ele>1384.0</ele><time>2026-03-28T16:30:17.001Z</time></trkpt><trkpt lat="37.6743662847369" lon="14.992014525805619"><ele>1384.0</ele><time>2026-03-28T16:30:18.001Z</time></trkpt><trkpt lat="37.674346464422555" lon="14.992090179180575"><ele>1384.0</ele><time>2026-03-28T16:30:19.001Z</time></trkpt><trkpt lat="37.67432166871499" lon="14.992203593003335"><ele>1384.0</ele><time>2026-03-28T16:30:21.001Z</time></trkpt><trkpt lat="37.67428861185444" lon="14.992304232751481"><ele>1384.0</ele><time>2026-03-28T16:30:24.001Z</time></trkpt><trkpt lat="37.674416802068606" lon="14.99237836432143"><ele>1386.1666666666665</ele><time>2026-03-28T16:30:29.001Z</time></trkpt><trkpt lat="37.67450972401712" lon="14.992383005241884"><ele>1388.3333333333333</ele><time>2026-03-28T16:30:31.001Z</time></trkpt><trkpt lat="37.674585177293025" lon="14.99239862432938"><ele>1390.5</ele><time>2026-03-28T16:30:32.001Z</time></trkpt><trkpt lat="37.674654446717646" lon="14.992382006902224"><ele>1392.6666666666667</ele><time>2026-03-28T16:30:33.001Z</time></trkpt><trkpt lat="37.67474645653678" lon="14.992395660722696"><ele>1394.8333333333335</ele><time>2026-03-28T16:30:34.001Z</time></trkpt><trkpt lat="37.67482711733578" lon="14.992384150316042"><ele>1397.0</ele><time>2026-03-28T16:30:35.001Z</time></trkpt><trkpt lat="37.674907030684125" lon="14.992361009214918"><ele>1397.0</ele><time>2026-03-28T16:30:36.001Z</time></trkpt><trkpt lat="37.674972424488296" lon="14.992316262531856"><ele>1397.0</ele><time>2026-03-28T16:30:37.001Z</time></trkpt><trkpt lat="37.67504218722449" lon="14.99229384020791"><ele>1397.0</ele><time>2026-03-28T16:30:38.001Z</time></trkpt><trkpt lat="37.67510570600901" lon="14.992238141443908"><ele>1397.0</ele><time>2026-03-28T16:30:39.001Z</time></trkpt><trkpt lat="37.675169390525035" lon="14.992188266620452"><ele>1397.0</ele><time>2026-03-28T16:30:40.001Z</time></trkpt><trkpt lat="37.6752357785353" lon="14.992137589739114"><ele>1397.0</ele><time>2026-03-28T16:30:41.002Z</time></trkpt><trkpt lat="37.67532945044661" lon="14.992114142150912"><ele>1399.8333333333335</ele><time>2026-03-28T16:30:43.002Z</time></trkpt><trkpt lat="37.67539778678304" lon="14.992106668785075"><ele>1402.6666666666667</ele><time>2026-03-28T16:30:44.002Z</time></trkpt><trkpt lat="37.67547418970212" lon="14.992091933811908"><ele>1405.5</ele><time>2026-03-28T16:30:45.002Z</time></trkpt><trkpt lat="37.67556000440263" lon="14.992101149925457"><ele>1408.3333333333333</ele><time>2026-03-28T16:30:46.002Z</time></trkpt><trkpt lat="37.67563739176817" lon="14.992114426805802"><ele>1411.1666666666665</ele><time>2026-03-28T16:30:47.002Z</time></trkpt><trkpt lat="37.675712498206096" lon="14.9921248958702"><ele>1414.0</ele><time>2026-03-28T16:30:48.002Z</time></trkpt><trkpt lat="37.675779983071436" lon="14.992142165280066"><ele>1414.0</ele><time>2026-03-28T16:30:49.002Z</time></trkpt><trkpt lat="37.67585513940642" lon="14.992145975802638"><ele>1414.0</ele><time>2026-03-28T16:30:50.002Z</time></trkpt><trkpt lat="37.67595244221644" lon="14.992176425899114"><ele>1414.0</ele><time>2026-03-28T16:30:52.002Z</time></trkpt><trkpt lat="37.676033455249055" lon="14.992205160269544"><ele>1414.0</ele><time>2026-03-28T16:30:54.002Z</time></trkpt><trkpt lat="37.67615306121318" lon="14.992244454376651"><ele>1414.0</ele><time>2026-03-28T16:30:56.002Z</time></trkpt><trkpt lat="37.67621650119234" lon="14.992270480220883"><ele>1417.1666666666665</ele><time>2026-03-28T16:30:57.002Z</time></trkpt><trkpt lat="37.67628229130366" lon="14.992297886860742"><ele>1420.3333333333333</ele><time>2026-03-28T16:30:58.002Z</time></trkpt><trkpt lat="37.67634478365822" lon="14.992333584682516"><ele>1423.5</ele><time>2026-03-28T16:30:59.002Z</time></trkpt><trkpt lat="37.676456824788254" lon="14.992355378231503"><ele>1426.6666666666667</ele><time>2026-03-28T16:31:01.002Z</time></trkpt><trkpt lat="37.67655182598199" lon="14.992374942164165"><ele>1429.8333333333335</ele><time>2026-03-28T16:31:03.002Z</time></trkpt><trkpt lat="37.67663980776224" lon="14.992380605750057"><ele>1433.0</ele><time>2026-03-28T16:31:05.002Z</time></trkpt><trkpt lat="37.676723544273294" lon="14.992343922020282"><ele>1433.0</ele><time>2026-03-28T16:31:07.002Z</time></trkpt><trkpt lat="37.67677974779534" lon="14.992296234134209"><ele>1433.0</ele><time>2026-03-28T16:31:08.002Z</time></trkpt><trkpt lat="37.67682612006038" lon="14.992236383935701"><ele>1433.0</ele><time>2026-03-28T16:31:10.002Z</time></trkpt><trkpt lat="37.676864321980936" lon="14.992158103927146"><ele>1433.0</ele><time>2026-03-28T16:31:11.002Z</time></trkpt><trkpt lat="37.676900337537504" lon="14.992090904042039"><ele>1433.0</ele><time>2026-03-28T16:31:16.002Z</time></trkpt><trkpt lat="37.67685270644403" lon="14.992178588728418"><ele>1433.0</ele><time>2026-03-28T16:32:13.001Z</time></trkpt><trkpt lat="37.67679702164972" lon="14.992259433460559"><ele>1433.0</ele><time>2026-03-28T16:32:16.001Z</time></trkpt><trkpt lat="37.67673779357471" lon="14.992341841533593"><ele>1433.0</ele><time>2026-03-28T16:32:19.001Z</time></trkpt><trkpt lat="37.67667252768927" lon="14.992366965851543"><ele>1433.0</ele><time>2026-03-28T16:32:21.001Z</time></trkpt><trkpt lat="37.67658922023353" lon="14.99240963942414"><ele>1433.0</ele><time>2026-03-28T16:32:24.001Z</time></trkpt><trkpt lat="37.67651197520906" lon="14.99238409407748"><ele>1433.0</ele><time>2026-03-28T16:32:26.001Z</time></trkpt><trkpt lat="37.67641699249331" lon="14.992032775706686"><ele>1433.0</ele><time>2026-03-28T16:32:28.001Z</time></trkpt><trkpt lat="37.676326461666754" lon="14.991970470690614"><ele>1433.0</ele><time>2026-03-28T16:32:31.001Z</time></trkpt><trkpt lat="37.67621811642404" lon="14.991953271589564"><ele>1433.0</ele><time>2026-03-28T16:32:33.001Z</time></trkpt><trkpt lat="37.67615257790737" lon="14.991942602006224"><ele>1433.0</ele><time>2026-03-28T16:32:34.001Z</time></trkpt><trkpt lat="37.676088713173755" lon="14.99193092973498"><ele>1433.0</ele><time>2026-03-28T16:32:35.001Z</time></trkpt><trkpt lat="37.67601764761244" lon="14.991917941398627"><ele>1433.0</ele><time>2026-03-28T16:32:36.001Z</time></trkpt><trkpt lat="37.675953996359475" lon="14.99190630814297"><ele>1428.25</ele><time>2026-03-28T16:32:37.001Z</time></trkpt><trkpt lat="37.67584151042366" lon="14.99188574961611"><ele>1423.5</ele><time>2026-03-28T16:32:39.001Z</time></trkpt><trkpt lat="37.67575548187539" lon="14.991870026593551"><ele>1418.75</ele><time>2026-03-28T16:32:41.001Z</time></trkpt><trkpt lat="37.6756728387287" lon="14.991854922304109"><ele>1414.0</ele><time>2026-03-28T16:32:43.001Z</time></trkpt><trkpt lat="37.67559651328468" lon="14.992117958676594"><ele>1414.0</ele><time>2026-03-28T16:32:44.001Z</time></trkpt><trkpt lat="37.675503877176176" lon="14.992104305302075"><ele>1414.0</ele><time>2026-03-28T16:32:46.001Z</time></trkpt><trkpt lat="37.67540999186434" lon="14.992064166550822"><ele>1414.0</ele><time>2026-03-28T16:32:48.001Z</time></trkpt><trkpt lat="37.675329875888295" lon="14.992089262569635"><ele>1414.0</ele><time>2026-03-28T16:32:50.001Z</time></trkpt><trkpt lat="37.67525520180165" lon="14.99210445023244"><ele>1414.0</ele><time>2026-03-28T16:32:52.001Z</time></trkpt><trkpt lat="37.675180039629836" lon="14.99215408740722"><ele>1414.0</ele><time>2026-03-28T16:32:54.001Z</time></trkpt><trkpt lat="37.67509311707446" lon="14.992198176671117"><ele>1410.6</ele><time>2026-03-28T16:32:56.001Z</time></trkpt><trkpt lat="37.67502703326095" lon="14.99227066643263"><ele>1407.2</ele><time>2026-03-28T16:32:58.001Z</time></trkpt><trkpt lat="37.674944612560154" lon="14.992320174569464"><ele>1403.8</ele><time>2026-03-28T16:33:00.001Z</time></trkpt><trkpt lat="37.674848315415" lon="14.99233920009888"><ele>1400.3999999999999</ele><time>2026-03-28T16:33:02.002Z</time></trkpt><trkpt lat="37.67473862027747" lon="14.992362408859458"><ele>1397.0</ele><time>2026-03-28T16:33:04.002Z</time></trkpt><trkpt lat="37.67463786518442" lon="14.992357184624657"><ele>1397.0</ele><time>2026-03-28T16:33:06.002Z</time></trkpt><trkpt lat="37.67455232550474" lon="14.992356384646344"><ele>1397.0</ele><time>2026-03-28T16:33:08.002Z</time></trkpt><trkpt lat="37.6744772949615" lon="14.992354174586673"><ele>1397.0</ele><time>2026-03-28T16:33:10.002Z</time></trkpt><trkpt lat="37.674406846286224" lon="14.99235132633449"><ele>1397.0</ele><time>2026-03-28T16:33:12.002Z</time></trkpt><trkpt lat="37.674333742274285" lon="14.99233767635085"><ele>1397.0</ele><time>2026-03-28T16:33:15.002Z</time></trkpt><trkpt lat="37.67434177935675" lon="14.99221114121465"><ele>1397.0</ele><time>2026-03-28T16:33:19.002Z</time></trkpt><trkpt lat="37.67437661504706" lon="14.992066225871582"><ele>1397.0</ele><time>2026-03-28T16:33:21.002Z</time></trkpt><trkpt lat="37.67440838560498" lon="14.991955051331622"><ele>1397.0</ele><time>2026-03-28T16:33:22.002Z</time></trkpt><trkpt lat="37.67441466438035" lon="14.991860463430637"><ele>1397.0</ele><time>2026-03-28T16:33:23.002Z</time></trkpt><trkpt lat="37.67444872302061" lon="14.991741715453445"><ele>1397.0</ele><time>2026-03-28T16:33:24.002Z</time></trkpt><trkpt lat="37.67447044816223" lon="14.991656247287505"><ele>1397.0</ele><time>2026-03-28T16:33:25.002Z</time></trkpt><trkpt lat="37.67448952509949" lon="14.991520807212462"><ele>1397.0</ele><time>2026-03-28T16:33:27.002Z</time></trkpt><trkpt lat="37.67449588108723" lon="14.991405439975587"><ele>1398.1666666666667</ele><time>2026-03-28T16:33:29.002Z</time></trkpt><trkpt lat="37.6744993680882" lon="14.991308094457814"><ele>1399.3333333333335</ele><time>2026-03-28T16:33:32.002Z</time></trkpt><trkpt lat="37.67451755578748" lon="14.991220186713937"><ele>1400.5</ele><time>2026-03-28T16:33:35.002Z</time></trkpt><trkpt lat="37.67459429100787" lon="14.991145268344523"><ele>1401.6666666666667</ele><time>2026-03-28T16:33:38.002Z</time></trkpt><trkpt lat="37.67465307286033" lon="14.991095806698393"><ele>1402.8333333333333</ele><time>2026-03-28T16:33:39.002Z</time></trkpt><trkpt lat="37.67470699050805" lon="14.991051638143041"><ele>1404.0</ele><time>2026-03-28T16:33:40.002Z</time></trkpt><trkpt lat="37.674756922412726" lon="14.990986813389695"><ele>1404.0</ele><time>2026-03-28T16:33:41.002Z</time></trkpt><trkpt lat="37.674830366246695" lon="14.990942551416254"><ele>1404.0</ele><time>2026-03-28T16:33:42.002Z</time></trkpt><trkpt lat="37.674895920340724" lon="14.99089306491248"><ele>1404.0</ele><time>2026-03-28T16:33:43.002Z</time></trkpt><trkpt lat="37.67496104017904" lon="14.990836272306494"><ele>1404.0</ele><time>2026-03-28T16:33:44.002Z</time></trkpt><trkpt lat="37.67502610818637" lon="14.990774509403058"><ele>1404.0</ele><time>2026-03-28T16:33:45.002Z</time></trkpt><trkpt lat="37.675096946453294" lon="14.990746744435485"><ele>1404.0</ele><time>2026-03-28T16:33:46.002Z</time></trkpt><trkpt lat="37.67515953104915" lon="14.990736567855661"><ele>1404.5</ele><time>2026-03-28T16:33:47.002Z</time></trkpt><trkpt lat="37.67526761220788" lon="14.990747309241147"><ele>1405.0</ele><time>2026-03-28T16:33:49.002Z</time></trkpt><trkpt lat="37.675333894250755" lon="14.990748429949088"><ele>1405.5</ele><time>2026-03-28T16:33:50.002Z</time></trkpt><trkpt lat="37.675405136513945" lon="14.99075650660095"><ele>1406.0</ele><time>2026-03-28T16:33:51.001Z</time></trkpt><trkpt lat="37.67548345890706" lon="14.99074810223822"><ele>1406.5</ele><time>2026-03-28T16:33:52.001Z</time></trkpt><trkpt lat="37.67556107785324" lon="14.990753791444472"><ele>1407.0</ele><time>2026-03-28T16:33:54.001Z</time></trkpt><trkpt lat="37.67564583858479" lon="14.990736066011502"><ele>1409.1666666666667</ele><time>2026-03-28T16:33:57.001Z</time></trkpt><trkpt lat="37.675732816182276" lon="14.990837380911398"><ele>1411.3333333333333</ele><time>2026-03-28T16:34:01.001Z</time></trkpt><trkpt lat="37.67577563510376" lon="14.99093273047215"><ele>1413.5</ele><time>2026-03-28T16:34:04.001Z</time></trkpt><trkpt lat="37.67579758481989" lon="14.991015246637305"><ele>1415.6666666666665</ele><time>2026-03-28T16:34:05.001Z</time></trkpt><trkpt lat="37.675820389572735" lon="14.99109654577301"><ele>1417.8333333333333</ele><time>2026-03-28T16:34:06.001Z</time></trkpt><trkpt lat="37.67586655080688" lon="14.991175756269673"><ele>1420.0</ele><time>2026-03-28T16:34:12.001Z</time></trkpt><trkpt lat="37.675917745974786" lon="14.991232989306962"><ele>1420.0</ele><time>2026-03-28T16:34:16.001Z</time></trkpt><trkpt lat="37.676002403482265" lon="14.991271179379234"><ele>1420.0</ele><time>2026-03-28T16:34:19.001Z</time></trkpt><trkpt lat="37.676083062390504" lon="14.991279911444275"><ele>1420.0</ele><time>2026-03-28T16:34:21.001Z</time></trkpt><trkpt lat="37.67616239794854" lon="14.991282724809501"><ele>1420.0</ele><time>2026-03-28T16:34:23.001Z</time></trkpt><trkpt lat="37.67624282741861" lon="14.991285233872889"><ele>1420.0</ele><time>2026-03-28T16:34:25.001Z</time></trkpt><trkpt lat="37.676311611145195" lon="14.991286165567555"><ele>1420.0</ele><time>2026-03-28T16:34:28.001Z</time></trkpt><trkpt lat="37.67631750664662" lon="14.9913740871575"><ele>1436.0</ele><time>2026-03-28T16:34:34.001Z</time></trkpt><trkpt lat="37.67625448333407" lon="14.991401915453991"><ele>1436.0</ele><time>2026-03-28T16:34:37.001Z</time></trkpt><trkpt lat="37.67618832812375" lon="14.991456872624173"><ele>1436.0</ele><time>2026-03-28T16:34:41.001Z</time></trkpt><trkpt lat="37.67618984677603" lon="14.991548590064149"><ele>1436.0</ele><time>2026-03-28T16:34:47.001Z</time></trkpt></trkseg></trk></gpx>